﻿<?xml version="1.0" encoding="utf-8"?><gpx creator="Garmin Desktop App" version="1.1" xsi:schemaLocation="http://www.topografix.com/GPX/1/1 http://www.topografix.com/GPX/1/1/gpx.xsd http://www.garmin.com/xmlschemas/WaypointExtension/v1 http://www8.garmin.com/xmlschemas/WaypointExtensionv1.xsd http://www.garmin.com/xmlschemas/TrackPointExtension/v1 http://www.garmin.com/xmlschemas/TrackPointExtensionv1.xsd http://www.garmin.com/xmlschemas/GpxExtensions/v3 http://www8.garmin.com/xmlschemas/GpxExtensionsv3.xsd http://www.garmin.com/xmlschemas/ActivityExtension/v1 http://www8.garmin.com/xmlschemas/ActivityExtensionv1.xsd http://www.garmin.com/xmlschemas/AdventuresExtensions/v1 http://www8.garmin.com/xmlschemas/AdventuresExtensionv1.xsd http://www.garmin.com/xmlschemas/PressureExtension/v1 http://www.garmin.com/xmlschemas/PressureExtensionv1.xsd http://www.garmin.com/xmlschemas/TripExtensions/v1 http://www.garmin.com/xmlschemas/TripExtensionsv1.xsd http://www.garmin.com/xmlschemas/TripMetaDataExtensions/v1 http://www.garmin.com/xmlschemas/TripMetaDataExtensionsv1.xsd http://www.garmin.com/xmlschemas/ViaPointTransportationModeExtensions/v1 http://www.garmin.com/xmlschemas/ViaPointTransportationModeExtensionsv1.xsd http://www.garmin.com/xmlschemas/CreationTimeExtension/v1 http://www.garmin.com/xmlschemas/CreationTimeExtensionsv1.xsd http://www.garmin.com/xmlschemas/AccelerationExtension/v1 http://www.garmin.com/xmlschemas/AccelerationExtensionv1.xsd http://www.garmin.com/xmlschemas/PowerExtension/v1 http://www.garmin.com/xmlschemas/PowerExtensionv1.xsd http://www.garmin.com/xmlschemas/VideoExtension/v1 http://www.garmin.com/xmlschemas/VideoExtensionv1.xsd" xmlns="http://www.topografix.com/GPX/1/1" xmlns:xsi="http://www.w3.org/2001/XMLSchema-instance" xmlns:wptx1="http://www.garmin.com/xmlschemas/WaypointExtension/v1" xmlns:gpxtrx="http://www.garmin.com/xmlschemas/GpxExtensions/v3" xmlns:gpxtpx="http://www.garmin.com/xmlschemas/TrackPointExtension/v1" xmlns:gpxx="http://www.garmin.com/xmlschemas/GpxExtensions/v3" xmlns:trp="http://www.garmin.com/xmlschemas/TripExtensions/v1" xmlns:adv="http://www.garmin.com/xmlschemas/AdventuresExtensions/v1" xmlns:prs="http://www.garmin.com/xmlschemas/PressureExtension/v1" xmlns:tmd="http://www.garmin.com/xmlschemas/TripMetaDataExtensions/v1" xmlns:vptm="http://www.garmin.com/xmlschemas/ViaPointTransportationModeExtensions/v1" xmlns:ctx="http://www.garmin.com/xmlschemas/CreationTimeExtension/v1" xmlns:gpxacc="http://www.garmin.com/xmlschemas/AccelerationExtension/v1" xmlns:gpxpx="http://www.garmin.com/xmlschemas/PowerExtension/v1" xmlns:vidx1="http://www.garmin.com/xmlschemas/VideoExtension/v1">

  <metadata>
    <link href="http://www.garmin.com">
      <text>Garmin International</text>
    </link>
    <time>2025-05-06T18:34:04Z</time>
    <bounds maxlat="38.727957978844643" maxlon="-8.346856003627181" minlat="37.00733195990324" minlon="-9.179760022088885" />
  </metadata>

  <trk>
    <name>250506_G_Track</name>
    <extensions>
      <gpxx:TrackExtension>
        <gpxx:DisplayColor>DarkGray</gpxx:DisplayColor>
      </gpxx:TrackExtension>
    </extensions>
    <trkseg>
      <trkpt lat="38.717924002557993" lon="-9.155415035784245">
        <ele>79.930000000000007</ele>
        <time>2025-05-06T07:12:15Z</time>
      </trkpt>
      <trkpt lat="38.718141010031104" lon="-9.155482007190585">
        <ele>76.079999999999998</ele>
        <time>2025-05-06T07:12:19Z</time>
      </trkpt>
      <trkpt lat="38.718195995315909" lon="-9.155499022454023">
        <ele>75.599999999999994</ele>
        <time>2025-05-06T07:12:20Z</time>
      </trkpt>
      <trkpt lat="38.718323986977339" lon="-9.155539004132152">
        <ele>74.159999999999997</ele>
        <time>2025-05-06T07:12:22Z</time>
      </trkpt>
      <trkpt lat="38.718460025265813" lon="-9.155580997467041">
        <ele>72.719999999999999</ele>
        <time>2025-05-06T07:12:24Z</time>
      </trkpt>
      <trkpt lat="38.718526996672153" lon="-9.155589966103435">
        <ele>72.239999999999995</ele>
        <time>2025-05-06T07:12:25Z</time>
      </trkpt>
      <trkpt lat="38.718913989141583" lon="-9.155632965266705">
        <ele>64.069999999999993</ele>
        <time>2025-05-06T07:12:30Z</time>
      </trkpt>
      <trkpt lat="38.718998981639743" lon="-9.155637994408608">
        <ele>63.579999999999998</ele>
        <time>2025-05-06T07:12:31Z</time>
      </trkpt>
      <trkpt lat="38.719214983284473" lon="-9.155652998015285">
        <ele>62.140000000000001</ele>
        <time>2025-05-06T07:12:35Z</time>
      </trkpt>
      <trkpt lat="38.719426039606333" lon="-9.155666995793581">
        <ele>59.259999999999998</ele>
        <time>2025-05-06T07:12:43Z</time>
      </trkpt>
      <trkpt lat="38.719426039606333" lon="-9.155666995793581">
        <ele>55.890000000000001</ele>
        <time>2025-05-06T07:13:00Z</time>
      </trkpt>
      <trkpt lat="38.719510026276112" lon="-9.155674036592245">
        <ele>54.450000000000003</ele>
        <time>2025-05-06T07:13:02Z</time>
      </trkpt>
      <trkpt lat="38.719633994624019" lon="-9.155684011057019">
        <ele>55.890000000000001</ele>
        <time>2025-05-06T07:13:05Z</time>
      </trkpt>
      <trkpt lat="38.719683028757572" lon="-9.155688034370542">
        <ele>57.82</ele>
        <time>2025-05-06T07:13:06Z</time>
      </trkpt>
      <trkpt lat="38.719685962423682" lon="-9.155683005228639">
        <ele>58.780000000000001</ele>
        <time>2025-05-06T07:13:07Z</time>
      </trkpt>
      <trkpt lat="38.719697026535869" lon="-9.155657021328807">
        <ele>58.780000000000001</ele>
        <time>2025-05-06T07:13:08Z</time>
      </trkpt>
      <trkpt lat="38.719697026535869" lon="-9.155657021328807">
        <ele>71.269999999999996</ele>
        <time>2025-05-06T07:13:19Z</time>
      </trkpt>
      <trkpt lat="38.719814037904143" lon="-9.155397014692426">
        <ele>97.709999999999994</ele>
        <time>2025-05-06T07:13:39Z</time>
      </trkpt>
      <trkpt lat="38.719982011243701" lon="-9.154851017519832">
        <ele>91.459999999999994</ele>
        <time>2025-05-06T07:13:46Z</time>
      </trkpt>
      <trkpt lat="38.72008997015655" lon="-9.154393030330539">
        <ele>86.659999999999997</ele>
        <time>2025-05-06T07:13:55Z</time>
      </trkpt>
      <trkpt lat="38.720102040097117" lon="-9.154339972883463">
        <ele>86.180000000000007</ele>
        <time>2025-05-06T07:13:56Z</time>
      </trkpt>
      <trkpt lat="38.720182003453374" lon="-9.154154984280467">
        <ele>85.209999999999994</ele>
        <time>2025-05-06T07:13:59Z</time>
      </trkpt>
      <trkpt lat="38.720734035596251" lon="-9.153221994638443">
        <ele>84.25</ele>
        <time>2025-05-06T07:14:10Z</time>
      </trkpt>
      <trkpt lat="38.720922041684389" lon="-9.152860986068845">
        <ele>86.180000000000007</ele>
        <time>2025-05-06T07:14:17Z</time>
      </trkpt>
      <trkpt lat="38.721120022237301" lon="-9.152479022741318">
        <ele>87.620000000000005</ele>
        <time>2025-05-06T07:14:26Z</time>
      </trkpt>
      <trkpt lat="38.72116100974381" lon="-9.152391012758017">
        <ele>88.099999999999994</ele>
        <time>2025-05-06T07:14:27Z</time>
      </trkpt>
      <trkpt lat="38.721311967819929" lon="-9.152439963072538">
        <ele>88.579999999999998</ele>
        <time>2025-05-06T07:14:28Z</time>
      </trkpt>
      <trkpt lat="38.721392014995217" lon="-9.152397969737649">
        <ele>89.060000000000002</ele>
        <time>2025-05-06T07:14:29Z</time>
      </trkpt>
      <trkpt lat="38.721470972523093" lon="-9.152358993887901">
        <ele>89.060000000000002</ele>
        <time>2025-05-06T07:14:30Z</time>
      </trkpt>
      <trkpt lat="38.721728967502713" lon="-9.15220501832664">
        <ele>88.099999999999994</ele>
        <time>2025-05-06T07:14:33Z</time>
      </trkpt>
      <trkpt lat="38.721885960549116" lon="-9.152096975594759">
        <ele>86.659999999999997</ele>
        <time>2025-05-06T07:14:35Z</time>
      </trkpt>
      <trkpt lat="38.722068015486002" lon="-9.15199002251029">
        <ele>86.180000000000007</ele>
        <time>2025-05-06T07:14:37Z</time>
      </trkpt>
      <trkpt lat="38.722158037126064" lon="-9.151932019740343">
        <ele>86.180000000000007</ele>
        <time>2025-05-06T07:14:38Z</time>
      </trkpt>
      <trkpt lat="38.722906038165092" lon="-9.151459028944373">
        <ele>83.769999999999996</ele>
        <time>2025-05-06T07:14:46Z</time>
      </trkpt>
      <trkpt lat="38.722992036491632" lon="-9.151406977325678">
        <ele>83.290000000000006</ele>
        <time>2025-05-06T07:14:47Z</time>
      </trkpt>
      <trkpt lat="38.723165038973093" lon="-9.151300024241209">
        <ele>81.849999999999994</ele>
        <time>2025-05-06T07:14:49Z</time>
      </trkpt>
      <trkpt lat="38.723248019814491" lon="-9.151245038956404">
        <ele>81.370000000000005</ele>
        <time>2025-05-06T07:14:50Z</time>
      </trkpt>
      <trkpt lat="38.72333200648427" lon="-9.151189969852567">
        <ele>80.409999999999997</ele>
        <time>2025-05-06T07:14:51Z</time>
      </trkpt>
      <trkpt lat="38.723421022295952" lon="-9.151133978739381">
        <ele>79.450000000000003</ele>
        <time>2025-05-06T07:14:52Z</time>
      </trkpt>
      <trkpt lat="38.723509032279253" lon="-9.151081005111337">
        <ele>78.969999999999999</ele>
        <time>2025-05-06T07:14:53Z</time>
      </trkpt>
      <trkpt lat="38.723600981757045" lon="-9.151029959321022">
        <ele>78.480000000000004</ele>
        <time>2025-05-06T07:14:54Z</time>
      </trkpt>
      <trkpt lat="38.724036002531648" lon="-9.150784034281969">
        <ele>76.079999999999998</ele>
        <time>2025-05-06T07:14:59Z</time>
      </trkpt>
      <trkpt lat="38.724197018891573" lon="-9.150682026520371">
        <ele>75.599999999999994</ele>
        <time>2025-05-06T07:15:01Z</time>
      </trkpt>
      <trkpt lat="38.724254015833139" lon="-9.150645984336734">
        <ele>75.120000000000005</ele>
        <time>2025-05-06T07:15:02Z</time>
      </trkpt>
      <trkpt lat="38.72429802082479" lon="-9.150622012093663">
        <ele>75.120000000000005</ele>
        <time>2025-05-06T07:15:03Z</time>
      </trkpt>
      <trkpt lat="38.724332973361015" lon="-9.150602985173464">
        <ele>74.640000000000001</ele>
        <time>2025-05-06T07:15:04Z</time>
      </trkpt>
      <trkpt lat="38.724359963089228" lon="-9.150588987395167">
        <ele>74.640000000000001</ele>
        <time>2025-05-06T07:15:05Z</time>
      </trkpt>
      <trkpt lat="38.724378990009427" lon="-9.150578007102013">
        <ele>73.200000000000003</ele>
        <time>2025-05-06T07:15:15Z</time>
      </trkpt>
      <trkpt lat="38.724532965570688" lon="-9.150496032088995">
        <ele>69.829999999999998</ele>
        <time>2025-05-06T07:15:44Z</time>
      </trkpt>
      <trkpt lat="38.724511004984379" lon="-9.150367034599185">
        <ele>67.430000000000007</ele>
        <time>2025-05-06T07:15:47Z</time>
      </trkpt>
      <trkpt lat="38.724505975842476" lon="-9.150295034050942">
        <ele>66.469999999999999</ele>
        <time>2025-05-06T07:15:48Z</time>
      </trkpt>
      <trkpt lat="38.724488960579038" lon="-9.150082971900702">
        <ele>65.030000000000001</ele>
        <time>2025-05-06T07:15:51Z</time>
      </trkpt>
      <trkpt lat="38.724484015256166" lon="-9.150018012151122">
        <ele>64.549999999999997</ele>
        <time>2025-05-06T07:15:52Z</time>
      </trkpt>
      <trkpt lat="38.724479991942644" lon="-9.149957997724414">
        <ele>63.579999999999998</ele>
        <time>2025-05-06T07:15:53Z</time>
      </trkpt>
      <trkpt lat="38.724483009427786" lon="-9.149764962494373">
        <ele>60.219999999999999</ele>
        <time>2025-05-06T07:16:01Z</time>
      </trkpt>
      <trkpt lat="38.724572025239468" lon="-9.149496993049979">
        <ele>59.259999999999998</ele>
        <time>2025-05-06T07:16:23Z</time>
      </trkpt>
      <trkpt lat="38.724660035222769" lon="-9.149338994175196">
        <ele>58.780000000000001</ele>
        <time>2025-05-06T07:16:25Z</time>
      </trkpt>
      <trkpt lat="38.724708985537291" lon="-9.149272022768855">
        <ele>59.259999999999998</ele>
        <time>2025-05-06T07:16:26Z</time>
      </trkpt>
      <trkpt lat="38.724758019670844" lon="-9.149203961715102">
        <ele>58.780000000000001</ele>
        <time>2025-05-06T07:16:27Z</time>
      </trkpt>
      <trkpt lat="38.724806969985366" lon="-9.149135984480381">
        <ele>58.780000000000001</ele>
        <time>2025-05-06T07:16:28Z</time>
      </trkpt>
      <trkpt lat="38.724896991625428" lon="-9.149075970053673">
        <ele>58.780000000000001</ele>
        <time>2025-05-06T07:16:29Z</time>
      </trkpt>
      <trkpt lat="38.724971003830433" lon="-9.149046968668699">
        <ele>58.780000000000001</ele>
        <time>2025-05-06T07:16:30Z</time>
      </trkpt>
      <trkpt lat="38.725045016035438" lon="-9.149018973112106">
        <ele>58.299999999999997</ele>
        <time>2025-05-06T07:16:31Z</time>
      </trkpt>
      <trkpt lat="38.725119028240442" lon="-9.148988965898752">
        <ele>58.299999999999997</ele>
        <time>2025-05-06T07:16:32Z</time>
      </trkpt>
      <trkpt lat="38.725219024345279" lon="-9.148950995877385">
        <ele>58.299999999999997</ele>
        <time>2025-05-06T07:16:33Z</time>
      </trkpt>
      <trkpt lat="38.725312985479832" lon="-9.148969016969204">
        <ele>58.299999999999997</ele>
        <time>2025-05-06T07:16:35Z</time>
      </trkpt>
      <trkpt lat="38.725467966869473" lon="-9.149018973112106">
        <ele>57.82</ele>
        <time>2025-05-06T07:16:43Z</time>
      </trkpt>
      <trkpt lat="38.725477019324899" lon="-9.149021990597248">
        <ele>57.82</ele>
        <time>2025-05-06T07:16:44Z</time>
      </trkpt>
      <trkpt lat="38.72575999237597" lon="-9.149182001128793">
        <ele>58.299999999999997</ele>
        <time>2025-05-06T07:16:49Z</time>
      </trkpt>
      <trkpt lat="38.725811960175633" lon="-9.149231035262346">
        <ele>58.780000000000001</ele>
        <time>2025-05-06T07:16:50Z</time>
      </trkpt>
      <trkpt lat="38.725862000137568" lon="-9.149276968091726">
        <ele>58.780000000000001</ele>
        <time>2025-05-06T07:16:51Z</time>
      </trkpt>
      <trkpt lat="38.725914973765612" lon="-9.14932600222528">
        <ele>58.780000000000001</ele>
        <time>2025-05-06T07:16:52Z</time>
      </trkpt>
      <trkpt lat="38.725926959887147" lon="-9.149336982518435">
        <ele>58.780000000000001</ele>
        <time>2025-05-06T07:16:53Z</time>
      </trkpt>
      <trkpt lat="38.726002983748913" lon="-9.149472014978528">
        <ele>58.780000000000001</ele>
        <time>2025-05-06T07:16:54Z</time>
      </trkpt>
      <trkpt lat="38.726042965427041" lon="-9.14956203661859">
        <ele>59.259999999999998</ele>
        <time>2025-05-06T07:16:55Z</time>
      </trkpt>
      <trkpt lat="38.726074984297156" lon="-9.149673013016582">
        <ele>59.259999999999998</ele>
        <time>2025-05-06T07:16:56Z</time>
      </trkpt>
      <trkpt lat="38.726090993732214" lon="-9.149764040485025">
        <ele>59.740000000000002</ele>
        <time>2025-05-06T07:16:57Z</time>
      </trkpt>
      <trkpt lat="38.726099040359259" lon="-9.149840986356139">
        <ele>59.740000000000002</ele>
        <time>2025-05-06T07:16:58Z</time>
      </trkpt>
      <trkpt lat="38.726099040359259" lon="-9.149920027703047">
        <ele>60.219999999999999</ele>
        <time>2025-05-06T07:16:59Z</time>
      </trkpt>
      <trkpt lat="38.726099040359259" lon="-9.150138963013887">
        <ele>60.700000000000003</ele>
        <time>2025-05-06T07:17:03Z</time>
      </trkpt>
      <trkpt lat="38.726099040359259" lon="-9.150210041552782">
        <ele>61.18</ele>
        <time>2025-05-06T07:17:04Z</time>
      </trkpt>
      <trkpt lat="38.726044977083802" lon="-9.150423025712371">
        <ele>61.18</ele>
        <time>2025-05-06T07:17:11Z</time>
      </trkpt>
      <trkpt lat="38.726012036204338" lon="-9.150518998503685">
        <ele>62.140000000000001</ele>
        <time>2025-05-06T07:17:19Z</time>
      </trkpt>
      <trkpt lat="38.726012036204338" lon="-9.150518998503685">
        <ele>62.140000000000001</ele>
        <time>2025-05-06T07:18:05Z</time>
      </trkpt>
      <trkpt lat="38.725950010120869" lon="-9.150655036792159">
        <ele>62.619999999999997</ele>
        <time>2025-05-06T07:18:15Z</time>
      </trkpt>
      <trkpt lat="38.725869040936232" lon="-9.15076500736177">
        <ele>62.140000000000001</ele>
        <time>2025-05-06T07:18:17Z</time>
      </trkpt>
      <trkpt lat="38.725767033174634" lon="-9.150855029001832">
        <ele>62.140000000000001</ele>
        <time>2025-05-06T07:18:19Z</time>
      </trkpt>
      <trkpt lat="38.725713975727558" lon="-9.150901967659593">
        <ele>61.659999999999997</ele>
        <time>2025-05-06T07:18:20Z</time>
      </trkpt>
      <trkpt lat="38.725658990442753" lon="-9.150925017893314">
        <ele>61.659999999999997</ele>
        <time>2025-05-06T07:18:21Z</time>
      </trkpt>
      <trkpt lat="38.725486993789673" lon="-9.150994000956416">
        <ele>61.659999999999997</ele>
        <time>2025-05-06T07:18:24Z</time>
      </trkpt>
      <trkpt lat="38.725427985191345" lon="-9.151016967371106">
        <ele>61.659999999999997</ele>
        <time>2025-05-06T07:18:25Z</time>
      </trkpt>
      <trkpt lat="38.725377023220062" lon="-9.151160968467593">
        <ele>61.659999999999997</ele>
        <time>2025-05-06T07:18:26Z</time>
      </trkpt>
      <trkpt lat="38.725368976593018" lon="-9.151243027299643">
        <ele>61.659999999999997</ele>
        <time>2025-05-06T07:18:27Z</time>
      </trkpt>
      <trkpt lat="38.725357996299863" lon="-9.15134503506124">
        <ele>62.140000000000001</ele>
        <time>2025-05-06T07:18:28Z</time>
      </trkpt>
      <trkpt lat="38.725348021835089" lon="-9.151440002024174">
        <ele>62.619999999999997</ele>
        <time>2025-05-06T07:18:29Z</time>
      </trkpt>
      <trkpt lat="38.725342992693186" lon="-9.151574028655887">
        <ele>62.619999999999997</ele>
        <time>2025-05-06T07:18:30Z</time>
      </trkpt>
      <trkpt lat="38.725236039608717" lon="-9.152491008862853">
        <ele>67.430000000000007</ele>
        <time>2025-05-06T07:18:39Z</time>
      </trkpt>
      <trkpt lat="38.725211983546615" lon="-9.152821004390717">
        <ele>68.870000000000005</ele>
        <time>2025-05-06T07:18:42Z</time>
      </trkpt>
      <trkpt lat="38.725204020738602" lon="-9.152933992445469">
        <ele>69.349999999999994</ele>
        <time>2025-05-06T07:18:43Z</time>
      </trkpt>
      <trkpt lat="38.725193040445447" lon="-9.153075981885195">
        <ele>69.349999999999994</ele>
        <time>2025-05-06T07:18:44Z</time>
      </trkpt>
      <trkpt lat="38.725181976333261" lon="-9.153227023780346">
        <ele>69.349999999999994</ele>
        <time>2025-05-06T07:18:45Z</time>
      </trkpt>
      <trkpt lat="38.725166972726583" lon="-9.153445037081838">
        <ele>68.870000000000005</ele>
        <time>2025-05-06T07:18:47Z</time>
      </trkpt>
      <trkpt lat="38.725156998261809" lon="-9.153572022914887">
        <ele>68.870000000000005</ele>
        <time>2025-05-06T07:18:48Z</time>
      </trkpt>
      <trkpt lat="38.724865978583694" lon="-9.157385034486651">
        <ele>68.870000000000005</ele>
        <time>2025-05-06T07:19:19Z</time>
      </trkpt>
      <trkpt lat="38.724760031327605" lon="-9.158489014953375">
        <ele>68.870000000000005</ele>
        <time>2025-05-06T07:19:28Z</time>
      </trkpt>
      <trkpt lat="38.724656011909246" lon="-9.159093014895916">
        <ele>68.870000000000005</ele>
        <time>2025-05-06T07:19:33Z</time>
      </trkpt>
      <trkpt lat="38.724531037732959" lon="-9.159428039565682">
        <ele>68.870000000000005</ele>
        <time>2025-05-06T07:19:36Z</time>
      </trkpt>
      <trkpt lat="38.724315036088228" lon="-9.160551968961954">
        <ele>72.719999999999999</ele>
        <time>2025-05-06T07:19:46Z</time>
      </trkpt>
      <trkpt lat="38.723638029769063" lon="-9.164100028574467">
        <ele>90.019999999999996</ele>
        <time>2025-05-06T07:19:59Z</time>
      </trkpt>
      <trkpt lat="38.723233016207814" lon="-9.166230037808418">
        <ele>92.900000000000006</ele>
        <time>2025-05-06T07:20:10Z</time>
      </trkpt>
      <trkpt lat="38.722717026248574" lon="-9.168937979266048">
        <ele>80.409999999999997</ele>
        <time>2025-05-06T07:20:24Z</time>
      </trkpt>
      <trkpt lat="38.722369009628892" lon="-9.17117795906961">
        <ele>68.870000000000005</ele>
        <time>2025-05-06T07:20:34Z</time>
      </trkpt>
      <trkpt lat="38.722378984093666" lon="-9.171437965705991">
        <ele>67.909999999999997</ele>
        <time>2025-05-06T07:20:35Z</time>
      </trkpt>
      <trkpt lat="38.722391976043582" lon="-9.171696966513991">
        <ele>66.950000000000003</ele>
        <time>2025-05-06T07:20:36Z</time>
      </trkpt>
      <trkpt lat="38.722425000742078" lon="-9.171955967321992">
        <ele>65.989999999999995</ele>
        <time>2025-05-06T07:20:37Z</time>
      </trkpt>
      <trkpt lat="38.722458025440574" lon="-9.172199964523315">
        <ele>65.030000000000001</ele>
        <time>2025-05-06T07:20:38Z</time>
      </trkpt>
      <trkpt lat="38.722506975755095" lon="-9.172427030280232">
        <ele>64.069999999999993</ele>
        <time>2025-05-06T07:20:39Z</time>
      </trkpt>
      <trkpt lat="38.72311701066792" lon="-9.175081998109818">
        <ele>63.579999999999998</ele>
        <time>2025-05-06T07:20:51Z</time>
      </trkpt>
      <trkpt lat="38.723609028384089" lon="-9.177262969315052">
        <ele>65.510000000000005</ele>
        <time>2025-05-06T07:21:01Z</time>
      </trkpt>
      <trkpt lat="38.723720004782081" lon="-9.177356008440256">
        <ele>66.469999999999999</ele>
        <time>2025-05-06T07:21:02Z</time>
      </trkpt>
      <trkpt lat="38.723777001723647" lon="-9.177461033686996">
        <ele>67.430000000000007</ele>
        <time>2025-05-06T07:21:03Z</time>
      </trkpt>
      <trkpt lat="38.723871968686581" lon="-9.17749498039484">
        <ele>67.909999999999997</ele>
        <time>2025-05-06T07:21:04Z</time>
      </trkpt>
      <trkpt lat="38.723996020853519" lon="-9.177532028406858">
        <ele>68.870000000000005</ele>
        <time>2025-05-06T07:21:05Z</time>
      </trkpt>
      <trkpt lat="38.724178997799754" lon="-9.177476037293673">
        <ele>69.829999999999998</ele>
        <time>2025-05-06T07:21:07Z</time>
      </trkpt>
      <trkpt lat="38.724246975034475" lon="-9.177394984290004">
        <ele>70.310000000000002</ele>
        <time>2025-05-06T07:21:08Z</time>
      </trkpt>
      <trkpt lat="38.724289974197745" lon="-9.177302028983831">
        <ele>70.310000000000002</ele>
        <time>2025-05-06T07:21:09Z</time>
      </trkpt>
      <trkpt lat="38.724318975582719" lon="-9.177187029272318">
        <ele>70.310000000000002</ele>
        <time>2025-05-06T07:21:10Z</time>
      </trkpt>
      <trkpt lat="38.724360968917608" lon="-9.177016960456967">
        <ele>69.829999999999998</ele>
        <time>2025-05-06T07:21:11Z</time>
      </trkpt>
      <trkpt lat="38.724360968917608" lon="-9.176898021250963">
        <ele>69.349999999999994</ele>
        <time>2025-05-06T07:21:12Z</time>
      </trkpt>
      <trkpt lat="38.724336996674538" lon="-9.176713032647967">
        <ele>68.870000000000005</ele>
        <time>2025-05-06T07:21:13Z</time>
      </trkpt>
      <trkpt lat="38.724273964762688" lon="-9.176586968824267">
        <ele>68.390000000000001</ele>
        <time>2025-05-06T07:21:14Z</time>
      </trkpt>
      <trkpt lat="38.72421202249825" lon="-9.17646300047636">
        <ele>67.909999999999997</ele>
        <time>2025-05-06T07:21:15Z</time>
      </trkpt>
      <trkpt lat="38.724211016669869" lon="-9.176458977162838">
        <ele>67.430000000000007</ele>
        <time>2025-05-06T07:21:16Z</time>
      </trkpt>
      <trkpt lat="38.724037008360028" lon="-9.176303995773196">
        <ele>66.950000000000003</ele>
        <time>2025-05-06T07:21:17Z</time>
      </trkpt>
      <trkpt lat="38.723996020853519" lon="-9.176266025751829">
        <ele>66.469999999999999</ele>
        <time>2025-05-06T07:21:18Z</time>
      </trkpt>
      <trkpt lat="38.723850008100271" lon="-9.176221014931798">
        <ele>65.989999999999995</ele>
        <time>2025-05-06T07:21:19Z</time>
      </trkpt>
      <trkpt lat="38.723738025873899" lon="-9.176186984404922">
        <ele>65.510000000000005</ele>
        <time>2025-05-06T07:21:20Z</time>
      </trkpt>
      <trkpt lat="38.72365596704185" lon="-9.176200982183218">
        <ele>65.030000000000001</ele>
        <time>2025-05-06T07:21:21Z</time>
      </trkpt>
      <trkpt lat="38.723544990643859" lon="-9.176238030195236">
        <ele>64.069999999999993</ele>
        <time>2025-05-06T07:21:22Z</time>
      </trkpt>
      <trkpt lat="38.723427979275584" lon="-9.176277006044984">
        <ele>64.069999999999993</ele>
        <time>2025-05-06T07:21:23Z</time>
      </trkpt>
      <trkpt lat="38.723315997049212" lon="-9.176326962187886">
        <ele>63.579999999999998</ele>
        <time>2025-05-06T07:21:24Z</time>
      </trkpt>
      <trkpt lat="38.722543017938733" lon="-9.176782015711069">
        <ele>59.740000000000002</ele>
        <time>2025-05-06T07:21:31Z</time>
      </trkpt>
      <trkpt lat="38.722457019612193" lon="-9.176883017644286">
        <ele>58.780000000000001</ele>
        <time>2025-05-06T07:21:32Z</time>
      </trkpt>
      <trkpt lat="38.722372027114034" lon="-9.176984019577503">
        <ele>58.299999999999997</ele>
        <time>2025-05-06T07:21:33Z</time>
      </trkpt>
      <trkpt lat="38.722316036000848" lon="-9.177116034552455">
        <ele>57.82</ele>
        <time>2025-05-06T07:21:34Z</time>
      </trkpt>
      <trkpt lat="38.722314024344087" lon="-9.177266992628574">
        <ele>57.340000000000003</ele>
        <time>2025-05-06T07:21:35Z</time>
      </trkpt>
      <trkpt lat="38.722332967445254" lon="-9.1774089820683">
        <ele>56.859999999999999</ele>
        <time>2025-05-06T07:21:36Z</time>
      </trkpt>
      <trkpt lat="38.722374038770795" lon="-9.177539991214871">
        <ele>56.369999999999997</ele>
        <time>2025-05-06T07:21:37Z</time>
      </trkpt>
      <trkpt lat="38.722427012398839" lon="-9.177628001198173">
        <ele>55.890000000000001</ele>
        <time>2025-05-06T07:21:38Z</time>
      </trkpt>
      <trkpt lat="38.722473029047251" lon="-9.177704025059938">
        <ele>55.409999999999997</ele>
        <time>2025-05-06T07:21:39Z</time>
      </trkpt>
      <trkpt lat="38.72251502238214" lon="-9.177721040323377">
        <ele>54.93</ele>
        <time>2025-05-06T07:21:40Z</time>
      </trkpt>
      <trkpt lat="38.722570007666945" lon="-9.177743000909686">
        <ele>54.450000000000003</ele>
        <time>2025-05-06T07:21:41Z</time>
      </trkpt>
      <trkpt lat="38.722635973244905" lon="-9.177768984809518">
        <ele>53.969999999999999</ele>
        <time>2025-05-06T07:21:42Z</time>
      </trkpt>
      <trkpt lat="38.722713002935052" lon="-9.177799997851253">
        <ele>53.490000000000002</ele>
        <time>2025-05-06T07:21:43Z</time>
      </trkpt>
      <trkpt lat="38.722790032625198" lon="-9.177832016721368">
        <ele>53.009999999999998</ele>
        <time>2025-05-06T07:21:44Z</time>
      </trkpt>
      <trkpt lat="38.722857004031539" lon="-9.177860012277961">
        <ele>52.530000000000001</ele>
        <time>2025-05-06T07:21:45Z</time>
      </trkpt>
      <trkpt lat="38.72307401150465" lon="-9.177762027829886">
        <ele>52.530000000000001</ele>
        <time>2025-05-06T07:21:46Z</time>
      </trkpt>
      <trkpt lat="38.723081974312663" lon="-9.177689021453261">
        <ele>52.049999999999997</ele>
        <time>2025-05-06T07:21:47Z</time>
      </trkpt>
      <trkpt lat="38.723093960434198" lon="-9.177590031176806">
        <ele>52.049999999999997</ele>
        <time>2025-05-06T07:21:48Z</time>
      </trkpt>
      <trkpt lat="38.723108964040875" lon="-9.177470002323389">
        <ele>51.57</ele>
        <time>2025-05-06T07:21:49Z</time>
      </trkpt>
      <trkpt lat="38.723124973475933" lon="-9.177333964034915">
        <ele>51.090000000000003</ele>
        <time>2025-05-06T07:21:50Z</time>
      </trkpt>
      <trkpt lat="38.723149029538035" lon="-9.177197003737092">
        <ele>50.609999999999999</ele>
        <time>2025-05-06T07:21:51Z</time>
      </trkpt>
      <trkpt lat="38.723194962367415" lon="-9.177048979327083">
        <ele>50.130000000000003</ele>
        <time>2025-05-06T07:21:52Z</time>
      </trkpt>
      <trkpt lat="38.72324500232935" lon="-9.176888968795538">
        <ele>49.649999999999999</ele>
        <time>2025-05-06T07:21:53Z</time>
      </trkpt>
      <trkpt lat="38.723313985392451" lon="-9.17676298879087">
        <ele>49.159999999999997</ele>
        <time>2025-05-06T07:21:54Z</time>
      </trkpt>
      <trkpt lat="38.723394032567739" lon="-9.176628040149808">
        <ele>49.159999999999997</ele>
        <time>2025-05-06T07:21:55Z</time>
      </trkpt>
      <trkpt lat="38.72356996871531" lon="-9.176389994099736">
        <ele>48.200000000000003</ele>
        <time>2025-05-06T07:21:57Z</time>
      </trkpt>
      <trkpt lat="38.723650015890598" lon="-9.176274994388223">
        <ele>48.200000000000003</ele>
        <time>2025-05-06T07:21:58Z</time>
      </trkpt>
      <trkpt lat="38.723716987296939" lon="-9.176180027425289">
        <ele>48.200000000000003</ele>
        <time>2025-05-06T07:21:59Z</time>
      </trkpt>
      <trkpt lat="38.724414026364684" lon="-9.175164978951216">
        <ele>52.530000000000001</ele>
        <time>2025-05-06T07:22:07Z</time>
      </trkpt>
      <trkpt lat="38.724493989720941" lon="-9.175050985068083">
        <ele>53.009999999999998</ele>
        <time>2025-05-06T07:22:08Z</time>
      </trkpt>
      <trkpt lat="38.725117016583681" lon="-9.174229977652431">
        <ele>54.93</ele>
        <time>2025-05-06T07:22:16Z</time>
      </trkpt>
      <trkpt lat="38.725207960233092" lon="-9.174164012074471">
        <ele>55.409999999999997</ele>
        <time>2025-05-06T07:22:17Z</time>
      </trkpt>
      <trkpt lat="38.725296976044774" lon="-9.174098968505859">
        <ele>55.890000000000001</ele>
        <time>2025-05-06T07:22:18Z</time>
      </trkpt>
      <trkpt lat="38.725767033174634" lon="-9.173795040696859">
        <ele>57.82</ele>
        <time>2025-05-06T07:22:23Z</time>
      </trkpt>
      <trkpt lat="38.725969959050417" lon="-9.173676017671824">
        <ele>60.219999999999999</ele>
        <time>2025-05-06T07:22:26Z</time>
      </trkpt>
      <trkpt lat="38.726032990962267" lon="-9.173638969659805">
        <ele>60.219999999999999</ele>
        <time>2025-05-06T07:22:27Z</time>
      </trkpt>
      <trkpt lat="38.726263996213675" lon="-9.173544002696872">
        <ele>62.619999999999997</ele>
        <time>2025-05-06T07:22:32Z</time>
      </trkpt>
      <trkpt lat="38.726286962628365" lon="-9.173538973554969">
        <ele>63.100000000000001</ele>
        <time>2025-05-06T07:22:33Z</time>
      </trkpt>
      <trkpt lat="38.726286962628365" lon="-9.173538973554969">
        <ele>63.579999999999998</ele>
        <time>2025-05-06T07:22:46Z</time>
      </trkpt>
      <trkpt lat="38.726368015632033" lon="-9.173523969948292">
        <ele>64.069999999999993</ele>
        <time>2025-05-06T07:23:30Z</time>
      </trkpt>
      <trkpt lat="38.726922981441021" lon="-9.173567974939942">
        <ele>61.659999999999997</ele>
        <time>2025-05-06T07:23:41Z</time>
      </trkpt>
      <trkpt lat="38.727565035223961" lon="-9.173748018220067">
        <ele>58.299999999999997</ele>
        <time>2025-05-06T07:23:50Z</time>
      </trkpt>
      <trkpt lat="38.72762999497354" lon="-9.173766961321235">
        <ele>57.82</ele>
        <time>2025-05-06T07:23:51Z</time>
      </trkpt>
      <trkpt lat="38.727813977748156" lon="-9.173714993521571">
        <ele>54.93</ele>
        <time>2025-05-06T07:23:58Z</time>
      </trkpt>
      <trkpt lat="38.727813977748156" lon="-9.173714993521571">
        <ele>54.93</ele>
        <time>2025-05-06T07:24:38Z</time>
      </trkpt>
      <trkpt lat="38.72788798995316" lon="-9.173684986308217">
        <ele>53.969999999999999</ele>
        <time>2025-05-06T07:24:58Z</time>
      </trkpt>
      <trkpt lat="38.727928977459669" lon="-9.173640981316567">
        <ele>53.490000000000002</ele>
        <time>2025-05-06T07:24:59Z</time>
      </trkpt>
      <trkpt lat="38.727941969409585" lon="-9.173582978546619">
        <ele>53.009999999999998</ele>
        <time>2025-05-06T07:25:00Z</time>
      </trkpt>
      <trkpt lat="38.727955967187881" lon="-9.173519024625421">
        <ele>52.530000000000001</ele>
        <time>2025-05-06T07:25:01Z</time>
      </trkpt>
      <trkpt lat="38.727957978844643" lon="-9.173443000763655">
        <ele>51.57</ele>
        <time>2025-05-06T07:25:02Z</time>
      </trkpt>
      <trkpt lat="38.727938029915094" lon="-9.173364965245128">
        <ele>51.090000000000003</ele>
        <time>2025-05-06T07:25:03Z</time>
      </trkpt>
      <trkpt lat="38.727897964417934" lon="-9.17328299023211">
        <ele>50.130000000000003</ele>
        <time>2025-05-06T07:25:04Z</time>
      </trkpt>
      <trkpt lat="38.727840967476368" lon="-9.173232028260827">
        <ele>49.649999999999999</ele>
        <time>2025-05-06T07:25:05Z</time>
      </trkpt>
      <trkpt lat="38.727790005505085" lon="-9.173187017440796">
        <ele>49.649999999999999</ele>
        <time>2025-05-06T07:25:06Z</time>
      </trkpt>
      <trkpt lat="38.727686991915107" lon="-9.173161033540964">
        <ele>49.159999999999997</ele>
        <time>2025-05-06T07:25:07Z</time>
      </trkpt>
      <trkpt lat="38.727625971660018" lon="-9.173197997733951">
        <ele>48.68</ele>
        <time>2025-05-06T07:25:08Z</time>
      </trkpt>
      <trkpt lat="38.727555982768536" lon="-9.173240996897221">
        <ele>48.200000000000003</ele>
        <time>2025-05-06T07:25:09Z</time>
      </trkpt>
      <trkpt lat="38.727278960868716" lon="-9.173272009938955">
        <ele>47.719999999999999</ele>
        <time>2025-05-06T07:25:12Z</time>
      </trkpt>
      <trkpt lat="38.727057008072734" lon="-9.173295982182026">
        <ele>47.240000000000002</ele>
        <time>2025-05-06T07:25:14Z</time>
      </trkpt>
      <trkpt lat="38.725841967388988" lon="-9.173324983566999">
        <ele>47.240000000000002</ele>
        <time>2025-05-06T07:25:23Z</time>
      </trkpt>
      <trkpt lat="38.725708024576306" lon="-9.173354990780354">
        <ele>47.719999999999999</ele>
        <time>2025-05-06T07:25:24Z</time>
      </trkpt>
      <trkpt lat="38.725572992116213" lon="-9.173383992165327">
        <ele>47.240000000000002</ele>
        <time>2025-05-06T07:25:25Z</time>
      </trkpt>
      <trkpt lat="38.725441982969642" lon="-9.173474013805389">
        <ele>47.240000000000002</ele>
        <time>2025-05-06T07:25:26Z</time>
      </trkpt>
      <trkpt lat="38.725317008793354" lon="-9.173579039052129">
        <ele>47.240000000000002</ele>
        <time>2025-05-06T07:25:27Z</time>
      </trkpt>
      <trkpt lat="38.725192034617066" lon="-9.173683980479837">
        <ele>46.759999999999998</ele>
        <time>2025-05-06T07:25:28Z</time>
      </trkpt>
      <trkpt lat="38.725067982450128" lon="-9.173787999898195">
        <ele>46.759999999999998</ele>
        <time>2025-05-06T07:25:29Z</time>
      </trkpt>
      <trkpt lat="38.724938984960318" lon="-9.173942981287837">
        <ele>46.759999999999998</ele>
        <time>2025-05-06T07:25:30Z</time>
      </trkpt>
      <trkpt lat="38.724057041108608" lon="-9.175288025289774">
        <ele>45.799999999999997</ele>
        <time>2025-05-06T07:25:39Z</time>
      </trkpt>
      <trkpt lat="38.723867023363709" lon="-9.175558006390929">
        <ele>45.32</ele>
        <time>2025-05-06T07:25:41Z</time>
      </trkpt>
      <trkpt lat="38.723753029480577" lon="-9.175651967525482">
        <ele>45.32</ele>
        <time>2025-05-06T07:25:42Z</time>
      </trkpt>
      <trkpt lat="38.723630988970399" lon="-9.17575104162097">
        <ele>44.840000000000003</ele>
        <time>2025-05-06T07:25:43Z</time>
      </trkpt>
      <trkpt lat="38.723490005359054" lon="-9.17581700719893">
        <ele>44.840000000000003</ele>
        <time>2025-05-06T07:25:44Z</time>
      </trkpt>
      <trkpt lat="38.723347010090947" lon="-9.17588397860527">
        <ele>44.840000000000003</ele>
        <time>2025-05-06T07:25:45Z</time>
      </trkpt>
      <trkpt lat="38.72320200316608" lon="-9.17592303827405">
        <ele>44.359999999999999</ele>
        <time>2025-05-06T07:25:46Z</time>
      </trkpt>
      <trkpt lat="38.723045010119677" lon="-9.175994032993913">
        <ele>44.359999999999999</ele>
        <time>2025-05-06T07:25:47Z</time>
      </trkpt>
      <trkpt lat="38.72142001055181" lon="-9.176636002957821">
        <ele>44.359999999999999</ele>
        <time>2025-05-06T07:25:58Z</time>
      </trkpt>
      <trkpt lat="38.720166999846697" lon="-9.176660981029272">
        <ele>45.32</ele>
        <time>2025-05-06T07:26:06Z</time>
      </trkpt>
      <trkpt lat="38.719031000509858" lon="-9.176301984116435">
        <ele>44.840000000000003</ele>
        <time>2025-05-06T07:26:12Z</time>
      </trkpt>
      <trkpt lat="38.71826003305614" lon="-9.176201988011599">
        <ele>44.359999999999999</ele>
        <time>2025-05-06T07:26:16Z</time>
      </trkpt>
      <trkpt lat="38.718070015311241" lon="-9.176201988011599">
        <ele>44.359999999999999</ele>
        <time>2025-05-06T07:26:17Z</time>
      </trkpt>
      <trkpt lat="38.716777022927999" lon="-9.176597027108073">
        <ele>44.359999999999999</ele>
        <time>2025-05-06T07:26:24Z</time>
      </trkpt>
      <trkpt lat="38.71486796066165" lon="-9.177369000390172">
        <ele>43.880000000000003</ele>
        <time>2025-05-06T07:26:34Z</time>
      </trkpt>
      <trkpt lat="38.712987983599305" lon="-9.177579972893">
        <ele>44.840000000000003</ele>
        <time>2025-05-06T07:26:43Z</time>
      </trkpt>
      <trkpt lat="38.711238009855151" lon="-9.177737971767783">
        <ele>46.759999999999998</ele>
        <time>2025-05-06T07:26:52Z</time>
      </trkpt>
      <trkpt lat="38.709872011095285" lon="-9.177894964814186">
        <ele>49.159999999999997</ele>
        <time>2025-05-06T07:26:59Z</time>
      </trkpt>
      <trkpt lat="38.707781983539462" lon="-9.178141979500651">
        <ele>57.82</ele>
        <time>2025-05-06T07:27:10Z</time>
      </trkpt>
      <trkpt lat="38.705495987087488" lon="-9.178981008008122">
        <ele>63.579999999999998</ele>
        <time>2025-05-06T07:27:23Z</time>
      </trkpt>
      <trkpt lat="38.703528000041842" lon="-9.179692966863513">
        <ele>65.989999999999995</ele>
        <time>2025-05-06T07:27:35Z</time>
      </trkpt>
      <trkpt lat="38.701726980507374" lon="-9.179760022088885">
        <ele>68.870000000000005</ele>
        <time>2025-05-06T07:27:45Z</time>
      </trkpt>
      <trkpt lat="38.699789000675082" lon="-9.179403958842158">
        <ele>74.159999999999997</ele>
        <time>2025-05-06T07:27:56Z</time>
      </trkpt>
      <trkpt lat="38.698035003617406" lon="-9.179028030484915">
        <ele>78.969999999999999</ele>
        <time>2025-05-06T07:28:07Z</time>
      </trkpt>
      <trkpt lat="38.696141028776765" lon="-9.178596027195454">
        <ele>82.329999999999998</ele>
        <time>2025-05-06T07:28:18Z</time>
      </trkpt>
      <trkpt lat="38.693635007366538" lon="-9.178039971739054">
        <ele>88.099999999999994</ele>
        <time>2025-05-06T07:28:32Z</time>
      </trkpt>
      <trkpt lat="38.690899992361665" lon="-9.177441000938416">
        <ele>87.140000000000001</ele>
        <time>2025-05-06T07:28:47Z</time>
      </trkpt>
      <trkpt lat="38.688475023955107" lon="-9.176898021250963">
        <ele>86.180000000000007</ele>
        <time>2025-05-06T07:29:00Z</time>
      </trkpt>
      <trkpt lat="38.68590597063303" lon="-9.176330985501409">
        <ele>85.209999999999994</ele>
        <time>2025-05-06T07:29:14Z</time>
      </trkpt>
      <trkpt lat="38.683959022164345" lon="-9.17590401135385">
        <ele>82.329999999999998</ele>
        <time>2025-05-06T07:29:25Z</time>
      </trkpt>
      <trkpt lat="38.681696997955441" lon="-9.175406964495778">
        <ele>82.810000000000002</ele>
        <time>2025-05-06T07:29:38Z</time>
      </trkpt>
      <trkpt lat="38.679994968697429" lon="-9.175007985904813">
        <ele>77.519999999999996</ele>
        <time>2025-05-06T07:29:47Z</time>
      </trkpt>
      <trkpt lat="38.677944000810385" lon="-9.174734987318516">
        <ele>72.719999999999999</ele>
        <time>2025-05-06T07:29:58Z</time>
      </trkpt>
      <trkpt lat="38.675597989931703" lon="-9.174416977912188">
        <ele>68.390000000000001</ele>
        <time>2025-05-06T07:30:11Z</time>
      </trkpt>
      <trkpt lat="38.673898978158832" lon="-9.173823036253452">
        <ele>65.989999999999995</ele>
        <time>2025-05-06T07:30:21Z</time>
      </trkpt>
      <trkpt lat="38.672434994950891" lon="-9.173386003822088">
        <ele>63.100000000000001</ele>
        <time>2025-05-06T07:30:30Z</time>
      </trkpt>
      <trkpt lat="38.670708993449807" lon="-9.172996999695897">
        <ele>58.299999999999997</ele>
        <time>2025-05-06T07:30:39Z</time>
      </trkpt>
      <trkpt lat="38.668691972270608" lon="-9.172566002234817">
        <ele>47.240000000000002</ele>
        <time>2025-05-06T07:30:50Z</time>
      </trkpt>
      <trkpt lat="38.666119985282421" lon="-9.171991003677249">
        <ele>31.859999999999999</ele>
        <time>2025-05-06T07:31:04Z</time>
      </trkpt>
      <trkpt lat="38.664125008508563" lon="-9.171540979295969">
        <ele>27.050000000000001</ele>
        <time>2025-05-06T07:31:12Z</time>
      </trkpt>
      <trkpt lat="38.660367988049984" lon="-9.170715026557446">
        <ele>39.549999999999997</ele>
        <time>2025-05-06T07:31:26Z</time>
      </trkpt>
      <trkpt lat="38.658302016556263" lon="-9.170260978862643">
        <ele>51.57</ele>
        <time>2025-05-06T07:31:35Z</time>
      </trkpt>
      <trkpt lat="38.656489010900259" lon="-9.169841967523098">
        <ele>59.740000000000002</ele>
        <time>2025-05-06T07:31:42Z</time>
      </trkpt>
      <trkpt lat="38.654185999184847" lon="-9.169332012534142">
        <ele>63.100000000000001</ele>
        <time>2025-05-06T07:31:50Z</time>
      </trkpt>
      <trkpt lat="38.651402033865452" lon="-9.168704962357879">
        <ele>56.859999999999999</ele>
        <time>2025-05-06T07:32:00Z</time>
      </trkpt>
      <trkpt lat="38.649091981351376" lon="-9.167847996577621">
        <ele>57.82</ele>
        <time>2025-05-06T07:32:09Z</time>
      </trkpt>
      <trkpt lat="38.646922996267676" lon="-9.166489038616419">
        <ele>56.859999999999999</ele>
        <time>2025-05-06T07:32:18Z</time>
      </trkpt>
      <trkpt lat="38.644957020878792" lon="-9.164660023525357">
        <ele>49.649999999999999</ele>
        <time>2025-05-06T07:32:27Z</time>
      </trkpt>
      <trkpt lat="38.643412990495563" lon="-9.162654988467693">
        <ele>38.590000000000003</ele>
        <time>2025-05-06T07:32:35Z</time>
      </trkpt>
      <trkpt lat="38.641068991273642" lon="-9.159298958256841">
        <ele>25.609999999999999</ele>
        <time>2025-05-06T07:32:48Z</time>
      </trkpt>
      <trkpt lat="38.638657014816999" lon="-9.155829017981887">
        <ele>19.84</ele>
        <time>2025-05-06T07:33:01Z</time>
      </trkpt>
      <trkpt lat="38.636277979239821" lon="-9.152410961687565">
        <ele>20.32</ele>
        <time>2025-05-06T07:33:14Z</time>
      </trkpt>
      <trkpt lat="38.633710015565157" lon="-9.148730970919132">
        <ele>20.32</ele>
        <time>2025-05-06T07:33:27Z</time>
      </trkpt>
      <trkpt lat="38.630587002262473" lon="-9.144256040453911">
        <ele>17.440000000000001</ele>
        <time>2025-05-06T07:33:43Z</time>
      </trkpt>
      <trkpt lat="38.627902027219534" lon="-9.140416961163282">
        <ele>18.399999999999999</ele>
        <time>2025-05-06T07:33:57Z</time>
      </trkpt>
      <trkpt lat="38.62514303997159" lon="-9.136481992900372">
        <ele>20.32</ele>
        <time>2025-05-06T07:34:11Z</time>
      </trkpt>
      <trkpt lat="38.622516989707947" lon="-9.13271801546216">
        <ele>22.25</ele>
        <time>2025-05-06T07:34:25Z</time>
      </trkpt>
      <trkpt lat="38.61983897164464" lon="-9.128864016383886">
        <ele>29.940000000000001</ele>
        <time>2025-05-06T07:34:39Z</time>
      </trkpt>
      <trkpt lat="38.617506958544254" lon="-9.125437997281551">
        <ele>35.229999999999997</ele>
        <time>2025-05-06T07:34:52Z</time>
      </trkpt>
      <trkpt lat="38.616145988926291" lon="-9.123111013323069">
        <ele>36.670000000000002</ele>
        <time>2025-05-06T07:35:00Z</time>
      </trkpt>
      <trkpt lat="38.614827012643218" lon="-9.120422014966607">
        <ele>33.780000000000001</ele>
        <time>2025-05-06T07:35:08Z</time>
      </trkpt>
      <trkpt lat="38.613280970603228" lon="-9.116631969809532">
        <ele>29.940000000000001</ele>
        <time>2025-05-06T07:35:19Z</time>
      </trkpt>
      <trkpt lat="38.611475005745888" lon="-9.11215796135366">
        <ele>24.649999999999999</ele>
        <time>2025-05-06T07:35:32Z</time>
      </trkpt>
      <trkpt lat="38.610001970082521" lon="-9.108515018597245">
        <ele>19.359999999999999</ele>
        <time>2025-05-06T07:35:43Z</time>
      </trkpt>
      <trkpt lat="38.608819032087922" lon="-9.105597026646137">
        <ele>19.359999999999999</ele>
        <time>2025-05-06T07:35:52Z</time>
      </trkpt>
      <trkpt lat="38.607233008369803" lon="-9.102114010602236">
        <ele>22.25</ele>
        <time>2025-05-06T07:36:03Z</time>
      </trkpt>
      <trkpt lat="38.605732982978225" lon="-9.099742015823722">
        <ele>26.09</ele>
        <time>2025-05-06T07:36:11Z</time>
      </trkpt>
      <trkpt lat="38.603806989267468" lon="-9.096767026931047">
        <ele>35.229999999999997</ele>
        <time>2025-05-06T07:36:21Z</time>
      </trkpt>
      <trkpt lat="38.601873032748699" lon="-9.093321980908513">
        <ele>40.990000000000002</ele>
        <time>2025-05-06T07:36:32Z</time>
      </trkpt>
      <trkpt lat="38.600068995729089" lon="-9.089348036795855">
        <ele>40.509999999999998</ele>
        <time>2025-05-06T07:36:44Z</time>
      </trkpt>
      <trkpt lat="38.598745996132493" lon="-9.085677014663816">
        <ele>35.710000000000001</ele>
        <time>2025-05-06T07:36:55Z</time>
      </trkpt>
      <trkpt lat="38.597275977954268" lon="-9.080845015123487">
        <ele>30.899999999999999</ele>
        <time>2025-05-06T07:37:09Z</time>
      </trkpt>
      <trkpt lat="38.595717027783394" lon="-9.076080992817879">
        <ele>27.530000000000001</ele>
        <time>2025-05-06T07:37:23Z</time>
      </trkpt>
      <trkpt lat="38.594062021002173" lon="-9.071781998500228">
        <ele>27.530000000000001</ele>
        <time>2025-05-06T07:37:36Z</time>
      </trkpt>
      <trkpt lat="38.592296959832311" lon="-9.067556010559201">
        <ele>23.210000000000001</ele>
        <time>2025-05-06T07:37:49Z</time>
      </trkpt>
      <trkpt lat="38.590375995263457" lon="-9.063440999016166">
        <ele>20.32</ele>
        <time>2025-05-06T07:38:02Z</time>
      </trkpt>
      <trkpt lat="38.588653011247516" lon="-9.06005596742034">
        <ele>21.77</ele>
        <time>2025-05-06T07:38:13Z</time>
      </trkpt>
      <trkpt lat="38.586991969496012" lon="-9.057013001292944">
        <ele>22.25</ele>
        <time>2025-05-06T07:38:23Z</time>
      </trkpt>
      <trkpt lat="38.584010023623705" lon="-9.052028032019734">
        <ele>24.170000000000002</ele>
        <time>2025-05-06T07:38:40Z</time>
      </trkpt>
      <trkpt lat="38.582603959366679" lon="-9.049686966463924">
        <ele>27.050000000000001</ele>
        <time>2025-05-06T07:38:48Z</time>
      </trkpt>
      <trkpt lat="38.580682994797826" lon="-9.045985015109181">
        <ele>29.940000000000001</ele>
        <time>2025-05-06T07:39:00Z</time>
      </trkpt>
      <trkpt lat="38.579392014071345" lon="-9.042664021253586">
        <ele>25.609999999999999</ele>
        <time>2025-05-06T07:39:10Z</time>
      </trkpt>
      <trkpt lat="38.57830697670579" lon="-9.038853021338582">
        <ele>19.359999999999999</ele>
        <time>2025-05-06T07:39:21Z</time>
      </trkpt>
      <trkpt lat="38.577465014532208" lon="-9.034199975430965">
        <ele>18.399999999999999</ele>
        <time>2025-05-06T07:39:34Z</time>
      </trkpt>
      <trkpt lat="38.577155973762274" lon="-9.029810959473252">
        <ele>29.940000000000001</ele>
        <time>2025-05-06T07:39:46Z</time>
      </trkpt>
      <trkpt lat="38.577269967645407" lon="-9.025766020640731">
        <ele>44.840000000000003</ele>
        <time>2025-05-06T07:39:57Z</time>
      </trkpt>
      <trkpt lat="38.57757699675858" lon="-9.022824978455901">
        <ele>50.130000000000003</ele>
        <time>2025-05-06T07:40:05Z</time>
      </trkpt>
      <trkpt lat="38.578303037211299" lon="-9.0184819791466">
        <ele>50.609999999999999</ele>
        <time>2025-05-06T07:40:17Z</time>
      </trkpt>
      <trkpt lat="38.578705033287406" lon="-9.016196988523006">
        <ele>50.609999999999999</ele>
        <time>2025-05-06T07:40:24Z</time>
      </trkpt>
      <trkpt lat="38.57890997081995" lon="-9.014737028628588">
        <ele>51.090000000000003</ele>
        <time>2025-05-06T07:40:31Z</time>
      </trkpt>
      <trkpt lat="38.579035028815269" lon="-9.013533974066377">
        <ele>52.530000000000001</ele>
        <time>2025-05-06T07:40:40Z</time>
      </trkpt>
      <trkpt lat="38.57905900105834" lon="-9.013302968814969">
        <ele>53.009999999999998</ele>
        <time>2025-05-06T07:40:45Z</time>
      </trkpt>
      <trkpt lat="38.579061012715101" lon="-9.013285031542182">
        <ele>52.530000000000001</ele>
        <time>2025-05-06T07:40:57Z</time>
      </trkpt>
      <trkpt lat="38.579084984958172" lon="-9.013043968006969">
        <ele>51.090000000000003</ele>
        <time>2025-05-06T07:41:18Z</time>
      </trkpt>
      <trkpt lat="38.579213982447982" lon="-9.012161018326879">
        <ele>47.719999999999999</ele>
        <time>2025-05-06T07:41:23Z</time>
      </trkpt>
      <trkpt lat="38.579412968829274" lon="-9.010496037080884">
        <ele>46.759999999999998</ele>
        <time>2025-05-06T07:41:29Z</time>
      </trkpt>
      <trkpt lat="38.579532997682691" lon="-9.007637975737453">
        <ele>48.200000000000003</ele>
        <time>2025-05-06T07:41:37Z</time>
      </trkpt>
      <trkpt lat="38.579457979649305" lon="-9.003554983064532">
        <ele>49.649999999999999</ele>
        <time>2025-05-06T07:41:48Z</time>
      </trkpt>
      <trkpt lat="38.579197973012924" lon="-8.998018987476826">
        <ele>49.159999999999997</ele>
        <time>2025-05-06T07:42:03Z</time>
      </trkpt>
      <trkpt lat="38.579237032681704" lon="-8.993225041776896">
        <ele>47.719999999999999</ele>
        <time>2025-05-06T07:42:16Z</time>
      </trkpt>
      <trkpt lat="38.579719997942448" lon="-8.988478034734726">
        <ele>48.200000000000003</ele>
        <time>2025-05-06T07:42:29Z</time>
      </trkpt>
      <trkpt lat="38.580542011186481" lon="-8.983816020190716">
        <ele>48.200000000000003</ele>
        <time>2025-05-06T07:42:42Z</time>
      </trkpt>
      <trkpt lat="38.581317001953721" lon="-8.979126010090113">
        <ele>50.609999999999999</ele>
        <time>2025-05-06T07:42:55Z</time>
      </trkpt>
      <trkpt lat="38.581695025786757" lon="-8.974365005269647">
        <ele>52.530000000000001</ele>
        <time>2025-05-06T07:43:08Z</time>
      </trkpt>
      <trkpt lat="38.582151001319289" lon="-8.970724996179342">
        <ele>63.100000000000001</ele>
        <time>2025-05-06T07:43:18Z</time>
      </trkpt>
      <trkpt lat="38.583101006224751" lon="-8.96571303717792">
        <ele>82.329999999999998</ele>
        <time>2025-05-06T07:43:32Z</time>
      </trkpt>
      <trkpt lat="38.583538038656116" lon="-8.962057018652558">
        <ele>90.980000000000004</ele>
        <time>2025-05-06T07:43:42Z</time>
      </trkpt>
      <trkpt lat="38.583641974255443" lon="-8.957246979698539">
        <ele>89.540000000000006</ele>
        <time>2025-05-06T07:43:55Z</time>
      </trkpt>
      <trkpt lat="38.583772983402014" lon="-8.952362006530166">
        <ele>79.450000000000003</ele>
        <time>2025-05-06T07:44:08Z</time>
      </trkpt>
      <trkpt lat="38.584010023623705" lon="-8.949353992938995">
        <ele>74.159999999999997</ele>
        <time>2025-05-06T07:44:16Z</time>
      </trkpt>
      <trkpt lat="38.584142038598657" lon="-8.944830028340221">
        <ele>71.760000000000005</ele>
        <time>2025-05-06T07:44:28Z</time>
      </trkpt>
      <trkpt lat="38.584244968369603" lon="-8.938397001475096">
        <ele>69.829999999999998</ele>
        <time>2025-05-06T07:44:45Z</time>
      </trkpt>
      <trkpt lat="38.584744026884437" lon="-8.93353097140789">
        <ele>71.760000000000005</ele>
        <time>2025-05-06T07:44:58Z</time>
      </trkpt>
      <trkpt lat="38.585522035136819" lon="-8.927183020859957">
        <ele>69.829999999999998</ele>
        <time>2025-05-06T07:45:15Z</time>
      </trkpt>
      <trkpt lat="38.585738958790898" lon="-8.923396999016404">
        <ele>68.390000000000001</ele>
        <time>2025-05-06T07:45:25Z</time>
      </trkpt>
      <trkpt lat="38.585604010149837" lon="-8.918874962255359">
        <ele>67.909999999999997</ele>
        <time>2025-05-06T07:45:37Z</time>
      </trkpt>
      <trkpt lat="38.585209976881742" lon="-8.91402100212872">
        <ele>70.310000000000002</ele>
        <time>2025-05-06T07:45:50Z</time>
      </trkpt>
      <trkpt lat="38.585037980228662" lon="-8.909796020016074">
        <ele>76.560000000000002</ele>
        <time>2025-05-06T07:46:01Z</time>
      </trkpt>
      <trkpt lat="38.585190027952194" lon="-8.907183967530727">
        <ele>83.290000000000006</ele>
        <time>2025-05-06T07:46:08Z</time>
      </trkpt>
      <trkpt lat="38.585557993501425" lon="-8.903431976214051">
        <ele>92.420000000000002</ele>
        <time>2025-05-06T07:46:18Z</time>
      </trkpt>
      <trkpt lat="38.585905004292727" lon="-8.898154981434345">
        <ele>103</ele>
        <time>2025-05-06T07:46:32Z</time>
      </trkpt>
      <trkpt lat="38.585775000974536" lon="-8.893592040985823">
        <ele>100.59999999999999</ele>
        <time>2025-05-06T07:46:44Z</time>
      </trkpt>
      <trkpt lat="38.585410974919796" lon="-8.88982797972858">
        <ele>91.939999999999998</ele>
        <time>2025-05-06T07:46:54Z</time>
      </trkpt>
      <trkpt lat="38.584789037704468" lon="-8.886184031143785">
        <ele>84.25</ele>
        <time>2025-05-06T07:47:04Z</time>
      </trkpt>
      <trkpt lat="38.584054028615355" lon="-8.882515020668507">
        <ele>80.409999999999997</ele>
        <time>2025-05-06T07:47:14Z</time>
      </trkpt>
      <trkpt lat="38.582782996818423" lon="-8.877125037834048">
        <ele>69.349999999999994</ele>
        <time>2025-05-06T07:47:29Z</time>
      </trkpt>
      <trkpt lat="38.581588994711637" lon="-8.872585985809565">
        <ele>61.659999999999997</ele>
        <time>2025-05-06T07:47:42Z</time>
      </trkpt>
      <trkpt lat="38.581028999760747" lon="-8.869346966966987">
        <ele>58.780000000000001</ele>
        <time>2025-05-06T07:47:51Z</time>
      </trkpt>
      <trkpt lat="38.580897990614176" lon="-8.865668987855315">
        <ele>53.009999999999998</ele>
        <time>2025-05-06T07:48:01Z</time>
      </trkpt>
      <trkpt lat="38.581382967531681" lon="-8.861666964367032">
        <ele>51.090000000000003</ele>
        <time>2025-05-06T07:48:12Z</time>
      </trkpt>
      <trkpt lat="38.58206701464951" lon="-8.858834970742464">
        <ele>45.799999999999997</ele>
        <time>2025-05-06T07:48:20Z</time>
      </trkpt>
      <trkpt lat="38.583316002041101" lon="-8.854690035805106">
        <ele>35.710000000000001</ele>
        <time>2025-05-06T07:48:32Z</time>
      </trkpt>
      <trkpt lat="38.583874991163611" lon="-8.852231036871672">
        <ele>30.899999999999999</ele>
        <time>2025-05-06T07:48:39Z</time>
      </trkpt>
      <trkpt lat="38.584627015516162" lon="-8.847920978441834">
        <ele>28.98</ele>
        <time>2025-05-06T07:48:51Z</time>
      </trkpt>
      <trkpt lat="38.585390020161867" lon="-8.844365039840341">
        <ele>29.940000000000001</ele>
        <time>2025-05-06T07:49:01Z</time>
      </trkpt>
      <trkpt lat="38.586418982595205" lon="-8.840494025498629">
        <ele>23.210000000000001</ele>
        <time>2025-05-06T07:49:12Z</time>
      </trkpt>
      <trkpt lat="38.586947964504361" lon="-8.83727403357625">
        <ele>21.289999999999999</ele>
        <time>2025-05-06T07:49:21Z</time>
      </trkpt>
      <trkpt lat="38.587078973650932" lon="-8.8339679595083">
        <ele>21.289999999999999</ele>
        <time>2025-05-06T07:49:30Z</time>
      </trkpt>
      <trkpt lat="38.586778985336423" lon="-8.830684013664722">
        <ele>21.289999999999999</ele>
        <time>2025-05-06T07:49:39Z</time>
      </trkpt>
      <trkpt lat="38.5860859695822" lon="-8.82747801952064">
        <ele>23.690000000000001</ele>
        <time>2025-05-06T07:49:48Z</time>
      </trkpt>
      <trkpt lat="38.584873024374247" lon="-8.82217101752758">
        <ele>28.02</ele>
        <time>2025-05-06T07:50:03Z</time>
      </trkpt>
      <trkpt lat="38.584547974169254" lon="-8.818888999521732">
        <ele>28.5</ele>
        <time>2025-05-06T07:50:12Z</time>
      </trkpt>
      <trkpt lat="38.584526013582945" lon="-8.814460001885891">
        <ele>28.98</ele>
        <time>2025-05-06T07:50:24Z</time>
      </trkpt>
      <trkpt lat="38.584405984729528" lon="-8.809674018993974">
        <ele>28.5</ele>
        <time>2025-05-06T07:50:37Z</time>
      </trkpt>
      <trkpt lat="38.583946991711855" lon="-8.805287014693022">
        <ele>29.460000000000001</ele>
        <time>2025-05-06T07:50:49Z</time>
      </trkpt>
      <trkpt lat="38.583275014534593" lon="-8.801324972882867">
        <ele>30.420000000000002</ele>
        <time>2025-05-06T07:51:00Z</time>
      </trkpt>
      <trkpt lat="38.582814009860158" lon="-8.797690998762846">
        <ele>28.98</ele>
        <time>2025-05-06T07:51:10Z</time>
      </trkpt>
      <trkpt lat="38.582991035655141" lon="-8.794739982113242">
        <ele>28.02</ele>
        <time>2025-05-06T07:51:18Z</time>
      </trkpt>
      <trkpt lat="38.583687990903854" lon="-8.791849985718727">
        <ele>27.530000000000001</ele>
        <time>2025-05-06T07:51:26Z</time>
      </trkpt>
      <trkpt lat="38.585148034617305" lon="-8.787700021639466">
        <ele>25.609999999999999</ele>
        <time>2025-05-06T07:51:38Z</time>
      </trkpt>
      <trkpt lat="38.586029978469014" lon="-8.784496039152145">
        <ele>25.129999999999999</ele>
        <time>2025-05-06T07:51:47Z</time>
      </trkpt>
      <trkpt lat="38.586354022845626" lon="-8.781516021117568">
        <ele>26.09</ele>
        <time>2025-05-06T07:51:55Z</time>
      </trkpt>
      <trkpt lat="38.586323009803891" lon="-8.777734022587538">
        <ele>28.5</ele>
        <time>2025-05-06T07:52:05Z</time>
      </trkpt>
      <trkpt lat="38.586495006456971" lon="-8.773597972467542">
        <ele>30.899999999999999</ele>
        <time>2025-05-06T07:52:16Z</time>
      </trkpt>
      <trkpt lat="38.587113004177809" lon="-8.770685009658337">
        <ele>31.379999999999999</ele>
        <time>2025-05-06T07:52:24Z</time>
      </trkpt>
      <trkpt lat="38.588144984096289" lon="-8.767956029623747">
        <ele>32.340000000000003</ele>
        <time>2025-05-06T07:52:32Z</time>
      </trkpt>
      <trkpt lat="38.589690020307899" lon="-8.764297999441624">
        <ele>32.82</ele>
        <time>2025-05-06T07:52:43Z</time>
      </trkpt>
      <trkpt lat="38.590944958850741" lon="-8.760470990091562">
        <ele>37.630000000000003</ele>
        <time>2025-05-06T07:52:54Z</time>
      </trkpt>
      <trkpt lat="38.59205698594451" lon="-8.756155986338854">
        <ele>44.840000000000003</ele>
        <time>2025-05-06T07:53:06Z</time>
      </trkpt>
      <trkpt lat="38.593202959746122" lon="-8.752263011410832">
        <ele>52.049999999999997</ele>
        <time>2025-05-06T07:53:17Z</time>
      </trkpt>
      <trkpt lat="38.594738021492958" lon="-8.7485830206424">
        <ele>51.57</ele>
        <time>2025-05-06T07:53:28Z</time>
      </trkpt>
      <trkpt lat="38.596577011048794" lon="-8.745140992105007">
        <ele>51.090000000000003</ele>
        <time>2025-05-06T07:53:39Z</time>
      </trkpt>
      <trkpt lat="38.598424969241023" lon="-8.742191987112165">
        <ele>49.159999999999997</ele>
        <time>2025-05-06T07:53:49Z</time>
      </trkpt>
      <trkpt lat="38.600066984072328" lon="-8.739052964374423">
        <ele>47.240000000000002</ele>
        <time>2025-05-06T07:53:59Z</time>
      </trkpt>
      <trkpt lat="38.600971978157759" lon="-8.735963981598616">
        <ele>51.090000000000003</ele>
        <time>2025-05-06T07:54:08Z</time>
      </trkpt>
      <trkpt lat="38.601305996999145" lon="-8.733040038496256">
        <ele>53.490000000000002</ele>
        <time>2025-05-06T07:54:16Z</time>
      </trkpt>
      <trkpt lat="38.601190997287631" lon="-8.730083992704749">
        <ele>51.57</ele>
        <time>2025-05-06T07:54:24Z</time>
      </trkpt>
      <trkpt lat="38.600665032863617" lon="-8.727425001561642">
        <ele>46.280000000000001</ele>
        <time>2025-05-06T07:54:31Z</time>
      </trkpt>
      <trkpt lat="38.59970698133111" lon="-8.724728040397167">
        <ele>40.990000000000002</ele>
        <time>2025-05-06T07:54:39Z</time>
      </trkpt>
      <trkpt lat="38.597904033958912" lon="-8.719700993970037">
        <ele>35.229999999999997</ele>
        <time>2025-05-06T07:54:54Z</time>
      </trkpt>
      <trkpt lat="38.596921004354954" lon="-8.71584196574986">
        <ele>30.899999999999999</ele>
        <time>2025-05-06T07:55:05Z</time>
      </trkpt>
      <trkpt lat="38.596321027725935" lon="-8.71184203773737">
        <ele>29.940000000000001</ele>
        <time>2025-05-06T07:55:16Z</time>
      </trkpt>
      <trkpt lat="38.59609697945416" lon="-8.707673968747258">
        <ele>34.740000000000002</ele>
        <time>2025-05-06T07:55:27Z</time>
      </trkpt>
      <trkpt lat="38.596243998035789" lon="-8.703611008822918">
        <ele>36.189999999999998</ele>
        <time>2025-05-06T07:55:38Z</time>
      </trkpt>
      <trkpt lat="38.596476009115577" lon="-8.701402964070439">
        <ele>35.710000000000001</ele>
        <time>2025-05-06T07:55:44Z</time>
      </trkpt>
      <trkpt lat="38.5971499979496" lon="-8.69768600910902">
        <ele>30.899999999999999</ele>
        <time>2025-05-06T07:55:54Z</time>
      </trkpt>
      <trkpt lat="38.597911996766925" lon="-8.694802969694138">
        <ele>28.02</ele>
        <time>2025-05-06T07:56:02Z</time>
      </trkpt>
      <trkpt lat="38.599309008568525" lon="-8.689940040931106">
        <ele>32.82</ele>
        <time>2025-05-06T07:56:16Z</time>
      </trkpt>
      <trkpt lat="38.600058015435934" lon="-8.686326015740633">
        <ele>39.07</ele>
        <time>2025-05-06T07:56:26Z</time>
      </trkpt>
      <trkpt lat="38.600453976541758" lon="-8.683425961062312">
        <ele>40.509999999999998</ele>
        <time>2025-05-06T07:56:34Z</time>
      </trkpt>
      <trkpt lat="38.60080299898982" lon="-8.678668979555368">
        <ele>43.880000000000003</ele>
        <time>2025-05-06T07:56:47Z</time>
      </trkpt>
      <trkpt lat="38.600967032834888" lon="-8.676119036972523">
        <ele>46.759999999999998</ele>
        <time>2025-05-06T07:56:55Z</time>
      </trkpt>
      <trkpt lat="38.600916992872953" lon="-8.675382016226649">
        <ele>47.719999999999999</ele>
        <time>2025-05-06T07:56:58Z</time>
      </trkpt>
      <trkpt lat="38.600882962346077" lon="-8.67517095990479">
        <ele>47.719999999999999</ele>
        <time>2025-05-06T07:56:59Z</time>
      </trkpt>
      <trkpt lat="38.600828982889652" lon="-8.674964010715485">
        <ele>47.719999999999999</ele>
        <time>2025-05-06T07:57:00Z</time>
      </trkpt>
      <trkpt lat="38.600767962634563" lon="-8.674767035990953">
        <ele>47.240000000000002</ele>
        <time>2025-05-06T07:57:01Z</time>
      </trkpt>
      <trkpt lat="38.60067400150001" lon="-8.674592021852732">
        <ele>46.759999999999998</ele>
        <time>2025-05-06T07:57:02Z</time>
      </trkpt>
      <trkpt lat="38.600556990131736" lon="-8.674446009099484">
        <ele>45.799999999999997</ele>
        <time>2025-05-06T07:57:03Z</time>
      </trkpt>
      <trkpt lat="38.600422963500023" lon="-8.674319023266435">
        <ele>45.32</ele>
        <time>2025-05-06T07:57:04Z</time>
      </trkpt>
      <trkpt lat="38.600287009030581" lon="-8.674189019948244">
        <ele>44.840000000000003</ele>
        <time>2025-05-06T07:57:05Z</time>
      </trkpt>
      <trkpt lat="38.600148037075996" lon="-8.674078965559602">
        <ele>43.880000000000003</ele>
        <time>2025-05-06T07:57:06Z</time>
      </trkpt>
      <trkpt lat="38.599990960210562" lon="-8.674020962789655">
        <ele>42.920000000000002</ele>
        <time>2025-05-06T07:57:07Z</time>
      </trkpt>
      <trkpt lat="38.599842013791203" lon="-8.673965977504849">
        <ele>42.439999999999998</ele>
        <time>2025-05-06T07:57:08Z</time>
      </trkpt>
      <trkpt lat="38.599704969674349" lon="-8.673915015533567">
        <ele>41.950000000000003</ele>
        <time>2025-05-06T07:57:09Z</time>
      </trkpt>
      <trkpt lat="38.599573038518429" lon="-8.673866987228394">
        <ele>41.950000000000003</ele>
        <time>2025-05-06T07:57:10Z</time>
      </trkpt>
      <trkpt lat="38.598144007846713" lon="-8.673663977533579">
        <ele>43.399999999999999</ele>
        <time>2025-05-06T07:57:21Z</time>
      </trkpt>
      <trkpt lat="38.597812000662088" lon="-8.673626007512212">
        <ele>44.359999999999999</ele>
        <time>2025-05-06T07:57:27Z</time>
      </trkpt>
      <trkpt lat="38.597812000662088" lon="-8.673626007512212">
        <ele>44.840000000000003</ele>
        <time>2025-05-06T07:57:40Z</time>
      </trkpt>
      <trkpt lat="38.597812000662088" lon="-8.673626007512212">
        <ele>44.840000000000003</ele>
        <time>2025-05-06T07:58:34Z</time>
      </trkpt>
      <trkpt lat="38.597570015117526" lon="-8.673602035269141">
        <ele>44.359999999999999</ele>
        <time>2025-05-06T07:59:02Z</time>
      </trkpt>
      <trkpt lat="38.597510000690818" lon="-8.673596000298858">
        <ele>43.880000000000003</ele>
        <time>2025-05-06T07:59:03Z</time>
      </trkpt>
      <trkpt lat="38.597456021234393" lon="-8.673590971156955">
        <ele>43.399999999999999</ele>
        <time>2025-05-06T07:59:04Z</time>
      </trkpt>
      <trkpt lat="38.597350995987654" lon="-8.673580996692181">
        <ele>42.920000000000002</ele>
        <time>2025-05-06T07:59:06Z</time>
      </trkpt>
      <trkpt lat="38.597231972962618" lon="-8.673569010570645">
        <ele>40.990000000000002</ele>
        <time>2025-05-06T07:59:13Z</time>
      </trkpt>
      <trkpt lat="38.597231972962618" lon="-8.673569010570645">
        <ele>40.990000000000002</ele>
        <time>2025-05-06T07:59:33Z</time>
      </trkpt>
      <trkpt lat="38.597231972962618" lon="-8.673569010570645">
        <ele>40.990000000000002</ele>
        <time>2025-05-06T08:00:23Z</time>
      </trkpt>
      <trkpt lat="38.597231972962618" lon="-8.673569010570645">
        <ele>41.469999999999999</ele>
        <time>2025-05-06T08:01:16Z</time>
      </trkpt>
      <trkpt lat="38.597231972962618" lon="-8.673569010570645">
        <ele>41.950000000000003</ele>
        <time>2025-05-06T08:02:06Z</time>
      </trkpt>
      <trkpt lat="38.597231972962618" lon="-8.673569010570645">
        <ele>42.439999999999998</ele>
        <time>2025-05-06T08:02:59Z</time>
      </trkpt>
      <trkpt lat="38.597231972962618" lon="-8.673569010570645">
        <ele>42.439999999999998</ele>
        <time>2025-05-06T08:03:50Z</time>
      </trkpt>
      <trkpt lat="38.597231972962618" lon="-8.673569010570645">
        <ele>42.920000000000002</ele>
        <time>2025-05-06T08:04:48Z</time>
      </trkpt>
      <trkpt lat="38.597231972962618" lon="-8.673569010570645">
        <ele>42.439999999999998</ele>
        <time>2025-05-06T08:05:42Z</time>
      </trkpt>
      <trkpt lat="38.597231972962618" lon="-8.673569010570645">
        <ele>42.439999999999998</ele>
        <time>2025-05-06T08:06:35Z</time>
      </trkpt>
      <trkpt lat="38.597231972962618" lon="-8.673569010570645">
        <ele>42.439999999999998</ele>
        <time>2025-05-06T08:07:39Z</time>
      </trkpt>
      <trkpt lat="38.597231972962618" lon="-8.673569010570645">
        <ele>42.920000000000002</ele>
        <time>2025-05-06T08:08:30Z</time>
      </trkpt>
      <trkpt lat="38.597158966585994" lon="-8.673561969771981">
        <ele>42.439999999999998</ele>
        <time>2025-05-06T08:09:17Z</time>
      </trkpt>
      <trkpt lat="38.597125019878149" lon="-8.673559036105871">
        <ele>41.950000000000003</ele>
        <time>2025-05-06T08:09:18Z</time>
      </trkpt>
      <trkpt lat="38.597071040421724" lon="-8.673554006963968">
        <ele>41.469999999999999</ele>
        <time>2025-05-06T08:09:19Z</time>
      </trkpt>
      <trkpt lat="38.597004991024733" lon="-8.673548977822065">
        <ele>41.469999999999999</ele>
        <time>2025-05-06T08:09:20Z</time>
      </trkpt>
      <trkpt lat="38.596926033496857" lon="-8.673543026670814">
        <ele>41.469999999999999</ele>
        <time>2025-05-06T08:09:21Z</time>
      </trkpt>
      <trkpt lat="38.596837017685175" lon="-8.67353598587215">
        <ele>41.469999999999999</ele>
        <time>2025-05-06T08:09:22Z</time>
      </trkpt>
      <trkpt lat="38.595979968085885" lon="-8.673405982553959">
        <ele>40.509999999999998</ele>
        <time>2025-05-06T08:09:29Z</time>
      </trkpt>
      <trkpt lat="38.595833033323288" lon="-8.673323001712561">
        <ele>40.509999999999998</ele>
        <time>2025-05-06T08:09:30Z</time>
      </trkpt>
      <trkpt lat="38.59569096006453" lon="-8.673242032527924">
        <ele>40.030000000000001</ele>
        <time>2025-05-06T08:09:31Z</time>
      </trkpt>
      <trkpt lat="38.595546958968043" lon="-8.673160979524255">
        <ele>39.549999999999997</ele>
        <time>2025-05-06T08:09:32Z</time>
      </trkpt>
      <trkpt lat="38.594554960727692" lon="-8.672707015648484">
        <ele>38.109999999999999</ele>
        <time>2025-05-06T08:09:39Z</time>
      </trkpt>
      <trkpt lat="38.594424035400152" lon="-8.672654964029789">
        <ele>38.109999999999999</ele>
        <time>2025-05-06T08:09:40Z</time>
      </trkpt>
      <trkpt lat="38.5942920204252" lon="-8.672601990401745">
        <ele>37.630000000000003</ele>
        <time>2025-05-06T08:09:41Z</time>
      </trkpt>
      <trkpt lat="38.594168974086642" lon="-8.672600984573364">
        <ele>37.149999999999999</ele>
        <time>2025-05-06T08:09:42Z</time>
      </trkpt>
      <trkpt lat="38.594021033495665" lon="-8.672619005665183">
        <ele>36.670000000000002</ele>
        <time>2025-05-06T08:09:43Z</time>
      </trkpt>
      <trkpt lat="38.593886001035571" lon="-8.672640966251493">
        <ele>36.670000000000002</ele>
        <time>2025-05-06T08:09:44Z</time>
      </trkpt>
      <trkpt lat="38.593747029080987" lon="-8.672726964578033">
        <ele>36.189999999999998</ele>
        <time>2025-05-06T08:09:45Z</time>
      </trkpt>
      <trkpt lat="38.593608979135752" lon="-8.672812962904573">
        <ele>35.710000000000001</ele>
        <time>2025-05-06T08:09:46Z</time>
      </trkpt>
      <trkpt lat="38.593469001352787" lon="-8.672899967059493">
        <ele>35.710000000000001</ele>
        <time>2025-05-06T08:09:47Z</time>
      </trkpt>
      <trkpt lat="38.593329023569822" lon="-8.672986971214414">
        <ele>35.710000000000001</ele>
        <time>2025-05-06T08:09:48Z</time>
      </trkpt>
      <trkpt lat="38.592047011479735" lon="-8.674488002434373">
        <ele>34.259999999999998</ele>
        <time>2025-05-06T08:09:58Z</time>
      </trkpt>
      <trkpt lat="38.590881004929543" lon="-8.675837991759181">
        <ele>33.299999999999997</ele>
        <time>2025-05-06T08:10:06Z</time>
      </trkpt>
      <trkpt lat="38.590035019442439" lon="-8.676614994183183">
        <ele>31.859999999999999</ele>
        <time>2025-05-06T08:10:11Z</time>
      </trkpt>
      <trkpt lat="38.58986402861774" lon="-8.676741980016232">
        <ele>31.379999999999999</ele>
        <time>2025-05-06T08:10:12Z</time>
      </trkpt>
      <trkpt lat="38.589691026136279" lon="-8.676858991384506">
        <ele>30.899999999999999</ele>
        <time>2025-05-06T08:10:13Z</time>
      </trkpt>
      <trkpt lat="38.587843989953399" lon="-8.677724003791809">
        <ele>24.649999999999999</ele>
        <time>2025-05-06T08:10:23Z</time>
      </trkpt>
      <trkpt lat="38.586051017045975" lon="-8.678549034520984">
        <ele>23.210000000000001</ele>
        <time>2025-05-06T08:10:34Z</time>
      </trkpt>
      <trkpt lat="38.583739958703518" lon="-8.679605992510915">
        <ele>22.73</ele>
        <time>2025-05-06T08:10:47Z</time>
      </trkpt>
      <trkpt lat="38.581456979736686" lon="-8.680635038763285">
        <ele>21.289999999999999</ele>
        <time>2025-05-06T08:11:00Z</time>
      </trkpt>
      <trkpt lat="38.580822972580791" lon="-8.680989006534219">
        <ele>19.84</ele>
        <time>2025-05-06T08:11:05Z</time>
      </trkpt>
      <trkpt lat="38.580758012831211" lon="-8.681070981547236">
        <ele>19.84</ele>
        <time>2025-05-06T08:11:06Z</time>
      </trkpt>
      <trkpt lat="38.580702021718025" lon="-8.681140970438719">
        <ele>19.359999999999999</ele>
        <time>2025-05-06T08:11:07Z</time>
      </trkpt>
      <trkpt lat="38.580658016726375" lon="-8.681199979037046">
        <ele>19.359999999999999</ele>
        <time>2025-05-06T08:11:08Z</time>
      </trkpt>
      <trkpt lat="38.580637983977795" lon="-8.681282037869096">
        <ele>19.359999999999999</ele>
        <time>2025-05-06T08:11:09Z</time>
      </trkpt>
      <trkpt lat="38.580619040876627" lon="-8.681360995396972">
        <ele>19.359999999999999</ele>
        <time>2025-05-06T08:11:10Z</time>
      </trkpt>
      <trkpt lat="38.580600013956428" lon="-8.681441964581609">
        <ele>19.359999999999999</ele>
        <time>2025-05-06T08:11:11Z</time>
      </trkpt>
      <trkpt lat="38.580579981207848" lon="-8.681525029242039">
        <ele>18.879999999999999</ele>
        <time>2025-05-06T08:11:12Z</time>
      </trkpt>
      <trkpt lat="38.58056397177279" lon="-8.681684033945203">
        <ele>18.879999999999999</ele>
        <time>2025-05-06T08:11:13Z</time>
      </trkpt>
      <trkpt lat="38.581002010032535" lon="-8.683125972747803">
        <ele>19.84</ele>
        <time>2025-05-06T08:11:24Z</time>
      </trkpt>
      <trkpt lat="38.581300992518663" lon="-8.684082012623549">
        <ele>21.289999999999999</ele>
        <time>2025-05-06T08:11:31Z</time>
      </trkpt>
      <trkpt lat="38.581322031095624" lon="-8.684147978201509">
        <ele>21.289999999999999</ele>
        <time>2025-05-06T08:11:32Z</time>
      </trkpt>
      <trkpt lat="38.581333011388779" lon="-8.684182008728385">
        <ele>21.289999999999999</ele>
        <time>2025-05-06T08:11:33Z</time>
      </trkpt>
      <trkpt lat="38.581334017217159" lon="-8.684185026213527">
        <ele>21.289999999999999</ele>
        <time>2025-05-06T08:11:34Z</time>
      </trkpt>
      <trkpt lat="38.581326976418495" lon="-8.684164993464947">
        <ele>21.289999999999999</ele>
        <time>2025-05-06T08:11:35Z</time>
      </trkpt>
      <trkpt lat="38.58131499029696" lon="-8.68412702344358">
        <ele>20.809999999999999</ele>
        <time>2025-05-06T08:11:36Z</time>
      </trkpt>
      <trkpt lat="38.581298980861902" lon="-8.684073965996504">
        <ele>20.32</ele>
        <time>2025-05-06T08:11:37Z</time>
      </trkpt>
      <trkpt lat="38.581278026103973" lon="-8.684009006246924">
        <ele>19.84</ele>
        <time>2025-05-06T08:11:38Z</time>
      </trkpt>
      <trkpt lat="38.581256987527013" lon="-8.683941029012203">
        <ele>19.84</ele>
        <time>2025-05-06T08:11:39Z</time>
      </trkpt>
      <trkpt lat="38.581237038597465" lon="-8.683877997100353">
        <ele>19.359999999999999</ele>
        <time>2025-05-06T08:11:40Z</time>
      </trkpt>
      <trkpt lat="38.581213988363743" lon="-8.683801973238587">
        <ele>19.359999999999999</ele>
        <time>2025-05-06T08:11:41Z</time>
      </trkpt>
      <trkpt lat="38.581180041655898" lon="-8.683695020154119">
        <ele>18.879999999999999</ele>
        <time>2025-05-06T08:11:42Z</time>
      </trkpt>
      <trkpt lat="38.581138970330358" lon="-8.683563005179167">
        <ele>18.879999999999999</ele>
        <time>2025-05-06T08:11:43Z</time>
      </trkpt>
      <trkpt lat="38.581091025844216" lon="-8.683411041274667">
        <ele>18.879999999999999</ele>
        <time>2025-05-06T08:11:44Z</time>
      </trkpt>
      <trkpt lat="38.581038974225521" lon="-8.683242984116077">
        <ele>19.359999999999999</ele>
        <time>2025-05-06T08:11:45Z</time>
      </trkpt>
      <trkpt lat="38.580981977283955" lon="-8.683063024654985">
        <ele>19.359999999999999</ele>
        <time>2025-05-06T08:11:46Z</time>
      </trkpt>
      <trkpt lat="38.580466993153095" lon="-8.681368036195636">
        <ele>19.359999999999999</ele>
        <time>2025-05-06T08:11:54Z</time>
      </trkpt>
      <trkpt lat="38.579935999587178" lon="-8.679801961407065">
        <ele>18.879999999999999</ele>
        <time>2025-05-06T08:12:02Z</time>
      </trkpt>
      <trkpt lat="38.579530986025929" lon="-8.678512992337346">
        <ele>16</ele>
        <time>2025-05-06T08:12:11Z</time>
      </trkpt>
      <trkpt lat="38.579435013234615" lon="-8.678470999002457">
        <ele>15.52</ele>
        <time>2025-05-06T08:12:13Z</time>
      </trkpt>
      <trkpt lat="38.579399976879358" lon="-8.678444009274244">
        <ele>15.52</ele>
        <time>2025-05-06T08:12:14Z</time>
      </trkpt>
      <trkpt lat="38.579221023246646" lon="-8.678148966282606">
        <ele>15.039999999999999</ele>
        <time>2025-05-06T08:12:21Z</time>
      </trkpt>
      <trkpt lat="38.579221023246646" lon="-8.678124994039536">
        <ele>14.56</ele>
        <time>2025-05-06T08:12:22Z</time>
      </trkpt>
      <trkpt lat="38.579221023246646" lon="-8.678100015968084">
        <ele>14.56</ele>
        <time>2025-05-06T08:12:23Z</time>
      </trkpt>
      <trkpt lat="38.57886697165668" lon="-8.678385000675917">
        <ele>78.969999999999999</ele>
        <time>2025-05-06T08:16:12Z</time>
      </trkpt>
      <trkpt lat="38.579089008271694" lon="-8.678031032904983">
        <ele>20.809999999999999</ele>
        <time>2025-05-06T08:16:40Z</time>
      </trkpt>
      <trkpt lat="38.579094037413597" lon="-8.677993984892964">
        <ele>18.399999999999999</ele>
        <time>2025-05-06T08:17:25Z</time>
      </trkpt>
      <trkpt lat="38.579221023246646" lon="-8.677932964637876">
        <ele>18.399999999999999</ele>
        <time>2025-05-06T08:17:35Z</time>
      </trkpt>
      <trkpt lat="38.579257987439632" lon="-8.677677987143397">
        <ele>19.359999999999999</ele>
        <time>2025-05-06T08:17:43Z</time>
      </trkpt>
      <trkpt lat="38.57923099771142" lon="-8.677589977160096">
        <ele>18.879999999999999</ele>
        <time>2025-05-06T08:17:44Z</time>
      </trkpt>
      <trkpt lat="38.579198978841305" lon="-8.677473971620202">
        <ele>18.399999999999999</ele>
        <time>2025-05-06T08:17:45Z</time>
      </trkpt>
      <trkpt lat="38.578872000798583" lon="-8.676433023065329">
        <ele>15.52</ele>
        <time>2025-05-06T08:17:51Z</time>
      </trkpt>
      <trkpt lat="38.57817898504436" lon="-8.674298990517855">
        <ele>15.039999999999999</ele>
        <time>2025-05-06T08:18:00Z</time>
      </trkpt>
      <trkpt lat="38.577130995690823" lon="-8.670998029410839">
        <ele>18.879999999999999</ele>
        <time>2025-05-06T08:18:13Z</time>
      </trkpt>
      <trkpt lat="38.576285010203719" lon="-8.669069018214941">
        <ele>24.649999999999999</ele>
        <time>2025-05-06T08:18:21Z</time>
      </trkpt>
      <trkpt lat="38.575051026418805" lon="-8.6674789711833">
        <ele>30.899999999999999</ele>
        <time>2025-05-06T08:18:29Z</time>
      </trkpt>
      <trkpt lat="38.572516003623605" lon="-8.664667010307312">
        <ele>49.159999999999997</ele>
        <time>2025-05-06T08:18:44Z</time>
      </trkpt>
      <trkpt lat="38.570877006277442" lon="-8.662843024358153">
        <ele>61.18</ele>
        <time>2025-05-06T08:18:54Z</time>
      </trkpt>
      <trkpt lat="38.56851196847856" lon="-8.660217979922891">
        <ele>65.030000000000001</ele>
        <time>2025-05-06T08:19:08Z</time>
      </trkpt>
      <trkpt lat="38.566948994994164" lon="-8.658717032521963">
        <ele>61.18</ele>
        <time>2025-05-06T08:19:17Z</time>
      </trkpt>
      <trkpt lat="38.564896015450358" lon="-8.657183982431889">
        <ele>56.369999999999997</ele>
        <time>2025-05-06T08:19:28Z</time>
      </trkpt>
      <trkpt lat="38.563318038359284" lon="-8.656218973919749">
        <ele>53.969999999999999</ele>
        <time>2025-05-06T08:19:36Z</time>
      </trkpt>
      <trkpt lat="38.561862017959356" lon="-8.655871041119099">
        <ele>52.049999999999997</ele>
        <time>2025-05-06T08:19:43Z</time>
      </trkpt>
      <trkpt lat="38.560275994241238" lon="-8.655524030327797">
        <ele>49.649999999999999</ele>
        <time>2025-05-06T08:19:51Z</time>
      </trkpt>
      <trkpt lat="38.559115016832948" lon="-8.65501600317657">
        <ele>48.68</ele>
        <time>2025-05-06T08:19:58Z</time>
      </trkpt>
      <trkpt lat="38.557575009763241" lon="-8.654108997434378">
        <ele>49.649999999999999</ele>
        <time>2025-05-06T08:20:07Z</time>
      </trkpt>
      <trkpt lat="38.556218985468149" lon="-8.652960006147623">
        <ele>54.93</ele>
        <time>2025-05-06T08:20:16Z</time>
      </trkpt>
      <trkpt lat="38.554680990055203" lon="-8.651372976601124">
        <ele>55.409999999999997</ele>
        <time>2025-05-06T08:20:27Z</time>
      </trkpt>
      <trkpt lat="38.553528981283307" lon="-8.650644002482295">
        <ele>53.490000000000002</ele>
        <time>2025-05-06T08:20:34Z</time>
      </trkpt>
      <trkpt lat="38.551928959786892" lon="-8.650037990882993">
        <ele>51.57</ele>
        <time>2025-05-06T08:20:43Z</time>
      </trkpt>
      <trkpt lat="38.550434969365597" lon="-8.649463998153806">
        <ele>49.159999999999997</ele>
        <time>2025-05-06T08:20:51Z</time>
      </trkpt>
      <trkpt lat="38.548444015905261" lon="-8.648637961596251">
        <ele>44.359999999999999</ele>
        <time>2025-05-06T08:21:00Z</time>
      </trkpt>
      <trkpt lat="38.546353988349438" lon="-8.647731961682439">
        <ele>43.399999999999999</ele>
        <time>2025-05-06T08:21:10Z</time>
      </trkpt>
      <trkpt lat="38.545121010392904" lon="-8.646899973973632">
        <ele>45.32</ele>
        <time>2025-05-06T08:21:17Z</time>
      </trkpt>
      <trkpt lat="38.543687034398317" lon="-8.64577797241509">
        <ele>50.609999999999999</ele>
        <time>2025-05-06T08:21:25Z</time>
      </trkpt>
      <trkpt lat="38.54249001480639" lon="-8.644838025793433">
        <ele>55.890000000000001</ele>
        <time>2025-05-06T08:21:31Z</time>
      </trkpt>
      <trkpt lat="38.540801983326674" lon="-8.643509997054935">
        <ele>64.549999999999997</ele>
        <time>2025-05-06T08:21:40Z</time>
      </trkpt>
      <trkpt lat="38.53913800790906" lon="-8.642001003026962">
        <ele>72.239999999999995</ele>
        <time>2025-05-06T08:21:50Z</time>
      </trkpt>
      <trkpt lat="38.538034027442336" lon="-8.640152039006352">
        <ele>75.120000000000005</ele>
        <time>2025-05-06T08:21:59Z</time>
      </trkpt>
      <trkpt lat="38.536698035895824" lon="-8.637660015374422">
        <ele>77.040000000000006</ele>
        <time>2025-05-06T08:22:11Z</time>
      </trkpt>
      <trkpt lat="38.535458017140627" lon="-8.635371001437306">
        <ele>79.450000000000003</ele>
        <time>2025-05-06T08:22:22Z</time>
      </trkpt>
      <trkpt lat="38.53411003947258" lon="-8.633046029135585">
        <ele>77.519999999999996</ele>
        <time>2025-05-06T08:22:33Z</time>
      </trkpt>
      <trkpt lat="38.532922994345427" lon="-8.631332013756037">
        <ele>79.450000000000003</ele>
        <time>2025-05-06T08:22:42Z</time>
      </trkpt>
      <trkpt lat="38.531892020255327" lon="-8.629847997799516">
        <ele>83.290000000000006</ele>
        <time>2025-05-06T08:22:50Z</time>
      </trkpt>
      <trkpt lat="38.530283030122519" lon="-8.627568036317825">
        <ele>87.620000000000005</ele>
        <time>2025-05-06T08:23:02Z</time>
      </trkpt>
      <trkpt lat="38.52884603664279" lon="-8.626025011762977">
        <ele>90.5</ele>
        <time>2025-05-06T08:23:11Z</time>
      </trkpt>
      <trkpt lat="38.526832032948732" lon="-8.623846974223852">
        <ele>92.900000000000006</ele>
        <time>2025-05-06T08:23:24Z</time>
      </trkpt>
      <trkpt lat="38.525434015318751" lon="-8.621683018282056">
        <ele>94.829999999999998</ele>
        <time>2025-05-06T08:23:35Z</time>
      </trkpt>
      <trkpt lat="38.523975983262062" lon="-8.619592990726233">
        <ele>101.56</ele>
        <time>2025-05-06T08:23:46Z</time>
      </trkpt>
      <trkpt lat="38.522600010037422" lon="-8.618120960891247">
        <ele>103.95999999999999</ele>
        <time>2025-05-06T08:23:55Z</time>
      </trkpt>
      <trkpt lat="38.521355967968702" lon="-8.616843977943063">
        <ele>103.95999999999999</ele>
        <time>2025-05-06T08:24:03Z</time>
      </trkpt>
      <trkpt lat="38.519745972007513" lon="-8.615297013893724">
        <ele>103.95999999999999</ele>
        <time>2025-05-06T08:24:13Z</time>
      </trkpt>
      <trkpt lat="38.518248964101076" lon="-8.614619001746178">
        <ele>102.52</ele>
        <time>2025-05-06T08:24:21Z</time>
      </trkpt>
      <trkpt lat="38.515876969322562" lon="-8.6140669696033">
        <ele>97.230000000000004</ele>
        <time>2025-05-06T08:24:33Z</time>
      </trkpt>
      <trkpt lat="38.514361018314958" lon="-8.613521978259087">
        <ele>92.900000000000006</ele>
        <time>2025-05-06T08:24:41Z</time>
      </trkpt>
      <trkpt lat="38.512883959338069" lon="-8.61221800558269">
        <ele>93.390000000000001</ele>
        <time>2025-05-06T08:24:50Z</time>
      </trkpt>
      <trkpt lat="38.510396964848042" lon="-8.609640989452601">
        <ele>95.310000000000002</ele>
        <time>2025-05-06T08:25:06Z</time>
      </trkpt>
      <trkpt lat="38.50789999589324" lon="-8.607064979150891">
        <ele>89.540000000000006</ele>
        <time>2025-05-06T08:25:22Z</time>
      </trkpt>
      <trkpt lat="38.505719024688005" lon="-8.604819970205426">
        <ele>84.730000000000004</ele>
        <time>2025-05-06T08:25:36Z</time>
      </trkpt>
      <trkpt lat="38.504255963489413" lon="-8.60349303111434">
        <ele>77.519999999999996</ele>
        <time>2025-05-06T08:25:45Z</time>
      </trkpt>
      <trkpt lat="38.502599028870463" lon="-8.602611003443599">
        <ele>75.120000000000005</ele>
        <time>2025-05-06T08:25:54Z</time>
      </trkpt>
      <trkpt lat="38.500624001026154" lon="-8.602105993777514">
        <ele>70.310000000000002</ele>
        <time>2025-05-06T08:26:04Z</time>
      </trkpt>
      <trkpt lat="38.498074980452657" lon="-8.601478021591902">
        <ele>59.259999999999998</ele>
        <time>2025-05-06T08:26:17Z</time>
      </trkpt>
      <trkpt lat="38.495530989021063" lon="-8.600850971415639">
        <ele>55.890000000000001</ele>
        <time>2025-05-06T08:26:30Z</time>
      </trkpt>
      <trkpt lat="38.493767017498612" lon="-8.600416034460068">
        <ele>56.369999999999997</ele>
        <time>2025-05-06T08:26:39Z</time>
      </trkpt>
      <trkpt lat="38.491602977737784" lon="-8.599882023409009">
        <ele>57.340000000000003</ele>
        <time>2025-05-06T08:26:50Z</time>
      </trkpt>
      <trkpt lat="38.490691026672721" lon="-8.599657975137234">
        <ele>56.369999999999997</ele>
        <time>2025-05-06T08:26:56Z</time>
      </trkpt>
      <trkpt lat="38.489943025633693" lon="-8.599468963220716">
        <ele>54.93</ele>
        <time>2025-05-06T08:27:03Z</time>
      </trkpt>
      <trkpt lat="38.488959996029735" lon="-8.599217003211379">
        <ele>52.530000000000001</ele>
        <time>2025-05-06T08:27:10Z</time>
      </trkpt>
      <trkpt lat="38.487192001193762" lon="-8.598761027678847">
        <ele>45.32</ele>
        <time>2025-05-06T08:27:18Z</time>
      </trkpt>
      <trkpt lat="38.484819000586867" lon="-8.598169013857842">
        <ele>32.82</ele>
        <time>2025-05-06T08:27:27Z</time>
      </trkpt>
      <trkpt lat="38.483164999634027" lon="-8.597781015560031">
        <ele>27.530000000000001</ele>
        <time>2025-05-06T08:27:34Z</time>
      </trkpt>
      <trkpt lat="38.481630021706223" lon="-8.597272988408804">
        <ele>24.649999999999999</ele>
        <time>2025-05-06T08:27:42Z</time>
      </trkpt>
      <trkpt lat="38.479265989735723" lon="-8.595856027677655">
        <ele>22.25</ele>
        <time>2025-05-06T08:27:55Z</time>
      </trkpt>
      <trkpt lat="38.477460024878383" lon="-8.594736959785223">
        <ele>14.08</ele>
        <time>2025-05-06T08:28:05Z</time>
      </trkpt>
      <trkpt lat="38.475938960909843" lon="-8.593558967113495">
        <ele>13.119999999999999</ele>
        <time>2025-05-06T08:28:14Z</time>
      </trkpt>
      <trkpt lat="38.474397026002407" lon="-8.59157002530992">
        <ele>8.789999999999999</ele>
        <time>2025-05-06T08:28:25Z</time>
      </trkpt>
      <trkpt lat="38.47287998534739" lon="-8.589558033272624">
        <ele>4.46</ele>
        <time>2025-05-06T08:28:36Z</time>
      </trkpt>
      <trkpt lat="38.471077959984541" lon="-8.587177991867065">
        <ele>3.5</ele>
        <time>2025-05-06T08:28:49Z</time>
      </trkpt>
      <trkpt lat="38.469361010938883" lon="-8.58503800816834">
        <ele>4.46</ele>
        <time>2025-05-06T08:29:01Z</time>
      </trkpt>
      <trkpt lat="38.467936003580689" lon="-8.584163021296263">
        <ele>7.35</ele>
        <time>2025-05-06T08:29:09Z</time>
      </trkpt>
      <trkpt lat="38.465683031827211" lon="-8.583001960068941">
        <ele>7.83</ele>
        <time>2025-05-06T08:29:21Z</time>
      </trkpt>
      <trkpt lat="38.464981969445944" lon="-8.582512037828565">
        <ele>6.87</ele>
        <time>2025-05-06T08:29:25Z</time>
      </trkpt>
      <trkpt lat="38.464819025248289" lon="-8.582362001761794">
        <ele>6.39</ele>
        <time>2025-05-06T08:29:26Z</time>
      </trkpt>
      <trkpt lat="38.463701969012618" lon="-8.580932971090078">
        <ele>6.87</ele>
        <time>2025-05-06T08:29:34Z</time>
      </trkpt>
      <trkpt lat="38.462132038548589" lon="-8.578301975503564">
        <ele>12.15</ele>
        <time>2025-05-06T08:29:47Z</time>
      </trkpt>
      <trkpt lat="38.46106200478971" lon="-8.576160985976458">
        <ele>17.440000000000001</ele>
        <time>2025-05-06T08:29:57Z</time>
      </trkpt>
      <trkpt lat="38.460637964308262" lon="-8.575007971376181">
        <ele>19.359999999999999</ele>
        <time>2025-05-06T08:30:02Z</time>
      </trkpt>
      <trkpt lat="38.460553977638483" lon="-8.574776966124773">
        <ele>20.32</ele>
        <time>2025-05-06T08:30:03Z</time>
      </trkpt>
      <trkpt lat="38.459397023543715" lon="-8.571552028879523">
        <ele>27.530000000000001</ele>
        <time>2025-05-06T08:30:17Z</time>
      </trkpt>
      <trkpt lat="38.45829002559185" lon="-8.568562958389521">
        <ele>36.189999999999998</ele>
        <time>2025-05-06T08:30:30Z</time>
      </trkpt>
      <trkpt lat="38.457449991255999" lon="-8.566258018836379">
        <ele>42.920000000000002</ele>
        <time>2025-05-06T08:30:40Z</time>
      </trkpt>
      <trkpt lat="38.456273004412651" lon="-8.563051018863916">
        <ele>53.009999999999998</ele>
        <time>2025-05-06T08:30:54Z</time>
      </trkpt>
      <trkpt lat="38.455075984820724" lon="-8.56011601164937">
        <ele>58.299999999999997</ele>
        <time>2025-05-06T08:31:07Z</time>
      </trkpt>
      <trkpt lat="38.453938979655504" lon="-8.558049034327269">
        <ele>63.100000000000001</ele>
        <time>2025-05-06T08:31:17Z</time>
      </trkpt>
      <trkpt lat="38.453019987791777" lon="-8.556376006454229">
        <ele>66.469999999999999</ele>
        <time>2025-05-06T08:31:25Z</time>
      </trkpt>
      <trkpt lat="38.451568996533751" lon="-8.553966041654348">
        <ele>73.680000000000007</ele>
        <time>2025-05-06T08:31:37Z</time>
      </trkpt>
      <trkpt lat="38.450526036322117" lon="-8.552416982129216">
        <ele>78</ele>
        <time>2025-05-06T08:31:45Z</time>
      </trkpt>
      <trkpt lat="38.448775978758931" lon="-8.549935016781092">
        <ele>84.730000000000004</ele>
        <time>2025-05-06T08:31:58Z</time>
      </trkpt>
      <trkpt lat="38.447334039956331" lon="-8.548542028293014">
        <ele>85.209999999999994</ele>
        <time>2025-05-06T08:32:07Z</time>
      </trkpt>
      <trkpt lat="38.445939039811492" lon="-8.54720301926136">
        <ele>80.890000000000001</ele>
        <time>2025-05-06T08:32:16Z</time>
      </trkpt>
      <trkpt lat="38.444247990846634" lon="-8.545575002208352">
        <ele>74.640000000000001</ele>
        <time>2025-05-06T08:32:27Z</time>
      </trkpt>
      <trkpt lat="38.442387962713838" lon="-8.543782029300928">
        <ele>67.909999999999997</ele>
        <time>2025-05-06T08:32:39Z</time>
      </trkpt>
      <trkpt lat="38.440833035856485" lon="-8.542272029444575">
        <ele>64.549999999999997</ele>
        <time>2025-05-06T08:32:49Z</time>
      </trkpt>
      <trkpt lat="38.439574996009469" lon="-8.541065035387874">
        <ele>64.069999999999993</ele>
        <time>2025-05-06T08:32:57Z</time>
      </trkpt>
      <trkpt lat="38.438012022525072" lon="-8.53955302387476">
        <ele>59.740000000000002</ele>
        <time>2025-05-06T08:33:07Z</time>
      </trkpt>
      <trkpt lat="38.43641703017056" lon="-8.538018967956305">
        <ele>49.649999999999999</ele>
        <time>2025-05-06T08:33:17Z</time>
      </trkpt>
      <trkpt lat="38.434846010059118" lon="-8.536496981978416">
        <ele>38.590000000000003</ele>
        <time>2025-05-06T08:33:27Z</time>
      </trkpt>
      <trkpt lat="38.433771030977368" lon="-8.534989999607205">
        <ele>28.5</ele>
        <time>2025-05-06T08:33:35Z</time>
      </trkpt>
      <trkpt lat="38.433029986917973" lon="-8.533200966194272">
        <ele>18.399999999999999</ele>
        <time>2025-05-06T08:33:43Z</time>
      </trkpt>
      <trkpt lat="38.432335965335369" lon="-8.531118985265493">
        <ele>15.52</ele>
        <time>2025-05-06T08:33:52Z</time>
      </trkpt>
      <trkpt lat="38.431469025090337" lon="-8.52855496108532">
        <ele>14.56</ele>
        <time>2025-05-06T08:34:03Z</time>
      </trkpt>
      <trkpt lat="38.430534023791552" lon="-8.525768984109163">
        <ele>12.15</ele>
        <time>2025-05-06T08:34:15Z</time>
      </trkpt>
      <trkpt lat="38.429440017789602" lon="-8.522788966074586">
        <ele>12.630000000000001</ele>
        <time>2025-05-06T08:34:28Z</time>
      </trkpt>
      <trkpt lat="38.428167980164289" lon="-8.520857021212578">
        <ele>20.32</ele>
        <time>2025-05-06T08:34:38Z</time>
      </trkpt>
      <trkpt lat="38.426719000563025" lon="-8.519538966938853">
        <ele>31.379999999999999</ele>
        <time>2025-05-06T08:34:47Z</time>
      </trkpt>
      <trkpt lat="38.425248982384801" lon="-8.518750984221697">
        <ele>39.07</ele>
        <time>2025-05-06T08:34:55Z</time>
      </trkpt>
      <trkpt lat="38.423460032790899" lon="-8.518358962610364">
        <ele>41.950000000000003</ele>
        <time>2025-05-06T08:35:04Z</time>
      </trkpt>
      <trkpt lat="38.421072028577328" lon="-8.51798496209085">
        <ele>42.439999999999998</ele>
        <time>2025-05-06T08:35:16Z</time>
      </trkpt>
      <trkpt lat="38.419110998511314" lon="-8.517693020403385">
        <ele>47.240000000000002</ele>
        <time>2025-05-06T08:35:26Z</time>
      </trkpt>
      <trkpt lat="38.416721988469362" lon="-8.517323965206742">
        <ele>51.57</ele>
        <time>2025-05-06T08:35:38Z</time>
      </trkpt>
      <trkpt lat="38.414324009791017" lon="-8.516959017142654">
        <ele>48.68</ele>
        <time>2025-05-06T08:35:50Z</time>
      </trkpt>
      <trkpt lat="38.412345964461565" lon="-8.51665198802948">
        <ele>45.32</ele>
        <time>2025-05-06T08:36:00Z</time>
      </trkpt>
      <trkpt lat="38.409956032410264" lon="-8.516299026086927">
        <ele>40.990000000000002</ele>
        <time>2025-05-06T08:36:12Z</time>
      </trkpt>
      <trkpt lat="38.407363006845117" lon="-8.515994008630514">
        <ele>29.460000000000001</ele>
        <time>2025-05-06T08:36:25Z</time>
      </trkpt>
      <trkpt lat="38.40522101148963" lon="-8.516127029433847">
        <ele>22.25</ele>
        <time>2025-05-06T08:36:36Z</time>
      </trkpt>
      <trkpt lat="38.405113974586129" lon="-8.516271030530334">
        <ele>21.77</ele>
        <time>2025-05-06T08:36:37Z</time>
      </trkpt>
      <trkpt lat="38.404967039823532" lon="-8.516388963907957">
        <ele>21.77</ele>
        <time>2025-05-06T08:36:38Z</time>
      </trkpt>
      <trkpt lat="38.404851034283638" lon="-8.516480997204781">
        <ele>21.289999999999999</ele>
        <time>2025-05-06T08:36:39Z</time>
      </trkpt>
      <trkpt lat="38.404752966016531" lon="-8.516579987481237">
        <ele>21.289999999999999</ele>
        <time>2025-05-06T08:36:40Z</time>
      </trkpt>
      <trkpt lat="38.404665039852262" lon="-8.516696998849511">
        <ele>21.289999999999999</ele>
        <time>2025-05-06T08:36:41Z</time>
      </trkpt>
      <trkpt lat="38.40457602404058" lon="-8.516816021874547">
        <ele>21.77</ele>
        <time>2025-05-06T08:36:42Z</time>
      </trkpt>
      <trkpt lat="38.4043850004673" lon="-8.517061024904251">
        <ele>22.25</ele>
        <time>2025-05-06T08:36:44Z</time>
      </trkpt>
      <trkpt lat="38.404283998534083" lon="-8.517148029059172">
        <ele>22.73</ele>
        <time>2025-05-06T08:36:45Z</time>
      </trkpt>
      <trkpt lat="38.404162041842937" lon="-8.517197985202074">
        <ele>23.210000000000001</ele>
        <time>2025-05-06T08:36:46Z</time>
      </trkpt>
      <trkpt lat="38.40406003408134" lon="-8.517225980758667">
        <ele>23.690000000000001</ele>
        <time>2025-05-06T08:36:47Z</time>
      </trkpt>
      <trkpt lat="38.403951991349459" lon="-8.517215000465512">
        <ele>23.690000000000001</ele>
        <time>2025-05-06T08:36:48Z</time>
      </trkpt>
      <trkpt lat="38.403859036043286" lon="-8.517183987423778">
        <ele>24.170000000000002</ele>
        <time>2025-05-06T08:36:49Z</time>
      </trkpt>
      <trkpt lat="38.40376197360456" lon="-8.517150962725282">
        <ele>24.170000000000002</ele>
        <time>2025-05-06T08:36:50Z</time>
      </trkpt>
      <trkpt lat="38.403670024126768" lon="-8.517049960792065">
        <ele>24.170000000000002</ele>
        <time>2025-05-06T08:36:51Z</time>
      </trkpt>
      <trkpt lat="38.403578996658325" lon="-8.516950970515609">
        <ele>24.649999999999999</ele>
        <time>2025-05-06T08:36:52Z</time>
      </trkpt>
      <trkpt lat="38.403485035523772" lon="-8.516848040744662">
        <ele>25.129999999999999</ele>
        <time>2025-05-06T08:36:53Z</time>
      </trkpt>
      <trkpt lat="38.403387973085046" lon="-8.516741003841162">
        <ele>25.609999999999999</ele>
        <time>2025-05-06T08:36:54Z</time>
      </trkpt>
      <trkpt lat="38.402508040890098" lon="-8.515592012554407">
        <ele>25.609999999999999</ele>
        <time>2025-05-06T08:37:02Z</time>
      </trkpt>
      <trkpt lat="38.402191959321499" lon="-8.515356983989477">
        <ele>25.609999999999999</ele>
        <time>2025-05-06T08:37:04Z</time>
      </trkpt>
      <trkpt lat="38.40202197432518" lon="-8.51525598205626">
        <ele>25.609999999999999</ele>
        <time>2025-05-06T08:37:05Z</time>
      </trkpt>
      <trkpt lat="38.401850983500481" lon="-8.515154980123043">
        <ele>25.609999999999999</ele>
        <time>2025-05-06T08:37:06Z</time>
      </trkpt>
      <trkpt lat="38.401667000725865" lon="-8.515088008716703">
        <ele>25.609999999999999</ele>
        <time>2025-05-06T08:37:07Z</time>
      </trkpt>
      <trkpt lat="38.401481006294489" lon="-8.515046015381813">
        <ele>26.09</ele>
        <time>2025-05-06T08:37:08Z</time>
      </trkpt>
      <trkpt lat="38.401288976892829" lon="-8.515011984854937">
        <ele>26.09</ele>
        <time>2025-05-06T08:37:09Z</time>
      </trkpt>
      <trkpt lat="38.399234991520643" lon="-8.514697998762131">
        <ele>30.420000000000002</ele>
        <time>2025-05-06T08:37:20Z</time>
      </trkpt>
      <trkpt lat="38.397694984450936" lon="-8.514476967975497">
        <ele>36.189999999999998</ele>
        <time>2025-05-06T08:37:29Z</time>
      </trkpt>
      <trkpt lat="38.396663004532456" lon="-8.514345036819577">
        <ele>38.109999999999999</ele>
        <time>2025-05-06T08:37:38Z</time>
      </trkpt>
      <trkpt lat="38.394982013851404" lon="-8.514104979112744">
        <ele>40.030000000000001</ele>
        <time>2025-05-06T08:37:52Z</time>
      </trkpt>
      <trkpt lat="38.39329699985683" lon="-8.513838015496731">
        <ele>43.399999999999999</ele>
        <time>2025-05-06T08:38:06Z</time>
      </trkpt>
      <trkpt lat="38.391610980033875" lon="-8.513584965839982">
        <ele>45.799999999999997</ele>
        <time>2025-05-06T08:38:20Z</time>
      </trkpt>
      <trkpt lat="38.389680041000247" lon="-8.513295035809279">
        <ele>50.609999999999999</ele>
        <time>2025-05-06T08:38:36Z</time>
      </trkpt>
      <trkpt lat="38.388477992266417" lon="-8.513124966993928">
        <ele>52.049999999999997</ele>
        <time>2025-05-06T08:38:46Z</time>
      </trkpt>
      <trkpt lat="38.38736898265779" lon="-8.513023965060711">
        <ele>53.490000000000002</ele>
        <time>2025-05-06T08:38:56Z</time>
      </trkpt>
      <trkpt lat="38.386941002681851" lon="-8.513005021959543">
        <ele>54.93</ele>
        <time>2025-05-06T08:39:04Z</time>
      </trkpt>
      <trkpt lat="38.386877970770001" lon="-8.513003010302782">
        <ele>55.409999999999997</ele>
        <time>2025-05-06T08:39:05Z</time>
      </trkpt>
      <trkpt lat="38.386602960526943" lon="-8.512997981160879">
        <ele>55.890000000000001</ele>
        <time>2025-05-06T08:39:10Z</time>
      </trkpt>
      <trkpt lat="38.386362986639142" lon="-8.512993035838008">
        <ele>56.369999999999997</ele>
        <time>2025-05-06T08:39:14Z</time>
      </trkpt>
      <trkpt lat="38.385776001960039" lon="-8.513010973110795">
        <ele>56.859999999999999</ele>
        <time>2025-05-06T08:39:22Z</time>
      </trkpt>
      <trkpt lat="38.384163994342089" lon="-8.513185987249017">
        <ele>62.140000000000001</ele>
        <time>2025-05-06T08:39:36Z</time>
      </trkpt>
      <trkpt lat="38.382244035601616" lon="-8.513436019420624">
        <ele>63.579999999999998</ele>
        <time>2025-05-06T08:39:52Z</time>
      </trkpt>
      <trkpt lat="38.380759013816714" lon="-8.513465020805597">
        <ele>65.510000000000005</ele>
        <time>2025-05-06T08:40:05Z</time>
      </trkpt>
      <trkpt lat="38.380386019125581" lon="-8.513410035520792">
        <ele>65.510000000000005</ele>
        <time>2025-05-06T08:40:09Z</time>
      </trkpt>
      <trkpt lat="38.38027898222208" lon="-8.513433001935482">
        <ele>65.510000000000005</ele>
        <time>2025-05-06T08:40:10Z</time>
      </trkpt>
      <trkpt lat="38.380236988887191" lon="-8.513484969735146">
        <ele>65.510000000000005</ele>
        <time>2025-05-06T08:40:11Z</time>
      </trkpt>
      <trkpt lat="38.380222991108894" lon="-8.513502990826964">
        <ele>65.510000000000005</ele>
        <time>2025-05-06T08:40:12Z</time>
      </trkpt>
      <trkpt lat="38.380147973075509" lon="-8.513551019132137">
        <ele>65.030000000000001</ele>
        <time>2025-05-06T08:40:13Z</time>
      </trkpt>
      <trkpt lat="38.380147973075509" lon="-8.513551019132137">
        <ele>65.030000000000001</ele>
        <time>2025-05-06T08:40:23Z</time>
      </trkpt>
      <trkpt lat="38.380131963640451" lon="-8.513622013852">
        <ele>65.510000000000005</ele>
        <time>2025-05-06T08:40:26Z</time>
      </trkpt>
      <trkpt lat="38.38017001748085" lon="-8.51370801217854">
        <ele>65.510000000000005</ele>
        <time>2025-05-06T08:40:27Z</time>
      </trkpt>
      <trkpt lat="38.380115032196045" lon="-8.513696026057005">
        <ele>65.030000000000001</ele>
        <time>2025-05-06T08:40:28Z</time>
      </trkpt>
      <trkpt lat="38.379406007006764" lon="-8.513608016073704">
        <ele>62.619999999999997</ele>
        <time>2025-05-06T08:40:36Z</time>
      </trkpt>
      <trkpt lat="38.378592040389776" lon="-8.513502990826964">
        <ele>59.740000000000002</ele>
        <time>2025-05-06T08:40:44Z</time>
      </trkpt>
      <trkpt lat="38.378501012921333" lon="-8.513495028018951">
        <ele>59.259999999999998</ele>
        <time>2025-05-06T08:40:45Z</time>
      </trkpt>
      <trkpt lat="38.378407973796129" lon="-8.513485975563526">
        <ele>59.259999999999998</ele>
        <time>2025-05-06T08:40:46Z</time>
      </trkpt>
      <trkpt lat="38.378031961619854" lon="-8.51344901137054">
        <ele>58.299999999999997</ele>
        <time>2025-05-06T08:40:50Z</time>
      </trkpt>
      <trkpt lat="38.377830041572452" lon="-8.513427972793579">
        <ele>58.299999999999997</ele>
        <time>2025-05-06T08:40:52Z</time>
      </trkpt>
      <trkpt lat="38.377637006342411" lon="-8.513410035520792">
        <ele>57.82</ele>
        <time>2025-05-06T08:40:54Z</time>
      </trkpt>
      <trkpt lat="38.377545978873968" lon="-8.513402994722128">
        <ele>57.340000000000003</ele>
        <time>2025-05-06T08:40:55Z</time>
      </trkpt>
      <trkpt lat="38.376693958416581" lon="-8.513306016102433">
        <ele>54.450000000000003</ele>
        <time>2025-05-06T08:41:04Z</time>
      </trkpt>
      <trkpt lat="38.375625014305115" lon="-8.513195961713791">
        <ele>51.57</ele>
        <time>2025-05-06T08:41:14Z</time>
      </trkpt>
      <trkpt lat="38.375084968283772" lon="-8.5130849853158">
        <ele>47.719999999999999</ele>
        <time>2025-05-06T08:41:20Z</time>
      </trkpt>
      <trkpt lat="38.374997964128852" lon="-8.513046009466052">
        <ele>46.759999999999998</ele>
        <time>2025-05-06T08:41:21Z</time>
      </trkpt>
      <trkpt lat="38.374914983287454" lon="-8.512991024181247">
        <ele>45.799999999999997</ele>
        <time>2025-05-06T08:41:22Z</time>
      </trkpt>
      <trkpt lat="38.374829990789294" lon="-8.512922963127494">
        <ele>45.32</ele>
        <time>2025-05-06T08:41:23Z</time>
      </trkpt>
      <trkpt lat="38.374744998291135" lon="-8.512853980064392">
        <ele>44.359999999999999</ele>
        <time>2025-05-06T08:41:24Z</time>
      </trkpt>
      <trkpt lat="38.373990962281823" lon="-8.512246962636709">
        <ele>39.07</ele>
        <time>2025-05-06T08:41:34Z</time>
      </trkpt>
      <trkpt lat="38.373562982305884" lon="-8.511889977380633">
        <ele>37.630000000000003</ele>
        <time>2025-05-06T08:41:39Z</time>
      </trkpt>
      <trkpt lat="38.37350900284946" lon="-8.511803979054093">
        <ele>37.149999999999999</ele>
        <time>2025-05-06T08:41:40Z</time>
      </trkpt>
      <trkpt lat="38.373476983979344" lon="-8.511711023747921">
        <ele>36.670000000000002</ele>
        <time>2025-05-06T08:41:41Z</time>
      </trkpt>
      <trkpt lat="38.373462986201048" lon="-8.511609015986323">
        <ele>36.189999999999998</ele>
        <time>2025-05-06T08:41:42Z</time>
      </trkpt>
      <trkpt lat="38.37344697676599" lon="-8.511499967426062">
        <ele>36.189999999999998</ele>
        <time>2025-05-06T08:41:43Z</time>
      </trkpt>
      <trkpt lat="38.373429961502552" lon="-8.511379016563296">
        <ele>35.710000000000001</ele>
        <time>2025-05-06T08:41:44Z</time>
      </trkpt>
      <trkpt lat="38.373372964560986" lon="-8.51074299775064">
        <ele>33.299999999999997</ele>
        <time>2025-05-06T08:41:49Z</time>
      </trkpt>
      <trkpt lat="38.373332982882857" lon="-8.510618023574352">
        <ele>33.299999999999997</ele>
        <time>2025-05-06T08:41:50Z</time>
      </trkpt>
      <trkpt lat="38.373213037848473" lon="-8.509987033903599">
        <ele>32.340000000000003</ele>
        <time>2025-05-06T08:41:55Z</time>
      </trkpt>
      <trkpt lat="38.373250002041459" lon="-8.509887959808111">
        <ele>32.340000000000003</ele>
        <time>2025-05-06T08:41:56Z</time>
      </trkpt>
      <trkpt lat="38.373270034790039" lon="-8.509833980351687">
        <ele>31.859999999999999</ele>
        <time>2025-05-06T08:41:57Z</time>
      </trkpt>
      <trkpt lat="38.373361984267831" lon="-8.509750999510288">
        <ele>31.859999999999999</ele>
        <time>2025-05-06T08:41:58Z</time>
      </trkpt>
      <trkpt lat="38.373433984816074" lon="-8.509685033932328">
        <ele>31.379999999999999</ele>
        <time>2025-05-06T08:41:59Z</time>
      </trkpt>
      <trkpt lat="38.373506991192698" lon="-8.509618984535337">
        <ele>31.379999999999999</ele>
        <time>2025-05-06T08:42:00Z</time>
      </trkpt>
      <trkpt lat="38.373587038367987" lon="-8.509618984535337">
        <ele>30.899999999999999</ele>
        <time>2025-05-06T08:42:01Z</time>
      </trkpt>
      <trkpt lat="38.37368099950254" lon="-8.509618984535337">
        <ele>30.420000000000002</ele>
        <time>2025-05-06T08:42:02Z</time>
      </trkpt>
      <trkpt lat="38.373785018920898" lon="-8.509618984535337">
        <ele>30.420000000000002</ele>
        <time>2025-05-06T08:42:03Z</time>
      </trkpt>
      <trkpt lat="38.373860036954284" lon="-8.509651003405452">
        <ele>29.940000000000001</ele>
        <time>2025-05-06T08:42:04Z</time>
      </trkpt>
      <trkpt lat="38.373946035280824" lon="-8.509686961770058">
        <ele>29.460000000000001</ele>
        <time>2025-05-06T08:42:05Z</time>
      </trkpt>
      <trkpt lat="38.374033961445093" lon="-8.509724009782076">
        <ele>28.98</ele>
        <time>2025-05-06T08:42:06Z</time>
      </trkpt>
      <trkpt lat="38.374119037762284" lon="-8.509759968146682">
        <ele>28.5</ele>
        <time>2025-05-06T08:42:07Z</time>
      </trkpt>
      <trkpt lat="38.37421802803874" lon="-8.509772960096598">
        <ele>28.02</ele>
        <time>2025-05-06T08:42:08Z</time>
      </trkpt>
      <trkpt lat="38.374286005273461" lon="-8.509725015610457">
        <ele>27.530000000000001</ele>
        <time>2025-05-06T08:42:09Z</time>
      </trkpt>
      <trkpt lat="38.374353982508183" lon="-8.509657960385084">
        <ele>27.050000000000001</ele>
        <time>2025-05-06T08:42:10Z</time>
      </trkpt>
      <trkpt lat="38.374386001378298" lon="-8.509575985372067">
        <ele>26.09</ele>
        <time>2025-05-06T08:42:11Z</time>
      </trkpt>
      <trkpt lat="38.374378038570285" lon="-8.509457968175411">
        <ele>25.609999999999999</ele>
        <time>2025-05-06T08:42:12Z</time>
      </trkpt>
      <trkpt lat="38.37436999194324" lon="-8.509354032576084">
        <ele>24.170000000000002</ele>
        <time>2025-05-06T08:42:13Z</time>
      </trkpt>
      <trkpt lat="38.374353982508183" lon="-8.509264010936022">
        <ele>23.210000000000001</ele>
        <time>2025-05-06T08:42:14Z</time>
      </trkpt>
      <trkpt lat="38.374289022758603" lon="-8.509189998731017">
        <ele>21.77</ele>
        <time>2025-05-06T08:42:15Z</time>
      </trkpt>
      <trkpt lat="38.374210987240076" lon="-8.509102994576097">
        <ele>19.84</ele>
        <time>2025-05-06T08:42:16Z</time>
      </trkpt>
      <trkpt lat="38.374116020277143" lon="-8.509052032604814">
        <ele>18.399999999999999</ele>
        <time>2025-05-06T08:42:17Z</time>
      </trkpt>
      <trkpt lat="38.373254025354981" lon="-8.508648024871945">
        <ele>8.310000000000001</ele>
        <time>2025-05-06T08:42:25Z</time>
      </trkpt>
      <trkpt lat="38.373159980401397" lon="-8.50861500017345">
        <ele>7.35</ele>
        <time>2025-05-06T08:42:26Z</time>
      </trkpt>
      <trkpt lat="38.372969962656498" lon="-8.508546017110348">
        <ele>5.91</ele>
        <time>2025-05-06T08:42:28Z</time>
      </trkpt>
      <trkpt lat="38.372889999300241" lon="-8.508520033210516">
        <ele>4.94</ele>
        <time>2025-05-06T08:42:29Z</time>
      </trkpt>
      <trkpt lat="38.372794026508927" lon="-8.50846303626895">
        <ele>4.46</ele>
        <time>2025-05-06T08:42:30Z</time>
      </trkpt>
      <trkpt lat="38.372078966349363" lon="-8.507800027728081">
        <ele>-3.71</ele>
        <time>2025-05-06T08:42:40Z</time>
      </trkpt>
      <trkpt lat="38.37200403213501" lon="-8.507687961682677">
        <ele>-4.19</ele>
        <time>2025-05-06T08:42:41Z</time>
      </trkpt>
      <trkpt lat="38.371975030750036" lon="-8.50762601941824">
        <ele>-4.67</ele>
        <time>2025-05-06T08:42:42Z</time>
      </trkpt>
      <trkpt lat="38.371932031586766" lon="-8.507534991949797">
        <ele>-4.67</ele>
        <time>2025-05-06T08:42:43Z</time>
      </trkpt>
      <trkpt lat="38.371890960261226" lon="-8.507446981966496">
        <ele>-5.15</ele>
        <time>2025-05-06T08:42:44Z</time>
      </trkpt>
      <trkpt lat="38.37183304131031" lon="-8.507323013618588">
        <ele>-4.67</ele>
        <time>2025-05-06T08:42:45Z</time>
      </trkpt>
      <trkpt lat="38.371790964156389" lon="-8.507281020283699">
        <ele>-4.67</ele>
        <time>2025-05-06T08:42:46Z</time>
      </trkpt>
      <trkpt lat="38.371723992750049" lon="-8.507213965058327">
        <ele>-4.19</ele>
        <time>2025-05-06T08:42:47Z</time>
      </trkpt>
      <trkpt lat="38.371658027172089" lon="-8.507149005308747">
        <ele>-3.71</ele>
        <time>2025-05-06T08:42:48Z</time>
      </trkpt>
      <trkpt lat="38.371602036058903" lon="-8.507066024467349">
        <ele>-3.71</ele>
        <time>2025-05-06T08:42:49Z</time>
      </trkpt>
      <trkpt lat="38.371548978611827" lon="-8.506976002827287">
        <ele>-3.71</ele>
        <time>2025-05-06T08:42:50Z</time>
      </trkpt>
      <trkpt lat="38.371411012485623" lon="-8.506735023111105">
        <ele>-3.23</ele>
        <time>2025-05-06T08:42:53Z</time>
      </trkpt>
      <trkpt lat="38.371449988335371" lon="-8.506653970107436">
        <ele>-3.23</ele>
        <time>2025-05-06T08:42:54Z</time>
      </trkpt>
      <trkpt lat="38.371461974456906" lon="-8.50659797899425">
        <ele>-3.71</ele>
        <time>2025-05-06T08:42:55Z</time>
      </trkpt>
      <trkpt lat="38.371485024690628" lon="-8.506494965404272">
        <ele>-4.19</ele>
        <time>2025-05-06T08:42:57Z</time>
      </trkpt>
      <trkpt lat="38.371483013033867" lon="-8.506348030641675">
        <ele>-4.19</ele>
        <time>2025-05-06T08:42:58Z</time>
      </trkpt>
      <trkpt lat="38.371436996385455" lon="-8.50629597902298">
        <ele>-4.19</ele>
        <time>2025-05-06T08:42:59Z</time>
      </trkpt>
      <trkpt lat="38.37138301692903" lon="-8.506234958767891">
        <ele>-4.67</ele>
        <time>2025-05-06T08:43:00Z</time>
      </trkpt>
      <trkpt lat="38.371313028037548" lon="-8.50616698153317">
        <ele>-5.15</ele>
        <time>2025-05-06T08:43:01Z</time>
      </trkpt>
      <trkpt lat="38.371238010004163" lon="-8.506109984591603">
        <ele>-5.15</ele>
        <time>2025-05-06T08:43:02Z</time>
      </trkpt>
      <trkpt lat="38.3711479883641" lon="-8.506056005135179">
        <ele>-6.11</ele>
        <time>2025-05-06T08:43:03Z</time>
      </trkpt>
      <trkpt lat="38.371073976159096" lon="-8.506051981821656">
        <ele>-6.59</ele>
        <time>2025-05-06T08:43:04Z</time>
      </trkpt>
      <trkpt lat="38.370880018919706" lon="-8.506039995700121">
        <ele>-8.51</ele>
        <time>2025-05-06T08:43:07Z</time>
      </trkpt>
      <trkpt lat="38.370678015053272" lon="-8.506089029833674">
        <ele>-11.4</ele>
        <time>2025-05-06T08:43:12Z</time>
      </trkpt>
      <trkpt lat="38.370586987584829" lon="-8.5062310192734">
        <ele>-11.4</ele>
        <time>2025-05-06T08:43:15Z</time>
      </trkpt>
      <trkpt lat="38.370535019785166" lon="-8.506315005943179">
        <ele>-10.92</ele>
        <time>2025-05-06T08:43:16Z</time>
      </trkpt>
      <trkpt lat="38.370487997308373" lon="-8.506315005943179">
        <ele>-10.44</ele>
        <time>2025-05-06T08:43:17Z</time>
      </trkpt>
      <trkpt lat="38.370410967618227" lon="-8.506278963759542">
        <ele>-9.960000000000001</ele>
        <time>2025-05-06T08:43:18Z</time>
      </trkpt>
      <trkpt lat="38.370381966233253" lon="-8.506239987909794">
        <ele>-9.48</ele>
        <time>2025-05-06T08:43:19Z</time>
      </trkpt>
      <trkpt lat="38.370374003425241" lon="-8.506229007616639">
        <ele>-9</ele>
        <time>2025-05-06T08:43:20Z</time>
      </trkpt>
      <trkpt lat="38.370406022295356" lon="-8.506060028448701">
        <ele>-8.029999999999999</ele>
        <time>2025-05-06T08:43:21Z</time>
      </trkpt>
      <trkpt lat="38.370376015082002" lon="-8.506006971001625">
        <ele>-8.029999999999999</ele>
        <time>2025-05-06T08:43:22Z</time>
      </trkpt>
      <trkpt lat="38.370296973735094" lon="-8.505870010703802">
        <ele>-7.07</ele>
        <time>2025-05-06T08:43:29Z</time>
      </trkpt>
      <trkpt lat="38.370279036462307" lon="-8.505837991833687">
        <ele>-7.07</ele>
        <time>2025-05-06T08:43:33Z</time>
      </trkpt>
      <trkpt lat="38.370267972350121" lon="-8.505817959085107">
        <ele>-7.07</ele>
        <time>2025-05-06T08:43:34Z</time>
      </trkpt>
      <trkpt lat="38.370067980140448" lon="-8.505462985485792">
        <ele>-7.55</ele>
        <time>2025-05-06T08:43:45Z</time>
      </trkpt>
      <trkpt lat="38.369990028440952" lon="-8.505343040451407">
        <ele>-8.029999999999999</ele>
        <time>2025-05-06T08:43:47Z</time>
      </trkpt>
      <trkpt lat="38.369940994307399" lon="-8.505269028246403">
        <ele>-8.51</ele>
        <time>2025-05-06T08:43:48Z</time>
      </trkpt>
      <trkpt lat="38.369477977976203" lon="-8.504483979195356">
        <ele>-9</ele>
        <time>2025-05-06T08:43:59Z</time>
      </trkpt>
      <trkpt lat="38.369365995749831" lon="-8.504325980320573">
        <ele>-8.51</ele>
        <time>2025-05-06T08:44:07Z</time>
      </trkpt>
      <trkpt lat="38.369308998808265" lon="-8.504227995872498">
        <ele>-7.55</ele>
        <time>2025-05-06T08:44:10Z</time>
      </trkpt>
      <trkpt lat="38.368918988853693" lon="-8.503563981503248">
        <ele>-5.63</ele>
        <time>2025-05-06T08:44:18Z</time>
      </trkpt>
      <trkpt lat="38.368867021054029" lon="-8.503464991226792">
        <ele>-5.15</ele>
        <time>2025-05-06T08:44:19Z</time>
      </trkpt>
      <trkpt lat="38.368837013840675" lon="-8.503355020657182">
        <ele>-5.15</ele>
        <time>2025-05-06T08:44:20Z</time>
      </trkpt>
      <trkpt lat="38.368808012455702" lon="-8.503246977925301">
        <ele>-5.15</ele>
        <time>2025-05-06T08:44:21Z</time>
      </trkpt>
      <trkpt lat="38.368821004405618" lon="-8.503139019012451">
        <ele>-4.19</ele>
        <time>2025-05-06T08:44:22Z</time>
      </trkpt>
      <trkpt lat="38.368837013840675" lon="-8.503042962402105">
        <ele>-3.71</ele>
        <time>2025-05-06T08:44:23Z</time>
      </trkpt>
      <trkpt lat="38.368871966376901" lon="-8.502902984619141">
        <ele>-3.71</ele>
        <time>2025-05-06T08:44:24Z</time>
      </trkpt>
      <trkpt lat="38.368905996903777" lon="-8.502851016819477">
        <ele>-3.23</ele>
        <time>2025-05-06T08:44:25Z</time>
      </trkpt>
      <trkpt lat="38.36897699162364" lon="-8.502789996564388">
        <ele>-3.23</ele>
        <time>2025-05-06T08:44:26Z</time>
      </trkpt>
      <trkpt lat="38.369049998000264" lon="-8.502734005451202">
        <ele>-3.23</ele>
        <time>2025-05-06T08:44:27Z</time>
      </trkpt>
      <trkpt lat="38.369422992691398" lon="-8.502400992438197">
        <ele>-1.79</ele>
        <time>2025-05-06T08:44:32Z</time>
      </trkpt>
      <trkpt lat="38.369499016553164" lon="-8.502312982454896">
        <ele>-1.3</ele>
        <time>2025-05-06T08:44:33Z</time>
      </trkpt>
      <trkpt lat="38.369601024314761" lon="-8.502194965258241">
        <ele>-1.3</ele>
        <time>2025-05-06T08:44:34Z</time>
      </trkpt>
      <trkpt lat="38.369627008214593" lon="-8.502089018002152">
        <ele>-1.3</ele>
        <time>2025-05-06T08:44:35Z</time>
      </trkpt>
      <trkpt lat="38.369645029306412" lon="-8.501992039382458">
        <ele>-1.3</ele>
        <time>2025-05-06T08:44:36Z</time>
      </trkpt>
      <trkpt lat="38.369659027084708" lon="-8.501921966671944">
        <ele>-1.3</ele>
        <time>2025-05-06T08:44:37Z</time>
      </trkpt>
      <trkpt lat="38.369672019034624" lon="-8.501851977780461">
        <ele>-0.82</ele>
        <time>2025-05-06T08:44:38Z</time>
      </trkpt>
      <trkpt lat="38.369687022641301" lon="-8.501775031909347">
        <ele>-0.82</ele>
        <time>2025-05-06T08:44:39Z</time>
      </trkpt>
      <trkpt lat="38.369704037904739" lon="-8.501686016097665">
        <ele>-0.34</ele>
        <time>2025-05-06T08:44:40Z</time>
      </trkpt>
      <trkpt lat="38.369730021804571" lon="-8.500569965690374">
        <ele>1.58</ele>
        <time>2025-05-06T08:44:49Z</time>
      </trkpt>
      <trkpt lat="38.369748964905739" lon="-8.499408988282085">
        <ele>3.02</ele>
        <time>2025-05-06T08:44:57Z</time>
      </trkpt>
      <trkpt lat="38.369710994884372" lon="-8.499243026599288">
        <ele>3.02</ele>
        <time>2025-05-06T08:44:58Z</time>
      </trkpt>
      <trkpt lat="38.369663972407579" lon="-8.499078992754221">
        <ele>3.02</ele>
        <time>2025-05-06T08:44:59Z</time>
      </trkpt>
      <trkpt lat="38.369616027921438" lon="-8.498909007757902">
        <ele>3.02</ele>
        <time>2025-05-06T08:45:00Z</time>
      </trkpt>
      <trkpt lat="38.369559030979872" lon="-8.498736005276442">
        <ele>3.5</ele>
        <time>2025-05-06T08:45:01Z</time>
      </trkpt>
      <trkpt lat="38.369241021573544" lon="-8.498004013672471">
        <ele>3.98</ele>
        <time>2025-05-06T08:45:06Z</time>
      </trkpt>
      <trkpt lat="38.368927035480738" lon="-8.497257018461824">
        <ele>4.46</ele>
        <time>2025-05-06T08:45:11Z</time>
      </trkpt>
      <trkpt lat="38.368895016610622" lon="-8.497087033465505">
        <ele>4.46</ele>
        <time>2025-05-06T08:45:12Z</time>
      </trkpt>
      <trkpt lat="38.368864003568888" lon="-8.496914030984044">
        <ele>4.46</ele>
        <time>2025-05-06T08:45:13Z</time>
      </trkpt>
      <trkpt lat="38.368833996355534" lon="-8.496741028502584">
        <ele>4.94</ele>
        <time>2025-05-06T08:45:14Z</time>
      </trkpt>
      <trkpt lat="38.368802983313799" lon="-8.496569031849504">
        <ele>4.94</ele>
        <time>2025-05-06T08:45:15Z</time>
      </trkpt>
      <trkpt lat="38.368772976100445" lon="-8.496402986347675">
        <ele>5.42</ele>
        <time>2025-05-06T08:45:16Z</time>
      </trkpt>
      <trkpt lat="38.368743974715471" lon="-8.496238030493259">
        <ele>5.42</ele>
        <time>2025-05-06T08:45:17Z</time>
      </trkpt>
      <trkpt lat="38.368242988362908" lon="-8.494343971833587">
        <ele>7.35</ele>
        <time>2025-05-06T08:45:29Z</time>
      </trkpt>
      <trkpt lat="38.36781601421535" lon="-8.493168996647">
        <ele>8.789999999999999</ele>
        <time>2025-05-06T08:45:38Z</time>
      </trkpt>
      <trkpt lat="38.367440002039075" lon="-8.491711970418692">
        <ele>8.789999999999999</ele>
        <time>2025-05-06T08:45:49Z</time>
      </trkpt>
      <trkpt lat="38.367327013984323" lon="-8.491132026538253">
        <ele>9.75</ele>
        <time>2025-05-06T08:45:53Z</time>
      </trkpt>
      <trkpt lat="38.367307987064123" lon="-8.49097796715796">
        <ele>9.75</ele>
        <time>2025-05-06T08:45:54Z</time>
      </trkpt>
      <trkpt lat="38.367433967068791" lon="-8.489357996731997">
        <ele>9.27</ele>
        <time>2025-05-06T08:46:04Z</time>
      </trkpt>
      <trkpt lat="38.367670001462102" lon="-8.488623993471265">
        <ele>9.27</ele>
        <time>2025-05-06T08:46:09Z</time>
      </trkpt>
      <trkpt lat="38.367742002010345" lon="-8.488488961011171">
        <ele>8.789999999999999</ele>
        <time>2025-05-06T08:46:10Z</time>
      </trkpt>
      <trkpt lat="38.367832023650408" lon="-8.488373961299658">
        <ele>8.310000000000001</ele>
        <time>2025-05-06T08:46:11Z</time>
      </trkpt>
      <trkpt lat="38.367999996989965" lon="-8.488202970474958">
        <ele>8.310000000000001</ele>
        <time>2025-05-06T08:46:13Z</time>
      </trkpt>
      <trkpt lat="38.368077026680112" lon="-8.488130969926715">
        <ele>8.310000000000001</ele>
        <time>2025-05-06T08:46:14Z</time>
      </trkpt>
      <trkpt lat="38.368137963116169" lon="-8.488072967156768">
        <ele>8.789999999999999</ele>
        <time>2025-05-06T08:46:15Z</time>
      </trkpt>
      <trkpt lat="38.368131006136537" lon="-8.487793011590838">
        <ele>8.789999999999999</ele>
        <time>2025-05-06T08:46:16Z</time>
      </trkpt>
      <trkpt lat="38.368070991709828" lon="-8.487726962193847">
        <ele>9.27</ele>
        <time>2025-05-06T08:46:17Z</time>
      </trkpt>
      <trkpt lat="38.368001002818346" lon="-8.487650016322732">
        <ele>9.27</ele>
        <time>2025-05-06T08:46:18Z</time>
      </trkpt>
      <trkpt lat="38.367925984784961" lon="-8.487567035481334">
        <ele>8.789999999999999</ele>
        <time>2025-05-06T08:46:19Z</time>
      </trkpt>
      <trkpt lat="38.367844009771943" lon="-8.487476008012891">
        <ele>8.789999999999999</ele>
        <time>2025-05-06T08:46:20Z</time>
      </trkpt>
      <trkpt lat="38.366901967674494" lon="-8.48659398034215">
        <ele>7.35</ele>
        <time>2025-05-06T08:46:28Z</time>
      </trkpt>
      <trkpt lat="38.365614004433155" lon="-8.48597296513617">
        <ele>4.94</ele>
        <time>2025-05-06T08:46:35Z</time>
      </trkpt>
      <trkpt lat="38.363795969635248" lon="-8.48549896851182">
        <ele>5.42</ele>
        <time>2025-05-06T08:46:44Z</time>
      </trkpt>
      <trkpt lat="38.363635037094355" lon="-8.485439959913492">
        <ele>5.91</ele>
        <time>2025-05-06T08:46:45Z</time>
      </trkpt>
      <trkpt lat="38.363492963835597" lon="-8.485324960201979">
        <ele>6.39</ele>
        <time>2025-05-06T08:46:46Z</time>
      </trkpt>
      <trkpt lat="38.363348040729761" lon="-8.485208032652736">
        <ele>6.87</ele>
        <time>2025-05-06T08:46:47Z</time>
      </trkpt>
      <trkpt lat="38.363206973299384" lon="-8.485093032941222">
        <ele>6.87</ele>
        <time>2025-05-06T08:46:48Z</time>
      </trkpt>
      <trkpt lat="38.363100020214915" lon="-8.484907038509846">
        <ele>7.35</ele>
        <time>2025-05-06T08:46:49Z</time>
      </trkpt>
      <trkpt lat="38.362992983311415" lon="-8.484721966087818">
        <ele>7.35</ele>
        <time>2025-05-06T08:46:50Z</time>
      </trkpt>
      <trkpt lat="38.362884018570185" lon="-8.484531026333571">
        <ele>7.83</ele>
        <time>2025-05-06T08:46:51Z</time>
      </trkpt>
      <trkpt lat="38.362826015800238" lon="-8.484317036345601">
        <ele>8.310000000000001</ele>
        <time>2025-05-06T08:46:52Z</time>
      </trkpt>
      <trkpt lat="38.362772036343813" lon="-8.484116038307548">
        <ele>8.789999999999999</ele>
        <time>2025-05-06T08:46:53Z</time>
      </trkpt>
      <trkpt lat="38.362720990553498" lon="-8.483929038047791">
        <ele>8.789999999999999</ele>
        <time>2025-05-06T08:46:54Z</time>
      </trkpt>
      <trkpt lat="38.362308014184237" lon="-8.482072027400136">
        <ele>12.15</ele>
        <time>2025-05-06T08:47:05Z</time>
      </trkpt>
      <trkpt lat="38.361922027543187" lon="-8.480353988707066">
        <ele>14.08</ele>
        <time>2025-05-06T08:47:16Z</time>
      </trkpt>
      <trkpt lat="38.361698985099792" lon="-8.479389986023307">
        <ele>13.6</ele>
        <time>2025-05-06T08:47:22Z</time>
      </trkpt>
      <trkpt lat="38.361653974279761" lon="-8.479189993813634">
        <ele>13.6</ele>
        <time>2025-05-06T08:47:23Z</time>
      </trkpt>
      <trkpt lat="38.36143403314054" lon="-8.478370998054743">
        <ele>12.630000000000001</ele>
        <time>2025-05-06T08:47:27Z</time>
      </trkpt>
      <trkpt lat="38.361339988186955" lon="-8.478181986138225">
        <ele>12.630000000000001</ele>
        <time>2025-05-06T08:47:28Z</time>
      </trkpt>
      <trkpt lat="38.361206967383623" lon="-8.478041002526879">
        <ele>13.119999999999999</ele>
        <time>2025-05-06T08:47:29Z</time>
      </trkpt>
      <trkpt lat="38.361073024570942" lon="-8.477898007258773">
        <ele>13.6</ele>
        <time>2025-05-06T08:47:30Z</time>
      </trkpt>
      <trkpt lat="38.360930029302835" lon="-8.477768003940582">
        <ele>14.08</ele>
        <time>2025-05-06T08:47:31Z</time>
      </trkpt>
      <trkpt lat="38.360786028206348" lon="-8.477644035592675">
        <ele>15.039999999999999</ele>
        <time>2025-05-06T08:47:32Z</time>
      </trkpt>
      <trkpt lat="38.358993977308273" lon="-8.476035967469215">
        <ele>20.809999999999999</ele>
        <time>2025-05-06T08:47:44Z</time>
      </trkpt>
      <trkpt lat="38.357942970469594" lon="-8.475081017240882">
        <ele>24.649999999999999</ele>
        <time>2025-05-06T08:47:52Z</time>
      </trkpt>
      <trkpt lat="38.35758900269866" lon="-8.474655970931053">
        <ele>26.09</ele>
        <time>2025-05-06T08:47:55Z</time>
      </trkpt>
      <trkpt lat="38.357357997447252" lon="-8.474321030080319">
        <ele>27.530000000000001</ele>
        <time>2025-05-06T08:47:57Z</time>
      </trkpt>
      <trkpt lat="38.357222964987159" lon="-8.474166970700026">
        <ele>27.530000000000001</ele>
        <time>2025-05-06T08:47:58Z</time>
      </trkpt>
      <trkpt lat="38.357060020789504" lon="-8.474044008180499">
        <ele>27.530000000000001</ele>
        <time>2025-05-06T08:47:59Z</time>
      </trkpt>
      <trkpt lat="38.356597004458308" lon="-8.473635977134109">
        <ele>27.530000000000001</ele>
        <time>2025-05-06T08:48:02Z</time>
      </trkpt>
      <trkpt lat="38.356486028060317" lon="-8.473455011844635">
        <ele>27.530000000000001</ele>
        <time>2025-05-06T08:48:03Z</time>
      </trkpt>
      <trkpt lat="38.356374967843294" lon="-8.473260970786214">
        <ele>27.530000000000001</ele>
        <time>2025-05-06T08:48:04Z</time>
      </trkpt>
      <trkpt lat="38.355611963197589" lon="-8.471780978143215">
        <ele>27.530000000000001</ele>
        <time>2025-05-06T08:48:11Z</time>
      </trkpt>
      <trkpt lat="38.355476008728147" lon="-8.471630020067096">
        <ele>27.530000000000001</ele>
        <time>2025-05-06T08:48:12Z</time>
      </trkpt>
      <trkpt lat="38.355315998196602" lon="-8.47151099704206">
        <ele>27.050000000000001</ele>
        <time>2025-05-06T08:48:13Z</time>
      </trkpt>
      <trkpt lat="38.354986002668738" lon="-8.471266999840736">
        <ele>26.09</ele>
        <time>2025-05-06T08:48:15Z</time>
      </trkpt>
      <trkpt lat="38.353570969775319" lon="-8.470314983278513">
        <ele>21.77</ele>
        <time>2025-05-06T08:48:23Z</time>
      </trkpt>
      <trkpt lat="38.353391010314226" lon="-8.470195038244128">
        <ele>22.25</ele>
        <time>2025-05-06T08:48:24Z</time>
      </trkpt>
      <trkpt lat="38.353214990347624" lon="-8.470078026875854">
        <ele>22.25</ele>
        <time>2025-05-06T08:48:25Z</time>
      </trkpt>
      <trkpt lat="38.352217962965369" lon="-8.469348968937993">
        <ele>22.73</ele>
        <time>2025-05-06T08:48:31Z</time>
      </trkpt>
      <trkpt lat="38.352063987404108" lon="-8.469179989770055">
        <ele>22.73</ele>
        <time>2025-05-06T08:48:32Z</time>
      </trkpt>
      <trkpt lat="38.351919986307621" lon="-8.468990977853537">
        <ele>23.210000000000001</ele>
        <time>2025-05-06T08:48:33Z</time>
      </trkpt>
      <trkpt lat="38.351793000474572" lon="-8.468768019229174">
        <ele>22.73</ele>
        <time>2025-05-06T08:48:34Z</time>
      </trkpt>
      <trkpt lat="38.3516810182482" lon="-8.468542965129018">
        <ele>23.210000000000001</ele>
        <time>2025-05-06T08:48:35Z</time>
      </trkpt>
      <trkpt lat="38.351575993001461" lon="-8.468317994847894">
        <ele>24.170000000000002</ele>
        <time>2025-05-06T08:48:36Z</time>
      </trkpt>
      <trkpt lat="38.35103795863688" lon="-8.467126004397869">
        <ele>27.530000000000001</ele>
        <time>2025-05-06T08:48:41Z</time>
      </trkpt>
      <trkpt lat="38.35092999972403" lon="-8.466889970004559">
        <ele>28.02</ele>
        <time>2025-05-06T08:48:42Z</time>
      </trkpt>
      <trkpt lat="38.350106980651617" lon="-8.465103032067418">
        <ele>31.859999999999999</ele>
        <time>2025-05-06T08:48:49Z</time>
      </trkpt>
      <trkpt lat="38.349363002926111" lon="-8.463477026671171">
        <ele>38.109999999999999</ele>
        <time>2025-05-06T08:48:56Z</time>
      </trkpt>
      <trkpt lat="38.34835197776556" lon="-8.461287003010511">
        <ele>45.799999999999997</ele>
        <time>2025-05-06T08:49:05Z</time>
      </trkpt>
      <trkpt lat="38.34824301302433" lon="-8.461049040779471">
        <ele>46.280000000000001</ele>
        <time>2025-05-06T08:49:06Z</time>
      </trkpt>
      <trkpt lat="38.348134970292449" lon="-8.460814012214541">
        <ele>46.759999999999998</ele>
        <time>2025-05-06T08:49:07Z</time>
      </trkpt>
      <trkpt lat="38.347074994817376" lon="-8.458506977185607">
        <ele>57.82</ele>
        <time>2025-05-06T08:49:17Z</time>
      </trkpt>
      <trkpt lat="38.346306039020419" lon="-8.456832021474838">
        <ele>58.780000000000001</ele>
        <time>2025-05-06T08:49:24Z</time>
      </trkpt>
      <trkpt lat="38.345611011609435" lon="-8.455319004133344">
        <ele>60.700000000000003</ele>
        <time>2025-05-06T08:49:31Z</time>
      </trkpt>
      <trkpt lat="38.344792015850544" lon="-8.453536005690694">
        <ele>65.989999999999995</ele>
        <time>2025-05-06T08:49:39Z</time>
      </trkpt>
      <trkpt lat="38.343980982899666" lon="-8.451769016683102">
        <ele>71.269999999999996</ele>
        <time>2025-05-06T08:49:47Z</time>
      </trkpt>
      <trkpt lat="38.343916023150086" lon="-8.451625015586615">
        <ele>72.239999999999995</ele>
        <time>2025-05-06T08:49:48Z</time>
      </trkpt>
      <trkpt lat="38.343797000125051" lon="-8.451359979808331">
        <ele>73.200000000000003</ele>
        <time>2025-05-06T08:49:51Z</time>
      </trkpt>
      <trkpt lat="38.343788031488657" lon="-8.451340030878782">
        <ele>73.680000000000007</ele>
        <time>2025-05-06T08:49:52Z</time>
      </trkpt>
      <trkpt lat="38.343788031488657" lon="-8.451340030878782">
        <ele>74.640000000000001</ele>
        <time>2025-05-06T08:50:07Z</time>
      </trkpt>
      <trkpt lat="38.343699015676975" lon="-8.451153030619025">
        <ele>77.519999999999996</ele>
        <time>2025-05-06T08:50:29Z</time>
      </trkpt>
      <trkpt lat="38.343306994065642" lon="-8.450324982404709">
        <ele>81.370000000000005</ele>
        <time>2025-05-06T08:50:34Z</time>
      </trkpt>
      <trkpt lat="38.342375010251999" lon="-8.448771983385086">
        <ele>85.209999999999994</ele>
        <time>2025-05-06T08:50:41Z</time>
      </trkpt>
      <trkpt lat="38.341186959296465" lon="-8.446990996599197">
        <ele>90.5</ele>
        <time>2025-05-06T08:50:48Z</time>
      </trkpt>
      <trkpt lat="38.33973697386682" lon="-8.444814970716834">
        <ele>98.189999999999998</ele>
        <time>2025-05-06T08:50:57Z</time>
      </trkpt>
      <trkpt lat="38.339461041614413" lon="-8.444421021267772">
        <ele>99.150000000000006</ele>
        <time>2025-05-06T08:50:59Z</time>
      </trkpt>
      <trkpt lat="38.339313017204404" lon="-8.444257993251085">
        <ele>99.629999999999995</ele>
        <time>2025-05-06T08:51:00Z</time>
      </trkpt>
      <trkpt lat="38.339150995016098" lon="-8.444103011861444">
        <ele>99.629999999999995</ele>
        <time>2025-05-06T08:51:01Z</time>
      </trkpt>
      <trkpt lat="38.33896198309958" lon="-8.443987006321549">
        <ele>99.629999999999995</ele>
        <time>2025-05-06T08:51:02Z</time>
      </trkpt>
      <trkpt lat="38.338780011981726" lon="-8.443875024095178">
        <ele>99.629999999999995</ele>
        <time>2025-05-06T08:51:03Z</time>
      </trkpt>
      <trkpt lat="38.337719030678272" lon="-8.443247973918915">
        <ele>101.56</ele>
        <time>2025-05-06T08:51:10Z</time>
      </trkpt>
      <trkpt lat="38.336867010220885" lon="-8.442771965637803">
        <ele>102.04000000000001</ele>
        <time>2025-05-06T08:51:18Z</time>
      </trkpt>
      <trkpt lat="38.335990011692047" lon="-8.442294029518962">
        <ele>103.48</ele>
        <time>2025-05-06T08:51:26Z</time>
      </trkpt>
      <trkpt lat="38.33485702984035" lon="-8.441665973514319">
        <ele>102.52</ele>
        <time>2025-05-06T08:51:33Z</time>
      </trkpt>
      <trkpt lat="38.333966033533216" lon="-8.441220978274941">
        <ele>101.56</ele>
        <time>2025-05-06T08:51:40Z</time>
      </trkpt>
      <trkpt lat="38.332531973719597" lon="-8.440926019102335">
        <ele>101.08</ele>
        <time>2025-05-06T08:51:49Z</time>
      </trkpt>
      <trkpt lat="38.331335037946701" lon="-8.440681016072631">
        <ele>101.56</ele>
        <time>2025-05-06T08:51:57Z</time>
      </trkpt>
      <trkpt lat="38.330009020864964" lon="-8.440409023314714">
        <ele>100.11</ele>
        <time>2025-05-06T08:52:06Z</time>
      </trkpt>
      <trkpt lat="38.328877966850996" lon="-8.440179023891687">
        <ele>95.310000000000002</ele>
        <time>2025-05-06T08:52:13Z</time>
      </trkpt>
      <trkpt lat="38.327280040830374" lon="-8.439859002828598">
        <ele>90.980000000000004</ele>
        <time>2025-05-06T08:52:22Z</time>
      </trkpt>
      <trkpt lat="38.325917981564999" lon="-8.439575023949146">
        <ele>88.099999999999994</ele>
        <time>2025-05-06T08:52:30Z</time>
      </trkpt>
      <trkpt lat="38.325301995500922" lon="-8.439440997317433">
        <ele>86.659999999999997</ele>
        <time>2025-05-06T08:52:35Z</time>
      </trkpt>
      <trkpt lat="38.325249021872878" lon="-8.439429011195898">
        <ele>86.180000000000007</ele>
        <time>2025-05-06T08:52:36Z</time>
      </trkpt>
      <trkpt lat="38.325214991346002" lon="-8.439421970397234">
        <ele>85.689999999999998</ele>
        <time>2025-05-06T08:52:37Z</time>
      </trkpt>
      <trkpt lat="38.325162017717957" lon="-8.439409984275699">
        <ele>84.730000000000004</ele>
        <time>2025-05-06T08:52:40Z</time>
      </trkpt>
      <trkpt lat="38.325139973312616" lon="-8.439406966790557">
        <ele>84.25</ele>
        <time>2025-05-06T08:52:42Z</time>
      </trkpt>
      <trkpt lat="38.325046012178063" lon="-8.439405960962176">
        <ele>81.849999999999994</ele>
        <time>2025-05-06T09:05:01Z</time>
      </trkpt>
      <trkpt lat="38.3251269813627" lon="-8.439445020630956">
        <ele>91.939999999999998</ele>
        <time>2025-05-06T09:05:50Z</time>
      </trkpt>
      <trkpt lat="38.325107032433152" lon="-8.439463963732123">
        <ele>84.730000000000004</ele>
        <time>2025-05-06T09:06:34Z</time>
      </trkpt>
      <trkpt lat="38.325054980814457" lon="-8.439396992325783">
        <ele>85.689999999999998</ele>
        <time>2025-05-06T09:07:07Z</time>
      </trkpt>
      <trkpt lat="38.324988009408116" lon="-8.439388023689389">
        <ele>85.209999999999994</ele>
        <time>2025-05-06T09:07:08Z</time>
      </trkpt>
      <trkpt lat="38.324274960905313" lon="-8.439226001501083">
        <ele>83.769999999999996</ele>
        <time>2025-05-06T09:07:15Z</time>
      </trkpt>
      <trkpt lat="38.323597032576799" lon="-8.439151989296079">
        <ele>83.290000000000006</ele>
        <time>2025-05-06T09:07:20Z</time>
      </trkpt>
      <trkpt lat="38.323149019852281" lon="-8.439183002337813">
        <ele>82.810000000000002</ele>
        <time>2025-05-06T09:07:23Z</time>
      </trkpt>
      <trkpt lat="38.322989009320736" lon="-8.439194988459349">
        <ele>82.329999999999998</ele>
        <time>2025-05-06T09:07:24Z</time>
      </trkpt>
      <trkpt lat="38.321696016937494" lon="-8.439275035634637">
        <ele>78.969999999999999</ele>
        <time>2025-05-06T09:07:31Z</time>
      </trkpt>
      <trkpt lat="38.321287985891104" lon="-8.43930303119123">
        <ele>78</ele>
        <time>2025-05-06T09:07:33Z</time>
      </trkpt>
      <trkpt lat="38.321094028651714" lon="-8.439316023141146">
        <ele>77.040000000000006</ele>
        <time>2025-05-06T09:07:34Z</time>
      </trkpt>
      <trkpt lat="38.320904010906816" lon="-8.439329015091062">
        <ele>75.599999999999994</ele>
        <time>2025-05-06T09:07:35Z</time>
      </trkpt>
      <trkpt lat="38.320717010647058" lon="-8.439341001212597">
        <ele>74.640000000000001</ele>
        <time>2025-05-06T09:07:36Z</time>
      </trkpt>
      <trkpt lat="38.320533027872443" lon="-8.439353993162513">
        <ele>73.680000000000007</ele>
        <time>2025-05-06T09:07:37Z</time>
      </trkpt>
      <trkpt lat="38.320348961278796" lon="-8.439365979284048">
        <ele>72.239999999999995</ele>
        <time>2025-05-06T09:07:38Z</time>
      </trkpt>
      <trkpt lat="38.318435959517956" lon="-8.439466981217265">
        <ele>61.18</ele>
        <time>2025-05-06T09:07:48Z</time>
      </trkpt>
      <trkpt lat="38.31810001283884" lon="-8.439457006752491">
        <ele>59.740000000000002</ele>
        <time>2025-05-06T09:07:50Z</time>
      </trkpt>
      <trkpt lat="38.317932961508632" lon="-8.439416019245982">
        <ele>59.259999999999998</ele>
        <time>2025-05-06T09:07:51Z</time>
      </trkpt>
      <trkpt lat="38.317761970683932" lon="-8.439361033961177">
        <ele>58.299999999999997</ele>
        <time>2025-05-06T09:07:52Z</time>
      </trkpt>
      <trkpt lat="38.317591985687613" lon="-8.43928400427103">
        <ele>57.340000000000003</ele>
        <time>2025-05-06T09:07:53Z</time>
      </trkpt>
      <trkpt lat="38.317419989034534" lon="-8.439206974580884">
        <ele>56.859999999999999</ele>
        <time>2025-05-06T09:07:54Z</time>
      </trkpt>
      <trkpt lat="38.316261023283005" lon="-8.438672041520476">
        <ele>52.049999999999997</ele>
        <time>2025-05-06T09:08:00Z</time>
      </trkpt>
      <trkpt lat="38.315497012808919" lon="-8.438245989382267">
        <ele>46.759999999999998</ele>
        <time>2025-05-06T09:08:04Z</time>
      </trkpt>
      <trkpt lat="38.31425397656858" lon="-8.437147960066795">
        <ele>35.710000000000001</ele>
        <time>2025-05-06T09:08:11Z</time>
      </trkpt>
      <trkpt lat="38.312973976135254" lon="-8.435854967683554">
        <ele>25.609999999999999</ele>
        <time>2025-05-06T09:08:19Z</time>
      </trkpt>
      <trkpt lat="38.312884038314223" lon="-8.435714989900589">
        <ele>25.129999999999999</ele>
        <time>2025-05-06T09:08:20Z</time>
      </trkpt>
      <trkpt lat="38.312820000573993" lon="-8.435550034046173">
        <ele>24.649999999999999</ele>
        <time>2025-05-06T09:08:21Z</time>
      </trkpt>
      <trkpt lat="38.312798961997032" lon="-8.435380971059203">
        <ele>24.170000000000002</ele>
        <time>2025-05-06T09:08:22Z</time>
      </trkpt>
      <trkpt lat="38.312794016674161" lon="-8.435197994112968">
        <ele>24.649999999999999</ele>
        <time>2025-05-06T09:08:23Z</time>
      </trkpt>
      <trkpt lat="38.312788987532258" lon="-8.434996996074915">
        <ele>24.170000000000002</ele>
        <time>2025-05-06T09:08:24Z</time>
      </trkpt>
      <trkpt lat="38.312783036381006" lon="-8.434786023572087">
        <ele>24.170000000000002</ele>
        <time>2025-05-06T09:08:25Z</time>
      </trkpt>
      <trkpt lat="38.312723021954298" lon="-8.434573039412499">
        <ele>24.170000000000002</ele>
        <time>2025-05-06T09:08:26Z</time>
      </trkpt>
      <trkpt lat="38.312634006142616" lon="-8.434361983090639">
        <ele>24.170000000000002</ele>
        <time>2025-05-06T09:08:27Z</time>
      </trkpt>
      <trkpt lat="38.312544990330935" lon="-8.434153022244573">
        <ele>24.170000000000002</ele>
        <time>2025-05-06T09:08:28Z</time>
      </trkpt>
      <trkpt lat="38.312436025589705" lon="-8.433961998671293">
        <ele>24.649999999999999</ele>
        <time>2025-05-06T09:08:29Z</time>
      </trkpt>
      <trkpt lat="38.312103012576699" lon="-8.433368979021907">
        <ele>24.170000000000002</ele>
        <time>2025-05-06T09:08:32Z</time>
      </trkpt>
      <trkpt lat="38.312035035341978" lon="-8.433154989033938">
        <ele>24.170000000000002</ele>
        <time>2025-05-06T09:08:33Z</time>
      </trkpt>
      <trkpt lat="38.311986001208425" lon="-8.432942004874349">
        <ele>23.690000000000001</ele>
        <time>2025-05-06T09:08:34Z</time>
      </trkpt>
      <trkpt lat="38.311946019530296" lon="-8.432732038199902">
        <ele>22.73</ele>
        <time>2025-05-06T09:08:35Z</time>
      </trkpt>
      <trkpt lat="38.311894973739982" lon="-8.432531040161848">
        <ele>22.25</ele>
        <time>2025-05-06T09:08:36Z</time>
      </trkpt>
      <trkpt lat="38.311816016212106" lon="-8.432349991053343">
        <ele>21.289999999999999</ele>
        <time>2025-05-06T09:08:37Z</time>
      </trkpt>
      <trkpt lat="38.311691964045167" lon="-8.43223599717021">
        <ele>20.809999999999999</ele>
        <time>2025-05-06T09:08:38Z</time>
      </trkpt>
      <trkpt lat="38.311555003747344" lon="-8.432174976915121">
        <ele>20.32</ele>
        <time>2025-05-06T09:08:39Z</time>
      </trkpt>
      <trkpt lat="38.311411002650857" lon="-8.432143041864038">
        <ele>19.359999999999999</ele>
        <time>2025-05-06T09:08:40Z</time>
      </trkpt>
      <trkpt lat="38.311257027089596" lon="-8.432122003287077">
        <ele>18.879999999999999</ele>
        <time>2025-05-06T09:08:41Z</time>
      </trkpt>
      <trkpt lat="38.310976987704635" lon="-8.432082021608949">
        <ele>16.960000000000001</ele>
        <time>2025-05-06T09:08:43Z</time>
      </trkpt>
      <trkpt lat="38.310876991599798" lon="-8.432027958333492">
        <ele>16</ele>
        <time>2025-05-06T09:08:44Z</time>
      </trkpt>
      <trkpt lat="38.310809014365077" lon="-8.431951012462378">
        <ele>14.56</ele>
        <time>2025-05-06T09:08:45Z</time>
      </trkpt>
      <trkpt lat="38.310756040737033" lon="-8.431860990822315">
        <ele>13.6</ele>
        <time>2025-05-06T09:08:46Z</time>
      </trkpt>
      <trkpt lat="38.310729973018169" lon="-8.431744985282421">
        <ele>12.630000000000001</ele>
        <time>2025-05-06T09:08:47Z</time>
      </trkpt>
      <trkpt lat="38.310702983289957" lon="-8.431623028591275">
        <ele>12.15</ele>
        <time>2025-05-06T09:08:48Z</time>
      </trkpt>
      <trkpt lat="38.310657972469926" lon="-8.431498976424336">
        <ele>11.67</ele>
        <time>2025-05-06T09:08:49Z</time>
      </trkpt>
      <trkpt lat="38.310555964708328" lon="-8.431425970047712">
        <ele>11.19</ele>
        <time>2025-05-06T09:08:50Z</time>
      </trkpt>
      <trkpt lat="38.310425039380789" lon="-8.431395040825009">
        <ele>11.19</ele>
        <time>2025-05-06T09:08:51Z</time>
      </trkpt>
      <trkpt lat="38.310284977778792" lon="-8.431379031389952">
        <ele>11.19</ele>
        <time>2025-05-06T09:08:52Z</time>
      </trkpt>
      <trkpt lat="38.309791032224894" lon="-8.431302001699805">
        <ele>11.19</ele>
        <time>2025-05-06T09:08:55Z</time>
      </trkpt>
      <trkpt lat="38.309629010036588" lon="-8.431262020021677">
        <ele>12.15</ele>
        <time>2025-05-06T09:08:56Z</time>
      </trkpt>
      <trkpt lat="38.309501018375158" lon="-8.43116101808846">
        <ele>12.630000000000001</ele>
        <time>2025-05-06T09:08:57Z</time>
      </trkpt>
      <trkpt lat="38.30937696620822" lon="-8.431046018376946">
        <ele>13.6</ele>
        <time>2025-05-06T09:08:58Z</time>
      </trkpt>
      <trkpt lat="38.309276970103383" lon="-8.430895982310176">
        <ele>14.08</ele>
        <time>2025-05-06T09:08:59Z</time>
      </trkpt>
      <trkpt lat="38.309180997312069" lon="-8.430727003142238">
        <ele>14.56</ele>
        <time>2025-05-06T09:09:00Z</time>
      </trkpt>
      <trkpt lat="38.309116959571838" lon="-8.430529022589326">
        <ele>15.52</ele>
        <time>2025-05-06T09:09:01Z</time>
      </trkpt>
      <trkpt lat="38.309049988165498" lon="-8.430317966267467">
        <ele>16</ele>
        <time>2025-05-06T09:09:02Z</time>
      </trkpt>
      <trkpt lat="38.308414975181222" lon="-8.428338998928666">
        <ele>23.690000000000001</ele>
        <time>2025-05-06T09:09:11Z</time>
      </trkpt>
      <trkpt lat="38.308188999071717" lon="-8.427651012316346">
        <ele>26.09</ele>
        <time>2025-05-06T09:09:14Z</time>
      </trkpt>
      <trkpt lat="38.307425994426012" lon="-8.426438989117742">
        <ele>30.420000000000002</ele>
        <time>2025-05-06T09:09:20Z</time>
      </trkpt>
      <trkpt lat="38.306965995579958" lon="-8.425688976421952">
        <ele>31.859999999999999</ele>
        <time>2025-05-06T09:09:24Z</time>
      </trkpt>
      <trkpt lat="38.306877985596657" lon="-8.425488984212279">
        <ele>32.82</ele>
        <time>2025-05-06T09:09:25Z</time>
      </trkpt>
      <trkpt lat="38.306835992261767" lon="-8.42525496147573">
        <ele>33.780000000000001</ele>
        <time>2025-05-06T09:09:26Z</time>
      </trkpt>
      <trkpt lat="38.306546984240413" lon="-8.423122018575668">
        <ele>42.920000000000002</ele>
        <time>2025-05-06T09:09:34Z</time>
      </trkpt>
      <trkpt lat="38.306225035339594" lon="-8.421280011534691">
        <ele>53.009999999999998</ele>
        <time>2025-05-06T09:09:41Z</time>
      </trkpt>
      <trkpt lat="38.30611003562808" lon="-8.421095022931695">
        <ele>53.969999999999999</ele>
        <time>2025-05-06T09:09:42Z</time>
      </trkpt>
      <trkpt lat="38.304975964128971" lon="-8.41940900310874">
        <ele>60.700000000000003</ele>
        <time>2025-05-06T09:09:50Z</time>
      </trkpt>
      <trkpt lat="38.304008021950722" lon="-8.418002016842365">
        <ele>67.430000000000007</ele>
        <time>2025-05-06T09:09:57Z</time>
      </trkpt>
      <trkpt lat="38.303902996703982" lon="-8.417821973562241">
        <ele>67.909999999999997</ele>
        <time>2025-05-06T09:09:58Z</time>
      </trkpt>
      <trkpt lat="38.303825967013836" lon="-8.417618041858077">
        <ele>68.870000000000005</ele>
        <time>2025-05-06T09:09:59Z</time>
      </trkpt>
      <trkpt lat="38.303786991164088" lon="-8.417402962222695">
        <ele>69.349999999999994</ele>
        <time>2025-05-06T09:10:00Z</time>
      </trkpt>
      <trkpt lat="38.303780034184456" lon="-8.417159970849752">
        <ele>69.829999999999998</ele>
        <time>2025-05-06T09:10:01Z</time>
      </trkpt>
      <trkpt lat="38.303771987557411" lon="-8.416900970041752">
        <ele>70.310000000000002</ele>
        <time>2025-05-06T09:10:02Z</time>
      </trkpt>
      <trkpt lat="38.303748015314341" lon="-8.414957961067557">
        <ele>76.079999999999998</ele>
        <time>2025-05-06T09:10:09Z</time>
      </trkpt>
      <trkpt lat="38.303748015314341" lon="-8.414692003279924">
        <ele>77.040000000000006</ele>
        <time>2025-05-06T09:10:10Z</time>
      </trkpt>
      <trkpt lat="38.303708033636212" lon="-8.412486976012588">
        <ele>79.450000000000003</ele>
        <time>2025-05-06T09:10:18Z</time>
      </trkpt>
      <trkpt lat="38.303691018372774" lon="-8.41064496897161">
        <ele>80.890000000000001</ele>
        <time>2025-05-06T09:10:25Z</time>
      </trkpt>
      <trkpt lat="38.303944990038872" lon="-8.408613028004766">
        <ele>80.409999999999997</ele>
        <time>2025-05-06T09:10:33Z</time>
      </trkpt>
      <trkpt lat="38.304008021950722" lon="-8.40791598893702">
        <ele>80.409999999999997</ele>
        <time>2025-05-06T09:10:36Z</time>
      </trkpt>
      <trkpt lat="38.303953036665916" lon="-8.407738041132689">
        <ele>79.930000000000007</ele>
        <time>2025-05-06T09:10:37Z</time>
      </trkpt>
      <trkpt lat="38.303877012804151" lon="-8.407590016722679">
        <ele>79.450000000000003</ele>
        <time>2025-05-06T09:10:38Z</time>
      </trkpt>
      <trkpt lat="38.303752960637212" lon="-8.407469987869263">
        <ele>79.450000000000003</ele>
        <time>2025-05-06T09:10:39Z</time>
      </trkpt>
      <trkpt lat="38.303616000339389" lon="-8.407337972894311">
        <ele>78.969999999999999</ele>
        <time>2025-05-06T09:10:40Z</time>
      </trkpt>
      <trkpt lat="38.30346898175776" lon="-8.407194977626205">
        <ele>78.969999999999999</ele>
        <time>2025-05-06T09:10:41Z</time>
      </trkpt>
      <trkpt lat="38.302365001291037" lon="-8.406126033514738">
        <ele>74.640000000000001</ele>
        <time>2025-05-06T09:10:48Z</time>
      </trkpt>
      <trkpt lat="38.30114702694118" lon="-8.405035967007279">
        <ele>67.909999999999997</ele>
        <time>2025-05-06T09:10:56Z</time>
      </trkpt>
      <trkpt lat="38.301038984209299" lon="-8.404949968680739">
        <ele>66.950000000000003</ele>
        <time>2025-05-06T09:10:57Z</time>
      </trkpt>
      <trkpt lat="38.300919961184263" lon="-8.404865982010961">
        <ele>65.989999999999995</ele>
        <time>2025-05-06T09:10:58Z</time>
      </trkpt>
      <trkpt lat="38.299854034557939" lon="-8.404517965391278">
        <ele>62.619999999999997</ele>
        <time>2025-05-06T09:11:04Z</time>
      </trkpt>
      <trkpt lat="38.297956958413124" lon="-8.404310010373592">
        <ele>65.030000000000001</ele>
        <time>2025-05-06T09:11:13Z</time>
      </trkpt>
      <trkpt lat="38.297749003395438" lon="-8.404329037293792">
        <ele>65.030000000000001</ele>
        <time>2025-05-06T09:11:14Z</time>
      </trkpt>
      <trkpt lat="38.297545993700624" lon="-8.40439198538661">
        <ele>65.030000000000001</ele>
        <time>2025-05-06T09:11:15Z</time>
      </trkpt>
      <trkpt lat="38.296083016321063" lon="-8.405072009190917">
        <ele>61.659999999999997</ele>
        <time>2025-05-06T09:11:22Z</time>
      </trkpt>
      <trkpt lat="38.295400980859995" lon="-8.405398987233639">
        <ele>60.700000000000003</ele>
        <time>2025-05-06T09:11:26Z</time>
      </trkpt>
      <trkpt lat="38.295278018340468" lon="-8.405389012768865">
        <ele>60.219999999999999</ele>
        <time>2025-05-06T09:11:27Z</time>
      </trkpt>
      <trkpt lat="38.295169975608587" lon="-8.405379960313439">
        <ele>59.740000000000002</ele>
        <time>2025-05-06T09:11:28Z</time>
      </trkpt>
      <trkpt lat="38.295081965625286" lon="-8.405302008613944">
        <ele>58.780000000000001</ele>
        <time>2025-05-06T09:11:29Z</time>
      </trkpt>
      <trkpt lat="38.294990016147494" lon="-8.405189020559192">
        <ele>57.82</ele>
        <time>2025-05-06T09:11:30Z</time>
      </trkpt>
      <trkpt lat="38.294883985072374" lon="-8.40505700558424">
        <ele>56.859999999999999</ele>
        <time>2025-05-06T09:11:31Z</time>
      </trkpt>
      <trkpt lat="38.294625990092754" lon="-8.404761040583253">
        <ele>54.93</ele>
        <time>2025-05-06T09:11:33Z</time>
      </trkpt>
      <trkpt lat="38.294467991217971" lon="-8.404617039486766">
        <ele>53.969999999999999</ele>
        <time>2025-05-06T09:11:34Z</time>
      </trkpt>
      <trkpt lat="38.293901039287448" lon="-8.404216971248388">
        <ele>51.090000000000003</ele>
        <time>2025-05-06T09:11:37Z</time>
      </trkpt>
      <trkpt lat="38.292461028322577" lon="-8.403585981577635">
        <ele>43.399999999999999</ele>
        <time>2025-05-06T09:11:43Z</time>
      </trkpt>
      <trkpt lat="38.291344977915287" lon="-8.403275012969971">
        <ele>37.149999999999999</ele>
        <time>2025-05-06T09:11:48Z</time>
      </trkpt>
      <trkpt lat="38.291184967383742" lon="-8.403275012969971">
        <ele>36.189999999999998</ele>
        <time>2025-05-06T09:11:49Z</time>
      </trkpt>
      <trkpt lat="38.291056975722313" lon="-8.403355982154608">
        <ele>34.740000000000002</ele>
        <time>2025-05-06T09:11:50Z</time>
      </trkpt>
      <trkpt lat="38.290928984060884" lon="-8.403443992137909">
        <ele>33.780000000000001</ele>
        <time>2025-05-06T09:11:51Z</time>
      </trkpt>
      <trkpt lat="38.290814990177751" lon="-8.403555974364281">
        <ele>31.859999999999999</ele>
        <time>2025-05-06T09:11:52Z</time>
      </trkpt>
      <trkpt lat="38.290129015222192" lon="-8.40426198206842">
        <ele>24.649999999999999</ele>
        <time>2025-05-06T09:11:57Z</time>
      </trkpt>
      <trkpt lat="38.28997403383255" lon="-8.404352003708482">
        <ele>23.690000000000001</ele>
        <time>2025-05-06T09:11:58Z</time>
      </trkpt>
      <trkpt lat="38.289806982502341" lon="-8.404385028406978">
        <ele>22.25</ele>
        <time>2025-05-06T09:11:59Z</time>
      </trkpt>
      <trkpt lat="38.289628028869629" lon="-8.40441201813519">
        <ele>21.289999999999999</ele>
        <time>2025-05-06T09:12:00Z</time>
      </trkpt>
      <trkpt lat="38.289431976154447" lon="-8.40441201813519">
        <ele>20.32</ele>
        <time>2025-05-06T09:12:01Z</time>
      </trkpt>
      <trkpt lat="38.289226032793522" lon="-8.404418975114822">
        <ele>19.359999999999999</ele>
        <time>2025-05-06T09:12:02Z</time>
      </trkpt>
      <trkpt lat="38.289024028927088" lon="-8.404428027570248">
        <ele>18.399999999999999</ele>
        <time>2025-05-06T09:12:03Z</time>
      </trkpt>
      <trkpt lat="38.288827976211905" lon="-8.404459962621331">
        <ele>17.440000000000001</ele>
        <time>2025-05-06T09:12:04Z</time>
      </trkpt>
      <trkpt lat="38.288637958467007" lon="-8.404531963169575">
        <ele>16.48</ele>
        <time>2025-05-06T09:12:05Z</time>
      </trkpt>
      <trkpt lat="38.288465039804578" lon="-8.404597006738186">
        <ele>15.52</ele>
        <time>2025-05-06T09:12:06Z</time>
      </trkpt>
      <trkpt lat="38.288306035101414" lon="-8.404658026993275">
        <ele>14.56</ele>
        <time>2025-05-06T09:12:07Z</time>
      </trkpt>
      <trkpt lat="38.287895992398262" lon="-8.404791969805956">
        <ele>11.67</ele>
        <time>2025-05-06T09:12:10Z</time>
      </trkpt>
      <trkpt lat="38.287775041535497" lon="-8.404830023646355">
        <ele>10.710000000000001</ele>
        <time>2025-05-06T09:12:11Z</time>
      </trkpt>
      <trkpt lat="38.287660963833332" lon="-8.404815020039678">
        <ele>9.75</ele>
        <time>2025-05-06T09:12:12Z</time>
      </trkpt>
      <trkpt lat="38.287551999092102" lon="-8.404738996177912">
        <ele>9.27</ele>
        <time>2025-05-06T09:12:13Z</time>
      </trkpt>
      <trkpt lat="38.287435993552208" lon="-8.404622990638018">
        <ele>8.789999999999999</ele>
        <time>2025-05-06T09:12:14Z</time>
      </trkpt>
      <trkpt lat="38.287306996062398" lon="-8.404489969834685">
        <ele>8.310000000000001</ele>
        <time>2025-05-06T09:12:15Z</time>
      </trkpt>
      <trkpt lat="38.286371994763613" lon="-8.40342597104609">
        <ele>5.91</ele>
        <time>2025-05-06T09:12:21Z</time>
      </trkpt>
      <trkpt lat="38.284782031551003" lon="-8.401601985096932">
        <ele>3.98</ele>
        <time>2025-05-06T09:12:31Z</time>
      </trkpt>
      <trkpt lat="38.283733036369085" lon="-8.400418041273952">
        <ele>6.39</ele>
        <time>2025-05-06T09:12:39Z</time>
      </trkpt>
      <trkpt lat="38.282640036195517" lon="-8.399169975891709">
        <ele>11.67</ele>
        <time>2025-05-06T09:12:47Z</time>
      </trkpt>
      <trkpt lat="38.281171023845673" lon="-8.397509017959237">
        <ele>17.440000000000001</ele>
        <time>2025-05-06T09:12:56Z</time>
      </trkpt>
      <trkpt lat="38.279882976785302" lon="-8.396037993952632">
        <ele>18.399999999999999</ele>
        <time>2025-05-06T09:13:04Z</time>
      </trkpt>
      <trkpt lat="38.278324026614428" lon="-8.394193975254893">
        <ele>16.48</ele>
        <time>2025-05-06T09:13:14Z</time>
      </trkpt>
      <trkpt lat="38.278211960569024" lon="-8.394006974995136">
        <ele>16</ele>
        <time>2025-05-06T09:13:15Z</time>
      </trkpt>
      <trkpt lat="38.278142977505922" lon="-8.393802037462592">
        <ele>16</ele>
        <time>2025-05-06T09:13:16Z</time>
      </trkpt>
      <trkpt lat="38.278106013312936" lon="-8.393575977534056">
        <ele>15.52</ele>
        <time>2025-05-06T09:13:17Z</time>
      </trkpt>
      <trkpt lat="38.278106013312936" lon="-8.393356036394835">
        <ele>15.039999999999999</ele>
        <time>2025-05-06T09:13:18Z</time>
      </trkpt>
      <trkpt lat="38.278151024132967" lon="-8.393116984516382">
        <ele>14.08</ele>
        <time>2025-05-06T09:13:19Z</time>
      </trkpt>
      <trkpt lat="38.278207015246153" lon="-8.392862007021904">
        <ele>13.6</ele>
        <time>2025-05-06T09:13:20Z</time>
      </trkpt>
      <trkpt lat="38.278628960251808" lon="-8.390621021389961">
        <ele>8.310000000000001</ele>
        <time>2025-05-06T09:13:28Z</time>
      </trkpt>
      <trkpt lat="38.279089964926243" lon="-8.388002011924982">
        <ele>5.42</ele>
        <time>2025-05-06T09:13:37Z</time>
      </trkpt>
      <trkpt lat="38.279205970466137" lon="-8.386143995448947">
        <ele>6.39</ele>
        <time>2025-05-06T09:13:44Z</time>
      </trkpt>
      <trkpt lat="38.279134975746274" lon="-8.384594013914466">
        <ele>8.789999999999999</ele>
        <time>2025-05-06T09:13:52Z</time>
      </trkpt>
      <trkpt lat="38.279058029875159" lon="-8.382829036563635">
        <ele>9.27</ele>
        <time>2025-05-06T09:14:02Z</time>
      </trkpt>
      <trkpt lat="38.278935989364982" lon="-8.381206970661879">
        <ele>9.27</ele>
        <time>2025-05-06T09:14:09Z</time>
      </trkpt>
      <trkpt lat="38.278887961059809" lon="-8.380948975682259">
        <ele>9.27</ele>
        <time>2025-05-06T09:14:10Z</time>
      </trkpt>
      <trkpt lat="38.278801962733269" lon="-8.380699027329683">
        <ele>9.75</ele>
        <time>2025-05-06T09:14:11Z</time>
      </trkpt>
      <trkpt lat="38.278052033856511" lon="-8.378774961456657">
        <ele>12.630000000000001</ele>
        <time>2025-05-06T09:14:18Z</time>
      </trkpt>
      <trkpt lat="38.277258016169071" lon="-8.377238977700472">
        <ele>14.08</ele>
        <time>2025-05-06T09:14:24Z</time>
      </trkpt>
      <trkpt lat="38.277088031172752" lon="-8.377045020461083">
        <ele>14.08</ele>
        <time>2025-05-06T09:14:25Z</time>
      </trkpt>
      <trkpt lat="38.276911005377769" lon="-8.376866988837719">
        <ele>14.08</ele>
        <time>2025-05-06T09:14:26Z</time>
      </trkpt>
      <trkpt lat="38.276715958490968" lon="-8.376724999397993">
        <ele>14.08</ele>
        <time>2025-05-06T09:14:27Z</time>
      </trkpt>
      <trkpt lat="38.276506997644901" lon="-8.376604970544577">
        <ele>13.6</ele>
        <time>2025-05-06T09:14:28Z</time>
      </trkpt>
      <trkpt lat="38.276292001828551" lon="-8.37648100219667">
        <ele>13.119999999999999</ele>
        <time>2025-05-06T09:14:29Z</time>
      </trkpt>
      <trkpt lat="38.274660967290401" lon="-8.37551498785615">
        <ele>9.27</ele>
        <time>2025-05-06T09:14:37Z</time>
      </trkpt>
      <trkpt lat="38.274401966482401" lon="-8.375311978161335">
        <ele>8.310000000000001</ele>
        <time>2025-05-06T09:14:39Z</time>
      </trkpt>
      <trkpt lat="38.27431202866137" lon="-8.375190021470189">
        <ele>8.310000000000001</ele>
        <time>2025-05-06T09:14:40Z</time>
      </trkpt>
      <trkpt lat="38.274234998971224" lon="-8.375015007331967">
        <ele>7.83</ele>
        <time>2025-05-06T09:14:41Z</time>
      </trkpt>
      <trkpt lat="38.274168027564883" lon="-8.374831024557352">
        <ele>7.35</ele>
        <time>2025-05-06T09:14:42Z</time>
      </trkpt>
      <trkpt lat="38.274122010916471" lon="-8.374603036791086">
        <ele>7.35</ele>
        <time>2025-05-06T09:14:43Z</time>
      </trkpt>
      <trkpt lat="38.274073982611299" lon="-8.374363984912634">
        <ele>7.35</ele>
        <time>2025-05-06T09:14:44Z</time>
      </trkpt>
      <trkpt lat="38.27386099845171" lon="-8.372394992038608">
        <ele>5.91</ele>
        <time>2025-05-06T09:14:52Z</time>
      </trkpt>
      <trkpt lat="38.273565033450723" lon="-8.369682021439076">
        <ele>4.46</ele>
        <time>2025-05-06T09:15:03Z</time>
      </trkpt>
      <trkpt lat="38.273197989910841" lon="-8.366592032834888">
        <ele>4.94</ele>
        <time>2025-05-06T09:15:14Z</time>
      </trkpt>
      <trkpt lat="38.27255099080503" lon="-8.364249039441347">
        <ele>5.42</ele>
        <time>2025-05-06T09:15:23Z</time>
      </trkpt>
      <trkpt lat="38.271825034171343" lon="-8.361494997516275">
        <ele>7.83</ele>
        <time>2025-05-06T09:15:34Z</time>
      </trkpt>
      <trkpt lat="38.27186300419271" lon="-8.359889024868608">
        <ele>8.310000000000001</ele>
        <time>2025-05-06T09:15:40Z</time>
      </trkpt>
      <trkpt lat="38.271920001134276" lon="-8.359045973047614">
        <ele>7.83</ele>
        <time>2025-05-06T09:15:44Z</time>
      </trkpt>
      <trkpt lat="38.271892005577683" lon="-8.358920998871326">
        <ele>7.83</ele>
        <time>2025-05-06T09:15:45Z</time>
      </trkpt>
      <trkpt lat="38.271837020292878" lon="-8.358824020251632">
        <ele>7.83</ele>
        <time>2025-05-06T09:15:46Z</time>
      </trkpt>
      <trkpt lat="38.271752027794719" lon="-8.358738021925092">
        <ele>8.310000000000001</ele>
        <time>2025-05-06T09:15:47Z</time>
      </trkpt>
      <trkpt lat="38.271630993112922" lon="-8.3586719725281">
        <ele>8.789999999999999</ele>
        <time>2025-05-06T09:15:48Z</time>
      </trkpt>
      <trkpt lat="38.271491015329957" lon="-8.358596032485366">
        <ele>8.789999999999999</ele>
        <time>2025-05-06T09:15:49Z</time>
      </trkpt>
      <trkpt lat="38.26982201077044" lon="-8.357621971517801">
        <ele>14.08</ele>
        <time>2025-05-06T09:16:00Z</time>
      </trkpt>
      <trkpt lat="38.26967298053205" lon="-8.357496997341514">
        <ele>15.039999999999999</ele>
        <time>2025-05-06T09:16:01Z</time>
      </trkpt>
      <trkpt lat="38.269536020234227" lon="-8.357332963496447">
        <ele>15.52</ele>
        <time>2025-05-06T09:16:02Z</time>
      </trkpt>
      <trkpt lat="38.268395997583866" lon="-8.355655996128917">
        <ele>22.73</ele>
        <time>2025-05-06T09:16:10Z</time>
      </trkpt>
      <trkpt lat="38.266952969133854" lon="-8.35340604186058">
        <ele>32.340000000000003</ele>
        <time>2025-05-06T09:16:21Z</time>
      </trkpt>
      <trkpt lat="38.266896978020668" lon="-8.353171013295651">
        <ele>32.82</ele>
        <time>2025-05-06T09:16:22Z</time>
      </trkpt>
      <trkpt lat="38.266270011663437" lon="-8.350214967504144">
        <ele>40.030000000000001</ele>
        <time>2025-05-06T09:16:34Z</time>
      </trkpt>
      <trkpt lat="38.265896011143923" lon="-8.348448984324932">
        <ele>49.159999999999997</ele>
        <time>2025-05-06T09:16:43Z</time>
      </trkpt>
      <trkpt lat="38.26561102643609" lon="-8.347005033865571">
        <ele>52.530000000000001</ele>
        <time>2025-05-06T09:16:51Z</time>
      </trkpt>
      <trkpt lat="38.265588982030749" lon="-8.346907971426845">
        <ele>53.009999999999998</ele>
        <time>2025-05-06T09:16:52Z</time>
      </trkpt>
      <trkpt lat="38.265507007017732" lon="-8.346856003627181">
        <ele>53.009999999999998</ele>
        <time>2025-05-06T09:16:53Z</time>
      </trkpt>
      <trkpt lat="38.265445986762643" lon="-8.346870001405478">
        <ele>53.009999999999998</ele>
        <time>2025-05-06T09:16:54Z</time>
      </trkpt>
      <trkpt lat="38.26537499204278" lon="-8.346892967820168">
        <ele>53.009999999999998</ele>
        <time>2025-05-06T09:16:55Z</time>
      </trkpt>
      <trkpt lat="38.265312965959311" lon="-8.346976032480598">
        <ele>53.490000000000002</ele>
        <time>2025-05-06T09:16:56Z</time>
      </trkpt>
      <trkpt lat="38.265242977067828" lon="-8.347073011100292">
        <ele>53.490000000000002</ele>
        <time>2025-05-06T09:16:57Z</time>
      </trkpt>
      <trkpt lat="38.265174999833107" lon="-8.347194967791438">
        <ele>53.490000000000002</ele>
        <time>2025-05-06T09:16:58Z</time>
      </trkpt>
      <trkpt lat="38.264530012384057" lon="-8.348329961299896">
        <ele>52.530000000000001</ele>
        <time>2025-05-06T09:17:05Z</time>
      </trkpt>
      <trkpt lat="38.263154961168766" lon="-8.350682007148862">
        <ele>52.530000000000001</ele>
        <time>2025-05-06T09:17:18Z</time>
      </trkpt>
      <trkpt lat="38.261986020952463" lon="-8.35243902169168">
        <ele>51.57</ele>
        <time>2025-05-06T09:17:28Z</time>
      </trkpt>
      <trkpt lat="38.260649023577571" lon="-8.35383796133101">
        <ele>50.130000000000003</ele>
        <time>2025-05-06T09:17:37Z</time>
      </trkpt>
      <trkpt lat="38.259323006495833" lon="-8.35523497313261">
        <ele>50.130000000000003</ele>
        <time>2025-05-06T09:17:46Z</time>
      </trkpt>
      <trkpt lat="38.258225983008742" lon="-8.356378013268113">
        <ele>50.130000000000003</ele>
        <time>2025-05-06T09:17:54Z</time>
      </trkpt>
      <trkpt lat="38.257948039099574" lon="-8.356619998812676">
        <ele>49.649999999999999</ele>
        <time>2025-05-06T09:17:56Z</time>
      </trkpt>
      <trkpt lat="38.257786016911268" lon="-8.356700967997313">
        <ele>49.159999999999997</ele>
        <time>2025-05-06T09:17:57Z</time>
      </trkpt>
      <trkpt lat="38.25742500834167" lon="-8.356832982972264">
        <ele>48.200000000000003</ele>
        <time>2025-05-06T09:17:59Z</time>
      </trkpt>
      <trkpt lat="38.255359958857298" lon="-8.357389960438013">
        <ele>37.630000000000003</ele>
        <time>2025-05-06T09:18:10Z</time>
      </trkpt>
      <trkpt lat="38.25368600897491" lon="-8.357829004526138">
        <ele>20.809999999999999</ele>
        <time>2025-05-06T09:18:20Z</time>
      </trkpt>
      <trkpt lat="38.25351501815021" lon="-8.357870997861028">
        <ele>18.399999999999999</ele>
        <time>2025-05-06T09:18:22Z</time>
      </trkpt>
      <trkpt lat="38.25345098040998" lon="-8.357956996187568">
        <ele>17.440000000000001</ele>
        <time>2025-05-06T09:18:23Z</time>
      </trkpt>
      <trkpt lat="38.253426002338529" lon="-8.358054980635643">
        <ele>16.960000000000001</ele>
        <time>2025-05-06T09:18:24Z</time>
      </trkpt>
      <trkpt lat="38.25340898707509" lon="-8.358149025589228">
        <ele>16</ele>
        <time>2025-05-06T09:18:25Z</time>
      </trkpt>
      <trkpt lat="38.253418039530516" lon="-8.358264025300741">
        <ele>15.52</ele>
        <time>2025-05-06T09:18:26Z</time>
      </trkpt>
      <trkpt lat="38.253427008166909" lon="-8.358390005305409">
        <ele>15.039999999999999</ele>
        <time>2025-05-06T09:18:27Z</time>
      </trkpt>
      <trkpt lat="38.253446035087109" lon="-8.358639031648636">
        <ele>14.08</ele>
        <time>2025-05-06T09:18:29Z</time>
      </trkpt>
      <trkpt lat="38.253435976803303" lon="-8.358741039410234">
        <ele>14.08</ele>
        <time>2025-05-06T09:18:30Z</time>
      </trkpt>
      <trkpt lat="38.2533860206604" lon="-8.358857966959477">
        <ele>13.6</ele>
        <time>2025-05-06T09:18:31Z</time>
      </trkpt>
      <trkpt lat="38.25332298874855" lon="-8.358880011364818">
        <ele>13.6</ele>
        <time>2025-05-06T09:18:32Z</time>
      </trkpt>
      <trkpt lat="38.253228021785617" lon="-8.358914041891694">
        <ele>13.119999999999999</ele>
        <time>2025-05-06T09:18:33Z</time>
      </trkpt>
      <trkpt lat="38.253114027902484" lon="-8.358954023569822">
        <ele>13.119999999999999</ele>
        <time>2025-05-06T09:18:34Z</time>
      </trkpt>
      <trkpt lat="38.252984024584293" lon="-8.358989981934428">
        <ele>12.630000000000001</ele>
        <time>2025-05-06T09:18:35Z</time>
      </trkpt>
      <trkpt lat="38.252843962982297" lon="-8.359002973884344">
        <ele>12.630000000000001</ele>
        <time>2025-05-06T09:18:36Z</time>
      </trkpt>
      <trkpt lat="38.251765966415405" lon="-8.359084026888013">
        <ele>10.710000000000001</ele>
        <time>2025-05-06T09:18:45Z</time>
      </trkpt>
      <trkpt lat="38.251654990017414" lon="-8.359090983867645">
        <ele>10.710000000000001</ele>
        <time>2025-05-06T09:18:46Z</time>
      </trkpt>
      <trkpt lat="38.2515590172261" lon="-8.35905896499753">
        <ele>10.23</ele>
        <time>2025-05-06T09:18:47Z</time>
      </trkpt>
      <trkpt lat="38.251474024727941" lon="-8.358995011076331">
        <ele>10.23</ele>
        <time>2025-05-06T09:18:48Z</time>
      </trkpt>
      <trkpt lat="38.251390960067511" lon="-8.358900966122747">
        <ele>10.23</ele>
        <time>2025-05-06T09:18:49Z</time>
      </trkpt>
      <trkpt lat="38.251309990882874" lon="-8.358779009431601">
        <ele>9.75</ele>
        <time>2025-05-06T09:18:50Z</time>
      </trkpt>
      <trkpt lat="38.251222986727953" lon="-8.358661998063326">
        <ele>9.75</ele>
        <time>2025-05-06T09:18:51Z</time>
      </trkpt>
      <trkpt lat="38.251143023371696" lon="-8.358568958938122">
        <ele>9.75</ele>
        <time>2025-05-06T09:18:52Z</time>
      </trkpt>
      <trkpt lat="38.251051995903254" lon="-8.358543980866671">
        <ele>9.27</ele>
        <time>2025-05-06T09:18:53Z</time>
      </trkpt>
      <trkpt lat="38.250954011455178" lon="-8.358549010008574">
        <ele>9.27</ele>
        <time>2025-05-06T09:18:54Z</time>
      </trkpt>
      <trkpt lat="38.250838005915284" lon="-8.358579017221928">
        <ele>9.27</ele>
        <time>2025-05-06T09:18:55Z</time>
      </trkpt>
      <trkpt lat="38.250708002597094" lon="-8.358612963929772">
        <ele>9.27</ele>
        <time>2025-05-06T09:18:56Z</time>
      </trkpt>
      <trkpt lat="38.249248964712024" lon="-8.35899299941957">
        <ele>10.23</ele>
        <time>2025-05-06T09:19:06Z</time>
      </trkpt>
      <trkpt lat="38.248945036903024" lon="-8.359072040766478">
        <ele>10.710000000000001</ele>
        <time>2025-05-06T09:19:09Z</time>
      </trkpt>
      <trkpt lat="38.248848980292678" lon="-8.359029041603208">
        <ele>10.710000000000001</ele>
        <time>2025-05-06T09:19:10Z</time>
      </trkpt>
      <trkpt lat="38.248761976137757" lon="-8.358988976106048">
        <ele>11.19</ele>
        <time>2025-05-06T09:19:11Z</time>
      </trkpt>
      <trkpt lat="38.248677989467978" lon="-8.358909012749791">
        <ele>11.19</ele>
        <time>2025-05-06T09:19:12Z</time>
      </trkpt>
      <trkpt lat="38.248605988919735" lon="-8.358779009431601">
        <ele>11.67</ele>
        <time>2025-05-06T09:19:13Z</time>
      </trkpt>
      <trkpt lat="38.248528959229589" lon="-8.358640037477016">
        <ele>11.67</ele>
        <time>2025-05-06T09:19:14Z</time>
      </trkpt>
      <trkpt lat="38.248451007530093" lon="-8.358496958389878">
        <ele>11.67</ele>
        <time>2025-05-06T09:19:15Z</time>
      </trkpt>
      <trkpt lat="38.248087987303734" lon="-8.357904022559524">
        <ele>12.630000000000001</ele>
        <time>2025-05-06T09:19:21Z</time>
      </trkpt>
      <trkpt lat="38.248033002018929" lon="-8.357876027002931">
        <ele>12.630000000000001</ele>
        <time>2025-05-06T09:19:22Z</time>
      </trkpt>
      <trkpt lat="38.247979022562504" lon="-8.357849037274718">
        <ele>12.630000000000001</ele>
        <time>2025-05-06T09:19:23Z</time>
      </trkpt>
      <trkpt lat="38.247936023399234" lon="-8.357849037274718">
        <ele>12.630000000000001</ele>
        <time>2025-05-06T09:19:24Z</time>
      </trkpt>
      <trkpt lat="38.247904004529119" lon="-8.357906034216285">
        <ele>13.119999999999999</ele>
        <time>2025-05-06T09:19:25Z</time>
      </trkpt>
      <trkpt lat="38.247858993709087" lon="-8.357984991744161">
        <ele>13.119999999999999</ele>
        <time>2025-05-06T09:19:26Z</time>
      </trkpt>
      <trkpt lat="38.247804008424282" lon="-8.358080964535475">
        <ele>13.119999999999999</ele>
        <time>2025-05-06T09:19:27Z</time>
      </trkpt>
      <trkpt lat="38.247539978474379" lon="-8.358594020828605">
        <ele>13.6</ele>
        <time>2025-05-06T09:19:31Z</time>
      </trkpt>
      <trkpt lat="38.247491028159857" lon="-8.358746990561485">
        <ele>13.6</ele>
        <time>2025-05-06T09:19:32Z</time>
      </trkpt>
      <trkpt lat="38.247454985976219" lon="-8.358926028013229">
        <ele>13.6</ele>
        <time>2025-05-06T09:19:33Z</time>
      </trkpt>
      <trkpt lat="38.24743595905602" lon="-8.359105987474322">
        <ele>14.08</ele>
        <time>2025-05-06T09:19:34Z</time>
      </trkpt>
      <trkpt lat="38.247424978762865" lon="-8.359287036582828">
        <ele>14.08</ele>
        <time>2025-05-06T09:19:35Z</time>
      </trkpt>
      <trkpt lat="38.247346021234989" lon="-8.359918026253581">
        <ele>17.440000000000001</ele>
        <time>2025-05-06T09:19:39Z</time>
      </trkpt>
      <trkpt lat="38.247292963787913" lon="-8.360059009864926">
        <ele>18.399999999999999</ele>
        <time>2025-05-06T09:19:40Z</time>
      </trkpt>
      <trkpt lat="38.247223980724812" lon="-8.360162023454905">
        <ele>19.359999999999999</ele>
        <time>2025-05-06T09:19:41Z</time>
      </trkpt>
      <trkpt lat="38.247152986004949" lon="-8.360267970710993">
        <ele>20.32</ele>
        <time>2025-05-06T09:19:42Z</time>
      </trkpt>
      <trkpt lat="38.24704603292048" lon="-8.360362015664578">
        <ele>21.289999999999999</ele>
        <time>2025-05-06T09:19:43Z</time>
      </trkpt>
      <trkpt lat="38.246936984360218" lon="-8.360426975414157">
        <ele>22.25</ele>
        <time>2025-05-06T09:19:44Z</time>
      </trkpt>
      <trkpt lat="38.246820978820324" lon="-8.360496964305639">
        <ele>23.210000000000001</ele>
        <time>2025-05-06T09:19:45Z</time>
      </trkpt>
      <trkpt lat="38.24618998914957" lon="-8.36088303476572">
        <ele>28.98</ele>
        <time>2025-05-06T09:19:50Z</time>
      </trkpt>
      <trkpt lat="38.246078006923199" lon="-8.360953023657203">
        <ele>29.940000000000001</ele>
        <time>2025-05-06T09:19:51Z</time>
      </trkpt>
      <trkpt lat="38.245962001383305" lon="-8.361025024205446">
        <ele>31.379999999999999</ele>
        <time>2025-05-06T09:19:52Z</time>
      </trkpt>
      <trkpt lat="38.245899975299835" lon="-8.36114102974534">
        <ele>32.340000000000003</ele>
        <time>2025-05-06T09:19:53Z</time>
      </trkpt>
      <trkpt lat="38.245824035257101" lon="-8.361281007528305">
        <ele>33.780000000000001</ele>
        <time>2025-05-06T09:19:54Z</time>
      </trkpt>
      <trkpt lat="38.245052983984351" lon="-8.362742979079485">
        <ele>45.32</ele>
        <time>2025-05-06T09:20:03Z</time>
      </trkpt>
      <trkpt lat="38.244874030351639" lon="-8.363056965172291">
        <ele>47.240000000000002</ele>
        <time>2025-05-06T09:20:05Z</time>
      </trkpt>
      <trkpt lat="38.24477001093328" lon="-8.363199960440397">
        <ele>48.200000000000003</ele>
        <time>2025-05-06T09:20:06Z</time>
      </trkpt>
      <trkpt lat="38.244636990129948" lon="-8.363302974030376">
        <ele>49.159999999999997</ele>
        <time>2025-05-06T09:20:07Z</time>
      </trkpt>
      <trkpt lat="38.244496006518602" lon="-8.363405987620354">
        <ele>50.130000000000003</ele>
        <time>2025-05-06T09:20:08Z</time>
      </trkpt>
      <trkpt lat="38.244349993765354" lon="-8.363512018695474">
        <ele>51.57</ele>
        <time>2025-05-06T09:20:09Z</time>
      </trkpt>
      <trkpt lat="38.242693981155753" lon="-8.364553973078728">
        <ele>62.619999999999997</ele>
        <time>2025-05-06T09:20:19Z</time>
      </trkpt>
      <trkpt lat="38.24178596958518" lon="-8.365040039643645">
        <ele>71.760000000000005</ele>
        <time>2025-05-06T09:20:25Z</time>
      </trkpt>
      <trkpt lat="38.241628976538777" lon="-8.365069963037968">
        <ele>73.200000000000003</ele>
        <time>2025-05-06T09:20:26Z</time>
      </trkpt>
      <trkpt lat="38.240272030234337" lon="-8.365322006866336">
        <ele>83.290000000000006</ele>
        <time>2025-05-06T09:20:34Z</time>
      </trkpt>
      <trkpt lat="38.238790025934577" lon="-8.365584025159478">
        <ele>89.060000000000002</ele>
        <time>2025-05-06T09:20:42Z</time>
      </trkpt>
      <trkpt lat="38.238633032888174" lon="-8.365641022101045">
        <ele>89.540000000000006</ele>
        <time>2025-05-06T09:20:43Z</time>
      </trkpt>
      <trkpt lat="38.238484002649784" lon="-8.365744035691023">
        <ele>89.540000000000006</ele>
        <time>2025-05-06T09:20:44Z</time>
      </trkpt>
      <trkpt lat="38.238359028473496" lon="-8.365877978503704">
        <ele>90.019999999999996</ele>
        <time>2025-05-06T09:20:45Z</time>
      </trkpt>
      <trkpt lat="38.237383961677551" lon="-8.367198966443539">
        <ele>92.420000000000002</ele>
        <time>2025-05-06T09:20:53Z</time>
      </trkpt>
      <trkpt lat="38.236587010324001" lon="-8.368279980495572">
        <ele>94.349999999999994</ele>
        <time>2025-05-06T09:21:00Z</time>
      </trkpt>
      <trkpt lat="38.235756028443575" lon="-8.369406005367637">
        <ele>97.230000000000004</ele>
        <time>2025-05-06T09:21:07Z</time>
      </trkpt>
      <trkpt lat="38.235653014853597" lon="-8.369545983150601">
        <ele>97.709999999999994</ele>
        <time>2025-05-06T09:21:08Z</time>
      </trkpt>
      <trkpt lat="38.234812980517745" lon="-8.370503028854728">
        <ele>100.11</ele>
        <time>2025-05-06T09:21:15Z</time>
      </trkpt>
      <trkpt lat="38.233384033665061" lon="-8.372071031481028">
        <ele>103.95999999999999</ele>
        <time>2025-05-06T09:21:26Z</time>
      </trkpt>
      <trkpt lat="38.232238981872797" lon="-8.373261010274291">
        <ele>107.31999999999999</ele>
        <time>2025-05-06T09:21:35Z</time>
      </trkpt>
      <trkpt lat="38.231918960809708" lon="-8.373400988057256">
        <ele>107.81</ele>
        <time>2025-05-06T09:21:37Z</time>
      </trkpt>
      <trkpt lat="38.231747969985008" lon="-8.373441975563765">
        <ele>107.81</ele>
        <time>2025-05-06T09:21:38Z</time>
      </trkpt>
      <trkpt lat="38.230279963463545" lon="-8.373670969158411">
        <ele>110.20999999999999</ele>
        <time>2025-05-06T09:21:46Z</time>
      </trkpt>
      <trkpt lat="38.229750981554389" lon="-8.373656971380115">
        <ele>110.69</ele>
        <time>2025-05-06T09:21:49Z</time>
      </trkpt>
      <trkpt lat="38.229582002386451" lon="-8.373629981651902">
        <ele>110.69</ele>
        <time>2025-05-06T09:21:50Z</time>
      </trkpt>
      <trkpt lat="38.229420986026525" lon="-8.373551024124026">
        <ele>110.69</ele>
        <time>2025-05-06T09:21:51Z</time>
      </trkpt>
      <trkpt lat="38.229264998808503" lon="-8.373447004705668">
        <ele>110.69</ele>
        <time>2025-05-06T09:21:52Z</time>
      </trkpt>
      <trkpt lat="38.229111023247242" lon="-8.373338039964438">
        <ele>110.20999999999999</ele>
        <time>2025-05-06T09:21:53Z</time>
      </trkpt>
      <trkpt lat="38.228964004665613" lon="-8.373208036646247">
        <ele>109.73</ele>
        <time>2025-05-06T09:21:54Z</time>
      </trkpt>
      <trkpt lat="38.227415028959513" lon="-8.371832985430956">
        <ele>108.77</ele>
        <time>2025-05-06T09:22:04Z</time>
      </trkpt>
      <trkpt lat="38.226945977658033" lon="-8.371403999626637">
        <ele>109.73</ele>
        <time>2025-05-06T09:22:07Z</time>
      </trkpt>
      <trkpt lat="38.22678898461163" lon="-8.371353959664702">
        <ele>109.73</ele>
        <time>2025-05-06T09:22:08Z</time>
      </trkpt>
      <trkpt lat="38.226660992950201" lon="-8.371328981593251">
        <ele>109.73</ele>
        <time>2025-05-06T09:22:09Z</time>
      </trkpt>
      <trkpt lat="38.226545993238688" lon="-8.371371980756521">
        <ele>109.73</ele>
        <time>2025-05-06T09:22:10Z</time>
      </trkpt>
      <trkpt lat="38.226439040154219" lon="-8.371450016275048">
        <ele>110.20999999999999</ele>
        <time>2025-05-06T09:22:11Z</time>
      </trkpt>
      <trkpt lat="38.226334014907479" lon="-8.371569039300084">
        <ele>110.20999999999999</ele>
        <time>2025-05-06T09:22:12Z</time>
      </trkpt>
      <trkpt lat="38.226243993267417" lon="-8.371736006811261">
        <ele>110.20999999999999</ele>
        <time>2025-05-06T09:22:13Z</time>
      </trkpt>
      <trkpt lat="38.226152965798974" lon="-8.371904985979199">
        <ele>109.73</ele>
        <time>2025-05-06T09:22:14Z</time>
      </trkpt>
      <trkpt lat="38.225232968106866" lon="-8.373717991635203">
        <ele>106.84</ele>
        <time>2025-05-06T09:22:23Z</time>
      </trkpt>
      <trkpt lat="38.224182967096567" lon="-8.375798966735601">
        <ele>98.670000000000002</ele>
        <time>2025-05-06T09:22:33Z</time>
      </trkpt>
      <trkpt lat="38.223494980484247" lon="-8.377163959667087">
        <ele>93.870000000000005</ele>
        <time>2025-05-06T09:22:40Z</time>
      </trkpt>
      <trkpt lat="38.222505999729037" lon="-8.379121972247958">
        <ele>87.140000000000001</ele>
        <time>2025-05-06T09:22:50Z</time>
      </trkpt>
      <trkpt lat="38.221462033689022" lon="-8.381192972883582">
        <ele>85.209999999999994</ele>
        <time>2025-05-06T09:23:00Z</time>
      </trkpt>
      <trkpt lat="38.22051202878356" lon="-8.383074039593339">
        <ele>81.849999999999994</ele>
        <time>2025-05-06T09:23:09Z</time>
      </trkpt>
      <trkpt lat="38.219883972778916" lon="-8.384320009499788">
        <ele>78.480000000000004</ele>
        <time>2025-05-06T09:23:15Z</time>
      </trkpt>
      <trkpt lat="38.218735987320542" lon="-8.386595025658608">
        <ele>78</ele>
        <time>2025-05-06T09:23:26Z</time>
      </trkpt>
      <trkpt lat="38.217777013778687" lon="-8.388495035469532">
        <ele>82.810000000000002</ele>
        <time>2025-05-06T09:23:35Z</time>
      </trkpt>
      <trkpt lat="38.216804964467883" lon="-8.390423962846398">
        <ele>86.659999999999997</ele>
        <time>2025-05-06T09:23:44Z</time>
      </trkpt>
      <trkpt lat="38.215767033398151" lon="-8.392479959875345">
        <ele>89.540000000000006</ele>
        <time>2025-05-06T09:23:54Z</time>
      </trkpt>
      <trkpt lat="38.214571019634604" lon="-8.39485002681613">
        <ele>90.5</ele>
        <time>2025-05-06T09:24:06Z</time>
      </trkpt>
      <trkpt lat="38.213478019461036" lon="-8.396995961666107">
        <ele>95.310000000000002</ele>
        <time>2025-05-06T09:24:16Z</time>
      </trkpt>
      <trkpt lat="38.212828002870083" lon="-8.398255007341504">
        <ele>96.75</ele>
        <time>2025-05-06T09:24:22Z</time>
      </trkpt>
      <trkpt lat="38.21252197958529" lon="-8.398849032819271">
        <ele>96.75</ele>
        <time>2025-05-06T09:24:25Z</time>
      </trkpt>
      <trkpt lat="38.212425000965595" lon="-8.399038966745138">
        <ele>96.75</ele>
        <time>2025-05-06T09:24:26Z</time>
      </trkpt>
      <trkpt lat="38.211999032646418" lon="-8.399870032444596">
        <ele>96.75</ele>
        <time>2025-05-06T09:24:30Z</time>
      </trkpt>
      <trkpt lat="38.211894007399678" lon="-8.400075975805521">
        <ele>97.230000000000004</ele>
        <time>2025-05-06T09:24:31Z</time>
      </trkpt>
      <trkpt lat="38.2117909938097" lon="-8.400276973843575">
        <ele>97.230000000000004</ele>
        <time>2025-05-06T09:24:32Z</time>
      </trkpt>
      <trkpt lat="38.210534965619445" lon="-8.402729015797377">
        <ele>101.56</ele>
        <time>2025-05-06T09:24:44Z</time>
      </trkpt>
      <trkpt lat="38.209866005927324" lon="-8.40404698625207">
        <ele>103.95999999999999</ele>
        <time>2025-05-06T09:24:50Z</time>
      </trkpt>
      <trkpt lat="38.208629004657269" lon="-8.406466003507376">
        <ele>107.31999999999999</ele>
        <time>2025-05-06T09:25:02Z</time>
      </trkpt>
      <trkpt lat="38.207714036107063" lon="-8.408253025263548">
        <ele>109.25</ele>
        <time>2025-05-06T09:25:12Z</time>
      </trkpt>
      <trkpt lat="38.207120010629296" lon="-8.409537971019745">
        <ele>110.20999999999999</ele>
        <time>2025-05-06T09:25:21Z</time>
      </trkpt>
      <trkpt lat="38.207101989537477" lon="-8.409668980166316">
        <ele>110.20999999999999</ele>
        <time>2025-05-06T09:25:22Z</time>
      </trkpt>
      <trkpt lat="38.207136020064354" lon="-8.409806024283171">
        <ele>109.73</ele>
        <time>2025-05-06T09:25:23Z</time>
      </trkpt>
      <trkpt lat="38.207194022834301" lon="-8.409924041479826">
        <ele>109.73</ele>
        <time>2025-05-06T09:25:24Z</time>
      </trkpt>
      <trkpt lat="38.207270968705416" lon="-8.410053038969636">
        <ele>109.73</ele>
        <time>2025-05-06T09:25:25Z</time>
      </trkpt>
      <trkpt lat="38.20813899859786" lon="-8.411506963893771">
        <ele>109.25</ele>
        <time>2025-05-06T09:25:34Z</time>
      </trkpt>
      <trkpt lat="38.209100989624858" lon="-8.413121988996863">
        <ele>111.17</ele>
        <time>2025-05-06T09:25:43Z</time>
      </trkpt>
      <trkpt lat="38.21005099453032" lon="-8.414722010493279">
        <ele>112.13</ele>
        <time>2025-05-06T09:25:53Z</time>
      </trkpt>
      <trkpt lat="38.211065037176013" lon="-8.416434014216065">
        <ele>113.56999999999999</ele>
        <time>2025-05-06T09:26:03Z</time>
      </trkpt>
      <trkpt lat="38.211799962446094" lon="-8.417683001607657">
        <ele>113.56999999999999</ele>
        <time>2025-05-06T09:26:10Z</time>
      </trkpt>
      <trkpt lat="38.211912028491497" lon="-8.417874025180936">
        <ele>113.56999999999999</ele>
        <time>2025-05-06T09:26:11Z</time>
      </trkpt>
      <trkpt lat="38.212997987866402" lon="-8.419718965888023">
        <ele>111.17</ele>
        <time>2025-05-06T09:26:21Z</time>
      </trkpt>
      <trkpt lat="38.213998032733798" lon="-8.421418983489275">
        <ele>112.61</ele>
        <time>2025-05-06T09:26:30Z</time>
      </trkpt>
      <trkpt lat="38.215394960716367" lon="-8.42379298992455">
        <ele>113.09</ele>
        <time>2025-05-06T09:26:42Z</time>
      </trkpt>
      <trkpt lat="38.216535989195108" lon="-8.425731975585222">
        <ele>113.09</ele>
        <time>2025-05-06T09:26:52Z</time>
      </trkpt>
      <trkpt lat="38.217781037092209" lon="-8.427848992869258">
        <ele>112.13</ele>
        <time>2025-05-06T09:27:03Z</time>
      </trkpt>
      <trkpt lat="38.217939035966992" lon="-8.428160967305303">
        <ele>111.65000000000001</ele>
        <time>2025-05-06T09:27:06Z</time>
      </trkpt>
      <trkpt lat="38.217967031523585" lon="-8.4282629750669">
        <ele>111.65000000000001</ele>
        <time>2025-05-06T09:27:07Z</time>
      </trkpt>
      <trkpt lat="38.217967031523585" lon="-8.428370011970401">
        <ele>111.17</ele>
        <time>2025-05-06T09:27:08Z</time>
      </trkpt>
      <trkpt lat="38.217939035966992" lon="-8.428471013903618">
        <ele>111.17</ele>
        <time>2025-05-06T09:27:09Z</time>
      </trkpt>
      <trkpt lat="38.217911040410399" lon="-8.428565980866551">
        <ele>111.65000000000001</ele>
        <time>2025-05-06T09:27:10Z</time>
      </trkpt>
      <trkpt lat="38.21787198074162" lon="-8.428652985021472">
        <ele>111.65000000000001</ele>
        <time>2025-05-06T09:27:11Z</time>
      </trkpt>
      <trkpt lat="38.217836022377014" lon="-8.42873303219676">
        <ele>111.65000000000001</ele>
        <time>2025-05-06T09:27:12Z</time>
      </trkpt>
      <trkpt lat="38.217384992167354" lon="-8.4296790137887">
        <ele>111.65000000000001</ele>
        <time>2025-05-06T09:27:23Z</time>
      </trkpt>
      <trkpt lat="38.216804964467883" lon="-8.430909980088472">
        <ele>110.69</ele>
        <time>2025-05-06T09:27:33Z</time>
      </trkpt>
      <trkpt lat="38.216275982558727" lon="-8.432036004960537">
        <ele>109.73</ele>
        <time>2025-05-06T09:27:42Z</time>
      </trkpt>
      <trkpt lat="38.215667037293315" lon="-8.433325979858637">
        <ele>111.17</ele>
        <time>2025-05-06T09:27:53Z</time>
      </trkpt>
      <trkpt lat="38.215426979586482" lon="-8.433811040595174">
        <ele>111.65000000000001</ele>
        <time>2025-05-06T09:27:59Z</time>
      </trkpt>
      <trkpt lat="38.214909983798862" lon="-8.434908986091614">
        <ele>112.13</ele>
        <time>2025-05-06T09:28:10Z</time>
      </trkpt>
      <trkpt lat="38.214485021308064" lon="-8.435819009318948">
        <ele>110.20999999999999</ele>
        <time>2025-05-06T09:28:21Z</time>
      </trkpt>
      <trkpt lat="38.214050000533462" lon="-8.436701036989689">
        <ele>108.77</ele>
        <time>2025-05-06T09:28:30Z</time>
      </trkpt>
      <trkpt lat="38.213438037782907" lon="-8.437992017716169">
        <ele>108.77</ele>
        <time>2025-05-06T09:28:38Z</time>
      </trkpt>
      <trkpt lat="38.212398011237383" lon="-8.440173994749785">
        <ele>107.81</ele>
        <time>2025-05-06T09:28:49Z</time>
      </trkpt>
      <trkpt lat="38.211350021883845" lon="-8.442380027845502">
        <ele>106.84</ele>
        <time>2025-05-06T09:29:01Z</time>
      </trkpt>
      <trkpt lat="38.210579976439476" lon="-8.444040985777974">
        <ele>106.36</ele>
        <time>2025-05-06T09:29:11Z</time>
      </trkpt>
      <trkpt lat="38.209504997357726" lon="-8.445659028366208">
        <ele>105.88</ele>
        <time>2025-05-06T09:29:21Z</time>
      </trkpt>
      <trkpt lat="38.208553986623883" lon="-8.446997031569481">
        <ele>107.31999999999999</ele>
        <time>2025-05-06T09:29:29Z</time>
      </trkpt>
      <trkpt lat="38.207208020612597" lon="-8.448896035552025">
        <ele>107.31999999999999</ele>
        <time>2025-05-06T09:29:39Z</time>
      </trkpt>
      <trkpt lat="38.205742025747895" lon="-8.450961001217365">
        <ele>105.40000000000001</ele>
        <time>2025-05-06T09:29:50Z</time>
      </trkpt>
      <trkpt lat="38.205298036336899" lon="-8.451703973114491">
        <ele>103.95999999999999</ele>
        <time>2025-05-06T09:29:54Z</time>
      </trkpt>
      <trkpt lat="38.20521698333323" lon="-8.451905976980925">
        <ele>103.48</ele>
        <time>2025-05-06T09:29:55Z</time>
      </trkpt>
      <trkpt lat="38.205158980563283" lon="-8.452123990282416">
        <ele>103</ele>
        <time>2025-05-06T09:29:56Z</time>
      </trkpt>
      <trkpt lat="38.205116987228394" lon="-8.452357007190585">
        <ele>103</ele>
        <time>2025-05-06T09:29:57Z</time>
      </trkpt>
      <trkpt lat="38.205094020813704" lon="-8.452599998563528">
        <ele>102.52</ele>
        <time>2025-05-06T09:29:58Z</time>
      </trkpt>
      <trkpt lat="38.205091003328562" lon="-8.452851036563516">
        <ele>102.04000000000001</ele>
        <time>2025-05-06T09:29:59Z</time>
      </trkpt>
      <trkpt lat="38.205100977793336" lon="-8.453111965209246">
        <ele>101.56</ele>
        <time>2025-05-06T09:30:00Z</time>
      </trkpt>
      <trkpt lat="38.205121010541916" lon="-8.453374989330769">
        <ele>100.59999999999999</ele>
        <time>2025-05-06T09:30:01Z</time>
      </trkpt>
      <trkpt lat="38.205501968041062" lon="-8.456826992332935">
        <ele>95.790000000000006</ele>
        <time>2025-05-06T09:30:14Z</time>
      </trkpt>
      <trkpt lat="38.205841016024351" lon="-8.460008008405566">
        <ele>91.459999999999994</ele>
        <time>2025-05-06T09:30:27Z</time>
      </trkpt>
      <trkpt lat="38.206170005723834" lon="-8.463053992018104">
        <ele>89.060000000000002</ele>
        <time>2025-05-06T09:30:39Z</time>
      </trkpt>
      <trkpt lat="38.206222979351878" lon="-8.465361027047038">
        <ele>86.659999999999997</ele>
        <time>2025-05-06T09:30:48Z</time>
      </trkpt>
      <trkpt lat="38.206115020439029" lon="-8.468640027567744">
        <ele>86.659999999999997</ele>
        <time>2025-05-06T09:31:01Z</time>
      </trkpt>
      <trkpt lat="38.20626899600029" lon="-8.470996012911201">
        <ele>86.180000000000007</ele>
        <time>2025-05-06T09:31:10Z</time>
      </trkpt>
      <trkpt lat="38.206582982093096" lon="-8.474337039515376">
        <ele>84.730000000000004</ele>
        <time>2025-05-06T09:31:23Z</time>
      </trkpt>
      <trkpt lat="38.206855980679393" lon="-8.477275986224413">
        <ele>82.329999999999998</ele>
        <time>2025-05-06T09:31:35Z</time>
      </trkpt>
      <trkpt lat="38.206842988729477" lon="-8.477731961756945">
        <ele>82.329999999999998</ele>
        <time>2025-05-06T09:31:37Z</time>
      </trkpt>
      <trkpt lat="38.206826979294419" lon="-8.477961039170623">
        <ele>82.329999999999998</ele>
        <time>2025-05-06T09:31:38Z</time>
      </trkpt>
      <trkpt lat="38.206768976524472" lon="-8.478181986138225">
        <ele>82.329999999999998</ele>
        <time>2025-05-06T09:31:39Z</time>
      </trkpt>
      <trkpt lat="38.206697981804609" lon="-8.47840603441">
        <ele>82.329999999999998</ele>
        <time>2025-05-06T09:31:40Z</time>
      </trkpt>
      <trkpt lat="38.206601003184915" lon="-8.478606026619673">
        <ele>82.810000000000002</ele>
        <time>2025-05-06T09:31:41Z</time>
      </trkpt>
      <trkpt lat="38.20648399181664" lon="-8.478803001344204">
        <ele>82.810000000000002</ele>
        <time>2025-05-06T09:31:42Z</time>
      </trkpt>
      <trkpt lat="38.206363040953875" lon="-8.479006011039019">
        <ele>82.810000000000002</ele>
        <time>2025-05-06T09:31:43Z</time>
      </trkpt>
      <trkpt lat="38.204986983910203" lon="-8.481197040528059">
        <ele>81.849999999999994</ele>
        <time>2025-05-06T09:31:54Z</time>
      </trkpt>
      <trkpt lat="38.203311022371054" lon="-8.483816972002387">
        <ele>78.969999999999999</ele>
        <time>2025-05-06T09:32:07Z</time>
      </trkpt>
      <trkpt lat="38.201324008405209" lon="-8.486907966434956">
        <ele>75.120000000000005</ele>
        <time>2025-05-06T09:32:22Z</time>
      </trkpt>
      <trkpt lat="38.199692973867059" lon="-8.489465033635497">
        <ele>78.480000000000004</ele>
        <time>2025-05-06T09:32:35Z</time>
      </trkpt>
      <trkpt lat="38.198324963450432" lon="-8.491609962657094">
        <ele>79.930000000000007</ele>
        <time>2025-05-06T09:32:46Z</time>
      </trkpt>
      <trkpt lat="38.197214026004076" lon="-8.493350967764854">
        <ele>84.25</ele>
        <time>2025-05-06T09:32:55Z</time>
      </trkpt>
      <trkpt lat="38.195829000324011" lon="-8.495525987818837">
        <ele>84.730000000000004</ele>
        <time>2025-05-06T09:33:06Z</time>
      </trkpt>
      <trkpt lat="38.194269966334105" lon="-8.497971994802356">
        <ele>81.849999999999994</ele>
        <time>2025-05-06T09:33:18Z</time>
      </trkpt>
      <trkpt lat="38.192729959264398" lon="-8.500396963208914">
        <ele>79.450000000000003</ele>
        <time>2025-05-06T09:33:30Z</time>
      </trkpt>
      <trkpt lat="38.191188024356961" lon="-8.502835007384419">
        <ele>79.930000000000007</ele>
        <time>2025-05-06T09:33:42Z</time>
      </trkpt>
      <trkpt lat="38.190159983932972" lon="-8.504701992496848">
        <ele>79.450000000000003</ele>
        <time>2025-05-06T09:33:51Z</time>
      </trkpt>
      <trkpt lat="38.188978973776102" lon="-8.507130984216929">
        <ele>80.409999999999997</ele>
        <time>2025-05-06T09:34:02Z</time>
      </trkpt>
      <trkpt lat="38.187832999974489" lon="-8.509481018409133">
        <ele>84.730000000000004</ele>
        <time>2025-05-06T09:34:13Z</time>
      </trkpt>
      <trkpt lat="38.186527015641332" lon="-8.512213015928865">
        <ele>80.409999999999997</ele>
        <time>2025-05-06T09:34:25Z</time>
      </trkpt>
      <trkpt lat="38.185380036011338" lon="-8.514619963243604">
        <ele>81.849999999999994</ele>
        <time>2025-05-06T09:34:36Z</time>
      </trkpt>
      <trkpt lat="38.184218974784017" lon="-8.517014002427459">
        <ele>83.769999999999996</ele>
        <time>2025-05-06T09:34:47Z</time>
      </trkpt>
      <trkpt lat="38.183074006810784" lon="-8.519371999427676">
        <ele>86.180000000000007</ele>
        <time>2025-05-06T09:34:58Z</time>
      </trkpt>
      <trkpt lat="38.18196902051568" lon="-8.52169998921454">
        <ele>85.209999999999994</ele>
        <time>2025-05-06T09:35:09Z</time>
      </trkpt>
      <trkpt lat="38.181168967857957" lon="-8.523493967950344">
        <ele>82.810000000000002</ele>
        <time>2025-05-06T09:35:17Z</time>
      </trkpt>
      <trkpt lat="38.179871030151844" lon="-8.526493012905121">
        <ele>81.370000000000005</ele>
        <time>2025-05-06T09:35:30Z</time>
      </trkpt>
      <trkpt lat="38.179062008857727" lon="-8.528357986360788">
        <ele>80.409999999999997</ele>
        <time>2025-05-06T09:35:39Z</time>
      </trkpt>
      <trkpt lat="38.178536966443062" lon="-8.529591970145702">
        <ele>81.849999999999994</ele>
        <time>2025-05-06T09:35:47Z</time>
      </trkpt>
      <trkpt lat="38.177831964567304" lon="-8.531270027160645">
        <ele>84.730000000000004</ele>
        <time>2025-05-06T09:35:55Z</time>
      </trkpt>
      <trkpt lat="38.177467016503215" lon="-8.532170997932553">
        <ele>85.689999999999998</ele>
        <time>2025-05-06T09:35:59Z</time>
      </trkpt>
      <trkpt lat="38.177445977926254" lon="-8.532385993748903">
        <ele>85.689999999999998</ele>
        <time>2025-05-06T09:36:00Z</time>
      </trkpt>
      <trkpt lat="38.177428040653467" lon="-8.53259596042335">
        <ele>86.180000000000007</ele>
        <time>2025-05-06T09:36:01Z</time>
      </trkpt>
      <trkpt lat="38.177446983754635" lon="-8.532792013138533">
        <ele>86.180000000000007</ele>
        <time>2025-05-06T09:36:02Z</time>
      </trkpt>
      <trkpt lat="38.177463999018073" lon="-8.532973984256387">
        <ele>86.659999999999997</ele>
        <time>2025-05-06T09:36:03Z</time>
      </trkpt>
      <trkpt lat="38.177570030093193" lon="-8.533941004425287">
        <ele>87.140000000000001</ele>
        <time>2025-05-06T09:36:10Z</time>
      </trkpt>
      <trkpt lat="38.177729034796357" lon="-8.53534497320652">
        <ele>88.099999999999994</ele>
        <time>2025-05-06T09:36:21Z</time>
      </trkpt>
      <trkpt lat="38.177890973165631" lon="-8.536803005263209">
        <ele>90.019999999999996</ele>
        <time>2025-05-06T09:36:32Z</time>
      </trkpt>
      <trkpt lat="38.17790798842907" lon="-8.536953963339329">
        <ele>90.019999999999996</ele>
        <time>2025-05-06T09:36:33Z</time>
      </trkpt>
      <trkpt lat="38.177925003692508" lon="-8.537107016891241">
        <ele>90.019999999999996</ele>
        <time>2025-05-06T09:36:34Z</time>
      </trkpt>
      <trkpt lat="38.178062969818711" lon="-8.538321973755956">
        <ele>90.5</ele>
        <time>2025-05-06T09:36:42Z</time>
      </trkpt>
      <trkpt lat="38.178262962028384" lon="-8.540278980508447">
        <ele>92.900000000000006</ele>
        <time>2025-05-06T09:36:55Z</time>
      </trkpt>
      <trkpt lat="38.178495978936553" lon="-8.542086035013199">
        <ele>95.790000000000006</ele>
        <time>2025-05-06T09:37:07Z</time>
      </trkpt>
      <trkpt lat="38.178917001932859" lon="-8.543531997129321">
        <ele>99.150000000000006</ele>
        <time>2025-05-06T09:37:17Z</time>
      </trkpt>
      <trkpt lat="38.178985984995961" lon="-8.543972969055176">
        <ele>99.150000000000006</ele>
        <time>2025-05-06T09:37:20Z</time>
      </trkpt>
      <trkpt lat="38.179001994431019" lon="-8.544127028435469">
        <ele>99.629999999999995</ele>
        <time>2025-05-06T09:37:21Z</time>
      </trkpt>
      <trkpt lat="38.179011968895793" lon="-8.544276980683208">
        <ele>99.629999999999995</ele>
        <time>2025-05-06T09:37:22Z</time>
      </trkpt>
      <trkpt lat="38.178997971117496" lon="-8.5444310400635">
        <ele>99.629999999999995</ele>
        <time>2025-05-06T09:37:23Z</time>
      </trkpt>
      <trkpt lat="38.1789839733392" lon="-8.544586021453142">
        <ele>99.629999999999995</ele>
        <time>2025-05-06T09:37:24Z</time>
      </trkpt>
      <trkpt lat="38.178896969184279" lon="-8.54595503769815">
        <ele>100.59999999999999</ele>
        <time>2025-05-06T09:37:33Z</time>
      </trkpt>
      <trkpt lat="38.178901998326182" lon="-8.546820972114801">
        <ele>100.59999999999999</ele>
        <time>2025-05-06T09:37:39Z</time>
      </trkpt>
      <trkpt lat="38.178993025794625" lon="-8.546956004574895">
        <ele>100.11</ele>
        <time>2025-05-06T09:37:40Z</time>
      </trkpt>
      <trkpt lat="38.178993025794625" lon="-8.546956004574895">
        <ele>100.11</ele>
        <time>2025-05-06T09:37:41Z</time>
      </trkpt>
      <trkpt lat="38.179115988314152" lon="-8.547035967931151">
        <ele>99.629999999999995</ele>
        <time>2025-05-06T09:37:42Z</time>
      </trkpt>
      <trkpt lat="38.179197041317821" lon="-8.54703102260828">
        <ele>99.629999999999995</ele>
        <time>2025-05-06T09:37:43Z</time>
      </trkpt>
      <trkpt lat="38.179295025765896" lon="-8.547023981809616">
        <ele>99.150000000000006</ele>
        <time>2025-05-06T09:37:44Z</time>
      </trkpt>
      <trkpt lat="38.179404996335506" lon="-8.547019958496094">
        <ele>98.189999999999998</ele>
        <time>2025-05-06T09:37:45Z</time>
      </trkpt>
      <trkpt lat="38.179527036845684" lon="-8.547019958496094">
        <ele>97.709999999999994</ele>
        <time>2025-05-06T09:37:46Z</time>
      </trkpt>
      <trkpt lat="38.180249975994229" lon="-8.547022975981236">
        <ele>94.349999999999994</ele>
        <time>2025-05-06T09:37:51Z</time>
      </trkpt>
      <trkpt lat="38.18132596090436" lon="-8.547456990927458">
        <ele>90.019999999999996</ele>
        <time>2025-05-06T09:37:58Z</time>
      </trkpt>
      <trkpt lat="38.182801008224487" lon="-8.548259977251291">
        <ele>86.659999999999997</ele>
        <time>2025-05-06T09:38:07Z</time>
      </trkpt>
      <trkpt lat="38.183276010677218" lon="-8.548605982214212">
        <ele>86.180000000000007</ele>
        <time>2025-05-06T09:38:10Z</time>
      </trkpt>
      <trkpt lat="38.183419005945325" lon="-8.548731040209532">
        <ele>86.180000000000007</ele>
        <time>2025-05-06T09:38:11Z</time>
      </trkpt>
      <trkpt lat="38.183564012870193" lon="-8.548856014385819">
        <ele>85.689999999999998</ele>
        <time>2025-05-06T09:38:12Z</time>
      </trkpt>
      <trkpt lat="38.184399018064141" lon="-8.549992013722658">
        <ele>85.689999999999998</ele>
        <time>2025-05-06T09:38:19Z</time>
      </trkpt>
      <trkpt lat="38.184498008340597" lon="-8.550185970962048">
        <ele>85.209999999999994</ele>
        <time>2025-05-06T09:38:20Z</time>
      </trkpt>
      <trkpt lat="38.184571014717221" lon="-8.550395015627146">
        <ele>85.209999999999994</ele>
        <time>2025-05-06T09:38:21Z</time>
      </trkpt>
      <trkpt lat="38.184807971119881" lon="-8.55199403129518">
        <ele>84.730000000000004</ele>
        <time>2025-05-06T09:38:28Z</time>
      </trkpt>
      <trkpt lat="38.184807971119881" lon="-8.553163977339864">
        <ele>86.180000000000007</ele>
        <time>2025-05-06T09:38:35Z</time>
      </trkpt>
      <trkpt lat="38.184807971119881" lon="-8.553279982879758">
        <ele>86.180000000000007</ele>
        <time>2025-05-06T09:38:36Z</time>
      </trkpt>
      <trkpt lat="38.184807971119881" lon="-8.553329017013311">
        <ele>86.659999999999997</ele>
        <time>2025-05-06T09:38:37Z</time>
      </trkpt>
      <trkpt lat="38.184830015525222" lon="-8.55349900200963">
        <ele>86.659999999999997</ele>
        <time>2025-05-06T09:38:38Z</time>
      </trkpt>
      <trkpt lat="38.184754997491837" lon="-8.553595980629325">
        <ele>87.140000000000001</ele>
        <time>2025-05-06T09:38:39Z</time>
      </trkpt>
      <trkpt lat="38.184738988056779" lon="-8.553715003654361">
        <ele>87.140000000000001</ele>
        <time>2025-05-06T09:38:40Z</time>
      </trkpt>
      <trkpt lat="38.184721972793341" lon="-8.553846012800932">
        <ele>87.620000000000005</ele>
        <time>2025-05-06T09:38:41Z</time>
      </trkpt>
      <trkpt lat="38.184523992240429" lon="-8.555332962423563">
        <ele>85.689999999999998</ele>
        <time>2025-05-06T09:38:51Z</time>
      </trkpt>
      <trkpt lat="38.18450496532023" lon="-8.555476041510701">
        <ele>85.689999999999998</ele>
        <time>2025-05-06T09:38:52Z</time>
      </trkpt>
      <trkpt lat="38.184452997520566" lon="-8.555868985131383">
        <ele>86.659999999999997</ele>
        <time>2025-05-06T09:38:55Z</time>
      </trkpt>
      <trkpt lat="38.184443023055792" lon="-8.555946014821529">
        <ele>87.140000000000001</ele>
        <time>2025-05-06T09:38:56Z</time>
      </trkpt>
      <trkpt lat="38.184443023055792" lon="-8.555946014821529">
        <ele>87.140000000000001</ele>
        <time>2025-05-06T09:38:57Z</time>
      </trkpt>
      <trkpt lat="38.184474036097527" lon="-8.556124968454242">
        <ele>87.620000000000005</ele>
        <time>2025-05-06T09:38:58Z</time>
      </trkpt>
      <trkpt lat="38.184463977813721" lon="-8.556139972060919">
        <ele>87.620000000000005</ele>
        <time>2025-05-06T09:38:59Z</time>
      </trkpt>
      <trkpt lat="38.184400023892522" lon="-8.556161010637879">
        <ele>88.099999999999994</ele>
        <time>2025-05-06T09:39:00Z</time>
      </trkpt>
      <trkpt lat="38.18435300141573" lon="-8.556097978726029">
        <ele>88.099999999999994</ele>
        <time>2025-05-06T09:39:01Z</time>
      </trkpt>
      <trkpt lat="38.184335986152291" lon="-8.556075012311339">
        <ele>88.099999999999994</ele>
        <time>2025-05-06T09:39:02Z</time>
      </trkpt>
      <trkpt lat="38.1842250097543" lon="-8.555955989286304">
        <ele>88.099999999999994</ele>
        <time>2025-05-06T09:39:03Z</time>
      </trkpt>
      <trkpt lat="38.184141023084521" lon="-8.555935034528375">
        <ele>88.099999999999994</ele>
        <time>2025-05-06T09:39:04Z</time>
      </trkpt>
      <trkpt lat="38.184042032808065" lon="-8.555910978466272">
        <ele>88.579999999999998</ele>
        <time>2025-05-06T09:39:05Z</time>
      </trkpt>
      <trkpt lat="38.183936001732945" lon="-8.55588398873806">
        <ele>88.579999999999998</ele>
        <time>2025-05-06T09:39:06Z</time>
      </trkpt>
      <trkpt lat="38.182632029056549" lon="-8.555706040933728">
        <ele>92.900000000000006</ele>
        <time>2025-05-06T09:39:19Z</time>
      </trkpt>
      <trkpt lat="38.182379985228181" lon="-8.555702017620206">
        <ele>93.870000000000005</ele>
        <time>2025-05-06T09:39:22Z</time>
      </trkpt>
      <trkpt lat="38.182282000780106" lon="-8.555712997913361">
        <ele>93.870000000000005</ele>
        <time>2025-05-06T09:39:23Z</time>
      </trkpt>
      <trkpt lat="38.181773973628879" lon="-8.555983984842897">
        <ele>94.349999999999994</ele>
        <time>2025-05-06T09:39:28Z</time>
      </trkpt>
      <trkpt lat="38.181687975302339" lon="-8.556077023968101">
        <ele>94.829999999999998</ele>
        <time>2025-05-06T09:39:29Z</time>
      </trkpt>
      <trkpt lat="38.181602982804179" lon="-8.556167967617512">
        <ele>94.829999999999998</ele>
        <time>2025-05-06T09:39:30Z</time>
      </trkpt>
      <trkpt lat="38.181558977812529" lon="-8.556284978985786">
        <ele>94.349999999999994</ele>
        <time>2025-05-06T09:39:31Z</time>
      </trkpt>
      <trkpt lat="38.181522013619542" lon="-8.556407019495964">
        <ele>94.349999999999994</ele>
        <time>2025-05-06T09:39:32Z</time>
      </trkpt>
      <trkpt lat="38.181484965607524" lon="-8.556530987843871">
        <ele>94.349999999999994</ele>
        <time>2025-05-06T09:39:33Z</time>
      </trkpt>
      <trkpt lat="38.181448001414537" lon="-8.556654034182429">
        <ele>94.829999999999998</ele>
        <time>2025-05-06T09:39:34Z</time>
      </trkpt>
      <trkpt lat="38.181164022535086" lon="-8.558181971311569">
        <ele>100.11</ele>
        <time>2025-05-06T09:39:46Z</time>
      </trkpt>
      <trkpt lat="38.180877026170492" lon="-8.560038981959224">
        <ele>100.59999999999999</ele>
        <time>2025-05-06T09:40:00Z</time>
      </trkpt>
      <trkpt lat="38.180839978158474" lon="-8.560172002762556">
        <ele>100.59999999999999</ele>
        <time>2025-05-06T09:40:01Z</time>
      </trkpt>
      <trkpt lat="38.180801002308726" lon="-8.560308963060379">
        <ele>100.59999999999999</ele>
        <time>2025-05-06T09:40:02Z</time>
      </trkpt>
      <trkpt lat="38.180353995412588" lon="-8.562064971774817">
        <ele>99.629999999999995</ele>
        <time>2025-05-06T09:40:15Z</time>
      </trkpt>
      <trkpt lat="38.180113015696406" lon="-8.563115978613496">
        <ele>100.11</ele>
        <time>2025-05-06T09:40:24Z</time>
      </trkpt>
      <trkpt lat="38.179795006290078" lon="-8.564526988193393">
        <ele>100.59999999999999</ele>
        <time>2025-05-06T09:40:35Z</time>
      </trkpt>
      <trkpt lat="38.179655028507113" lon="-8.565172981470823">
        <ele>101.56</ele>
        <time>2025-05-06T09:40:42Z</time>
      </trkpt>
      <trkpt lat="38.179629966616631" lon="-8.565295021981001">
        <ele>102.52</ele>
        <time>2025-05-06T09:40:45Z</time>
      </trkpt>
      <trkpt lat="38.179594008252025" lon="-8.56538001447916">
        <ele>103</ele>
        <time>2025-05-06T09:40:46Z</time>
      </trkpt>
      <trkpt lat="38.179527036845684" lon="-8.565427036955953">
        <ele>103.48</ele>
        <time>2025-05-06T09:40:47Z</time>
      </trkpt>
      <trkpt lat="38.179449001327157" lon="-8.565481016412377">
        <ele>103.48</ele>
        <time>2025-05-06T09:40:48Z</time>
      </trkpt>
      <trkpt lat="38.179371971637011" lon="-8.565533990040422">
        <ele>103.95999999999999</ele>
        <time>2025-05-06T09:40:49Z</time>
      </trkpt>
      <trkpt lat="38.179288990795612" lon="-8.565590986981988">
        <ele>103.95999999999999</ele>
        <time>2025-05-06T09:40:50Z</time>
      </trkpt>
      <trkpt lat="38.178434958681464" lon="-8.566095996648073">
        <ele>107.81</ele>
        <time>2025-05-06T09:41:00Z</time>
      </trkpt>
      <trkpt lat="38.178386008366942" lon="-8.566117035225034">
        <ele>108.29000000000001</ele>
        <time>2025-05-06T09:41:01Z</time>
      </trkpt>
      <trkpt lat="38.177782008424401" lon="-8.566380981355906">
        <ele>112.13</ele>
        <time>2025-05-06T09:41:11Z</time>
      </trkpt>
      <trkpt lat="38.177727023139596" lon="-8.566404031589627">
        <ele>112.61</ele>
        <time>2025-05-06T09:41:13Z</time>
      </trkpt>
      <trkpt lat="38.177688969299197" lon="-8.566359020769596">
        <ele>112.61</ele>
        <time>2025-05-06T09:41:14Z</time>
      </trkpt>
      <trkpt lat="38.177652005106211" lon="-8.566335970535874">
        <ele>113.09</ele>
        <time>2025-05-06T09:41:15Z</time>
      </trkpt>
      <trkpt lat="38.177618980407715" lon="-8.566316021606326">
        <ele>113.09</ele>
        <time>2025-05-06T09:41:16Z</time>
      </trkpt>
      <trkpt lat="38.177589979022741" lon="-8.566296994686127">
        <ele>113.09</ele>
        <time>2025-05-06T09:41:17Z</time>
      </trkpt>
      <trkpt lat="38.177556032314897" lon="-8.566276039928198">
        <ele>113.09</ele>
        <time>2025-05-06T09:41:18Z</time>
      </trkpt>
      <trkpt lat="38.177527030929923" lon="-8.566258018836379">
        <ele>113.09</ele>
        <time>2025-05-06T09:41:19Z</time>
      </trkpt>
      <trkpt lat="38.17749903537333" lon="-8.56623999774456">
        <ele>112.61</ele>
        <time>2025-05-06T09:41:20Z</time>
      </trkpt>
      <trkpt lat="38.177471961826086" lon="-8.566223988309503">
        <ele>112.13</ele>
        <time>2025-05-06T09:41:21Z</time>
      </trkpt>
      <trkpt lat="38.177423011511564" lon="-8.566192975267768">
        <ele>111.65000000000001</ele>
        <time>2025-05-06T09:41:32Z</time>
      </trkpt>
      <trkpt lat="38.177107013761997" lon="-8.565996000543237">
        <ele>110.69</ele>
        <time>2025-05-06T09:41:39Z</time>
      </trkpt>
      <trkpt lat="38.177015986293554" lon="-8.566073030233383">
        <ele>110.20999999999999</ele>
        <time>2025-05-06T09:41:43Z</time>
      </trkpt>
      <trkpt lat="38.176991008222103" lon="-8.566132038831711">
        <ele>110.20999999999999</ele>
        <time>2025-05-06T09:41:44Z</time>
      </trkpt>
      <trkpt lat="38.176867961883545" lon="-8.566461028531194">
        <ele>108.77</ele>
        <time>2025-05-06T09:41:52Z</time>
      </trkpt>
      <trkpt lat="38.176865028217435" lon="-8.566500004380941">
        <ele>108.77</ele>
        <time>2025-05-06T09:41:53Z</time>
      </trkpt>
      <trkpt lat="38.176863016560674" lon="-8.566536968573928">
        <ele>108.77</ele>
        <time>2025-05-06T09:41:54Z</time>
      </trkpt>
      <trkpt lat="38.176858993247151" lon="-8.566580973565579">
        <ele>108.77</ele>
        <time>2025-05-06T09:41:55Z</time>
      </trkpt>
      <trkpt lat="38.176854969933629" lon="-8.566634031012654">
        <ele>108.77</ele>
        <time>2025-05-06T09:41:56Z</time>
      </trkpt>
      <trkpt lat="38.176851030439138" lon="-8.566683987155557">
        <ele>108.77</ele>
        <time>2025-05-06T09:41:57Z</time>
      </trkpt>
      <trkpt lat="38.176848012953997" lon="-8.566726986318827">
        <ele>108.77</ele>
        <time>2025-05-06T09:41:58Z</time>
      </trkpt>
      <trkpt lat="38.176881037652493" lon="-8.56679898686707">
        <ele>107.81</ele>
        <time>2025-05-06T09:42:06Z</time>
      </trkpt>
      <trkpt lat="38.176995031535625" lon="-8.566993027925491">
        <ele>107.81</ele>
        <time>2025-05-06T09:42:14Z</time>
      </trkpt>
      <trkpt lat="38.176996959373355" lon="-8.566996967419982">
        <ele>107.31999999999999</ele>
        <time>2025-05-06T09:42:15Z</time>
      </trkpt>
      <trkpt lat="38.177132997661829" lon="-8.567052958533168">
        <ele>107.31999999999999</ele>
        <time>2025-05-06T09:42:16Z</time>
      </trkpt>
      <trkpt lat="38.177140038460493" lon="-8.567107021808624">
        <ele>107.31999999999999</ele>
        <time>2025-05-06T09:42:17Z</time>
      </trkpt>
      <trkpt lat="38.17711397074163" lon="-8.567191008478403">
        <ele>107.31999999999999</ele>
        <time>2025-05-06T09:42:18Z</time>
      </trkpt>
      <trkpt lat="38.177083041518927" lon="-8.567211963236332">
        <ele>107.31999999999999</ele>
        <time>2025-05-06T09:42:19Z</time>
      </trkpt>
      <trkpt lat="38.177083041518927" lon="-8.567211963236332">
        <ele>107.31999999999999</ele>
        <time>2025-05-06T09:42:20Z</time>
      </trkpt>
      <trkpt lat="38.17696301266551" lon="-8.567289998754859">
        <ele>107.31999999999999</ele>
        <time>2025-05-06T09:42:21Z</time>
      </trkpt>
      <trkpt lat="38.17694297991693" lon="-8.5673569701612">
        <ele>107.31999999999999</ele>
        <time>2025-05-06T09:42:22Z</time>
      </trkpt>
      <trkpt lat="38.176923030987382" lon="-8.567429976537824">
        <ele>107.31999999999999</ele>
        <time>2025-05-06T09:42:23Z</time>
      </trkpt>
      <trkpt lat="38.176907021552324" lon="-8.567504994571209">
        <ele>107.31999999999999</ele>
        <time>2025-05-06T09:42:24Z</time>
      </trkpt>
      <trkpt lat="38.17689897492528" lon="-8.567578000947833">
        <ele>107.31999999999999</ele>
        <time>2025-05-06T09:42:25Z</time>
      </trkpt>
      <trkpt lat="38.176890006288886" lon="-8.567652013152838">
        <ele>107.31999999999999</ele>
        <time>2025-05-06T09:42:26Z</time>
      </trkpt>
      <trkpt lat="38.176792021840811" lon="-8.56855901889503">
        <ele>109.25</ele>
        <time>2025-05-06T09:42:37Z</time>
      </trkpt>
      <trkpt lat="38.176771989092231" lon="-8.568780971691012">
        <ele>110.69</ele>
        <time>2025-05-06T09:42:40Z</time>
      </trkpt>
      <trkpt lat="38.176702000200748" lon="-8.569575995206833">
        <ele>113.56999999999999</ele>
        <time>2025-05-06T09:42:50Z</time>
      </trkpt>
      <trkpt lat="38.176711974665523" lon="-8.569665011018515">
        <ele>113.56999999999999</ele>
        <time>2025-05-06T09:42:51Z</time>
      </trkpt>
      <trkpt lat="38.176723038777709" lon="-8.569759977981448">
        <ele>113.56999999999999</ele>
        <time>2025-05-06T09:42:52Z</time>
      </trkpt>
      <trkpt lat="38.176734019070864" lon="-8.569861985743046">
        <ele>114.05</ele>
        <time>2025-05-06T09:42:53Z</time>
      </trkpt>
      <trkpt lat="38.176746005192399" lon="-8.569970028474927">
        <ele>114.05</ele>
        <time>2025-05-06T09:42:54Z</time>
      </trkpt>
      <trkpt lat="38.176897969096899" lon="-8.571322029456496">
        <ele>110.69</ele>
        <time>2025-05-06T09:43:05Z</time>
      </trkpt>
      <trkpt lat="38.176902998238802" lon="-8.571579018607736">
        <ele>110.20999999999999</ele>
        <time>2025-05-06T09:43:07Z</time>
      </trkpt>
      <trkpt lat="38.176895035430789" lon="-8.571711033582687">
        <ele>109.73</ele>
        <time>2025-05-06T09:43:08Z</time>
      </trkpt>
      <trkpt lat="38.176804007962346" lon="-8.573182979598641">
        <ele>108.29000000000001</ele>
        <time>2025-05-06T09:43:18Z</time>
      </trkpt>
      <trkpt lat="38.176953960210085" lon="-8.574443031102419">
        <ele>108.29000000000001</ele>
        <time>2025-05-06T09:43:28Z</time>
      </trkpt>
      <trkpt lat="38.176973992958665" lon="-8.574512014165521">
        <ele>107.81</ele>
        <time>2025-05-06T09:43:29Z</time>
      </trkpt>
      <trkpt lat="38.177146995440125" lon="-8.574665989726782">
        <ele>107.81</ele>
        <time>2025-05-06T09:43:31Z</time>
      </trkpt>
      <trkpt lat="38.177146995440125" lon="-8.574766991659999">
        <ele>107.81</ele>
        <time>2025-05-06T09:43:32Z</time>
      </trkpt>
      <trkpt lat="38.177146995440125" lon="-8.574829017743468">
        <ele>107.81</ele>
        <time>2025-05-06T09:43:33Z</time>
      </trkpt>
      <trkpt lat="38.177089998498559" lon="-8.574992967769504">
        <ele>107.81</ele>
        <time>2025-05-06T09:43:34Z</time>
      </trkpt>
      <trkpt lat="38.177120005711913" lon="-8.575097993016243">
        <ele>108.29000000000001</ele>
        <time>2025-05-06T09:43:35Z</time>
      </trkpt>
      <trkpt lat="38.177146995440125" lon="-8.575193965807557">
        <ele>108.29000000000001</ele>
        <time>2025-05-06T09:43:36Z</time>
      </trkpt>
      <trkpt lat="38.177166022360325" lon="-8.575341990217567">
        <ele>108.77</ele>
        <time>2025-05-06T09:43:37Z</time>
      </trkpt>
      <trkpt lat="38.177181025967002" lon="-8.575466964393854">
        <ele>109.73</ele>
        <time>2025-05-06T09:43:38Z</time>
      </trkpt>
      <trkpt lat="38.177183959633112" lon="-8.575584981590509">
        <ele>110.69</ele>
        <time>2025-05-06T09:43:39Z</time>
      </trkpt>
      <trkpt lat="38.177168034017086" lon="-8.575713979080319">
        <ele>111.65000000000001</ele>
        <time>2025-05-06T09:43:40Z</time>
      </trkpt>
      <trkpt lat="38.177152024582028" lon="-8.575845994055271">
        <ele>112.61</ele>
        <time>2025-05-06T09:43:41Z</time>
      </trkpt>
      <trkpt lat="38.177125034853816" lon="-8.575978009030223">
        <ele>113.56999999999999</ele>
        <time>2025-05-06T09:43:42Z</time>
      </trkpt>
      <trkpt lat="38.176925964653492" lon="-8.576823994517326">
        <ele>116.94</ele>
        <time>2025-05-06T09:43:48Z</time>
      </trkpt>
      <trkpt lat="38.17691900767386" lon="-8.576956009492278">
        <ele>116.94</ele>
        <time>2025-05-06T09:43:49Z</time>
      </trkpt>
      <trkpt lat="38.176913978531957" lon="-8.577077966183424">
        <ele>116.45999999999999</ele>
        <time>2025-05-06T09:43:50Z</time>
      </trkpt>
      <trkpt lat="38.176948009058833" lon="-8.577190032228828">
        <ele>115.5</ele>
        <time>2025-05-06T09:43:51Z</time>
      </trkpt>
      <trkpt lat="38.1770050060004" lon="-8.577291034162045">
        <ele>115.01000000000001</ele>
        <time>2025-05-06T09:43:52Z</time>
      </trkpt>
      <trkpt lat="38.177065020427108" lon="-8.577398993074894">
        <ele>114.53</ele>
        <time>2025-05-06T09:43:53Z</time>
      </trkpt>
      <trkpt lat="38.177138026803732" lon="-8.577502006664872">
        <ele>114.05</ele>
        <time>2025-05-06T09:43:54Z</time>
      </trkpt>
      <trkpt lat="38.177225030958652" lon="-8.577589010819793">
        <ele>113.56999999999999</ele>
        <time>2025-05-06T09:43:55Z</time>
      </trkpt>
      <trkpt lat="38.177311029285192" lon="-8.57767098583281">
        <ele>113.09</ele>
        <time>2025-05-06T09:43:56Z</time>
      </trkpt>
      <trkpt lat="38.177390992641449" lon="-8.577742986381054">
        <ele>112.13</ele>
        <time>2025-05-06T09:43:57Z</time>
      </trkpt>
      <trkpt lat="38.177462993189692" lon="-8.577808029949665">
        <ele>111.17</ele>
        <time>2025-05-06T09:43:58Z</time>
      </trkpt>
      <trkpt lat="38.177609005942941" lon="-8.577753966674209">
        <ele>110.20999999999999</ele>
        <time>2025-05-06T09:43:59Z</time>
      </trkpt>
      <trkpt lat="38.177683018147945" lon="-8.577696969732642">
        <ele>110.20999999999999</ele>
        <time>2025-05-06T09:44:00Z</time>
      </trkpt>
      <trkpt lat="38.17775996401906" lon="-8.577617006376386">
        <ele>109.25</ele>
        <time>2025-05-06T09:44:01Z</time>
      </trkpt>
      <trkpt lat="38.177830958738923" lon="-8.577522961422801">
        <ele>108.77</ele>
        <time>2025-05-06T09:44:02Z</time>
      </trkpt>
      <trkpt lat="38.177868006750941" lon="-8.5773900244385">
        <ele>108.29000000000001</ele>
        <time>2025-05-06T09:44:03Z</time>
      </trkpt>
      <trkpt lat="38.17788502201438" lon="-8.577254991978407">
        <ele>107.81</ele>
        <time>2025-05-06T09:44:04Z</time>
      </trkpt>
      <trkpt lat="38.177884016185999" lon="-8.577105961740017">
        <ele>107.81</ele>
        <time>2025-05-06T09:44:05Z</time>
      </trkpt>
      <trkpt lat="38.177834982052445" lon="-8.576972018927336">
        <ele>107.31999999999999</ele>
        <time>2025-05-06T09:44:06Z</time>
      </trkpt>
      <trkpt lat="38.177753007039428" lon="-8.576837992295623">
        <ele>106.84</ele>
        <time>2025-05-06T09:44:07Z</time>
      </trkpt>
      <trkpt lat="38.177655022591352" lon="-8.576719975098968">
        <ele>106.36</ele>
        <time>2025-05-06T09:44:08Z</time>
      </trkpt>
      <trkpt lat="38.177554020658135" lon="-8.576597012579441">
        <ele>106.36</ele>
        <time>2025-05-06T09:44:09Z</time>
      </trkpt>
      <trkpt lat="38.177417982369661" lon="-8.576483018696308">
        <ele>106.36</ele>
        <time>2025-05-06T09:44:10Z</time>
      </trkpt>
      <trkpt lat="38.177281022071838" lon="-8.576391991227865">
        <ele>105.88</ele>
        <time>2025-05-06T09:44:11Z</time>
      </trkpt>
      <trkpt lat="38.17713500931859" lon="-8.576295012608171">
        <ele>105.88</ele>
        <time>2025-05-06T09:44:12Z</time>
      </trkpt>
      <trkpt lat="38.176996037364006" lon="-8.576202979311347">
        <ele>105.88</ele>
        <time>2025-05-06T09:44:13Z</time>
      </trkpt>
      <trkpt lat="38.176850024610758" lon="-8.576108012348414">
        <ele>105.40000000000001</ele>
        <time>2025-05-06T09:44:14Z</time>
      </trkpt>
      <trkpt lat="38.175337007269263" lon="-8.575079971924424">
        <ele>101.56</ele>
        <time>2025-05-06T09:44:22Z</time>
      </trkpt>
      <trkpt lat="38.173765987157822" lon="-8.573628980666399">
        <ele>95.790000000000006</ele>
        <time>2025-05-06T09:44:30Z</time>
      </trkpt>
      <trkpt lat="38.172841966152191" lon="-8.571969028562307">
        <ele>90.5</ele>
        <time>2025-05-06T09:44:37Z</time>
      </trkpt>
      <trkpt lat="38.171718958765268" lon="-8.569343984127045">
        <ele>90.019999999999996</ele>
        <time>2025-05-06T09:44:48Z</time>
      </trkpt>
      <trkpt lat="38.171417964622378" lon="-8.568646023049951">
        <ele>89.540000000000006</ele>
        <time>2025-05-06T09:44:52Z</time>
      </trkpt>
      <trkpt lat="38.171266000717878" lon="-8.568591037765145">
        <ele>89.060000000000002</ele>
        <time>2025-05-06T09:44:53Z</time>
      </trkpt>
      <trkpt lat="38.1711820140481" lon="-8.568542003631592">
        <ele>89.060000000000002</ele>
        <time>2025-05-06T09:44:54Z</time>
      </trkpt>
      <trkpt lat="38.171057961881161" lon="-8.568501016125083">
        <ele>88.579999999999998</ele>
        <time>2025-05-06T09:44:55Z</time>
      </trkpt>
      <trkpt lat="38.170943967998028" lon="-8.568477965891361">
        <ele>87.620000000000005</ele>
        <time>2025-05-06T09:44:56Z</time>
      </trkpt>
      <trkpt lat="38.170773983001709" lon="-8.568477965891361">
        <ele>87.140000000000001</ele>
        <time>2025-05-06T09:44:57Z</time>
      </trkpt>
      <trkpt lat="38.170664012432098" lon="-8.568506967276335">
        <ele>86.180000000000007</ele>
        <time>2025-05-06T09:44:58Z</time>
      </trkpt>
      <trkpt lat="38.169104978442192" lon="-8.568939976394177">
        <ele>85.209999999999994</ele>
        <time>2025-05-06T09:45:07Z</time>
      </trkpt>
      <trkpt lat="38.168220017105341" lon="-8.569111973047257">
        <ele>83.769999999999996</ele>
        <time>2025-05-06T09:45:12Z</time>
      </trkpt>
      <trkpt lat="38.166710017248988" lon="-8.568984987214208">
        <ele>84.730000000000004</ele>
        <time>2025-05-06T09:45:21Z</time>
      </trkpt>
      <trkpt lat="38.166540032252669" lon="-8.568976018577814">
        <ele>85.689999999999998</ele>
        <time>2025-05-06T09:45:22Z</time>
      </trkpt>
      <trkpt lat="38.166194027289748" lon="-8.569032009691">
        <ele>87.140000000000001</ele>
        <time>2025-05-06T09:45:24Z</time>
      </trkpt>
      <trkpt lat="38.1650619674474" lon="-8.569386983290315">
        <ele>94.829999999999998</ele>
        <time>2025-05-06T09:45:31Z</time>
      </trkpt>
      <trkpt lat="38.164919978007674" lon="-8.569395029917359">
        <ele>95.790000000000006</ele>
        <time>2025-05-06T09:45:32Z</time>
      </trkpt>
      <trkpt lat="38.164773965254426" lon="-8.569370973855257">
        <ele>96.75</ele>
        <time>2025-05-06T09:45:33Z</time>
      </trkpt>
      <trkpt lat="38.164628958329558" lon="-8.569295033812523">
        <ele>97.230000000000004</ele>
        <time>2025-05-06T09:45:34Z</time>
      </trkpt>
      <trkpt lat="38.164483029395342" lon="-8.569219009950757">
        <ele>97.709999999999994</ele>
        <time>2025-05-06T09:45:35Z</time>
      </trkpt>
      <trkpt lat="38.164331987500191" lon="-8.569138962775469">
        <ele>98.670000000000002</ele>
        <time>2025-05-06T09:45:36Z</time>
      </trkpt>
      <trkpt lat="38.162935981526971" lon="-8.568226005882025">
        <ele>104.92</ele>
        <time>2025-05-06T09:45:45Z</time>
      </trkpt>
      <trkpt lat="38.162771025672555" lon="-8.568199016153812">
        <ele>105.40000000000001</ele>
        <time>2025-05-06T09:45:46Z</time>
      </trkpt>
      <trkpt lat="38.16265401430428" lon="-8.568243021145463">
        <ele>106.36</ele>
        <time>2025-05-06T09:45:47Z</time>
      </trkpt>
      <trkpt lat="38.162520993500948" lon="-8.568341005593538">
        <ele>106.84</ele>
        <time>2025-05-06T09:45:48Z</time>
      </trkpt>
      <trkpt lat="38.162397025153041" lon="-8.568464973941445">
        <ele>107.31999999999999</ele>
        <time>2025-05-06T09:45:49Z</time>
      </trkpt>
      <trkpt lat="38.162264004349709" lon="-8.568604029715061">
        <ele>108.29000000000001</ele>
        <time>2025-05-06T09:45:50Z</time>
      </trkpt>
      <trkpt lat="38.160760039463639" lon="-8.570211008191109">
        <ele>113.56999999999999</ele>
        <time>2025-05-06T09:46:00Z</time>
      </trkpt>
      <trkpt lat="38.159812968224287" lon="-8.57133200392127">
        <ele>111.65000000000001</ele>
        <time>2025-05-06T09:46:07Z</time>
      </trkpt>
      <trkpt lat="38.158705970272422" lon="-8.573038978502154">
        <ele>109.73</ele>
        <time>2025-05-06T09:46:17Z</time>
      </trkpt>
      <trkpt lat="38.158606979995966" lon="-8.573217010125518">
        <ele>109.73</ele>
        <time>2025-05-06T09:46:18Z</time>
      </trkpt>
      <trkpt lat="38.158427020534873" lon="-8.573539964854717">
        <ele>109.73</ele>
        <time>2025-05-06T09:46:20Z</time>
      </trkpt>
      <trkpt lat="38.158298023045063" lon="-8.573643984273076">
        <ele>109.25</ele>
        <time>2025-05-06T09:46:21Z</time>
      </trkpt>
      <trkpt lat="38.158153016120195" lon="-8.573744986206293">
        <ele>109.25</ele>
        <time>2025-05-06T09:46:22Z</time>
      </trkpt>
      <trkpt lat="38.157878005877137" lon="-8.573957970365882">
        <ele>109.25</ele>
        <time>2025-05-06T09:46:24Z</time>
      </trkpt>
      <trkpt lat="38.157793013378978" lon="-8.574089985340834">
        <ele>109.25</ele>
        <time>2025-05-06T09:46:25Z</time>
      </trkpt>
      <trkpt lat="38.157738028094172" lon="-8.574233986437321">
        <ele>108.77</ele>
        <time>2025-05-06T09:46:26Z</time>
      </trkpt>
      <trkpt lat="38.157371990382671" lon="-8.575353976339102">
        <ele>109.73</ele>
        <time>2025-05-06T09:46:32Z</time>
      </trkpt>
      <trkpt lat="38.157263025641441" lon="-8.575539970770478">
        <ele>110.20999999999999</ele>
        <time>2025-05-06T09:46:33Z</time>
      </trkpt>
      <trkpt lat="38.157123969867826" lon="-8.575701992958784">
        <ele>110.20999999999999</ele>
        <time>2025-05-06T09:46:34Z</time>
      </trkpt>
      <trkpt lat="38.156032981351018" lon="-8.577125994488597">
        <ele>112.13</ele>
        <time>2025-05-06T09:46:42Z</time>
      </trkpt>
      <trkpt lat="38.155137961730361" lon="-8.578670024871826">
        <ele>115.98</ele>
        <time>2025-05-06T09:46:50Z</time>
      </trkpt>
      <trkpt lat="38.154997983947396" lon="-8.578988034278154">
        <ele>115.98</ele>
        <time>2025-05-06T09:46:52Z</time>
      </trkpt>
      <trkpt lat="38.154913997277617" lon="-8.579114014282823">
        <ele>116.45999999999999</ele>
        <time>2025-05-06T09:46:53Z</time>
      </trkpt>
      <trkpt lat="38.154808972030878" lon="-8.57919598929584">
        <ele>116.94</ele>
        <time>2025-05-06T09:46:54Z</time>
      </trkpt>
      <trkpt lat="38.154691960662603" lon="-8.579257009550929">
        <ele>117.42</ele>
        <time>2025-05-06T09:46:55Z</time>
      </trkpt>
      <trkpt lat="38.154560029506683" lon="-8.579290034249425">
        <ele>117.90000000000001</ele>
        <time>2025-05-06T09:46:56Z</time>
      </trkpt>
      <trkpt lat="38.154160967096686" lon="-8.579425988718867">
        <ele>119.34</ele>
        <time>2025-05-06T09:46:59Z</time>
      </trkpt>
      <trkpt lat="38.154048984870315" lon="-8.579537970945239">
        <ele>119.81999999999999</ele>
        <time>2025-05-06T09:47:00Z</time>
      </trkpt>
      <trkpt lat="38.152999989688396" lon="-8.580627031624317">
        <ele>122.22</ele>
        <time>2025-05-06T09:47:08Z</time>
      </trkpt>
      <trkpt lat="38.152358019724488" lon="-8.581405961886048">
        <ele>123.67</ele>
        <time>2025-05-06T09:47:13Z</time>
      </trkpt>
      <trkpt lat="38.151827026158571" lon="-8.582637012004852">
        <ele>124.63</ele>
        <time>2025-05-06T09:47:20Z</time>
      </trkpt>
      <trkpt lat="38.151741027832031" lon="-8.582746982574463">
        <ele>124.63</ele>
        <time>2025-05-06T09:47:21Z</time>
      </trkpt>
      <trkpt lat="38.151620998978615" lon="-8.582820994779468">
        <ele>125.11</ele>
        <time>2025-05-06T09:47:22Z</time>
      </trkpt>
      <trkpt lat="38.150742994621396" lon="-8.583362968638539">
        <ele>127.98999999999999</ele>
        <time>2025-05-06T09:47:28Z</time>
      </trkpt>
      <trkpt lat="38.150621959939599" lon="-8.583517028018832">
        <ele>128.47</ele>
        <time>2025-05-06T09:47:29Z</time>
      </trkpt>
      <trkpt lat="38.150380980223417" lon="-8.583796983584762">
        <ele>129.91999999999999</ele>
        <time>2025-05-06T09:47:31Z</time>
      </trkpt>
      <trkpt lat="38.150233961641788" lon="-8.58392002992332">
        <ele>130.40000000000001</ele>
        <time>2025-05-06T09:47:32Z</time>
      </trkpt>
      <trkpt lat="38.149042977020144" lon="-8.584558982402086">
        <ele>133.75999999999999</ele>
        <time>2025-05-06T09:47:39Z</time>
      </trkpt>
      <trkpt lat="38.148868968710303" lon="-8.584604999050498">
        <ele>134.72</ele>
        <time>2025-05-06T09:47:40Z</time>
      </trkpt>
      <trkpt lat="38.148359013721347" lon="-8.584739025682211">
        <ele>137.13</ele>
        <time>2025-05-06T09:47:43Z</time>
      </trkpt>
      <trkpt lat="38.148203026503325" lon="-8.58480398543179">
        <ele>137.61000000000001</ele>
        <time>2025-05-06T09:47:44Z</time>
      </trkpt>
      <trkpt lat="38.148064976558089" lon="-8.584894007071853">
        <ele>138.09</ele>
        <time>2025-05-06T09:47:45Z</time>
      </trkpt>
      <trkpt lat="38.147920975461602" lon="-8.584986962378025">
        <ele>138.56999999999999</ele>
        <time>2025-05-06T09:47:46Z</time>
      </trkpt>
      <trkpt lat="38.147794995456934" lon="-8.58512501232326">
        <ele>139.05000000000001</ele>
        <time>2025-05-06T09:47:47Z</time>
      </trkpt>
      <trkpt lat="38.147676978260279" lon="-8.585262978449464">
        <ele>138.56999999999999</ele>
        <time>2025-05-06T09:47:48Z</time>
      </trkpt>
      <trkpt lat="38.147564996033907" lon="-8.585394993424416">
        <ele>138.56999999999999</ele>
        <time>2025-05-06T09:47:49Z</time>
      </trkpt>
      <trkpt lat="38.147469023242593" lon="-8.585549974814057">
        <ele>138.56999999999999</ele>
        <time>2025-05-06T09:47:50Z</time>
      </trkpt>
      <trkpt lat="38.14737900160253" lon="-8.585710991173983">
        <ele>138.56999999999999</ele>
        <time>2025-05-06T09:47:51Z</time>
      </trkpt>
      <trkpt lat="38.14729300327599" lon="-8.585866978392005">
        <ele>138.56999999999999</ele>
        <time>2025-05-06T09:47:52Z</time>
      </trkpt>
      <trkpt lat="38.147213961929083" lon="-8.586008967831731">
        <ele>138.09</ele>
        <time>2025-05-06T09:47:53Z</time>
      </trkpt>
      <trkpt lat="38.147096028551459" lon="-8.5860900208354">
        <ele>138.09</ele>
        <time>2025-05-06T09:47:54Z</time>
      </trkpt>
      <trkpt lat="38.146965019404888" lon="-8.58617995865643">
        <ele>138.09</ele>
        <time>2025-05-06T09:47:55Z</time>
      </trkpt>
      <trkpt lat="38.146828981116414" lon="-8.586274003610015">
        <ele>138.56999999999999</ele>
        <time>2025-05-06T09:47:56Z</time>
      </trkpt>
      <trkpt lat="38.146087015047669" lon="-8.586761998012662">
        <ele>140.00999999999999</ele>
        <time>2025-05-06T09:48:01Z</time>
      </trkpt>
      <trkpt lat="38.145963968709111" lon="-8.586857970803976">
        <ele>140.49000000000001</ele>
        <time>2025-05-06T09:48:02Z</time>
      </trkpt>
      <trkpt lat="38.145862966775894" lon="-8.586986968293786">
        <ele>140.97</ele>
        <time>2025-05-06T09:48:03Z</time>
      </trkpt>
      <trkpt lat="38.145305989310145" lon="-8.587647965177894">
        <ele>144.81999999999999</ele>
        <time>2025-05-06T09:48:08Z</time>
      </trkpt>
      <trkpt lat="38.145174980163574" lon="-8.58776799403131">
        <ele>145.30000000000001</ele>
        <time>2025-05-06T09:48:09Z</time>
      </trkpt>
      <trkpt lat="38.145029973238707" lon="-8.587827002629638">
        <ele>146.25999999999999</ele>
        <time>2025-05-06T09:48:10Z</time>
      </trkpt>
      <trkpt lat="38.144717998802662" lon="-8.587953988462687">
        <ele>147.69999999999999</ele>
        <time>2025-05-06T09:48:12Z</time>
      </trkpt>
      <trkpt lat="38.144558994099498" lon="-8.588019032031298">
        <ele>148.66</ele>
        <time>2025-05-06T09:48:13Z</time>
      </trkpt>
      <trkpt lat="38.144414993003011" lon="-8.588117016479373">
        <ele>149.62</ele>
        <time>2025-05-06T09:48:14Z</time>
      </trkpt>
      <trkpt lat="38.144279960542917" lon="-8.588245008140802">
        <ele>150.09999999999999</ele>
        <time>2025-05-06T09:48:15Z</time>
      </trkpt>
      <trkpt lat="38.14415599219501" lon="-8.588364031165838">
        <ele>151.06</ele>
        <time>2025-05-06T09:48:16Z</time>
      </trkpt>
      <trkpt lat="38.144060019403696" lon="-8.588454974815249">
        <ele>152.03</ele>
        <time>2025-05-06T09:48:17Z</time>
      </trkpt>
      <trkpt lat="38.144030012190342" lon="-8.588585983961821">
        <ele>152.50999999999999</ele>
        <time>2025-05-06T09:48:18Z</time>
      </trkpt>
      <trkpt lat="38.14400402829051" lon="-8.588701989501715">
        <ele>152.99000000000001</ele>
        <time>2025-05-06T09:48:19Z</time>
      </trkpt>
      <trkpt lat="38.143977038562298" lon="-8.58882000669837">
        <ele>153.47</ele>
        <time>2025-05-06T09:48:20Z</time>
      </trkpt>
      <trkpt lat="38.14393999055028" lon="-8.58894900418818">
        <ele>153.94999999999999</ele>
        <time>2025-05-06T09:48:21Z</time>
      </trkpt>
      <trkpt lat="38.143868995830417" lon="-8.589076995849609">
        <ele>154.43000000000001</ele>
        <time>2025-05-06T09:48:22Z</time>
      </trkpt>
      <trkpt lat="38.143763970583677" lon="-8.589195013046265">
        <ele>154.91</ele>
        <time>2025-05-06T09:48:23Z</time>
      </trkpt>
      <trkpt lat="38.143643019720912" lon="-8.589306995272636">
        <ele>155.87</ele>
        <time>2025-05-06T09:48:24Z</time>
      </trkpt>
      <trkpt lat="38.143389970064163" lon="-8.589540012180805">
        <ele>157.31</ele>
        <time>2025-05-06T09:48:26Z</time>
      </trkpt>
      <trkpt lat="38.143249992281199" lon="-8.589641014114022">
        <ele>158.27000000000001</ele>
        <time>2025-05-06T09:48:27Z</time>
      </trkpt>
      <trkpt lat="38.143089981749654" lon="-8.589666998013854">
        <ele>158.75</ele>
        <time>2025-05-06T09:48:28Z</time>
      </trkpt>
      <trkpt lat="38.142917985096574" lon="-8.589694993570447">
        <ele>159.72</ele>
        <time>2025-05-06T09:48:29Z</time>
      </trkpt>
      <trkpt lat="38.142738025635481" lon="-8.589723994955421">
        <ele>160.68000000000001</ele>
        <time>2025-05-06T09:48:30Z</time>
      </trkpt>
      <trkpt lat="38.141200030222535" lon="-8.589924992993474">
        <ele>170.77000000000001</ele>
        <time>2025-05-06T09:48:38Z</time>
      </trkpt>
      <trkpt lat="38.140025977045298" lon="-8.590106964111328">
        <ele>175.09999999999999</ele>
        <time>2025-05-06T09:48:44Z</time>
      </trkpt>
      <trkpt lat="38.139864038676023" lon="-8.590182987973094">
        <ele>176.06</ele>
        <time>2025-05-06T09:48:45Z</time>
      </trkpt>
      <trkpt lat="38.138392008841038" lon="-8.590919002890587">
        <ele>177.97999999999999</ele>
        <time>2025-05-06T09:48:53Z</time>
      </trkpt>
      <trkpt lat="38.13809797167778" lon="-8.591158976778388">
        <ele>177.97999999999999</ele>
        <time>2025-05-06T09:48:55Z</time>
      </trkpt>
      <trkpt lat="38.137314012274146" lon="-8.591899015009403">
        <ele>180.87</ele>
        <time>2025-05-06T09:49:01Z</time>
      </trkpt>
      <trkpt lat="38.137229019775987" lon="-8.591923993080854">
        <ele>181.83000000000001</ele>
        <time>2025-05-06T09:49:02Z</time>
      </trkpt>
      <trkpt lat="38.137125000357628" lon="-8.591900020837784">
        <ele>182.78999999999999</ele>
        <time>2025-05-06T09:49:03Z</time>
      </trkpt>
      <trkpt lat="38.13670196570456" lon="-8.591802958399057">
        <ele>185.19</ele>
        <time>2025-05-06T09:49:06Z</time>
      </trkpt>
      <trkpt lat="38.136528041213751" lon="-8.591802036389709">
        <ele>186.15000000000001</ele>
        <time>2025-05-06T09:49:07Z</time>
      </trkpt>
      <trkpt lat="38.135120971128345" lon="-8.591802036389709">
        <ele>190.47999999999999</ele>
        <time>2025-05-06T09:49:15Z</time>
      </trkpt>
      <trkpt lat="38.134457962587476" lon="-8.591774962842464">
        <ele>188.56</ele>
        <time>2025-05-06T09:49:21Z</time>
      </trkpt>
      <trkpt lat="38.134147999808192" lon="-8.591761970892549">
        <ele>186.15000000000001</ele>
        <time>2025-05-06T09:49:29Z</time>
      </trkpt>
      <trkpt lat="38.133976003155112" lon="-8.591773035004735">
        <ele>185.66999999999999</ele>
        <time>2025-05-06T09:49:40Z</time>
      </trkpt>
      <trkpt lat="38.133910037577152" lon="-8.591782003641129">
        <ele>185.66999999999999</ele>
        <time>2025-05-06T09:49:57Z</time>
      </trkpt>
      <trkpt lat="38.133543999865651" lon="-8.591852998360992">
        <ele>187.11000000000001</ele>
        <time>2025-05-06T09:50:08Z</time>
      </trkpt>
      <trkpt lat="38.133329004049301" lon="-8.592061959207058">
        <ele>189.03999999999999</ele>
        <time>2025-05-06T09:50:15Z</time>
      </trkpt>
      <trkpt lat="38.133298996835947" lon="-8.592113004997373">
        <ele>189.03999999999999</ele>
        <time>2025-05-06T09:50:16Z</time>
      </trkpt>
      <trkpt lat="38.133203024044633" lon="-8.592405030503869">
        <ele>189.03999999999999</ele>
        <time>2025-05-06T09:50:19Z</time>
      </trkpt>
      <trkpt lat="38.133178967982531" lon="-8.592567974701524">
        <ele>189.03999999999999</ele>
        <time>2025-05-06T09:50:20Z</time>
      </trkpt>
      <trkpt lat="38.13317502848804" lon="-8.59275296330452">
        <ele>188.56</ele>
        <time>2025-05-06T09:50:21Z</time>
      </trkpt>
      <trkpt lat="38.133171005174518" lon="-8.592957984656096">
        <ele>188.08000000000001</ele>
        <time>2025-05-06T09:50:22Z</time>
      </trkpt>
      <trkpt lat="38.133165976032615" lon="-8.59318002127111">
        <ele>187.11000000000001</ele>
        <time>2025-05-06T09:50:23Z</time>
      </trkpt>
      <trkpt lat="38.133162036538124" lon="-8.593402979895473">
        <ele>186.63</ele>
        <time>2025-05-06T09:50:24Z</time>
      </trkpt>
      <trkpt lat="38.133135968819261" lon="-8.593602972105146">
        <ele>186.63</ele>
        <time>2025-05-06T09:50:25Z</time>
      </trkpt>
      <trkpt lat="38.1330890301615" lon="-8.593768011778593">
        <ele>185.66999999999999</ele>
        <time>2025-05-06T09:50:26Z</time>
      </trkpt>
      <trkpt lat="38.133051982149482" lon="-8.593902960419655">
        <ele>185.66999999999999</ele>
        <time>2025-05-06T09:50:27Z</time>
      </trkpt>
      <trkpt lat="38.133018035441637" lon="-8.594022989273071">
        <ele>185.66999999999999</ele>
        <time>2025-05-06T09:50:28Z</time>
      </trkpt>
      <trkpt lat="38.132858024910092" lon="-8.594607040286064">
        <ele>186.15000000000001</ele>
        <time>2025-05-06T09:50:33Z</time>
      </trkpt>
      <trkpt lat="38.132845032960176" lon="-8.594760010018945">
        <ele>186.63</ele>
        <time>2025-05-06T09:50:34Z</time>
      </trkpt>
      <trkpt lat="38.132674964144826" lon="-8.596140006557107">
        <ele>189.52000000000001</ele>
        <time>2025-05-06T09:50:41Z</time>
      </trkpt>
      <trkpt lat="38.132179006934166" lon="-8.597856033593416">
        <ele>196.25</ele>
        <time>2025-05-06T09:50:49Z</time>
      </trkpt>
      <trkpt lat="38.132108012214303" lon="-8.598111011087894">
        <ele>198.16999999999999</ele>
        <time>2025-05-06T09:50:51Z</time>
      </trkpt>
      <trkpt lat="38.132004998624325" lon="-8.598213018849492">
        <ele>199.61000000000001</ele>
        <time>2025-05-06T09:50:52Z</time>
      </trkpt>
      <trkpt lat="38.131914976984262" lon="-8.598303962498903">
        <ele>200.56999999999999</ele>
        <time>2025-05-06T09:50:53Z</time>
      </trkpt>
      <trkpt lat="38.131829984486103" lon="-8.598297005519271">
        <ele>202.00999999999999</ele>
        <time>2025-05-06T09:50:54Z</time>
      </trkpt>
      <trkpt lat="38.131705010309815" lon="-8.598288036882877">
        <ele>202.97999999999999</ele>
        <time>2025-05-06T09:50:55Z</time>
      </trkpt>
      <trkpt lat="38.131562015041709" lon="-8.598276972770691">
        <ele>203.94</ele>
        <time>2025-05-06T09:50:56Z</time>
      </trkpt>
      <trkpt lat="38.131256997585297" lon="-8.59825300052762">
        <ele>205.86000000000001</ele>
        <time>2025-05-06T09:50:58Z</time>
      </trkpt>
      <trkpt lat="38.131077960133553" lon="-8.598240008577704">
        <ele>206.81999999999999</ele>
        <time>2025-05-06T09:50:59Z</time>
      </trkpt>
      <trkpt lat="38.130933037027717" lon="-8.598293988034129">
        <ele>207.78</ele>
        <time>2025-05-06T09:51:00Z</time>
      </trkpt>
      <trkpt lat="38.13076900318265" lon="-8.598357019945979">
        <ele>209.22</ele>
        <time>2025-05-06T09:51:01Z</time>
      </trkpt>
      <trkpt lat="38.130594994872808" lon="-8.598421979695559">
        <ele>210.19</ele>
        <time>2025-05-06T09:51:02Z</time>
      </trkpt>
      <trkpt lat="38.129003020003438" lon="-8.599008964374661">
        <ele>219.31999999999999</ele>
        <time>2025-05-06T09:51:11Z</time>
      </trkpt>
      <trkpt lat="38.128860024735332" lon="-8.598996978253126">
        <ele>220.28</ele>
        <time>2025-05-06T09:51:12Z</time>
      </trkpt>
      <trkpt lat="38.128719963133335" lon="-8.598964959383011">
        <ele>221.24000000000001</ele>
        <time>2025-05-06T09:51:13Z</time>
      </trkpt>
      <trkpt lat="38.127502994611859" lon="-8.59853102825582">
        <ele>227.00999999999999</ele>
        <time>2025-05-06T09:51:20Z</time>
      </trkpt>
      <trkpt lat="38.126529017463326" lon="-8.598389960825443">
        <ele>231.81</ele>
        <time>2025-05-06T09:51:26Z</time>
      </trkpt>
      <trkpt lat="38.126384010538459" lon="-8.598437989130616">
        <ele>232.78</ele>
        <time>2025-05-06T09:51:27Z</time>
      </trkpt>
      <trkpt lat="38.126335982233286" lon="-8.598453998565674">
        <ele>233.74000000000001</ele>
        <time>2025-05-06T09:51:28Z</time>
      </trkpt>
      <trkpt lat="38.126231962814927" lon="-8.598579978570342">
        <ele>234.69999999999999</ele>
        <time>2025-05-06T09:51:29Z</time>
      </trkpt>
      <trkpt lat="38.126139007508755" lon="-8.598692966625094">
        <ele>235.18000000000001</ele>
        <time>2025-05-06T09:51:30Z</time>
      </trkpt>
      <trkpt lat="38.126035993918777" lon="-8.598818024620414">
        <ele>235.66</ele>
        <time>2025-05-06T09:51:31Z</time>
      </trkpt>
      <trkpt lat="38.124841991811991" lon="-8.600246971473098">
        <ele>240.94999999999999</ele>
        <time>2025-05-06T09:51:41Z</time>
      </trkpt>
      <trkpt lat="38.123609013855457" lon="-8.601771974936128">
        <ele>247.68000000000001</ele>
        <time>2025-05-06T09:51:50Z</time>
      </trkpt>
      <trkpt lat="38.122987998649478" lon="-8.602540008723736">
        <ele>253.93000000000001</ele>
        <time>2025-05-06T09:51:57Z</time>
      </trkpt>
      <trkpt lat="38.122093984857202" lon="-8.603619011119008">
        <ele>261.13999999999999</ele>
        <time>2025-05-06T09:52:08Z</time>
      </trkpt>
      <trkpt lat="38.121155966073275" lon="-8.604438006877899">
        <ele>257.29000000000002</ele>
        <time>2025-05-06T09:52:17Z</time>
      </trkpt>
      <trkpt lat="38.121028980240226" lon="-8.60446298494935">
        <ele>256.32999999999998</ele>
        <time>2025-05-06T09:52:18Z</time>
      </trkpt>
      <trkpt lat="38.120878022164106" lon="-8.604466002434492">
        <ele>255.37</ele>
        <time>2025-05-06T09:52:19Z</time>
      </trkpt>
      <trkpt lat="38.119414960965514" lon="-8.604527022689581">
        <ele>251.52000000000001</ele>
        <time>2025-05-06T09:52:27Z</time>
      </trkpt>
      <trkpt lat="38.11906099319458" lon="-8.604570021852851">
        <ele>252</ele>
        <time>2025-05-06T09:52:29Z</time>
      </trkpt>
      <trkpt lat="38.118893019855022" lon="-8.604658031836152">
        <ele>252.47999999999999</ele>
        <time>2025-05-06T09:52:30Z</time>
      </trkpt>
      <trkpt lat="38.117326023057103" lon="-8.605517009273171">
        <ele>257.76999999999998</ele>
        <time>2025-05-06T09:52:38Z</time>
      </trkpt>
      <trkpt lat="38.117155032232404" lon="-8.605612982064486">
        <ele>258.73000000000002</ele>
        <time>2025-05-06T09:52:39Z</time>
      </trkpt>
      <trkpt lat="38.117022011429071" lon="-8.605727981775999">
        <ele>259.20999999999998</ele>
        <time>2025-05-06T09:52:40Z</time>
      </trkpt>
      <trkpt lat="38.116920003667474" lon="-8.605876006186009">
        <ele>259.69</ele>
        <time>2025-05-06T09:52:41Z</time>
      </trkpt>
      <trkpt lat="38.116221958771348" lon="-8.6068020388484">
        <ele>259.69</ele>
        <time>2025-05-06T09:52:46Z</time>
      </trkpt>
      <trkpt lat="38.115661041811109" lon="-8.607372008264065">
        <ele>257.29000000000002</ele>
        <time>2025-05-06T09:52:50Z</time>
      </trkpt>
      <trkpt lat="38.115511005744338" lon="-8.607458006590605">
        <ele>256.81</ele>
        <time>2025-05-06T09:52:51Z</time>
      </trkpt>
      <trkpt lat="38.114249026402831" lon="-8.608041973784566">
        <ele>250.08000000000001</ele>
        <time>2025-05-06T09:52:58Z</time>
      </trkpt>
      <trkpt lat="38.114096978679299" lon="-8.608186980709434">
        <ele>249.59999999999999</ele>
        <time>2025-05-06T09:52:59Z</time>
      </trkpt>
      <trkpt lat="38.113422989845276" lon="-8.609054004773498">
        <ele>248.63999999999999</ele>
        <time>2025-05-06T09:53:04Z</time>
      </trkpt>
      <trkpt lat="38.113340009003878" lon="-8.609257014468312">
        <ele>248.63999999999999</ele>
        <time>2025-05-06T09:53:05Z</time>
      </trkpt>
      <trkpt lat="38.112948993220925" lon="-8.610782017931342">
        <ele>248.63999999999999</ele>
        <time>2025-05-06T09:53:12Z</time>
      </trkpt>
      <trkpt lat="38.112908005714417" lon="-8.610905986279249">
        <ele>248.63999999999999</ele>
        <time>2025-05-06T09:53:13Z</time>
      </trkpt>
      <trkpt lat="38.112839022651315" lon="-8.610996007919312">
        <ele>248.63999999999999</ele>
        <time>2025-05-06T09:53:14Z</time>
      </trkpt>
      <trkpt lat="38.112735003232956" lon="-8.611044958233833">
        <ele>248.16</ele>
        <time>2025-05-06T09:53:15Z</time>
      </trkpt>
      <trkpt lat="38.112612962722778" lon="-8.611102038994432">
        <ele>248.16</ele>
        <time>2025-05-06T09:53:16Z</time>
      </trkpt>
      <trkpt lat="38.112487988546491" lon="-8.611161969602108">
        <ele>247.19999999999999</ele>
        <time>2025-05-06T09:53:17Z</time>
      </trkpt>
      <trkpt lat="38.112398972734809" lon="-8.611252997070551">
        <ele>246.72</ele>
        <time>2025-05-06T09:53:18Z</time>
      </trkpt>
      <trkpt lat="38.112343987450004" lon="-8.611345030367374">
        <ele>246.22999999999999</ele>
        <time>2025-05-06T09:53:19Z</time>
      </trkpt>
      <trkpt lat="38.112334012985229" lon="-8.611479979008436">
        <ele>245.27000000000001</ele>
        <time>2025-05-06T09:53:20Z</time>
      </trkpt>
      <trkpt lat="38.112323032692075" lon="-8.611631020903587">
        <ele>244.78999999999999</ele>
        <time>2025-05-06T09:53:21Z</time>
      </trkpt>
      <trkpt lat="38.112310962751508" lon="-8.611792959272862">
        <ele>244.31</ele>
        <time>2025-05-06T09:53:22Z</time>
      </trkpt>
      <trkpt lat="38.112254971638322" lon="-8.61225999891758">
        <ele>242.87</ele>
        <time>2025-05-06T09:53:25Z</time>
      </trkpt>
      <trkpt lat="38.112195041030645" lon="-8.612379021942616">
        <ele>241.91</ele>
        <time>2025-05-06T09:53:26Z</time>
      </trkpt>
      <trkpt lat="38.112133014947176" lon="-8.612505001947284">
        <ele>241.43000000000001</ele>
        <time>2025-05-06T09:53:27Z</time>
      </trkpt>
      <trkpt lat="38.11207601800561" lon="-8.612645985558629">
        <ele>240.94999999999999</ele>
        <time>2025-05-06T09:53:28Z</time>
      </trkpt>
      <trkpt lat="38.112045004963875" lon="-8.612787974998355">
        <ele>240.47</ele>
        <time>2025-05-06T09:53:29Z</time>
      </trkpt>
      <trkpt lat="38.112064031884074" lon="-8.612941028550267">
        <ele>239.99000000000001</ele>
        <time>2025-05-06T09:53:30Z</time>
      </trkpt>
      <trkpt lat="38.112084986642003" lon="-8.613109001889825">
        <ele>239.99000000000001</ele>
        <time>2025-05-06T09:53:31Z</time>
      </trkpt>
      <trkpt lat="38.112108036875725" lon="-8.61329197883606">
        <ele>239.50999999999999</ele>
        <time>2025-05-06T09:53:32Z</time>
      </trkpt>
      <trkpt lat="38.1122060213238" lon="-8.614026987925172">
        <ele>238.53999999999999</ele>
        <time>2025-05-06T09:53:36Z</time>
      </trkpt>
      <trkpt lat="38.11218498274684" lon="-8.614183980971575">
        <ele>238.06</ele>
        <time>2025-05-06T09:53:37Z</time>
      </trkpt>
      <trkpt lat="38.112138966098428" lon="-8.614313984289765">
        <ele>237.58000000000001</ele>
        <time>2025-05-06T09:53:38Z</time>
      </trkpt>
      <trkpt lat="38.112074006348848" lon="-8.614438036456704">
        <ele>236.62</ele>
        <time>2025-05-06T09:53:39Z</time>
      </trkpt>
      <trkpt lat="38.111973004415631" lon="-8.614555969834328">
        <ele>235.66</ele>
        <time>2025-05-06T09:53:40Z</time>
      </trkpt>
      <trkpt lat="38.11186202801764" lon="-8.614685973152518">
        <ele>234.69999999999999</ele>
        <time>2025-05-06T09:53:41Z</time>
      </trkpt>
      <trkpt lat="38.111490039154887" lon="-8.615060979500413">
        <ele>231.81</ele>
        <time>2025-05-06T09:53:44Z</time>
      </trkpt>
      <trkpt lat="38.111351989209652" lon="-8.615145971998572">
        <ele>230.37</ele>
        <time>2025-05-06T09:53:45Z</time>
      </trkpt>
      <trkpt lat="38.111231038346887" lon="-8.615219984203577">
        <ele>229.41</ele>
        <time>2025-05-06T09:53:46Z</time>
      </trkpt>
      <trkpt lat="38.11113297007978" lon="-8.615233981981874">
        <ele>228.44999999999999</ele>
        <time>2025-05-06T09:53:47Z</time>
      </trkpt>
      <trkpt lat="38.111035991460085" lon="-8.615233981981874">
        <ele>227.49000000000001</ele>
        <time>2025-05-06T09:53:48Z</time>
      </trkpt>
      <trkpt lat="38.110957033932209" lon="-8.615180002525449">
        <ele>226.53</ele>
        <time>2025-05-06T09:53:49Z</time>
      </trkpt>
      <trkpt lat="38.110862988978624" lon="-8.615115964785218">
        <ele>225.56999999999999</ele>
        <time>2025-05-06T09:53:50Z</time>
      </trkpt>
      <trkpt lat="38.110771039500833" lon="-8.6150530166924">
        <ele>225.09</ele>
        <time>2025-05-06T09:53:51Z</time>
      </trkpt>
      <trkpt lat="38.110676994547248" lon="-8.614987973123789">
        <ele>223.63999999999999</ele>
        <time>2025-05-06T09:53:52Z</time>
      </trkpt>
      <trkpt lat="38.110579010099173" lon="-8.614962995052338">
        <ele>222.68000000000001</ele>
        <time>2025-05-06T09:53:53Z</time>
      </trkpt>
      <trkpt lat="38.110480019822717" lon="-8.614977998659015">
        <ele>222.19999999999999</ele>
        <time>2025-05-06T09:53:54Z</time>
      </trkpt>
      <trkpt lat="38.110370971262455" lon="-8.614996019750834">
        <ele>221.24000000000001</ele>
        <time>2025-05-06T09:53:55Z</time>
      </trkpt>
      <trkpt lat="38.11025395989418" lon="-8.615014040842652">
        <ele>220.75999999999999</ele>
        <time>2025-05-06T09:53:56Z</time>
      </trkpt>
      <trkpt lat="38.110137032344937" lon="-8.615008005872369">
        <ele>219.80000000000001</ele>
        <time>2025-05-06T09:53:57Z</time>
      </trkpt>
      <trkpt lat="38.110025972127914" lon="-8.614972969517112">
        <ele>218.36000000000001</ele>
        <time>2025-05-06T09:53:58Z</time>
      </trkpt>
      <trkpt lat="38.109920024871826" lon="-8.614912033081055">
        <ele>217.88</ele>
        <time>2025-05-06T09:53:59Z</time>
      </trkpt>
      <trkpt lat="38.109835032373667" lon="-8.614812958985567">
        <ele>216.91</ele>
        <time>2025-05-06T09:54:00Z</time>
      </trkpt>
      <trkpt lat="38.109740987420082" lon="-8.614701982587576">
        <ele>215.94999999999999</ele>
        <time>2025-05-06T09:54:01Z</time>
      </trkpt>
      <trkpt lat="38.109663035720587" lon="-8.614611960947514">
        <ele>214.99000000000001</ele>
        <time>2025-05-06T09:54:02Z</time>
      </trkpt>
      <trkpt lat="38.109528003260493" lon="-8.614543983712792">
        <ele>214.03</ele>
        <time>2025-05-06T09:54:03Z</time>
      </trkpt>
      <trkpt lat="38.10941300354898" lon="-8.614510037004948">
        <ele>213.06999999999999</ele>
        <time>2025-05-06T09:54:04Z</time>
      </trkpt>
      <trkpt lat="38.109303032979369" lon="-8.614544989541173">
        <ele>212.59</ele>
        <time>2025-05-06T09:54:05Z</time>
      </trkpt>
      <trkpt lat="38.109212005510926" lon="-8.614590000361204">
        <ele>212.11000000000001</ele>
        <time>2025-05-06T09:54:06Z</time>
      </trkpt>
      <trkpt lat="38.109132964164019" lon="-8.614710029214621">
        <ele>211.63</ele>
        <time>2025-05-06T09:54:07Z</time>
      </trkpt>
      <trkpt lat="38.109079990535975" lon="-8.614821005612612">
        <ele>210.66999999999999</ele>
        <time>2025-05-06T09:54:08Z</time>
      </trkpt>
      <trkpt lat="38.109065992757678" lon="-8.614972969517112">
        <ele>210.19</ele>
        <time>2025-05-06T09:54:09Z</time>
      </trkpt>
      <trkpt lat="38.109087031334639" lon="-8.615115964785218">
        <ele>210.19</ele>
        <time>2025-05-06T09:54:10Z</time>
      </trkpt>
      <trkpt lat="38.109130030497909" lon="-8.615282010287046">
        <ele>209.69999999999999</ele>
        <time>2025-05-06T09:54:11Z</time>
      </trkpt>
      <trkpt lat="38.109179986640811" lon="-8.615471022203565">
        <ele>209.69999999999999</ele>
        <time>2025-05-06T09:54:12Z</time>
      </trkpt>
      <trkpt lat="38.109232038259506" lon="-8.61567503772676">
        <ele>209.69999999999999</ele>
        <time>2025-05-06T09:54:13Z</time>
      </trkpt>
      <trkpt lat="38.10928501188755" lon="-8.615876035764813">
        <ele>209.69999999999999</ele>
        <time>2025-05-06T09:54:14Z</time>
      </trkpt>
      <trkpt lat="38.109361035749316" lon="-8.616554969921708">
        <ele>208.74000000000001</ele>
        <time>2025-05-06T09:54:18Z</time>
      </trkpt>
      <trkpt lat="38.109331028535962" lon="-8.616658989340067">
        <ele>208.74000000000001</ele>
        <time>2025-05-06T09:54:19Z</time>
      </trkpt>
      <trkpt lat="38.109290963038802" lon="-8.61675001680851">
        <ele>208.74000000000001</ele>
        <time>2025-05-06T09:54:20Z</time>
      </trkpt>
      <trkpt lat="38.109247041866183" lon="-8.616849007084966">
        <ele>208.25999999999999</ele>
        <time>2025-05-06T09:54:21Z</time>
      </trkpt>
      <trkpt lat="38.109208988025784" lon="-8.616961995139718">
        <ele>207.78</ele>
        <time>2025-05-06T09:54:22Z</time>
      </trkpt>
      <trkpt lat="38.109193984419107" lon="-8.617091998457909">
        <ele>207.30000000000001</ele>
        <time>2025-05-06T09:54:23Z</time>
      </trkpt>
      <trkpt lat="38.10921804048121" lon="-8.617214038968086">
        <ele>207.30000000000001</ele>
        <time>2025-05-06T09:54:24Z</time>
      </trkpt>
      <trkpt lat="38.109247963875532" lon="-8.617316968739033">
        <ele>206.81999999999999</ele>
        <time>2025-05-06T09:54:25Z</time>
      </trkpt>
      <trkpt lat="38.10930697247386" lon="-8.617515033110976">
        <ele>206.81999999999999</ele>
        <time>2025-05-06T09:54:27Z</time>
      </trkpt>
      <trkpt lat="38.109335973858833" lon="-8.617613017559052">
        <ele>206.34</ele>
        <time>2025-05-06T09:54:28Z</time>
      </trkpt>
      <trkpt lat="38.109352989122272" lon="-8.617732040584087">
        <ele>206.34</ele>
        <time>2025-05-06T09:54:29Z</time>
      </trkpt>
      <trkpt lat="38.109318036586046" lon="-8.617843016982079">
        <ele>206.34</ele>
        <time>2025-05-06T09:54:30Z</time>
      </trkpt>
      <trkpt lat="38.109278976917267" lon="-8.617967991158366">
        <ele>206.34</ele>
        <time>2025-05-06T09:54:31Z</time>
      </trkpt>
      <trkpt lat="38.109131958335638" lon="-8.61831801943481">
        <ele>206.34</ele>
        <time>2025-05-06T09:54:34Z</time>
      </trkpt>
      <trkpt lat="38.109084013849497" lon="-8.61842698417604">
        <ele>206.34</ele>
        <time>2025-05-06T09:54:35Z</time>
      </trkpt>
      <trkpt lat="38.109014024958014" lon="-8.618499990552664">
        <ele>205.86000000000001</ele>
        <time>2025-05-06T09:54:36Z</time>
      </trkpt>
      <trkpt lat="38.108927020803094" lon="-8.618548018857837">
        <ele>205.38</ele>
        <time>2025-05-06T09:54:37Z</time>
      </trkpt>
      <trkpt lat="38.108838004991412" lon="-8.618595963343978">
        <ele>204.90000000000001</ele>
        <time>2025-05-06T09:54:38Z</time>
      </trkpt>
      <trkpt lat="38.108743960037827" lon="-8.618593029677868">
        <ele>203.94</ele>
        <time>2025-05-06T09:54:39Z</time>
      </trkpt>
      <trkpt lat="38.108654022216797" lon="-8.618580959737301">
        <ele>203.46000000000001</ele>
        <time>2025-05-06T09:54:40Z</time>
      </trkpt>
      <trkpt lat="38.108569029718637" lon="-8.618495967239142">
        <ele>202.49000000000001</ele>
        <time>2025-05-06T09:54:41Z</time>
      </trkpt>
      <trkpt lat="38.108475990593433" lon="-8.618403011932969">
        <ele>202.00999999999999</ele>
        <time>2025-05-06T09:54:42Z</time>
      </trkpt>
      <trkpt lat="38.10838202945888" lon="-8.618308966979384">
        <ele>201.05000000000001</ele>
        <time>2025-05-06T09:54:43Z</time>
      </trkpt>
      <trkpt lat="38.108121016994119" lon="-8.618051977828145">
        <ele>198.16999999999999</ele>
        <time>2025-05-06T09:54:46Z</time>
      </trkpt>
      <trkpt lat="38.107937034219503" lon="-8.6179109942168">
        <ele>196.25</ele>
        <time>2025-05-06T09:54:48Z</time>
      </trkpt>
      <trkpt lat="38.107285005971789" lon="-8.617593990638852">
        <ele>190.96000000000001</ele>
        <time>2025-05-06T09:54:54Z</time>
      </trkpt>
      <trkpt lat="38.107196995988488" lon="-8.617593990638852">
        <ele>190</ele>
        <time>2025-05-06T09:54:55Z</time>
      </trkpt>
      <trkpt lat="38.107110997661948" lon="-8.617593990638852">
        <ele>189.52000000000001</ele>
        <time>2025-05-06T09:54:56Z</time>
      </trkpt>
      <trkpt lat="38.107029022648931" lon="-8.617620980367065">
        <ele>188.56</ele>
        <time>2025-05-06T09:54:57Z</time>
      </trkpt>
      <trkpt lat="38.106954004615545" lon="-8.61767403781414">
        <ele>188.08000000000001</ele>
        <time>2025-05-06T09:54:58Z</time>
      </trkpt>
      <trkpt lat="38.10689901933074" lon="-8.617736985906959">
        <ele>187.11000000000001</ele>
        <time>2025-05-06T09:54:59Z</time>
      </trkpt>
      <trkpt lat="38.10685602016747" lon="-8.617822984233499">
        <ele>186.63</ele>
        <time>2025-05-06T09:55:00Z</time>
      </trkpt>
      <trkpt lat="38.106824001297355" lon="-8.617935972288251">
        <ele>186.15000000000001</ele>
        <time>2025-05-06T09:55:01Z</time>
      </trkpt>
      <trkpt lat="38.106808997690678" lon="-8.618072010576725">
        <ele>185.66999999999999</ele>
        <time>2025-05-06T09:55:02Z</time>
      </trkpt>
      <trkpt lat="38.106791982427239" lon="-8.618222968652844">
        <ele>185.66999999999999</ele>
        <time>2025-05-06T09:55:03Z</time>
      </trkpt>
      <trkpt lat="38.106810003519058" lon="-8.618369987234473">
        <ele>185.19</ele>
        <time>2025-05-06T09:55:04Z</time>
      </trkpt>
      <trkpt lat="38.106837999075651" lon="-8.618509965017438">
        <ele>185.19</ele>
        <time>2025-05-06T09:55:05Z</time>
      </trkpt>
      <trkpt lat="38.106865994632244" lon="-8.618650026619434">
        <ele>185.19</ele>
        <time>2025-05-06T09:55:06Z</time>
      </trkpt>
      <trkpt lat="38.106916034594178" lon="-8.61892101354897">
        <ele>186.15000000000001</ele>
        <time>2025-05-06T09:55:08Z</time>
      </trkpt>
      <trkpt lat="38.106908993795514" lon="-8.619055962190032">
        <ele>186.15000000000001</ele>
        <time>2025-05-06T09:55:09Z</time>
      </trkpt>
      <trkpt lat="38.106902958825231" lon="-8.619188982993364">
        <ele>186.63</ele>
        <time>2025-05-06T09:55:10Z</time>
      </trkpt>
      <trkpt lat="38.106897007673979" lon="-8.619312029331923">
        <ele>186.63</ele>
        <time>2025-05-06T09:55:11Z</time>
      </trkpt>
      <trkpt lat="38.106860965490341" lon="-8.619400961324573">
        <ele>187.11000000000001</ele>
        <time>2025-05-06T09:55:12Z</time>
      </trkpt>
      <trkpt lat="38.106800029054284" lon="-8.619484025985003">
        <ele>187.59</ele>
        <time>2025-05-06T09:55:13Z</time>
      </trkpt>
      <trkpt lat="38.106722999364138" lon="-8.619589973241091">
        <ele>188.08000000000001</ele>
        <time>2025-05-06T09:55:14Z</time>
      </trkpt>
      <trkpt lat="38.106644041836262" lon="-8.619634984061122">
        <ele>188.56</ele>
        <time>2025-05-06T09:55:15Z</time>
      </trkpt>
      <trkpt lat="38.106543039903045" lon="-8.619691981002688">
        <ele>189.03999999999999</ele>
        <time>2025-05-06T09:55:16Z</time>
      </trkpt>
      <trkpt lat="38.106242967769504" lon="-8.619860960170627">
        <ele>190.96000000000001</ele>
        <time>2025-05-06T09:55:19Z</time>
      </trkpt>
      <trkpt lat="38.106158981099725" lon="-8.619960034266114">
        <ele>191.44</ele>
        <time>2025-05-06T09:55:20Z</time>
      </trkpt>
      <trkpt lat="38.106057979166508" lon="-8.620089031755924">
        <ele>191.91999999999999</ele>
        <time>2025-05-06T09:55:21Z</time>
      </trkpt>
      <trkpt lat="38.105943985283375" lon="-8.620235966518521">
        <ele>192.88</ele>
        <time>2025-05-06T09:55:22Z</time>
      </trkpt>
      <trkpt lat="38.10582404024899" lon="-8.620408968999982">
        <ele>193.84</ele>
        <time>2025-05-06T09:55:23Z</time>
      </trkpt>
      <trkpt lat="38.105113003402948" lon="-8.621395016089082">
        <ele>197.21000000000001</ele>
        <time>2025-05-06T09:55:28Z</time>
      </trkpt>
      <trkpt lat="38.105003032833338" lon="-8.621592996641994">
        <ele>198.16999999999999</ele>
        <time>2025-05-06T09:55:29Z</time>
      </trkpt>
      <trkpt lat="38.104893984273076" lon="-8.621796006336808">
        <ele>199.13</ele>
        <time>2025-05-06T09:55:30Z</time>
      </trkpt>
      <trkpt lat="38.104827012866735" lon="-8.622019970789552">
        <ele>199.61000000000001</ele>
        <time>2025-05-06T09:55:31Z</time>
      </trkpt>
      <trkpt lat="38.104763980954885" lon="-8.622244019061327">
        <ele>200.56999999999999</ele>
        <time>2025-05-06T09:55:32Z</time>
      </trkpt>
      <trkpt lat="38.104722993448377" lon="-8.622475024312735">
        <ele>201.53</ele>
        <time>2025-05-06T09:55:33Z</time>
      </trkpt>
      <trkpt lat="38.1045560259372" lon="-8.623418994247913">
        <ele>204.90000000000001</ele>
        <time>2025-05-06T09:55:37Z</time>
      </trkpt>
      <trkpt lat="38.104538004845381" lon="-8.623645976185799">
        <ele>205.86000000000001</ele>
        <time>2025-05-06T09:55:38Z</time>
      </trkpt>
      <trkpt lat="38.104624003171921" lon="-8.624382996931672">
        <ele>208.25999999999999</ele>
        <time>2025-05-06T09:55:42Z</time>
      </trkpt>
      <trkpt lat="38.104755012318492" lon="-8.624856993556023">
        <ele>210.19</ele>
        <time>2025-05-06T09:55:45Z</time>
      </trkpt>
      <trkpt lat="38.104760041460395" lon="-8.625009041279554">
        <ele>211.15000000000001</ele>
        <time>2025-05-06T09:55:46Z</time>
      </trkpt>
      <trkpt lat="38.104733973741531" lon="-8.625164022669196">
        <ele>211.63</ele>
        <time>2025-05-06T09:55:47Z</time>
      </trkpt>
      <trkpt lat="38.104692986235023" lon="-8.625329984351993">
        <ele>212.59</ele>
        <time>2025-05-06T09:55:48Z</time>
      </trkpt>
      <trkpt lat="38.104650992900133" lon="-8.625497035682201">
        <ele>213.55000000000001</ele>
        <time>2025-05-06T09:55:49Z</time>
      </trkpt>
      <trkpt lat="38.104627020657063" lon="-8.625659979879856">
        <ele>214.50999999999999</ele>
        <time>2025-05-06T09:55:50Z</time>
      </trkpt>
      <trkpt lat="38.104653004556894" lon="-8.625816972926259">
        <ele>215.47</ele>
        <time>2025-05-06T09:55:51Z</time>
      </trkpt>
      <trkpt lat="38.104678988456726" lon="-8.625971032306552">
        <ele>215.94999999999999</ele>
        <time>2025-05-06T09:55:52Z</time>
      </trkpt>
      <trkpt lat="38.104702960699797" lon="-8.62611603923142">
        <ele>216.91</ele>
        <time>2025-05-06T09:55:53Z</time>
      </trkpt>
      <trkpt lat="38.104683011770248" lon="-8.626259034499526">
        <ele>217.88</ele>
        <time>2025-05-06T09:55:54Z</time>
      </trkpt>
      <trkpt lat="38.104655016213655" lon="-8.626407980918884">
        <ele>218.36000000000001</ele>
        <time>2025-05-06T09:55:55Z</time>
      </trkpt>
      <trkpt lat="38.104589972645044" lon="-8.626550976186991">
        <ele>219.31999999999999</ele>
        <time>2025-05-06T09:55:56Z</time>
      </trkpt>
      <trkpt lat="38.104501040652394" lon="-8.62667502835393">
        <ele>220.28</ele>
        <time>2025-05-06T09:55:57Z</time>
      </trkpt>
      <trkpt lat="38.10442702844739" lon="-8.626777958124876">
        <ele>220.75999999999999</ele>
        <time>2025-05-06T09:55:58Z</time>
      </trkpt>
      <trkpt lat="38.104396015405655" lon="-8.626920031383634">
        <ele>221.72</ele>
        <time>2025-05-06T09:55:59Z</time>
      </trkpt>
      <trkpt lat="38.104395009577274" lon="-8.627053974196315">
        <ele>222.19999999999999</ele>
        <time>2025-05-06T09:56:00Z</time>
      </trkpt>
      <trkpt lat="38.104432979598641" lon="-8.627193029969931">
        <ele>222.68000000000001</ele>
        <time>2025-05-06T09:56:01Z</time>
      </trkpt>
      <trkpt lat="38.104500034824014" lon="-8.627318004146218">
        <ele>223.16</ele>
        <time>2025-05-06T09:56:02Z</time>
      </trkpt>
      <trkpt lat="38.104576980695128" lon="-8.627462005242705">
        <ele>224.12</ele>
        <time>2025-05-06T09:56:03Z</time>
      </trkpt>
      <trkpt lat="38.10472802259028" lon="-8.627743972465396">
        <ele>225.09</ele>
        <time>2025-05-06T09:56:05Z</time>
      </trkpt>
      <trkpt lat="38.104759035632014" lon="-8.627885961905122">
        <ele>225.56999999999999</ele>
        <time>2025-05-06T09:56:06Z</time>
      </trkpt>
      <trkpt lat="38.104763980954885" lon="-8.628029963001609">
        <ele>226.05000000000001</ele>
        <time>2025-05-06T09:56:07Z</time>
      </trkpt>
      <trkpt lat="38.104753000661731" lon="-8.628187961876392">
        <ele>227.00999999999999</ele>
        <time>2025-05-06T09:56:08Z</time>
      </trkpt>
      <trkpt lat="38.104716958478093" lon="-8.628343027085066">
        <ele>227.49000000000001</ele>
        <time>2025-05-06T09:56:09Z</time>
      </trkpt>
      <trkpt lat="38.104674965143204" lon="-8.628476969897747">
        <ele>227.97</ele>
        <time>2025-05-06T09:56:10Z</time>
      </trkpt>
      <trkpt lat="38.104607993736863" lon="-8.628564979881048">
        <ele>228.93000000000001</ele>
        <time>2025-05-06T09:56:11Z</time>
      </trkpt>
      <trkpt lat="38.104530964046717" lon="-8.62863396294415">
        <ele>229.88999999999999</ele>
        <time>2025-05-06T09:56:12Z</time>
      </trkpt>
      <trkpt lat="38.1044299621135" lon="-8.628693977370858">
        <ele>230.84999999999999</ele>
        <time>2025-05-06T09:56:13Z</time>
      </trkpt>
      <trkpt lat="38.10429803095758" lon="-8.628713004291058">
        <ele>231.81</ele>
        <time>2025-05-06T09:56:14Z</time>
      </trkpt>
      <trkpt lat="38.104154029861093" lon="-8.628733037039638">
        <ele>232.30000000000001</ele>
        <time>2025-05-06T09:56:15Z</time>
      </trkpt>
      <trkpt lat="38.103681961074471" lon="-8.628801014274359">
        <ele>234.69999999999999</ele>
        <time>2025-05-06T09:56:18Z</time>
      </trkpt>
      <trkpt lat="38.103525973856449" lon="-8.628813000395894">
        <ele>235.18000000000001</ele>
        <time>2025-05-06T09:56:19Z</time>
      </trkpt>
      <trkpt lat="38.103379961103201" lon="-8.628799002617598">
        <ele>236.13999999999999</ele>
        <time>2025-05-06T09:56:20Z</time>
      </trkpt>
      <trkpt lat="38.103149039670825" lon="-8.628776958212256">
        <ele>237.09999999999999</ele>
        <time>2025-05-06T09:56:22Z</time>
      </trkpt>
      <trkpt lat="38.103059018030763" lon="-8.62882599234581">
        <ele>237.58000000000001</ele>
        <time>2025-05-06T09:56:23Z</time>
      </trkpt>
      <trkpt lat="38.102963967248797" lon="-8.628909979015589">
        <ele>238.06</ele>
        <time>2025-05-06T09:56:24Z</time>
      </trkpt>
      <trkpt lat="38.102728016674519" lon="-8.629108965396881">
        <ele>239.50999999999999</ele>
        <time>2025-05-06T09:56:26Z</time>
      </trkpt>
      <trkpt lat="38.102315040305257" lon="-8.629366960376501">
        <ele>241.43000000000001</ele>
        <time>2025-05-06T09:56:29Z</time>
      </trkpt>
      <trkpt lat="38.102249996736646" lon="-8.629485983401537">
        <ele>241.91</ele>
        <time>2025-05-06T09:56:30Z</time>
      </trkpt>
      <trkpt lat="38.102205991744995" lon="-8.629630990326405">
        <ele>242.38999999999999</ele>
        <time>2025-05-06T09:56:31Z</time>
      </trkpt>
      <trkpt lat="38.102185036987066" lon="-8.629797035828233">
        <ele>242.87</ele>
        <time>2025-05-06T09:56:32Z</time>
      </trkpt>
      <trkpt lat="38.102160980924964" lon="-8.629981018602848">
        <ele>243.34999999999999</ele>
        <time>2025-05-06T09:56:33Z</time>
      </trkpt>
      <trkpt lat="38.102050004526973" lon="-8.630534978583455">
        <ele>244.78999999999999</ele>
        <time>2025-05-06T09:56:36Z</time>
      </trkpt>
      <trkpt lat="38.102000970393419" lon="-8.630732959136367">
        <ele>244.78999999999999</ele>
        <time>2025-05-06T09:56:37Z</time>
      </trkpt>
      <trkpt lat="38.101928969845176" lon="-8.630924988538027">
        <ele>244.31</ele>
        <time>2025-05-06T09:56:38Z</time>
      </trkpt>
      <trkpt lat="38.101840959861875" lon="-8.631118023768067">
        <ele>244.31</ele>
        <time>2025-05-06T09:56:39Z</time>
      </trkpt>
      <trkpt lat="38.101751022040844" lon="-8.631313992664218">
        <ele>244.31</ele>
        <time>2025-05-06T09:56:40Z</time>
      </trkpt>
      <trkpt lat="38.100921967998147" lon="-8.63305801525712">
        <ele>249.59999999999999</ele>
        <time>2025-05-06T09:56:49Z</time>
      </trkpt>
      <trkpt lat="38.100837981328368" lon="-8.633176032453775">
        <ele>250.08000000000001</ele>
        <time>2025-05-06T09:56:50Z</time>
      </trkpt>
      <trkpt lat="38.100762963294983" lon="-8.633270999416709">
        <ele>251.03999999999999</ele>
        <time>2025-05-06T09:56:51Z</time>
      </trkpt>
      <trkpt lat="38.100693980231881" lon="-8.633360015228391">
        <ele>252</ele>
        <time>2025-05-06T09:56:52Z</time>
      </trkpt>
      <trkpt lat="38.100598007440567" lon="-8.633431009948254">
        <ele>252.96000000000001</ele>
        <time>2025-05-06T09:56:53Z</time>
      </trkpt>
      <trkpt lat="38.100485019385815" lon="-8.633496975526214">
        <ele>253.93000000000001</ele>
        <time>2025-05-06T09:56:54Z</time>
      </trkpt>
      <trkpt lat="38.099372992292047" lon="-8.634128971025348">
        <ele>261.13999999999999</ele>
        <time>2025-05-06T09:57:01Z</time>
      </trkpt>
      <trkpt lat="38.097657971084118" lon="-8.634878983721137">
        <ele>275.06999999999999</ele>
        <time>2025-05-06T09:57:11Z</time>
      </trkpt>
      <trkpt lat="38.096326002851129" lon="-8.635441996157169">
        <ele>277</ele>
        <time>2025-05-06T09:57:18Z</time>
      </trkpt>
      <trkpt lat="38.094483995810151" lon="-8.636211035773158">
        <ele>277</ele>
        <time>2025-05-06T09:57:27Z</time>
      </trkpt>
      <trkpt lat="38.092387011274695" lon="-8.637102032080293">
        <ele>275.06999999999999</ele>
        <time>2025-05-06T09:57:37Z</time>
      </trkpt>
      <trkpt lat="38.091122014448047" lon="-8.6376369651407">
        <ele>278.44</ele>
        <time>2025-05-06T09:57:44Z</time>
      </trkpt>
      <trkpt lat="38.090057009831071" lon="-8.638081960380077">
        <ele>284.20999999999998</ele>
        <time>2025-05-06T09:57:53Z</time>
      </trkpt>
      <trkpt lat="38.089574966579676" lon="-8.638289999216795">
        <ele>286.61000000000001</ele>
        <time>2025-05-06T09:57:58Z</time>
      </trkpt>
      <trkpt lat="38.088575005531311" lon="-8.638718985021114">
        <ele>289.97000000000003</ele>
        <time>2025-05-06T09:58:07Z</time>
      </trkpt>
      <trkpt lat="38.087258962914348" lon="-8.639504034072161">
        <ele>290.94</ele>
        <time>2025-05-06T09:58:19Z</time>
      </trkpt>
      <trkpt lat="38.086004024371505" lon="-8.640450015664101">
        <ele>291.42000000000002</ele>
        <time>2025-05-06T09:58:31Z</time>
      </trkpt>
      <trkpt lat="38.085905034095049" lon="-8.640541965141892">
        <ele>291.89999999999998</ele>
        <time>2025-05-06T09:58:32Z</time>
      </trkpt>
      <trkpt lat="38.085815012454987" lon="-8.640647996217012">
        <ele>291.42000000000002</ele>
        <time>2025-05-06T09:58:33Z</time>
      </trkpt>
      <trkpt lat="38.084911024197936" lon="-8.641742002218962">
        <ele>286.61000000000001</ele>
        <time>2025-05-06T09:58:43Z</time>
      </trkpt>
      <trkpt lat="38.084775991737843" lon="-8.641860019415617">
        <ele>285.64999999999998</ele>
        <time>2025-05-06T09:58:44Z</time>
      </trkpt>
      <trkpt lat="38.0846400372684" lon="-8.641978958621621">
        <ele>284.69</ele>
        <time>2025-05-06T09:58:45Z</time>
      </trkpt>
      <trkpt lat="38.084494024515152" lon="-8.642036039382219">
        <ele>284.20999999999998</ele>
        <time>2025-05-06T09:58:46Z</time>
      </trkpt>
      <trkpt lat="38.084338959306479" lon="-8.642068980261684">
        <ele>283.25</ele>
        <time>2025-05-06T09:58:47Z</time>
      </trkpt>
      <trkpt lat="38.084181966260076" lon="-8.642050037160516">
        <ele>282.76999999999998</ele>
        <time>2025-05-06T09:58:48Z</time>
      </trkpt>
      <trkpt lat="38.084008963778615" lon="-8.642008965834975">
        <ele>281.80000000000001</ele>
        <time>2025-05-06T09:58:49Z</time>
      </trkpt>
      <trkpt lat="38.083834033459425" lon="-8.641947023570538">
        <ele>281.31999999999999</ele>
        <time>2025-05-06T09:58:50Z</time>
      </trkpt>
      <trkpt lat="38.083650972694159" lon="-8.641866976395249">
        <ele>280.36000000000001</ele>
        <time>2025-05-06T09:58:51Z</time>
      </trkpt>
      <trkpt lat="38.082085987553" lon="-8.641248978674412">
        <ele>271.23000000000002</ele>
        <time>2025-05-06T09:58:59Z</time>
      </trkpt>
      <trkpt lat="38.081903010606766" lon="-8.641225006431341">
        <ele>269.79000000000002</ele>
        <time>2025-05-06T09:59:00Z</time>
      </trkpt>
      <trkpt lat="38.081731013953686" lon="-8.641234980896115">
        <ele>269.31</ele>
        <time>2025-05-06T09:59:01Z</time>
      </trkpt>
      <trkpt lat="38.081553988158703" lon="-8.641259958967567">
        <ele>268.35000000000002</ele>
        <time>2025-05-06T09:59:02Z</time>
      </trkpt>
      <trkpt lat="38.081365982070565" lon="-8.641302036121488">
        <ele>266.89999999999998</ele>
        <time>2025-05-06T09:59:03Z</time>
      </trkpt>
      <trkpt lat="38.080038037151098" lon="-8.641568999737501">
        <ele>263.06</ele>
        <time>2025-05-06T09:59:10Z</time>
      </trkpt>
      <trkpt lat="38.079856988042593" lon="-8.641580985859036">
        <ele>263.06</ele>
        <time>2025-05-06T09:59:11Z</time>
      </trkpt>
      <trkpt lat="38.078249003738165" lon="-8.641487024724484">
        <ele>265.45999999999998</ele>
        <time>2025-05-06T09:59:19Z</time>
      </trkpt>
      <trkpt lat="38.078102990984917" lon="-8.641529018059373">
        <ele>265.45999999999998</ele>
        <time>2025-05-06T09:59:20Z</time>
      </trkpt>
      <trkpt lat="38.077942980453372" lon="-8.641614010557532">
        <ele>265.94</ele>
        <time>2025-05-06T09:59:21Z</time>
      </trkpt>
      <trkpt lat="38.077088026329875" lon="-8.642113991081715">
        <ele>263.54000000000002</ele>
        <time>2025-05-06T09:59:26Z</time>
      </trkpt>
      <trkpt lat="38.076082030311227" lon="-8.643065001815558">
        <ele>259.20999999999998</ele>
        <time>2025-05-06T09:59:32Z</time>
      </trkpt>
      <trkpt lat="38.075548019260168" lon="-8.64362902007997">
        <ele>258.73000000000002</ele>
        <time>2025-05-06T09:59:36Z</time>
      </trkpt>
      <trkpt lat="38.075434025377035" lon="-8.643805962055922">
        <ele>259.20999999999998</ele>
        <time>2025-05-06T09:59:37Z</time>
      </trkpt>
      <trkpt lat="38.074441021308303" lon="-8.645425010472536">
        <ele>265.94</ele>
        <time>2025-05-06T09:59:45Z</time>
      </trkpt>
      <trkpt lat="38.073625965043902" lon="-8.646812969818711">
        <ele>274.11000000000001</ele>
        <time>2025-05-06T09:59:53Z</time>
      </trkpt>
      <trkpt lat="38.07297402061522" lon="-8.647906975820661">
        <ele>276.04000000000002</ele>
        <time>2025-05-06T10:00:02Z</time>
      </trkpt>
      <trkpt lat="38.072181008756161" lon="-8.649257970973849">
        <ele>277.95999999999998</ele>
        <time>2025-05-06T10:00:13Z</time>
      </trkpt>
      <trkpt lat="38.071305016055703" lon="-8.650737041607499">
        <ele>279.88</ele>
        <time>2025-05-06T10:00:25Z</time>
      </trkpt>
      <trkpt lat="38.070362973958254" lon="-8.652338990941644">
        <ele>276.51999999999998</ele>
        <time>2025-05-06T10:00:37Z</time>
      </trkpt>
      <trkpt lat="38.069422021508217" lon="-8.653921997174621">
        <ele>274.11000000000001</ele>
        <time>2025-05-06T10:00:45Z</time>
      </trkpt>
      <trkpt lat="38.068516021594405" lon="-8.655312974005938">
        <ele>271.23000000000002</ele>
        <time>2025-05-06T10:00:52Z</time>
      </trkpt>
      <trkpt lat="38.068348970264196" lon="-8.655459992587566">
        <ele>271.23000000000002</ele>
        <time>2025-05-06T10:00:53Z</time>
      </trkpt>
      <trkpt lat="38.066884987056255" lon="-8.656676961109042">
        <ele>264.01999999999998</ele>
        <time>2025-05-06T10:01:01Z</time>
      </trkpt>
      <trkpt lat="38.065978987142444" lon="-8.657133020460606">
        <ele>258.73000000000002</ele>
        <time>2025-05-06T10:01:06Z</time>
      </trkpt>
      <trkpt lat="38.065782012417912" lon="-8.657168978825212">
        <ele>257.76999999999998</ele>
        <time>2025-05-06T10:01:07Z</time>
      </trkpt>
      <trkpt lat="38.065388984978199" lon="-8.657240979373455">
        <ele>256.32999999999998</ele>
        <time>2025-05-06T10:01:09Z</time>
      </trkpt>
      <trkpt lat="38.065184969455004" lon="-8.65729596465826">
        <ele>255.84999999999999</ele>
        <time>2025-05-06T10:01:10Z</time>
      </trkpt>
      <trkpt lat="38.064976008608937" lon="-8.657355979084969">
        <ele>255.84999999999999</ele>
        <time>2025-05-06T10:01:11Z</time>
      </trkpt>
      <trkpt lat="38.064751960337162" lon="-8.657420016825199">
        <ele>255.84999999999999</ele>
        <time>2025-05-06T10:01:12Z</time>
      </trkpt>
      <trkpt lat="38.064539982005954" lon="-8.657437032088637">
        <ele>256.32999999999998</ele>
        <time>2025-05-06T10:01:13Z</time>
      </trkpt>
      <trkpt lat="38.062571994960308" lon="-8.657584972679615">
        <ele>263.54000000000002</ele>
        <time>2025-05-06T10:01:22Z</time>
      </trkpt>
      <trkpt lat="38.060623034834862" lon="-8.657499980181456">
        <ele>261.62</ele>
        <time>2025-05-06T10:01:31Z</time>
      </trkpt>
      <trkpt lat="38.057946022599936" lon="-8.657347010448575">
        <ele>255.84999999999999</ele>
        <time>2025-05-06T10:01:43Z</time>
      </trkpt>
      <trkpt lat="38.055984992533922" lon="-8.657450024038553">
        <ele>253.44</ele>
        <time>2025-05-06T10:01:52Z</time>
      </trkpt>
      <trkpt lat="38.054118007421494" lon="-8.657548008486629">
        <ele>246.22999999999999</ele>
        <time>2025-05-06T10:02:00Z</time>
      </trkpt>
      <trkpt lat="38.051796974614263" lon="-8.65748698823154">
        <ele>242.87</ele>
        <time>2025-05-06T10:02:10Z</time>
      </trkpt>
      <trkpt lat="38.051374023780227" lon="-8.657568041235209">
        <ele>241.91</ele>
        <time>2025-05-06T10:02:12Z</time>
      </trkpt>
      <trkpt lat="38.051164979115129" lon="-8.657640041783452">
        <ele>241.91</ele>
        <time>2025-05-06T10:02:13Z</time>
      </trkpt>
      <trkpt lat="38.050948977470398" lon="-8.657713970169425">
        <ele>241.91</ele>
        <time>2025-05-06T10:02:14Z</time>
      </trkpt>
      <trkpt lat="38.04856700822711" lon="-8.658746033906937">
        <ele>239.50999999999999</ele>
        <time>2025-05-06T10:02:25Z</time>
      </trkpt>
      <trkpt lat="38.04701903834939" lon="-8.6592279933393">
        <ele>240.47</ele>
        <time>2025-05-06T10:02:33Z</time>
      </trkpt>
      <trkpt lat="38.04684704169631" lon="-8.659322038292885">
        <ele>240.47</ele>
        <time>2025-05-06T10:02:34Z</time>
      </trkpt>
      <trkpt lat="38.046668004244566" lon="-8.659440977498889">
        <ele>240.47</ele>
        <time>2025-05-06T10:02:35Z</time>
      </trkpt>
      <trkpt lat="38.046325016766787" lon="-8.659669971093535">
        <ele>240.47</ele>
        <time>2025-05-06T10:02:37Z</time>
      </trkpt>
      <trkpt lat="38.046155031770468" lon="-8.659772984683514">
        <ele>240.47</ele>
        <time>2025-05-06T10:02:38Z</time>
      </trkpt>
      <trkpt lat="38.044920964166522" lon="-8.660270031541586">
        <ele>239.50999999999999</ele>
        <time>2025-05-06T10:02:45Z</time>
      </trkpt>
      <trkpt lat="38.044607983902097" lon="-8.660413026809692">
        <ele>239.50999999999999</ele>
        <time>2025-05-06T10:02:47Z</time>
      </trkpt>
      <trkpt lat="38.044467000290751" lon="-8.660530960187316">
        <ele>239.50999999999999</ele>
        <time>2025-05-06T10:02:48Z</time>
      </trkpt>
      <trkpt lat="38.044022005051374" lon="-8.660904038697481">
        <ele>239.99000000000001</ele>
        <time>2025-05-06T10:02:51Z</time>
      </trkpt>
      <trkpt lat="38.043895019218326" lon="-8.661042004823685">
        <ele>240.47</ele>
        <time>2025-05-06T10:02:52Z</time>
      </trkpt>
      <trkpt lat="38.043788988143206" lon="-8.661194974556565">
        <ele>240.94999999999999</ele>
        <time>2025-05-06T10:02:53Z</time>
      </trkpt>
      <trkpt lat="38.042986001819372" lon="-8.662417978048325">
        <ele>245.75</ele>
        <time>2025-05-06T10:03:00Z</time>
      </trkpt>
      <trkpt lat="38.042018981650472" lon="-8.663723040372133">
        <ele>251.03999999999999</ele>
        <time>2025-05-06T10:03:07Z</time>
      </trkpt>
      <trkpt lat="38.040757002308965" lon="-8.665292970836163">
        <ele>257.29000000000002</ele>
        <time>2025-05-06T10:03:16Z</time>
      </trkpt>
      <trkpt lat="38.039288995787501" lon="-8.667115028947592">
        <ele>254.88999999999999</ele>
        <time>2025-05-06T10:03:28Z</time>
      </trkpt>
      <trkpt lat="38.038388025015593" lon="-8.668183973059058">
        <ele>251.03999999999999</ele>
        <time>2025-05-06T10:03:36Z</time>
      </trkpt>
      <trkpt lat="38.03825399838388" lon="-8.668310958892107">
        <ele>251.03999999999999</ele>
        <time>2025-05-06T10:03:37Z</time>
      </trkpt>
      <trkpt lat="38.038092982023954" lon="-8.668413972482085">
        <ele>251.03999999999999</ele>
        <time>2025-05-06T10:03:38Z</time>
      </trkpt>
      <trkpt lat="38.03726602345705" lon="-8.668941026553512">
        <ele>252</ele>
        <time>2025-05-06T10:03:43Z</time>
      </trkpt>
      <trkpt lat="38.03713995963335" lon="-8.669075975194573">
        <ele>252</ele>
        <time>2025-05-06T10:03:44Z</time>
      </trkpt>
      <trkpt lat="38.03701096214354" lon="-8.669214025139809">
        <ele>252</ele>
        <time>2025-05-06T10:03:45Z</time>
      </trkpt>
      <trkpt lat="38.036880036816001" lon="-8.669384010136128">
        <ele>252.47999999999999</ele>
        <time>2025-05-06T10:03:46Z</time>
      </trkpt>
      <trkpt lat="38.036755984649062" lon="-8.66956003010273">
        <ele>252.96000000000001</ele>
        <time>2025-05-06T10:03:47Z</time>
      </trkpt>
      <trkpt lat="38.036638973280787" lon="-8.669724985957146">
        <ele>252.96000000000001</ele>
        <time>2025-05-06T10:03:48Z</time>
      </trkpt>
      <trkpt lat="38.036420037969947" lon="-8.670014999806881">
        <ele>253.93000000000001</ele>
        <time>2025-05-06T10:03:50Z</time>
      </trkpt>
      <trkpt lat="38.036290034651756" lon="-8.670105021446943">
        <ele>253.93000000000001</ele>
        <time>2025-05-06T10:03:51Z</time>
      </trkpt>
      <trkpt lat="38.036152990534902" lon="-8.670191019773483">
        <ele>253.93000000000001</ele>
        <time>2025-05-06T10:03:52Z</time>
      </trkpt>
      <trkpt lat="38.035985017195344" lon="-8.670232007279992">
        <ele>253.93000000000001</ele>
        <time>2025-05-06T10:03:53Z</time>
      </trkpt>
      <trkpt lat="38.035800028592348" lon="-8.670277018100023">
        <ele>253.93000000000001</ele>
        <time>2025-05-06T10:03:54Z</time>
      </trkpt>
      <trkpt lat="38.033832041546702" lon="-8.670766018331051">
        <ele>251.52000000000001</ele>
        <time>2025-05-06T10:04:04Z</time>
      </trkpt>
      <trkpt lat="38.033415041863918" lon="-8.670920999720693">
        <ele>253.44</ele>
        <time>2025-05-06T10:04:07Z</time>
      </trkpt>
      <trkpt lat="38.033300964161754" lon="-8.671003980562091">
        <ele>253.93000000000001</ele>
        <time>2025-05-06T10:04:08Z</time>
      </trkpt>
      <trkpt lat="38.033199040219188" lon="-8.671115040779114">
        <ele>254.41</ele>
        <time>2025-05-06T10:04:09Z</time>
      </trkpt>
      <trkpt lat="38.032416002824903" lon="-8.672078959643841">
        <ele>253.93000000000001</ele>
        <time>2025-05-06T10:04:15Z</time>
      </trkpt>
      <trkpt lat="38.031709995120764" lon="-8.672852022573352">
        <ele>252.47999999999999</ele>
        <time>2025-05-06T10:04:20Z</time>
      </trkpt>
      <trkpt lat="38.031540010124445" lon="-8.672983031719923">
        <ele>252</ele>
        <time>2025-05-06T10:04:21Z</time>
      </trkpt>
      <trkpt lat="38.030353970825672" lon="-8.673705970868468">
        <ele>253.93000000000001</ele>
        <time>2025-05-06T10:04:28Z</time>
      </trkpt>
      <trkpt lat="38.030030010268092" lon="-8.673818036913872">
        <ele>253.93000000000001</ele>
        <time>2025-05-06T10:04:30Z</time>
      </trkpt>
      <trkpt lat="38.029857007786632" lon="-8.673833962529898">
        <ele>253.93000000000001</ele>
        <time>2025-05-06T10:04:31Z</time>
      </trkpt>
      <trkpt lat="38.02850098349154" lon="-8.673885008320212">
        <ele>251.03999999999999</ele>
        <time>2025-05-06T10:04:39Z</time>
      </trkpt>
      <trkpt lat="38.028352037072182" lon="-8.673910992220044">
        <ele>250.56</ele>
        <time>2025-05-06T10:04:40Z</time>
      </trkpt>
      <trkpt lat="38.026967011392117" lon="-8.674390017986298">
        <ele>246.22999999999999</ele>
        <time>2025-05-06T10:04:48Z</time>
      </trkpt>
      <trkpt lat="38.025612998753786" lon="-8.674834007397294">
        <ele>253.44</ele>
        <time>2025-05-06T10:04:56Z</time>
      </trkpt>
      <trkpt lat="38.025460029020905" lon="-8.674825960770249">
        <ele>253.93000000000001</ele>
        <time>2025-05-06T10:04:57Z</time>
      </trkpt>
      <trkpt lat="38.025303035974503" lon="-8.674766030162573">
        <ele>254.41</ele>
        <time>2025-05-06T10:04:58Z</time>
      </trkpt>
      <trkpt lat="38.024904979392886" lon="-8.674522032961249">
        <ele>253.44</ele>
        <time>2025-05-06T10:05:01Z</time>
      </trkpt>
      <trkpt lat="38.024817975237966" lon="-8.674360010772944">
        <ele>252.96000000000001</ele>
        <time>2025-05-06T10:05:02Z</time>
      </trkpt>
      <trkpt lat="38.024755027145147" lon="-8.674242999404669">
        <ele>252.47999999999999</ele>
        <time>2025-05-06T10:05:03Z</time>
      </trkpt>
      <trkpt lat="38.024737006053329" lon="-8.674082988873124">
        <ele>251.52000000000001</ele>
        <time>2025-05-06T10:05:04Z</time>
      </trkpt>
      <trkpt lat="38.024716973304749" lon="-8.673896994441748">
        <ele>251.03999999999999</ele>
        <time>2025-05-06T10:05:05Z</time>
      </trkpt>
      <trkpt lat="38.024694006890059" lon="-8.673689961433411">
        <ele>250.56</ele>
        <time>2025-05-06T10:05:06Z</time>
      </trkpt>
      <trkpt lat="38.024628963321447" lon="-8.673110017552972">
        <ele>248.16</ele>
        <time>2025-05-06T10:05:09Z</time>
      </trkpt>
      <trkpt lat="38.024556040763855" lon="-8.672973979264498">
        <ele>247.68000000000001</ele>
        <time>2025-05-06T10:05:10Z</time>
      </trkpt>
      <trkpt lat="38.024476999416947" lon="-8.672850010916591">
        <ele>246.22999999999999</ele>
        <time>2025-05-06T10:05:11Z</time>
      </trkpt>
      <trkpt lat="38.024360993877053" lon="-8.672779016196728">
        <ele>245.75</ele>
        <time>2025-05-06T10:05:12Z</time>
      </trkpt>
      <trkpt lat="38.024233002215624" lon="-8.672702992334962">
        <ele>244.78999999999999</ele>
        <time>2025-05-06T10:05:13Z</time>
      </trkpt>
      <trkpt lat="38.023956986144185" lon="-8.67254801094532">
        <ele>243.83000000000001</ele>
        <time>2025-05-06T10:05:15Z</time>
      </trkpt>
      <trkpt lat="38.023814996704459" lon="-8.672412978485227">
        <ele>243.83000000000001</ele>
        <time>2025-05-06T10:05:16Z</time>
      </trkpt>
      <trkpt lat="38.023679964244366" lon="-8.672265959903598">
        <ele>243.83000000000001</ele>
        <time>2025-05-06T10:05:17Z</time>
      </trkpt>
      <trkpt lat="38.023549960926175" lon="-8.672123970463872">
        <ele>243.34999999999999</ele>
        <time>2025-05-06T10:05:18Z</time>
      </trkpt>
      <trkpt lat="38.023418029770255" lon="-8.672003019601107">
        <ele>243.34999999999999</ele>
        <time>2025-05-06T10:05:19Z</time>
      </trkpt>
      <trkpt lat="38.023272017017007" lon="-8.671958008781076">
        <ele>242.87</ele>
        <time>2025-05-06T10:05:20Z</time>
      </trkpt>
      <trkpt lat="38.023166991770267" lon="-8.67192498408258">
        <ele>242.38999999999999</ele>
        <time>2025-05-06T10:05:21Z</time>
      </trkpt>
      <trkpt lat="38.023026008158922" lon="-8.6720119882375">
        <ele>242.38999999999999</ele>
        <time>2025-05-06T10:05:22Z</time>
      </trkpt>
      <trkpt lat="38.022887958213687" lon="-8.67209698073566">
        <ele>241.91</ele>
        <time>2025-05-06T10:05:23Z</time>
      </trkpt>
      <trkpt lat="38.022772958502173" lon="-8.672233019024134">
        <ele>241.91</ele>
        <time>2025-05-06T10:05:24Z</time>
      </trkpt>
      <trkpt lat="38.022646978497505" lon="-8.672382971271873">
        <ele>241.43000000000001</ele>
        <time>2025-05-06T10:05:25Z</time>
      </trkpt>
      <trkpt lat="38.021815996617079" lon="-8.673661965876818">
        <ele>240.47</ele>
        <time>2025-05-06T10:05:32Z</time>
      </trkpt>
      <trkpt lat="38.021751958876848" lon="-8.673860030248761">
        <ele>240.94999999999999</ele>
        <time>2025-05-06T10:05:33Z</time>
      </trkpt>
      <trkpt lat="38.021692028269172" lon="-8.674047030508518">
        <ele>240.94999999999999</ele>
        <time>2025-05-06T10:05:34Z</time>
      </trkpt>
      <trkpt lat="38.021265976130962" lon="-8.676097998395562">
        <ele>238.53999999999999</ele>
        <time>2025-05-06T10:05:45Z</time>
      </trkpt>
      <trkpt lat="38.021335965022445" lon="-8.677535997703672">
        <ele>238.06</ele>
        <time>2025-05-06T10:05:52Z</time>
      </trkpt>
      <trkpt lat="38.021598989143968" lon="-8.679275996983051">
        <ele>243.34999999999999</ele>
        <time>2025-05-06T10:06:01Z</time>
      </trkpt>
      <trkpt lat="38.021585997194052" lon="-8.679639017209411">
        <ele>245.27000000000001</ele>
        <time>2025-05-06T10:06:03Z</time>
      </trkpt>
      <trkpt lat="38.021579040214419" lon="-8.679800033569336">
        <ele>245.75</ele>
        <time>2025-05-06T10:06:04Z</time>
      </trkpt>
      <trkpt lat="38.021506033837795" lon="-8.679932970553637">
        <ele>246.22999999999999</ele>
        <time>2025-05-06T10:06:05Z</time>
      </trkpt>
      <trkpt lat="38.021421963348985" lon="-8.680085018277168">
        <ele>246.72</ele>
        <time>2025-05-06T10:06:06Z</time>
      </trkpt>
      <trkpt lat="38.021331019699574" lon="-8.680250979959965">
        <ele>246.72</ele>
        <time>2025-05-06T10:06:07Z</time>
      </trkpt>
      <trkpt lat="38.021038994193077" lon="-8.680779961869121">
        <ele>246.72</ele>
        <time>2025-05-06T10:06:10Z</time>
      </trkpt>
      <trkpt lat="38.020969005301595" lon="-8.680976014584303">
        <ele>246.72</ele>
        <time>2025-05-06T10:06:11Z</time>
      </trkpt>
      <trkpt lat="38.020930029451847" lon="-8.681187992915511">
        <ele>246.22999999999999</ele>
        <time>2025-05-06T10:06:12Z</time>
      </trkpt>
      <trkpt lat="38.020916031673551" lon="-8.681409023702145">
        <ele>246.22999999999999</ele>
        <time>2025-05-06T10:06:13Z</time>
      </trkpt>
      <trkpt lat="38.020914020016789" lon="-8.681612033396959">
        <ele>246.22999999999999</ele>
        <time>2025-05-06T10:06:14Z</time>
      </trkpt>
      <trkpt lat="38.020914020016789" lon="-8.681797021999955">
        <ele>245.75</ele>
        <time>2025-05-06T10:06:15Z</time>
      </trkpt>
      <trkpt lat="38.020920976996422" lon="-8.682779967784882">
        <ele>245.27000000000001</ele>
        <time>2025-05-06T10:06:22Z</time>
      </trkpt>
      <trkpt lat="38.020871020853519" lon="-8.683511959388852">
        <ele>244.78999999999999</ele>
        <time>2025-05-06T10:06:27Z</time>
      </trkpt>
      <trkpt lat="38.020813018083572" lon="-8.683670964092016">
        <ele>244.78999999999999</ele>
        <time>2025-05-06T10:06:28Z</time>
      </trkpt>
      <trkpt lat="38.020763983950019" lon="-8.683803984895349">
        <ele>245.27000000000001</ele>
        <time>2025-05-06T10:06:29Z</time>
      </trkpt>
      <trkpt lat="38.020715033635497" lon="-8.683928037062287">
        <ele>245.75</ele>
        <time>2025-05-06T10:06:30Z</time>
      </trkpt>
      <trkpt lat="38.020630963146687" lon="-8.684038007631898">
        <ele>246.72</ele>
        <time>2025-05-06T10:06:31Z</time>
      </trkpt>
      <trkpt lat="38.020544964820147" lon="-8.68415099568665">
        <ele>247.19999999999999</ele>
        <time>2025-05-06T10:06:32Z</time>
      </trkpt>
      <trkpt lat="38.019754970446229" lon="-8.685099994763732">
        <ele>251.52000000000001</ele>
        <time>2025-05-06T10:06:41Z</time>
      </trkpt>
      <trkpt lat="38.019654974341393" lon="-8.68518196977675">
        <ele>252.47999999999999</ele>
        <time>2025-05-06T10:06:42Z</time>
      </trkpt>
      <trkpt lat="38.019555984064937" lon="-8.685263022780418">
        <ele>253.44</ele>
        <time>2025-05-06T10:06:43Z</time>
      </trkpt>
      <trkpt lat="38.019450036808848" lon="-8.685327982529998">
        <ele>253.93000000000001</ele>
        <time>2025-05-06T10:06:44Z</time>
      </trkpt>
      <trkpt lat="38.018298028036952" lon="-8.685830980539322">
        <ele>257.29000000000002</ele>
        <time>2025-05-06T10:06:54Z</time>
      </trkpt>
      <trkpt lat="38.018175987526774" lon="-8.685836009681225">
        <ele>257.29000000000002</ele>
        <time>2025-05-06T10:06:55Z</time>
      </trkpt>
      <trkpt lat="38.018056964501739" lon="-8.685841038823128">
        <ele>257.29000000000002</ele>
        <time>2025-05-06T10:06:56Z</time>
      </trkpt>
      <trkpt lat="38.017581040039659" lon="-8.68587096221745">
        <ele>255.84999999999999</ele>
        <time>2025-05-06T10:07:00Z</time>
      </trkpt>
      <trkpt lat="38.01745698787272" lon="-8.685884037986398">
        <ele>255.37</ele>
        <time>2025-05-06T10:07:01Z</time>
      </trkpt>
      <trkpt lat="38.016996989026666" lon="-8.686026027426124">
        <ele>254.41</ele>
        <time>2025-05-06T10:07:05Z</time>
      </trkpt>
      <trkpt lat="38.016900010406971" lon="-8.686099033802748">
        <ele>254.41</ele>
        <time>2025-05-06T10:07:06Z</time>
      </trkpt>
      <trkpt lat="38.016817029565573" lon="-8.686187965795398">
        <ele>254.41</ele>
        <time>2025-05-06T10:07:07Z</time>
      </trkpt>
      <trkpt lat="38.01674603484571" lon="-8.68629802018404">
        <ele>253.93000000000001</ele>
        <time>2025-05-06T10:07:08Z</time>
      </trkpt>
      <trkpt lat="38.016699012368917" lon="-8.686441015452147">
        <ele>253.93000000000001</ele>
        <time>2025-05-06T10:07:09Z</time>
      </trkpt>
      <trkpt lat="38.016650984063745" lon="-8.686589961871505">
        <ele>253.44</ele>
        <time>2025-05-06T10:07:10Z</time>
      </trkpt>
      <trkpt lat="38.016344960778952" lon="-8.687554970383644">
        <ele>251.03999999999999</ele>
        <time>2025-05-06T10:07:18Z</time>
      </trkpt>
      <trkpt lat="38.016289975494146" lon="-8.68752496317029">
        <ele>251.03999999999999</ele>
        <time>2025-05-06T10:07:19Z</time>
      </trkpt>
      <trkpt lat="38.016221998259425" lon="-8.68752496317029">
        <ele>250.56</ele>
        <time>2025-05-06T10:07:20Z</time>
      </trkpt>
      <trkpt lat="38.016142034903169" lon="-8.68752496317029">
        <ele>250.56</ele>
        <time>2025-05-06T10:07:21Z</time>
      </trkpt>
      <trkpt lat="38.016053019091487" lon="-8.68752496317029">
        <ele>251.03999999999999</ele>
        <time>2025-05-06T10:07:22Z</time>
      </trkpt>
      <trkpt lat="38.015956962481141" lon="-8.68752496317029">
        <ele>252</ele>
        <time>2025-05-06T10:07:23Z</time>
      </trkpt>
      <trkpt lat="38.015860989689827" lon="-8.68752496317029">
        <ele>252.47999999999999</ele>
        <time>2025-05-06T10:07:24Z</time>
      </trkpt>
      <trkpt lat="38.01556603051722" lon="-8.687478024512529">
        <ele>255.37</ele>
        <time>2025-05-06T10:07:28Z</time>
      </trkpt>
      <trkpt lat="38.014779975637794" lon="-8.687195973470807">
        <ele>255.84999999999999</ele>
        <time>2025-05-06T10:07:38Z</time>
      </trkpt>
      <trkpt lat="38.014590963721275" lon="-8.687121961265802">
        <ele>255.37</ele>
        <time>2025-05-06T10:07:40Z</time>
      </trkpt>
      <trkpt lat="38.013683035969734" lon="-8.686796994879842">
        <ele>256.81</ele>
        <time>2025-05-06T10:07:50Z</time>
      </trkpt>
      <trkpt lat="38.013585973531008" lon="-8.686776040121913">
        <ele>256.32999999999998</ele>
        <time>2025-05-06T10:07:51Z</time>
      </trkpt>
      <trkpt lat="38.013482037931681" lon="-8.686788026243448">
        <ele>256.32999999999998</ele>
        <time>2025-05-06T10:07:52Z</time>
      </trkpt>
      <trkpt lat="38.013367960229516" lon="-8.686805041506887">
        <ele>256.81</ele>
        <time>2025-05-06T10:07:53Z</time>
      </trkpt>
      <trkpt lat="38.013254972174764" lon="-8.686821972951293">
        <ele>257.29000000000002</ele>
        <time>2025-05-06T10:07:54Z</time>
      </trkpt>
      <trkpt lat="38.013146007433534" lon="-8.686837982386351">
        <ele>257.29000000000002</ele>
        <time>2025-05-06T10:07:55Z</time>
      </trkpt>
      <trkpt lat="38.013040982186794" lon="-8.686856003478169">
        <ele>257.29000000000002</ele>
        <time>2025-05-06T10:07:56Z</time>
      </trkpt>
      <trkpt lat="38.012318965047598" lon="-8.686967985704541">
        <ele>257.29000000000002</ele>
        <time>2025-05-06T10:08:04Z</time>
      </trkpt>
      <trkpt lat="38.011971032246947" lon="-8.686974020674825">
        <ele>254.88999999999999</ele>
        <time>2025-05-06T10:08:08Z</time>
      </trkpt>
      <trkpt lat="38.01186902448535" lon="-8.686975026503205">
        <ele>254.41</ele>
        <time>2025-05-06T10:08:09Z</time>
      </trkpt>
      <trkpt lat="38.011769028380513" lon="-8.686977038159967">
        <ele>253.93000000000001</ele>
        <time>2025-05-06T10:08:10Z</time>
      </trkpt>
      <trkpt lat="38.011661991477013" lon="-8.686978965997696">
        <ele>253.93000000000001</ele>
        <time>2025-05-06T10:08:11Z</time>
      </trkpt>
      <trkpt lat="38.011556966230273" lon="-8.686979971826077">
        <ele>253.93000000000001</ele>
        <time>2025-05-06T10:08:12Z</time>
      </trkpt>
      <trkpt lat="38.010322982445359" lon="-8.68694300763309">
        <ele>253.93000000000001</ele>
        <time>2025-05-06T10:08:23Z</time>
      </trkpt>
      <trkpt lat="38.009340036660433" lon="-8.686592979356647">
        <ele>255.84999999999999</ele>
        <time>2025-05-06T10:08:32Z</time>
      </trkpt>
      <trkpt lat="38.008682979270816" lon="-8.686322998255491">
        <ele>256.81</ele>
        <time>2025-05-06T10:08:39Z</time>
      </trkpt>
      <trkpt lat="38.008575020357966" lon="-8.686329033225775">
        <ele>257.29000000000002</ele>
        <time>2025-05-06T10:08:40Z</time>
      </trkpt>
      <trkpt lat="38.008463960140944" lon="-8.686334984377027">
        <ele>257.29000000000002</ele>
        <time>2025-05-06T10:08:41Z</time>
      </trkpt>
      <trkpt lat="38.008353989571333" lon="-8.686342025175691">
        <ele>257.76999999999998</ele>
        <time>2025-05-06T10:08:42Z</time>
      </trkpt>
      <trkpt lat="38.008242007344961" lon="-8.68636297993362">
        <ele>257.76999999999998</ele>
        <time>2025-05-06T10:08:43Z</time>
      </trkpt>
      <trkpt lat="38.007169961929321" lon="-8.686650982126594">
        <ele>259.20999999999998</ele>
        <time>2025-05-06T10:08:52Z</time>
      </trkpt>
      <trkpt lat="38.006337974220514" lon="-8.686928004026413">
        <ele>259.69</ele>
        <time>2025-05-06T10:09:00Z</time>
      </trkpt>
      <trkpt lat="38.006110992282629" lon="-8.68700897321105">
        <ele>260.64999999999998</ele>
        <time>2025-05-06T10:09:02Z</time>
      </trkpt>
      <trkpt lat="38.006000015884638" lon="-8.686982989311218">
        <ele>260.64999999999998</ele>
        <time>2025-05-06T10:09:03Z</time>
      </trkpt>
      <trkpt lat="38.005887027829885" lon="-8.686954993754625">
        <ele>261.13999999999999</ele>
        <time>2025-05-06T10:09:04Z</time>
      </trkpt>
      <trkpt lat="38.005776973441243" lon="-8.686910988762975">
        <ele>261.13999999999999</ele>
        <time>2025-05-06T10:09:05Z</time>
      </trkpt>
      <trkpt lat="38.005659962072968" lon="-8.68685700930655">
        <ele>261.13999999999999</ele>
        <time>2025-05-06T10:09:06Z</time>
      </trkpt>
      <trkpt lat="38.004829986020923" lon="-8.686464987695217">
        <ele>259.69</ele>
        <time>2025-05-06T10:09:13Z</time>
      </trkpt>
      <trkpt lat="38.004219029098749" lon="-8.686104984954">
        <ele>255.84999999999999</ele>
        <time>2025-05-06T10:09:19Z</time>
      </trkpt>
      <trkpt lat="38.004103023558855" lon="-8.686070032417774">
        <ele>255.37</ele>
        <time>2025-05-06T10:09:20Z</time>
      </trkpt>
      <trkpt lat="38.003988023847342" lon="-8.686072966083884">
        <ele>254.88999999999999</ele>
        <time>2025-05-06T10:09:21Z</time>
      </trkpt>
      <trkpt lat="38.003870006650686" lon="-8.686081012710929">
        <ele>253.93000000000001</ele>
        <time>2025-05-06T10:09:22Z</time>
      </trkpt>
      <trkpt lat="38.003775961697102" lon="-8.686098027974367">
        <ele>253.44</ele>
        <time>2025-05-06T10:09:23Z</time>
      </trkpt>
      <trkpt lat="38.003711001947522" lon="-8.686146978288889">
        <ele>252.47999999999999</ele>
        <time>2025-05-06T10:09:24Z</time>
      </trkpt>
      <trkpt lat="38.003652999177575" lon="-8.68619098328054">
        <ele>252</ele>
        <time>2025-05-06T10:09:25Z</time>
      </trkpt>
      <trkpt lat="38.003592984750867" lon="-8.686235994100571">
        <ele>251.52000000000001</ele>
        <time>2025-05-06T10:09:26Z</time>
      </trkpt>
      <trkpt lat="38.003530958667397" lon="-8.686314029619098">
        <ele>250.56</ele>
        <time>2025-05-06T10:09:27Z</time>
      </trkpt>
      <trkpt lat="38.003520984202623" lon="-8.686430035158992">
        <ele>250.08000000000001</ele>
        <time>2025-05-06T10:09:28Z</time>
      </trkpt>
      <trkpt lat="38.003526013344526" lon="-8.68657898157835">
        <ele>250.08000000000001</ele>
        <time>2025-05-06T10:09:29Z</time>
      </trkpt>
      <trkpt lat="38.003568006679416" lon="-8.686704961583018">
        <ele>249.59999999999999</ele>
        <time>2025-05-06T10:09:30Z</time>
      </trkpt>
      <trkpt lat="38.003612011671066" lon="-8.686838988214731">
        <ele>249.59999999999999</ele>
        <time>2025-05-06T10:09:31Z</time>
      </trkpt>
      <trkpt lat="38.003630032762885" lon="-8.687000004574657">
        <ele>249.59999999999999</ele>
        <time>2025-05-06T10:09:32Z</time>
      </trkpt>
      <trkpt lat="38.003606982529163" lon="-8.687165966257453">
        <ele>249.59999999999999</ele>
        <time>2025-05-06T10:09:33Z</time>
      </trkpt>
      <trkpt lat="38.003582004457712" lon="-8.687345003709197">
        <ele>249.12</ele>
        <time>2025-05-06T10:09:34Z</time>
      </trkpt>
      <trkpt lat="38.003443032503128" lon="-8.688075989484787">
        <ele>246.72</ele>
        <time>2025-05-06T10:09:38Z</time>
      </trkpt>
      <trkpt lat="38.00336399115622" lon="-8.688190989196301">
        <ele>245.75</ele>
        <time>2025-05-06T10:09:39Z</time>
      </trkpt>
      <trkpt lat="38.003245973959565" lon="-8.688273970037699">
        <ele>244.78999999999999</ele>
        <time>2025-05-06T10:09:40Z</time>
      </trkpt>
      <trkpt lat="38.003117982298136" lon="-8.688364997506142">
        <ele>243.83000000000001</ele>
        <time>2025-05-06T10:09:41Z</time>
      </trkpt>
      <trkpt lat="38.00297599285841" lon="-8.688446972519159">
        <ele>242.87</ele>
        <time>2025-05-06T10:09:42Z</time>
      </trkpt>
      <trkpt lat="38.002555975690484" lon="-8.688703961670399">
        <ele>239.99000000000001</ele>
        <time>2025-05-06T10:09:45Z</time>
      </trkpt>
      <trkpt lat="38.002465032041073" lon="-8.688835976645351">
        <ele>239.02000000000001</ele>
        <time>2025-05-06T10:09:46Z</time>
      </trkpt>
      <trkpt lat="38.002395965158939" lon="-8.68896396830678">
        <ele>238.06</ele>
        <time>2025-05-06T10:09:47Z</time>
      </trkpt>
      <trkpt lat="38.002395965158939" lon="-8.689110986888409">
        <ele>237.09999999999999</ele>
        <time>2025-05-06T10:09:48Z</time>
      </trkpt>
      <trkpt lat="38.002422032877803" lon="-8.689233027398586">
        <ele>236.62</ele>
        <time>2025-05-06T10:09:49Z</time>
      </trkpt>
      <trkpt lat="38.002470983192325" lon="-8.689379040151835">
        <ele>236.13999999999999</ele>
        <time>2025-05-06T10:09:50Z</time>
      </trkpt>
      <trkpt lat="38.002561004832387" lon="-8.689508959650993">
        <ele>235.18000000000001</ele>
        <time>2025-05-06T10:09:51Z</time>
      </trkpt>
      <trkpt lat="38.002671981230378" lon="-8.689644997939467">
        <ele>233.74000000000001</ele>
        <time>2025-05-06T10:09:52Z</time>
      </trkpt>
      <trkpt lat="38.002797039225698" lon="-8.689765026792884">
        <ele>232.78</ele>
        <time>2025-05-06T10:09:53Z</time>
      </trkpt>
      <trkpt lat="38.003047993406653" lon="-8.690002989023924">
        <ele>230.37</ele>
        <time>2025-05-06T10:09:55Z</time>
      </trkpt>
      <trkpt lat="38.003177996724844" lon="-8.690083036199212">
        <ele>229.41</ele>
        <time>2025-05-06T10:09:56Z</time>
      </trkpt>
      <trkpt lat="38.003317974507809" lon="-8.690140033140779">
        <ele>228.44999999999999</ele>
        <time>2025-05-06T10:09:57Z</time>
      </trkpt>
      <trkpt lat="38.003462981432676" lon="-8.690181020647287">
        <ele>227.49000000000001</ele>
        <time>2025-05-06T10:09:58Z</time>
      </trkpt>
      <trkpt lat="38.003604970872402" lon="-8.690221002325416">
        <ele>226.53</ele>
        <time>2025-05-06T10:09:59Z</time>
      </trkpt>
      <trkpt lat="38.003740003332496" lon="-8.690282022580504">
        <ele>226.05000000000001</ele>
        <time>2025-05-06T10:10:00Z</time>
      </trkpt>
      <trkpt lat="38.003864977508783" lon="-8.690396016463637">
        <ele>224.61000000000001</ele>
        <time>2025-05-06T10:10:01Z</time>
      </trkpt>
      <trkpt lat="38.003995986655354" lon="-8.690515961498022">
        <ele>223.63999999999999</ele>
        <time>2025-05-06T10:10:02Z</time>
      </trkpt>
      <trkpt lat="38.004129007458687" lon="-8.6906380020082">
        <ele>222.68000000000001</ele>
        <time>2025-05-06T10:10:03Z</time>
      </trkpt>
      <trkpt lat="38.004407035186887" lon="-8.690900020301342">
        <ele>220.28</ele>
        <time>2025-05-06T10:10:05Z</time>
      </trkpt>
      <trkpt lat="38.005443960428238" lon="-8.691794034093618">
        <ele>209.22</ele>
        <time>2025-05-06T10:10:13Z</time>
      </trkpt>
      <trkpt lat="38.006081990897655" lon="-8.692287979647517">
        <ele>202.49000000000001</ele>
        <time>2025-05-06T10:10:20Z</time>
      </trkpt>
      <trkpt lat="38.006236972287297" lon="-8.692391999065876">
        <ele>201.05000000000001</ele>
        <time>2025-05-06T10:10:22Z</time>
      </trkpt>
      <trkpt lat="38.00630796700716" lon="-8.692419994622469">
        <ele>200.56999999999999</ele>
        <time>2025-05-06T10:10:23Z</time>
      </trkpt>
      <trkpt lat="38.00636999309063" lon="-8.69244396686554">
        <ele>200.09</ele>
        <time>2025-05-06T10:10:24Z</time>
      </trkpt>
      <trkpt lat="38.006408968940377" lon="-8.692459976300597">
        <ele>199.61000000000001</ele>
        <time>2025-05-06T10:10:25Z</time>
      </trkpt>
      <trkpt lat="38.006536960601807" lon="-8.692416977137327">
        <ele>199.13</ele>
        <time>2025-05-06T10:10:26Z</time>
      </trkpt>
      <trkpt lat="38.006565039977431" lon="-8.69244497269392">
        <ele>198.65000000000001</ele>
        <time>2025-05-06T10:10:27Z</time>
      </trkpt>
      <trkpt lat="38.006610972806811" lon="-8.692540023475885">
        <ele>198.65000000000001</ele>
        <time>2025-05-06T10:10:28Z</time>
      </trkpt>
      <trkpt lat="38.00658599473536" lon="-8.692660974338651">
        <ele>198.16999999999999</ele>
        <time>2025-05-06T10:10:29Z</time>
      </trkpt>
      <trkpt lat="38.006559005007148" lon="-8.692696010693908">
        <ele>198.16999999999999</ele>
        <time>2025-05-06T10:10:30Z</time>
      </trkpt>
      <trkpt lat="38.00643403083086" lon="-8.692691987380385">
        <ele>198.16999999999999</ele>
        <time>2025-05-06T10:10:31Z</time>
      </trkpt>
      <trkpt lat="38.00636999309063" lon="-8.692756025120616">
        <ele>197.69</ele>
        <time>2025-05-06T10:10:32Z</time>
      </trkpt>
      <trkpt lat="38.006291035562754" lon="-8.692834982648492">
        <ele>197.69</ele>
        <time>2025-05-06T10:10:33Z</time>
      </trkpt>
      <trkpt lat="38.005993980914354" lon="-8.693094989284873">
        <ele>198.16999999999999</ele>
        <time>2025-05-06T10:10:36Z</time>
      </trkpt>
      <trkpt lat="38.00587504170835" lon="-8.69315299205482">
        <ele>199.13</ele>
        <time>2025-05-06T10:10:37Z</time>
      </trkpt>
      <trkpt lat="38.005745960399508" lon="-8.69319599121809">
        <ele>200.56999999999999</ele>
        <time>2025-05-06T10:10:38Z</time>
      </trkpt>
      <trkpt lat="38.005488971248269" lon="-8.693234967067838">
        <ele>202.97999999999999</ele>
        <time>2025-05-06T10:10:40Z</time>
      </trkpt>
      <trkpt lat="38.004768965765834" lon="-8.693293975666165">
        <ele>208.74000000000001</ele>
        <time>2025-05-06T10:10:45Z</time>
      </trkpt>
      <trkpt lat="38.004617001861334" lon="-8.693347033113241">
        <ele>209.69999999999999</ele>
        <time>2025-05-06T10:10:46Z</time>
      </trkpt>
      <trkpt lat="38.003640007227659" lon="-8.693716004490852">
        <ele>214.50999999999999</ele>
        <time>2025-05-06T10:10:53Z</time>
      </trkpt>
      <trkpt lat="38.003500029444695" lon="-8.693727990612388">
        <ele>214.99000000000001</ele>
        <time>2025-05-06T10:10:54Z</time>
      </trkpt>
      <trkpt lat="38.00252596847713" lon="-8.693813988938928">
        <ele>221.24000000000001</ele>
        <time>2025-05-06T10:11:02Z</time>
      </trkpt>
      <trkpt lat="38.001861032098532" lon="-8.693967964500189">
        <ele>227.00999999999999</ele>
        <time>2025-05-06T10:11:07Z</time>
      </trkpt>
      <trkpt lat="38.00175198353827" lon="-8.694048011675477">
        <ele>227.97</ele>
        <time>2025-05-06T10:11:08Z</time>
      </trkpt>
      <trkpt lat="38.001645030453801" lon="-8.694154964759946">
        <ele>228.93000000000001</ele>
        <time>2025-05-06T10:11:09Z</time>
      </trkpt>
      <trkpt lat="38.001587027683854" lon="-8.694282034412026">
        <ele>230.37</ele>
        <time>2025-05-06T10:11:10Z</time>
      </trkpt>
      <trkpt lat="38.001522989943624" lon="-8.694424023851752">
        <ele>231.81</ele>
        <time>2025-05-06T10:11:11Z</time>
      </trkpt>
      <trkpt lat="38.001460041850805" lon="-8.694561989977956">
        <ele>233.25999999999999</ele>
        <time>2025-05-06T10:11:12Z</time>
      </trkpt>
      <trkpt lat="38.001367002725601" lon="-8.694685958325863">
        <ele>234.69999999999999</ele>
        <time>2025-05-06T10:11:13Z</time>
      </trkpt>
      <trkpt lat="38.001258037984371" lon="-8.69478696025908">
        <ele>235.66</ele>
        <time>2025-05-06T10:11:14Z</time>
      </trkpt>
      <trkpt lat="38.001140020787716" lon="-8.694887962192297">
        <ele>237.09999999999999</ele>
        <time>2025-05-06T10:11:15Z</time>
      </trkpt>
      <trkpt lat="38.001001970842481" lon="-8.694930961355567">
        <ele>238.06</ele>
        <time>2025-05-06T10:11:16Z</time>
      </trkpt>
      <trkpt lat="38.000856041908264" lon="-8.694967003539205">
        <ele>239.02000000000001</ele>
        <time>2025-05-06T10:11:17Z</time>
      </trkpt>
      <trkpt lat="38.00069997087121" lon="-8.69493599049747">
        <ele>240.47</ele>
        <time>2025-05-06T10:11:18Z</time>
      </trkpt>
      <trkpt lat="38.000549012795091" lon="-8.694855021312833">
        <ele>240.94999999999999</ele>
        <time>2025-05-06T10:11:19Z</time>
      </trkpt>
      <trkpt lat="38.000386990606785" lon="-8.694746978580952">
        <ele>241.91</ele>
        <time>2025-05-06T10:11:20Z</time>
      </trkpt>
      <trkpt lat="38.000208958983421" lon="-8.694639019668102">
        <ele>242.38999999999999</ele>
        <time>2025-05-06T10:11:21Z</time>
      </trkpt>
      <trkpt lat="38.000025982037187" lon="-8.694547992199659">
        <ele>242.87</ele>
        <time>2025-05-06T10:11:22Z</time>
      </trkpt>
      <trkpt lat="37.999830013141036" lon="-8.694519996643066">
        <ele>242.87</ele>
        <time>2025-05-06T10:11:23Z</time>
      </trkpt>
      <trkpt lat="37.999648964032531" lon="-8.694519996643066">
        <ele>243.34999999999999</ele>
        <time>2025-05-06T10:11:24Z</time>
      </trkpt>
      <trkpt lat="37.999440003186464" lon="-8.694567019119859">
        <ele>243.34999999999999</ele>
        <time>2025-05-06T10:11:25Z</time>
      </trkpt>
      <trkpt lat="37.99923799932003" lon="-8.69461202993989">
        <ele>243.34999999999999</ele>
        <time>2025-05-06T10:11:26Z</time>
      </trkpt>
      <trkpt lat="37.998225968331099" lon="-8.694838006049395">
        <ele>247.19999999999999</ele>
        <time>2025-05-06T10:11:32Z</time>
      </trkpt>
      <trkpt lat="37.997576035559177" lon="-8.694967003539205">
        <ele>252.47999999999999</ele>
        <time>2025-05-06T10:11:39Z</time>
      </trkpt>
      <trkpt lat="37.997021991759539" lon="-8.694878993555903">
        <ele>252.47999999999999</ele>
        <time>2025-05-06T10:11:45Z</time>
      </trkpt>
      <trkpt lat="37.996919983997941" lon="-8.694856027141213">
        <ele>252</ele>
        <time>2025-05-06T10:11:46Z</time>
      </trkpt>
      <trkpt lat="37.996391002088785" lon="-8.694734992459416">
        <ele>248.63999999999999</ele>
        <time>2025-05-06T10:11:51Z</time>
      </trkpt>
      <trkpt lat="37.996290000155568" lon="-8.694668021053076">
        <ele>248.16</ele>
        <time>2025-05-06T10:11:52Z</time>
      </trkpt>
      <trkpt lat="37.996184974908829" lon="-8.694596020504832">
        <ele>247.68000000000001</ele>
        <time>2025-05-06T10:11:53Z</time>
      </trkpt>
      <trkpt lat="37.995505034923553" lon="-8.694129986688495">
        <ele>244.31</ele>
        <time>2025-05-06T10:12:01Z</time>
      </trkpt>
      <trkpt lat="37.995229018852115" lon="-8.693940974771977">
        <ele>243.34999999999999</ele>
        <time>2025-05-06T10:12:04Z</time>
      </trkpt>
      <trkpt lat="37.995145032182336" lon="-8.693920020014048">
        <ele>243.34999999999999</ele>
        <time>2025-05-06T10:12:05Z</time>
      </trkpt>
      <trkpt lat="37.994314972311258" lon="-8.693708963692188">
        <ele>244.31</ele>
        <time>2025-05-06T10:12:11Z</time>
      </trkpt>
      <trkpt lat="37.993607958778739" lon="-8.693592958152294">
        <ele>245.27000000000001</ele>
        <time>2025-05-06T10:12:16Z</time>
      </trkpt>
      <trkpt lat="37.99345700070262" lon="-8.693606033921242">
        <ele>246.22999999999999</ele>
        <time>2025-05-06T10:12:17Z</time>
      </trkpt>
      <trkpt lat="37.993303025141358" lon="-8.693624977022409">
        <ele>246.72</ele>
        <time>2025-05-06T10:12:18Z</time>
      </trkpt>
      <trkpt lat="37.992474976927042" lon="-8.693933011963964">
        <ele>250.56</ele>
        <time>2025-05-06T10:12:25Z</time>
      </trkpt>
      <trkpt lat="37.99161097034812" lon="-8.694263007491827">
        <ele>254.88999999999999</ele>
        <time>2025-05-06T10:12:32Z</time>
      </trkpt>
      <trkpt lat="37.990949973464012" lon="-8.694457970559597">
        <ele>258.25</ele>
        <time>2025-05-06T10:12:36Z</time>
      </trkpt>
      <trkpt lat="37.990770014002919" lon="-8.6944629997015">
        <ele>258.73000000000002</ele>
        <time>2025-05-06T10:12:37Z</time>
      </trkpt>
      <trkpt lat="37.990233991295099" lon="-8.694388987496495">
        <ele>261.13999999999999</ele>
        <time>2025-05-06T10:12:40Z</time>
      </trkpt>
      <trkpt lat="37.99008697271347" lon="-8.694361997768283">
        <ele>262.10000000000002</ele>
        <time>2025-05-06T10:12:41Z</time>
      </trkpt>
      <trkpt lat="37.98987197689712" lon="-8.694233000278473">
        <ele>263.54000000000002</ele>
        <time>2025-05-06T10:12:43Z</time>
      </trkpt>
      <trkpt lat="37.989776004105806" lon="-8.694174997508526">
        <ele>264.01999999999998</ele>
        <time>2025-05-06T10:12:44Z</time>
      </trkpt>
      <trkpt lat="37.989671984687448" lon="-8.694111965596676">
        <ele>264.98000000000002</ele>
        <time>2025-05-06T10:12:45Z</time>
      </trkpt>
      <trkpt lat="37.989592021331191" lon="-8.694010963663459">
        <ele>265.94</ele>
        <time>2025-05-06T10:12:46Z</time>
      </trkpt>
      <trkpt lat="37.989495964720845" lon="-8.693891018629074">
        <ele>266.42000000000002</ele>
        <time>2025-05-06T10:12:47Z</time>
      </trkpt>
      <trkpt lat="37.989043006673455" lon="-8.693375028669834">
        <ele>268.35000000000002</ele>
        <time>2025-05-06T10:12:51Z</time>
      </trkpt>
      <trkpt lat="37.988890958949924" lon="-8.693319959565997">
        <ele>268.82999999999998</ele>
        <time>2025-05-06T10:12:52Z</time>
      </trkpt>
      <trkpt lat="37.988743018358946" lon="-8.693308979272842">
        <ele>269.31</ele>
        <time>2025-05-06T10:12:53Z</time>
      </trkpt>
      <trkpt lat="37.988598011434078" lon="-8.693333035334945">
        <ele>270.26999999999998</ele>
        <time>2025-05-06T10:12:54Z</time>
      </trkpt>
      <trkpt lat="37.988477982580662" lon="-8.693406963720918">
        <ele>270.75</ele>
        <time>2025-05-06T10:12:55Z</time>
      </trkpt>
      <trkpt lat="37.988374968990684" lon="-8.693518023937941">
        <ele>271.70999999999998</ele>
        <time>2025-05-06T10:12:56Z</time>
      </trkpt>
      <trkpt lat="37.988288970664144" lon="-8.69366898201406">
        <ele>272.67000000000002</ele>
        <time>2025-05-06T10:12:57Z</time>
      </trkpt>
      <trkpt lat="37.988224010914564" lon="-8.693863023072481">
        <ele>274.11000000000001</ele>
        <time>2025-05-06T10:12:58Z</time>
      </trkpt>
      <trkpt lat="37.988155027851462" lon="-8.694069972261787">
        <ele>275.06999999999999</ele>
        <time>2025-05-06T10:12:59Z</time>
      </trkpt>
      <trkpt lat="37.987773986533284" lon="-8.695132965222001">
        <ele>279.39999999999998</ele>
        <time>2025-05-06T10:13:04Z</time>
      </trkpt>
      <trkpt lat="37.987685976549983" lon="-8.695296999067068">
        <ele>279.88</ele>
        <time>2025-05-06T10:13:05Z</time>
      </trkpt>
      <trkpt lat="37.987562008202076" lon="-8.69542901404202">
        <ele>279.39999999999998</ele>
        <time>2025-05-06T10:13:06Z</time>
      </trkpt>
      <trkpt lat="37.987412977963686" lon="-8.695547031238675">
        <ele>279.39999999999998</ele>
        <time>2025-05-06T10:13:07Z</time>
      </trkpt>
      <trkpt lat="37.987250033766031" lon="-8.695655995979905">
        <ele>279.39999999999998</ele>
        <time>2025-05-06T10:13:08Z</time>
      </trkpt>
      <trkpt lat="37.986130965873599" lon="-8.696257984265685">
        <ele>276.51999999999998</ele>
        <time>2025-05-06T10:13:14Z</time>
      </trkpt>
      <trkpt lat="37.985951006412506" lon="-8.696279022842646">
        <ele>276.04000000000002</ele>
        <time>2025-05-06T10:13:15Z</time>
      </trkpt>
      <trkpt lat="37.985742967575788" lon="-8.696302995085716">
        <ele>275.56</ele>
        <time>2025-05-06T10:13:16Z</time>
      </trkpt>
      <trkpt lat="37.985539035871625" lon="-8.696324033662677">
        <ele>275.06999999999999</ele>
        <time>2025-05-06T10:13:17Z</time>
      </trkpt>
      <trkpt lat="37.985339965671301" lon="-8.696329984813929">
        <ele>274.58999999999997</ele>
        <time>2025-05-06T10:13:18Z</time>
      </trkpt>
      <trkpt lat="37.985149025917053" lon="-8.696336019784212">
        <ele>274.58999999999997</ele>
        <time>2025-05-06T10:13:19Z</time>
      </trkpt>
      <trkpt lat="37.984958002343774" lon="-8.696341970935464">
        <ele>274.11000000000001</ele>
        <time>2025-05-06T10:13:20Z</time>
      </trkpt>
      <trkpt lat="37.984763039276004" lon="-8.696296038106084">
        <ele>273.63</ele>
        <time>2025-05-06T10:13:21Z</time>
      </trkpt>
      <trkpt lat="37.983451019972563" lon="-8.695844002068043">
        <ele>272.67000000000002</ele>
        <time>2025-05-06T10:13:27Z</time>
      </trkpt>
      <trkpt lat="37.981854015961289" lon="-8.695269003510475">
        <ele>273.63</ele>
        <time>2025-05-06T10:13:34Z</time>
      </trkpt>
      <trkpt lat="37.981282034888864" lon="-8.695099018514156">
        <ele>274.58999999999997</ele>
        <time>2025-05-06T10:13:37Z</time>
      </trkpt>
      <trkpt lat="37.979424018412828" lon="-8.694860972464085">
        <ele>277</ele>
        <time>2025-05-06T10:13:46Z</time>
      </trkpt>
      <trkpt lat="37.978316014632583" lon="-8.695080997422338">
        <ele>278.92000000000002</ele>
        <time>2025-05-06T10:13:52Z</time>
      </trkpt>
      <trkpt lat="37.978146029636264" lon="-8.695176970213652">
        <ele>279.39999999999998</ele>
        <time>2025-05-06T10:13:53Z</time>
      </trkpt>
      <trkpt lat="37.977984007447958" lon="-8.695290964096785">
        <ele>279.39999999999998</ele>
        <time>2025-05-06T10:13:54Z</time>
      </trkpt>
      <trkpt lat="37.977846041321754" lon="-8.695421973243356">
        <ele>279.88</ele>
        <time>2025-05-06T10:13:55Z</time>
      </trkpt>
      <trkpt lat="37.977739004418254" lon="-8.695572009310126">
        <ele>280.36000000000001</ele>
        <time>2025-05-06T10:13:56Z</time>
      </trkpt>
      <trkpt lat="37.977633979171515" lon="-8.695721961557865">
        <ele>280.83999999999997</ele>
        <time>2025-05-06T10:13:57Z</time>
      </trkpt>
      <trkpt lat="37.97756097279489" lon="-8.695893958210945">
        <ele>281.31999999999999</ele>
        <time>2025-05-06T10:13:58Z</time>
      </trkpt>
      <trkpt lat="37.977331979200244" lon="-8.696435010060668">
        <ele>282.27999999999997</ele>
        <time>2025-05-06T10:14:01Z</time>
      </trkpt>
      <trkpt lat="37.977187978103757" lon="-8.696975978091359">
        <ele>281.80000000000001</ele>
        <time>2025-05-06T10:14:04Z</time>
      </trkpt>
      <trkpt lat="37.977115977555513" lon="-8.697131965309382">
        <ele>281.31999999999999</ele>
        <time>2025-05-06T10:14:05Z</time>
      </trkpt>
      <trkpt lat="37.977016987279058" lon="-8.697259034961462">
        <ele>280.83999999999997</ele>
        <time>2025-05-06T10:14:06Z</time>
      </trkpt>
      <trkpt lat="37.976882960647345" lon="-8.697315026074648">
        <ele>279.88</ele>
        <time>2025-05-06T10:14:07Z</time>
      </trkpt>
      <trkpt lat="37.976744994521141" lon="-8.697366993874311">
        <ele>279.39999999999998</ele>
        <time>2025-05-06T10:14:08Z</time>
      </trkpt>
      <trkpt lat="37.976619014516473" lon="-8.697438994422555">
        <ele>278.92000000000002</ele>
        <time>2025-05-06T10:14:09Z</time>
      </trkpt>
      <trkpt lat="37.97650502063334" lon="-8.697537984699011">
        <ele>278.44</ele>
        <time>2025-05-06T10:14:10Z</time>
      </trkpt>
      <trkpt lat="37.976445006206632" lon="-8.69766203686595">
        <ele>277.95999999999998</ele>
        <time>2025-05-06T10:14:11Z</time>
      </trkpt>
      <trkpt lat="37.976406030356884" lon="-8.697798997163773">
        <ele>277.95999999999998</ele>
        <time>2025-05-06T10:14:12Z</time>
      </trkpt>
      <trkpt lat="37.976392032578588" lon="-8.697984991595149">
        <ele>277.48000000000002</ele>
        <time>2025-05-06T10:14:13Z</time>
      </trkpt>
      <trkpt lat="37.976412987336516" lon="-8.69815799407661">
        <ele>277</ele>
        <time>2025-05-06T10:14:14Z</time>
      </trkpt>
      <trkpt lat="37.976449029520154" lon="-8.698363015428186">
        <ele>276.51999999999998</ele>
        <time>2025-05-06T10:14:15Z</time>
      </trkpt>
      <trkpt lat="37.976486999541521" lon="-8.698586979880929">
        <ele>276.04000000000002</ele>
        <time>2025-05-06T10:14:16Z</time>
      </trkpt>
      <trkpt lat="37.976514995098114" lon="-8.698819996789098">
        <ele>275.56</ele>
        <time>2025-05-06T10:14:17Z</time>
      </trkpt>
      <trkpt lat="37.976502003148198" lon="-8.699047984555364">
        <ele>274.58999999999997</ele>
        <time>2025-05-06T10:14:18Z</time>
      </trkpt>
      <trkpt lat="37.976488005369902" lon="-8.699288964271545">
        <ele>273.63</ele>
        <time>2025-05-06T10:14:19Z</time>
      </trkpt>
      <trkpt lat="37.976473001763225" lon="-8.69953497312963">
        <ele>272.67000000000002</ele>
        <time>2025-05-06T10:14:20Z</time>
      </trkpt>
      <trkpt lat="37.976444000378251" lon="-8.700035037472844">
        <ele>269.79000000000002</ele>
        <time>2025-05-06T10:14:22Z</time>
      </trkpt>
      <trkpt lat="37.976452969014645" lon="-8.700945982709527">
        <ele>265.45999999999998</ele>
        <time>2025-05-06T10:14:26Z</time>
      </trkpt>
      <trkpt lat="37.976392032578588" lon="-8.701111022382975">
        <ele>264.01999999999998</ele>
        <time>2025-05-06T10:14:27Z</time>
      </trkpt>
      <trkpt lat="37.976307962089777" lon="-8.701235996559262">
        <ele>262.57999999999998</ele>
        <time>2025-05-06T10:14:28Z</time>
      </trkpt>
      <trkpt lat="37.976202014833689" lon="-8.701347978785634">
        <ele>261.13999999999999</ele>
        <time>2025-05-06T10:14:29Z</time>
      </trkpt>
      <trkpt lat="37.976092966273427" lon="-8.701462978497148">
        <ele>260.17000000000002</ele>
        <time>2025-05-06T10:14:30Z</time>
      </trkpt>
      <trkpt lat="37.9759890306741" lon="-8.701593987643719">
        <ele>258.73000000000002</ele>
        <time>2025-05-06T10:14:31Z</time>
      </trkpt>
      <trkpt lat="37.975919963791966" lon="-8.701773025095463">
        <ele>257.29000000000002</ele>
        <time>2025-05-06T10:14:32Z</time>
      </trkpt>
      <trkpt lat="37.975844023749232" lon="-8.701973017305136">
        <ele>255.84999999999999</ele>
        <time>2025-05-06T10:14:33Z</time>
      </trkpt>
      <trkpt lat="37.975375978276134" lon="-8.703326024115086">
        <ele>247.68000000000001</ele>
        <time>2025-05-06T10:14:39Z</time>
      </trkpt>
      <trkpt lat="37.975273970514536" lon="-8.703511012718082">
        <ele>246.72</ele>
        <time>2025-05-06T10:14:40Z</time>
      </trkpt>
      <trkpt lat="37.975143967196345" lon="-8.703640010207892">
        <ele>245.75</ele>
        <time>2025-05-06T10:14:41Z</time>
      </trkpt>
      <trkpt lat="37.974998038262129" lon="-8.703756015747786">
        <ele>245.75</ele>
        <time>2025-05-06T10:14:42Z</time>
      </trkpt>
      <trkpt lat="37.974842973053455" lon="-8.703866992145777">
        <ele>245.27000000000001</ele>
        <time>2025-05-06T10:14:43Z</time>
      </trkpt>
      <trkpt lat="37.974680028855801" lon="-8.703982997685671">
        <ele>245.27000000000001</ele>
        <time>2025-05-06T10:14:44Z</time>
      </trkpt>
      <trkpt lat="37.973849968984723" lon="-8.704574005678296">
        <ele>244.78999999999999</ele>
        <time>2025-05-06T10:14:49Z</time>
      </trkpt>
      <trkpt lat="37.973686018958688" lon="-8.704691017046571">
        <ele>244.31</ele>
        <time>2025-05-06T10:14:50Z</time>
      </trkpt>
      <trkpt lat="37.972074011340737" lon="-8.705328963696957">
        <ele>245.27000000000001</ele>
        <time>2025-05-06T10:14:59Z</time>
      </trkpt>
      <trkpt lat="37.971536982804537" lon="-8.705428037792444">
        <ele>247.19999999999999</ele>
        <time>2025-05-06T10:15:02Z</time>
      </trkpt>
      <trkpt lat="37.971345037221909" lon="-8.70546299032867">
        <ele>247.68000000000001</ele>
        <time>2025-05-06T10:15:03Z</time>
      </trkpt>
      <trkpt lat="37.971164993941784" lon="-8.705396018922329">
        <ele>248.16</ele>
        <time>2025-05-06T10:15:04Z</time>
      </trkpt>
      <trkpt lat="37.969752978533506" lon="-8.705063005909324">
        <ele>251.03999999999999</ele>
        <time>2025-05-06T10:15:11Z</time>
      </trkpt>
      <trkpt lat="37.967520039528608" lon="-8.705078009516001">
        <ele>254.41</ele>
        <time>2025-05-06T10:15:21Z</time>
      </trkpt>
      <trkpt lat="37.966115986928344" lon="-8.70527096092701">
        <ele>254.88999999999999</ele>
        <time>2025-05-06T10:15:28Z</time>
      </trkpt>
      <trkpt lat="37.96563402749598" lon="-8.705385960638523">
        <ele>254.41</ele>
        <time>2025-05-06T10:15:31Z</time>
      </trkpt>
      <trkpt lat="37.965531013906002" lon="-8.705500038340688">
        <ele>254.41</ele>
        <time>2025-05-06T10:15:32Z</time>
      </trkpt>
      <trkpt lat="37.96542095951736" lon="-8.705619983375073">
        <ele>254.41</ele>
        <time>2025-05-06T10:15:33Z</time>
      </trkpt>
      <trkpt lat="37.964939000084996" lon="-8.706102026626468">
        <ele>254.41</ele>
        <time>2025-05-06T10:15:37Z</time>
      </trkpt>
      <trkpt lat="37.964824000373483" lon="-8.70617201551795">
        <ele>253.44</ele>
        <time>2025-05-06T10:15:38Z</time>
      </trkpt>
      <trkpt lat="37.964660972356796" lon="-8.70617201551795">
        <ele>253.44</ele>
        <time>2025-05-06T10:15:39Z</time>
      </trkpt>
      <trkpt lat="37.964503979310393" lon="-8.706163968890905">
        <ele>253.44</ele>
        <time>2025-05-06T10:15:40Z</time>
      </trkpt>
      <trkpt lat="37.964330976828933" lon="-8.706133039668202">
        <ele>253.44</ele>
        <time>2025-05-06T10:15:41Z</time>
      </trkpt>
      <trkpt lat="37.963837031275034" lon="-8.70604301802814">
        <ele>252.47999999999999</ele>
        <time>2025-05-06T10:15:44Z</time>
      </trkpt>
      <trkpt lat="37.963689006865025" lon="-8.706091968342662">
        <ele>252.47999999999999</ele>
        <time>2025-05-06T10:15:45Z</time>
      </trkpt>
      <trkpt lat="37.96357300132513" lon="-8.706135973334312">
        <ele>252</ele>
        <time>2025-05-06T10:15:46Z</time>
      </trkpt>
      <trkpt lat="37.963494965806603" lon="-8.706229012459517">
        <ele>252</ele>
        <time>2025-05-06T10:15:47Z</time>
      </trkpt>
      <trkpt lat="37.963453978300095" lon="-8.706348035484552">
        <ele>252.47999999999999</ele>
        <time>2025-05-06T10:15:48Z</time>
      </trkpt>
      <trkpt lat="37.963429000228643" lon="-8.706472003832459">
        <ele>252.47999999999999</ele>
        <time>2025-05-06T10:15:49Z</time>
      </trkpt>
      <trkpt lat="37.963436963036656" lon="-8.706628996878862">
        <ele>252.47999999999999</ele>
        <time>2025-05-06T10:15:50Z</time>
      </trkpt>
      <trkpt lat="37.963447021320462" lon="-8.706799987703562">
        <ele>252.47999999999999</ele>
        <time>2025-05-06T10:15:51Z</time>
      </trkpt>
      <trkpt lat="37.963455989956856" lon="-8.706978019326925">
        <ele>252.47999999999999</ele>
        <time>2025-05-06T10:15:52Z</time>
      </trkpt>
      <trkpt lat="37.963471999391913" lon="-8.707266021519899">
        <ele>252.47999999999999</ele>
        <time>2025-05-06T10:15:54Z</time>
      </trkpt>
      <trkpt lat="37.963418019935489" lon="-8.707454027608037">
        <ele>252.47999999999999</ele>
        <time>2025-05-06T10:15:55Z</time>
      </trkpt>
      <trkpt lat="37.963364962488413" lon="-8.70759098790586">
        <ele>252.47999999999999</ele>
        <time>2025-05-06T10:15:56Z</time>
      </trkpt>
      <trkpt lat="37.963257003575563" lon="-8.707716967910528">
        <ele>252.47999999999999</ele>
        <time>2025-05-06T10:15:57Z</time>
      </trkpt>
      <trkpt lat="37.963128006085753" lon="-8.707787962630391">
        <ele>252</ele>
        <time>2025-05-06T10:15:58Z</time>
      </trkpt>
      <trkpt lat="37.962981993332505" lon="-8.707868009805679">
        <ele>252</ele>
        <time>2025-05-06T10:15:59Z</time>
      </trkpt>
      <trkpt lat="37.962827011942863" lon="-8.707953002303839">
        <ele>252.47999999999999</ele>
        <time>2025-05-06T10:16:00Z</time>
      </trkpt>
      <trkpt lat="37.962678987532854" lon="-8.708033971488476">
        <ele>252.47999999999999</ele>
        <time>2025-05-06T10:16:01Z</time>
      </trkpt>
      <trkpt lat="37.962561976164579" lon="-8.708132039755583">
        <ele>252.47999999999999</ele>
        <time>2025-05-06T10:16:02Z</time>
      </trkpt>
      <trkpt lat="37.962482012808323" lon="-8.708266988396645">
        <ele>252.47999999999999</ele>
        <time>2025-05-06T10:16:03Z</time>
      </trkpt>
      <trkpt lat="37.962402971461415" lon="-8.708401015028358">
        <ele>252.47999999999999</ele>
        <time>2025-05-06T10:16:04Z</time>
      </trkpt>
      <trkpt lat="37.96232501976192" lon="-8.708532024174929">
        <ele>252</ele>
        <time>2025-05-06T10:16:05Z</time>
      </trkpt>
      <trkpt lat="37.962248995900154" lon="-8.708661021664739">
        <ele>251.52000000000001</ele>
        <time>2025-05-06T10:16:06Z</time>
      </trkpt>
      <trkpt lat="37.962141036987305" lon="-8.70870703831315">
        <ele>251.03999999999999</ele>
        <time>2025-05-06T10:16:07Z</time>
      </trkpt>
      <trkpt lat="37.96202402561903" lon="-8.70870703831315">
        <ele>250.56</ele>
        <time>2025-05-06T10:16:08Z</time>
      </trkpt>
      <trkpt lat="37.96189796179533" lon="-8.708675019443035">
        <ele>250.08000000000001</ele>
        <time>2025-05-06T10:16:09Z</time>
      </trkpt>
      <trkpt lat="37.961781034246087" lon="-8.708646018058062">
        <ele>249.59999999999999</ele>
        <time>2025-05-06T10:16:10Z</time>
      </trkpt>
      <trkpt lat="37.961663017049432" lon="-8.708692034706473">
        <ele>249.12</ele>
        <time>2025-05-06T10:16:11Z</time>
      </trkpt>
      <trkpt lat="37.961580958217382" lon="-8.708777027204633">
        <ele>248.63999999999999</ele>
        <time>2025-05-06T10:16:12Z</time>
      </trkpt>
      <trkpt lat="37.961523961275816" lon="-8.708899989724159">
        <ele>248.16</ele>
        <time>2025-05-06T10:16:13Z</time>
      </trkpt>
      <trkpt lat="37.961468975991011" lon="-8.70905002579093">
        <ele>247.68000000000001</ele>
        <time>2025-05-06T10:16:14Z</time>
      </trkpt>
      <trkpt lat="37.961440980434418" lon="-8.709235014393926">
        <ele>247.19999999999999</ele>
        <time>2025-05-06T10:16:15Z</time>
      </trkpt>
      <trkpt lat="37.961412984877825" lon="-8.709423020482063">
        <ele>246.22999999999999</ele>
        <time>2025-05-06T10:16:16Z</time>
      </trkpt>
      <trkpt lat="37.961385995149612" lon="-8.709599040448666">
        <ele>245.75</ele>
        <time>2025-05-06T10:16:17Z</time>
      </trkpt>
      <trkpt lat="37.961340984329581" lon="-8.709752010181546">
        <ele>245.27000000000001</ele>
        <time>2025-05-06T10:16:18Z</time>
      </trkpt>
      <trkpt lat="37.961263032630086" lon="-8.709860974922776">
        <ele>244.78999999999999</ele>
        <time>2025-05-06T10:16:19Z</time>
      </trkpt>
      <trkpt lat="37.961160019040108" lon="-8.709885030984879">
        <ele>244.31</ele>
        <time>2025-05-06T10:16:20Z</time>
      </trkpt>
      <trkpt lat="37.96105700545013" lon="-8.709899028763175">
        <ele>243.83000000000001</ele>
        <time>2025-05-06T10:16:21Z</time>
      </trkpt>
      <trkpt lat="37.960947034880519" lon="-8.709833985194564">
        <ele>243.34999999999999</ele>
        <time>2025-05-06T10:16:22Z</time>
      </trkpt>
      <trkpt lat="37.9608219768852" lon="-8.709758967161179">
        <ele>242.87</ele>
        <time>2025-05-06T10:16:23Z</time>
      </trkpt>
      <trkpt lat="37.960690967738628" lon="-8.709683027118444">
        <ele>242.38999999999999</ele>
        <time>2025-05-06T10:16:24Z</time>
      </trkpt>
      <trkpt lat="37.960554007440805" lon="-8.709616977721453">
        <ele>242.38999999999999</ele>
        <time>2025-05-06T10:16:25Z</time>
      </trkpt>
      <trkpt lat="37.960416041314602" lon="-8.709585964679718">
        <ele>241.91</ele>
        <time>2025-05-06T10:16:26Z</time>
      </trkpt>
      <trkpt lat="37.960270028561354" lon="-8.709640027955174">
        <ele>241.43000000000001</ele>
        <time>2025-05-06T10:16:27Z</time>
      </trkpt>
      <trkpt lat="37.960128039121628" lon="-8.709700964391232">
        <ele>240.94999999999999</ele>
        <time>2025-05-06T10:16:28Z</time>
      </trkpt>
      <trkpt lat="37.959984038025141" lon="-8.709762990474701">
        <ele>240.47</ele>
        <time>2025-05-06T10:16:29Z</time>
      </trkpt>
      <trkpt lat="37.959845988079906" lon="-8.709821999073029">
        <ele>239.50999999999999</ele>
        <time>2025-05-06T10:16:30Z</time>
      </trkpt>
      <trkpt lat="37.959723025560379" lon="-8.709829039871693">
        <ele>238.53999999999999</ele>
        <time>2025-05-06T10:16:31Z</time>
      </trkpt>
      <trkpt lat="37.95959503389895" lon="-8.709810012951493">
        <ele>237.58000000000001</ele>
        <time>2025-05-06T10:16:32Z</time>
      </trkpt>
      <trkpt lat="37.959466958418489" lon="-8.709790986031294">
        <ele>236.62</ele>
        <time>2025-05-06T10:16:33Z</time>
      </trkpt>
      <trkpt lat="37.959341984242201" lon="-8.709772964939475">
        <ele>235.66</ele>
        <time>2025-05-06T10:16:34Z</time>
      </trkpt>
      <trkpt lat="37.959222961217165" lon="-8.709755027666688">
        <ele>234.69999999999999</ele>
        <time>2025-05-06T10:16:35Z</time>
      </trkpt>
      <trkpt lat="37.959126988425851" lon="-8.709838008508086">
        <ele>234.22</ele>
        <time>2025-05-06T10:16:36Z</time>
      </trkpt>
      <trkpt lat="37.959025986492634" lon="-8.709926018491387">
        <ele>233.74000000000001</ele>
        <time>2025-05-06T10:16:37Z</time>
      </trkpt>
      <trkpt lat="37.958919033408165" lon="-8.710017967969179">
        <ele>232.30000000000001</ele>
        <time>2025-05-06T10:16:38Z</time>
      </trkpt>
      <trkpt lat="37.958800010383129" lon="-8.710064990445972">
        <ele>231.81</ele>
        <time>2025-05-06T10:16:39Z</time>
      </trkpt>
      <trkpt lat="37.958687022328377" lon="-8.710098015144467">
        <ele>231.33000000000001</ele>
        <time>2025-05-06T10:16:40Z</time>
      </trkpt>
      <trkpt lat="37.958567999303341" lon="-8.710045041516423">
        <ele>230.37</ele>
        <time>2025-05-06T10:16:41Z</time>
      </trkpt>
      <trkpt lat="37.958448976278305" lon="-8.709987960755825">
        <ele>229.88999999999999</ele>
        <time>2025-05-06T10:16:42Z</time>
      </trkpt>
      <trkpt lat="37.958378987386823" lon="-8.709852006286383">
        <ele>229.41</ele>
        <time>2025-05-06T10:16:43Z</time>
      </trkpt>
      <trkpt lat="37.958302963525057" lon="-8.709705993533135">
        <ele>229.41</ele>
        <time>2025-05-06T10:16:44Z</time>
      </trkpt>
      <trkpt lat="37.958227023482323" lon="-8.709557969123125">
        <ele>228.93000000000001</ele>
        <time>2025-05-06T10:16:45Z</time>
      </trkpt>
      <trkpt lat="37.958152005448937" lon="-8.709413968026638">
        <ele>228.93000000000001</ele>
        <time>2025-05-06T10:16:46Z</time>
      </trkpt>
      <trkpt lat="37.958052009344101" lon="-8.709310032427311">
        <ele>229.41</ele>
        <time>2025-05-06T10:16:47Z</time>
      </trkpt>
      <trkpt lat="37.957927035167813" lon="-8.709212969988585">
        <ele>229.41</ele>
        <time>2025-05-06T10:16:48Z</time>
      </trkpt>
      <trkpt lat="37.957787979394197" lon="-8.709105011075735">
        <ele>229.41</ele>
        <time>2025-05-06T10:16:49Z</time>
      </trkpt>
      <trkpt lat="37.957640960812569" lon="-8.708985988050699">
        <ele>229.88999999999999</ele>
        <time>2025-05-06T10:16:50Z</time>
      </trkpt>
      <trkpt lat="37.957509029656649" lon="-8.708827989175916">
        <ele>229.88999999999999</ele>
        <time>2025-05-06T10:16:51Z</time>
      </trkpt>
      <trkpt lat="37.957120025530457" lon="-8.708363967016339">
        <ele>229.88999999999999</ele>
        <time>2025-05-06T10:16:54Z</time>
      </trkpt>
      <trkpt lat="37.956964960321784" lon="-8.708253996446729">
        <ele>229.88999999999999</ele>
        <time>2025-05-06T10:16:55Z</time>
      </trkpt>
      <trkpt lat="37.956802016124129" lon="-8.70814997702837">
        <ele>229.88999999999999</ele>
        <time>2025-05-06T10:16:56Z</time>
      </trkpt>
      <trkpt lat="37.95598603785038" lon="-8.707686960697174">
        <ele>230.37</ele>
        <time>2025-05-06T10:17:01Z</time>
      </trkpt>
      <trkpt lat="37.955824015662074" lon="-8.707639016211033">
        <ele>230.37</ele>
        <time>2025-05-06T10:17:02Z</time>
      </trkpt>
      <trkpt lat="37.955660987645388" lon="-8.707589982077479">
        <ele>229.88999999999999</ele>
        <time>2025-05-06T10:17:03Z</time>
      </trkpt>
      <trkpt lat="37.955511035397649" lon="-8.707544971257448">
        <ele>229.88999999999999</ele>
        <time>2025-05-06T10:17:04Z</time>
      </trkpt>
      <trkpt lat="37.955387989059091" lon="-8.707405999302864">
        <ele>229.88999999999999</ele>
        <time>2025-05-06T10:17:05Z</time>
      </trkpt>
      <trkpt lat="37.955276006832719" lon="-8.707254035398364">
        <ele>229.41</ele>
        <time>2025-05-06T10:17:06Z</time>
      </trkpt>
      <trkpt lat="37.955161007121205" lon="-8.707077009603381">
        <ele>228.93000000000001</ele>
        <time>2025-05-06T10:17:07Z</time>
      </trkpt>
      <trkpt lat="37.955039972439408" lon="-8.706891015172005">
        <ele>228.44999999999999</ele>
        <time>2025-05-06T10:17:08Z</time>
      </trkpt>
      <trkpt lat="37.954798992723227" lon="-8.706521037966013">
        <ele>226.53</ele>
        <time>2025-05-06T10:17:10Z</time>
      </trkpt>
      <trkpt lat="37.95463303104043" lon="-8.706394974142313">
        <ele>226.05000000000001</ele>
        <time>2025-05-06T10:17:11Z</time>
      </trkpt>
      <trkpt lat="37.95446396805346" lon="-8.706296989694238">
        <ele>225.09</ele>
        <time>2025-05-06T10:17:12Z</time>
      </trkpt>
      <trkpt lat="37.954285014420748" lon="-8.706222977489233">
        <ele>224.12</ele>
        <time>2025-05-06T10:17:13Z</time>
      </trkpt>
      <trkpt lat="37.954112011939287" lon="-8.70615097694099">
        <ele>222.68000000000001</ele>
        <time>2025-05-06T10:17:14Z</time>
      </trkpt>
      <trkpt lat="37.953950995579362" lon="-8.70608501136303">
        <ele>221.24000000000001</ele>
        <time>2025-05-06T10:17:15Z</time>
      </trkpt>
      <trkpt lat="37.953832978382707" lon="-8.705977974459529">
        <ele>220.28</ele>
        <time>2025-05-06T10:17:16Z</time>
      </trkpt>
      <trkpt lat="37.953726025298238" lon="-8.705845037475228">
        <ele>219.31999999999999</ele>
        <time>2025-05-06T10:17:17Z</time>
      </trkpt>
      <trkpt lat="37.953616976737976" lon="-8.705708999186754">
        <ele>218.36000000000001</ele>
        <time>2025-05-06T10:17:18Z</time>
      </trkpt>
      <trkpt lat="37.953508011996746" lon="-8.705572038888931">
        <ele>217.88</ele>
        <time>2025-05-06T10:17:19Z</time>
      </trkpt>
      <trkpt lat="37.953403992578387" lon="-8.705442035570741">
        <ele>216.91</ele>
        <time>2025-05-06T10:17:20Z</time>
      </trkpt>
      <trkpt lat="37.953268038108945" lon="-8.705390989780426">
        <ele>215.94999999999999</ele>
        <time>2025-05-06T10:17:21Z</time>
      </trkpt>
      <trkpt lat="37.95313099399209" lon="-8.705384032800794">
        <ele>214.99000000000001</ele>
        <time>2025-05-06T10:17:22Z</time>
      </trkpt>
      <trkpt lat="37.952976012602448" lon="-8.705395013093948">
        <ele>214.03</ele>
        <time>2025-05-06T10:17:23Z</time>
      </trkpt>
      <trkpt lat="37.95280703343451" lon="-8.705406999215484">
        <ele>213.06999999999999</ele>
        <time>2025-05-06T10:17:24Z</time>
      </trkpt>
      <trkpt lat="37.952515007928014" lon="-8.705396018922329">
        <ele>211.15000000000001</ele>
        <time>2025-05-06T10:17:26Z</time>
      </trkpt>
      <trkpt lat="37.952409982681274" lon="-8.705340027809143">
        <ele>210.66999999999999</ele>
        <time>2025-05-06T10:17:27Z</time>
      </trkpt>
      <trkpt lat="37.95231400988996" lon="-8.705227039754391">
        <ele>210.19</ele>
        <time>2025-05-06T10:17:28Z</time>
      </trkpt>
      <trkpt lat="37.952242009341717" lon="-8.705093013122678">
        <ele>209.69999999999999</ele>
        <time>2025-05-06T10:17:29Z</time>
      </trkpt>
      <trkpt lat="37.952160034328699" lon="-8.704938031733036">
        <ele>209.22</ele>
        <time>2025-05-06T10:17:30Z</time>
      </trkpt>
      <trkpt lat="37.952066995203495" lon="-8.704824959859252">
        <ele>208.74000000000001</ele>
        <time>2025-05-06T10:17:31Z</time>
      </trkpt>
      <trkpt lat="37.951957024633884" lon="-8.704748013988137">
        <ele>208.74000000000001</ele>
        <time>2025-05-06T10:17:32Z</time>
      </trkpt>
      <trkpt lat="37.951843030750751" lon="-8.704713983461261">
        <ele>208.74000000000001</ele>
        <time>2025-05-06T10:17:33Z</time>
      </trkpt>
      <trkpt lat="37.951701963320374" lon="-8.704718006774783">
        <ele>208.74000000000001</ele>
        <time>2025-05-06T10:17:34Z</time>
      </trkpt>
      <trkpt lat="37.951548993587494" lon="-8.704723035916686">
        <ele>208.74000000000001</ele>
        <time>2025-05-06T10:17:35Z</time>
      </trkpt>
      <trkpt lat="37.951212041079998" lon="-8.70473301038146">
        <ele>209.22</ele>
        <time>2025-05-06T10:17:37Z</time>
      </trkpt>
      <trkpt lat="37.951034009456635" lon="-8.704708032310009">
        <ele>209.22</ele>
        <time>2025-05-06T10:17:38Z</time>
      </trkpt>
      <trkpt lat="37.949435999616981" lon="-8.704576017335057">
        <ele>207.30000000000001</ele>
        <time>2025-05-06T10:17:46Z</time>
      </trkpt>
      <trkpt lat="37.947732964530587" lon="-8.704987987875938">
        <ele>201.53</ele>
        <time>2025-05-06T10:17:54Z</time>
      </trkpt>
      <trkpt lat="37.946618003770709" lon="-8.705443041399121">
        <ele>201.53</ele>
        <time>2025-05-06T10:18:00Z</time>
      </trkpt>
      <trkpt lat="37.94649001210928" lon="-8.705514958128333">
        <ele>201.53</ele>
        <time>2025-05-06T10:18:01Z</time>
      </trkpt>
      <trkpt lat="37.94636202044785" lon="-8.705617971718311">
        <ele>202.00999999999999</ele>
        <time>2025-05-06T10:18:02Z</time>
      </trkpt>
      <trkpt lat="37.946270992979407" lon="-8.705760966986418">
        <ele>202.00999999999999</ele>
        <time>2025-05-06T10:18:03Z</time>
      </trkpt>
      <trkpt lat="37.946197986602783" lon="-8.705937992781401">
        <ele>202.00999999999999</ele>
        <time>2025-05-06T10:18:04Z</time>
      </trkpt>
      <trkpt lat="37.946140989661217" lon="-8.70610797777772">
        <ele>202.00999999999999</ele>
        <time>2025-05-06T10:18:05Z</time>
      </trkpt>
      <trkpt lat="37.946087010204792" lon="-8.706269999966025">
        <ele>202.00999999999999</ele>
        <time>2025-05-06T10:18:06Z</time>
      </trkpt>
      <trkpt lat="37.94601702131331" lon="-8.706417018547654">
        <ele>202.00999999999999</ele>
        <time>2025-05-06T10:18:07Z</time>
      </trkpt>
      <trkpt lat="37.945909984409809" lon="-8.706523971632123">
        <ele>202.00999999999999</ele>
        <time>2025-05-06T10:18:08Z</time>
      </trkpt>
      <trkpt lat="37.945780986919999" lon="-8.706587003543973">
        <ele>202.00999999999999</ele>
        <time>2025-05-06T10:18:09Z</time>
      </trkpt>
      <trkpt lat="37.945646960288286" lon="-8.706628996878862">
        <ele>201.53</ele>
        <time>2025-05-06T10:18:10Z</time>
      </trkpt>
      <trkpt lat="37.945517040789127" lon="-8.706626985222101">
        <ele>201.53</ele>
        <time>2025-05-06T10:18:11Z</time>
      </trkpt>
      <trkpt lat="37.945393994450569" lon="-8.706599995493889">
        <ele>201.53</ele>
        <time>2025-05-06T10:18:12Z</time>
      </trkpt>
      <trkpt lat="37.945258961990476" lon="-8.706534029915929">
        <ele>202.00999999999999</ele>
        <time>2025-05-06T10:18:13Z</time>
      </trkpt>
      <trkpt lat="37.9451609775424" lon="-8.706418024376035">
        <ele>202.49000000000001</ele>
        <time>2025-05-06T10:18:14Z</time>
      </trkpt>
      <trkpt lat="37.945063998922706" lon="-8.706303024664521">
        <ele>202.97999999999999</ele>
        <time>2025-05-06T10:18:15Z</time>
      </trkpt>
      <trkpt lat="37.944999039173126" lon="-8.706134967505932">
        <ele>203.46000000000001</ele>
        <time>2025-05-06T10:18:16Z</time>
      </trkpt>
      <trkpt lat="37.944972971454263" lon="-8.705943021923304">
        <ele>203.94</ele>
        <time>2025-05-06T10:18:17Z</time>
      </trkpt>
      <trkpt lat="37.944946987554431" lon="-8.705740012228489">
        <ele>203.94</ele>
        <time>2025-05-06T10:18:18Z</time>
      </trkpt>
      <trkpt lat="37.944919997826219" lon="-8.705534990876913">
        <ele>204.41999999999999</ele>
        <time>2025-05-06T10:18:19Z</time>
      </trkpt>
      <trkpt lat="37.944856965914369" lon="-8.705356037244201">
        <ele>204.90000000000001</ele>
        <time>2025-05-06T10:18:20Z</time>
      </trkpt>
      <trkpt lat="37.94477398507297" lon="-8.705189991742373">
        <ele>205.38</ele>
        <time>2025-05-06T10:18:21Z</time>
      </trkpt>
      <trkpt lat="37.944668037816882" lon="-8.705042973160744">
        <ele>206.34</ele>
        <time>2025-05-06T10:18:22Z</time>
      </trkpt>
      <trkpt lat="37.944521019235253" lon="-8.704941971227527">
        <ele>206.34</ele>
        <time>2025-05-06T10:18:23Z</time>
      </trkpt>
      <trkpt lat="37.944360002875328" lon="-8.704837029799819">
        <ele>206.34</ele>
        <time>2025-05-06T10:18:24Z</time>
      </trkpt>
      <trkpt lat="37.944180965423584" lon="-8.704779027029872">
        <ele>206.34</ele>
        <time>2025-05-06T10:18:25Z</time>
      </trkpt>
      <trkpt lat="37.943994970992208" lon="-8.704720018431544">
        <ele>206.34</ele>
        <time>2025-05-06T10:18:26Z</time>
      </trkpt>
      <trkpt lat="37.943797996267676" lon="-8.704667966812849">
        <ele>206.34</ele>
        <time>2025-05-06T10:18:27Z</time>
      </trkpt>
      <trkpt lat="37.943586017936468" lon="-8.704662015661597">
        <ele>206.34</ele>
        <time>2025-05-06T10:18:28Z</time>
      </trkpt>
      <trkpt lat="37.943370016291738" lon="-8.704654974862933">
        <ele>206.34</ele>
        <time>2025-05-06T10:18:29Z</time>
      </trkpt>
      <trkpt lat="37.943163989111781" lon="-8.704651035368443">
        <ele>206.34</ele>
        <time>2025-05-06T10:18:30Z</time>
      </trkpt>
      <trkpt lat="37.942984029650688" lon="-8.704704008996487">
        <ele>206.34</ele>
        <time>2025-05-06T10:18:31Z</time>
      </trkpt>
      <trkpt lat="37.942827036604285" lon="-8.704750025644898">
        <ele>205.86000000000001</ele>
        <time>2025-05-06T10:18:32Z</time>
      </trkpt>
      <trkpt lat="37.942699966952205" lon="-8.704815991222858">
        <ele>205.38</ele>
        <time>2025-05-06T10:18:33Z</time>
      </trkpt>
      <trkpt lat="37.94258002191782" lon="-8.704913975670934">
        <ele>204.90000000000001</ele>
        <time>2025-05-06T10:18:34Z</time>
      </trkpt>
      <trkpt lat="37.942486982792616" lon="-8.70505403727293">
        <ele>204.41999999999999</ele>
        <time>2025-05-06T10:18:35Z</time>
      </trkpt>
      <trkpt lat="37.942384975031018" lon="-8.705208012834191">
        <ele>204.41999999999999</ele>
        <time>2025-05-06T10:18:36Z</time>
      </trkpt>
      <trkpt lat="37.941843001171947" lon="-8.706020973622799">
        <ele>204.41999999999999</ele>
        <time>2025-05-06T10:18:41Z</time>
      </trkpt>
      <trkpt lat="37.941732024773955" lon="-8.706084005534649">
        <ele>204.41999999999999</ele>
        <time>2025-05-06T10:18:42Z</time>
      </trkpt>
      <trkpt lat="37.941619958728552" lon="-8.706106971949339">
        <ele>204.41999999999999</ele>
        <time>2025-05-06T10:18:43Z</time>
      </trkpt>
      <trkpt lat="37.941494984552264" lon="-8.70608501136303">
        <ele>204.41999999999999</ele>
        <time>2025-05-06T10:18:44Z</time>
      </trkpt>
      <trkpt lat="37.941370010375977" lon="-8.705977974459529">
        <ele>204.90000000000001</ele>
        <time>2025-05-06T10:18:45Z</time>
      </trkpt>
      <trkpt lat="37.941275965422392" lon="-8.705862974748015">
        <ele>204.90000000000001</ele>
        <time>2025-05-06T10:18:46Z</time>
      </trkpt>
      <trkpt lat="37.941161971539259" lon="-8.705724002793431">
        <ele>205.38</ele>
        <time>2025-05-06T10:18:47Z</time>
      </trkpt>
      <trkpt lat="37.94058102183044" lon="-8.704853961244226">
        <ele>205.38</ele>
        <time>2025-05-06T10:18:52Z</time>
      </trkpt>
      <trkpt lat="37.940512038767338" lon="-8.704649023711681">
        <ele>205.38</ele>
        <time>2025-05-06T10:18:53Z</time>
      </trkpt>
      <trkpt lat="37.940468033775687" lon="-8.704442996531725">
        <ele>205.86000000000001</ele>
        <time>2025-05-06T10:18:54Z</time>
      </trkpt>
      <trkpt lat="37.940263012424111" lon="-8.703298028558493">
        <ele>205.86000000000001</ele>
        <time>2025-05-06T10:18:59Z</time>
      </trkpt>
      <trkpt lat="37.940202997997403" lon="-8.703092001378536">
        <ele>206.81999999999999</ele>
        <time>2025-05-06T10:19:00Z</time>
      </trkpt>
      <trkpt lat="37.940095039084554" lon="-8.702948000282049">
        <ele>206.81999999999999</ele>
        <time>2025-05-06T10:19:01Z</time>
      </trkpt>
      <trkpt lat="37.939983978867531" lon="-8.702827971428633">
        <ele>207.30000000000001</ele>
        <time>2025-05-06T10:19:02Z</time>
      </trkpt>
      <trkpt lat="37.939860010519624" lon="-8.702767034992576">
        <ele>207.78</ele>
        <time>2025-05-06T10:19:03Z</time>
      </trkpt>
      <trkpt lat="37.939720032736659" lon="-8.702794024720788">
        <ele>207.78</ele>
        <time>2025-05-06T10:19:04Z</time>
      </trkpt>
      <trkpt lat="37.939590029418468" lon="-8.702827971428633">
        <ele>208.25999999999999</ele>
        <time>2025-05-06T10:19:05Z</time>
      </trkpt>
      <trkpt lat="37.93946698307991" lon="-8.702921010553837">
        <ele>208.25999999999999</ele>
        <time>2025-05-06T10:19:06Z</time>
      </trkpt>
      <trkpt lat="37.939371010288596" lon="-8.703044978901744">
        <ele>208.25999999999999</ele>
        <time>2025-05-06T10:19:07Z</time>
      </trkpt>
      <trkpt lat="37.939274031668901" lon="-8.703170036897063">
        <ele>208.74000000000001</ele>
        <time>2025-05-06T10:19:08Z</time>
      </trkpt>
      <trkpt lat="37.939184010028839" lon="-8.703286964446306">
        <ele>208.74000000000001</ele>
        <time>2025-05-06T10:19:09Z</time>
      </trkpt>
      <trkpt lat="37.939060963690281" lon="-8.703333986923099">
        <ele>208.74000000000001</ele>
        <time>2025-05-06T10:19:10Z</time>
      </trkpt>
      <trkpt lat="37.938947975635529" lon="-8.703304985538125">
        <ele>208.74000000000001</ele>
        <time>2025-05-06T10:19:11Z</time>
      </trkpt>
      <trkpt lat="37.93884202837944" lon="-8.703259974718094">
        <ele>209.22</ele>
        <time>2025-05-06T10:19:12Z</time>
      </trkpt>
      <trkpt lat="37.938729962334037" lon="-8.703247988596559">
        <ele>209.22</ele>
        <time>2025-05-06T10:19:13Z</time>
      </trkpt>
      <trkpt lat="37.938628038391471" lon="-8.703286964446306">
        <ele>209.22</ele>
        <time>2025-05-06T10:19:14Z</time>
      </trkpt>
      <trkpt lat="37.93854002840817" lon="-8.703373968601227">
        <ele>209.69999999999999</ele>
        <time>2025-05-06T10:19:15Z</time>
      </trkpt>
      <trkpt lat="37.938439026474953" lon="-8.703498020768166">
        <ele>209.69999999999999</ele>
        <time>2025-05-06T10:19:16Z</time>
      </trkpt>
      <trkpt lat="37.93832897208631" lon="-8.703633975237608">
        <ele>209.22</ele>
        <time>2025-05-06T10:19:17Z</time>
      </trkpt>
      <trkpt lat="37.937515005469322" lon="-8.704424975439906">
        <ele>206.81999999999999</ele>
        <time>2025-05-06T10:19:23Z</time>
      </trkpt>
      <trkpt lat="37.937372010201216" lon="-8.70445397682488">
        <ele>206.34</ele>
        <time>2025-05-06T10:19:24Z</time>
      </trkpt>
      <trkpt lat="37.937224991619587" lon="-8.70447501540184">
        <ele>205.86000000000001</ele>
        <time>2025-05-06T10:19:25Z</time>
      </trkpt>
      <trkpt lat="37.937065986916423" lon="-8.704424975439906">
        <ele>204.90000000000001</ele>
        <time>2025-05-06T10:19:26Z</time>
      </trkpt>
      <trkpt lat="37.93688703328371" lon="-8.70436797849834">
        <ele>204.41999999999999</ele>
        <time>2025-05-06T10:19:27Z</time>
      </trkpt>
      <trkpt lat="37.935430007055402" lon="-8.704189024865627">
        <ele>200.09</ele>
        <time>2025-05-06T10:19:34Z</time>
      </trkpt>
      <trkpt lat="37.935088025406003" lon="-8.704144014045596">
        <ele>199.13</ele>
        <time>2025-05-06T10:19:36Z</time>
      </trkpt>
      <trkpt lat="37.9349759593606" lon="-8.704068996012211">
        <ele>199.13</ele>
        <time>2025-05-06T10:19:37Z</time>
      </trkpt>
      <trkpt lat="37.934895996004343" lon="-8.703924994915724">
        <ele>198.65000000000001</ele>
        <time>2025-05-06T10:19:38Z</time>
      </trkpt>
      <trkpt lat="37.934831958264112" lon="-8.703770013526082">
        <ele>198.65000000000001</ele>
        <time>2025-05-06T10:19:39Z</time>
      </trkpt>
      <trkpt lat="37.934770015999675" lon="-8.703592987731099">
        <ele>198.65000000000001</ele>
        <time>2025-05-06T10:19:40Z</time>
      </trkpt>
      <trkpt lat="37.93469600379467" lon="-8.703406993299723">
        <ele>198.16999999999999</ele>
        <time>2025-05-06T10:19:41Z</time>
      </trkpt>
      <trkpt lat="37.934591984376311" lon="-8.703224016353488">
        <ele>198.16999999999999</ele>
        <time>2025-05-06T10:19:42Z</time>
      </trkpt>
      <trkpt lat="37.933595962822437" lon="-8.701568003743887">
        <ele>193.84</ele>
        <time>2025-05-06T10:19:50Z</time>
      </trkpt>
      <trkpt lat="37.933453973382711" lon="-8.701473036780953">
        <ele>193.36000000000001</ele>
        <time>2025-05-06T10:19:51Z</time>
      </trkpt>
      <trkpt lat="37.933313995599747" lon="-8.701421990990639">
        <ele>192.88</ele>
        <time>2025-05-06T10:19:52Z</time>
      </trkpt>
      <trkpt lat="37.933154990896583" lon="-8.701405981555581">
        <ele>192.40000000000001</ele>
        <time>2025-05-06T10:19:53Z</time>
      </trkpt>
      <trkpt lat="37.932959022000432" lon="-8.701387038454413">
        <ele>191.44</ele>
        <time>2025-05-06T10:19:54Z</time>
      </trkpt>
      <trkpt lat="37.932013962417841" lon="-8.701263992115855">
        <ele>190</ele>
        <time>2025-05-06T10:19:59Z</time>
      </trkpt>
      <trkpt lat="37.931852024048567" lon="-8.701190985739231">
        <ele>189.52000000000001</ele>
        <time>2025-05-06T10:20:00Z</time>
      </trkpt>
      <trkpt lat="37.931691007688642" lon="-8.701112028211355">
        <ele>188.56</ele>
        <time>2025-05-06T10:20:01Z</time>
      </trkpt>
      <trkpt lat="37.930458029732108" lon="-8.700250033289194">
        <ele>185.19</ele>
        <time>2025-05-06T10:20:08Z</time>
      </trkpt>
      <trkpt lat="37.93026901781559" lon="-8.700182978063822">
        <ele>184.71000000000001</ele>
        <time>2025-05-06T10:20:09Z</time>
      </trkpt>
      <trkpt lat="37.928636977449059" lon="-8.699673023074865">
        <ele>183.27000000000001</ele>
        <time>2025-05-06T10:20:18Z</time>
      </trkpt>
      <trkpt lat="37.928484007716179" lon="-8.699714010581374">
        <ele>183.75</ele>
        <time>2025-05-06T10:20:19Z</time>
      </trkpt>
      <trkpt lat="37.928334977477789" lon="-8.69976899586618">
        <ele>183.75</ele>
        <time>2025-05-06T10:20:20Z</time>
      </trkpt>
      <trkpt lat="37.927149021998048" lon="-8.70017996057868">
        <ele>185.66999999999999</ele>
        <time>2025-05-06T10:20:27Z</time>
      </trkpt>
      <trkpt lat="37.927006026729941" lon="-8.700167974457145">
        <ele>185.66999999999999</ele>
        <time>2025-05-06T10:20:28Z</time>
      </trkpt>
      <trkpt lat="37.926878035068512" lon="-8.700115000829101">
        <ele>185.66999999999999</ele>
        <time>2025-05-06T10:20:29Z</time>
      </trkpt>
      <trkpt lat="37.926740990951657" lon="-8.700020033866167">
        <ele>185.66999999999999</ele>
        <time>2025-05-06T10:20:30Z</time>
      </trkpt>
      <trkpt lat="37.92659598402679" lon="-8.699892964214087">
        <ele>185.19</ele>
        <time>2025-05-06T10:20:31Z</time>
      </trkpt>
      <trkpt lat="37.925332998856902" lon="-8.698784038424492">
        <ele>182.78999999999999</ele>
        <time>2025-05-06T10:20:38Z</time>
      </trkpt>
      <trkpt lat="37.924617016687989" lon="-8.698168974369764">
        <ele>182.78999999999999</ele>
        <time>2025-05-06T10:20:42Z</time>
      </trkpt>
      <trkpt lat="37.924439990893006" lon="-8.69807199575007">
        <ele>182.78999999999999</ele>
        <time>2025-05-06T10:20:43Z</time>
      </trkpt>
      <trkpt lat="37.924248967319727" lon="-8.69800896383822">
        <ele>182.31</ele>
        <time>2025-05-06T10:20:44Z</time>
      </trkpt>
      <trkpt lat="37.922674007713795" lon="-8.697532033547759">
        <ele>181.34999999999999</ele>
        <time>2025-05-06T10:20:51Z</time>
      </trkpt>
      <trkpt lat="37.920904001221061" lon="-8.696986036375165">
        <ele>181.83000000000001</ele>
        <time>2025-05-06T10:20:59Z</time>
      </trkpt>
      <trkpt lat="37.918685982003808" lon="-8.696311041712761">
        <ele>187.11000000000001</ele>
        <time>2025-05-06T10:21:09Z</time>
      </trkpt>
      <trkpt lat="37.917929012328386" lon="-8.696023039519787">
        <ele>189.52000000000001</ele>
        <time>2025-05-06T10:21:13Z</time>
      </trkpt>
      <trkpt lat="37.91776699014008" lon="-8.695914996787906">
        <ele>190.47999999999999</ele>
        <time>2025-05-06T10:21:14Z</time>
      </trkpt>
      <trkpt lat="37.917661964893341" lon="-8.695785999298096">
        <ele>190.96000000000001</ele>
        <time>2025-05-06T10:21:15Z</time>
      </trkpt>
      <trkpt lat="37.917395001277328" lon="-8.695514006540179">
        <ele>191.91999999999999</ele>
        <time>2025-05-06T10:21:17Z</time>
      </trkpt>
      <trkpt lat="37.917243959382176" lon="-8.695418033748865">
        <ele>192.40000000000001</ele>
        <time>2025-05-06T10:21:18Z</time>
      </trkpt>
      <trkpt lat="37.917093001306057" lon="-8.695364976301789">
        <ele>192.40000000000001</ele>
        <time>2025-05-06T10:21:19Z</time>
      </trkpt>
      <trkpt lat="37.91677700355649" lon="-8.695256011560559">
        <ele>193.36000000000001</ele>
        <time>2025-05-06T10:21:21Z</time>
      </trkpt>
      <trkpt lat="37.91662503965199" lon="-8.695157021284103">
        <ele>193.36000000000001</ele>
        <time>2025-05-06T10:21:22Z</time>
      </trkpt>
      <trkpt lat="37.916166968643665" lon="-8.694814033806324">
        <ele>195.28</ele>
        <time>2025-05-06T10:21:25Z</time>
      </trkpt>
      <trkpt lat="37.916050963103771" lon="-8.694645976647735">
        <ele>195.77000000000001</ele>
        <time>2025-05-06T10:21:26Z</time>
      </trkpt>
      <trkpt lat="37.915937975049019" lon="-8.694465011358261">
        <ele>196.25</ele>
        <time>2025-05-06T10:21:27Z</time>
      </trkpt>
      <trkpt lat="37.915534973144531" lon="-8.693714998662472">
        <ele>197.21000000000001</ele>
        <time>2025-05-06T10:21:31Z</time>
      </trkpt>
      <trkpt lat="37.915449980646372" lon="-8.693619025871158">
        <ele>197.21000000000001</ele>
        <time>2025-05-06T10:21:32Z</time>
      </trkpt>
      <trkpt lat="37.915302962064743" lon="-8.6936030164361">
        <ele>197.21000000000001</ele>
        <time>2025-05-06T10:21:33Z</time>
      </trkpt>
      <trkpt lat="37.91516499593854" lon="-8.693587007001042">
        <ele>196.72999999999999</ele>
        <time>2025-05-06T10:21:34Z</time>
      </trkpt>
      <trkpt lat="37.915009008720517" lon="-8.693569991737604">
        <ele>196.72999999999999</ele>
        <time>2025-05-06T10:21:35Z</time>
      </trkpt>
      <trkpt lat="37.914333008229733" lon="-8.693494973704219">
        <ele>195.77000000000001</ele>
        <time>2025-05-06T10:21:39Z</time>
      </trkpt>
      <trkpt lat="37.914166040718555" lon="-8.693418027833104">
        <ele>195.77000000000001</ele>
        <time>2025-05-06T10:21:40Z</time>
      </trkpt>
      <trkpt lat="37.91400502435863" lon="-8.693317025899887">
        <ele>195.77000000000001</ele>
        <time>2025-05-06T10:21:41Z</time>
      </trkpt>
      <trkpt lat="37.913849959149957" lon="-8.693192973732948">
        <ele>195.77000000000001</ele>
        <time>2025-05-06T10:21:42Z</time>
      </trkpt>
      <trkpt lat="37.913706041872501" lon="-8.693032041192055">
        <ele>195.77000000000001</ele>
        <time>2025-05-06T10:21:43Z</time>
      </trkpt>
      <trkpt lat="37.913566986098886" lon="-8.692847974598408">
        <ele>195.77000000000001</ele>
        <time>2025-05-06T10:21:44Z</time>
      </trkpt>
      <trkpt lat="37.912551015615463" lon="-8.691521035507321">
        <ele>198.65000000000001</ele>
        <time>2025-05-06T10:21:51Z</time>
      </trkpt>
      <trkpt lat="37.912413971498609" lon="-8.691420033574104">
        <ele>199.61000000000001</ele>
        <time>2025-05-06T10:21:52Z</time>
      </trkpt>
      <trkpt lat="37.912280028685927" lon="-8.691375022754073">
        <ele>200.09</ele>
        <time>2025-05-06T10:21:53Z</time>
      </trkpt>
      <trkpt lat="37.912149019539356" lon="-8.691378962248564">
        <ele>201.05000000000001</ele>
        <time>2025-05-06T10:21:54Z</time>
      </trkpt>
      <trkpt lat="37.912008035928011" lon="-8.691395977512002">
        <ele>201.53</ele>
        <time>2025-05-06T10:21:55Z</time>
      </trkpt>
      <trkpt lat="37.911859005689621" lon="-8.691415004432201">
        <ele>202.49000000000001</ele>
        <time>2025-05-06T10:21:56Z</time>
      </trkpt>
      <trkpt lat="37.911696983501315" lon="-8.691420033574104">
        <ele>202.97999999999999</ele>
        <time>2025-05-06T10:21:57Z</time>
      </trkpt>
      <trkpt lat="37.911530015990138" lon="-8.691377034410834">
        <ele>203.46000000000001</ele>
        <time>2025-05-06T10:21:58Z</time>
      </trkpt>
      <trkpt lat="37.91104101575911" lon="-8.691250970587134">
        <ele>204.41999999999999</ele>
        <time>2025-05-06T10:22:01Z</time>
      </trkpt>
      <trkpt lat="37.910919981077313" lon="-8.691145023331046">
        <ele>204.41999999999999</ele>
        <time>2025-05-06T10:22:02Z</time>
      </trkpt>
      <trkpt lat="37.91080598719418" lon="-8.690985012799501">
        <ele>204.41999999999999</ele>
        <time>2025-05-06T10:22:03Z</time>
      </trkpt>
      <trkpt lat="37.909952038899064" lon="-8.689850019291043">
        <ele>204.41999999999999</ele>
        <time>2025-05-06T10:22:09Z</time>
      </trkpt>
      <trkpt lat="37.909806026145816" lon="-8.689748011529446">
        <ele>203.94</ele>
        <time>2025-05-06T10:22:10Z</time>
      </trkpt>
      <trkpt lat="37.909662025049329" lon="-8.689681962132454">
        <ele>203.94</ele>
        <time>2025-05-06T10:22:11Z</time>
      </trkpt>
      <trkpt lat="37.909521963447332" lon="-8.689664024859667">
        <ele>203.94</ele>
        <time>2025-05-06T10:22:12Z</time>
      </trkpt>
      <trkpt lat="37.909353990107775" lon="-8.689698977395892">
        <ele>204.41999999999999</ele>
        <time>2025-05-06T10:22:13Z</time>
      </trkpt>
      <trkpt lat="37.909172018989921" lon="-8.68973895907402">
        <ele>204.90000000000001</ele>
        <time>2025-05-06T10:22:14Z</time>
      </trkpt>
      <trkpt lat="37.908808998763561" lon="-8.689853958785534">
        <ele>205.38</ele>
        <time>2025-05-06T10:22:16Z</time>
      </trkpt>
      <trkpt lat="37.908617975190282" lon="-8.689884971827269">
        <ele>205.38</ele>
        <time>2025-05-06T10:22:17Z</time>
      </trkpt>
      <trkpt lat="37.908407002687454" lon="-8.689884971827269">
        <ele>205.38</ele>
        <time>2025-05-06T10:22:18Z</time>
      </trkpt>
      <trkpt lat="37.906674966216087" lon="-8.68986401706934">
        <ele>200.56999999999999</ele>
        <time>2025-05-06T10:22:26Z</time>
      </trkpt>
      <trkpt lat="37.904743021354079" lon="-8.689839038997889">
        <ele>195.28</ele>
        <time>2025-05-06T10:22:36Z</time>
      </trkpt>
      <trkpt lat="37.904229965060949" lon="-8.689833004027605">
        <ele>192.88</ele>
        <time>2025-05-06T10:22:39Z</time>
      </trkpt>
      <trkpt lat="37.904078001156449" lon="-8.689881032332778">
        <ele>191.91999999999999</ele>
        <time>2025-05-06T10:22:40Z</time>
      </trkpt>
      <trkpt lat="37.903956966474652" lon="-8.689982034265995">
        <ele>190.96000000000001</ele>
        <time>2025-05-06T10:22:41Z</time>
      </trkpt>
      <trkpt lat="37.903838027268648" lon="-8.690083036199212">
        <ele>190</ele>
        <time>2025-05-06T10:22:42Z</time>
      </trkpt>
      <trkpt lat="37.903737025335431" lon="-8.690225025638938">
        <ele>189.03999999999999</ele>
        <time>2025-05-06T10:22:43Z</time>
      </trkpt>
      <trkpt lat="37.903627976775169" lon="-8.690377995371819">
        <ele>188.08000000000001</ele>
        <time>2025-05-06T10:22:44Z</time>
      </trkpt>
      <trkpt lat="37.902669003233314" lon="-8.691721027716994">
        <ele>183.75</ele>
        <time>2025-05-06T10:22:52Z</time>
      </trkpt>
      <trkpt lat="37.902549980208278" lon="-8.691827980801463">
        <ele>183.27000000000001</ele>
        <time>2025-05-06T10:22:53Z</time>
      </trkpt>
      <trkpt lat="37.902413019910455" lon="-8.691934011876583">
        <ele>183.27000000000001</ele>
        <time>2025-05-06T10:22:54Z</time>
      </trkpt>
      <trkpt lat="37.901982022449374" lon="-8.692151019349694">
        <ele>183.75</ele>
        <time>2025-05-06T10:22:57Z</time>
      </trkpt>
      <trkpt lat="37.901858976110816" lon="-8.692119000479579">
        <ele>183.75</ele>
        <time>2025-05-06T10:22:58Z</time>
      </trkpt>
      <trkpt lat="37.901726039126515" lon="-8.692083964124322">
        <ele>183.27000000000001</ele>
        <time>2025-05-06T10:22:59Z</time>
      </trkpt>
      <trkpt lat="37.901591006666422" lon="-8.692049011588097">
        <ele>182.78999999999999</ele>
        <time>2025-05-06T10:23:00Z</time>
      </trkpt>
      <trkpt lat="37.901464020833373" lon="-8.692015986889601">
        <ele>182.31</ele>
        <time>2025-05-06T10:23:01Z</time>
      </trkpt>
      <trkpt lat="37.901343991979957" lon="-8.692055968567729">
        <ele>181.83000000000001</ele>
        <time>2025-05-06T10:23:02Z</time>
      </trkpt>
      <trkpt lat="37.901237960904837" lon="-8.692128974944353">
        <ele>181.34999999999999</ele>
        <time>2025-05-06T10:23:03Z</time>
      </trkpt>
      <trkpt lat="37.901151040568948" lon="-8.692232994362712">
        <ele>181.34999999999999</ele>
        <time>2025-05-06T10:23:04Z</time>
      </trkpt>
      <trkpt lat="37.90105096064508" lon="-8.692353023216128">
        <ele>180.87</ele>
        <time>2025-05-06T10:23:05Z</time>
      </trkpt>
      <trkpt lat="37.900949958711863" lon="-8.692386969923973">
        <ele>180.38</ele>
        <time>2025-05-06T10:23:06Z</time>
      </trkpt>
      <trkpt lat="37.900823978707194" lon="-8.692365009337664">
        <ele>180.38</ele>
        <time>2025-05-06T10:23:07Z</time>
      </trkpt>
      <trkpt lat="37.900644019246101" lon="-8.692310024052858">
        <ele>180.38</ele>
        <time>2025-05-06T10:23:08Z</time>
      </trkpt>
      <trkpt lat="37.900543017312884" lon="-8.692226959392428">
        <ele>180.38</ele>
        <time>2025-05-06T10:23:09Z</time>
      </trkpt>
      <trkpt lat="37.900395998731256" lon="-8.692106008529663">
        <ele>180.38</ele>
        <time>2025-05-06T10:23:10Z</time>
      </trkpt>
      <trkpt lat="37.900242023169994" lon="-8.691978016868234">
        <ele>180.38</ele>
        <time>2025-05-06T10:23:11Z</time>
      </trkpt>
      <trkpt lat="37.899402994662523" lon="-8.691353984177113">
        <ele>178.94</ele>
        <time>2025-05-06T10:23:16Z</time>
      </trkpt>
      <trkpt lat="37.89922496303916" lon="-8.691305033862591">
        <ele>178.94</ele>
        <time>2025-05-06T10:23:17Z</time>
      </trkpt>
      <trkpt lat="37.899036034941673" lon="-8.69128399528563">
        <ele>178.94</ele>
        <time>2025-05-06T10:23:18Z</time>
      </trkpt>
      <trkpt lat="37.898833025246859" lon="-8.691302016377449">
        <ele>178.94</ele>
        <time>2025-05-06T10:23:19Z</time>
      </trkpt>
      <trkpt lat="37.898625992238522" lon="-8.691320959478617">
        <ele>178.94</ele>
        <time>2025-05-06T10:23:20Z</time>
      </trkpt>
      <trkpt lat="37.898419965058565" lon="-8.69138902053237">
        <ele>179.41999999999999</ele>
        <time>2025-05-06T10:23:21Z</time>
      </trkpt>
      <trkpt lat="37.898207986727357" lon="-8.691464960575104">
        <ele>179.41999999999999</ele>
        <time>2025-05-06T10:23:22Z</time>
      </trkpt>
      <trkpt lat="37.896777028217912" lon="-8.692242968827486">
        <ele>181.34999999999999</ele>
        <time>2025-05-06T10:23:29Z</time>
      </trkpt>
      <trkpt lat="37.894208980724216" lon="-8.693938963115215">
        <ele>179.90000000000001</ele>
        <time>2025-05-06T10:23:42Z</time>
      </trkpt>
      <trkpt lat="37.892811968922615" lon="-8.694890979677439">
        <ele>176.06</ele>
        <time>2025-05-06T10:23:50Z</time>
      </trkpt>
      <trkpt lat="37.892664028331637" lon="-8.694940013810992">
        <ele>176.06</ele>
        <time>2025-05-06T10:23:51Z</time>
      </trkpt>
      <trkpt lat="37.892513992264867" lon="-8.694938002154231">
        <ele>175.58000000000001</ele>
        <time>2025-05-06T10:23:52Z</time>
      </trkpt>
      <trkpt lat="37.891995990648866" lon="-8.694862984120846">
        <ele>175.09999999999999</ele>
        <time>2025-05-06T10:23:55Z</time>
      </trkpt>
      <trkpt lat="37.891287971287966" lon="-8.694928027689457">
        <ele>173.66</ele>
        <time>2025-05-06T10:23:59Z</time>
      </trkpt>
      <trkpt lat="37.891156962141395" lon="-8.695018971338868">
        <ele>173.16999999999999</ele>
        <time>2025-05-06T10:24:00Z</time>
      </trkpt>
      <trkpt lat="37.891049003228545" lon="-8.695098012685776">
        <ele>173.16999999999999</ele>
        <time>2025-05-06T10:24:01Z</time>
      </trkpt>
      <trkpt lat="37.890944983810186" lon="-8.695185016840696">
        <ele>173.16999999999999</ele>
        <time>2025-05-06T10:24:02Z</time>
      </trkpt>
      <trkpt lat="37.890839036554098" lon="-8.695274032652378">
        <ele>173.16999999999999</ele>
        <time>2025-05-06T10:24:03Z</time>
      </trkpt>
      <trkpt lat="37.890710039064288" lon="-8.695272020995617">
        <ele>173.66</ele>
        <time>2025-05-06T10:24:04Z</time>
      </trkpt>
      <trkpt lat="37.890555979683995" lon="-8.695243019610643">
        <ele>173.66</ele>
        <time>2025-05-06T10:24:05Z</time>
      </trkpt>
      <trkpt lat="37.890399992465973" lon="-8.695213012397289">
        <ele>173.66</ele>
        <time>2025-05-06T10:24:06Z</time>
      </trkpt>
      <trkpt lat="37.890259008854628" lon="-8.695186022669077">
        <ele>173.16999999999999</ele>
        <time>2025-05-06T10:24:07Z</time>
      </trkpt>
      <trkpt lat="37.890132023021579" lon="-8.695232039317489">
        <ele>172.69</ele>
        <time>2025-05-06T10:24:08Z</time>
      </trkpt>
      <trkpt lat="37.890035966411233" lon="-8.695327006280422">
        <ele>172.69</ele>
        <time>2025-05-06T10:24:09Z</time>
      </trkpt>
      <trkpt lat="37.889947034418583" lon="-8.695463966578245">
        <ele>172.69</ele>
        <time>2025-05-06T10:24:10Z</time>
      </trkpt>
      <trkpt lat="37.889845026656985" lon="-8.695620959624648">
        <ele>172.21000000000001</ele>
        <time>2025-05-06T10:24:11Z</time>
      </trkpt>
      <trkpt lat="37.889249995350838" lon="-8.696537017822266">
        <ele>174.13999999999999</ele>
        <time>2025-05-06T10:24:16Z</time>
      </trkpt>
      <trkpt lat="37.889102976769209" lon="-8.696684036403894">
        <ele>174.62</ele>
        <time>2025-05-06T10:24:17Z</time>
      </trkpt>
      <trkpt lat="37.887958008795977" lon="-8.697604034096003">
        <ele>176.53999999999999</ele>
        <time>2025-05-06T10:24:23Z</time>
      </trkpt>
      <trkpt lat="37.885675029829144" lon="-8.699399018660188">
        <ele>168.84999999999999</ele>
        <time>2025-05-06T10:24:34Z</time>
      </trkpt>
      <trkpt lat="37.884125970304012" lon="-8.700817991048098">
        <ele>165</ele>
        <time>2025-05-06T10:24:43Z</time>
      </trkpt>
      <trkpt lat="37.882660981267691" lon="-8.702139984816313">
        <ele>162.12</ele>
        <time>2025-05-06T10:24:52Z</time>
      </trkpt>
      <trkpt lat="37.882498959079385" lon="-8.702207962051034">
        <ele>162.12</ele>
        <time>2025-05-06T10:24:53Z</time>
      </trkpt>
      <trkpt lat="37.882340038195252" lon="-8.702222965657711">
        <ele>162.12</ele>
        <time>2025-05-06T10:24:54Z</time>
      </trkpt>
      <trkpt lat="37.882150020450354" lon="-8.702192036435008">
        <ele>162.12</ele>
        <time>2025-05-06T10:24:55Z</time>
      </trkpt>
      <trkpt lat="37.881953967735171" lon="-8.702159011736512">
        <ele>161.63999999999999</ele>
        <time>2025-05-06T10:24:56Z</time>
      </trkpt>
      <trkpt lat="37.881780965253711" lon="-8.702067984268069">
        <ele>161.63999999999999</ele>
        <time>2025-05-06T10:24:57Z</time>
      </trkpt>
      <trkpt lat="37.881588013842702" lon="-8.701965976506472">
        <ele>161.63999999999999</ele>
        <time>2025-05-06T10:24:58Z</time>
      </trkpt>
      <trkpt lat="37.88044597953558" lon="-8.701434982940555">
        <ele>162.12</ele>
        <time>2025-05-06T10:25:04Z</time>
      </trkpt>
      <trkpt lat="37.88027498871088" lon="-8.701407993212342">
        <ele>162.12</ele>
        <time>2025-05-06T10:25:05Z</time>
      </trkpt>
      <trkpt lat="37.880105003714561" lon="-8.701407993212342">
        <ele>162.12</ele>
        <time>2025-05-06T10:25:06Z</time>
      </trkpt>
      <trkpt lat="37.879941975697875" lon="-8.701407993212342">
        <ele>162.59999999999999</ele>
        <time>2025-05-06T10:25:07Z</time>
      </trkpt>
      <trkpt lat="37.87978095933795" lon="-8.701407993212342">
        <ele>162.59999999999999</ele>
        <time>2025-05-06T10:25:08Z</time>
      </trkpt>
      <trkpt lat="37.879622960463166" lon="-8.701375974342227">
        <ele>163.08000000000001</ele>
        <time>2025-05-06T10:25:09Z</time>
      </trkpt>
      <trkpt lat="37.879467979073524" lon="-8.701312020421028">
        <ele>164.03999999999999</ele>
        <time>2025-05-06T10:25:10Z</time>
      </trkpt>
      <trkpt lat="37.879335964098573" lon="-8.701258040964603">
        <ele>164.52000000000001</ele>
        <time>2025-05-06T10:25:11Z</time>
      </trkpt>
      <trkpt lat="37.879160027951002" lon="-8.701258040964603">
        <ele>165</ele>
        <time>2025-05-06T10:25:12Z</time>
      </trkpt>
      <trkpt lat="37.879009991884232" lon="-8.701258040964603">
        <ele>165</ele>
        <time>2025-05-06T10:25:13Z</time>
      </trkpt>
      <trkpt lat="37.878874037414789" lon="-8.701271032914519">
        <ele>165.47999999999999</ele>
        <time>2025-05-06T10:25:14Z</time>
      </trkpt>
      <trkpt lat="37.878636997193098" lon="-8.701330963522196">
        <ele>165.47999999999999</ele>
        <time>2025-05-06T10:25:16Z</time>
      </trkpt>
      <trkpt lat="37.878546975553036" lon="-8.701396007090807">
        <ele>165.96000000000001</ele>
        <time>2025-05-06T10:25:17Z</time>
      </trkpt>
      <trkpt lat="37.878466006368399" lon="-8.701506983488798">
        <ele>165.96000000000001</ele>
        <time>2025-05-06T10:25:18Z</time>
      </trkpt>
      <trkpt lat="37.878385037183762" lon="-8.701646039262414">
        <ele>165.96000000000001</ele>
        <time>2025-05-06T10:25:19Z</time>
      </trkpt>
      <trkpt lat="37.878311024978757" lon="-8.701819041743875">
        <ele>165.96000000000001</ele>
        <time>2025-05-06T10:25:20Z</time>
      </trkpt>
      <trkpt lat="37.878239024430513" lon="-8.701987015083432">
        <ele>165.96000000000001</ele>
        <time>2025-05-06T10:25:21Z</time>
      </trkpt>
      <trkpt lat="37.878145985305309" lon="-8.702122969552875">
        <ele>165.96000000000001</ele>
        <time>2025-05-06T10:25:22Z</time>
      </trkpt>
      <trkpt lat="37.87804096005857" lon="-8.702251967042685">
        <ele>165.47999999999999</ele>
        <time>2025-05-06T10:25:23Z</time>
      </trkpt>
      <trkpt lat="37.877114005386829" lon="-8.703347984701395">
        <ele>164.03999999999999</ele>
        <time>2025-05-06T10:25:30Z</time>
      </trkpt>
      <trkpt lat="37.87664202041924" lon="-8.703900016844273">
        <ele>165.47999999999999</ele>
        <time>2025-05-06T10:25:34Z</time>
      </trkpt>
      <trkpt lat="37.87582696415484" lon="-8.704575011506677">
        <ele>167.41</ele>
        <time>2025-05-06T10:25:41Z</time>
      </trkpt>
      <trkpt lat="37.875706013292074" lon="-8.704590015113354">
        <ele>167.41</ele>
        <time>2025-05-06T10:25:42Z</time>
      </trkpt>
      <trkpt lat="37.875587996095419" lon="-8.704562019556761">
        <ele>167.88999999999999</ele>
        <time>2025-05-06T10:25:43Z</time>
      </trkpt>
      <trkpt lat="37.875466039404273" lon="-8.704511979594827">
        <ele>168.37</ele>
        <time>2025-05-06T10:25:44Z</time>
      </trkpt>
      <trkpt lat="37.875355985015631" lon="-8.704406032338738">
        <ele>168.84999999999999</ele>
        <time>2025-05-06T10:25:45Z</time>
      </trkpt>
      <trkpt lat="37.875236961990595" lon="-8.704292038455606">
        <ele>169.33000000000001</ele>
        <time>2025-05-06T10:25:46Z</time>
      </trkpt>
      <trkpt lat="37.874520979821682" lon="-8.703600028529763">
        <ele>170.77000000000001</ele>
        <time>2025-05-06T10:25:53Z</time>
      </trkpt>
      <trkpt lat="37.874183021485806" lon="-8.70331697165966">
        <ele>171.25</ele>
        <time>2025-05-06T10:25:56Z</time>
      </trkpt>
      <trkpt lat="37.874055029824376" lon="-8.70327397249639">
        <ele>171.25</ele>
        <time>2025-05-06T10:25:57Z</time>
      </trkpt>
      <trkpt lat="37.873939024284482" lon="-8.703263998031616">
        <ele>171.25</ele>
        <time>2025-05-06T10:25:58Z</time>
      </trkpt>
      <trkpt lat="37.873820001259446" lon="-8.703287970274687">
        <ele>170.77000000000001</ele>
        <time>2025-05-06T10:25:59Z</time>
      </trkpt>
      <trkpt lat="37.873670971021056" lon="-8.703317977488041">
        <ele>170.77000000000001</ele>
        <time>2025-05-06T10:26:00Z</time>
      </trkpt>
      <trkpt lat="37.873567035421729" lon="-8.703374974429607">
        <ele>170.77000000000001</ele>
        <time>2025-05-06T10:26:01Z</time>
      </trkpt>
      <trkpt lat="37.873435020446777" lon="-8.70344596914947">
        <ele>171.25</ele>
        <time>2025-05-06T10:26:02Z</time>
      </trkpt>
      <trkpt lat="37.873319014906883" lon="-8.703556023538113">
        <ele>171.25</ele>
        <time>2025-05-06T10:26:03Z</time>
      </trkpt>
      <trkpt lat="37.873207032680511" lon="-8.70366096496582">
        <ele>171.72999999999999</ele>
        <time>2025-05-06T10:26:04Z</time>
      </trkpt>
      <trkpt lat="37.872687019407749" lon="-8.704137979075313">
        <ele>174.13999999999999</ele>
        <time>2025-05-06T10:26:09Z</time>
      </trkpt>
      <trkpt lat="37.872553998604417" lon="-8.704176032915711">
        <ele>174.13999999999999</ele>
        <time>2025-05-06T10:26:10Z</time>
      </trkpt>
      <trkpt lat="37.872417038306594" lon="-8.70421601459384">
        <ele>174.62</ele>
        <time>2025-05-06T10:26:11Z</time>
      </trkpt>
      <trkpt lat="37.872129958122969" lon="-8.704263959079981">
        <ele>176.06</ele>
        <time>2025-05-06T10:26:13Z</time>
      </trkpt>
      <trkpt lat="37.871992997825146" lon="-8.704286003485322">
        <ele>176.53999999999999</ele>
        <time>2025-05-06T10:26:14Z</time>
      </trkpt>
      <trkpt lat="37.871682029217482" lon="-8.704335959628224">
        <ele>177.5</ele>
        <time>2025-05-06T10:26:17Z</time>
      </trkpt>
      <trkpt lat="37.8715930134058" lon="-8.704350963234901">
        <ele>177.5</ele>
        <time>2025-05-06T10:26:18Z</time>
      </trkpt>
      <trkpt lat="37.871509026736021" lon="-8.704365966841579">
        <ele>177.5</ele>
        <time>2025-05-06T10:26:19Z</time>
      </trkpt>
      <trkpt lat="37.871376005932689" lon="-8.70453997515142">
        <ele>177.97999999999999</ele>
        <time>2025-05-06T10:26:20Z</time>
      </trkpt>
      <trkpt lat="37.871376005932689" lon="-8.704648017883301">
        <ele>177.97999999999999</ele>
        <time>2025-05-06T10:26:21Z</time>
      </trkpt>
      <trkpt lat="37.871372988447547" lon="-8.704760000109673">
        <ele>177.97999999999999</ele>
        <time>2025-05-06T10:26:22Z</time>
      </trkpt>
      <trkpt lat="37.871369970962405" lon="-8.704892015084624">
        <ele>177.97999999999999</ele>
        <time>2025-05-06T10:26:23Z</time>
      </trkpt>
      <trkpt lat="37.871366031467915" lon="-8.70503299869597">
        <ele>177.97999999999999</ele>
        <time>2025-05-06T10:26:24Z</time>
      </trkpt>
      <trkpt lat="37.87135899066925" lon="-8.705331981182098">
        <ele>177.97999999999999</ele>
        <time>2025-05-06T10:26:26Z</time>
      </trkpt>
      <trkpt lat="37.871354967355728" lon="-8.705497020855546">
        <ele>177.97999999999999</ele>
        <time>2025-05-06T10:26:27Z</time>
      </trkpt>
      <trkpt lat="37.871325965970755" lon="-8.705667005851865">
        <ele>177.97999999999999</ele>
        <time>2025-05-06T10:26:28Z</time>
      </trkpt>
      <trkpt lat="37.870962023735046" lon="-8.707214975729585">
        <ele>176.53999999999999</ele>
        <time>2025-05-06T10:26:35Z</time>
      </trkpt>
      <trkpt lat="37.870313012972474" lon="-8.709862986579537">
        <ele>175.58000000000001</ele>
        <time>2025-05-06T10:26:46Z</time>
      </trkpt>
      <trkpt lat="37.869619997218251" lon="-8.7126590218395">
        <ele>172.69</ele>
        <time>2025-05-06T10:26:58Z</time>
      </trkpt>
      <trkpt lat="37.869043992832303" lon="-8.715146016329527">
        <ele>177.02000000000001</ele>
        <time>2025-05-06T10:27:07Z</time>
      </trkpt>
      <trkpt lat="37.868406968191266" lon="-8.71758196502924">
        <ele>179.41999999999999</ele>
        <time>2025-05-06T10:27:15Z</time>
      </trkpt>
      <trkpt lat="37.868016958236694" lon="-8.718776972964406">
        <ele>177.97999999999999</ele>
        <time>2025-05-06T10:27:21Z</time>
      </trkpt>
      <trkpt lat="37.867843033745885" lon="-8.719101017341018">
        <ele>179.90000000000001</ele>
        <time>2025-05-06T10:27:25Z</time>
      </trkpt>
      <trkpt lat="37.867803974077106" lon="-8.719162037596107">
        <ele>180.38</ele>
        <time>2025-05-06T10:27:26Z</time>
      </trkpt>
      <trkpt lat="37.867652010172606" lon="-8.719394970685244">
        <ele>182.31</ele>
        <time>2025-05-06T10:27:30Z</time>
      </trkpt>
      <trkpt lat="37.867612028494477" lon="-8.719447022303939">
        <ele>182.31</ele>
        <time>2025-05-06T10:27:31Z</time>
      </trkpt>
      <trkpt lat="37.867160998284817" lon="-8.720009028911591">
        <ele>183.75</ele>
        <time>2025-05-06T10:27:39Z</time>
      </trkpt>
      <trkpt lat="37.86699403077364" lon="-8.720215978100896">
        <ele>184.22999999999999</ele>
        <time>2025-05-06T10:27:42Z</time>
      </trkpt>
      <trkpt lat="37.86693200469017" lon="-8.720292001962662">
        <ele>184.22999999999999</ele>
        <time>2025-05-06T10:27:43Z</time>
      </trkpt>
      <trkpt lat="37.866552975028753" lon="-8.720611017197371">
        <ele>183.27000000000001</ele>
        <time>2025-05-06T10:27:50Z</time>
      </trkpt>
      <trkpt lat="37.866549035534263" lon="-8.720687041059136">
        <ele>182.78999999999999</ele>
        <time>2025-05-06T10:27:51Z</time>
      </trkpt>
      <trkpt lat="37.866577031090856" lon="-8.720750994980335">
        <ele>182.31</ele>
        <time>2025-05-06T10:27:52Z</time>
      </trkpt>
      <trkpt lat="37.866613995283842" lon="-8.720832969993353">
        <ele>181.83000000000001</ele>
        <time>2025-05-06T10:27:53Z</time>
      </trkpt>
      <trkpt lat="37.866658000275493" lon="-8.720932966098189">
        <ele>181.83000000000001</ele>
        <time>2025-05-06T10:27:54Z</time>
      </trkpt>
      <trkpt lat="37.866709968075156" lon="-8.721051989123225">
        <ele>181.34999999999999</ele>
        <time>2025-05-06T10:27:55Z</time>
      </trkpt>
      <trkpt lat="37.867279015481472" lon="-8.722341964021325">
        <ele>177.5</ele>
        <time>2025-05-06T10:28:03Z</time>
      </trkpt>
      <trkpt lat="37.867611022666097" lon="-8.72314696200192">
        <ele>175.09999999999999</ele>
        <time>2025-05-06T10:28:07Z</time>
      </trkpt>
      <trkpt lat="37.867665002122521" lon="-8.723346032202244">
        <ele>174.62</ele>
        <time>2025-05-06T10:28:08Z</time>
      </trkpt>
      <trkpt lat="37.867673970758915" lon="-8.72357401996851">
        <ele>174.13999999999999</ele>
        <time>2025-05-06T10:28:09Z</time>
      </trkpt>
      <trkpt lat="37.86768302321434" lon="-8.723820028826594">
        <ele>173.16999999999999</ele>
        <time>2025-05-06T10:28:10Z</time>
      </trkpt>
      <trkpt lat="37.867685034871101" lon="-8.724075006321073">
        <ele>172.69</ele>
        <time>2025-05-06T10:28:11Z</time>
      </trkpt>
      <trkpt lat="37.867649998515844" lon="-8.72608800418675">
        <ele>162.59999999999999</ele>
        <time>2025-05-06T10:28:19Z</time>
      </trkpt>
      <trkpt lat="37.867622002959251" lon="-8.726243991404772">
        <ele>161.63999999999999</ele>
        <time>2025-05-06T10:28:20Z</time>
      </trkpt>
      <trkpt lat="37.867540027946234" lon="-8.726372988894582">
        <ele>160.68000000000001</ele>
        <time>2025-05-06T10:28:21Z</time>
      </trkpt>
      <trkpt lat="37.867430979385972" lon="-8.726482959464192">
        <ele>159.72</ele>
        <time>2025-05-06T10:28:22Z</time>
      </trkpt>
      <trkpt lat="37.86729502491653" lon="-8.726556971669197">
        <ele>159.24000000000001</ele>
        <time>2025-05-06T10:28:23Z</time>
      </trkpt>
      <trkpt lat="37.867151023820043" lon="-8.726636013016105">
        <ele>158.27000000000001</ele>
        <time>2025-05-06T10:28:24Z</time>
      </trkpt>
      <trkpt lat="37.867009034380317" lon="-8.726727040484548">
        <ele>157.78999999999999</ele>
        <time>2025-05-06T10:28:25Z</time>
      </trkpt>
      <trkpt lat="37.866866961121559" lon="-8.726838016882539">
        <ele>156.83000000000001</ele>
        <time>2025-05-06T10:28:26Z</time>
      </trkpt>
      <trkpt lat="37.866740981116891" lon="-8.726980006322265">
        <ele>156.34999999999999</ele>
        <time>2025-05-06T10:28:27Z</time>
      </trkpt>
      <trkpt lat="37.866625981405377" lon="-8.727146973833442">
        <ele>155.87</ele>
        <time>2025-05-06T10:28:28Z</time>
      </trkpt>
      <trkpt lat="37.866517016664147" lon="-8.727330034598708">
        <ele>155.38999999999999</ele>
        <time>2025-05-06T10:28:29Z</time>
      </trkpt>
      <trkpt lat="37.865871023386717" lon="-8.728489000350237">
        <ele>152.50999999999999</ele>
        <time>2025-05-06T10:28:35Z</time>
      </trkpt>
      <trkpt lat="37.865801034495234" lon="-8.72871003113687">
        <ele>151.53999999999999</ele>
        <time>2025-05-06T10:28:36Z</time>
      </trkpt>
      <trkpt lat="37.865797011181712" lon="-8.728959979489446">
        <ele>151.06</ele>
        <time>2025-05-06T10:28:37Z</time>
      </trkpt>
      <trkpt lat="37.865797011181712" lon="-8.729216968640685">
        <ele>150.58000000000001</ele>
        <time>2025-05-06T10:28:38Z</time>
      </trkpt>
      <trkpt lat="37.865850990638137" lon="-8.729454008862376">
        <ele>149.62</ele>
        <time>2025-05-06T10:28:39Z</time>
      </trkpt>
      <trkpt lat="37.865907987579703" lon="-8.729703035205603">
        <ele>149.13999999999999</ele>
        <time>2025-05-06T10:28:40Z</time>
      </trkpt>
      <trkpt lat="37.86596599034965" lon="-8.729954995214939">
        <ele>148.18000000000001</ele>
        <time>2025-05-06T10:28:41Z</time>
      </trkpt>
      <trkpt lat="37.86691096611321" lon="-8.733538007363677">
        <ele>138.09</ele>
        <time>2025-05-06T10:28:55Z</time>
      </trkpt>
      <trkpt lat="37.867552014067769" lon="-8.735829032957554">
        <ele>133.28</ele>
        <time>2025-05-06T10:29:04Z</time>
      </trkpt>
      <trkpt lat="37.867648992687464" lon="-8.736016033217311">
        <ele>132.31999999999999</ele>
        <time>2025-05-06T10:29:05Z</time>
      </trkpt>
      <trkpt lat="37.867762986570597" lon="-8.736176965758205">
        <ele>131.84</ele>
        <time>2025-05-06T10:29:06Z</time>
      </trkpt>
      <trkpt lat="37.86798401735723" lon="-8.736492041498423">
        <ele>129.91999999999999</ele>
        <time>2025-05-06T10:29:08Z</time>
      </trkpt>
      <trkpt lat="37.868085019290447" lon="-8.736650040373206">
        <ele>129.43000000000001</ele>
        <time>2025-05-06T10:29:09Z</time>
      </trkpt>
      <trkpt lat="37.868125000968575" lon="-8.736840980127454">
        <ele>128.94999999999999</ele>
        <time>2025-05-06T10:29:10Z</time>
      </trkpt>
      <trkpt lat="37.868161965161562" lon="-8.737048013135791">
        <ele>127.98999999999999</ele>
        <time>2025-05-06T10:29:11Z</time>
      </trkpt>
      <trkpt lat="37.868189038708806" lon="-8.737270971760154">
        <ele>127.51000000000001</ele>
        <time>2025-05-06T10:29:12Z</time>
      </trkpt>
      <trkpt lat="37.868351982906461" lon="-8.738780971616507">
        <ele>124.15000000000001</ele>
        <time>2025-05-06T10:29:18Z</time>
      </trkpt>
      <trkpt lat="37.868926981464028" lon="-8.741120025515556">
        <ele>118.38</ele>
        <time>2025-05-06T10:29:27Z</time>
      </trkpt>
      <trkpt lat="37.869034018367529" lon="-8.741299984976649">
        <ele>117.42</ele>
        <time>2025-05-06T10:29:28Z</time>
      </trkpt>
      <trkpt lat="37.869148012250662" lon="-8.741490002721548">
        <ele>116.45999999999999</ele>
        <time>2025-05-06T10:29:29Z</time>
      </trkpt>
      <trkpt lat="37.870245035737753" lon="-8.743103016167879">
        <ele>111.17</ele>
        <time>2025-05-06T10:29:37Z</time>
      </trkpt>
      <trkpt lat="37.870809976011515" lon="-8.743805000558496">
        <ele>110.69</ele>
        <time>2025-05-06T10:29:42Z</time>
      </trkpt>
      <trkpt lat="37.870894968509674" lon="-8.743846993893385">
        <ele>110.69</ele>
        <time>2025-05-06T10:29:43Z</time>
      </trkpt>
      <trkpt lat="37.8709920309484" lon="-8.743860991671681">
        <ele>110.20999999999999</ele>
        <time>2025-05-06T10:29:44Z</time>
      </trkpt>
      <trkpt lat="37.871804991737008" lon="-8.743638033047319">
        <ele>110.69</ele>
        <time>2025-05-06T10:29:50Z</time>
      </trkpt>
      <trkpt lat="37.872123001143336" lon="-8.743485985323787">
        <ele>109.73</ele>
        <time>2025-05-06T10:29:52Z</time>
      </trkpt>
      <trkpt lat="37.873459998518229" lon="-8.742579985409975">
        <ele>106.36</ele>
        <time>2025-05-06T10:30:00Z</time>
      </trkpt>
      <trkpt lat="37.873620009049773" lon="-8.742551989853382">
        <ele>106.36</ele>
        <time>2025-05-06T10:30:01Z</time>
      </trkpt>
      <trkpt lat="37.873790999874473" lon="-8.742574034258723">
        <ele>106.36</ele>
        <time>2025-05-06T10:30:02Z</time>
      </trkpt>
      <trkpt lat="37.873976994305849" lon="-8.742598006501794">
        <ele>105.88</ele>
        <time>2025-05-06T10:30:03Z</time>
      </trkpt>
      <trkpt lat="37.874172041192651" lon="-8.742623990401626">
        <ele>105.40000000000001</ele>
        <time>2025-05-06T10:30:04Z</time>
      </trkpt>
      <trkpt lat="37.87565496750176" lon="-8.742944011464715">
        <ele>102.52</ele>
        <time>2025-05-06T10:30:11Z</time>
      </trkpt>
      <trkpt lat="37.876303978264332" lon="-8.743121037259698">
        <ele>101.56</ele>
        <time>2025-05-06T10:30:14Z</time>
      </trkpt>
      <trkpt lat="37.876516962423921" lon="-8.743208041414619">
        <ele>101.56</ele>
        <time>2025-05-06T10:30:15Z</time>
      </trkpt>
      <trkpt lat="37.878701034933329" lon="-8.744336999952793">
        <ele>98.189999999999998</ele>
        <time>2025-05-06T10:30:26Z</time>
      </trkpt>
      <trkpt lat="37.879593959078193" lon="-8.744916021823883">
        <ele>98.189999999999998</ele>
        <time>2025-05-06T10:30:31Z</time>
      </trkpt>
      <trkpt lat="37.879741983488202" lon="-8.745104027912021">
        <ele>98.189999999999998</ele>
        <time>2025-05-06T10:30:32Z</time>
      </trkpt>
      <trkpt lat="37.881049979478121" lon="-8.74684302136302">
        <ele>94.829999999999998</ele>
        <time>2025-05-06T10:30:40Z</time>
      </trkpt>
      <trkpt lat="37.883006986230612" lon="-8.749524978920817">
        <ele>86.180000000000007</ele>
        <time>2025-05-06T10:30:52Z</time>
      </trkpt>
      <trkpt lat="37.884459989145398" lon="-8.751491038128734">
        <ele>81.370000000000005</ele>
        <time>2025-05-06T10:31:01Z</time>
      </trkpt>
      <trkpt lat="37.885949034243822" lon="-8.753516022115946">
        <ele>78.480000000000004</ele>
        <time>2025-05-06T10:31:11Z</time>
      </trkpt>
      <trkpt lat="37.886729976162314" lon="-8.754598964005709">
        <ele>77.040000000000006</ele>
        <time>2025-05-06T10:31:17Z</time>
      </trkpt>
      <trkpt lat="37.887115040794015" lon="-8.755133980885148">
        <ele>76.560000000000002</ele>
        <time>2025-05-06T10:31:22Z</time>
      </trkpt>
      <trkpt lat="37.887189975008368" lon="-8.755232971161604">
        <ele>76.560000000000002</ele>
        <time>2025-05-06T10:31:23Z</time>
      </trkpt>
      <trkpt lat="37.887648968026042" lon="-8.755855998024344">
        <ele>76.079999999999998</ele>
        <time>2025-05-06T10:31:29Z</time>
      </trkpt>
      <trkpt lat="37.887691967189312" lon="-8.755914000794292">
        <ele>76.079999999999998</ele>
        <time>2025-05-06T10:31:30Z</time>
      </trkpt>
      <trkpt lat="37.887652991339564" lon="-8.755962029099464">
        <ele>76.079999999999998</ele>
        <time>2025-05-06T10:31:31Z</time>
      </trkpt>
      <trkpt lat="37.887610998004675" lon="-8.755987007170916">
        <ele>76.079999999999998</ele>
        <time>2025-05-06T10:31:32Z</time>
      </trkpt>
      <trkpt lat="37.887545032426715" lon="-8.756024977192283">
        <ele>76.079999999999998</ele>
        <time>2025-05-06T10:31:33Z</time>
      </trkpt>
      <trkpt lat="37.887446964159608" lon="-8.756081974133849">
        <ele>76.560000000000002</ele>
        <time>2025-05-06T10:31:34Z</time>
      </trkpt>
      <trkpt lat="37.887359960004687" lon="-8.756111981347203">
        <ele>76.560000000000002</ele>
        <time>2025-05-06T10:31:35Z</time>
      </trkpt>
      <trkpt lat="37.886285986751318" lon="-8.756483970209956">
        <ele>76.079999999999998</ele>
        <time>2025-05-06T10:31:42Z</time>
      </trkpt>
      <trkpt lat="37.88435404188931" lon="-8.757153013721108">
        <ele>76.560000000000002</ele>
        <time>2025-05-06T10:31:51Z</time>
      </trkpt>
      <trkpt lat="37.881589019671082" lon="-8.758108969777823">
        <ele>77.040000000000006</ele>
        <time>2025-05-06T10:32:02Z</time>
      </trkpt>
      <trkpt lat="37.879355996847153" lon="-8.759105997160077">
        <ele>78.969999999999999</ele>
        <time>2025-05-06T10:32:11Z</time>
      </trkpt>
      <trkpt lat="37.877642987295985" lon="-8.760068994015455">
        <ele>79.930000000000007</ele>
        <time>2025-05-06T10:32:19Z</time>
      </trkpt>
      <trkpt lat="37.877405025064945" lon="-8.760134037584066">
        <ele>79.930000000000007</ele>
        <time>2025-05-06T10:32:20Z</time>
      </trkpt>
      <trkpt lat="37.877155998721719" lon="-8.76018600538373">
        <ele>79.930000000000007</ele>
        <time>2025-05-06T10:32:21Z</time>
      </trkpt>
      <trkpt lat="37.874948037788272" lon="-8.760346015915275">
        <ele>80.409999999999997</ele>
        <time>2025-05-06T10:32:30Z</time>
      </trkpt>
      <trkpt lat="37.872501024976373" lon="-8.760523041710258">
        <ele>81.849999999999994</ele>
        <time>2025-05-06T10:32:40Z</time>
      </trkpt>
      <trkpt lat="37.870522979646921" lon="-8.760666958987713">
        <ele>82.810000000000002</ele>
        <time>2025-05-06T10:32:48Z</time>
      </trkpt>
      <trkpt lat="37.86807001568377" lon="-8.7609370239079">
        <ele>83.290000000000006</ele>
        <time>2025-05-06T10:32:58Z</time>
      </trkpt>
      <trkpt lat="37.864402011036873" lon="-8.761294009163976">
        <ele>81.849999999999994</ele>
        <time>2025-05-06T10:33:13Z</time>
      </trkpt>
      <trkpt lat="37.861017985269427" lon="-8.761745039373636">
        <ele>81.849999999999994</ele>
        <time>2025-05-06T10:33:27Z</time>
      </trkpt>
      <trkpt lat="37.860806006938219" lon="-8.761871019378305">
        <ele>82.329999999999998</ele>
        <time>2025-05-06T10:33:28Z</time>
      </trkpt>
      <trkpt lat="37.8585309907794" lon="-8.763296026736498">
        <ele>79.930000000000007</ele>
        <time>2025-05-06T10:33:39Z</time>
      </trkpt>
      <trkpt lat="37.857933025807142" lon="-8.763671033084393">
        <ele>77.519999999999996</ele>
        <time>2025-05-06T10:33:42Z</time>
      </trkpt>
      <trkpt lat="37.857810985296965" lon="-8.763825008645654">
        <ele>77.040000000000006</ele>
        <time>2025-05-06T10:33:43Z</time>
      </trkpt>
      <trkpt lat="37.857720041647553" lon="-8.7639469653368">
        <ele>76.560000000000002</ele>
        <time>2025-05-06T10:33:44Z</time>
      </trkpt>
      <trkpt lat="37.857651980593801" lon="-8.764051990583539">
        <ele>76.079999999999998</ele>
        <time>2025-05-06T10:33:45Z</time>
      </trkpt>
      <trkpt lat="37.85760797560215" lon="-8.764155004173517">
        <ele>75.599999999999994</ele>
        <time>2025-05-06T10:33:46Z</time>
      </trkpt>
      <trkpt lat="37.857570005580783" lon="-8.764247037470341">
        <ele>75.120000000000005</ele>
        <time>2025-05-06T10:33:47Z</time>
      </trkpt>
      <trkpt lat="37.857590960338712" lon="-8.764359019696713">
        <ele>75.120000000000005</ele>
        <time>2025-05-06T10:33:48Z</time>
      </trkpt>
      <trkpt lat="37.857608981430531" lon="-8.764465972781181">
        <ele>74.640000000000001</ele>
        <time>2025-05-06T10:33:49Z</time>
      </trkpt>
      <trkpt lat="37.857582997530699" lon="-8.764544008299708">
        <ele>74.159999999999997</ele>
        <time>2025-05-06T10:33:50Z</time>
      </trkpt>
      <trkpt lat="37.857526000589132" lon="-8.76459295861423">
        <ele>73.680000000000007</ele>
        <time>2025-05-06T10:33:51Z</time>
      </trkpt>
      <trkpt lat="37.857461962848902" lon="-8.764636041596532">
        <ele>73.680000000000007</ele>
        <time>2025-05-06T10:33:52Z</time>
      </trkpt>
      <trkpt lat="37.857395997270942" lon="-8.76459002494812">
        <ele>73.200000000000003</ele>
        <time>2025-05-06T10:33:53Z</time>
      </trkpt>
      <trkpt lat="37.857334977015853" lon="-8.764529004693031">
        <ele>72.719999999999999</ele>
        <time>2025-05-06T10:33:54Z</time>
      </trkpt>
      <trkpt lat="37.857320979237556" lon="-8.764474019408226">
        <ele>72.239999999999995</ele>
        <time>2025-05-06T10:33:55Z</time>
      </trkpt>
      <trkpt lat="37.857251996174455" lon="-8.764284001663327">
        <ele>71.760000000000005</ele>
        <time>2025-05-06T10:33:56Z</time>
      </trkpt>
      <trkpt lat="37.857165997847915" lon="-8.764236979186535">
        <ele>71.760000000000005</ele>
        <time>2025-05-06T10:33:57Z</time>
      </trkpt>
      <trkpt lat="37.857055021449924" lon="-8.764175958931446">
        <ele>71.760000000000005</ele>
        <time>2025-05-06T10:33:58Z</time>
      </trkpt>
      <trkpt lat="37.856928035616875" lon="-8.764106975868344">
        <ele>71.269999999999996</ele>
        <time>2025-05-06T10:33:59Z</time>
      </trkpt>
      <trkpt lat="37.856794008985162" lon="-8.76403296366334">
        <ele>70.790000000000006</ele>
        <time>2025-05-06T10:34:00Z</time>
      </trkpt>
      <trkpt lat="37.855819026008248" lon="-8.763548992574215">
        <ele>71.269999999999996</ele>
        <time>2025-05-06T10:34:07Z</time>
      </trkpt>
      <trkpt lat="37.855659015476704" lon="-8.763558967038989">
        <ele>71.269999999999996</ele>
        <time>2025-05-06T10:34:08Z</time>
      </trkpt>
      <trkpt lat="37.855503028258681" lon="-8.763569025322795">
        <ele>71.269999999999996</ele>
        <time>2025-05-06T10:34:09Z</time>
      </trkpt>
      <trkpt lat="37.855347963050008" lon="-8.763638008385897">
        <ele>71.269999999999996</ele>
        <time>2025-05-06T10:34:10Z</time>
      </trkpt>
      <trkpt lat="37.855191975831985" lon="-8.763720989227295">
        <ele>71.269999999999996</ele>
        <time>2025-05-06T10:34:11Z</time>
      </trkpt>
      <trkpt lat="37.853629002347589" lon="-8.764535961672664">
        <ele>71.760000000000005</ele>
        <time>2025-05-06T10:34:20Z</time>
      </trkpt>
      <trkpt lat="37.851374018937349" lon="-8.765713032335043">
        <ele>70.790000000000006</ele>
        <time>2025-05-06T10:34:33Z</time>
      </trkpt>
      <trkpt lat="37.848885012790561" lon="-8.767023039981723">
        <ele>69.349999999999994</ele>
        <time>2025-05-06T10:34:47Z</time>
      </trkpt>
      <trkpt lat="37.847951017320156" lon="-8.76751396805048">
        <ele>68.390000000000001</ele>
        <time>2025-05-06T10:34:53Z</time>
      </trkpt>
      <trkpt lat="37.847859989851713" lon="-8.76751396805048">
        <ele>67.909999999999997</ele>
        <time>2025-05-06T10:34:54Z</time>
      </trkpt>
      <trkpt lat="37.847769968211651" lon="-8.767456971108913">
        <ele>68.390000000000001</ele>
        <time>2025-05-06T10:34:55Z</time>
      </trkpt>
      <trkpt lat="37.847665026783943" lon="-8.767391005530953">
        <ele>68.390000000000001</ele>
        <time>2025-05-06T10:34:56Z</time>
      </trkpt>
      <trkpt lat="37.847538962960243" lon="-8.767310036346316">
        <ele>68.390000000000001</ele>
        <time>2025-05-06T10:34:57Z</time>
      </trkpt>
      <trkpt lat="37.847391022369266" lon="-8.767215991392732">
        <ele>68.390000000000001</ele>
        <time>2025-05-06T10:34:58Z</time>
      </trkpt>
      <trkpt lat="37.847224976867437" lon="-8.767110966145992">
        <ele>68.870000000000005</ele>
        <time>2025-05-06T10:34:59Z</time>
      </trkpt>
      <trkpt lat="37.84703797660768" lon="-8.767027985304594">
        <ele>68.870000000000005</ele>
        <time>2025-05-06T10:35:00Z</time>
      </trkpt>
      <trkpt lat="37.846836978569627" lon="-8.766996972262859">
        <ele>68.870000000000005</ele>
        <time>2025-05-06T10:35:01Z</time>
      </trkpt>
      <trkpt lat="37.846642015501857" lon="-8.766986997798085">
        <ele>68.870000000000005</ele>
        <time>2025-05-06T10:35:02Z</time>
      </trkpt>
      <trkpt lat="37.844359036535025" lon="-8.766955984756351">
        <ele>70.790000000000006</ele>
        <time>2025-05-06T10:35:14Z</time>
      </trkpt>
      <trkpt lat="37.843479020521045" lon="-8.767047012224793">
        <ele>70.310000000000002</ele>
        <time>2025-05-06T10:35:20Z</time>
      </trkpt>
      <trkpt lat="37.842745017260313" lon="-8.767138039693236">
        <ele>70.310000000000002</ele>
        <time>2025-05-06T10:35:28Z</time>
      </trkpt>
      <trkpt lat="37.8420739620924" lon="-8.767160000279546">
        <ele>69.349999999999994</ele>
        <time>2025-05-06T10:35:35Z</time>
      </trkpt>
      <trkpt lat="37.841291008517146" lon="-8.766689021140337">
        <ele>67.909999999999997</ele>
        <time>2025-05-06T10:35:42Z</time>
      </trkpt>
      <trkpt lat="37.839869018644094" lon="-8.765694005414844">
        <ele>69.829999999999998</ele>
        <time>2025-05-06T10:35:52Z</time>
      </trkpt>
      <trkpt lat="37.837992981076241" lon="-8.764429008588195">
        <ele>71.269999999999996</ele>
        <time>2025-05-06T10:36:03Z</time>
      </trkpt>
      <trkpt lat="37.835703967139125" lon="-8.763283034786582">
        <ele>71.269999999999996</ele>
        <time>2025-05-06T10:36:15Z</time>
      </trkpt>
      <trkpt lat="37.833853997290134" lon="-8.762363037094474">
        <ele>70.790000000000006</ele>
        <time>2025-05-06T10:36:26Z</time>
      </trkpt>
      <trkpt lat="37.832836015149951" lon="-8.76184000633657">
        <ele>70.310000000000002</ele>
        <time>2025-05-06T10:36:34Z</time>
      </trkpt>
      <trkpt lat="37.831164998933673" lon="-8.760987985879183">
        <ele>66.950000000000003</ele>
        <time>2025-05-06T10:36:46Z</time>
      </trkpt>
      <trkpt lat="37.829264989122748" lon="-8.760235039517283">
        <ele>65.030000000000001</ele>
        <time>2025-05-06T10:36:57Z</time>
      </trkpt>
      <trkpt lat="37.827942995354533" lon="-8.759781997650862">
        <ele>67.430000000000007</ele>
        <time>2025-05-06T10:37:04Z</time>
      </trkpt>
      <trkpt lat="37.827760018408298" lon="-8.75975601375103">
        <ele>67.909999999999997</ele>
        <time>2025-05-06T10:37:05Z</time>
      </trkpt>
      <trkpt lat="37.827567989006639" lon="-8.759798007085919">
        <ele>68.390000000000001</ele>
        <time>2025-05-06T10:37:06Z</time>
      </trkpt>
      <trkpt lat="37.82737797126174" lon="-8.759851986542344">
        <ele>69.349999999999994</ele>
        <time>2025-05-06T10:37:07Z</time>
      </trkpt>
      <trkpt lat="37.827189965173602" lon="-8.759905965998769">
        <ele>70.310000000000002</ele>
        <time>2025-05-06T10:37:08Z</time>
      </trkpt>
      <trkpt lat="37.827003970742226" lon="-8.759964974597096">
        <ele>71.269999999999996</ele>
        <time>2025-05-06T10:37:09Z</time>
      </trkpt>
      <trkpt lat="37.824716968461871" lon="-8.760734014213085">
        <ele>72.719999999999999</ele>
        <time>2025-05-06T10:37:20Z</time>
      </trkpt>
      <trkpt lat="37.82258503139019" lon="-8.76145401969552">
        <ele>71.269999999999996</ele>
        <time>2025-05-06T10:37:29Z</time>
      </trkpt>
      <trkpt lat="37.820236003026366" lon="-8.76224803738296">
        <ele>71.269999999999996</ele>
        <time>2025-05-06T10:37:39Z</time>
      </trkpt>
      <trkpt lat="37.817176021635532" lon="-8.763276999816299">
        <ele>68.390000000000001</ele>
        <time>2025-05-06T10:37:53Z</time>
      </trkpt>
      <trkpt lat="37.814761027693748" lon="-8.763945959508419">
        <ele>54.93</ele>
        <time>2025-05-06T10:38:04Z</time>
      </trkpt>
      <trkpt lat="37.813618993386626" lon="-8.764315014705062">
        <ele>58.780000000000001</ele>
        <time>2025-05-06T10:38:11Z</time>
      </trkpt>
      <trkpt lat="37.81345303170383" lon="-8.764367988333106">
        <ele>60.219999999999999</ele>
        <time>2025-05-06T10:38:12Z</time>
      </trkpt>
      <trkpt lat="37.813290003687143" lon="-8.764442000538111">
        <ele>61.18</ele>
        <time>2025-05-06T10:38:13Z</time>
      </trkpt>
      <trkpt lat="37.81201402656734" lon="-8.765141973271966">
        <ele>69.829999999999998</ele>
        <time>2025-05-06T10:38:20Z</time>
      </trkpt>
      <trkpt lat="37.810463039204478" lon="-8.766076974570751">
        <ele>73.680000000000007</ele>
        <time>2025-05-06T10:38:28Z</time>
      </trkpt>
      <trkpt lat="37.809299966320395" lon="-8.766778958961368">
        <ele>74.159999999999997</ele>
        <time>2025-05-06T10:38:34Z</time>
      </trkpt>
      <trkpt lat="37.809109026566148" lon="-8.766892030835152">
        <ele>74.159999999999997</ele>
        <time>2025-05-06T10:38:35Z</time>
      </trkpt>
      <trkpt lat="37.807262996211648" lon="-8.76798402518034">
        <ele>76.560000000000002</ele>
        <time>2025-05-06T10:38:45Z</time>
      </trkpt>
      <trkpt lat="37.805302971974015" lon="-8.769321022555232">
        <ele>73.680000000000007</ele>
        <time>2025-05-06T10:38:57Z</time>
      </trkpt>
      <trkpt lat="37.804293036460876" lon="-8.770017977803946">
        <ele>70.310000000000002</ele>
        <time>2025-05-06T10:39:05Z</time>
      </trkpt>
      <trkpt lat="37.803376978263259" lon="-8.770617032423616">
        <ele>69.349999999999994</ele>
        <time>2025-05-06T10:39:14Z</time>
      </trkpt>
      <trkpt lat="37.802112987264991" lon="-8.771513979882002">
        <ele>68.870000000000005</ele>
        <time>2025-05-06T10:39:26Z</time>
      </trkpt>
      <trkpt lat="37.80097003094852" lon="-8.77264897339046">
        <ele>66.950000000000003</ele>
        <time>2025-05-06T10:39:38Z</time>
      </trkpt>
      <trkpt lat="37.800467032939196" lon="-8.773244004696608">
        <ele>64.549999999999997</ele>
        <time>2025-05-06T10:39:43Z</time>
      </trkpt>
      <trkpt lat="37.800382962450385" lon="-8.773397980257869">
        <ele>63.579999999999998</ele>
        <time>2025-05-06T10:39:44Z</time>
      </trkpt>
      <trkpt lat="37.800295958295465" lon="-8.773558996617794">
        <ele>63.100000000000001</ele>
        <time>2025-05-06T10:39:45Z</time>
      </trkpt>
      <trkpt lat="37.80022001825273" lon="-8.773748008534312">
        <ele>62.619999999999997</ele>
        <time>2025-05-06T10:39:46Z</time>
      </trkpt>
      <trkpt lat="37.800169978290796" lon="-8.773950012400746">
        <ele>61.659999999999997</ele>
        <time>2025-05-06T10:39:47Z</time>
      </trkpt>
      <trkpt lat="37.800118010491133" lon="-8.774156961590052">
        <ele>61.18</ele>
        <time>2025-05-06T10:39:48Z</time>
      </trkpt>
      <trkpt lat="37.799738980829716" lon="-8.775894027203322">
        <ele>55.890000000000001</ele>
        <time>2025-05-06T10:39:56Z</time>
      </trkpt>
      <trkpt lat="37.799413008615375" lon="-8.777355998754501">
        <ele>51.57</ele>
        <time>2025-05-06T10:40:04Z</time>
      </trkpt>
      <trkpt lat="37.799183009192348" lon="-8.778270967304707">
        <ele>49.159999999999997</ele>
        <time>2025-05-06T10:40:09Z</time>
      </trkpt>
      <trkpt lat="37.799084018915892" lon="-8.778414968401194">
        <ele>48.68</ele>
        <time>2025-05-06T10:40:10Z</time>
      </trkpt>
      <trkpt lat="37.798976982012391" lon="-8.778570033609867">
        <ele>48.68</ele>
        <time>2025-05-06T10:40:11Z</time>
      </trkpt>
      <trkpt lat="37.798854019492865" lon="-8.778647985309362">
        <ele>48.68</ele>
        <time>2025-05-06T10:40:12Z</time>
      </trkpt>
      <trkpt lat="37.798711024224758" lon="-8.778729038313031">
        <ele>48.68</ele>
        <time>2025-05-06T10:40:13Z</time>
      </trkpt>
      <trkpt lat="37.798552019521594" lon="-8.778776982799172">
        <ele>49.159999999999997</ele>
        <time>2025-05-06T10:40:14Z</time>
      </trkpt>
      <trkpt lat="37.798389997333288" lon="-8.778826016932726">
        <ele>49.159999999999997</ele>
        <time>2025-05-06T10:40:15Z</time>
      </trkpt>
      <trkpt lat="37.796090003103018" lon="-8.779561026021838">
        <ele>55.890000000000001</ele>
        <time>2025-05-06T10:40:28Z</time>
      </trkpt>
      <trkpt lat="37.793607031926513" lon="-8.780388990417123">
        <ele>56.369999999999997</ele>
        <time>2025-05-06T10:40:41Z</time>
      </trkpt>
      <trkpt lat="37.790935970842838" lon="-8.781335977837443">
        <ele>58.299999999999997</ele>
        <time>2025-05-06T10:40:54Z</time>
      </trkpt>
      <trkpt lat="37.788120992481709" lon="-8.782254969701171">
        <ele>63.579999999999998</ele>
        <time>2025-05-06T10:41:08Z</time>
      </trkpt>
      <trkpt lat="37.786024007946253" lon="-8.782939016819">
        <ele>66.950000000000003</ele>
        <time>2025-05-06T10:41:18Z</time>
      </trkpt>
      <trkpt lat="37.785801971331239" lon="-8.783012023195624">
        <ele>67.430000000000007</ele>
        <time>2025-05-06T10:41:19Z</time>
      </trkpt>
      <trkpt lat="37.785590998828411" lon="-8.783032977953553">
        <ele>67.909999999999997</ele>
        <time>2025-05-06T10:41:20Z</time>
      </trkpt>
      <trkpt lat="37.783294022083282" lon="-8.783062985166907">
        <ele>66.469999999999999</ele>
        <time>2025-05-06T10:41:30Z</time>
      </trkpt>
      <trkpt lat="37.781411027535796" lon="-8.783115036785603">
        <ele>64.549999999999997</ele>
        <time>2025-05-06T10:41:39Z</time>
      </trkpt>
      <trkpt lat="37.780122980475426" lon="-8.783275969326496">
        <ele>63.579999999999998</ele>
        <time>2025-05-06T10:41:46Z</time>
      </trkpt>
      <trkpt lat="37.778757987543941" lon="-8.78347403369844">
        <ele>65.030000000000001</ele>
        <time>2025-05-06T10:41:54Z</time>
      </trkpt>
      <trkpt lat="37.776662008836865" lon="-8.78377796150744">
        <ele>66.469999999999999</ele>
        <time>2025-05-06T10:42:04Z</time>
      </trkpt>
      <trkpt lat="37.775642015039921" lon="-8.783832024782896">
        <ele>65.510000000000005</ele>
        <time>2025-05-06T10:42:09Z</time>
      </trkpt>
      <trkpt lat="37.775428025051951" lon="-8.783810986205936">
        <ele>65.030000000000001</ele>
        <time>2025-05-06T10:42:10Z</time>
      </trkpt>
      <trkpt lat="37.775224009528756" lon="-8.783718030899763">
        <ele>65.030000000000001</ele>
        <time>2025-05-06T10:42:11Z</time>
      </trkpt>
      <trkpt lat="37.775025023147464" lon="-8.783602025359869">
        <ele>65.030000000000001</ele>
        <time>2025-05-06T10:42:12Z</time>
      </trkpt>
      <trkpt lat="37.774831987917423" lon="-8.783489959314466">
        <ele>64.549999999999997</ele>
        <time>2025-05-06T10:42:13Z</time>
      </trkpt>
      <trkpt lat="37.772280033677816" lon="-8.782004015520215">
        <ele>63.579999999999998</ele>
        <time>2025-05-06T10:42:26Z</time>
      </trkpt>
      <trkpt lat="37.770358985289931" lon="-8.780901040881872">
        <ele>69.829999999999998</ele>
        <time>2025-05-06T10:42:36Z</time>
      </trkpt>
      <trkpt lat="37.7701620105654" lon="-8.78085401840508">
        <ele>70.790000000000006</ele>
        <time>2025-05-06T10:42:37Z</time>
      </trkpt>
      <trkpt lat="37.769945003092289" lon="-8.780800960958004">
        <ele>71.269999999999996</ele>
        <time>2025-05-06T10:42:38Z</time>
      </trkpt>
      <trkpt lat="37.76975397951901" lon="-8.780808001756668">
        <ele>71.760000000000005</ele>
        <time>2025-05-06T10:42:39Z</time>
      </trkpt>
      <trkpt lat="37.769545018672943" lon="-8.780814958736301">
        <ele>72.239999999999995</ele>
        <time>2025-05-06T10:42:40Z</time>
      </trkpt>
      <trkpt lat="37.767204958945513" lon="-8.780938005074859">
        <ele>75.120000000000005</ele>
        <time>2025-05-06T10:42:51Z</time>
      </trkpt>
      <trkpt lat="37.767003960907459" lon="-8.780931970104575">
        <ele>74.640000000000001</ele>
        <time>2025-05-06T10:42:52Z</time>
      </trkpt>
      <trkpt lat="37.766807992011309" lon="-8.780892994254828">
        <ele>74.640000000000001</ele>
        <time>2025-05-06T10:42:53Z</time>
      </trkpt>
      <trkpt lat="37.766615962609649" lon="-8.780839014798403">
        <ele>74.640000000000001</ele>
        <time>2025-05-06T10:42:54Z</time>
      </trkpt>
      <trkpt lat="37.766404990106821" lon="-8.780780006200075">
        <ele>74.640000000000001</ele>
        <time>2025-05-06T10:42:55Z</time>
      </trkpt>
      <trkpt lat="37.766246991232038" lon="-8.780652014538646">
        <ele>74.640000000000001</ele>
        <time>2025-05-06T10:42:56Z</time>
      </trkpt>
      <trkpt lat="37.766077006235719" lon="-8.780513964593411">
        <ele>74.640000000000001</ele>
        <time>2025-05-06T10:42:57Z</time>
      </trkpt>
      <trkpt lat="37.765953037887812" lon="-8.780292011797428">
        <ele>74.640000000000001</ele>
        <time>2025-05-06T10:42:58Z</time>
      </trkpt>
      <trkpt lat="37.765841977670789" lon="-8.780079027637839">
        <ele>75.120000000000005</ele>
        <time>2025-05-06T10:42:59Z</time>
      </trkpt>
      <trkpt lat="37.765726977959275" lon="-8.779857996851206">
        <ele>75.120000000000005</ele>
        <time>2025-05-06T10:43:00Z</time>
      </trkpt>
      <trkpt lat="37.765612984076142" lon="-8.779637971892953">
        <ele>75.599999999999994</ele>
        <time>2025-05-06T10:43:01Z</time>
      </trkpt>
      <trkpt lat="37.764932038262486" lon="-8.778336010873318">
        <ele>76.079999999999998</ele>
        <time>2025-05-06T10:43:08Z</time>
      </trkpt>
      <trkpt lat="37.764851991087198" lon="-8.778183963149786">
        <ele>76.560000000000002</ele>
        <time>2025-05-06T10:43:09Z</time>
      </trkpt>
      <trkpt lat="37.764628026634455" lon="-8.777757994830608">
        <ele>77.040000000000006</ele>
        <time>2025-05-06T10:43:12Z</time>
      </trkpt>
      <trkpt lat="37.763441987335682" lon="-8.776270961388946">
        <ele>78.480000000000004</ele>
        <time>2025-05-06T10:43:25Z</time>
      </trkpt>
      <trkpt lat="37.76201899163425" lon="-8.774506989866495">
        <ele>80.409999999999997</ele>
        <time>2025-05-06T10:43:40Z</time>
      </trkpt>
      <trkpt lat="37.760863965377212" lon="-8.773117018863559">
        <ele>80.409999999999997</ele>
        <time>2025-05-06T10:43:53Z</time>
      </trkpt>
      <trkpt lat="37.759858975186944" lon="-8.771868031471968">
        <ele>78.480000000000004</ele>
        <time>2025-05-06T10:44:03Z</time>
      </trkpt>
      <trkpt lat="37.758990023285151" lon="-8.770489962771535">
        <ele>77.040000000000006</ele>
        <time>2025-05-06T10:44:10Z</time>
      </trkpt>
      <trkpt lat="37.757692001760006" lon="-8.767924010753632">
        <ele>74.159999999999997</ele>
        <time>2025-05-06T10:44:22Z</time>
      </trkpt>
      <trkpt lat="37.756438991054893" lon="-8.7663300242275">
        <ele>71.269999999999996</ele>
        <time>2025-05-06T10:44:30Z</time>
      </trkpt>
      <trkpt lat="37.75443403981626" lon="-8.763984013348818">
        <ele>68.390000000000001</ele>
        <time>2025-05-06T10:44:42Z</time>
      </trkpt>
      <trkpt lat="37.753331987187266" lon="-8.762693032622337">
        <ele>68.390000000000001</ele>
        <time>2025-05-06T10:44:50Z</time>
      </trkpt>
      <trkpt lat="37.752555990591645" lon="-8.7617779802531">
        <ele>68.390000000000001</ele>
        <time>2025-05-06T10:44:57Z</time>
      </trkpt>
      <trkpt lat="37.752375025302172" lon="-8.761477991938591">
        <ele>69.349999999999994</ele>
        <time>2025-05-06T10:44:59Z</time>
      </trkpt>
      <trkpt lat="37.752316016703844" lon="-8.761301971971989">
        <ele>69.829999999999998</ele>
        <time>2025-05-06T10:45:00Z</time>
      </trkpt>
      <trkpt lat="37.752016028389335" lon="-8.759757019579411">
        <ele>69.349999999999994</ele>
        <time>2025-05-06T10:45:08Z</time>
      </trkpt>
      <trkpt lat="37.751669017598033" lon="-8.757537994533777">
        <ele>65.989999999999995</ele>
        <time>2025-05-06T10:45:20Z</time>
      </trkpt>
      <trkpt lat="37.751537002623081" lon="-8.757268013432622">
        <ele>65.989999999999995</ele>
        <time>2025-05-06T10:45:22Z</time>
      </trkpt>
      <trkpt lat="37.751470031216741" lon="-8.757133986800909">
        <ele>65.989999999999995</ele>
        <time>2025-05-06T10:45:23Z</time>
      </trkpt>
      <trkpt lat="37.751410016790032" lon="-8.757043965160847">
        <ele>65.989999999999995</ele>
        <time>2025-05-06T10:45:24Z</time>
      </trkpt>
      <trkpt lat="37.751355031505227" lon="-8.756960984319449">
        <ele>65.989999999999995</ele>
        <time>2025-05-06T10:45:25Z</time>
      </trkpt>
      <trkpt lat="37.751239025965333" lon="-8.756960984319449">
        <ele>65.989999999999995</ele>
        <time>2025-05-06T10:45:26Z</time>
      </trkpt>
      <trkpt lat="37.7511699590832" lon="-8.757020998746157">
        <ele>65.989999999999995</ele>
        <time>2025-05-06T10:45:27Z</time>
      </trkpt>
      <trkpt lat="37.751099970191717" lon="-8.757085036486387">
        <ele>65.989999999999995</ele>
        <time>2025-05-06T10:45:28Z</time>
      </trkpt>
      <trkpt lat="37.751023024320602" lon="-8.75715502537787">
        <ele>65.510000000000005</ele>
        <time>2025-05-06T10:45:29Z</time>
      </trkpt>
      <trkpt lat="37.750938031822443" lon="-8.757250998169184">
        <ele>65.510000000000005</ele>
        <time>2025-05-06T10:45:30Z</time>
      </trkpt>
      <trkpt lat="37.750856978818774" lon="-8.757360968738794">
        <ele>65.510000000000005</ele>
        <time>2025-05-06T10:45:31Z</time>
      </trkpt>
      <trkpt lat="37.74970798753202" lon="-8.758624037727714">
        <ele>65.510000000000005</ele>
        <time>2025-05-06T10:45:42Z</time>
      </trkpt>
      <trkpt lat="37.748220032081008" lon="-8.75992801040411">
        <ele>64.549999999999997</ele>
        <time>2025-05-06T10:45:55Z</time>
      </trkpt>
      <trkpt lat="37.746931985020638" lon="-8.760911962017417">
        <ele>63.100000000000001</ele>
        <time>2025-05-06T10:46:04Z</time>
      </trkpt>
      <trkpt lat="37.745009008795023" lon="-8.762341998517513">
        <ele>61.18</ele>
        <time>2025-05-06T10:46:14Z</time>
      </trkpt>
      <trkpt lat="37.742963992059231" lon="-8.763898015022278">
        <ele>58.780000000000001</ele>
        <time>2025-05-06T10:46:25Z</time>
      </trkpt>
      <trkpt lat="37.741583995521069" lon="-8.764928989112377">
        <ele>56.369999999999997</ele>
        <time>2025-05-06T10:46:35Z</time>
      </trkpt>
      <trkpt lat="37.74031899869442" lon="-8.765815040096641">
        <ele>54.450000000000003</ele>
        <time>2025-05-06T10:46:45Z</time>
      </trkpt>
      <trkpt lat="37.740201987326145" lon="-8.765843035653234">
        <ele>54.450000000000003</ele>
        <time>2025-05-06T10:46:46Z</time>
      </trkpt>
      <trkpt lat="37.739996965974569" lon="-8.765890980139375">
        <ele>54.450000000000003</ele>
        <time>2025-05-06T10:46:48Z</time>
      </trkpt>
      <trkpt lat="37.739904010668397" lon="-8.765910007059574">
        <ele>54.93</ele>
        <time>2025-05-06T10:46:49Z</time>
      </trkpt>
      <trkpt lat="37.739829998463392" lon="-8.765959041193128">
        <ele>54.93</ele>
        <time>2025-05-06T10:46:50Z</time>
      </trkpt>
      <trkpt lat="37.739776019006968" lon="-8.766146041452885">
        <ele>55.409999999999997</ele>
        <time>2025-05-06T10:46:51Z</time>
      </trkpt>
      <trkpt lat="37.739713992923498" lon="-8.766198009252548">
        <ele>55.890000000000001</ele>
        <time>2025-05-06T10:46:52Z</time>
      </trkpt>
      <trkpt lat="37.739690020680428" lon="-8.766209995374084">
        <ele>55.409999999999997</ele>
        <time>2025-05-06T10:46:53Z</time>
      </trkpt>
      <trkpt lat="37.739497991278768" lon="-8.766252994537354">
        <ele>55.409999999999997</ele>
        <time>2025-05-06T10:46:54Z</time>
      </trkpt>
      <trkpt lat="37.739421967417002" lon="-8.766349973157048">
        <ele>55.409999999999997</ele>
        <time>2025-05-06T10:46:55Z</time>
      </trkpt>
      <trkpt lat="37.739342004060745" lon="-8.766452986747026">
        <ele>55.890000000000001</ele>
        <time>2025-05-06T10:46:56Z</time>
      </trkpt>
      <trkpt lat="37.739142011851072" lon="-8.766751969233155">
        <ele>55.409999999999997</ele>
        <time>2025-05-06T10:46:59Z</time>
      </trkpt>
      <trkpt lat="37.739056013524532" lon="-8.766822963953018">
        <ele>54.93</ele>
        <time>2025-05-06T10:47:00Z</time>
      </trkpt>
      <trkpt lat="37.73810600861907" lon="-8.767571970820427">
        <ele>52.049999999999997</ele>
        <time>2025-05-06T10:47:10Z</time>
      </trkpt>
      <trkpt lat="37.73724501952529" lon="-8.768231039866805">
        <ele>51.090000000000003</ele>
        <time>2025-05-06T10:47:19Z</time>
      </trkpt>
      <trkpt lat="37.736041964963078" lon="-8.769150031730533">
        <ele>50.130000000000003</ele>
        <time>2025-05-06T10:47:31Z</time>
      </trkpt>
      <trkpt lat="37.735022976994514" lon="-8.770232973620296">
        <ele>49.649999999999999</ele>
        <time>2025-05-06T10:47:41Z</time>
      </trkpt>
      <trkpt lat="37.733947997912765" lon="-8.771135034039617">
        <ele>46.759999999999998</ele>
        <time>2025-05-06T10:47:52Z</time>
      </trkpt>
      <trkpt lat="37.733676005154848" lon="-8.771349024027586">
        <ele>45.32</ele>
        <time>2025-05-06T10:47:55Z</time>
      </trkpt>
      <trkpt lat="37.733607022091746" lon="-8.771438961848617">
        <ele>44.840000000000003</ele>
        <time>2025-05-06T10:47:56Z</time>
      </trkpt>
      <trkpt lat="37.733548013493419" lon="-8.771549016237259">
        <ele>44.359999999999999</ele>
        <time>2025-05-06T10:47:57Z</time>
      </trkpt>
      <trkpt lat="37.733501996845007" lon="-8.771670972928405">
        <ele>44.840000000000003</ele>
        <time>2025-05-06T10:47:58Z</time>
      </trkpt>
      <trkpt lat="37.733489004895091" lon="-8.771768035367131">
        <ele>44.359999999999999</ele>
        <time>2025-05-06T10:47:59Z</time>
      </trkpt>
      <trkpt lat="37.733403006568551" lon="-8.771896027028561">
        <ele>43.880000000000003</ele>
        <time>2025-05-06T10:48:00Z</time>
      </trkpt>
      <trkpt lat="37.733254982158542" lon="-8.772339010611177">
        <ele>43.880000000000003</ele>
        <time>2025-05-06T10:48:04Z</time>
      </trkpt>
      <trkpt lat="37.733218017965555" lon="-8.772451998665929">
        <ele>44.359999999999999</ele>
        <time>2025-05-06T10:48:05Z</time>
      </trkpt>
      <trkpt lat="37.733121961355209" lon="-8.772547971457243">
        <ele>44.359999999999999</ele>
        <time>2025-05-06T10:48:06Z</time>
      </trkpt>
      <trkpt lat="37.733037974685431" lon="-8.772616032510996">
        <ele>44.359999999999999</ele>
        <time>2025-05-06T10:48:07Z</time>
      </trkpt>
      <trkpt lat="37.732953988015652" lon="-8.772686021402478">
        <ele>44.840000000000003</ele>
        <time>2025-05-06T10:48:08Z</time>
      </trkpt>
      <trkpt lat="37.731827041134238" lon="-8.773741973564029">
        <ele>43.399999999999999</ele>
        <time>2025-05-06T10:48:21Z</time>
      </trkpt>
      <trkpt lat="37.731010979041457" lon="-8.774679992347956">
        <ele>41.950000000000003</ele>
        <time>2025-05-06T10:48:32Z</time>
      </trkpt>
      <trkpt lat="37.730898996815085" lon="-8.774809995666146">
        <ele>40.990000000000002</ele>
        <time>2025-05-06T10:48:34Z</time>
      </trkpt>
      <trkpt lat="37.730848034843802" lon="-8.774869004264474">
        <ele>40.990000000000002</ele>
        <time>2025-05-06T10:48:35Z</time>
      </trkpt>
      <trkpt lat="37.730828002095222" lon="-8.775050975382328">
        <ele>41.469999999999999</ele>
        <time>2025-05-06T10:48:36Z</time>
      </trkpt>
      <trkpt lat="37.730818027630448" lon="-8.77507503144443">
        <ele>40.990000000000002</ele>
        <time>2025-05-06T10:48:37Z</time>
      </trkpt>
      <trkpt lat="37.730749966576695" lon="-8.775169998407364">
        <ele>40.990000000000002</ele>
        <time>2025-05-06T10:48:38Z</time>
      </trkpt>
      <trkpt lat="37.730719959363341" lon="-8.775178967043757">
        <ele>40.990000000000002</ele>
        <time>2025-05-06T10:48:39Z</time>
      </trkpt>
      <trkpt lat="37.73060797713697" lon="-8.775129010900855">
        <ele>40.509999999999998</ele>
        <time>2025-05-06T10:48:40Z</time>
      </trkpt>
      <trkpt lat="37.730570007115602" lon="-8.775178967043757">
        <ele>40.509999999999998</ele>
        <time>2025-05-06T10:48:41Z</time>
      </trkpt>
      <trkpt lat="37.730570007115602" lon="-8.775178967043757">
        <ele>40.030000000000001</ele>
        <time>2025-05-06T10:48:42Z</time>
      </trkpt>
      <trkpt lat="37.730561038479209" lon="-8.775190031155944">
        <ele>40.030000000000001</ele>
        <time>2025-05-06T10:48:43Z</time>
      </trkpt>
      <trkpt lat="37.730541005730629" lon="-8.775209980085492">
        <ele>40.030000000000001</ele>
        <time>2025-05-06T10:48:44Z</time>
      </trkpt>
      <trkpt lat="37.730519967153668" lon="-8.775233030319214">
        <ele>39.549999999999997</ele>
        <time>2025-05-06T10:48:45Z</time>
      </trkpt>
      <trkpt lat="37.730493983253837" lon="-8.775261025875807">
        <ele>39.549999999999997</ele>
        <time>2025-05-06T10:48:46Z</time>
      </trkpt>
      <trkpt lat="37.730463976040483" lon="-8.775292038917542">
        <ele>39.07</ele>
        <time>2025-05-06T10:48:47Z</time>
      </trkpt>
      <trkpt lat="37.730427011847496" lon="-8.77533202059567">
        <ele>39.07</ele>
        <time>2025-05-06T10:48:48Z</time>
      </trkpt>
      <trkpt lat="37.730384012684226" lon="-8.775377031415701">
        <ele>38.590000000000003</ele>
        <time>2025-05-06T10:48:49Z</time>
      </trkpt>
      <trkpt lat="37.730341013520956" lon="-8.775422964245081">
        <ele>38.590000000000003</ele>
        <time>2025-05-06T10:48:50Z</time>
      </trkpt>
      <trkpt lat="37.729844972491264" lon="-8.775951024144888">
        <ele>37.630000000000003</ele>
        <time>2025-05-06T10:49:03Z</time>
      </trkpt>
      <trkpt lat="37.729775989428163" lon="-8.776027970016003">
        <ele>37.149999999999999</ele>
        <time>2025-05-06T10:49:11Z</time>
      </trkpt>
      <trkpt lat="37.72970600053668" lon="-8.776104999706149">
        <ele>37.630000000000003</ele>
        <time>2025-05-06T10:49:23Z</time>
      </trkpt>
      <trkpt lat="37.729522017762065" lon="-8.776307003572583">
        <ele>37.149999999999999</ele>
        <time>2025-05-06T10:49:33Z</time>
      </trkpt>
      <trkpt lat="37.728980965912342" lon="-8.776893988251686">
        <ele>38.109999999999999</ele>
        <time>2025-05-06T10:49:45Z</time>
      </trkpt>
      <trkpt lat="37.728548962622881" lon="-8.777351975440979">
        <ele>36.670000000000002</ele>
        <time>2025-05-06T10:49:55Z</time>
      </trkpt>
      <trkpt lat="37.728461036458611" lon="-8.777449959889054">
        <ele>36.189999999999998</ele>
        <time>2025-05-06T10:49:57Z</time>
      </trkpt>
      <trkpt lat="37.728417031466961" lon="-8.777499999850988">
        <ele>36.189999999999998</ele>
        <time>2025-05-06T10:49:58Z</time>
      </trkpt>
      <trkpt lat="37.727782018482685" lon="-8.77821103669703">
        <ele>38.590000000000003</ele>
        <time>2025-05-06T10:50:10Z</time>
      </trkpt>
      <trkpt lat="37.7272770088166" lon="-8.778768014162779">
        <ele>40.509999999999998</ele>
        <time>2025-05-06T10:50:20Z</time>
      </trkpt>
      <trkpt lat="37.727223029360175" lon="-8.778827022761107">
        <ele>40.030000000000001</ele>
        <time>2025-05-06T10:50:21Z</time>
      </trkpt>
      <trkpt lat="37.727179024368525" lon="-8.778863986954093">
        <ele>40.030000000000001</ele>
        <time>2025-05-06T10:50:22Z</time>
      </trkpt>
      <trkpt lat="37.726629003882408" lon="-8.779460024088621">
        <ele>35.710000000000001</ele>
        <time>2025-05-06T10:50:34Z</time>
      </trkpt>
      <trkpt lat="37.726167999207973" lon="-8.780003003776074">
        <ele>34.259999999999998</ele>
        <time>2025-05-06T10:50:45Z</time>
      </trkpt>
      <trkpt lat="37.726123994216323" lon="-8.780055977404118">
        <ele>34.259999999999998</ele>
        <time>2025-05-06T10:50:46Z</time>
      </trkpt>
      <trkpt lat="37.726086024194956" lon="-8.780100988224149">
        <ele>34.259999999999998</ele>
        <time>2025-05-06T10:50:47Z</time>
      </trkpt>
      <trkpt lat="37.726054005324841" lon="-8.780138958245516">
        <ele>34.259999999999998</ele>
        <time>2025-05-06T10:50:48Z</time>
      </trkpt>
      <trkpt lat="37.72603296674788" lon="-8.780165025964379">
        <ele>34.259999999999998</ele>
        <time>2025-05-06T10:50:49Z</time>
      </trkpt>
      <trkpt lat="37.726033972576261" lon="-8.780196961015463">
        <ele>34.259999999999998</ele>
        <time>2025-05-06T10:50:50Z</time>
      </trkpt>
      <trkpt lat="37.726059034466743" lon="-8.78023199737072">
        <ele>33.780000000000001</ele>
        <time>2025-05-06T10:50:51Z</time>
      </trkpt>
      <trkpt lat="37.726091975346208" lon="-8.780279019847512">
        <ele>33.780000000000001</ele>
        <time>2025-05-06T10:50:52Z</time>
      </trkpt>
      <trkpt lat="37.726130029186606" lon="-8.780331993475556">
        <ele>33.299999999999997</ele>
        <time>2025-05-06T10:50:53Z</time>
      </trkpt>
      <trkpt lat="37.726167999207973" lon="-8.78038396127522">
        <ele>33.299999999999997</ele>
        <time>2025-05-06T10:50:54Z</time>
      </trkpt>
      <trkpt lat="37.726242011412978" lon="-8.780484963208437">
        <ele>33.299999999999997</ele>
        <time>2025-05-06T10:50:56Z</time>
      </trkpt>
      <trkpt lat="37.726278975605965" lon="-8.780536008998752">
        <ele>33.299999999999997</ele>
        <time>2025-05-06T10:50:57Z</time>
      </trkpt>
      <trkpt lat="37.726302025839686" lon="-8.780608009546995">
        <ele>33.299999999999997</ele>
        <time>2025-05-06T10:50:58Z</time>
      </trkpt>
      <trkpt lat="37.726305965334177" lon="-8.780675986781716">
        <ele>33.299999999999997</ele>
        <time>2025-05-06T10:50:59Z</time>
      </trkpt>
      <trkpt lat="37.726309988647699" lon="-8.780743964016438">
        <ele>33.299999999999997</ele>
        <time>2025-05-06T10:51:00Z</time>
      </trkpt>
      <trkpt lat="37.726313006132841" lon="-8.780810013413429">
        <ele>33.299999999999997</ele>
        <time>2025-05-06T10:51:01Z</time>
      </trkpt>
      <trkpt lat="37.726325998082757" lon="-8.781072031706572">
        <ele>33.299999999999997</ele>
        <time>2025-05-06T10:51:05Z</time>
      </trkpt>
      <trkpt lat="37.726328009739518" lon="-8.78113598562777">
        <ele>33.299999999999997</ele>
        <time>2025-05-06T10:51:06Z</time>
      </trkpt>
      <trkpt lat="37.72633102722466" lon="-8.781201029196382">
        <ele>33.299999999999997</ele>
        <time>2025-05-06T10:51:07Z</time>
      </trkpt>
      <trkpt lat="37.726341001689434" lon="-8.781529013067484">
        <ele>33.780000000000001</ele>
        <time>2025-05-06T10:51:14Z</time>
      </trkpt>
      <trkpt lat="37.72633396089077" lon="-8.781592966988683">
        <ele>34.259999999999998</ele>
        <time>2025-05-06T10:51:15Z</time>
      </trkpt>
      <trkpt lat="37.726316023617983" lon="-8.781743003055453">
        <ele>34.740000000000002</ele>
        <time>2025-05-06T10:51:17Z</time>
      </trkpt>
      <trkpt lat="37.726186020299792" lon="-8.782470971345902">
        <ele>31.859999999999999</ele>
        <time>2025-05-06T10:51:25Z</time>
      </trkpt>
      <trkpt lat="37.725927019491792" lon="-8.783187959343195">
        <ele>30.420000000000002</ele>
        <time>2025-05-06T10:51:34Z</time>
      </trkpt>
      <trkpt lat="37.725690985098481" lon="-8.783838981762528">
        <ele>28.5</ele>
        <time>2025-05-06T10:51:43Z</time>
      </trkpt>
      <trkpt lat="37.725663995370269" lon="-8.783902013674378">
        <ele>28.5</ele>
        <time>2025-05-06T10:51:44Z</time>
      </trkpt>
      <trkpt lat="37.725614039227366" lon="-8.784020030871034">
        <ele>28.5</ele>
        <time>2025-05-06T10:51:46Z</time>
      </trkpt>
      <trkpt lat="37.725669024512172" lon="-8.784132013097405">
        <ele>28.02</ele>
        <time>2025-05-06T10:51:47Z</time>
      </trkpt>
      <trkpt lat="37.725630970671773" lon="-8.784155985340476">
        <ele>28.02</ele>
        <time>2025-05-06T10:51:48Z</time>
      </trkpt>
      <trkpt lat="37.725584032014012" lon="-8.784183980897069">
        <ele>27.530000000000001</ele>
        <time>2025-05-06T10:51:49Z</time>
      </trkpt>
      <trkpt lat="37.725529968738556" lon="-8.784229997545481">
        <ele>27.050000000000001</ele>
        <time>2025-05-06T10:51:50Z</time>
      </trkpt>
      <trkpt lat="37.725488981232047" lon="-8.78429101780057">
        <ele>27.050000000000001</ele>
        <time>2025-05-06T10:51:51Z</time>
      </trkpt>
      <trkpt lat="37.725443970412016" lon="-8.78435798920691">
        <ele>26.57</ele>
        <time>2025-05-06T10:51:52Z</time>
      </trkpt>
      <trkpt lat="37.725396025925875" lon="-8.784428983926773">
        <ele>26.57</ele>
        <time>2025-05-06T10:51:53Z</time>
      </trkpt>
      <trkpt lat="37.724868971854448" lon="-8.785184025764465">
        <ele>26.09</ele>
        <time>2025-05-06T10:52:04Z</time>
      </trkpt>
      <trkpt lat="37.724798982962966" lon="-8.785221995785832">
        <ele>26.09</ele>
        <time>2025-05-06T10:52:05Z</time>
      </trkpt>
      <trkpt lat="37.724722037091851" lon="-8.785215960815549">
        <ele>26.09</ele>
        <time>2025-05-06T10:52:06Z</time>
      </trkpt>
      <trkpt lat="37.724642995744944" lon="-8.785207998007536">
        <ele>26.09</ele>
        <time>2025-05-06T10:52:07Z</time>
      </trkpt>
      <trkpt lat="37.724568983539939" lon="-8.785200035199523">
        <ele>25.609999999999999</ele>
        <time>2025-05-06T10:52:08Z</time>
      </trkpt>
      <trkpt lat="37.724494971334934" lon="-8.785191988572478">
        <ele>25.129999999999999</ele>
        <time>2025-05-06T10:52:09Z</time>
      </trkpt>
      <trkpt lat="37.7244190312922" lon="-8.785184025764465">
        <ele>24.649999999999999</ele>
        <time>2025-05-06T10:52:10Z</time>
      </trkpt>
      <trkpt lat="37.723744036629796" lon="-8.785113031044602">
        <ele>19.359999999999999</ele>
        <time>2025-05-06T10:52:19Z</time>
      </trkpt>
      <trkpt lat="37.723548989742994" lon="-8.785140020772815">
        <ele>15.52</ele>
        <time>2025-05-06T10:52:25Z</time>
      </trkpt>
      <trkpt lat="37.723543960601091" lon="-8.785185031592846">
        <ele>15.039999999999999</ele>
        <time>2025-05-06T10:52:26Z</time>
      </trkpt>
      <trkpt lat="37.72353901527822" lon="-8.785240016877651">
        <ele>14.08</ele>
        <time>2025-05-06T10:52:27Z</time>
      </trkpt>
      <trkpt lat="37.723532980307937" lon="-8.78530397079885">
        <ele>13.6</ele>
        <time>2025-05-06T10:52:28Z</time>
      </trkpt>
      <trkpt lat="37.723525017499924" lon="-8.785379994660616">
        <ele>13.6</ele>
        <time>2025-05-06T10:52:29Z</time>
      </trkpt>
      <trkpt lat="37.723492998629808" lon="-8.785700015723705">
        <ele>12.630000000000001</ele>
        <time>2025-05-06T10:52:33Z</time>
      </trkpt>
      <trkpt lat="37.72347598336637" lon="-8.785778973251581">
        <ele>12.630000000000001</ele>
        <time>2025-05-06T10:52:34Z</time>
      </trkpt>
      <trkpt lat="37.723451005294919" lon="-8.785864971578121">
        <ele>13.119999999999999</ele>
        <time>2025-05-06T10:52:35Z</time>
      </trkpt>
      <trkpt lat="37.723348997533321" lon="-8.78620401956141">
        <ele>12.15</ele>
        <time>2025-05-06T10:52:39Z</time>
      </trkpt>
      <trkpt lat="37.723270962014794" lon="-8.786442987620831">
        <ele>11.67</ele>
        <time>2025-05-06T10:52:42Z</time>
      </trkpt>
      <trkpt lat="37.722919005900621" lon="-8.787328032776713">
        <ele>11.19</ele>
        <time>2025-05-06T10:52:52Z</time>
      </trkpt>
      <trkpt lat="37.722882963716984" lon="-8.787419982254505">
        <ele>11.19</ele>
        <time>2025-05-06T10:52:54Z</time>
      </trkpt>
      <trkpt lat="37.722877012565732" lon="-8.787435991689563">
        <ele>11.19</ele>
        <time>2025-05-06T10:52:55Z</time>
      </trkpt>
      <trkpt lat="37.722877012565732" lon="-8.787435991689563">
        <ele>11.67</ele>
        <time>2025-05-06T10:53:06Z</time>
      </trkpt>
      <trkpt lat="37.722880030050874" lon="-8.78742802888155">
        <ele>11.67</ele>
        <time>2025-05-06T10:53:17Z</time>
      </trkpt>
      <trkpt lat="37.722878018394113" lon="-8.787432974204421">
        <ele>12.15</ele>
        <time>2025-05-06T10:53:18Z</time>
      </trkpt>
      <trkpt lat="37.722884975373745" lon="-8.78740900196135">
        <ele>12.15</ele>
        <time>2025-05-06T12:57:14Z</time>
      </trkpt>
      <trkpt lat="37.722859997302294" lon="-8.787415958940983">
        <ele>10.710000000000001</ele>
        <time>2025-05-06T12:57:57Z</time>
      </trkpt>
      <trkpt lat="37.72285396233201" lon="-8.787415958940983">
        <ele>9.75</ele>
        <time>2025-05-06T12:58:45Z</time>
      </trkpt>
      <trkpt lat="37.722876006737351" lon="-8.787427023053169">
        <ele>10.23</ele>
        <time>2025-05-06T12:59:21Z</time>
      </trkpt>
      <trkpt lat="37.722896039485931" lon="-8.787371031939983">
        <ele>10.23</ele>
        <time>2025-05-06T12:59:35Z</time>
      </trkpt>
      <trkpt lat="37.72293602116406" lon="-8.787282016128302">
        <ele>10.23</ele>
        <time>2025-05-06T12:59:37Z</time>
      </trkpt>
      <trkpt lat="37.722955970093608" lon="-8.787230970337987">
        <ele>9.75</ele>
        <time>2025-05-06T12:59:38Z</time>
      </trkpt>
      <trkpt lat="37.722974997013807" lon="-8.787182020023465">
        <ele>9.75</ele>
        <time>2025-05-06T12:59:39Z</time>
      </trkpt>
      <trkpt lat="37.722995029762387" lon="-8.78712804056704">
        <ele>9.75</ele>
        <time>2025-05-06T12:59:40Z</time>
      </trkpt>
      <trkpt lat="37.723269034177065" lon="-8.786447010934353">
        <ele>12.630000000000001</ele>
        <time>2025-05-06T12:59:50Z</time>
      </trkpt>
      <trkpt lat="37.723327958956361" lon="-8.786273002624512">
        <ele>14.08</ele>
        <time>2025-05-06T12:59:52Z</time>
      </trkpt>
      <trkpt lat="37.723543038591743" lon="-8.78519500605762">
        <ele>18.879999999999999</ele>
        <time>2025-05-06T13:00:03Z</time>
      </trkpt>
      <trkpt lat="37.723548989742994" lon="-8.785133985802531">
        <ele>18.879999999999999</ele>
        <time>2025-05-06T13:00:04Z</time>
      </trkpt>
      <trkpt lat="37.723548989742994" lon="-8.785133985802531">
        <ele>18.879999999999999</ele>
        <time>2025-05-06T13:00:05Z</time>
      </trkpt>
      <trkpt lat="37.72358201444149" lon="-8.785096015781164">
        <ele>18.879999999999999</ele>
        <time>2025-05-06T13:00:06Z</time>
      </trkpt>
      <trkpt lat="37.723616966977715" lon="-8.785099033266306">
        <ele>18.399999999999999</ele>
        <time>2025-05-06T13:00:07Z</time>
      </trkpt>
      <trkpt lat="37.723658960312605" lon="-8.785103978589177">
        <ele>17.920000000000002</ele>
        <time>2025-05-06T13:00:08Z</time>
      </trkpt>
      <trkpt lat="37.723769014701247" lon="-8.785115964710712">
        <ele>17.920000000000002</ele>
        <time>2025-05-06T13:00:09Z</time>
      </trkpt>
      <trkpt lat="37.724567977711558" lon="-8.785200035199523">
        <ele>20.32</ele>
        <time>2025-05-06T13:00:21Z</time>
      </trkpt>
      <trkpt lat="37.724642995744944" lon="-8.785207998007536">
        <ele>20.32</ele>
        <time>2025-05-06T13:00:22Z</time>
      </trkpt>
      <trkpt lat="37.724716002121568" lon="-8.7852150388062">
        <ele>20.32</ele>
        <time>2025-05-06T13:00:23Z</time>
      </trkpt>
      <trkpt lat="37.724789008498192" lon="-8.785221995785832">
        <ele>20.809999999999999</ele>
        <time>2025-05-06T13:00:24Z</time>
      </trkpt>
      <trkpt lat="37.724949019029737" lon="-8.785073971375823">
        <ele>20.809999999999999</ele>
        <time>2025-05-06T13:00:25Z</time>
      </trkpt>
      <trkpt lat="37.724950024858117" lon="-8.785073971375823">
        <ele>21.289999999999999</ele>
        <time>2025-05-06T13:00:26Z</time>
      </trkpt>
      <trkpt lat="37.72549401037395" lon="-8.784282971173525">
        <ele>25.129999999999999</ele>
        <time>2025-05-06T13:00:34Z</time>
      </trkpt>
      <trkpt lat="37.725538015365601" lon="-8.784218011423945">
        <ele>25.129999999999999</ele>
        <time>2025-05-06T13:00:35Z</time>
      </trkpt>
      <trkpt lat="37.725539021193981" lon="-8.784218011423945">
        <ele>25.609999999999999</ele>
        <time>2025-05-06T13:00:36Z</time>
      </trkpt>
      <trkpt lat="37.725597023963928" lon="-8.78403696231544">
        <ele>26.09</ele>
        <time>2025-05-06T13:00:38Z</time>
      </trkpt>
      <trkpt lat="37.725647985935211" lon="-8.783939983695746">
        <ele>26.57</ele>
        <time>2025-05-06T13:00:39Z</time>
      </trkpt>
      <trkpt lat="37.725934982299805" lon="-8.783162981271744">
        <ele>28.02</ele>
        <time>2025-05-06T13:00:47Z</time>
      </trkpt>
      <trkpt lat="37.72628802806139" lon="-8.781989011913538">
        <ele>35.710000000000001</ele>
        <time>2025-05-06T13:01:00Z</time>
      </trkpt>
      <trkpt lat="37.726308982819319" lon="-8.781807040795684">
        <ele>37.149999999999999</ele>
        <time>2025-05-06T13:01:02Z</time>
      </trkpt>
      <trkpt lat="37.726317029446363" lon="-8.781732022762299">
        <ele>37.630000000000003</ele>
        <time>2025-05-06T13:01:03Z</time>
      </trkpt>
      <trkpt lat="37.726334966719151" lon="-8.781576035544276">
        <ele>39.549999999999997</ele>
        <time>2025-05-06T13:01:06Z</time>
      </trkpt>
      <trkpt lat="37.726343013346195" lon="-8.781509986147285">
        <ele>39.549999999999997</ele>
        <time>2025-05-06T13:01:07Z</time>
      </trkpt>
      <trkpt lat="37.726334966719151" lon="-8.781313011422753">
        <ele>40.509999999999998</ele>
        <time>2025-05-06T13:01:10Z</time>
      </trkpt>
      <trkpt lat="37.726333038881421" lon="-8.781252996996045">
        <ele>40.990000000000002</ele>
        <time>2025-05-06T13:01:11Z</time>
      </trkpt>
      <trkpt lat="37.726330021396279" lon="-8.781189965084195">
        <ele>40.990000000000002</ele>
        <time>2025-05-06T13:01:12Z</time>
      </trkpt>
      <trkpt lat="37.726328009739518" lon="-8.781123999506235">
        <ele>40.990000000000002</ele>
        <time>2025-05-06T13:01:13Z</time>
      </trkpt>
      <trkpt lat="37.726324992254376" lon="-8.781054010614753">
        <ele>41.469999999999999</ele>
        <time>2025-05-06T13:01:14Z</time>
      </trkpt>
      <trkpt lat="37.726321974769235" lon="-8.780973041430116">
        <ele>41.469999999999999</ele>
        <time>2025-05-06T13:01:15Z</time>
      </trkpt>
      <trkpt lat="37.726307976990938" lon="-8.780712028965354">
        <ele>40.990000000000002</ele>
        <time>2025-05-06T13:01:19Z</time>
      </trkpt>
      <trkpt lat="37.726304959505796" lon="-8.780650002881885">
        <ele>40.990000000000002</ele>
        <time>2025-05-06T13:01:20Z</time>
      </trkpt>
      <trkpt lat="37.726266989484429" lon="-8.780519999563694">
        <ele>40.990000000000002</ele>
        <time>2025-05-06T13:01:22Z</time>
      </trkpt>
      <trkpt lat="37.726192977279425" lon="-8.780417991802096">
        <ele>40.990000000000002</ele>
        <time>2025-05-06T13:01:23Z</time>
      </trkpt>
      <trkpt lat="37.726192977279425" lon="-8.780417991802096">
        <ele>40.990000000000002</ele>
        <time>2025-05-06T13:01:24Z</time>
      </trkpt>
      <trkpt lat="37.726157018914819" lon="-8.780368035659194">
        <ele>40.990000000000002</ele>
        <time>2025-05-06T13:01:25Z</time>
      </trkpt>
      <trkpt lat="37.726129023358226" lon="-8.780328975990415">
        <ele>40.990000000000002</ele>
        <time>2025-05-06T13:01:26Z</time>
      </trkpt>
      <trkpt lat="37.726100021973252" lon="-8.780288994312286">
        <ele>40.509999999999998</ele>
        <time>2025-05-06T13:01:27Z</time>
      </trkpt>
      <trkpt lat="37.726035984233022" lon="-8.780199978500605">
        <ele>40.990000000000002</ele>
        <time>2025-05-06T13:01:30Z</time>
      </trkpt>
      <trkpt lat="37.726020980626345" lon="-8.780179023742676">
        <ele>40.509999999999998</ele>
        <time>2025-05-06T13:01:31Z</time>
      </trkpt>
      <trkpt lat="37.726037995889783" lon="-8.780158990994096">
        <ele>40.509999999999998</ele>
        <time>2025-05-06T13:01:32Z</time>
      </trkpt>
      <trkpt lat="37.726066997274756" lon="-8.780124038457871">
        <ele>40.030000000000001</ele>
        <time>2025-05-06T13:01:33Z</time>
      </trkpt>
      <trkpt lat="37.726131035014987" lon="-8.780048014596105">
        <ele>40.030000000000001</ele>
        <time>2025-05-06T13:01:34Z</time>
      </trkpt>
      <trkpt lat="37.726192977279425" lon="-8.779972996562719">
        <ele>39.549999999999997</ele>
        <time>2025-05-06T13:01:36Z</time>
      </trkpt>
      <trkpt lat="37.726229019463062" lon="-8.779929997399449">
        <ele>39.07</ele>
        <time>2025-05-06T13:01:37Z</time>
      </trkpt>
      <trkpt lat="37.72658902220428" lon="-8.779502017423511">
        <ele>38.109999999999999</ele>
        <time>2025-05-06T13:01:47Z</time>
      </trkpt>
      <trkpt lat="37.726849028840661" lon="-8.779224995523691">
        <ele>38.109999999999999</ele>
        <time>2025-05-06T13:01:55Z</time>
      </trkpt>
      <trkpt lat="37.726989006623626" lon="-8.779060961678624">
        <ele>38.109999999999999</ele>
        <time>2025-05-06T13:01:58Z</time>
      </trkpt>
      <trkpt lat="37.727034017443657" lon="-8.779005976393819">
        <ele>38.109999999999999</ele>
        <time>2025-05-06T13:01:59Z</time>
      </trkpt>
      <trkpt lat="37.727082967758179" lon="-8.778947973623872">
        <ele>38.109999999999999</ele>
        <time>2025-05-06T13:02:00Z</time>
      </trkpt>
      <trkpt lat="37.727570962160826" lon="-8.778442963957787">
        <ele>39.07</ele>
        <time>2025-05-06T13:02:10Z</time>
      </trkpt>
      <trkpt lat="37.727617984637618" lon="-8.778392001986504">
        <ele>39.07</ele>
        <time>2025-05-06T13:02:11Z</time>
      </trkpt>
      <trkpt lat="37.72770800627768" lon="-8.778292005881667">
        <ele>39.549999999999997</ele>
        <time>2025-05-06T13:02:13Z</time>
      </trkpt>
      <trkpt lat="37.727756034582853" lon="-8.778240038082004">
        <ele>39.549999999999997</ele>
        <time>2025-05-06T13:02:14Z</time>
      </trkpt>
      <trkpt lat="37.728293985128403" lon="-8.777638971805573">
        <ele>39.549999999999997</ele>
        <time>2025-05-06T13:02:26Z</time>
      </trkpt>
      <trkpt lat="37.728856997564435" lon="-8.777020974084735">
        <ele>40.509999999999998</ele>
        <time>2025-05-06T13:02:36Z</time>
      </trkpt>
      <trkpt lat="37.729526963084936" lon="-8.77630197443068">
        <ele>41.469999999999999</ele>
        <time>2025-05-06T13:02:48Z</time>
      </trkpt>
      <trkpt lat="37.730072038248181" lon="-8.775708032771945">
        <ele>42.439999999999998</ele>
        <time>2025-05-06T13:02:57Z</time>
      </trkpt>
      <trkpt lat="37.730561960488558" lon="-8.775189025327563">
        <ele>42.920000000000002</ele>
        <time>2025-05-06T13:03:06Z</time>
      </trkpt>
      <trkpt lat="37.731029000133276" lon="-8.774658031761646">
        <ele>41.950000000000003</ele>
        <time>2025-05-06T13:03:14Z</time>
      </trkpt>
      <trkpt lat="37.732014963403344" lon="-8.773541981354356">
        <ele>40.990000000000002</ele>
        <time>2025-05-06T13:03:27Z</time>
      </trkpt>
      <trkpt lat="37.733135959133506" lon="-8.772391984239221">
        <ele>39.07</ele>
        <time>2025-05-06T13:03:39Z</time>
      </trkpt>
      <trkpt lat="37.733135959133506" lon="-8.772391984239221">
        <ele>39.07</ele>
        <time>2025-05-06T13:03:40Z</time>
      </trkpt>
      <trkpt lat="37.733188010752201" lon="-8.77230397425592">
        <ele>39.07</ele>
        <time>2025-05-06T13:03:41Z</time>
      </trkpt>
      <trkpt lat="37.733199996873736" lon="-8.772192997857928">
        <ele>39.549999999999997</ele>
        <time>2025-05-06T13:03:42Z</time>
      </trkpt>
      <trkpt lat="37.733210977166891" lon="-8.772086966782808">
        <ele>39.549999999999997</ele>
        <time>2025-05-06T13:03:43Z</time>
      </trkpt>
      <trkpt lat="37.733222041279078" lon="-8.771984959021211">
        <ele>39.549999999999997</ele>
        <time>2025-05-06T13:03:44Z</time>
      </trkpt>
      <trkpt lat="37.733197985216975" lon="-8.77185202203691">
        <ele>39.549999999999997</ele>
        <time>2025-05-06T13:03:45Z</time>
      </trkpt>
      <trkpt lat="37.733095977455378" lon="-8.771784966811538">
        <ele>39.549999999999997</ele>
        <time>2025-05-06T13:03:46Z</time>
      </trkpt>
      <trkpt lat="37.732994975522161" lon="-8.771748002618551">
        <ele>39.07</ele>
        <time>2025-05-06T13:03:47Z</time>
      </trkpt>
      <trkpt lat="37.732881987467408" lon="-8.771725036203861">
        <ele>39.07</ele>
        <time>2025-05-06T13:03:48Z</time>
      </trkpt>
      <trkpt lat="37.732770005241036" lon="-8.771725036203861">
        <ele>38.109999999999999</ele>
        <time>2025-05-06T13:03:49Z</time>
      </trkpt>
      <trkpt lat="37.732655005529523" lon="-8.771738028153777">
        <ele>37.149999999999999</ele>
        <time>2025-05-06T13:03:50Z</time>
      </trkpt>
      <trkpt lat="37.731914967298508" lon="-8.771878005936742">
        <ele>34.259999999999998</ele>
        <time>2025-05-06T13:03:56Z</time>
      </trkpt>
      <trkpt lat="37.731793010607362" lon="-8.771896027028561">
        <ele>33.299999999999997</ele>
        <time>2025-05-06T13:03:57Z</time>
      </trkpt>
      <trkpt lat="37.731678010895848" lon="-8.771896027028561">
        <ele>32.340000000000003</ele>
        <time>2025-05-06T13:03:58Z</time>
      </trkpt>
      <trkpt lat="37.731283977627754" lon="-8.771896027028561">
        <ele>28.98</ele>
        <time>2025-05-06T13:04:01Z</time>
      </trkpt>
      <trkpt lat="37.731152968481183" lon="-8.771896027028561">
        <ele>28.02</ele>
        <time>2025-05-06T13:04:02Z</time>
      </trkpt>
      <trkpt lat="37.729948991909623" lon="-8.771623028442264">
        <ele>21.77</ele>
        <time>2025-05-06T13:04:10Z</time>
      </trkpt>
      <trkpt lat="37.728482997044921" lon="-8.770876033231616">
        <ele>17.920000000000002</ele>
        <time>2025-05-06T13:04:19Z</time>
      </trkpt>
      <trkpt lat="37.726734029129148" lon="-8.769920999184251">
        <ele>20.809999999999999</ele>
        <time>2025-05-06T13:04:31Z</time>
      </trkpt>
      <trkpt lat="37.725168960168958" lon="-8.769076019525528">
        <ele>22.73</ele>
        <time>2025-05-06T13:04:41Z</time>
      </trkpt>
      <trkpt lat="37.723913015797734" lon="-8.768395995721221">
        <ele>24.170000000000002</ele>
        <time>2025-05-06T13:04:47Z</time>
      </trkpt>
      <trkpt lat="37.721733972430229" lon="-8.767432998865843">
        <ele>32.340000000000003</ele>
        <time>2025-05-06T13:04:56Z</time>
      </trkpt>
      <trkpt lat="37.720035966485739" lon="-8.766925977542996">
        <ele>41.469999999999999</ele>
        <time>2025-05-06T13:05:04Z</time>
      </trkpt>
      <trkpt lat="37.718348018825054" lon="-8.766601011157036">
        <ele>50.609999999999999</ele>
        <time>2025-05-06T13:05:12Z</time>
      </trkpt>
      <trkpt lat="37.715974012389779" lon="-8.766530016437173">
        <ele>55.409999999999997</ele>
        <time>2025-05-06T13:05:22Z</time>
      </trkpt>
      <trkpt lat="37.714222026988864" lon="-8.766721962019801">
        <ele>57.340000000000003</ele>
        <time>2025-05-06T13:05:31Z</time>
      </trkpt>
      <trkpt lat="37.711856989189982" lon="-8.767342977225781">
        <ele>57.82</ele>
        <time>2025-05-06T13:05:42Z</time>
      </trkpt>
      <trkpt lat="37.709749024361372" lon="-8.768231961876154">
        <ele>59.259999999999998</ele>
        <time>2025-05-06T13:05:52Z</time>
      </trkpt>
      <trkpt lat="37.707448024302721" lon="-8.769277017563582">
        <ele>56.369999999999997</ele>
        <time>2025-05-06T13:06:03Z</time>
      </trkpt>
      <trkpt lat="37.705371994525194" lon="-8.770226016640663">
        <ele>56.859999999999999</ele>
        <time>2025-05-06T13:06:13Z</time>
      </trkpt>
      <trkpt lat="37.703285990282893" lon="-8.771161017939448">
        <ele>54.450000000000003</ele>
        <time>2025-05-06T13:06:23Z</time>
      </trkpt>
      <trkpt lat="37.701744977384806" lon="-8.771181972697377">
        <ele>52.530000000000001</ele>
        <time>2025-05-06T13:06:30Z</time>
      </trkpt>
      <trkpt lat="37.699838010594249" lon="-8.770516030490398">
        <ele>50.609999999999999</ele>
        <time>2025-05-06T13:06:39Z</time>
      </trkpt>
      <trkpt lat="37.697753012180328" lon="-8.769712038338184">
        <ele>50.609999999999999</ele>
        <time>2025-05-06T13:06:49Z</time>
      </trkpt>
      <trkpt lat="37.696278970688581" lon="-8.76912496984005">
        <ele>50.609999999999999</ele>
        <time>2025-05-06T13:06:55Z</time>
      </trkpt>
      <trkpt lat="37.693706983700395" lon="-8.768099024891853">
        <ele>53.009999999999998</ele>
        <time>2025-05-06T13:07:07Z</time>
      </trkpt>
      <trkpt lat="37.691574962809682" lon="-8.76727600581944">
        <ele>52.530000000000001</ele>
        <time>2025-05-06T13:07:16Z</time>
      </trkpt>
      <trkpt lat="37.689417041838169" lon="-8.766433037817478">
        <ele>54.93</ele>
        <time>2025-05-06T13:07:27Z</time>
      </trkpt>
      <trkpt lat="37.686631986871362" lon="-8.76534297131002">
        <ele>53.969999999999999</ele>
        <time>2025-05-06T13:07:40Z</time>
      </trkpt>
      <trkpt lat="37.68340403214097" lon="-8.764065988361836">
        <ele>54.450000000000003</ele>
        <time>2025-05-06T13:07:55Z</time>
      </trkpt>
      <trkpt lat="37.680624006316066" lon="-8.762967037037015">
        <ele>57.340000000000003</ele>
        <time>2025-05-06T13:08:08Z</time>
      </trkpt>
      <trkpt lat="37.676964970305562" lon="-8.761527026072145">
        <ele>57.82</ele>
        <time>2025-05-06T13:08:24Z</time>
      </trkpt>
      <trkpt lat="37.674614014104009" lon="-8.760600993409753">
        <ele>54.93</ele>
        <time>2025-05-06T13:08:36Z</time>
      </trkpt>
      <trkpt lat="37.672220980748534" lon="-8.759815022349358">
        <ele>57.82</ele>
        <time>2025-05-06T13:08:47Z</time>
      </trkpt>
      <trkpt lat="37.670199014246464" lon="-8.759536994621158">
        <ele>58.780000000000001</ele>
        <time>2025-05-06T13:08:56Z</time>
      </trkpt>
      <trkpt lat="37.667954005300999" lon="-8.759505981579423">
        <ele>57.340000000000003</ele>
        <time>2025-05-06T13:09:06Z</time>
      </trkpt>
      <trkpt lat="37.665258971974254" lon="-8.759515034034848">
        <ele>54.93</ele>
        <time>2025-05-06T13:09:18Z</time>
      </trkpt>
      <trkpt lat="37.663002982735634" lon="-8.759515034034848">
        <ele>55.409999999999997</ele>
        <time>2025-05-06T13:09:28Z</time>
      </trkpt>
      <trkpt lat="37.660750010982156" lon="-8.759515034034848">
        <ele>56.369999999999997</ele>
        <time>2025-05-06T13:09:38Z</time>
      </trkpt>
      <trkpt lat="37.658295035362244" lon="-8.759515034034848">
        <ele>54.93</ele>
        <time>2025-05-06T13:09:49Z</time>
      </trkpt>
      <trkpt lat="37.656711023300886" lon="-8.759536994621158">
        <ele>52.530000000000001</ele>
        <time>2025-05-06T13:09:58Z</time>
      </trkpt>
      <trkpt lat="37.655828995630145" lon="-8.75956398434937">
        <ele>51.090000000000003</ele>
        <time>2025-05-06T13:10:03Z</time>
      </trkpt>
      <trkpt lat="37.655639983713627" lon="-8.759730029851198">
        <ele>51.090000000000003</ele>
        <time>2025-05-06T13:10:04Z</time>
      </trkpt>
      <trkpt lat="37.655623974278569" lon="-8.759738998487592">
        <ele>50.609999999999999</ele>
        <time>2025-05-06T13:10:05Z</time>
      </trkpt>
      <trkpt lat="37.655506962910295" lon="-8.759780991822481">
        <ele>51.090000000000003</ele>
        <time>2025-05-06T13:10:06Z</time>
      </trkpt>
      <trkpt lat="37.655442003160715" lon="-8.759691976010799">
        <ele>51.090000000000003</ele>
        <time>2025-05-06T13:10:07Z</time>
      </trkpt>
      <trkpt lat="37.655442003160715" lon="-8.75969298183918">
        <ele>51.57</ele>
        <time>2025-05-06T13:10:08Z</time>
      </trkpt>
      <trkpt lat="37.655364973470569" lon="-8.759589968249202">
        <ele>51.57</ele>
        <time>2025-05-06T13:10:09Z</time>
      </trkpt>
      <trkpt lat="37.655257014557719" lon="-8.759571025148034">
        <ele>51.57</ele>
        <time>2025-05-06T13:10:10Z</time>
      </trkpt>
      <trkpt lat="37.654988039284945" lon="-8.759536994621158">
        <ele>51.57</ele>
        <time>2025-05-06T13:10:11Z</time>
      </trkpt>
      <trkpt lat="37.653697980567813" lon="-8.759543029591441">
        <ele>52.049999999999997</ele>
        <time>2025-05-06T13:10:18Z</time>
      </trkpt>
      <trkpt lat="37.651706021279097" lon="-8.759559961035848">
        <ele>51.57</ele>
        <time>2025-05-06T13:10:28Z</time>
      </trkpt>
      <trkpt lat="37.649207962676883" lon="-8.759571025148034">
        <ele>53.009999999999998</ele>
        <time>2025-05-06T13:10:39Z</time>
      </trkpt>
      <trkpt lat="37.646488035097718" lon="-8.759589968249202">
        <ele>54.93</ele>
        <time>2025-05-06T13:10:51Z</time>
      </trkpt>
      <trkpt lat="37.644232967868447" lon="-8.759562978520989">
        <ele>54.93</ele>
        <time>2025-05-06T13:11:01Z</time>
      </trkpt>
      <trkpt lat="37.642231034114957" lon="-8.759343037381768">
        <ele>56.859999999999999</ele>
        <time>2025-05-06T13:11:10Z</time>
      </trkpt>
      <trkpt lat="37.640560017898679" lon="-8.758501997217536">
        <ele>57.82</ele>
        <time>2025-05-06T13:11:18Z</time>
      </trkpt>
      <trkpt lat="37.639028979465365" lon="-8.757299026474357">
        <ele>57.82</ele>
        <time>2025-05-06T13:11:25Z</time>
      </trkpt>
      <trkpt lat="37.637495007365942" lon="-8.755625998601317">
        <ele>56.859999999999999</ele>
        <time>2025-05-06T13:11:35Z</time>
      </trkpt>
      <trkpt lat="37.636413993313909" lon="-8.754153968766332">
        <ele>55.409999999999997</ele>
        <time>2025-05-06T13:11:42Z</time>
      </trkpt>
      <trkpt lat="37.635619975626469" lon="-8.752971030771732">
        <ele>55.409999999999997</ele>
        <time>2025-05-06T13:11:51Z</time>
      </trkpt>
      <trkpt lat="37.63474197126925" lon="-8.751664040610194">
        <ele>56.369999999999997</ele>
        <time>2025-05-06T13:11:58Z</time>
      </trkpt>
      <trkpt lat="37.633446967229247" lon="-8.749720025807619">
        <ele>58.780000000000001</ele>
        <time>2025-05-06T13:12:07Z</time>
      </trkpt>
      <trkpt lat="37.632237039506435" lon="-8.747913977131248">
        <ele>59.259999999999998</ele>
        <time>2025-05-06T13:12:15Z</time>
      </trkpt>
      <trkpt lat="37.630923008546233" lon="-8.745982032269239">
        <ele>61.18</ele>
        <time>2025-05-06T13:12:24Z</time>
      </trkpt>
      <trkpt lat="37.629031967371702" lon="-8.7431709934026">
        <ele>63.100000000000001</ele>
        <time>2025-05-06T13:12:37Z</time>
      </trkpt>
      <trkpt lat="37.627302026376128" lon="-8.740599006414414">
        <ele>62.140000000000001</ele>
        <time>2025-05-06T13:12:49Z</time>
      </trkpt>
      <trkpt lat="37.626006016507745" lon="-8.738681981340051">
        <ele>60.700000000000003</ele>
        <time>2025-05-06T13:12:58Z</time>
      </trkpt>
      <trkpt lat="37.624704977497458" lon="-8.736757999286056">
        <ele>60.219999999999999</ele>
        <time>2025-05-06T13:13:07Z</time>
      </trkpt>
      <trkpt lat="37.622376987710595" lon="-8.733285963535309">
        <ele>64.549999999999997</ele>
        <time>2025-05-06T13:13:23Z</time>
      </trkpt>
      <trkpt lat="37.621297985315323" lon="-8.731692982837558">
        <ele>69.349999999999994</ele>
        <time>2025-05-06T13:13:31Z</time>
      </trkpt>
      <trkpt lat="37.620105994865298" lon="-8.729937979951501">
        <ele>74.640000000000001</ele>
        <time>2025-05-06T13:13:41Z</time>
      </trkpt>
      <trkpt lat="37.618919033557177" lon="-8.728352962061763">
        <ele>78</ele>
        <time>2025-05-06T13:13:50Z</time>
      </trkpt>
      <trkpt lat="37.617720002308488" lon="-8.72701495885849">
        <ele>78</ele>
        <time>2025-05-06T13:13:58Z</time>
      </trkpt>
      <trkpt lat="37.615624023601413" lon="-8.724739020690322">
        <ele>74.640000000000001</ele>
        <time>2025-05-06T13:14:10Z</time>
      </trkpt>
      <trkpt lat="37.613497031852603" lon="-8.72243701480329">
        <ele>68.390000000000001</ele>
        <time>2025-05-06T13:14:23Z</time>
      </trkpt>
      <trkpt lat="37.612429009750485" lon="-8.721252987161279">
        <ele>63.100000000000001</ele>
        <time>2025-05-06T13:14:30Z</time>
      </trkpt>
      <trkpt lat="37.612280985340476" lon="-8.721087025478482">
        <ele>62.140000000000001</ele>
        <time>2025-05-06T13:14:31Z</time>
      </trkpt>
      <trkpt lat="37.611563997343183" lon="-8.719849018380046">
        <ele>55.409999999999997</ele>
        <time>2025-05-06T13:14:37Z</time>
      </trkpt>
      <trkpt lat="37.611467018723488" lon="-8.71962103061378">
        <ele>53.969999999999999</ele>
        <time>2025-05-06T13:14:38Z</time>
      </trkpt>
      <trkpt lat="37.611040966585279" lon="-8.717844989150763">
        <ele>39.549999999999997</ele>
        <time>2025-05-06T13:14:45Z</time>
      </trkpt>
      <trkpt lat="37.610985981300473" lon="-8.717326987534761">
        <ele>35.229999999999997</ele>
        <time>2025-05-06T13:14:47Z</time>
      </trkpt>
      <trkpt lat="37.610965026542544" lon="-8.717115009203553">
        <ele>32.82</ele>
        <time>2025-05-06T13:14:48Z</time>
      </trkpt>
      <trkpt lat="37.610992016270757" lon="-8.71682801283896">
        <ele>30.420000000000002</ele>
        <time>2025-05-06T13:14:49Z</time>
      </trkpt>
      <trkpt lat="37.611016994342208" lon="-8.716563982889056">
        <ele>28.5</ele>
        <time>2025-05-06T13:14:50Z</time>
      </trkpt>
      <trkpt lat="37.611044989898801" lon="-8.716305987909436">
        <ele>27.050000000000001</ele>
        <time>2025-05-06T13:14:51Z</time>
      </trkpt>
      <trkpt lat="37.611077008768916" lon="-8.716052016243339">
        <ele>25.129999999999999</ele>
        <time>2025-05-06T13:14:52Z</time>
      </trkpt>
      <trkpt lat="37.611200977116823" lon="-8.715078961104155">
        <ele>19.84</ele>
        <time>2025-05-06T13:14:56Z</time>
      </trkpt>
      <trkpt lat="37.611200977116823" lon="-8.714858014136553">
        <ele>18.399999999999999</ele>
        <time>2025-05-06T13:14:57Z</time>
      </trkpt>
      <trkpt lat="37.611177004873753" lon="-8.714649975299835">
        <ele>16.960000000000001</ele>
        <time>2025-05-06T13:14:58Z</time>
      </trkpt>
      <trkpt lat="37.611137023195624" lon="-8.714475966989994">
        <ele>16</ele>
        <time>2025-05-06T13:14:59Z</time>
      </trkpt>
      <trkpt lat="37.611047001555562" lon="-8.714316040277481">
        <ele>15.039999999999999</ele>
        <time>2025-05-06T13:15:00Z</time>
      </trkpt>
      <trkpt lat="37.610959997400641" lon="-8.714159969240427">
        <ele>14.56</ele>
        <time>2025-05-06T13:15:01Z</time>
      </trkpt>
      <trkpt lat="37.610867964103818" lon="-8.713996019214392">
        <ele>13.6</ele>
        <time>2025-05-06T13:15:02Z</time>
      </trkpt>
      <trkpt lat="37.610755981877446" lon="-8.71384397149086">
        <ele>13.119999999999999</ele>
        <time>2025-05-06T13:15:03Z</time>
      </trkpt>
      <trkpt lat="37.61063695885241" lon="-8.713702987879515">
        <ele>13.119999999999999</ele>
        <time>2025-05-06T13:15:04Z</time>
      </trkpt>
      <trkpt lat="37.609503977000713" lon="-8.712352998554707">
        <ele>4.46</ele>
        <time>2025-05-06T13:15:13Z</time>
      </trkpt>
      <trkpt lat="37.608699984848499" lon="-8.711127983406186">
        <ele>-2.75</ele>
        <time>2025-05-06T13:15:20Z</time>
      </trkpt>
      <trkpt lat="37.608011998236179" lon="-8.709964994341135">
        <ele>-3.71</ele>
        <time>2025-05-06T13:15:26Z</time>
      </trkpt>
      <trkpt lat="37.607921976596117" lon="-8.709769025444984">
        <ele>-2.75</ele>
        <time>2025-05-06T13:15:27Z</time>
      </trkpt>
      <trkpt lat="37.607837989926338" lon="-8.709580013528466">
        <ele>-1.79</ele>
        <time>2025-05-06T13:15:28Z</time>
      </trkpt>
      <trkpt lat="37.607800019904971" lon="-8.709340961650014">
        <ele>-0.34</ele>
        <time>2025-05-06T13:15:29Z</time>
      </trkpt>
      <trkpt lat="37.607789039611816" lon="-8.709153961390257">
        <ele>1.1</ele>
        <time>2025-05-06T13:15:30Z</time>
      </trkpt>
      <trkpt lat="37.607838995754719" lon="-8.70892102830112">
        <ele>3.02</ele>
        <time>2025-05-06T13:15:31Z</time>
      </trkpt>
      <trkpt lat="37.607878977432847" lon="-8.708735033869743">
        <ele>4.94</ele>
        <time>2025-05-06T13:15:32Z</time>
      </trkpt>
      <trkpt lat="37.608169997110963" lon="-8.707373980432749">
        <ele>17.920000000000002</ele>
        <time>2025-05-06T13:15:41Z</time>
      </trkpt>
      <trkpt lat="37.608436038717628" lon="-8.705909997224808">
        <ele>28.5</ele>
        <time>2025-05-06T13:15:48Z</time>
      </trkpt>
      <trkpt lat="37.608450958505273" lon="-8.705684021115303">
        <ele>29.940000000000001</ele>
        <time>2025-05-06T13:15:49Z</time>
      </trkpt>
      <trkpt lat="37.608433021232486" lon="-8.705465001985431">
        <ele>31.859999999999999</ele>
        <time>2025-05-06T13:15:50Z</time>
      </trkpt>
      <trkpt lat="37.608393961563706" lon="-8.705243971198797">
        <ele>33.299999999999997</ele>
        <time>2025-05-06T13:15:51Z</time>
      </trkpt>
      <trkpt lat="37.60831399820745" lon="-8.705028975382447">
        <ele>35.229999999999997</ele>
        <time>2025-05-06T13:15:52Z</time>
      </trkpt>
      <trkpt lat="37.608234034851193" lon="-8.704814985394478">
        <ele>36.670000000000002</ele>
        <time>2025-05-06T13:15:53Z</time>
      </trkpt>
      <trkpt lat="37.607597010210156" lon="-8.703027041628957">
        <ele>50.130000000000003</ele>
        <time>2025-05-06T13:16:02Z</time>
      </trkpt>
      <trkpt lat="37.607078002765775" lon="-8.701017983257771">
        <ele>64.069999999999993</ele>
        <time>2025-05-06T13:16:11Z</time>
      </trkpt>
      <trkpt lat="37.606737026944757" lon="-8.699834039434791">
        <ele>71.760000000000005</ele>
        <time>2025-05-06T13:16:16Z</time>
      </trkpt>
      <trkpt lat="37.606638036668301" lon="-8.699615020304918">
        <ele>72.719999999999999</ele>
        <time>2025-05-06T13:16:17Z</time>
      </trkpt>
      <trkpt lat="37.606528988108039" lon="-8.699399018660188">
        <ele>73.680000000000007</ele>
        <time>2025-05-06T13:16:18Z</time>
      </trkpt>
      <trkpt lat="37.606403008103371" lon="-8.69921000674367">
        <ele>74.640000000000001</ele>
        <time>2025-05-06T13:16:19Z</time>
      </trkpt>
      <trkpt lat="37.606265963986516" lon="-8.699032980948687">
        <ele>75.599999999999994</ele>
        <time>2025-05-06T13:16:20Z</time>
      </trkpt>
      <trkpt lat="37.605127030983567" lon="-8.697971999645233">
        <ele>82.329999999999998</ele>
        <time>2025-05-06T13:16:27Z</time>
      </trkpt>
      <trkpt lat="37.603112021461129" lon="-8.696348005905747">
        <ele>90.5</ele>
        <time>2025-05-06T13:16:39Z</time>
      </trkpt>
      <trkpt lat="37.60148199275136" lon="-8.695016037672758">
        <ele>89.540000000000006</ele>
        <time>2025-05-06T13:16:48Z</time>
      </trkpt>
      <trkpt lat="37.599752973765135" lon="-8.693649033084512">
        <ele>89.060000000000002</ele>
        <time>2025-05-06T13:16:58Z</time>
      </trkpt>
      <trkpt lat="37.598160998895764" lon="-8.692361991852522">
        <ele>88.579999999999998</ele>
        <time>2025-05-06T13:17:07Z</time>
      </trkpt>
      <trkpt lat="37.5964339915663" lon="-8.690990963950753">
        <ele>89.540000000000006</ele>
        <time>2025-05-06T13:17:17Z</time>
      </trkpt>
      <trkpt lat="37.595274019986391" lon="-8.689810959622264">
        <ele>86.659999999999997</ele>
        <time>2025-05-06T13:17:24Z</time>
      </trkpt>
      <trkpt lat="37.594408001750708" lon="-8.688328033313155">
        <ele>83.290000000000006</ele>
        <time>2025-05-06T13:17:31Z</time>
      </trkpt>
      <trkpt lat="37.593561010435224" lon="-8.686240017414093">
        <ele>81.849999999999994</ele>
        <time>2025-05-06T13:17:38Z</time>
      </trkpt>
      <trkpt lat="37.592645036056638" lon="-8.684095004573464">
        <ele>81.849999999999994</ele>
        <time>2025-05-06T13:17:46Z</time>
      </trkpt>
      <trkpt lat="37.591944979503751" lon="-8.6825389880687">
        <ele>86.180000000000007</ele>
        <time>2025-05-06T13:17:53Z</time>
      </trkpt>
      <trkpt lat="37.591535020619631" lon="-8.681500973179936">
        <ele>90.5</ele>
        <time>2025-05-06T13:17:58Z</time>
      </trkpt>
      <trkpt lat="37.591449022293091" lon="-8.681287989020348">
        <ele>90.980000000000004</ele>
        <time>2025-05-06T13:17:59Z</time>
      </trkpt>
      <trkpt lat="37.590618040412664" lon="-8.679286977276206">
        <ele>97.709999999999994</ele>
        <time>2025-05-06T13:18:08Z</time>
      </trkpt>
      <trkpt lat="37.590209003537893" lon="-8.677469026297331">
        <ele>101.08</ele>
        <time>2025-05-06T13:18:16Z</time>
      </trkpt>
      <trkpt lat="37.590258037671447" lon="-8.675640011206269">
        <ele>105.40000000000001</ele>
        <time>2025-05-06T13:18:24Z</time>
      </trkpt>
      <trkpt lat="37.590692974627018" lon="-8.671906962990761">
        <ele>111.17</ele>
        <time>2025-05-06T13:18:40Z</time>
      </trkpt>
      <trkpt lat="37.591026993468404" lon="-8.66908997297287">
        <ele>114.05</ele>
        <time>2025-05-06T13:18:53Z</time>
      </trkpt>
      <trkpt lat="37.591102011501789" lon="-8.667391967028379">
        <ele>115.01000000000001</ele>
        <time>2025-05-06T13:19:03Z</time>
      </trkpt>
      <trkpt lat="37.590835969895124" lon="-8.666056981310248">
        <ele>118.38</ele>
        <time>2025-05-06T13:19:13Z</time>
      </trkpt>
      <trkpt lat="37.59058996103704" lon="-8.664869014173746">
        <ele>119.81999999999999</ele>
        <time>2025-05-06T13:19:23Z</time>
      </trkpt>
      <trkpt lat="37.590579986572266" lon="-8.664616970345378">
        <ele>119.81999999999999</ele>
        <time>2025-05-06T13:19:26Z</time>
      </trkpt>
      <trkpt lat="37.590451994910836" lon="-8.664500964805484">
        <ele>119.81999999999999</ele>
        <time>2025-05-06T13:19:27Z</time>
      </trkpt>
      <trkpt lat="37.590451994910836" lon="-8.664500964805484">
        <ele>119.81999999999999</ele>
        <time>2025-05-06T13:19:28Z</time>
      </trkpt>
      <trkpt lat="37.590451994910836" lon="-8.664500964805484">
        <ele>119.81999999999999</ele>
        <time>2025-05-06T13:19:29Z</time>
      </trkpt>
      <trkpt lat="37.590428022667766" lon="-8.664370961487293">
        <ele>119.81999999999999</ele>
        <time>2025-05-06T13:19:30Z</time>
      </trkpt>
      <trkpt lat="37.590383011847734" lon="-8.664353024214506">
        <ele>119.81999999999999</ele>
        <time>2025-05-06T13:19:31Z</time>
      </trkpt>
      <trkpt lat="37.590322997421026" lon="-8.664328968152404">
        <ele>119.81999999999999</ele>
        <time>2025-05-06T13:19:32Z</time>
      </trkpt>
      <trkpt lat="37.590282009914517" lon="-8.664309019222856">
        <ele>119.81999999999999</ele>
        <time>2025-05-06T13:19:33Z</time>
      </trkpt>
      <trkpt lat="37.590214032679796" lon="-8.664308013394475">
        <ele>119.81999999999999</ele>
        <time>2025-05-06T13:19:34Z</time>
      </trkpt>
      <trkpt lat="37.59013800881803" lon="-8.66431899368763">
        <ele>119.81999999999999</ele>
        <time>2025-05-06T13:19:35Z</time>
      </trkpt>
      <trkpt lat="37.590053016319871" lon="-8.664345983415842">
        <ele>119.81999999999999</ele>
        <time>2025-05-06T13:19:36Z</time>
      </trkpt>
      <trkpt lat="37.589208036661148" lon="-8.664634991437197">
        <ele>116.45999999999999</ele>
        <time>2025-05-06T13:19:43Z</time>
      </trkpt>
      <trkpt lat="37.587655959650874" lon="-8.665133966132999">
        <ele>114.05</ele>
        <time>2025-05-06T13:19:52Z</time>
      </trkpt>
      <trkpt lat="37.586042024195194" lon="-8.665670994669199">
        <ele>116.45999999999999</ele>
        <time>2025-05-06T13:20:00Z</time>
      </trkpt>
      <trkpt lat="37.585004009306431" lon="-8.666038038209081">
        <ele>115.5</ele>
        <time>2025-05-06T13:20:08Z</time>
      </trkpt>
      <trkpt lat="37.584156012162566" lon="-8.666315982118249">
        <ele>115.01000000000001</ele>
        <time>2025-05-06T13:20:18Z</time>
      </trkpt>
      <trkpt lat="37.583964988589287" lon="-8.666378008201718">
        <ele>114.53</ele>
        <time>2025-05-06T13:20:28Z</time>
      </trkpt>
      <trkpt lat="37.583750998601317" lon="-8.666447997093201">
        <ele>114.05</ele>
        <time>2025-05-06T13:20:35Z</time>
      </trkpt>
      <trkpt lat="37.582718012854457" lon="-8.666795007884502">
        <ele>115.5</ele>
        <time>2025-05-06T13:20:42Z</time>
      </trkpt>
      <trkpt lat="37.580973990261555" lon="-8.667380986735225">
        <ele>117.90000000000001</ele>
        <time>2025-05-06T13:20:55Z</time>
      </trkpt>
      <trkpt lat="37.578971972689033" lon="-8.668040977790952">
        <ele>117.42</ele>
        <time>2025-05-06T13:21:09Z</time>
      </trkpt>
      <trkpt lat="37.577695995569229" lon="-8.668462000787258">
        <ele>120.3</ele>
        <time>2025-05-06T13:21:18Z</time>
      </trkpt>
      <trkpt lat="37.576610958203673" lon="-8.668814040720463">
        <ele>124.63</ele>
        <time>2025-05-06T13:21:27Z</time>
      </trkpt>
      <trkpt lat="37.574885040521622" lon="-8.669401025399566">
        <ele>121.26000000000001</ele>
        <time>2025-05-06T13:21:37Z</time>
      </trkpt>
      <trkpt lat="37.572923004627228" lon="-8.670057998970151">
        <ele>121.26000000000001</ele>
        <time>2025-05-06T13:21:49Z</time>
      </trkpt>
      <trkpt lat="37.57148802280426" lon="-8.670546999201179">
        <ele>126.06999999999999</ele>
        <time>2025-05-06T13:21:59Z</time>
      </trkpt>
      <trkpt lat="37.570330984890461" lon="-8.670963998883963">
        <ele>129.91999999999999</ele>
        <time>2025-05-06T13:22:06Z</time>
      </trkpt>
      <trkpt lat="37.570176003500819" lon="-8.671057038009167">
        <ele>129.91999999999999</ele>
        <time>2025-05-06T13:22:07Z</time>
      </trkpt>
      <trkpt lat="37.570032002404332" lon="-8.671166002750397">
        <ele>130.40000000000001</ele>
        <time>2025-05-06T13:22:08Z</time>
      </trkpt>
      <trkpt lat="37.56906196475029" lon="-8.672192031517625">
        <ele>135.19999999999999</ele>
        <time>2025-05-06T13:22:16Z</time>
      </trkpt>
      <trkpt lat="37.56893003359437" lon="-8.672295967116952">
        <ele>136.16</ele>
        <time>2025-05-06T13:22:17Z</time>
      </trkpt>
      <trkpt lat="37.56880103610456" lon="-8.672396969050169">
        <ele>136.63999999999999</ele>
        <time>2025-05-06T13:22:18Z</time>
      </trkpt>
      <trkpt lat="37.56727603264153" lon="-8.672568965703249">
        <ele>141.44999999999999</ele>
        <time>2025-05-06T13:22:27Z</time>
      </trkpt>
      <trkpt lat="37.565305028110743" lon="-8.672722019255161">
        <ele>152.03</ele>
        <time>2025-05-06T13:22:38Z</time>
      </trkpt>
      <trkpt lat="37.563433013856411" lon="-8.672919999808073">
        <ele>153.94999999999999</ele>
        <time>2025-05-06T13:22:47Z</time>
      </trkpt>
      <trkpt lat="37.561133019626141" lon="-8.67332199588418">
        <ele>154.91</ele>
        <time>2025-05-06T13:22:58Z</time>
      </trkpt>
      <trkpt lat="37.559102000668645" lon="-8.673728015273809">
        <ele>158.75</ele>
        <time>2025-05-06T13:23:07Z</time>
      </trkpt>
      <trkpt lat="37.55870696157217" lon="-8.673888025805354">
        <ele>159.24000000000001</ele>
        <time>2025-05-06T13:23:09Z</time>
      </trkpt>
      <trkpt lat="37.558519039303064" lon="-8.674003025516868">
        <ele>159.24000000000001</ele>
        <time>2025-05-06T13:23:10Z</time>
      </trkpt>
      <trkpt lat="37.558518033474684" lon="-8.674003025516868">
        <ele>158.75</ele>
        <time>2025-05-06T13:23:11Z</time>
      </trkpt>
      <trkpt lat="37.557939011603594" lon="-8.674357999116182">
        <ele>157.78999999999999</ele>
        <time>2025-05-06T13:23:14Z</time>
      </trkpt>
      <trkpt lat="37.557754023000598" lon="-8.674470987170935">
        <ele>157.31</ele>
        <time>2025-05-06T13:23:15Z</time>
      </trkpt>
      <trkpt lat="37.55760801024735" lon="-8.674633009359241">
        <ele>157.31</ele>
        <time>2025-05-06T13:23:16Z</time>
      </trkpt>
      <trkpt lat="37.557380022481084" lon="-8.675014972686768">
        <ele>156.83000000000001</ele>
        <time>2025-05-06T13:23:17Z</time>
      </trkpt>
      <trkpt lat="37.557269968092442" lon="-8.675225023180246">
        <ele>156.83000000000001</ele>
        <time>2025-05-06T13:23:18Z</time>
      </trkpt>
      <trkpt lat="37.557224035263062" lon="-8.675455022603273">
        <ele>156.34999999999999</ele>
        <time>2025-05-06T13:23:19Z</time>
      </trkpt>
      <trkpt lat="37.557188998907804" lon="-8.675673035904765">
        <ele>155.87</ele>
        <time>2025-05-06T13:23:21Z</time>
      </trkpt>
      <trkpt lat="37.557098977267742" lon="-8.67602901533246">
        <ele>155.38999999999999</ele>
        <time>2025-05-06T13:23:22Z</time>
      </trkpt>
      <trkpt lat="37.557011973112822" lon="-8.676154995337129">
        <ele>154.91</ele>
        <time>2025-05-06T13:23:23Z</time>
      </trkpt>
      <trkpt lat="37.556892028078437" lon="-8.676260020583868">
        <ele>154.43000000000001</ele>
        <time>2025-05-06T13:23:24Z</time>
      </trkpt>
      <trkpt lat="37.556746015325189" lon="-8.676353981718421">
        <ele>154.43000000000001</ele>
        <time>2025-05-06T13:23:25Z</time>
      </trkpt>
      <trkpt lat="37.556582987308502" lon="-8.676460012793541">
        <ele>153.94999999999999</ele>
        <time>2025-05-06T13:23:26Z</time>
      </trkpt>
      <trkpt lat="37.555964989587665" lon="-8.676938032731414">
        <ele>152.50999999999999</ele>
        <time>2025-05-06T13:23:31Z</time>
      </trkpt>
      <trkpt lat="37.55586801096797" lon="-8.677108017727733">
        <ele>152.03</ele>
        <time>2025-05-06T13:23:32Z</time>
      </trkpt>
      <trkpt lat="37.555763991549611" lon="-8.677288983017206">
        <ele>151.53999999999999</ele>
        <time>2025-05-06T13:23:33Z</time>
      </trkpt>
      <trkpt lat="37.555645974352956" lon="-8.677472965791822">
        <ele>151.06</ele>
        <time>2025-05-06T13:23:34Z</time>
      </trkpt>
      <trkpt lat="37.555522006005049" lon="-8.677628031000495">
        <ele>151.06</ele>
        <time>2025-05-06T13:23:35Z</time>
      </trkpt>
      <trkpt lat="37.555340034887195" lon="-8.677709000185132">
        <ele>150.58000000000001</ele>
        <time>2025-05-06T13:23:36Z</time>
      </trkpt>
      <trkpt lat="37.555165020748973" lon="-8.677783012390137">
        <ele>149.62</ele>
        <time>2025-05-06T13:23:37Z</time>
      </trkpt>
      <trkpt lat="37.55275103263557" lon="-8.678769981488586">
        <ele>143.84999999999999</ele>
        <time>2025-05-06T13:23:48Z</time>
      </trkpt>
      <trkpt lat="37.552574006840587" lon="-8.678887998685241">
        <ele>143.37</ele>
        <time>2025-05-06T13:23:49Z</time>
      </trkpt>
      <trkpt lat="37.550969962030649" lon="-8.680210998281837">
        <ele>147.69999999999999</ele>
        <time>2025-05-06T13:23:58Z</time>
      </trkpt>
      <trkpt lat="37.549628019332886" lon="-8.681076010689139">
        <ele>154.43000000000001</ele>
        <time>2025-05-06T13:24:05Z</time>
      </trkpt>
      <trkpt lat="37.549455016851425" lon="-8.681207019835711">
        <ele>155.38999999999999</ele>
        <time>2025-05-06T13:24:06Z</time>
      </trkpt>
      <trkpt lat="37.549300035461783" lon="-8.681362001225352">
        <ele>156.34999999999999</ele>
        <time>2025-05-06T13:24:07Z</time>
      </trkpt>
      <trkpt lat="37.549152011051774" lon="-8.681511031463742">
        <ele>156.83000000000001</ele>
        <time>2025-05-06T13:24:08Z</time>
      </trkpt>
      <trkpt lat="37.549004992470145" lon="-8.681656960397959">
        <ele>157.78999999999999</ele>
        <time>2025-05-06T13:24:09Z</time>
      </trkpt>
      <trkpt lat="37.548839030787349" lon="-8.681759973987937">
        <ele>158.75</ele>
        <time>2025-05-06T13:24:10Z</time>
      </trkpt>
      <trkpt lat="37.548655970022082" lon="-8.681816970929503">
        <ele>159.24000000000001</ele>
        <time>2025-05-06T13:24:11Z</time>
      </trkpt>
      <trkpt lat="37.548475004732609" lon="-8.681872962042689">
        <ele>159.72</ele>
        <time>2025-05-06T13:24:12Z</time>
      </trkpt>
      <trkpt lat="37.548308959230781" lon="-8.681924007833004">
        <ele>160.19999999999999</ele>
        <time>2025-05-06T13:24:13Z</time>
      </trkpt>
      <trkpt lat="37.548298984766006" lon="-8.681930964812636">
        <ele>161.16</ele>
        <time>2025-05-06T13:24:14Z</time>
      </trkpt>
      <trkpt lat="37.548149032518268" lon="-8.682030960917473">
        <ele>161.63999999999999</ele>
        <time>2025-05-06T13:24:15Z</time>
      </trkpt>
      <trkpt lat="37.547891959547997" lon="-8.682340001687408">
        <ele>161.63999999999999</ele>
        <time>2025-05-06T13:24:16Z</time>
      </trkpt>
      <trkpt lat="37.547763967886567" lon="-8.682535970583558">
        <ele>162.12</ele>
        <time>2025-05-06T13:24:17Z</time>
      </trkpt>
      <trkpt lat="37.547192992642522" lon="-8.683371981605887">
        <ele>160.68000000000001</ele>
        <time>2025-05-06T13:24:22Z</time>
      </trkpt>
      <trkpt lat="37.546613970771432" lon="-8.684091987088323">
        <ele>159.72</ele>
        <time>2025-05-06T13:24:25Z</time>
      </trkpt>
      <trkpt lat="37.546520009636879" lon="-8.68434302508831">
        <ele>159.24000000000001</ele>
        <time>2025-05-06T13:24:26Z</time>
      </trkpt>
      <trkpt lat="37.546332003548741" lon="-8.684754995629191">
        <ele>158.75</ele>
        <time>2025-05-06T13:24:28Z</time>
      </trkpt>
      <trkpt lat="37.54622002132237" lon="-8.684940990060568">
        <ele>158.27000000000001</ele>
        <time>2025-05-06T13:24:29Z</time>
      </trkpt>
      <trkpt lat="37.546083983033895" lon="-8.685105023905635">
        <ele>158.27000000000001</ele>
        <time>2025-05-06T13:24:30Z</time>
      </trkpt>
      <trkpt lat="37.54591902717948" lon="-8.685249025002122">
        <ele>157.78999999999999</ele>
        <time>2025-05-06T13:24:31Z</time>
      </trkpt>
      <trkpt lat="37.54575097002089" lon="-8.6853969655931">
        <ele>157.78999999999999</ele>
        <time>2025-05-06T13:24:32Z</time>
      </trkpt>
      <trkpt lat="37.544167041778564" lon="-8.686419976875186">
        <ele>156.83000000000001</ele>
        <time>2025-05-06T13:24:41Z</time>
      </trkpt>
      <trkpt lat="37.544012982398272" lon="-8.686538999900222">
        <ele>156.34999999999999</ele>
        <time>2025-05-06T13:24:42Z</time>
      </trkpt>
      <trkpt lat="37.543905023485422" lon="-8.686687024310231">
        <ele>155.87</ele>
        <time>2025-05-06T13:24:43Z</time>
      </trkpt>
      <trkpt lat="37.543823970481753" lon="-8.686860026791692">
        <ele>155.38999999999999</ele>
        <time>2025-05-06T13:24:44Z</time>
      </trkpt>
      <trkpt lat="37.54377300851047" lon="-8.687067981809378">
        <ele>155.38999999999999</ele>
        <time>2025-05-06T13:24:45Z</time>
      </trkpt>
      <trkpt lat="37.543723974376917" lon="-8.687273003160954">
        <ele>154.91</ele>
        <time>2025-05-06T13:24:46Z</time>
      </trkpt>
      <trkpt lat="37.543674018234015" lon="-8.687476012855768">
        <ele>154.43000000000001</ele>
        <time>2025-05-06T13:24:47Z</time>
      </trkpt>
      <trkpt lat="37.543621966615319" lon="-8.687667958438397">
        <ele>153.94999999999999</ele>
        <time>2025-05-06T13:24:48Z</time>
      </trkpt>
      <trkpt lat="37.543516019359231" lon="-8.687835009768605">
        <ele>153.47</ele>
        <time>2025-05-06T13:24:49Z</time>
      </trkpt>
      <trkpt lat="37.54336598329246" lon="-8.687971970066428">
        <ele>153.47</ele>
        <time>2025-05-06T13:24:50Z</time>
      </trkpt>
      <trkpt lat="37.543189963325858" lon="-8.688074983656406">
        <ele>152.99000000000001</ele>
        <time>2025-05-06T13:24:51Z</time>
      </trkpt>
      <trkpt lat="37.543001035228372" lon="-8.688172968104482">
        <ele>152.99000000000001</ele>
        <time>2025-05-06T13:24:52Z</time>
      </trkpt>
      <trkpt lat="37.542794002220035" lon="-8.688247986137867">
        <ele>153.47</ele>
        <time>2025-05-06T13:24:53Z</time>
      </trkpt>
      <trkpt lat="37.541044028475881" lon="-8.689075028523803">
        <ele>159.24000000000001</ele>
        <time>2025-05-06T13:25:01Z</time>
      </trkpt>
      <trkpt lat="37.538942014798522" lon="-8.690392998978496">
        <ele>159.72</ele>
        <time>2025-05-06T13:25:11Z</time>
      </trkpt>
      <trkpt lat="37.536493996158242" lon="-8.691727984696627">
        <ele>165.47999999999999</ele>
        <time>2025-05-06T13:25:23Z</time>
      </trkpt>
      <trkpt lat="37.535253977403045" lon="-8.692413037642837">
        <ele>170.28999999999999</ele>
        <time>2025-05-06T13:25:29Z</time>
      </trkpt>
      <trkpt lat="37.535077035427094" lon="-8.692583022639155">
        <ele>170.77000000000001</ele>
        <time>2025-05-06T13:25:30Z</time>
      </trkpt>
      <trkpt lat="37.533464021980762" lon="-8.694561989977956">
        <ele>170.77000000000001</ele>
        <time>2025-05-06T13:25:40Z</time>
      </trkpt>
      <trkpt lat="37.53300896845758" lon="-8.695077979937196">
        <ele>172.21000000000001</ele>
        <time>2025-05-06T13:25:43Z</time>
      </trkpt>
      <trkpt lat="37.532822974026203" lon="-8.69517202489078">
        <ele>172.69</ele>
        <time>2025-05-06T13:25:44Z</time>
      </trkpt>
      <trkpt lat="37.532671010121703" lon="-8.695202032104135">
        <ele>173.16999999999999</ele>
        <time>2025-05-06T13:25:45Z</time>
      </trkpt>
      <trkpt lat="37.532505970448256" lon="-8.695223992690444">
        <ele>174.13999999999999</ele>
        <time>2025-05-06T13:25:46Z</time>
      </trkpt>
      <trkpt lat="37.532332967966795" lon="-8.695246959105134">
        <ele>175.09999999999999</ele>
        <time>2025-05-06T13:25:47Z</time>
      </trkpt>
      <trkpt lat="37.532157031819224" lon="-8.695270009338856">
        <ele>175.58000000000001</ele>
        <time>2025-05-06T13:25:48Z</time>
      </trkpt>
      <trkpt lat="37.531985035166144" lon="-8.695353996008635">
        <ele>176.53999999999999</ele>
        <time>2025-05-06T13:25:49Z</time>
      </trkpt>
      <trkpt lat="37.531831981614232" lon="-8.695461032912135">
        <ele>177.02000000000001</ele>
        <time>2025-05-06T13:25:50Z</time>
      </trkpt>
      <trkpt lat="37.53169602714479" lon="-8.695596987381578">
        <ele>177.5</ele>
        <time>2025-05-06T13:25:51Z</time>
      </trkpt>
      <trkpt lat="37.531420011073351" lon="-8.695874009281397">
        <ele>178.94</ele>
        <time>2025-05-06T13:25:53Z</time>
      </trkpt>
      <trkpt lat="37.53133200109005" lon="-8.696026979014278">
        <ele>179.90000000000001</ele>
        <time>2025-05-06T13:25:54Z</time>
      </trkpt>
      <trkpt lat="37.531277015805244" lon="-8.696227977052331">
        <ele>180.38</ele>
        <time>2025-05-06T13:25:55Z</time>
      </trkpt>
      <trkpt lat="37.531068976968527" lon="-8.696961980313063">
        <ele>181.83000000000001</ele>
        <time>2025-05-06T13:25:58Z</time>
      </trkpt>
      <trkpt lat="37.530944002792239" lon="-8.697194997221232">
        <ele>182.31</ele>
        <time>2025-05-06T13:25:59Z</time>
      </trkpt>
      <trkpt lat="37.530479980632663" lon="-8.698117006570101">
        <ele>185.66999999999999</ele>
        <time>2025-05-06T13:26:04Z</time>
      </trkpt>
      <trkpt lat="37.530297003686428" lon="-8.698541969060898">
        <ele>187.11000000000001</ele>
        <time>2025-05-06T13:26:06Z</time>
      </trkpt>
      <trkpt lat="37.530208993703127" lon="-8.698745984584093">
        <ele>187.59</ele>
        <time>2025-05-06T13:26:07Z</time>
      </trkpt>
      <trkpt lat="37.530115032568574" lon="-8.698941031470895">
        <ele>187.59</ele>
        <time>2025-05-06T13:26:08Z</time>
      </trkpt>
      <trkpt lat="37.529981005936861" lon="-8.699098024517298">
        <ele>187.59</ele>
        <time>2025-05-06T13:26:09Z</time>
      </trkpt>
      <trkpt lat="37.529823007062078" lon="-8.699243031442165">
        <ele>187.59</ele>
        <time>2025-05-06T13:26:10Z</time>
      </trkpt>
      <trkpt lat="37.529627960175276" lon="-8.699316959828138">
        <ele>187.11000000000001</ele>
        <time>2025-05-06T13:26:11Z</time>
      </trkpt>
      <trkpt lat="37.529423022642732" lon="-8.69935903698206">
        <ele>186.63</ele>
        <time>2025-05-06T13:26:12Z</time>
      </trkpt>
      <trkpt lat="37.52899001352489" lon="-8.69944796897471">
        <ele>185.66999999999999</ele>
        <time>2025-05-06T13:26:14Z</time>
      </trkpt>
      <trkpt lat="37.528776023536921" lon="-8.699523992836475">
        <ele>185.19</ele>
        <time>2025-05-06T13:26:15Z</time>
      </trkpt>
      <trkpt lat="37.527752006426454" lon="-8.699916014447808">
        <ele>181.83000000000001</ele>
        <time>2025-05-06T13:26:20Z</time>
      </trkpt>
      <trkpt lat="37.527567017823458" lon="-8.699937975034118">
        <ele>180.87</ele>
        <time>2025-05-06T13:26:21Z</time>
      </trkpt>
      <trkpt lat="37.527373982593417" lon="-8.699916014447808">
        <ele>179.41999999999999</ele>
        <time>2025-05-06T13:26:22Z</time>
      </trkpt>
      <trkpt lat="37.526958994567394" lon="-8.699869997799397">
        <ele>177.02000000000001</ele>
        <time>2025-05-06T13:26:24Z</time>
      </trkpt>
      <trkpt lat="37.526745004579425" lon="-8.699847031384707">
        <ele>176.53999999999999</ele>
        <time>2025-05-06T13:26:25Z</time>
      </trkpt>
      <trkpt lat="37.526522967964411" lon="-8.699852982535958">
        <ele>175.58000000000001</ele>
        <time>2025-05-06T13:26:26Z</time>
      </trkpt>
      <trkpt lat="37.524807024747133" lon="-8.700308036059141">
        <ele>168.84999999999999</ele>
        <time>2025-05-06T13:26:34Z</time>
      </trkpt>
      <trkpt lat="37.523291995748878" lon="-8.700812961906195">
        <ele>164.52000000000001</ele>
        <time>2025-05-06T13:26:42Z</time>
      </trkpt>
      <trkpt lat="37.521809991449118" lon="-8.701496003195643">
        <ele>161.63999999999999</ele>
        <time>2025-05-06T13:26:50Z</time>
      </trkpt>
      <trkpt lat="37.521506985649467" lon="-8.701738994568586">
        <ele>161.63999999999999</ele>
        <time>2025-05-06T13:26:54Z</time>
      </trkpt>
      <trkpt lat="37.521452000364661" lon="-8.701801020652056">
        <ele>162.12</ele>
        <time>2025-05-06T13:26:55Z</time>
      </trkpt>
      <trkpt lat="37.521294001489878" lon="-8.701730025932193">
        <ele>162.12</ele>
        <time>2025-05-06T13:26:56Z</time>
      </trkpt>
      <trkpt lat="37.521343035623431" lon="-8.701790040358901">
        <ele>162.59999999999999</ele>
        <time>2025-05-06T13:26:57Z</time>
      </trkpt>
      <trkpt lat="37.521294001489878" lon="-8.701730025932193">
        <ele>162.59999999999999</ele>
        <time>2025-05-06T13:26:58Z</time>
      </trkpt>
      <trkpt lat="37.521050004288554" lon="-8.701673028990626">
        <ele>162.59999999999999</ele>
        <time>2025-05-06T13:26:59Z</time>
      </trkpt>
      <trkpt lat="37.520916983485222" lon="-8.701643021777272">
        <ele>162.12</ele>
        <time>2025-05-06T13:27:00Z</time>
      </trkpt>
      <trkpt lat="37.520915977656841" lon="-8.701643021777272">
        <ele>162.12</ele>
        <time>2025-05-06T13:27:01Z</time>
      </trkpt>
      <trkpt lat="37.51917103305459" lon="-8.701513018459082">
        <ele>154.91</ele>
        <time>2025-05-06T13:27:12Z</time>
      </trkpt>
      <trkpt lat="37.518607014790177" lon="-8.701514024287462">
        <ele>152.03</ele>
        <time>2025-05-06T13:27:16Z</time>
      </trkpt>
      <trkpt lat="37.518476005643606" lon="-8.701534979045391">
        <ele>151.53999999999999</ele>
        <time>2025-05-06T13:27:17Z</time>
      </trkpt>
      <trkpt lat="37.517933025956154" lon="-8.701740000396967">
        <ele>147.22</ele>
        <time>2025-05-06T13:27:21Z</time>
      </trkpt>
      <trkpt lat="37.517805034294724" lon="-8.70178903453052">
        <ele>146.25999999999999</ele>
        <time>2025-05-06T13:27:22Z</time>
      </trkpt>
      <trkpt lat="37.517676958814263" lon="-8.701837984845042">
        <ele>145.30000000000001</ele>
        <time>2025-05-06T13:27:23Z</time>
      </trkpt>
      <trkpt lat="37.517547961324453" lon="-8.701852988451719">
        <ele>143.84999999999999</ele>
        <time>2025-05-06T13:27:24Z</time>
      </trkpt>
      <trkpt lat="37.517414018511772" lon="-8.701842008158565">
        <ele>142.88999999999999</ele>
        <time>2025-05-06T13:27:25Z</time>
      </trkpt>
      <trkpt lat="37.517279991880059" lon="-8.70183102786541">
        <ele>142.41</ele>
        <time>2025-05-06T13:27:26Z</time>
      </trkpt>
      <trkpt lat="37.517147976905107" lon="-8.701819963753223">
        <ele>140.97</ele>
        <time>2025-05-06T13:27:27Z</time>
      </trkpt>
      <trkpt lat="37.517010010778904" lon="-8.701808983460069">
        <ele>140.00999999999999</ele>
        <time>2025-05-06T13:27:28Z</time>
      </trkpt>
      <trkpt lat="37.516863998025656" lon="-8.701796997338533">
        <ele>139.05000000000001</ele>
        <time>2025-05-06T13:27:29Z</time>
      </trkpt>
      <trkpt lat="37.516716979444027" lon="-8.701814012601972">
        <ele>138.09</ele>
        <time>2025-05-06T13:27:30Z</time>
      </trkpt>
      <trkpt lat="37.516568033024669" lon="-8.701841002330184">
        <ele>137.13</ele>
        <time>2025-05-06T13:27:31Z</time>
      </trkpt>
      <trkpt lat="37.516426965594292" lon="-8.70187503285706">
        <ele>136.63999999999999</ele>
        <time>2025-05-06T13:27:32Z</time>
      </trkpt>
      <trkpt lat="37.515030037611723" lon="-8.702656980603933">
        <ele>127.51000000000001</ele>
        <time>2025-05-06T13:27:42Z</time>
      </trkpt>
      <trkpt lat="37.514774976298213" lon="-8.702854039147496">
        <ele>127.03</ele>
        <time>2025-05-06T13:27:44Z</time>
      </trkpt>
      <trkpt lat="37.514654025435448" lon="-8.702948000282049">
        <ele>127.51000000000001</ele>
        <time>2025-05-06T13:27:45Z</time>
      </trkpt>
      <trkpt lat="37.514538019895554" lon="-8.702994016930461">
        <ele>127.51000000000001</ele>
        <time>2025-05-06T13:27:46Z</time>
      </trkpt>
      <trkpt lat="37.514420002698898" lon="-8.703022012487054">
        <ele>127.98999999999999</ele>
        <time>2025-05-06T13:27:47Z</time>
      </trkpt>
      <trkpt lat="37.514298968017101" lon="-8.703050008043647">
        <ele>127.98999999999999</ele>
        <time>2025-05-06T13:27:48Z</time>
      </trkpt>
      <trkpt lat="37.51418698579073" lon="-8.70305503718555">
        <ele>127.98999999999999</ele>
        <time>2025-05-06T13:27:49Z</time>
      </trkpt>
      <trkpt lat="37.5140589941293" lon="-8.703043973073363">
        <ele>128.47</ele>
        <time>2025-05-06T13:27:50Z</time>
      </trkpt>
      <trkpt lat="37.513910969719291" lon="-8.703024024143815">
        <ele>128.47</ele>
        <time>2025-05-06T13:27:51Z</time>
      </trkpt>
      <trkpt lat="37.513763029128313" lon="-8.702999968081713">
        <ele>128.47</ele>
        <time>2025-05-06T13:27:52Z</time>
      </trkpt>
      <trkpt lat="37.513611987233162" lon="-8.702973984181881">
        <ele>128.94999999999999</ele>
        <time>2025-05-06T13:27:53Z</time>
      </trkpt>
      <trkpt lat="37.512614037841558" lon="-8.702893014997244">
        <ele>135.68000000000001</ele>
        <time>2025-05-06T13:28:01Z</time>
      </trkpt>
      <trkpt lat="37.512426031753421" lon="-8.702900977805257">
        <ele>136.63999999999999</ele>
        <time>2025-05-06T13:28:04Z</time>
      </trkpt>
      <trkpt lat="37.512343972921371" lon="-8.702853033319116">
        <ele>137.13</ele>
        <time>2025-05-06T13:28:05Z</time>
      </trkpt>
      <trkpt lat="37.51234196126461" lon="-8.702798970043659">
        <ele>137.61000000000001</ele>
        <time>2025-05-06T13:28:06Z</time>
      </trkpt>
      <trkpt lat="37.512340033426881" lon="-8.702726969495416">
        <ele>138.09</ele>
        <time>2025-05-06T13:28:07Z</time>
      </trkpt>
      <trkpt lat="37.512340033426881" lon="-8.702726969495416">
        <ele>138.56999999999999</ele>
        <time>2025-05-06T13:28:08Z</time>
      </trkpt>
      <trkpt lat="37.512337015941739" lon="-8.702626973390579">
        <ele>139.05000000000001</ele>
        <time>2025-05-06T13:28:09Z</time>
      </trkpt>
      <trkpt lat="37.512289993464947" lon="-8.701382009312511">
        <ele>138.09</ele>
        <time>2025-05-06T13:28:17Z</time>
      </trkpt>
      <trkpt lat="37.512084972113371" lon="-8.700638031587005">
        <ele>133.75999999999999</ele>
        <time>2025-05-06T13:28:21Z</time>
      </trkpt>
      <trkpt lat="37.511290032416582" lon="-8.698773980140686">
        <ele>127.51000000000001</ele>
        <time>2025-05-06T13:28:29Z</time>
      </trkpt>
      <trkpt lat="37.510754009708762" lon="-8.697563968598843">
        <ele>128.47</ele>
        <time>2025-05-06T13:28:34Z</time>
      </trkpt>
      <trkpt lat="37.510645966976881" lon="-8.697325000539422">
        <ele>128.94999999999999</ele>
        <time>2025-05-06T13:28:35Z</time>
      </trkpt>
      <trkpt lat="37.510498026385903" lon="-8.697147974744439">
        <ele>129.43000000000001</ele>
        <time>2025-05-06T13:28:36Z</time>
      </trkpt>
      <trkpt lat="37.510373974218965" lon="-8.696999028325081">
        <ele>130.40000000000001</ele>
        <time>2025-05-06T13:28:37Z</time>
      </trkpt>
      <trkpt lat="37.510244976729155" lon="-8.696921998634934">
        <ele>131.36000000000001</ele>
        <time>2025-05-06T13:28:38Z</time>
      </trkpt>
      <trkpt lat="37.510089995339513" lon="-8.696881011128426">
        <ele>132.31999999999999</ele>
        <time>2025-05-06T13:28:39Z</time>
      </trkpt>
      <trkpt lat="37.508369022980332" lon="-8.696423023939133">
        <ele>146.25999999999999</ele>
        <time>2025-05-06T13:28:48Z</time>
      </trkpt>
      <trkpt lat="37.507585985586047" lon="-8.696163017302752">
        <ele>152.03</ele>
        <time>2025-05-06T13:28:52Z</time>
      </trkpt>
      <trkpt lat="37.507447013631463" lon="-8.696087999269366">
        <ele>153.47</ele>
        <time>2025-05-06T13:28:53Z</time>
      </trkpt>
      <trkpt lat="37.50690302811563" lon="-8.695636969059706">
        <ele>158.75</ele>
        <time>2025-05-06T13:28:59Z</time>
      </trkpt>
      <trkpt lat="37.506824992597103" lon="-8.695563040673733">
        <ele>159.24000000000001</ele>
        <time>2025-05-06T13:29:00Z</time>
      </trkpt>
      <trkpt lat="37.506757015362382" lon="-8.695474024862051">
        <ele>159.24000000000001</ele>
        <time>2025-05-06T13:29:01Z</time>
      </trkpt>
      <trkpt lat="37.506467001512647" lon="-8.69491302408278">
        <ele>161.16</ele>
        <time>2025-05-06T13:29:07Z</time>
      </trkpt>
      <trkpt lat="37.506422996520996" lon="-8.694809004664421">
        <ele>161.63999999999999</ele>
        <time>2025-05-06T13:29:08Z</time>
      </trkpt>
      <trkpt lat="37.50617397017777" lon="-8.694206010550261">
        <ele>163.56</ele>
        <time>2025-05-06T13:29:14Z</time>
      </trkpt>
      <trkpt lat="37.506136000156403" lon="-8.694122023880482">
        <ele>163.56</ele>
        <time>2025-05-06T13:29:15Z</time>
      </trkpt>
      <trkpt lat="37.505792006850243" lon="-8.693318031728268">
        <ele>168.37</ele>
        <time>2025-05-06T13:29:23Z</time>
      </trkpt>
      <trkpt lat="37.505165040493011" lon="-8.69212101213634">
        <ele>175.09999999999999</ele>
        <time>2025-05-06T13:29:30Z</time>
      </trkpt>
      <trkpt lat="37.503930972889066" lon="-8.690607994794846">
        <ele>180.38</ele>
        <time>2025-05-06T13:29:38Z</time>
      </trkpt>
      <trkpt lat="37.502043033018708" lon="-8.688373966142535">
        <ele>188.56</ele>
        <time>2025-05-06T13:29:50Z</time>
      </trkpt>
      <trkpt lat="37.501133009791374" lon="-8.687040992081165">
        <ele>191.44</ele>
        <time>2025-05-06T13:29:58Z</time>
      </trkpt>
      <trkpt lat="37.500059036538005" lon="-8.685378022491932">
        <ele>193.36000000000001</ele>
        <time>2025-05-06T13:30:06Z</time>
      </trkpt>
      <trkpt lat="37.498919013887644" lon="-8.683620002120733">
        <ele>195.28</ele>
        <time>2025-05-06T13:30:14Z</time>
      </trkpt>
      <trkpt lat="37.497663991525769" lon="-8.681638017296791">
        <ele>195.77000000000001</ele>
        <time>2025-05-06T13:30:23Z</time>
      </trkpt>
      <trkpt lat="37.496520029380918" lon="-8.679863987490535">
        <ele>196.25</ele>
        <time>2025-05-06T13:30:31Z</time>
      </trkpt>
      <trkpt lat="37.495507998391986" lon="-8.678293973207474">
        <ele>196.25</ele>
        <time>2025-05-06T13:30:38Z</time>
      </trkpt>
      <trkpt lat="37.494096988812089" lon="-8.676105039194226">
        <ele>193.84</ele>
        <time>2025-05-06T13:30:48Z</time>
      </trkpt>
      <trkpt lat="37.492773989215493" lon="-8.673841003328562">
        <ele>195.28</ele>
        <time>2025-05-06T13:30:58Z</time>
      </trkpt>
      <trkpt lat="37.492353972047567" lon="-8.673211019486189">
        <ele>195.77000000000001</ele>
        <time>2025-05-06T13:31:01Z</time>
      </trkpt>
      <trkpt lat="37.492205025628209" lon="-8.673069030046463">
        <ele>196.25</ele>
        <time>2025-05-06T13:31:02Z</time>
      </trkpt>
      <trkpt lat="37.4920570012182" lon="-8.672945983707905">
        <ele>196.25</ele>
        <time>2025-05-06T13:31:03Z</time>
      </trkpt>
      <trkpt lat="37.490785969421268" lon="-8.672090023756027">
        <ele>196.72999999999999</ele>
        <time>2025-05-06T13:31:11Z</time>
      </trkpt>
      <trkpt lat="37.489103972911835" lon="-8.671020995825529">
        <ele>199.13</ele>
        <time>2025-05-06T13:31:22Z</time>
      </trkpt>
      <trkpt lat="37.487647030502558" lon="-8.670095968991518">
        <ele>199.13</ele>
        <time>2025-05-06T13:31:32Z</time>
      </trkpt>
      <trkpt lat="37.486477000638843" lon="-8.669351991266012">
        <ele>197.69</ele>
        <time>2025-05-06T13:31:43Z</time>
      </trkpt>
      <trkpt lat="37.486083973199129" lon="-8.669095002114773">
        <ele>198.16999999999999</ele>
        <time>2025-05-06T13:31:46Z</time>
      </trkpt>
      <trkpt lat="37.485665967687964" lon="-8.668812029063702">
        <ele>199.13</ele>
        <time>2025-05-06T13:31:49Z</time>
      </trkpt>
      <trkpt lat="37.485117958858609" lon="-8.668385976925492">
        <ele>199.13</ele>
        <time>2025-05-06T13:31:53Z</time>
      </trkpt>
      <trkpt lat="37.483474016189575" lon="-8.666826020926237">
        <ele>198.16999999999999</ele>
        <time>2025-05-06T13:32:05Z</time>
      </trkpt>
      <trkpt lat="37.481981031596661" lon="-8.665576027706265">
        <ele>199.13</ele>
        <time>2025-05-06T13:32:14Z</time>
      </trkpt>
      <trkpt lat="37.480858024209738" lon="-8.66489801555872">
        <ele>200.09</ele>
        <time>2025-05-06T13:32:20Z</time>
      </trkpt>
      <trkpt lat="37.479012999683619" lon="-8.664317987859249">
        <ele>201.53</ele>
        <time>2025-05-06T13:32:28Z</time>
      </trkpt>
      <trkpt lat="37.4761370010674" lon="-8.663689009845257">
        <ele>206.34</ele>
        <time>2025-05-06T13:32:41Z</time>
      </trkpt>
      <trkpt lat="37.472574021667242" lon="-8.6630720179528">
        <ele>211.63</ele>
        <time>2025-05-06T13:32:57Z</time>
      </trkpt>
      <trkpt lat="37.471677996218204" lon="-8.662999011576176">
        <ele>214.50999999999999</ele>
        <time>2025-05-06T13:33:01Z</time>
      </trkpt>
      <trkpt lat="37.469559973105788" lon="-8.663217024877667">
        <ele>223.16</ele>
        <time>2025-05-06T13:33:11Z</time>
      </trkpt>
      <trkpt lat="37.469000983983278" lon="-8.663277961313725">
        <ele>225.09</ele>
        <time>2025-05-06T13:33:14Z</time>
      </trkpt>
      <trkpt lat="37.468803003430367" lon="-8.663253989070654">
        <ele>225.09</ele>
        <time>2025-05-06T13:33:15Z</time>
      </trkpt>
      <trkpt lat="37.467030985280871" lon="-8.662889041006565">
        <ele>228.93000000000001</ele>
        <time>2025-05-06T13:33:24Z</time>
      </trkpt>
      <trkpt lat="37.466653967276216" lon="-8.662798013538122">
        <ele>230.37</ele>
        <time>2025-05-06T13:33:26Z</time>
      </trkpt>
      <trkpt lat="37.465113960206509" lon="-8.661980023607612">
        <ele>237.09999999999999</ele>
        <time>2025-05-06T13:33:34Z</time>
      </trkpt>
      <trkpt lat="37.463675960898399" lon="-8.66111702285707">
        <ele>244.31</ele>
        <time>2025-05-06T13:33:42Z</time>
      </trkpt>
      <trkpt lat="37.463518967851996" lon="-8.660992970690131">
        <ele>245.27000000000001</ele>
        <time>2025-05-06T13:33:43Z</time>
      </trkpt>
      <trkpt lat="37.463371027261019" lon="-8.660845030099154">
        <ele>245.75</ele>
        <time>2025-05-06T13:33:44Z</time>
      </trkpt>
      <trkpt lat="37.463223002851009" lon="-8.660693988204002">
        <ele>246.72</ele>
        <time>2025-05-06T13:33:45Z</time>
      </trkpt>
      <trkpt lat="37.462256988510489" lon="-8.659489005804062">
        <ele>252</ele>
        <time>2025-05-06T13:33:52Z</time>
      </trkpt>
      <trkpt lat="37.462107958272099" lon="-8.659381968900561">
        <ele>252.47999999999999</ele>
        <time>2025-05-06T13:33:53Z</time>
      </trkpt>
      <trkpt lat="37.46032202616334" lon="-8.658684007823467">
        <ele>257.76999999999998</ele>
        <time>2025-05-06T13:34:03Z</time>
      </trkpt>
      <trkpt lat="37.459418037906289" lon="-8.658364992588759">
        <ele>260.64999999999998</ele>
        <time>2025-05-06T13:34:08Z</time>
      </trkpt>
      <trkpt lat="37.459241012111306" lon="-8.658301960676909">
        <ele>261.13999999999999</ele>
        <time>2025-05-06T13:34:09Z</time>
      </trkpt>
      <trkpt lat="37.457762025296688" lon="-8.657280961051583">
        <ele>268.35000000000002</ele>
        <time>2025-05-06T13:34:17Z</time>
      </trkpt>
      <trkpt lat="37.456764997914433" lon="-8.656559027731419">
        <ele>274.11000000000001</ele>
        <time>2025-05-06T13:34:23Z</time>
      </trkpt>
      <trkpt lat="37.45544602163136" lon="-8.655295036733151">
        <ele>281.31999999999999</ele>
        <time>2025-05-06T13:34:32Z</time>
      </trkpt>
      <trkpt lat="37.45529598556459" lon="-8.655151035636663">
        <ele>281.80000000000001</ele>
        <time>2025-05-06T13:34:33Z</time>
      </trkpt>
      <trkpt lat="37.455118037760258" lon="-8.655064031481743">
        <ele>282.27999999999997</ele>
        <time>2025-05-06T13:34:34Z</time>
      </trkpt>
      <trkpt lat="37.454057978466153" lon="-8.654535971581936">
        <ele>284.20999999999998</ele>
        <time>2025-05-06T13:34:40Z</time>
      </trkpt>
      <trkpt lat="37.453912971541286" lon="-8.654424995183945">
        <ele>284.20999999999998</ele>
        <time>2025-05-06T13:34:41Z</time>
      </trkpt>
      <trkpt lat="37.453787997364998" lon="-8.654330028221011">
        <ele>284.69</ele>
        <time>2025-05-06T13:34:42Z</time>
      </trkpt>
      <trkpt lat="37.453694036230445" lon="-8.654175968840718">
        <ele>285.17000000000002</ele>
        <time>2025-05-06T13:34:43Z</time>
      </trkpt>
      <trkpt lat="37.453600997105241" lon="-8.654024004936218">
        <ele>285.64999999999998</ele>
        <time>2025-05-06T13:34:44Z</time>
      </trkpt>
      <trkpt lat="37.453526984900236" lon="-8.653849996626377">
        <ele>285.64999999999998</ele>
        <time>2025-05-06T13:34:45Z</time>
      </trkpt>
      <trkpt lat="37.453474011272192" lon="-8.653642041608691">
        <ele>286.13</ele>
        <time>2025-05-06T13:34:46Z</time>
      </trkpt>
      <trkpt lat="37.453157007694244" lon="-8.652274031192064">
        <ele>288.52999999999997</ele>
        <time>2025-05-06T13:34:52Z</time>
      </trkpt>
      <trkpt lat="37.45310596190393" lon="-8.652086025103927">
        <ele>288.52999999999997</ele>
        <time>2025-05-06T13:34:53Z</time>
      </trkpt>
      <trkpt lat="37.453027004376054" lon="-8.651929032057524">
        <ele>289.49000000000001</ele>
        <time>2025-05-06T13:34:54Z</time>
      </trkpt>
      <trkpt lat="37.452950980514288" lon="-8.651775978505611">
        <ele>289.97000000000003</ele>
        <time>2025-05-06T13:34:55Z</time>
      </trkpt>
      <trkpt lat="37.452807985246181" lon="-8.651633989065886">
        <ele>290.94</ele>
        <time>2025-05-06T13:34:56Z</time>
      </trkpt>
      <trkpt lat="37.452665995806456" lon="-8.65149199962616">
        <ele>291.42000000000002</ele>
        <time>2025-05-06T13:34:57Z</time>
      </trkpt>
      <trkpt lat="37.452507996931672" lon="-8.651370964944363">
        <ele>291.42000000000002</ele>
        <time>2025-05-06T13:34:58Z</time>
      </trkpt>
      <trkpt lat="37.450864976271987" lon="-8.650378966704011">
        <ele>291.42000000000002</ele>
        <time>2025-05-06T13:35:07Z</time>
      </trkpt>
      <trkpt lat="37.450476977974176" lon="-8.650134969502688">
        <ele>291.89999999999998</ele>
        <time>2025-05-06T13:35:09Z</time>
      </trkpt>
      <trkpt lat="37.450291989371181" lon="-8.650017958134413">
        <ele>291.89999999999998</ele>
        <time>2025-05-06T13:35:10Z</time>
      </trkpt>
      <trkpt lat="37.449717996641994" lon="-8.649657033383846">
        <ele>291.89999999999998</ele>
        <time>2025-05-06T13:35:13Z</time>
      </trkpt>
      <trkpt lat="37.448210008442402" lon="-8.649153029546142">
        <ele>295.74000000000001</ele>
        <time>2025-05-06T13:35:21Z</time>
      </trkpt>
      <trkpt lat="37.447209963575006" lon="-8.648906014859676">
        <ele>299.58999999999997</ele>
        <time>2025-05-06T13:35:27Z</time>
      </trkpt>
      <trkpt lat="37.447078032419086" lon="-8.648839965462685">
        <ele>300.06999999999999</ele>
        <time>2025-05-06T13:35:28Z</time>
      </trkpt>
      <trkpt lat="37.446980969980359" lon="-8.648756984621286">
        <ele>300.55000000000001</ele>
        <time>2025-05-06T13:35:29Z</time>
      </trkpt>
      <trkpt lat="37.446888014674187" lon="-8.648642990738154">
        <ele>301.02999999999997</ele>
        <time>2025-05-06T13:35:30Z</time>
      </trkpt>
      <trkpt lat="37.446806039661169" lon="-8.648497983813286">
        <ele>301.02999999999997</ele>
        <time>2025-05-06T13:35:31Z</time>
      </trkpt>
      <trkpt lat="37.446736972779036" lon="-8.648307966068387">
        <ele>301.50999999999999</ele>
        <time>2025-05-06T13:35:32Z</time>
      </trkpt>
      <trkpt lat="37.446088967844844" lon="-8.646555980667472">
        <ele>300.06999999999999</ele>
        <time>2025-05-06T13:35:40Z</time>
      </trkpt>
      <trkpt lat="37.446007998660207" lon="-8.646374009549618">
        <ele>299.58999999999997</ele>
        <time>2025-05-06T13:35:41Z</time>
      </trkpt>
      <trkpt lat="37.445903979241848" lon="-8.646239982917905">
        <ele>299.11000000000001</ele>
        <time>2025-05-06T13:35:42Z</time>
      </trkpt>
      <trkpt lat="37.445774981752038" lon="-8.646126994863153">
        <ele>299.11000000000001</ele>
        <time>2025-05-06T13:35:43Z</time>
      </trkpt>
      <trkpt lat="37.445641960948706" lon="-8.646008977666497">
        <ele>299.11000000000001</ele>
        <time>2025-05-06T13:35:44Z</time>
      </trkpt>
      <trkpt lat="37.445485973730683" lon="-8.645930020138621">
        <ele>298.63</ele>
        <time>2025-05-06T13:35:45Z</time>
      </trkpt>
      <trkpt lat="37.443788973614573" lon="-8.645213032141328">
        <ele>299.11000000000001</ele>
        <time>2025-05-06T13:35:54Z</time>
      </trkpt>
      <trkpt lat="37.441575983539224" lon="-8.644288005307317">
        <ele>304.38999999999999</ele>
        <time>2025-05-06T13:36:05Z</time>
      </trkpt>
      <trkpt lat="37.441071979701519" lon="-8.644077032804489">
        <ele>305.36000000000001</ele>
        <time>2025-05-06T13:36:08Z</time>
      </trkpt>
      <trkpt lat="37.440925966948271" lon="-8.64403897896409">
        <ele>305.83999999999997</ele>
        <time>2025-05-06T13:36:09Z</time>
      </trkpt>
      <trkpt lat="37.440775008872151" lon="-8.644012995064259">
        <ele>305.83999999999997</ele>
        <time>2025-05-06T13:36:10Z</time>
      </trkpt>
      <trkpt lat="37.440634025260806" lon="-8.644030010327697">
        <ele>305.83999999999997</ele>
        <time>2025-05-06T13:36:11Z</time>
      </trkpt>
      <trkpt lat="37.440493041649461" lon="-8.64410100504756">
        <ele>306.31999999999999</ele>
        <time>2025-05-06T13:36:12Z</time>
      </trkpt>
      <trkpt lat="37.440354991704226" lon="-8.644175017252564">
        <ele>306.31999999999999</ele>
        <time>2025-05-06T13:36:13Z</time>
      </trkpt>
      <trkpt lat="37.440205039456487" lon="-8.644288005307317">
        <ele>306.31999999999999</ele>
        <time>2025-05-06T13:36:14Z</time>
      </trkpt>
      <trkpt lat="37.44010697118938" lon="-8.644418008625507">
        <ele>306.31999999999999</ele>
        <time>2025-05-06T13:36:15Z</time>
      </trkpt>
      <trkpt lat="37.440012004226446" lon="-8.644544994458556">
        <ele>306.31999999999999</ele>
        <time>2025-05-06T13:36:16Z</time>
      </trkpt>
      <trkpt lat="37.439951989799738" lon="-8.644717996940017">
        <ele>306.31999999999999</ele>
        <time>2025-05-06T13:36:17Z</time>
      </trkpt>
      <trkpt lat="37.439899016171694" lon="-8.644871972501278">
        <ele>306.31999999999999</ele>
        <time>2025-05-06T13:36:18Z</time>
      </trkpt>
      <trkpt lat="37.439847970381379" lon="-8.645018991082907">
        <ele>305.83999999999997</ele>
        <time>2025-05-06T13:36:19Z</time>
      </trkpt>
      <trkpt lat="37.439815029501915" lon="-8.645177995786071">
        <ele>305.83999999999997</ele>
        <time>2025-05-06T13:36:20Z</time>
      </trkpt>
      <trkpt lat="37.43980597704649" lon="-8.64532602019608">
        <ele>305.36000000000001</ele>
        <time>2025-05-06T13:36:21Z</time>
      </trkpt>
      <trkpt lat="37.439799020066857" lon="-8.64545501768589">
        <ele>305.36000000000001</ele>
        <time>2025-05-06T13:36:22Z</time>
      </trkpt>
      <trkpt lat="37.43993598036468" lon="-8.64642002619803">
        <ele>302.94999999999999</ele>
        <time>2025-05-06T13:36:31Z</time>
      </trkpt>
      <trkpt lat="37.440251978114247" lon="-8.648257004097104">
        <ele>299.58999999999997</ele>
        <time>2025-05-06T13:36:44Z</time>
      </trkpt>
      <trkpt lat="37.44055699557066" lon="-8.650034973397851">
        <ele>294.30000000000001</ele>
        <time>2025-05-06T13:36:55Z</time>
      </trkpt>
      <trkpt lat="37.440956979990005" lon="-8.652494978159666">
        <ele>290.94</ele>
        <time>2025-05-06T13:37:07Z</time>
      </trkpt>
      <trkpt lat="37.441195026040077" lon="-8.654130036011338">
        <ele>289.49000000000001</ele>
        <time>2025-05-06T13:37:15Z</time>
      </trkpt>
      <trkpt lat="37.441255962476134" lon="-8.655530987307429">
        <ele>288.52999999999997</ele>
        <time>2025-05-06T13:37:23Z</time>
      </trkpt>
      <trkpt lat="37.441111039370298" lon="-8.656427012756467">
        <ele>286.61000000000001</ele>
        <time>2025-05-06T13:37:31Z</time>
      </trkpt>
      <trkpt lat="37.440994028002024" lon="-8.656850969418883">
        <ele>285.64999999999998</ele>
        <time>2025-05-06T13:37:34Z</time>
      </trkpt>
      <trkpt lat="37.440953040495515" lon="-8.656992958858609">
        <ele>285.17000000000002</ele>
        <time>2025-05-06T13:37:35Z</time>
      </trkpt>
      <trkpt lat="37.440891014412045" lon="-8.657103013247252">
        <ele>285.17000000000002</ele>
        <time>2025-05-06T13:37:36Z</time>
      </trkpt>
      <trkpt lat="37.440807027742267" lon="-8.657194962725043">
        <ele>285.17000000000002</ele>
        <time>2025-05-06T13:37:37Z</time>
      </trkpt>
      <trkpt lat="37.440724968910217" lon="-8.657284984365106">
        <ele>285.17000000000002</ele>
        <time>2025-05-06T13:37:38Z</time>
      </trkpt>
      <trkpt lat="37.440623966977" lon="-8.657331001013517">
        <ele>285.17000000000002</ele>
        <time>2025-05-06T13:37:39Z</time>
      </trkpt>
      <trkpt lat="37.440507961437106" lon="-8.657380035147071">
        <ele>285.17000000000002</ele>
        <time>2025-05-06T13:37:40Z</time>
      </trkpt>
      <trkpt lat="37.440387010574341" lon="-8.657430997118354">
        <ele>285.17000000000002</ele>
        <time>2025-05-06T13:37:41Z</time>
      </trkpt>
      <trkpt lat="37.440262036398053" lon="-8.657472990453243">
        <ele>284.69</ele>
        <time>2025-05-06T13:37:42Z</time>
      </trkpt>
      <trkpt lat="37.438956974074244" lon="-8.657726962119341">
        <ele>283.25</ele>
        <time>2025-05-06T13:37:50Z</time>
      </trkpt>
      <trkpt lat="37.437388971447945" lon="-8.658034997060895">
        <ele>282.27999999999997</ele>
        <time>2025-05-06T13:37:57Z</time>
      </trkpt>
      <trkpt lat="37.436521025374532" lon="-8.658115966245532">
        <ele>284.69</ele>
        <time>2025-05-06T13:38:01Z</time>
      </trkpt>
      <trkpt lat="37.436331007629633" lon="-8.658117977902293">
        <ele>285.17000000000002</ele>
        <time>2025-05-06T13:38:02Z</time>
      </trkpt>
      <trkpt lat="37.436139984056354" lon="-8.658063998445869">
        <ele>286.13</ele>
        <time>2025-05-06T13:38:03Z</time>
      </trkpt>
      <trkpt lat="37.435952983796597" lon="-8.657995015382767">
        <ele>286.61000000000001</ele>
        <time>2025-05-06T13:38:04Z</time>
      </trkpt>
      <trkpt lat="37.43576698936522" lon="-8.657914968207479">
        <ele>287.56999999999999</ele>
        <time>2025-05-06T13:38:05Z</time>
      </trkpt>
      <trkpt lat="37.435577977448702" lon="-8.6578309815377">
        <ele>288.05000000000001</ele>
        <time>2025-05-06T13:38:06Z</time>
      </trkpt>
      <trkpt lat="37.43370302952826" lon="-8.656739993020892">
        <ele>289.49000000000001</ele>
        <time>2025-05-06T13:38:16Z</time>
      </trkpt>
      <trkpt lat="37.433043960481882" lon="-8.656454002484679">
        <ele>287.56999999999999</ele>
        <time>2025-05-06T13:38:22Z</time>
      </trkpt>
      <trkpt lat="37.432745983824134" lon="-8.65639298222959">
        <ele>285.64999999999998</ele>
        <time>2025-05-06T13:38:26Z</time>
      </trkpt>
      <trkpt lat="37.43269301019609" lon="-8.656382001936436">
        <ele>285.17000000000002</ele>
        <time>2025-05-06T13:38:27Z</time>
      </trkpt>
      <trkpt lat="37.432642970234156" lon="-8.656371021643281">
        <ele>284.69</ele>
        <time>2025-05-06T13:38:28Z</time>
      </trkpt>
      <trkpt lat="37.432488994672894" lon="-8.656360041350126">
        <ele>282.27999999999997</ele>
        <time>2025-05-06T13:38:36Z</time>
      </trkpt>
      <trkpt lat="37.432422023266554" lon="-8.656356018036604">
        <ele>280.83999999999997</ele>
        <time>2025-05-06T13:39:29Z</time>
      </trkpt>
      <trkpt lat="37.431956995278597" lon="-8.656328022480011">
        <ele>279.39999999999998</ele>
        <time>2025-05-06T13:39:34Z</time>
      </trkpt>
      <trkpt lat="37.431194996461272" lon="-8.656294997781515">
        <ele>277.95999999999998</ele>
        <time>2025-05-06T13:39:38Z</time>
      </trkpt>
      <trkpt lat="37.42936497554183" lon="-8.65624001249671">
        <ele>283.25</ele>
        <time>2025-05-06T13:39:46Z</time>
      </trkpt>
      <trkpt lat="37.428117999807" lon="-8.656302960589528">
        <ele>293.33999999999997</ele>
        <time>2025-05-06T13:39:51Z</time>
      </trkpt>
      <trkpt lat="37.427952960133553" lon="-8.656346965581179">
        <ele>294.77999999999997</ele>
        <time>2025-05-06T13:39:52Z</time>
      </trkpt>
      <trkpt lat="37.427779035642743" lon="-8.65647898055613">
        <ele>296.22000000000003</ele>
        <time>2025-05-06T13:39:53Z</time>
      </trkpt>
      <trkpt lat="37.427605027332902" lon="-8.656612001359463">
        <ele>297.18000000000001</ele>
        <time>2025-05-06T13:39:54Z</time>
      </trkpt>
      <trkpt lat="37.427454991266131" lon="-8.656760025769472">
        <ele>297.67000000000002</ele>
        <time>2025-05-06T13:39:55Z</time>
      </trkpt>
      <trkpt lat="37.427328005433083" lon="-8.65694803185761">
        <ele>297.67000000000002</ele>
        <time>2025-05-06T13:39:56Z</time>
      </trkpt>
      <trkpt lat="37.42719498462975" lon="-8.65714400075376">
        <ele>297.18000000000001</ele>
        <time>2025-05-06T13:39:57Z</time>
      </trkpt>
      <trkpt lat="37.427051989361644" lon="-8.657354973256588">
        <ele>296.69999999999999</ele>
        <time>2025-05-06T13:39:58Z</time>
      </trkpt>
      <trkpt lat="37.42693698965013" lon="-8.657568041235209">
        <ele>295.74000000000001</ele>
        <time>2025-05-06T13:39:59Z</time>
      </trkpt>
      <trkpt lat="37.425589011982083" lon="-8.660051012411714">
        <ele>279.39999999999998</ele>
        <time>2025-05-06T13:40:10Z</time>
      </trkpt>
      <trkpt lat="37.425326993688941" lon="-8.660463988780975">
        <ele>277.95999999999998</ele>
        <time>2025-05-06T13:40:13Z</time>
      </trkpt>
      <trkpt lat="37.425172012299299" lon="-8.660640008747578">
        <ele>277.95999999999998</ele>
        <time>2025-05-06T13:40:14Z</time>
      </trkpt>
      <trkpt lat="37.425000015646219" lon="-8.660789960995317">
        <ele>277.95999999999998</ele>
        <time>2025-05-06T13:40:15Z</time>
      </trkpt>
      <trkpt lat="37.424597013741732" lon="-8.661011997610331">
        <ele>278.44</ele>
        <time>2025-05-06T13:40:16Z</time>
      </trkpt>
      <trkpt lat="37.424375982955098" lon="-8.661079974845052">
        <ele>279.39999999999998</ele>
        <time>2025-05-06T13:40:17Z</time>
      </trkpt>
      <trkpt lat="37.424151012673974" lon="-8.661149963736534">
        <ele>279.88</ele>
        <time>2025-05-06T13:40:18Z</time>
      </trkpt>
      <trkpt lat="37.422541016712785" lon="-8.661272004246712">
        <ele>288.05000000000001</ele>
        <time>2025-05-06T13:40:25Z</time>
      </trkpt>
      <trkpt lat="37.42231504060328" lon="-8.6612259875983">
        <ele>289.97000000000003</ele>
        <time>2025-05-06T13:40:26Z</time>
      </trkpt>
      <trkpt lat="37.419798960909247" lon="-8.66055803373456">
        <ele>304.38999999999999</ele>
        <time>2025-05-06T13:40:37Z</time>
      </trkpt>
      <trkpt lat="37.41917903535068" lon="-8.660445967689157">
        <ele>305.83999999999997</ele>
        <time>2025-05-06T13:40:40Z</time>
      </trkpt>
      <trkpt lat="37.418969990685582" lon="-8.660426018759608">
        <ele>306.31999999999999</ele>
        <time>2025-05-06T13:40:41Z</time>
      </trkpt>
      <trkpt lat="37.418970996513963" lon="-8.660426018759608">
        <ele>306.31999999999999</ele>
        <time>2025-05-06T13:40:42Z</time>
      </trkpt>
      <trkpt lat="37.418774021789432" lon="-8.660463988780975">
        <ele>306.31999999999999</ele>
        <time>2025-05-06T13:40:43Z</time>
      </trkpt>
      <trkpt lat="37.418393986299634" lon="-8.660590974614024">
        <ele>305.83999999999997</ele>
        <time>2025-05-06T13:40:44Z</time>
      </trkpt>
      <trkpt lat="37.418198017403483" lon="-8.660705974325538">
        <ele>305.83999999999997</ele>
        <time>2025-05-06T13:40:45Z</time>
      </trkpt>
      <trkpt lat="37.418198017403483" lon="-8.660705974325538">
        <ele>305.36000000000001</ele>
        <time>2025-05-06T13:40:46Z</time>
      </trkpt>
      <trkpt lat="37.417987966910005" lon="-8.660829020664096">
        <ele>304.88</ele>
        <time>2025-05-06T13:40:47Z</time>
      </trkpt>
      <trkpt lat="37.416235981509089" lon="-8.662222009152174">
        <ele>302.94999999999999</ele>
        <time>2025-05-06T13:40:56Z</time>
      </trkpt>
      <trkpt lat="37.415783023461699" lon="-8.662624005228281">
        <ele>303.91000000000003</ele>
        <time>2025-05-06T13:40:59Z</time>
      </trkpt>
      <trkpt lat="37.415644973516464" lon="-8.662745961919427">
        <ele>303.91000000000003</ele>
        <time>2025-05-06T13:41:00Z</time>
      </trkpt>
      <trkpt lat="37.415509019047022" lon="-8.662878982722759">
        <ele>303.91000000000003</ele>
        <time>2025-05-06T13:41:01Z</time>
      </trkpt>
      <trkpt lat="37.41539997048676" lon="-8.663047039881349">
        <ele>303.91000000000003</ele>
        <time>2025-05-06T13:41:02Z</time>
      </trkpt>
      <trkpt lat="37.415295029059052" lon="-8.663207972422242">
        <ele>303.43000000000001</ele>
        <time>2025-05-06T13:41:03Z</time>
      </trkpt>
      <trkpt lat="37.415148010477424" lon="-8.663542997092009">
        <ele>302.47000000000003</ele>
        <time>2025-05-06T13:41:04Z</time>
      </trkpt>
      <trkpt lat="37.415084978565574" lon="-8.663706025108695">
        <ele>301.50999999999999</ele>
        <time>2025-05-06T13:41:05Z</time>
      </trkpt>
      <trkpt lat="37.415026975795627" lon="-8.66386704146862">
        <ele>300.55000000000001</ele>
        <time>2025-05-06T13:41:06Z</time>
      </trkpt>
      <trkpt lat="37.414984982460737" lon="-8.664035014808178">
        <ele>299.58999999999997</ele>
        <time>2025-05-06T13:41:07Z</time>
      </trkpt>
      <trkpt lat="37.414692034944892" lon="-8.665487011894584">
        <ele>290.94</ele>
        <time>2025-05-06T13:41:16Z</time>
      </trkpt>
      <trkpt lat="37.414692034944892" lon="-8.665690021589398">
        <ele>290.45999999999998</ele>
        <time>2025-05-06T13:41:17Z</time>
      </trkpt>
      <trkpt lat="37.414692034944892" lon="-8.665905017405748">
        <ele>289.97000000000003</ele>
        <time>2025-05-06T13:41:18Z</time>
      </trkpt>
      <trkpt lat="37.414692034944892" lon="-8.666126970201731">
        <ele>289.97000000000003</ele>
        <time>2025-05-06T13:41:19Z</time>
      </trkpt>
      <trkpt lat="37.41477400995791" lon="-8.666351018473506">
        <ele>289.97000000000003</ele>
        <time>2025-05-06T13:41:20Z</time>
      </trkpt>
      <trkpt lat="37.414855984970927" lon="-8.666568025946617">
        <ele>289.97000000000003</ele>
        <time>2025-05-06T13:41:21Z</time>
      </trkpt>
      <trkpt lat="37.414966961368918" lon="-8.666777992621064">
        <ele>289.97000000000003</ele>
        <time>2025-05-06T13:41:22Z</time>
      </trkpt>
      <trkpt lat="37.416076976805925" lon="-8.668601978570223">
        <ele>294.30000000000001</ele>
        <time>2025-05-06T13:41:31Z</time>
      </trkpt>
      <trkpt lat="37.416654992848635" lon="-8.670160006731749">
        <ele>291.42000000000002</ele>
        <time>2025-05-06T13:41:38Z</time>
      </trkpt>
      <trkpt lat="37.417132006958127" lon="-8.671446964144707">
        <ele>289.00999999999999</ele>
        <time>2025-05-06T13:41:43Z</time>
      </trkpt>
      <trkpt lat="37.417132006958127" lon="-8.671446964144707">
        <ele>288.05000000000001</ele>
        <time>2025-05-06T13:41:44Z</time>
      </trkpt>
      <trkpt lat="37.417250024154782" lon="-8.671603035181761">
        <ele>287.56999999999999</ele>
        <time>2025-05-06T13:41:45Z</time>
      </trkpt>
      <trkpt lat="37.417383966967463" lon="-8.671727003529668">
        <ele>287.56999999999999</ele>
        <time>2025-05-06T13:41:46Z</time>
      </trkpt>
      <trkpt lat="37.41752402856946" lon="-8.671843009069562">
        <ele>287.08999999999997</ele>
        <time>2025-05-06T13:41:47Z</time>
      </trkpt>
      <trkpt lat="37.418269012123346" lon="-8.672406021505594">
        <ele>286.13</ele>
        <time>2025-05-06T13:41:52Z</time>
      </trkpt>
      <trkpt lat="37.418494988232851" lon="-8.672708021476865">
        <ele>285.64999999999998</ele>
        <time>2025-05-06T13:41:53Z</time>
      </trkpt>
      <trkpt lat="37.418593978509307" lon="-8.672888986766338">
        <ele>285.64999999999998</ele>
        <time>2025-05-06T13:41:54Z</time>
      </trkpt>
      <trkpt lat="37.418695986270905" lon="-8.673072969540954">
        <ele>285.17000000000002</ele>
        <time>2025-05-06T13:41:55Z</time>
      </trkpt>
      <trkpt lat="37.418695986270905" lon="-8.673072969540954">
        <ele>284.69</ele>
        <time>2025-05-06T13:41:56Z</time>
      </trkpt>
      <trkpt lat="37.418766980990767" lon="-8.67327799089253">
        <ele>284.20999999999998</ele>
        <time>2025-05-06T13:41:57Z</time>
      </trkpt>
      <trkpt lat="37.418824983760715" lon="-8.673489969223738">
        <ele>283.73000000000002</ele>
        <time>2025-05-06T13:41:58Z</time>
      </trkpt>
      <trkpt lat="37.418876029551029" lon="-8.673924989998341">
        <ele>283.73000000000002</ele>
        <time>2025-05-06T13:41:59Z</time>
      </trkpt>
      <trkpt lat="37.418876029551029" lon="-8.673924989998341">
        <ele>283.25</ele>
        <time>2025-05-06T13:42:00Z</time>
      </trkpt>
      <trkpt lat="37.41887703537941" lon="-8.675552001222968">
        <ele>276.51999999999998</ele>
        <time>2025-05-06T13:42:07Z</time>
      </trkpt>
      <trkpt lat="37.418863959610462" lon="-8.67577102035284">
        <ele>275.56</ele>
        <time>2025-05-06T13:42:08Z</time>
      </trkpt>
      <trkpt lat="37.418768992647529" lon="-8.676151977851987">
        <ele>274.11000000000001</ele>
        <time>2025-05-06T13:42:09Z</time>
      </trkpt>
      <trkpt lat="37.418768992647529" lon="-8.676151977851987">
        <ele>273.14999999999998</ele>
        <time>2025-05-06T13:42:10Z</time>
      </trkpt>
      <trkpt lat="37.418699003756046" lon="-8.676326991990209">
        <ele>272.19</ele>
        <time>2025-05-06T13:42:11Z</time>
      </trkpt>
      <trkpt lat="37.418627003207803" lon="-8.676485996693373">
        <ele>270.75</ele>
        <time>2025-05-06T13:42:12Z</time>
      </trkpt>
      <trkpt lat="37.418498005717993" lon="-8.676602002233267">
        <ele>269.79000000000002</ele>
        <time>2025-05-06T13:42:13Z</time>
      </trkpt>
      <trkpt lat="37.418351992964745" lon="-8.676703004166484">
        <ele>269.31</ele>
        <time>2025-05-06T13:42:14Z</time>
      </trkpt>
      <trkpt lat="37.418184019625187" lon="-8.67678296752274">
        <ele>268.35000000000002</ele>
        <time>2025-05-06T13:42:15Z</time>
      </trkpt>
      <trkpt lat="37.41700803861022" lon="-8.677272973582149">
        <ele>270.75</ele>
        <time>2025-05-06T13:42:22Z</time>
      </trkpt>
      <trkpt lat="37.416893960908055" lon="-8.677354026585817">
        <ele>271.23000000000002</ele>
        <time>2025-05-06T13:42:23Z</time>
      </trkpt>
      <trkpt lat="37.416789019480348" lon="-8.677449999377132">
        <ele>272.19</ele>
        <time>2025-05-06T13:42:25Z</time>
      </trkpt>
      <trkpt lat="37.416612999513745" lon="-8.677699025720358">
        <ele>272.67000000000002</ele>
        <time>2025-05-06T13:42:26Z</time>
      </trkpt>
      <trkpt lat="37.416612999513745" lon="-8.677699025720358">
        <ele>273.14999999999998</ele>
        <time>2025-05-06T13:42:27Z</time>
      </trkpt>
      <trkpt lat="37.416430022567511" lon="-8.67798401042819">
        <ele>273.14999999999998</ele>
        <time>2025-05-06T13:42:28Z</time>
      </trkpt>
      <trkpt lat="37.416430022567511" lon="-8.67798401042819">
        <ele>272.67000000000002</ele>
        <time>2025-05-06T13:42:29Z</time>
      </trkpt>
      <trkpt lat="37.416228018701077" lon="-8.678230019286275">
        <ele>272.19</ele>
        <time>2025-05-06T13:42:30Z</time>
      </trkpt>
      <trkpt lat="37.416115030646324" lon="-8.67834996432066">
        <ele>271.70999999999998</ele>
        <time>2025-05-06T13:42:31Z</time>
      </trkpt>
      <trkpt lat="37.416115030646324" lon="-8.67834996432066">
        <ele>271.23000000000002</ele>
        <time>2025-05-06T13:42:32Z</time>
      </trkpt>
      <trkpt lat="37.415724014863372" lon="-8.67864903062582">
        <ele>267.38</ele>
        <time>2025-05-06T13:42:35Z</time>
      </trkpt>
      <trkpt lat="37.415585964918137" lon="-8.67871499620378">
        <ele>265.94</ele>
        <time>2025-05-06T13:42:36Z</time>
      </trkpt>
      <trkpt lat="37.415327969938517" lon="-8.678809963166714">
        <ele>264.5</ele>
        <time>2025-05-06T13:42:37Z</time>
      </trkpt>
      <trkpt lat="37.415327969938517" lon="-8.678809963166714">
        <ele>262.57999999999998</ele>
        <time>2025-05-06T13:42:38Z</time>
      </trkpt>
      <trkpt lat="37.415191009640694" lon="-8.678803006187081">
        <ele>261.13999999999999</ele>
        <time>2025-05-06T13:42:39Z</time>
      </trkpt>
      <trkpt lat="37.414935026317835" lon="-8.678770987316966">
        <ele>259.20999999999998</ele>
        <time>2025-05-06T13:42:40Z</time>
      </trkpt>
      <trkpt lat="37.414814997464418" lon="-8.678725976496935">
        <ele>257.76999999999998</ele>
        <time>2025-05-06T13:42:41Z</time>
      </trkpt>
      <trkpt lat="37.414814997464418" lon="-8.678725976496935">
        <ele>256.32999999999998</ele>
        <time>2025-05-06T13:42:42Z</time>
      </trkpt>
      <trkpt lat="37.414583992213011" lon="-8.678640983998776">
        <ele>253.44</ele>
        <time>2025-05-06T13:42:44Z</time>
      </trkpt>
      <trkpt lat="37.41447301581502" lon="-8.678598990663886">
        <ele>251.52000000000001</ele>
        <time>2025-05-06T13:42:45Z</time>
      </trkpt>
      <trkpt lat="37.414351981133223" lon="-8.678582981228828">
        <ele>250.08000000000001</ele>
        <time>2025-05-06T13:42:46Z</time>
      </trkpt>
      <trkpt lat="37.414090968668461" lon="-8.678654981777072">
        <ele>248.63999999999999</ele>
        <time>2025-05-06T13:42:47Z</time>
      </trkpt>
      <trkpt lat="37.413956020027399" lon="-8.678726982325316">
        <ele>246.72</ele>
        <time>2025-05-06T13:42:48Z</time>
      </trkpt>
      <trkpt lat="37.413817970082164" lon="-8.67879998870194">
        <ele>245.27000000000001</ele>
        <time>2025-05-06T13:42:49Z</time>
      </trkpt>
      <trkpt lat="37.413012972101569" lon="-8.67927398532629">
        <ele>232.78</ele>
        <time>2025-05-06T13:42:56Z</time>
      </trkpt>
      <trkpt lat="37.412896966561675" lon="-8.679298963397741">
        <ele>230.84999999999999</ele>
        <time>2025-05-06T13:42:57Z</time>
      </trkpt>
      <trkpt lat="37.412792025133967" lon="-8.679321007803083">
        <ele>229.41</ele>
        <time>2025-05-06T13:42:58Z</time>
      </trkpt>
      <trkpt lat="37.412705020979047" lon="-8.679321007803083">
        <ele>227.97</ele>
        <time>2025-05-06T13:42:59Z</time>
      </trkpt>
      <trkpt lat="37.412631008774042" lon="-8.679312039166689">
        <ele>226.05000000000001</ele>
        <time>2025-05-06T13:43:00Z</time>
      </trkpt>
      <trkpt lat="37.41256202571094" lon="-8.679302986711264">
        <ele>224.61000000000001</ele>
        <time>2025-05-06T13:43:01Z</time>
      </trkpt>
      <trkpt lat="37.412482984364033" lon="-8.67929401807487">
        <ele>223.16</ele>
        <time>2025-05-06T13:43:02Z</time>
      </trkpt>
      <trkpt lat="37.412262037396431" lon="-8.679252024739981">
        <ele>217.88</ele>
        <time>2025-05-06T13:43:05Z</time>
      </trkpt>
      <trkpt lat="37.412194982171059" lon="-8.679238026961684">
        <ele>216.43000000000001</ele>
        <time>2025-05-06T13:43:06Z</time>
      </trkpt>
      <trkpt lat="37.412057016044855" lon="-8.679209025576711">
        <ele>213.06999999999999</ele>
        <time>2025-05-06T13:43:08Z</time>
      </trkpt>
      <trkpt lat="37.411052025854588" lon="-8.678919011726975">
        <ele>196.25</ele>
        <time>2025-05-06T13:43:23Z</time>
      </trkpt>
      <trkpt lat="37.410765029489994" lon="-8.678792025893927">
        <ele>187.59</ele>
        <time>2025-05-06T13:43:33Z</time>
      </trkpt>
      <trkpt lat="37.410361021757126" lon="-8.67860896512866">
        <ele>182.31</ele>
        <time>2025-05-06T13:43:41Z</time>
      </trkpt>
      <trkpt lat="37.410194976255298" lon="-8.678507963195443">
        <ele>178.46000000000001</ele>
        <time>2025-05-06T13:43:50Z</time>
      </trkpt>
      <trkpt lat="37.410194976255298" lon="-8.678507963195443">
        <ele>178.46000000000001</ele>
        <time>2025-05-06T13:44:10Z</time>
      </trkpt>
      <trkpt lat="37.410194976255298" lon="-8.678507963195443">
        <ele>177.97999999999999</ele>
        <time>2025-05-06T13:45:10Z</time>
      </trkpt>
      <trkpt lat="37.410194976255298" lon="-8.678507963195443">
        <ele>177.97999999999999</ele>
        <time>2025-05-06T13:45:57Z</time>
      </trkpt>
      <trkpt lat="37.410011999309063" lon="-8.678396986797452">
        <ele>178.46000000000001</ele>
        <time>2025-05-06T13:46:07Z</time>
      </trkpt>
      <trkpt lat="37.409270033240318" lon="-8.677990967407823">
        <ele>175.09999999999999</ele>
        <time>2025-05-06T13:46:13Z</time>
      </trkpt>
      <trkpt lat="37.408368978649378" lon="-8.677699025720358">
        <ele>169.81</ele>
        <time>2025-05-06T13:46:18Z</time>
      </trkpt>
      <trkpt lat="37.408176027238369" lon="-8.677715035155416">
        <ele>168.37</ele>
        <time>2025-05-06T13:46:19Z</time>
      </trkpt>
      <trkpt lat="37.407648973166943" lon="-8.67776901461184">
        <ele>165.47999999999999</ele>
        <time>2025-05-06T13:46:21Z</time>
      </trkpt>
      <trkpt lat="37.407464990392327" lon="-8.677779994904995">
        <ele>164.03999999999999</ele>
        <time>2025-05-06T13:46:22Z</time>
      </trkpt>
      <trkpt lat="37.406641971319914" lon="-8.677677987143397">
        <ele>156.83000000000001</ele>
        <time>2025-05-06T13:46:27Z</time>
      </trkpt>
      <trkpt lat="37.40639504045248" lon="-8.677563993260264">
        <ele>153.47</ele>
        <time>2025-05-06T13:46:29Z</time>
      </trkpt>
      <trkpt lat="37.406173003837466" lon="-8.677460979670286">
        <ele>150.09999999999999</ele>
        <time>2025-05-06T13:46:31Z</time>
      </trkpt>
      <trkpt lat="37.406046018004417" lon="-8.677448993548751">
        <ele>148.18000000000001</ele>
        <time>2025-05-06T13:46:32Z</time>
      </trkpt>
      <trkpt lat="37.405929006636143" lon="-8.677460979670286">
        <ele>146.25999999999999</ele>
        <time>2025-05-06T13:46:33Z</time>
      </trkpt>
      <trkpt lat="37.405825993046165" lon="-8.677534991875291">
        <ele>144.34</ele>
        <time>2025-05-06T13:46:34Z</time>
      </trkpt>
      <trkpt lat="37.405731026083231" lon="-8.677629036828876">
        <ele>142.88999999999999</ele>
        <time>2025-05-06T13:46:35Z</time>
      </trkpt>
      <trkpt lat="37.405633041635156" lon="-8.677732972428203">
        <ele>141.44999999999999</ele>
        <time>2025-05-06T13:46:36Z</time>
      </trkpt>
      <trkpt lat="37.405530028045177" lon="-8.677843026816845">
        <ele>139.53</ele>
        <time>2025-05-06T13:46:37Z</time>
      </trkpt>
      <trkpt lat="37.405405975878239" lon="-8.677943022921681">
        <ele>138.09</ele>
        <time>2025-05-06T13:46:38Z</time>
      </trkpt>
      <trkpt lat="37.405260968953371" lon="-8.678021980449557">
        <ele>136.63999999999999</ele>
        <time>2025-05-06T13:46:39Z</time>
      </trkpt>
      <trkpt lat="37.405100958421826" lon="-8.678080989047885">
        <ele>134.72</ele>
        <time>2025-05-06T13:46:40Z</time>
      </trkpt>
      <trkpt lat="37.404928961768746" lon="-8.678119964897633">
        <ele>132.80000000000001</ele>
        <time>2025-05-06T13:46:41Z</time>
      </trkpt>
      <trkpt lat="37.404746990650892" lon="-8.678161958232522">
        <ele>130.88</ele>
        <time>2025-05-06T13:46:42Z</time>
      </trkpt>
      <trkpt lat="37.404037965461612" lon="-8.678406039252877">
        <ele>122.70999999999999</ele>
        <time>2025-05-06T13:46:46Z</time>
      </trkpt>
      <trkpt lat="37.403874015435576" lon="-8.678492037579417">
        <ele>120.78</ele>
        <time>2025-05-06T13:46:47Z</time>
      </trkpt>
      <trkpt lat="37.403545025736094" lon="-8.678665040060878">
        <ele>116.45999999999999</ele>
        <time>2025-05-06T13:46:49Z</time>
      </trkpt>
      <trkpt lat="37.403385015204549" lon="-8.678733017295599">
        <ele>114.53</ele>
        <time>2025-05-06T13:46:50Z</time>
      </trkpt>
      <trkpt lat="37.40321796387434" lon="-8.678754977881908">
        <ele>112.13</ele>
        <time>2025-05-06T13:46:51Z</time>
      </trkpt>
      <trkpt lat="37.402568031102419" lon="-8.678891016170383">
        <ele>104.44</ele>
        <time>2025-05-06T13:46:55Z</time>
      </trkpt>
      <trkpt lat="37.402431992813945" lon="-8.679002998396754">
        <ele>102.52</ele>
        <time>2025-05-06T13:46:56Z</time>
      </trkpt>
      <trkpt lat="37.402299977838993" lon="-8.679134007543325">
        <ele>100.59999999999999</ele>
        <time>2025-05-06T13:46:57Z</time>
      </trkpt>
      <trkpt lat="37.402173997834325" lon="-8.679296029731631">
        <ele>98.189999999999998</ele>
        <time>2025-05-06T13:46:58Z</time>
      </trkpt>
      <trkpt lat="37.402046006172895" lon="-8.679460985586047">
        <ele>95.310000000000002</ele>
        <time>2025-05-06T13:46:59Z</time>
      </trkpt>
      <trkpt lat="37.401918014511466" lon="-8.679627031087875">
        <ele>92.420000000000002</ele>
        <time>2025-05-06T13:47:00Z</time>
      </trkpt>
      <trkpt lat="37.401787005364895" lon="-8.679775977507234">
        <ele>90.019999999999996</ele>
        <time>2025-05-06T13:47:01Z</time>
      </trkpt>
      <trkpt lat="37.401635041460395" lon="-8.67987203411758">
        <ele>88.099999999999994</ele>
        <time>2025-05-06T13:47:02Z</time>
      </trkpt>
      <trkpt lat="37.401483999565244" lon="-8.679968006908894">
        <ele>85.689999999999998</ele>
        <time>2025-05-06T13:47:03Z</time>
      </trkpt>
      <trkpt lat="37.401315020397305" lon="-8.680029027163982">
        <ele>83.769999999999996</ele>
        <time>2025-05-06T13:47:04Z</time>
      </trkpt>
      <trkpt lat="37.401131959632039" lon="-8.680058028548956">
        <ele>81.849999999999994</ele>
        <time>2025-05-06T13:47:05Z</time>
      </trkpt>
      <trkpt lat="37.400944037362933" lon="-8.680087029933929">
        <ele>79.930000000000007</ele>
        <time>2025-05-06T13:47:06Z</time>
      </trkpt>
      <trkpt lat="37.399200014770031" lon="-8.680243017151952">
        <ele>62.140000000000001</ele>
        <time>2025-05-06T13:47:16Z</time>
      </trkpt>
      <trkpt lat="37.398731969296932" lon="-8.680215021595359">
        <ele>59.259999999999998</ele>
        <time>2025-05-06T13:47:18Z</time>
      </trkpt>
      <trkpt lat="37.398615041747689" lon="-8.680160958319902">
        <ele>57.82</ele>
        <time>2025-05-06T13:47:19Z</time>
      </trkpt>
      <trkpt lat="37.39851001650095" lon="-8.68006699718535">
        <ele>56.369999999999997</ele>
        <time>2025-05-06T13:47:20Z</time>
      </trkpt>
      <trkpt lat="37.398402979597449" lon="-8.67996197193861">
        <ele>55.409999999999997</ele>
        <time>2025-05-06T13:47:21Z</time>
      </trkpt>
      <trkpt lat="37.398304995149374" lon="-8.679833980277181">
        <ele>54.450000000000003</ele>
        <time>2025-05-06T13:47:22Z</time>
      </trkpt>
      <trkpt lat="37.39821002818644" lon="-8.679709006100893">
        <ele>53.490000000000002</ele>
        <time>2025-05-06T13:47:23Z</time>
      </trkpt>
      <trkpt lat="37.397838039323688" lon="-8.679232997819781">
        <ele>50.609999999999999</ele>
        <time>2025-05-06T13:47:28Z</time>
      </trkpt>
      <trkpt lat="37.397810965776443" lon="-8.679076004773378">
        <ele>49.649999999999999</ele>
        <time>2025-05-06T13:47:30Z</time>
      </trkpt>
      <trkpt lat="37.397854970768094" lon="-8.679023031145334">
        <ele>49.649999999999999</ele>
        <time>2025-05-06T13:47:31Z</time>
      </trkpt>
      <trkpt lat="37.397915991023183" lon="-8.67895002476871">
        <ele>49.159999999999997</ele>
        <time>2025-05-06T13:47:32Z</time>
      </trkpt>
      <trkpt lat="37.397998971864581" lon="-8.678850028663874">
        <ele>49.159999999999997</ele>
        <time>2025-05-06T13:47:33Z</time>
      </trkpt>
      <trkpt lat="37.398097962141037" lon="-8.678732011467218">
        <ele>49.159999999999997</ele>
        <time>2025-05-06T13:47:34Z</time>
      </trkpt>
      <trkpt lat="37.398883011192083" lon="-8.67781100794673">
        <ele>56.369999999999997</ele>
        <time>2025-05-06T13:47:41Z</time>
      </trkpt>
      <trkpt lat="37.399133965373039" lon="-8.67744698189199">
        <ele>59.259999999999998</ele>
        <time>2025-05-06T13:47:43Z</time>
      </trkpt>
      <trkpt lat="37.399256005883217" lon="-8.677259981632233">
        <ele>60.700000000000003</ele>
        <time>2025-05-06T13:47:44Z</time>
      </trkpt>
      <trkpt lat="37.399346027523279" lon="-8.67705998942256">
        <ele>62.619999999999997</ele>
        <time>2025-05-06T13:47:45Z</time>
      </trkpt>
      <trkpt lat="37.399416016414762" lon="-8.676902996376157">
        <ele>63.579999999999998</ele>
        <time>2025-05-06T13:47:46Z</time>
      </trkpt>
      <trkpt lat="37.399426996707916" lon="-8.67678296752274">
        <ele>64.549999999999997</ele>
        <time>2025-05-06T13:47:47Z</time>
      </trkpt>
      <trkpt lat="37.399414004758" lon="-8.676666961982846">
        <ele>65.510000000000005</ele>
        <time>2025-05-06T13:47:48Z</time>
      </trkpt>
      <trkpt lat="37.399379974231124" lon="-8.676598984748125">
        <ele>66.469999999999999</ele>
        <time>2025-05-06T13:47:49Z</time>
      </trkpt>
      <trkpt lat="37.399324988946319" lon="-8.676490020006895">
        <ele>66.950000000000003</ele>
        <time>2025-05-06T13:47:50Z</time>
      </trkpt>
      <trkpt lat="37.399257011711597" lon="-8.676363034173846">
        <ele>67.909999999999997</ele>
        <time>2025-05-06T13:47:51Z</time>
      </trkpt>
      <trkpt lat="37.398711014539003" lon="-8.675298029556871">
        <ele>74.640000000000001</ele>
        <time>2025-05-06T13:47:57Z</time>
      </trkpt>
      <trkpt lat="37.398648988455534" lon="-8.675098959356546">
        <ele>75.599999999999994</ele>
        <time>2025-05-06T13:47:58Z</time>
      </trkpt>
      <trkpt lat="37.398499958217144" lon="-8.674537958577275">
        <ele>76.560000000000002</ele>
        <time>2025-05-06T13:48:01Z</time>
      </trkpt>
      <trkpt lat="37.398433992639184" lon="-8.674368979409337">
        <ele>76.560000000000002</ele>
        <time>2025-05-06T13:48:02Z</time>
      </trkpt>
      <trkpt lat="37.398366015404463" lon="-8.674212992191315">
        <ele>76.560000000000002</ele>
        <time>2025-05-06T13:48:03Z</time>
      </trkpt>
      <trkpt lat="37.398273982107639" lon="-8.674101009964943">
        <ele>76.079999999999998</ele>
        <time>2025-05-06T13:48:04Z</time>
      </trkpt>
      <trkpt lat="37.39816602319479" lon="-8.674005959182978">
        <ele>75.599999999999994</ele>
        <time>2025-05-06T13:48:05Z</time>
      </trkpt>
      <trkpt lat="37.397953039035201" lon="-8.673805966973305">
        <ele>74.159999999999997</ele>
        <time>2025-05-06T13:48:07Z</time>
      </trkpt>
      <trkpt lat="37.397856982424855" lon="-8.67370898835361">
        <ele>73.680000000000007</ele>
        <time>2025-05-06T13:48:08Z</time>
      </trkpt>
      <trkpt lat="37.397784981876612" lon="-8.673601029440761">
        <ele>73.680000000000007</ele>
        <time>2025-05-06T13:48:09Z</time>
      </trkpt>
      <trkpt lat="37.397770984098315" lon="-8.673472031950951">
        <ele>73.200000000000003</ele>
        <time>2025-05-06T13:48:10Z</time>
      </trkpt>
      <trkpt lat="37.397775007411838" lon="-8.67334496229887">
        <ele>72.719999999999999</ele>
        <time>2025-05-06T13:48:11Z</time>
      </trkpt>
      <trkpt lat="37.39782202988863" lon="-8.673201967030764">
        <ele>72.719999999999999</ele>
        <time>2025-05-06T13:48:12Z</time>
      </trkpt>
      <trkpt lat="37.398141967132688" lon="-8.672009976580739">
        <ele>76.560000000000002</ele>
        <time>2025-05-06T13:48:18Z</time>
      </trkpt>
      <trkpt lat="37.398165017366409" lon="-8.67177302017808">
        <ele>78</ele>
        <time>2025-05-06T13:48:19Z</time>
      </trkpt>
      <trkpt lat="37.39818898960948" lon="-8.67153799161315">
        <ele>78.969999999999999</ele>
        <time>2025-05-06T13:48:20Z</time>
      </trkpt>
      <trkpt lat="37.398174991831183" lon="-8.67130296304822">
        <ele>79.930000000000007</ele>
        <time>2025-05-06T13:48:21Z</time>
      </trkpt>
      <trkpt lat="37.398039037361741" lon="-8.669892959296703">
        <ele>81.849999999999994</ele>
        <time>2025-05-06T13:48:27Z</time>
      </trkpt>
      <trkpt lat="37.398012969642878" lon="-8.66967000067234">
        <ele>81.370000000000005</ele>
        <time>2025-05-06T13:48:28Z</time>
      </trkpt>
      <trkpt lat="37.3980169929564" lon="-8.669451987370849">
        <ele>81.370000000000005</ele>
        <time>2025-05-06T13:48:29Z</time>
      </trkpt>
      <trkpt lat="37.398105002939701" lon="-8.669028030708432">
        <ele>80.890000000000001</ele>
        <time>2025-05-06T13:48:31Z</time>
      </trkpt>
      <trkpt lat="37.398303989320993" lon="-8.668411960825324">
        <ele>79.930000000000007</ele>
        <time>2025-05-06T13:48:34Z</time>
      </trkpt>
      <trkpt lat="37.39838495850563" lon="-8.668240970000625">
        <ele>79.450000000000003</ele>
        <time>2025-05-06T13:48:35Z</time>
      </trkpt>
      <trkpt lat="37.399251982569695" lon="-8.666920987889171">
        <ele>78.969999999999999</ele>
        <time>2025-05-06T13:48:42Z</time>
      </trkpt>
      <trkpt lat="37.399675017222762" lon="-8.666137028485537">
        <ele>79.930000000000007</ele>
        <time>2025-05-06T13:48:46Z</time>
      </trkpt>
      <trkpt lat="37.399753974750638" lon="-8.665968971326947">
        <ele>79.930000000000007</ele>
        <time>2025-05-06T13:48:47Z</time>
      </trkpt>
      <trkpt lat="37.399794040247798" lon="-8.66575799882412">
        <ele>79.930000000000007</ele>
        <time>2025-05-06T13:48:48Z</time>
      </trkpt>
      <trkpt lat="37.399813989177346" lon="-8.665549959987402">
        <ele>80.409999999999997</ele>
        <time>2025-05-06T13:48:49Z</time>
      </trkpt>
      <trkpt lat="37.399822035804391" lon="-8.665336975827813">
        <ele>80.409999999999997</ele>
        <time>2025-05-06T13:48:50Z</time>
      </trkpt>
      <trkpt lat="37.399822035804391" lon="-8.66513597778976">
        <ele>80.890000000000001</ele>
        <time>2025-05-06T13:48:51Z</time>
      </trkpt>
      <trkpt lat="37.399822035804391" lon="-8.664950989186764">
        <ele>80.890000000000001</ele>
        <time>2025-05-06T13:48:52Z</time>
      </trkpt>
      <trkpt lat="37.39978096447885" lon="-8.664738005027175">
        <ele>81.370000000000005</ele>
        <time>2025-05-06T13:48:53Z</time>
      </trkpt>
      <trkpt lat="37.399738971143961" lon="-8.664518985897303">
        <ele>81.849999999999994</ele>
        <time>2025-05-06T13:48:54Z</time>
      </trkpt>
      <trkpt lat="37.399569991976023" lon="-8.663836028426886">
        <ele>82.810000000000002</ele>
        <time>2025-05-06T13:48:57Z</time>
      </trkpt>
      <trkpt lat="37.399496985599399" lon="-8.663621032610536">
        <ele>83.290000000000006</ele>
        <time>2025-05-06T13:48:58Z</time>
      </trkpt>
      <trkpt lat="37.399407969787717" lon="-8.663412993773818">
        <ele>83.290000000000006</ele>
        <time>2025-05-06T13:48:59Z</time>
      </trkpt>
      <trkpt lat="37.399303028360009" lon="-8.663211995735765">
        <ele>83.290000000000006</ele>
        <time>2025-05-06T13:49:00Z</time>
      </trkpt>
      <trkpt lat="37.399171013385057" lon="-8.663028012961149">
        <ele>83.290000000000006</ele>
        <time>2025-05-06T13:49:01Z</time>
      </trkpt>
      <trkpt lat="37.399038998410106" lon="-8.662843024358153">
        <ele>83.290000000000006</ele>
        <time>2025-05-06T13:49:02Z</time>
      </trkpt>
      <trkpt lat="37.398885022848845" lon="-8.66268502548337">
        <ele>82.810000000000002</ele>
        <time>2025-05-06T13:49:03Z</time>
      </trkpt>
      <trkpt lat="37.3987250123173" lon="-8.662525014951825">
        <ele>82.810000000000002</ele>
        <time>2025-05-06T13:49:04Z</time>
      </trkpt>
      <trkpt lat="37.397580966353416" lon="-8.661442995071411">
        <ele>81.370000000000005</ele>
        <time>2025-05-06T13:49:11Z</time>
      </trkpt>
      <trkpt lat="37.397406036034226" lon="-8.661299999803305">
        <ele>80.890000000000001</ele>
        <time>2025-05-06T13:49:12Z</time>
      </trkpt>
      <trkpt lat="37.397250970825553" lon="-8.661129008978605">
        <ele>80.890000000000001</ele>
        <time>2025-05-06T13:49:13Z</time>
      </trkpt>
      <trkpt lat="37.396864984184504" lon="-8.660596003755927">
        <ele>80.890000000000001</ele>
        <time>2025-05-06T13:49:16Z</time>
      </trkpt>
      <trkpt lat="37.396753001958132" lon="-8.660444961860776">
        <ele>80.409999999999997</ele>
        <time>2025-05-06T13:49:17Z</time>
      </trkpt>
      <trkpt lat="37.396625010296702" lon="-8.660300960764289">
        <ele>80.409999999999997</ele>
        <time>2025-05-06T13:49:18Z</time>
      </trkpt>
      <trkpt lat="37.39646902307868" lon="-8.660196019336581">
        <ele>80.409999999999997</ele>
        <time>2025-05-06T13:49:19Z</time>
      </trkpt>
      <trkpt lat="37.396295014768839" lon="-8.660109015181661">
        <ele>79.930000000000007</ele>
        <time>2025-05-06T13:49:20Z</time>
      </trkpt>
      <trkpt lat="37.394725000485778" lon="-8.659305023029447">
        <ele>78</ele>
        <time>2025-05-06T13:49:28Z</time>
      </trkpt>
      <trkpt lat="37.394378995522857" lon="-8.659077035263181">
        <ele>78</ele>
        <time>2025-05-06T13:49:30Z</time>
      </trkpt>
      <trkpt lat="37.394099961966276" lon="-8.658804958686233">
        <ele>78.480000000000004</ele>
        <time>2025-05-06T13:49:32Z</time>
      </trkpt>
      <trkpt lat="37.393811959773302" lon="-8.658241024240851">
        <ele>79.450000000000003</ele>
        <time>2025-05-06T13:49:35Z</time>
      </trkpt>
      <trkpt lat="37.393724033609033" lon="-8.6580899823457">
        <ele>79.930000000000007</ele>
        <time>2025-05-06T13:49:36Z</time>
      </trkpt>
      <trkpt lat="37.393596963956952" lon="-8.658004989847541">
        <ele>79.930000000000007</ele>
        <time>2025-05-06T13:49:37Z</time>
      </trkpt>
      <trkpt lat="37.392930015921593" lon="-8.657672982662916">
        <ele>81.849999999999994</ele>
        <time>2025-05-06T13:49:41Z</time>
      </trkpt>
      <trkpt lat="37.392375972121954" lon="-8.657526969909668">
        <ele>83.769999999999996</ele>
        <time>2025-05-06T13:49:44Z</time>
      </trkpt>
      <trkpt lat="37.392201041802764" lon="-8.657526969909668">
        <ele>84.25</ele>
        <time>2025-05-06T13:49:45Z</time>
      </trkpt>
      <trkpt lat="37.392024016007781" lon="-8.65753099322319">
        <ele>85.209999999999994</ele>
        <time>2025-05-06T13:49:46Z</time>
      </trkpt>
      <trkpt lat="37.391556976363063" lon="-8.657721010968089">
        <ele>88.099999999999994</ele>
        <time>2025-05-06T13:49:49Z</time>
      </trkpt>
      <trkpt lat="37.391432002186775" lon="-8.657763004302979">
        <ele>89.060000000000002</ele>
        <time>2025-05-06T13:49:50Z</time>
      </trkpt>
      <trkpt lat="37.391290012747049" lon="-8.657740959897637">
        <ele>89.540000000000006</ele>
        <time>2025-05-06T13:49:51Z</time>
      </trkpt>
      <trkpt lat="37.391152968630195" lon="-8.657720005139709">
        <ele>90.019999999999996</ele>
        <time>2025-05-06T13:49:52Z</time>
      </trkpt>
      <trkpt lat="37.391046015545726" lon="-8.657630989328027">
        <ele>90.5</ele>
        <time>2025-05-06T13:49:53Z</time>
      </trkpt>
      <trkpt lat="37.390952976420522" lon="-8.65748799405992">
        <ele>90.980000000000004</ele>
        <time>2025-05-06T13:49:54Z</time>
      </trkpt>
      <trkpt lat="37.390851974487305" lon="-8.657311974093318">
        <ele>90.980000000000004</ele>
        <time>2025-05-06T13:49:55Z</time>
      </trkpt>
      <trkpt lat="37.390781985595822" lon="-8.657107958570123">
        <ele>90.980000000000004</ele>
        <time>2025-05-06T13:49:56Z</time>
      </trkpt>
      <trkpt lat="37.39071199670434" lon="-8.65690796636045">
        <ele>90.980000000000004</ele>
        <time>2025-05-06T13:49:57Z</time>
      </trkpt>
      <trkpt lat="37.390645025297999" lon="-8.656722977757454">
        <ele>90.019999999999996</ele>
        <time>2025-05-06T13:49:58Z</time>
      </trkpt>
      <trkpt lat="37.390571013092995" lon="-8.656561961397529">
        <ele>89.540000000000006</ele>
        <time>2025-05-06T13:49:59Z</time>
      </trkpt>
      <trkpt lat="37.390490965917706" lon="-8.65643598139286">
        <ele>88.579999999999998</ele>
        <time>2025-05-06T13:50:00Z</time>
      </trkpt>
      <trkpt lat="37.390395998954773" lon="-8.656374039128423">
        <ele>88.099999999999994</ele>
        <time>2025-05-06T13:50:01Z</time>
      </trkpt>
      <trkpt lat="37.390288962051272" lon="-8.656337996944785">
        <ele>87.140000000000001</ele>
        <time>2025-05-06T13:50:02Z</time>
      </trkpt>
      <trkpt lat="37.390161976218224" lon="-8.656304972246289">
        <ele>86.180000000000007</ele>
        <time>2025-05-06T13:50:03Z</time>
      </trkpt>
      <trkpt lat="37.38875599578023" lon="-8.656325004994869">
        <ele>78</ele>
        <time>2025-05-06T13:50:12Z</time>
      </trkpt>
      <trkpt lat="37.388599002733827" lon="-8.656307989731431">
        <ele>77.519999999999996</ele>
        <time>2025-05-06T13:50:13Z</time>
      </trkpt>
      <trkpt lat="37.38753299228847" lon="-8.655857965350151">
        <ele>73.680000000000007</ele>
        <time>2025-05-06T13:50:20Z</time>
      </trkpt>
      <trkpt lat="37.387405000627041" lon="-8.655797028914094">
        <ele>73.200000000000003</ele>
        <time>2025-05-06T13:50:21Z</time>
      </trkpt>
      <trkpt lat="37.386718019843102" lon="-8.655449012294412">
        <ele>75.120000000000005</ele>
        <time>2025-05-06T13:50:29Z</time>
      </trkpt>
      <trkpt lat="37.386620035395026" lon="-8.655399978160858">
        <ele>75.599999999999994</ele>
        <time>2025-05-06T13:50:31Z</time>
      </trkpt>
      <trkpt lat="37.386562032625079" lon="-8.655370976775885">
        <ele>76.560000000000002</ele>
        <time>2025-05-06T13:50:33Z</time>
      </trkpt>
      <trkpt lat="37.386510986834764" lon="-8.655437026172876">
        <ele>77.040000000000006</ele>
        <time>2025-05-06T13:50:34Z</time>
      </trkpt>
      <trkpt lat="37.386517021805048" lon="-8.655483964830637">
        <ele>77.519999999999996</ele>
        <time>2025-05-06T13:50:35Z</time>
      </trkpt>
      <trkpt lat="37.38654401153326" lon="-8.655534004792571">
        <ele>78</ele>
        <time>2025-05-06T13:50:36Z</time>
      </trkpt>
      <trkpt lat="37.386580975726247" lon="-8.655600976198912">
        <ele>78.480000000000004</ele>
        <time>2025-05-06T13:50:37Z</time>
      </trkpt>
      <trkpt lat="37.386627998203039" lon="-8.655683035030961">
        <ele>79.450000000000003</ele>
        <time>2025-05-06T13:50:38Z</time>
      </trkpt>
      <trkpt lat="37.386682983487844" lon="-8.655781019479036">
        <ele>80.409999999999997</ele>
        <time>2025-05-06T13:50:39Z</time>
      </trkpt>
      <trkpt lat="37.386796977370977" lon="-8.655984029173851">
        <ele>80.890000000000001</ele>
        <time>2025-05-06T13:50:40Z</time>
      </trkpt>
      <trkpt lat="37.386796977370977" lon="-8.655984029173851">
        <ele>81.849999999999994</ele>
        <time>2025-05-06T13:50:41Z</time>
      </trkpt>
      <trkpt lat="37.38682203926146" lon="-8.656114032492042">
        <ele>82.329999999999998</ele>
        <time>2025-05-06T13:50:42Z</time>
      </trkpt>
      <trkpt lat="37.386849028989673" lon="-8.656258033588529">
        <ele>82.810000000000002</ele>
        <time>2025-05-06T13:50:43Z</time>
      </trkpt>
      <trkpt lat="37.386956987902522" lon="-8.657152969390154">
        <ele>84.25</ele>
        <time>2025-05-06T13:50:48Z</time>
      </trkpt>
      <trkpt lat="37.386977020651102" lon="-8.657329995185137">
        <ele>83.769999999999996</ele>
        <time>2025-05-06T13:50:49Z</time>
      </trkpt>
      <trkpt lat="37.386980960145593" lon="-8.65750702098012">
        <ele>83.769999999999996</ele>
        <time>2025-05-06T13:50:50Z</time>
      </trkpt>
      <trkpt lat="37.386956987902522" lon="-8.657687986269593">
        <ele>83.769999999999996</ele>
        <time>2025-05-06T13:50:51Z</time>
      </trkpt>
      <trkpt lat="37.38690996542573" lon="-8.657855037599802">
        <ele>83.769999999999996</ele>
        <time>2025-05-06T13:50:52Z</time>
      </trkpt>
      <trkpt lat="37.386861015111208" lon="-8.657978000119329">
        <ele>83.769999999999996</ele>
        <time>2025-05-06T13:50:53Z</time>
      </trkpt>
      <trkpt lat="37.386741992086172" lon="-8.658103980123997">
        <ele>83.290000000000006</ele>
        <time>2025-05-06T13:50:54Z</time>
      </trkpt>
      <trkpt lat="37.38662900403142" lon="-8.658225014805794">
        <ele>82.810000000000002</ele>
        <time>2025-05-06T13:50:55Z</time>
      </trkpt>
      <trkpt lat="37.386505035683513" lon="-8.658350994810462">
        <ele>82.329999999999998</ele>
        <time>2025-05-06T13:50:56Z</time>
      </trkpt>
      <trkpt lat="37.385842027142644" lon="-8.658809987828136">
        <ele>81.370000000000005</ele>
        <time>2025-05-06T13:51:00Z</time>
      </trkpt>
      <trkpt lat="37.385677993297577" lon="-8.658922975882888">
        <ele>81.370000000000005</ele>
        <time>2025-05-06T13:51:01Z</time>
      </trkpt>
      <trkpt lat="37.385508008301258" lon="-8.65899296477437">
        <ele>81.370000000000005</ele>
        <time>2025-05-06T13:51:02Z</time>
      </trkpt>
      <trkpt lat="37.383742025122046" lon="-8.659440977498889">
        <ele>82.329999999999998</ele>
        <time>2025-05-06T13:51:11Z</time>
      </trkpt>
      <trkpt lat="37.382438974454999" lon="-8.659755969420075">
        <ele>86.659999999999997</ele>
        <time>2025-05-06T13:51:18Z</time>
      </trkpt>
      <trkpt lat="37.38142803311348" lon="-8.660134999081492">
        <ele>91.939999999999998</ele>
        <time>2025-05-06T13:51:24Z</time>
      </trkpt>
      <trkpt lat="37.381306998431683" lon="-8.660165006294847">
        <ele>93.390000000000001</ele>
        <time>2025-05-06T13:51:25Z</time>
      </trkpt>
      <trkpt lat="37.381190992891788" lon="-8.660175986588001">
        <ele>94.349999999999994</ele>
        <time>2025-05-06T13:51:26Z</time>
      </trkpt>
      <trkpt lat="37.38108403980732" lon="-8.660127958282828">
        <ele>94.829999999999998</ele>
        <time>2025-05-06T13:51:27Z</time>
      </trkpt>
      <trkpt lat="37.380966022610664" lon="-8.660061992704868">
        <ele>95.790000000000006</ele>
        <time>2025-05-06T13:51:28Z</time>
      </trkpt>
      <trkpt lat="37.380712972953916" lon="-8.659885972738266">
        <ele>97.230000000000004</ele>
        <time>2025-05-06T13:51:30Z</time>
      </trkpt>
      <trkpt lat="37.380581963807344" lon="-8.659796034917235">
        <ele>98.189999999999998</ele>
        <time>2025-05-06T13:51:31Z</time>
      </trkpt>
      <trkpt lat="37.380454977974296" lon="-8.659711964428425">
        <ele>98.189999999999998</ele>
        <time>2025-05-06T13:51:32Z</time>
      </trkpt>
      <trkpt lat="37.38018399104476" lon="-8.659688998013735">
        <ele>99.150000000000006</ele>
        <time>2025-05-06T13:51:34Z</time>
      </trkpt>
      <trkpt lat="37.380043007433414" lon="-8.659753035753965">
        <ele>99.629999999999995</ele>
        <time>2025-05-06T13:51:35Z</time>
      </trkpt>
      <trkpt lat="37.379628019407392" lon="-8.659992003813386">
        <ele>101.08</ele>
        <time>2025-05-06T13:51:38Z</time>
      </trkpt>
      <trkpt lat="37.379508996382356" lon="-8.660060986876488">
        <ele>101.08</ele>
        <time>2025-05-06T13:51:39Z</time>
      </trkpt>
      <trkpt lat="37.379407994449139" lon="-8.660097029060125">
        <ele>101.08</ele>
        <time>2025-05-06T13:51:40Z</time>
      </trkpt>
      <trkpt lat="37.379275979474187" lon="-8.660072972998023">
        <ele>101.08</ele>
        <time>2025-05-06T13:51:41Z</time>
      </trkpt>
      <trkpt lat="37.379119992256165" lon="-8.66004497744143">
        <ele>101.08</ele>
        <time>2025-05-06T13:51:42Z</time>
      </trkpt>
      <trkpt lat="37.378947995603085" lon="-8.660013964399695">
        <ele>101.08</ele>
        <time>2025-05-06T13:51:43Z</time>
      </trkpt>
      <trkpt lat="37.378756972029805" lon="-8.659980017691851">
        <ele>100.59999999999999</ele>
        <time>2025-05-06T13:51:44Z</time>
      </trkpt>
      <trkpt lat="37.377430032938719" lon="-8.660186966881156">
        <ele>97.709999999999994</ele>
        <time>2025-05-06T13:51:50Z</time>
      </trkpt>
      <trkpt lat="37.375447964295745" lon="-8.660747967660427">
        <ele>97.709999999999994</ele>
        <time>2025-05-06T13:52:00Z</time>
      </trkpt>
      <trkpt lat="37.374215992167592" lon="-8.661072012037039">
        <ele>101.08</ele>
        <time>2025-05-06T13:52:07Z</time>
      </trkpt>
      <trkpt lat="37.373080998659134" lon="-8.661465961486101">
        <ele>104.44</ele>
        <time>2025-05-06T13:52:14Z</time>
      </trkpt>
      <trkpt lat="37.372738011181355" lon="-8.661654973402619">
        <ele>105.40000000000001</ele>
        <time>2025-05-06T13:52:16Z</time>
      </trkpt>
      <trkpt lat="37.372567020356655" lon="-8.661771984770894">
        <ele>106.36</ele>
        <time>2025-05-06T13:52:17Z</time>
      </trkpt>
      <trkpt lat="37.372108027338982" lon="-8.662184961140156">
        <ele>107.81</ele>
        <time>2025-05-06T13:52:20Z</time>
      </trkpt>
      <trkpt lat="37.371960002928972" lon="-8.662307001650333">
        <ele>108.29000000000001</ele>
        <time>2025-05-06T13:52:21Z</time>
      </trkpt>
      <trkpt lat="37.370745968073606" lon="-8.662945032119751">
        <ele>113.56999999999999</ele>
        <time>2025-05-06T13:52:28Z</time>
      </trkpt>
      <trkpt lat="37.370247999206185" lon="-8.663101019337773">
        <ele>116.94</ele>
        <time>2025-05-06T13:52:35Z</time>
      </trkpt>
      <trkpt lat="37.36976302228868" lon="-8.663226999342442">
        <ele>121.26000000000001</ele>
        <time>2025-05-06T13:52:43Z</time>
      </trkpt>
      <trkpt lat="37.369528999552131" lon="-8.663248037919402">
        <ele>122.70999999999999</ele>
        <time>2025-05-06T13:52:47Z</time>
      </trkpt>
      <trkpt lat="37.369469990953803" lon="-8.663243008777499">
        <ele>123.19</ele>
        <time>2025-05-06T13:52:48Z</time>
      </trkpt>
      <trkpt lat="37.36939899623394" lon="-8.663237979635596">
        <ele>123.67</ele>
        <time>2025-05-06T13:52:49Z</time>
      </trkpt>
      <trkpt lat="37.369308974593878" lon="-8.663234962150455">
        <ele>124.15000000000001</ele>
        <time>2025-05-06T13:52:50Z</time>
      </trkpt>
      <trkpt lat="37.369200009852648" lon="-8.663234962150455">
        <ele>124.63</ele>
        <time>2025-05-06T13:52:51Z</time>
      </trkpt>
      <trkpt lat="37.36879600211978" lon="-8.66326798684895">
        <ele>126.06999999999999</ele>
        <time>2025-05-06T13:52:54Z</time>
      </trkpt>
      <trkpt lat="37.368654012680054" lon="-8.66328701376915">
        <ele>127.03</ele>
        <time>2025-05-06T13:52:55Z</time>
      </trkpt>
      <trkpt lat="37.368528032675385" lon="-8.663319032639265">
        <ele>127.51000000000001</ele>
        <time>2025-05-06T13:52:56Z</time>
      </trkpt>
      <trkpt lat="37.368414960801601" lon="-8.663392039015889">
        <ele>128.47</ele>
        <time>2025-05-06T13:52:57Z</time>
      </trkpt>
      <trkpt lat="37.368294009938836" lon="-8.663470996543765">
        <ele>129.43000000000001</ele>
        <time>2025-05-06T13:52:58Z</time>
      </trkpt>
      <trkpt lat="37.367781037464738" lon="-8.663805015385151">
        <ele>132.80000000000001</ele>
        <time>2025-05-06T13:53:02Z</time>
      </trkpt>
      <trkpt lat="37.367665031924844" lon="-8.663881039246917">
        <ele>133.28</ele>
        <time>2025-05-06T13:53:03Z</time>
      </trkpt>
      <trkpt lat="37.367562018334866" lon="-8.663982963189483">
        <ele>134.24000000000001</ele>
        <time>2025-05-06T13:53:04Z</time>
      </trkpt>
      <trkpt lat="37.367456993088126" lon="-8.664106009528041">
        <ele>134.72</ele>
        <time>2025-05-06T13:53:05Z</time>
      </trkpt>
      <trkpt lat="37.367372000589967" lon="-8.664265014231205">
        <ele>135.68000000000001</ele>
        <time>2025-05-06T13:53:06Z</time>
      </trkpt>
      <trkpt lat="37.366743022575974" lon="-8.665188029408455">
        <ele>141.93000000000001</ele>
        <time>2025-05-06T13:53:12Z</time>
      </trkpt>
      <trkpt lat="37.366518974304199" lon="-8.665445018559694">
        <ele>144.34</ele>
        <time>2025-05-06T13:53:15Z</time>
      </trkpt>
      <trkpt lat="37.366446973755956" lon="-8.665498998016119">
        <ele>145.30000000000001</ele>
        <time>2025-05-06T13:53:16Z</time>
      </trkpt>
      <trkpt lat="37.366395005956292" lon="-8.665537973865867">
        <ele>146.25999999999999</ele>
        <time>2025-05-06T13:53:17Z</time>
      </trkpt>
      <trkpt lat="37.366341026499867" lon="-8.665578961372376">
        <ele>146.74000000000001</ele>
        <time>2025-05-06T13:53:18Z</time>
      </trkpt>
      <trkpt lat="37.36628201790154" lon="-8.665622966364026">
        <ele>147.69999999999999</ele>
        <time>2025-05-06T13:53:19Z</time>
      </trkpt>
      <trkpt lat="37.366216974332929" lon="-8.66565297357738">
        <ele>148.18000000000001</ele>
        <time>2025-05-06T13:53:20Z</time>
      </trkpt>
      <trkpt lat="37.366150002926588" lon="-8.665675017982721">
        <ele>148.66</ele>
        <time>2025-05-06T13:53:21Z</time>
      </trkpt>
      <trkpt lat="37.365523036569357" lon="-8.665899988263845">
        <ele>151.53999999999999</ele>
        <time>2025-05-06T13:53:29Z</time>
      </trkpt>
      <trkpt lat="37.365419017150998" lon="-8.665987998247147">
        <ele>151.53999999999999</ele>
        <time>2025-05-06T13:53:30Z</time>
      </trkpt>
      <trkpt lat="37.365308040753007" lon="-8.6660819593817">
        <ele>151.53999999999999</ele>
        <time>2025-05-06T13:53:31Z</time>
      </trkpt>
      <trkpt lat="37.365219024941325" lon="-8.666216991841793">
        <ele>151.53999999999999</ele>
        <time>2025-05-06T13:53:32Z</time>
      </trkpt>
      <trkpt lat="37.36514501273632" lon="-8.666355963796377">
        <ele>151.06</ele>
        <time>2025-05-06T13:53:33Z</time>
      </trkpt>
      <trkpt lat="37.365081980824471" lon="-8.666474986821413">
        <ele>150.09999999999999</ele>
        <time>2025-05-06T13:53:34Z</time>
      </trkpt>
      <trkpt lat="37.365049961954355" lon="-8.666946971789002">
        <ele>147.69999999999999</ele>
        <time>2025-05-06T13:53:37Z</time>
      </trkpt>
      <trkpt lat="37.365041999146342" lon="-8.667073035612702">
        <ele>147.69999999999999</ele>
        <time>2025-05-06T13:53:38Z</time>
      </trkpt>
      <trkpt lat="37.364998999983072" lon="-8.667188035324216">
        <ele>147.22</ele>
        <time>2025-05-06T13:53:39Z</time>
      </trkpt>
      <trkpt lat="37.364952983334661" lon="-8.667269004508853">
        <ele>146.74000000000001</ele>
        <time>2025-05-06T13:53:40Z</time>
      </trkpt>
      <trkpt lat="37.364880982786417" lon="-8.667322983965278">
        <ele>146.25999999999999</ele>
        <time>2025-05-06T13:53:41Z</time>
      </trkpt>
      <trkpt lat="37.364780986681581" lon="-8.667398001998663">
        <ele>145.78</ele>
        <time>2025-05-06T13:53:42Z</time>
      </trkpt>
      <trkpt lat="37.364702029153705" lon="-8.667420968413353">
        <ele>144.81999999999999</ele>
        <time>2025-05-06T13:53:43Z</time>
      </trkpt>
      <trkpt lat="37.364450991153717" lon="-8.667496992275119">
        <ele>142.41</ele>
        <time>2025-05-06T13:53:45Z</time>
      </trkpt>
      <trkpt lat="37.364317970350385" lon="-8.667547032237053">
        <ele>140.97</ele>
        <time>2025-05-06T13:53:46Z</time>
      </trkpt>
      <trkpt lat="37.364194002002478" lon="-8.667623978108168">
        <ele>139.53</ele>
        <time>2025-05-06T13:53:47Z</time>
      </trkpt>
      <trkpt lat="37.363514984026551" lon="-8.668040977790952">
        <ele>131.36000000000001</ele>
        <time>2025-05-06T13:53:53Z</time>
      </trkpt>
      <trkpt lat="37.362861027941108" lon="-8.668647995218635">
        <ele>126.55</ele>
        <time>2025-05-06T13:54:02Z</time>
      </trkpt>
      <trkpt lat="37.362300027161837" lon="-8.669125009328127">
        <ele>126.06999999999999</ele>
        <time>2025-05-06T13:54:09Z</time>
      </trkpt>
      <trkpt lat="37.362197013571858" lon="-8.669246966019273">
        <ele>126.06999999999999</ele>
        <time>2025-05-06T13:54:10Z</time>
      </trkpt>
      <trkpt lat="37.362086959183216" lon="-8.669377975165844">
        <ele>126.55</ele>
        <time>2025-05-06T13:54:11Z</time>
      </trkpt>
      <trkpt lat="37.361410958692431" lon="-8.670664010569453">
        <ele>127.98999999999999</ele>
        <time>2025-05-06T13:54:18Z</time>
      </trkpt>
      <trkpt lat="37.361266035586596" lon="-8.671038011088967">
        <ele>128.47</ele>
        <time>2025-05-06T13:54:20Z</time>
      </trkpt>
      <trkpt lat="37.361214989796281" lon="-8.671241020783782">
        <ele>128.47</ele>
        <time>2025-05-06T13:54:21Z</time>
      </trkpt>
      <trkpt lat="37.361134020611644" lon="-8.67183898575604">
        <ele>129.43000000000001</ele>
        <time>2025-05-06T13:54:25Z</time>
      </trkpt>
      <trkpt lat="37.361082974821329" lon="-8.671949962154031">
        <ele>129.91999999999999</ele>
        <time>2025-05-06T13:54:26Z</time>
      </trkpt>
      <trkpt lat="37.361042993143201" lon="-8.672039983794093">
        <ele>129.91999999999999</ele>
        <time>2025-05-06T13:54:27Z</time>
      </trkpt>
      <trkpt lat="37.360970992594957" lon="-8.672108966857195">
        <ele>130.88</ele>
        <time>2025-05-06T13:54:28Z</time>
      </trkpt>
      <trkpt lat="37.360870996490121" lon="-8.672167975455523">
        <ele>130.88</ele>
        <time>2025-05-06T13:54:29Z</time>
      </trkpt>
      <trkpt lat="37.3603540007025" lon="-8.672479027882218">
        <ele>132.31999999999999</ele>
        <time>2025-05-06T13:54:33Z</time>
      </trkpt>
      <trkpt lat="37.360226009041071" lon="-8.672585980966687">
        <ele>132.31999999999999</ele>
        <time>2025-05-06T13:54:34Z</time>
      </trkpt>
      <trkpt lat="37.36011503264308" lon="-8.672723025083542">
        <ele>132.31999999999999</ele>
        <time>2025-05-06T13:54:35Z</time>
      </trkpt>
      <trkpt lat="37.359919985756278" lon="-8.673022007569671">
        <ele>132.80000000000001</ele>
        <time>2025-05-06T13:54:36Z</time>
      </trkpt>
      <trkpt lat="37.359592001885176" lon="-8.673676969483495">
        <ele>134.72</ele>
        <time>2025-05-06T13:54:41Z</time>
      </trkpt>
      <trkpt lat="37.359506003558636" lon="-8.67381501942873">
        <ele>135.19999999999999</ele>
        <time>2025-05-06T13:54:42Z</time>
      </trkpt>
      <trkpt lat="37.359397960826755" lon="-8.673933958634734">
        <ele>135.68000000000001</ele>
        <time>2025-05-06T13:54:43Z</time>
      </trkpt>
      <trkpt lat="37.358882976695895" lon="-8.674287004396319">
        <ele>137.61000000000001</ele>
        <time>2025-05-06T13:54:47Z</time>
      </trkpt>
      <trkpt lat="37.358751967549324" lon="-8.674370991066098">
        <ele>138.09</ele>
        <time>2025-05-06T13:54:48Z</time>
      </trkpt>
      <trkpt lat="37.35863302834332" lon="-8.67439404129982">
        <ele>138.09</ele>
        <time>2025-05-06T13:54:49Z</time>
      </trkpt>
      <trkpt lat="37.35816003754735" lon="-8.674485990777612">
        <ele>139.05000000000001</ele>
        <time>2025-05-06T13:54:52Z</time>
      </trkpt>
      <trkpt lat="37.357978988438845" lon="-8.674522032961249">
        <ele>139.53</ele>
        <time>2025-05-06T13:54:53Z</time>
      </trkpt>
      <trkpt lat="37.357840016484261" lon="-8.674586992710829">
        <ele>140.00999999999999</ele>
        <time>2025-05-06T13:54:54Z</time>
      </trkpt>
      <trkpt lat="37.357686040922999" lon="-8.674658993259072">
        <ele>140.00999999999999</ele>
        <time>2025-05-06T13:54:55Z</time>
      </trkpt>
      <trkpt lat="37.357550002634525" lon="-8.674768041819334">
        <ele>140.00999999999999</ele>
        <time>2025-05-06T13:54:56Z</time>
      </trkpt>
      <trkpt lat="37.357444977387786" lon="-8.67488999851048">
        <ele>140.00999999999999</ele>
        <time>2025-05-06T13:54:57Z</time>
      </trkpt>
      <trkpt lat="37.357355961576104" lon="-8.674998041242361">
        <ele>140.00999999999999</ele>
        <time>2025-05-06T13:54:58Z</time>
      </trkpt>
      <trkpt lat="37.35732302069664" lon="-8.675155034288764">
        <ele>140.00999999999999</ele>
        <time>2025-05-06T13:54:59Z</time>
      </trkpt>
      <trkpt lat="37.357283961027861" lon="-8.67534002289176">
        <ele>140.00999999999999</ele>
        <time>2025-05-06T13:55:00Z</time>
      </trkpt>
      <trkpt lat="37.357220007106662" lon="-8.677021013572812">
        <ele>141.44999999999999</ele>
        <time>2025-05-06T13:55:08Z</time>
      </trkpt>
      <trkpt lat="37.357213972136378" lon="-8.677215976640582">
        <ele>141.93000000000001</ele>
        <time>2025-05-06T13:55:09Z</time>
      </trkpt>
      <trkpt lat="37.357208020985126" lon="-8.677396019920707">
        <ele>141.93000000000001</ele>
        <time>2025-05-06T13:55:10Z</time>
      </trkpt>
      <trkpt lat="37.357163010165095" lon="-8.677563993260264">
        <ele>141.93000000000001</ele>
        <time>2025-05-06T13:55:11Z</time>
      </trkpt>
      <trkpt lat="37.357109030708671" lon="-8.677719980478287">
        <ele>141.93000000000001</ele>
        <time>2025-05-06T13:55:12Z</time>
      </trkpt>
      <trkpt lat="37.357053039595485" lon="-8.67787403985858">
        <ele>142.41</ele>
        <time>2025-05-06T13:55:13Z</time>
      </trkpt>
      <trkpt lat="37.356964023783803" lon="-8.677998008206487">
        <ele>142.41</ele>
        <time>2025-05-06T13:55:14Z</time>
      </trkpt>
      <trkpt lat="37.35687299631536" lon="-8.678122982382774">
        <ele>142.41</ele>
        <time>2025-05-06T13:55:15Z</time>
      </trkpt>
      <trkpt lat="37.356673004105687" lon="-8.678348958492279">
        <ele>142.88999999999999</ele>
        <time>2025-05-06T13:55:17Z</time>
      </trkpt>
      <trkpt lat="37.356563033536077" lon="-8.678448032587767">
        <ele>143.37</ele>
        <time>2025-05-06T13:55:18Z</time>
      </trkpt>
      <trkpt lat="37.356424983590841" lon="-8.678510980680585">
        <ele>143.84999999999999</ele>
        <time>2025-05-06T13:55:19Z</time>
      </trkpt>
      <trkpt lat="37.356289029121399" lon="-8.67856496013701">
        <ele>144.81999999999999</ele>
        <time>2025-05-06T13:55:20Z</time>
      </trkpt>
      <trkpt lat="37.35614201053977" lon="-8.678604019805789">
        <ele>145.78</ele>
        <time>2025-05-06T13:55:21Z</time>
      </trkpt>
      <trkpt lat="37.355825006961823" lon="-8.678685994818807">
        <ele>146.74000000000001</ele>
        <time>2025-05-06T13:55:23Z</time>
      </trkpt>
      <trkpt lat="37.354772994294763" lon="-8.679353026673198">
        <ele>151.53999999999999</ele>
        <time>2025-05-06T13:55:30Z</time>
      </trkpt>
      <trkpt lat="37.354645002633333" lon="-8.679472971707583">
        <ele>152.03</ele>
        <time>2025-05-06T13:55:31Z</time>
      </trkpt>
      <trkpt lat="37.353832041844726" lon="-8.680603019893169">
        <ele>155.38999999999999</ele>
        <time>2025-05-06T13:55:38Z</time>
      </trkpt>
      <trkpt lat="37.353723999112844" lon="-8.680739980190992">
        <ele>155.87</ele>
        <time>2025-05-06T13:55:39Z</time>
      </trkpt>
      <trkpt lat="37.352757984772325" lon="-8.681745976209641">
        <ele>159.24000000000001</ele>
        <time>2025-05-06T13:55:46Z</time>
      </trkpt>
      <trkpt lat="37.352137975394726" lon="-8.682126011699438">
        <ele>162.12</ele>
        <time>2025-05-06T13:55:50Z</time>
      </trkpt>
      <trkpt lat="37.351975031197071" lon="-8.682180996984243">
        <ele>162.59999999999999</ele>
        <time>2025-05-06T13:55:51Z</time>
      </trkpt>
      <trkpt lat="37.351807979866862" lon="-8.682229025289416">
        <ele>163.08000000000001</ele>
        <time>2025-05-06T13:55:52Z</time>
      </trkpt>
      <trkpt lat="37.351631037890911" lon="-8.682254003360868">
        <ele>164.03999999999999</ele>
        <time>2025-05-06T13:55:53Z</time>
      </trkpt>
      <trkpt lat="37.351450994610786" lon="-8.682277975603938">
        <ele>164.52000000000001</ele>
        <time>2025-05-06T13:55:54Z</time>
      </trkpt>
      <trkpt lat="37.351083029061556" lon="-8.682246962562203">
        <ele>165.96000000000001</ele>
        <time>2025-05-06T13:55:56Z</time>
      </trkpt>
      <trkpt lat="37.350897034630179" lon="-8.682218967005611">
        <ele>166.44999999999999</ele>
        <time>2025-05-06T13:55:57Z</time>
      </trkpt>
      <trkpt lat="37.349444031715393" lon="-8.681797021999955">
        <ele>169.81</ele>
        <time>2025-05-06T13:56:05Z</time>
      </trkpt>
      <trkpt lat="37.349270023405552" lon="-8.681768020614982">
        <ele>170.28999999999999</ele>
        <time>2025-05-06T13:56:06Z</time>
      </trkpt>
      <trkpt lat="37.348954025655985" lon="-8.681753017008305">
        <ele>170.77000000000001</ele>
        <time>2025-05-06T13:56:08Z</time>
      </trkpt>
      <trkpt lat="37.348809018731117" lon="-8.681714963167906">
        <ele>171.25</ele>
        <time>2025-05-06T13:56:09Z</time>
      </trkpt>
      <trkpt lat="37.348660994321108" lon="-8.68163600564003">
        <ele>171.72999999999999</ele>
        <time>2025-05-06T13:56:10Z</time>
      </trkpt>
      <trkpt lat="37.347894972190261" lon="-8.680995041504502">
        <ele>173.66</ele>
        <time>2025-05-06T13:56:15Z</time>
      </trkpt>
      <trkpt lat="37.347768992185593" lon="-8.680851962417364">
        <ele>174.62</ele>
        <time>2025-05-06T13:56:16Z</time>
      </trkpt>
      <trkpt lat="37.34767603687942" lon="-8.680703015998006">
        <ele>175.58000000000001</ele>
        <time>2025-05-06T13:56:17Z</time>
      </trkpt>
      <trkpt lat="37.347587021067739" lon="-8.680559014901519">
        <ele>176.53999999999999</ele>
        <time>2025-05-06T13:56:18Z</time>
      </trkpt>
      <trkpt lat="37.347502028569579" lon="-8.680421970784664">
        <ele>177.02000000000001</ele>
        <time>2025-05-06T13:56:19Z</time>
      </trkpt>
      <trkpt lat="37.347421981394291" lon="-8.680293979123235">
        <ele>177.5</ele>
        <time>2025-05-06T13:56:20Z</time>
      </trkpt>
      <trkpt lat="37.34731201082468" lon="-8.68023899383843">
        <ele>177.97999999999999</ele>
        <time>2025-05-06T13:56:21Z</time>
      </trkpt>
      <trkpt lat="37.347184019163251" lon="-8.680175039917231">
        <ele>178.46000000000001</ele>
        <time>2025-05-06T13:56:22Z</time>
      </trkpt>
      <trkpt lat="37.346594016999006" lon="-8.679879996925592">
        <ele>179.41999999999999</ele>
        <time>2025-05-06T13:56:26Z</time>
      </trkpt>
      <trkpt lat="37.346435012295842" lon="-8.679800033569336">
        <ele>179.90000000000001</ele>
        <time>2025-05-06T13:56:27Z</time>
      </trkpt>
      <trkpt lat="37.345033977180719" lon="-8.679690985009074">
        <ele>187.11000000000001</ele>
        <time>2025-05-06T13:56:36Z</time>
      </trkpt>
      <trkpt lat="37.344528967514634" lon="-8.67972400970757">
        <ele>190.47999999999999</ele>
        <time>2025-05-06T13:56:39Z</time>
      </trkpt>
      <trkpt lat="37.343781972303987" lon="-8.679644968360663">
        <ele>197.69</ele>
        <time>2025-05-06T13:56:44Z</time>
      </trkpt>
      <trkpt lat="37.343649035319686" lon="-8.679588977247477">
        <ele>199.13</ele>
        <time>2025-05-06T13:56:45Z</time>
      </trkpt>
      <trkpt lat="37.343522971495986" lon="-8.679538015276194">
        <ele>200.56999999999999</ele>
        <time>2025-05-06T13:56:46Z</time>
      </trkpt>
      <trkpt lat="37.343403026461601" lon="-8.679499961435795">
        <ele>202.00999999999999</ele>
        <time>2025-05-06T13:56:47Z</time>
      </trkpt>
      <trkpt lat="37.343288026750088" lon="-8.679499961435795">
        <ele>202.97999999999999</ele>
        <time>2025-05-06T13:56:48Z</time>
      </trkpt>
      <trkpt lat="37.343180989846587" lon="-8.679499961435795">
        <ele>204.41999999999999</ele>
        <time>2025-05-06T13:56:49Z</time>
      </trkpt>
      <trkpt lat="37.343084011226892" lon="-8.67946500889957">
        <ele>205.86000000000001</ele>
        <time>2025-05-06T13:56:50Z</time>
      </trkpt>
      <trkpt lat="37.343022990971804" lon="-8.67937901057303">
        <ele>207.30000000000001</ele>
        <time>2025-05-06T13:56:51Z</time>
      </trkpt>
      <trkpt lat="37.342978985980153" lon="-8.679258981719613">
        <ele>208.74000000000001</ele>
        <time>2025-05-06T13:56:52Z</time>
      </trkpt>
      <trkpt lat="37.342944033443928" lon="-8.679119003936648">
        <ele>210.66999999999999</ele>
        <time>2025-05-06T13:56:53Z</time>
      </trkpt>
      <trkpt lat="37.342904973775148" lon="-8.678962010890245">
        <ele>212.11000000000001</ele>
        <time>2025-05-06T13:56:54Z</time>
      </trkpt>
      <trkpt lat="37.342860968783498" lon="-8.678784985095263">
        <ele>213.55000000000001</ele>
        <time>2025-05-06T13:56:55Z</time>
      </trkpt>
      <trkpt lat="37.342788968235254" lon="-8.678617011755705">
        <ele>214.50999999999999</ele>
        <time>2025-05-06T13:56:56Z</time>
      </trkpt>
      <trkpt lat="37.342711016535759" lon="-8.678451972082257">
        <ele>215.94999999999999</ele>
        <time>2025-05-06T13:56:57Z</time>
      </trkpt>
      <trkpt lat="37.34262702986598" lon="-8.67830403149128">
        <ele>217.40000000000001</ele>
        <time>2025-05-06T13:56:58Z</time>
      </trkpt>
      <trkpt lat="37.342187985777855" lon="-8.677792986854911">
        <ele>222.19999999999999</ele>
        <time>2025-05-06T13:57:02Z</time>
      </trkpt>
      <trkpt lat="37.342066029086709" lon="-8.677695002406836">
        <ele>223.63999999999999</ele>
        <time>2025-05-06T13:57:03Z</time>
      </trkpt>
      <trkpt lat="37.341493964195251" lon="-8.677365006878972">
        <ele>228.44999999999999</ele>
        <time>2025-05-06T13:57:07Z</time>
      </trkpt>
      <trkpt lat="37.34136002138257" lon="-8.677288983017206">
        <ele>229.88999999999999</ele>
        <time>2025-05-06T13:57:08Z</time>
      </trkpt>
      <trkpt lat="37.341205962002277" lon="-8.677230980247259">
        <ele>230.84999999999999</ele>
        <time>2025-05-06T13:57:09Z</time>
      </trkpt>
      <trkpt lat="37.341033965349197" lon="-8.677197033539414">
        <ele>232.30000000000001</ele>
        <time>2025-05-06T13:57:10Z</time>
      </trkpt>
      <trkpt lat="37.34086699783802" lon="-8.677163003012538">
        <ele>233.74000000000001</ele>
        <time>2025-05-06T13:57:11Z</time>
      </trkpt>
      <trkpt lat="37.340701036155224" lon="-8.677117992192507">
        <ele>235.18000000000001</ele>
        <time>2025-05-06T13:57:12Z</time>
      </trkpt>
      <trkpt lat="37.340534990653396" lon="-8.677042974159122">
        <ele>237.09999999999999</ele>
        <time>2025-05-06T13:57:13Z</time>
      </trkpt>
      <trkpt lat="37.340380009263754" lon="-8.676971979439259">
        <ele>239.02000000000001</ele>
        <time>2025-05-06T13:57:14Z</time>
      </trkpt>
      <trkpt lat="37.340242965146899" lon="-8.676925962790847">
        <ele>240.94999999999999</ele>
        <time>2025-05-06T13:57:15Z</time>
      </trkpt>
      <trkpt lat="37.339982036501169" lon="-8.676938032731414">
        <ele>244.31</ele>
        <time>2025-05-06T13:57:17Z</time>
      </trkpt>
      <trkpt lat="37.33987801708281" lon="-8.676941972225905">
        <ele>246.22999999999999</ele>
        <time>2025-05-06T13:57:18Z</time>
      </trkpt>
      <trkpt lat="37.339779026806355" lon="-8.676939038559794">
        <ele>247.68000000000001</ele>
        <time>2025-05-06T13:57:19Z</time>
      </trkpt>
      <trkpt lat="37.339733010157943" lon="-8.676864020526409">
        <ele>249.59999999999999</ele>
        <time>2025-05-06T13:57:20Z</time>
      </trkpt>
      <trkpt lat="37.339719012379646" lon="-8.676744997501373">
        <ele>251.52000000000001</ele>
        <time>2025-05-06T13:57:21Z</time>
      </trkpt>
      <trkpt lat="37.339719012379646" lon="-8.676620023325086">
        <ele>252.96000000000001</ele>
        <time>2025-05-06T13:57:22Z</time>
      </trkpt>
      <trkpt lat="37.339719012379646" lon="-8.676517009735107">
        <ele>254.88999999999999</ele>
        <time>2025-05-06T13:57:23Z</time>
      </trkpt>
      <trkpt lat="37.339672995731235" lon="-8.676390023902059">
        <ele>255.84999999999999</ele>
        <time>2025-05-06T13:57:24Z</time>
      </trkpt>
      <trkpt lat="37.339626979082823" lon="-8.676277035847306">
        <ele>256.81</ele>
        <time>2025-05-06T13:57:25Z</time>
      </trkpt>
      <trkpt lat="37.339521031826735" lon="-8.676205035299063">
        <ele>257.76999999999998</ele>
        <time>2025-05-06T13:57:26Z</time>
      </trkpt>
      <trkpt lat="37.339397985488176" lon="-8.676121970638633">
        <ele>258.73000000000002</ele>
        <time>2025-05-06T13:57:27Z</time>
      </trkpt>
      <trkpt lat="37.339266976341605" lon="-8.676033960655332">
        <ele>260.17000000000002</ele>
        <time>2025-05-06T13:57:28Z</time>
      </trkpt>
      <trkpt lat="37.339019039645791" lon="-8.675865987315774">
        <ele>263.06</ele>
        <time>2025-05-06T13:57:30Z</time>
      </trkpt>
      <trkpt lat="37.338903034105897" lon="-8.675788035616279">
        <ele>264.98000000000002</ele>
        <time>2025-05-06T13:57:31Z</time>
      </trkpt>
      <trkpt lat="37.338788034394383" lon="-8.675733972340822">
        <ele>266.42000000000002</ele>
        <time>2025-05-06T13:57:32Z</time>
      </trkpt>
      <trkpt lat="37.338359970599413" lon="-8.675536997616291">
        <ele>271.23000000000002</ele>
        <time>2025-05-06T13:57:35Z</time>
      </trkpt>
      <trkpt lat="37.338224016129971" lon="-8.675505984574556">
        <ele>272.67000000000002</ele>
        <time>2025-05-06T13:57:36Z</time>
      </trkpt>
      <trkpt lat="37.338096024468541" lon="-8.675480000674725">
        <ele>274.11000000000001</ele>
        <time>2025-05-06T13:57:37Z</time>
      </trkpt>
      <trkpt lat="37.337968032807112" lon="-8.675482012331486">
        <ele>276.04000000000002</ele>
        <time>2025-05-06T13:57:38Z</time>
      </trkpt>
      <trkpt lat="37.337736021727324" lon="-8.675618972629309">
        <ele>279.39999999999998</ele>
        <time>2025-05-06T13:57:40Z</time>
      </trkpt>
      <trkpt lat="37.337360009551048" lon="-8.67592197842896">
        <ele>283.73000000000002</ele>
        <time>2025-05-06T13:57:43Z</time>
      </trkpt>
      <trkpt lat="37.337258001789451" lon="-8.676004959270358">
        <ele>284.69</ele>
        <time>2025-05-06T13:57:44Z</time>
      </trkpt>
      <trkpt lat="37.337165968492627" lon="-8.67602800950408">
        <ele>286.13</ele>
        <time>2025-05-06T13:57:45Z</time>
      </trkpt>
      <trkpt lat="37.337052980437875" lon="-8.675980987027288">
        <ele>287.08999999999997</ele>
        <time>2025-05-06T13:57:46Z</time>
      </trkpt>
      <trkpt lat="37.336919959634542" lon="-8.675924995914102">
        <ele>289.00999999999999</ele>
        <time>2025-05-06T13:57:47Z</time>
      </trkpt>
      <trkpt lat="37.336773024871945" lon="-8.675863975659013">
        <ele>290.45999999999998</ele>
        <time>2025-05-06T13:57:48Z</time>
      </trkpt>
      <trkpt lat="37.336614020168781" lon="-8.675830028951168">
        <ele>291.89999999999998</ele>
        <time>2025-05-06T13:57:49Z</time>
      </trkpt>
      <trkpt lat="37.336454009637237" lon="-8.675834974274039">
        <ele>293.33999999999997</ele>
        <time>2025-05-06T13:57:50Z</time>
      </trkpt>
      <trkpt lat="37.336283018812537" lon="-8.675847966223955">
        <ele>295.25999999999999</ele>
        <time>2025-05-06T13:57:51Z</time>
      </trkpt>
      <trkpt lat="37.335598971694708" lon="-8.675919966772199">
        <ele>301.50999999999999</ele>
        <time>2025-05-06T13:57:55Z</time>
      </trkpt>
      <trkpt lat="37.335294960066676" lon="-8.676035972312093">
        <ele>304.88</ele>
        <time>2025-05-06T13:57:57Z</time>
      </trkpt>
      <trkpt lat="37.335154982283711" lon="-8.676090035587549">
        <ele>306.80000000000001</ele>
        <time>2025-05-06T13:57:58Z</time>
      </trkpt>
      <trkpt lat="37.334997989237309" lon="-8.676103027537465">
        <ele>308.24000000000001</ele>
        <time>2025-05-06T13:57:59Z</time>
      </trkpt>
      <trkpt lat="37.334837978705764" lon="-8.676092969253659">
        <ele>310.16000000000003</ele>
        <time>2025-05-06T13:58:00Z</time>
      </trkpt>
      <trkpt lat="37.334677968174219" lon="-8.676082994788885">
        <ele>311.60000000000002</ele>
        <time>2025-05-06T13:58:01Z</time>
      </trkpt>
      <trkpt lat="37.334514018148184" lon="-8.676073020324111">
        <ele>313.05000000000001</ele>
        <time>2025-05-06T13:58:02Z</time>
      </trkpt>
      <trkpt lat="37.33418301679194" lon="-8.676004959270358">
        <ele>316.41000000000003</ele>
        <time>2025-05-06T13:58:04Z</time>
      </trkpt>
      <trkpt lat="37.334017977118492" lon="-8.675961960107088">
        <ele>317.37</ele>
        <time>2025-05-06T13:58:05Z</time>
      </trkpt>
      <trkpt lat="37.333466028794646" lon="-8.675918038934469">
        <ele>324.57999999999998</ele>
        <time>2025-05-06T13:58:10Z</time>
      </trkpt>
      <trkpt lat="37.333394028246403" lon="-8.675897000357509">
        <ele>325.54000000000002</ele>
        <time>2025-05-06T13:58:11Z</time>
      </trkpt>
      <trkpt lat="37.33330300077796" lon="-8.675851989537478">
        <ele>326.01999999999998</ele>
        <time>2025-05-06T13:58:12Z</time>
      </trkpt>
      <trkpt lat="37.332585006952286" lon="-8.675365000963211">
        <ele>323.62</ele>
        <time>2025-05-06T13:58:17Z</time>
      </trkpt>
      <trkpt lat="37.331187995150685" lon="-8.674281975254417">
        <ele>310.63999999999999</ele>
        <time>2025-05-06T13:58:25Z</time>
      </trkpt>
      <trkpt lat="37.330205971375108" lon="-8.673723991960287">
        <ele>298.63</ele>
        <time>2025-05-06T13:58:31Z</time>
      </trkpt>
      <trkpt lat="37.330090971663594" lon="-8.673666995018721">
        <ele>296.69999999999999</ele>
        <time>2025-05-06T13:58:32Z</time>
      </trkpt>
      <trkpt lat="37.32999499887228" lon="-8.673618966713548">
        <ele>294.77999999999997</ele>
        <time>2025-05-06T13:58:33Z</time>
      </trkpt>
      <trkpt lat="37.329948982223868" lon="-8.673571022227407">
        <ele>292.86000000000001</ele>
        <time>2025-05-06T13:58:34Z</time>
      </trkpt>
      <trkpt lat="37.329926015809178" lon="-8.67347102612257">
        <ele>290.94</ele>
        <time>2025-05-06T13:58:35Z</time>
      </trkpt>
      <trkpt lat="37.329899026080966" lon="-8.673354014754295">
        <ele>289.49000000000001</ele>
        <time>2025-05-06T13:58:36Z</time>
      </trkpt>
      <trkpt lat="37.329904977232218" lon="-8.673225017264485">
        <ele>287.08999999999997</ele>
        <time>2025-05-06T13:58:37Z</time>
      </trkpt>
      <trkpt lat="37.329926015809178" lon="-8.673077998682857">
        <ele>285.17000000000002</ele>
        <time>2025-05-06T13:58:38Z</time>
      </trkpt>
      <trkpt lat="37.329945964738727" lon="-8.672938020899892">
        <ele>283.25</ele>
        <time>2025-05-06T13:58:39Z</time>
      </trkpt>
      <trkpt lat="37.32990900054574" lon="-8.672760995104909">
        <ele>279.88</ele>
        <time>2025-05-06T13:58:41Z</time>
      </trkpt>
      <trkpt lat="37.329862983897328" lon="-8.672705003991723">
        <ele>277.95999999999998</ele>
        <time>2025-05-06T13:58:42Z</time>
      </trkpt>
      <trkpt lat="37.329804981127381" lon="-8.67267600260675">
        <ele>276.51999999999998</ele>
        <time>2025-05-06T13:58:43Z</time>
      </trkpt>
      <trkpt lat="37.329719988629222" lon="-8.672654964029789">
        <ele>274.58999999999997</ele>
        <time>2025-05-06T13:58:44Z</time>
      </trkpt>
      <trkpt lat="37.329660980030894" lon="-8.67269896902144">
        <ele>273.14999999999998</ele>
        <time>2025-05-06T13:58:45Z</time>
      </trkpt>
      <trkpt lat="37.329600965604186" lon="-8.672772981226444">
        <ele>271.70999999999998</ele>
        <time>2025-05-06T13:58:46Z</time>
      </trkpt>
      <trkpt lat="37.329533994197845" lon="-8.672885969281197">
        <ele>269.79000000000002</ele>
        <time>2025-05-06T13:58:47Z</time>
      </trkpt>
      <trkpt lat="37.32945897616446" lon="-8.673011027276516">
        <ele>268.35000000000002</ele>
        <time>2025-05-06T13:58:48Z</time>
      </trkpt>
      <trkpt lat="37.329367026686668" lon="-8.67312896065414">
        <ele>267.38</ele>
        <time>2025-05-06T13:58:49Z</time>
      </trkpt>
      <trkpt lat="37.329277005046606" lon="-8.673237003386021">
        <ele>266.42000000000002</ele>
        <time>2025-05-06T13:58:50Z</time>
      </trkpt>
      <trkpt lat="37.329172985628247" lon="-8.673304980620742">
        <ele>265.94</ele>
        <time>2025-05-06T13:58:51Z</time>
      </trkpt>
      <trkpt lat="37.329058991745114" lon="-8.673318978399038">
        <ele>264.98000000000002</ele>
        <time>2025-05-06T13:58:52Z</time>
      </trkpt>
      <trkpt lat="37.328923959285021" lon="-8.673334987834096">
        <ele>264.01999999999998</ele>
        <time>2025-05-06T13:58:53Z</time>
      </trkpt>
      <trkpt lat="37.328445017337799" lon="-8.673393996432424">
        <ele>259.69</ele>
        <time>2025-05-06T13:58:56Z</time>
      </trkpt>
      <trkpt lat="37.328287018463016" lon="-8.67338796146214">
        <ele>258.25</ele>
        <time>2025-05-06T13:58:57Z</time>
      </trkpt>
      <trkpt lat="37.3281479626894" lon="-8.673345968127251">
        <ele>257.29000000000002</ele>
        <time>2025-05-06T13:58:58Z</time>
      </trkpt>
      <trkpt lat="37.328015025705099" lon="-8.673274973407388">
        <ele>255.84999999999999</ele>
        <time>2025-05-06T13:58:59Z</time>
      </trkpt>
      <trkpt lat="37.327874964103103" lon="-8.673195010051131">
        <ele>254.88999999999999</ele>
        <time>2025-05-06T13:59:00Z</time>
      </trkpt>
      <trkpt lat="37.327732974663377" lon="-8.67308302782476">
        <ele>254.41</ele>
        <time>2025-05-06T13:59:01Z</time>
      </trkpt>
      <trkpt lat="37.326979022473097" lon="-8.67241901345551">
        <ele>249.59999999999999</ele>
        <time>2025-05-06T13:59:07Z</time>
      </trkpt>
      <trkpt lat="37.32640502974391" lon="-8.672012994065881">
        <ele>245.27000000000001</ele>
        <time>2025-05-06T13:59:11Z</time>
      </trkpt>
      <trkpt lat="37.325986018404365" lon="-8.671829011291266">
        <ele>242.38999999999999</ele>
        <time>2025-05-06T13:59:14Z</time>
      </trkpt>
      <trkpt lat="37.325857020914555" lon="-8.671775031834841">
        <ele>241.43000000000001</ele>
        <time>2025-05-06T13:59:15Z</time>
      </trkpt>
      <trkpt lat="37.325744032859802" lon="-8.671791963279247">
        <ele>240.47</ele>
        <time>2025-05-06T13:59:16Z</time>
      </trkpt>
      <trkpt lat="37.325486959889531" lon="-8.671830017119646">
        <ele>238.06</ele>
        <time>2025-05-06T13:59:18Z</time>
      </trkpt>
      <trkpt lat="37.325149001553655" lon="-8.67188198491931">
        <ele>234.22</ele>
        <time>2025-05-06T13:59:21Z</time>
      </trkpt>
      <trkpt lat="37.325020004063845" lon="-8.671875027939677">
        <ele>232.78</ele>
        <time>2025-05-06T13:59:22Z</time>
      </trkpt>
      <trkpt lat="37.324898969382048" lon="-8.671867987141013">
        <ele>231.33000000000001</ele>
        <time>2025-05-06T13:59:23Z</time>
      </trkpt>
      <trkpt lat="37.324778018519282" lon="-8.671858012676239">
        <ele>229.88999999999999</ele>
        <time>2025-05-06T13:59:24Z</time>
      </trkpt>
      <trkpt lat="37.324654972180724" lon="-8.671797998249531">
        <ele>228.93000000000001</ele>
        <time>2025-05-06T13:59:25Z</time>
      </trkpt>
      <trkpt lat="37.324379039928317" lon="-8.671664977446199">
        <ele>226.05000000000001</ele>
        <time>2025-05-06T13:59:27Z</time>
      </trkpt>
      <trkpt lat="37.324243001639843" lon="-8.671599011868238">
        <ele>224.61000000000001</ele>
        <time>2025-05-06T13:59:28Z</time>
      </trkpt>
      <trkpt lat="37.324106963351369" lon="-8.671534974128008">
        <ele>223.16</ele>
        <time>2025-05-06T13:59:29Z</time>
      </trkpt>
      <trkpt lat="37.323622992262244" lon="-8.671457022428513">
        <ele>218.36000000000001</ele>
        <time>2025-05-06T13:59:33Z</time>
      </trkpt>
      <trkpt lat="37.323517967015505" lon="-8.671470014378429">
        <ele>217.40000000000001</ele>
        <time>2025-05-06T13:59:34Z</time>
      </trkpt>
      <trkpt lat="37.32341998256743" lon="-8.671506978571415">
        <ele>216.91</ele>
        <time>2025-05-06T13:59:35Z</time>
      </trkpt>
      <trkpt lat="37.323329960927367" lon="-8.671542014926672">
        <ele>215.94999999999999</ele>
        <time>2025-05-06T13:59:36Z</time>
      </trkpt>
      <trkpt lat="37.32324899174273" lon="-8.671599011868238">
        <ele>215.94999999999999</ele>
        <time>2025-05-06T13:59:37Z</time>
      </trkpt>
      <trkpt lat="37.323185037821531" lon="-8.671674029901624">
        <ele>215.47</ele>
        <time>2025-05-06T13:59:38Z</time>
      </trkpt>
      <trkpt lat="37.323123011738062" lon="-8.671772014349699">
        <ele>214.99000000000001</ele>
        <time>2025-05-06T13:59:39Z</time>
      </trkpt>
      <trkpt lat="37.322945985943079" lon="-8.672124976292253">
        <ele>214.50999999999999</ele>
        <time>2025-05-06T13:59:42Z</time>
      </trkpt>
      <trkpt lat="37.322866022586823" lon="-8.672238970175386">
        <ele>214.03</ele>
        <time>2025-05-06T13:59:43Z</time>
      </trkpt>
      <trkpt lat="37.322481041774154" lon="-8.672743979841471">
        <ele>213.55000000000001</ele>
        <time>2025-05-06T13:59:47Z</time>
      </trkpt>
      <trkpt lat="37.322359001263976" lon="-8.672855040058494">
        <ele>213.06999999999999</ele>
        <time>2025-05-06T13:59:48Z</time>
      </trkpt>
      <trkpt lat="37.322233021259308" lon="-8.67295403033495">
        <ele>212.59</ele>
        <time>2025-05-06T13:59:49Z</time>
      </trkpt>
      <trkpt lat="37.322102012112737" lon="-8.67301999591291">
        <ele>212.11000000000001</ele>
        <time>2025-05-06T13:59:50Z</time>
      </trkpt>
      <trkpt lat="37.321977037936449" lon="-8.673068024218082">
        <ele>211.63</ele>
        <time>2025-05-06T13:59:51Z</time>
      </trkpt>
      <trkpt lat="37.321838987991214" lon="-8.673088978976011">
        <ele>211.15000000000001</ele>
        <time>2025-05-06T13:59:52Z</time>
      </trkpt>
      <trkpt lat="37.321042036637664" lon="-8.673206996172667">
        <ele>207.30000000000001</ele>
        <time>2025-05-06T13:59:57Z</time>
      </trkpt>
      <trkpt lat="37.320739030838013" lon="-8.673259969800711">
        <ele>207.30000000000001</ele>
        <time>2025-05-06T13:59:59Z</time>
      </trkpt>
      <trkpt lat="37.320607015863061" lon="-8.673289977014065">
        <ele>207.78</ele>
        <time>2025-05-06T14:00:00Z</time>
      </trkpt>
      <trkpt lat="37.320463014766574" lon="-8.673317972570658">
        <ele>207.78</ele>
        <time>2025-05-06T14:00:01Z</time>
      </trkpt>
      <trkpt lat="37.320323958992958" lon="-8.673282014206052">
        <ele>208.25999999999999</ele>
        <time>2025-05-06T14:00:02Z</time>
      </trkpt>
      <trkpt lat="37.320182975381613" lon="-8.673244966194034">
        <ele>209.22</ele>
        <time>2025-05-06T14:00:03Z</time>
      </trkpt>
      <trkpt lat="37.319905031472445" lon="-8.673157962039113">
        <ele>209.69999999999999</ele>
        <time>2025-05-06T14:00:05Z</time>
      </trkpt>
      <trkpt lat="37.319786008447409" lon="-8.673103982582688">
        <ele>210.66999999999999</ele>
        <time>2025-05-06T14:00:06Z</time>
      </trkpt>
      <trkpt lat="37.319442015141249" lon="-8.672770969569683">
        <ele>213.06999999999999</ele>
        <time>2025-05-06T14:00:09Z</time>
      </trkpt>
      <trkpt lat="37.319328021258116" lon="-8.672651024535298">
        <ele>214.03</ele>
        <time>2025-05-06T14:00:10Z</time>
      </trkpt>
      <trkpt lat="37.319197012111545" lon="-8.672583969309926">
        <ele>214.99000000000001</ele>
        <time>2025-05-06T14:00:11Z</time>
      </trkpt>
      <trkpt lat="37.31892803683877" lon="-8.672562008723617">
        <ele>217.88</ele>
        <time>2025-05-06T14:00:13Z</time>
      </trkpt>
      <trkpt lat="37.318795016035438" lon="-8.672551028430462">
        <ele>218.84</ele>
        <time>2025-05-06T14:00:14Z</time>
      </trkpt>
      <trkpt lat="37.318667024374008" lon="-8.672539964318276">
        <ele>219.80000000000001</ele>
        <time>2025-05-06T14:00:15Z</time>
      </trkpt>
      <trkpt lat="37.318549007177353" lon="-8.672530995681882">
        <ele>220.28</ele>
        <time>2025-05-06T14:00:16Z</time>
      </trkpt>
      <trkpt lat="37.318459991365671" lon="-8.672540970146656">
        <ele>220.75999999999999</ele>
        <time>2025-05-06T14:00:17Z</time>
      </trkpt>
      <trkpt lat="37.318384973332286" lon="-8.672580029815435">
        <ele>221.72</ele>
        <time>2025-05-06T14:00:18Z</time>
      </trkpt>
      <trkpt lat="37.318353960290551" lon="-8.672658987343311">
        <ele>222.19999999999999</ele>
        <time>2025-05-06T14:00:19Z</time>
      </trkpt>
      <trkpt lat="37.31837198138237" lon="-8.672775998711586">
        <ele>222.68000000000001</ele>
        <time>2025-05-06T14:00:20Z</time>
      </trkpt>
      <trkpt lat="37.318399976938963" lon="-8.6728909984231">
        <ele>223.16</ele>
        <time>2025-05-06T14:00:21Z</time>
      </trkpt>
      <trkpt lat="37.31850097887218" lon="-8.672973979264498">
        <ele>223.63999999999999</ele>
        <time>2025-05-06T14:00:22Z</time>
      </trkpt>
      <trkpt lat="37.318604998290539" lon="-8.67301999591291">
        <ele>224.61000000000001</ele>
        <time>2025-05-06T14:00:23Z</time>
      </trkpt>
      <trkpt lat="37.318716980516911" lon="-8.673069030046463">
        <ele>226.05000000000001</ele>
        <time>2025-05-06T14:00:24Z</time>
      </trkpt>
      <trkpt lat="37.318836003541946" lon="-8.673122003674507">
        <ele>227.97</ele>
        <time>2025-05-06T14:00:25Z</time>
      </trkpt>
      <trkpt lat="37.318945974111557" lon="-8.67317195981741">
        <ele>229.88999999999999</ele>
        <time>2025-05-06T14:00:26Z</time>
      </trkpt>
      <trkpt lat="37.319035995751619" lon="-8.673263993114233">
        <ele>231.81</ele>
        <time>2025-05-06T14:00:27Z</time>
      </trkpt>
      <trkpt lat="37.319115037098527" lon="-8.673389973118901">
        <ele>233.74000000000001</ele>
        <time>2025-05-06T14:00:28Z</time>
      </trkpt>
      <trkpt lat="37.319198017939925" lon="-8.673521988093853">
        <ele>235.66</ele>
        <time>2025-05-06T14:00:29Z</time>
      </trkpt>
      <trkpt lat="37.319319974631071" lon="-8.673603041097522">
        <ele>237.58000000000001</ele>
        <time>2025-05-06T14:00:30Z</time>
      </trkpt>
      <trkpt lat="37.319432962685823" lon="-8.673671018332243">
        <ele>239.50999999999999</ele>
        <time>2025-05-06T14:00:31Z</time>
      </trkpt>
      <trkpt lat="37.319516027346253" lon="-8.673720974475145">
        <ele>241.43000000000001</ele>
        <time>2025-05-06T14:00:32Z</time>
      </trkpt>
      <trkpt lat="37.319545028731227" lon="-8.673818958923221">
        <ele>243.34999999999999</ele>
        <time>2025-05-06T14:00:33Z</time>
      </trkpt>
      <trkpt lat="37.319527007639408" lon="-8.673877967521548">
        <ele>245.27000000000001</ele>
        <time>2025-05-06T14:00:34Z</time>
      </trkpt>
      <trkpt lat="37.319505969062448" lon="-8.673920966684818">
        <ele>246.22999999999999</ele>
        <time>2025-05-06T14:00:35Z</time>
      </trkpt>
      <trkpt lat="37.319407984614372" lon="-8.67394401691854">
        <ele>247.19999999999999</ele>
        <time>2025-05-06T14:00:36Z</time>
      </trkpt>
      <trkpt lat="37.319306982681155" lon="-8.673967989161611">
        <ele>248.63999999999999</ele>
        <time>2025-05-06T14:00:37Z</time>
      </trkpt>
      <trkpt lat="37.31905804015696" lon="-8.674028003588319">
        <ele>250.56</ele>
        <time>2025-05-06T14:00:39Z</time>
      </trkpt>
      <trkpt lat="37.318941028788686" lon="-8.674042001366615">
        <ele>252</ele>
        <time>2025-05-06T14:00:40Z</time>
      </trkpt>
      <trkpt lat="37.318818988278508" lon="-8.674006965011358">
        <ele>253.44</ele>
        <time>2025-05-06T14:00:41Z</time>
      </trkpt>
      <trkpt lat="37.318593012169003" lon="-8.673825999721885">
        <ele>256.81</ele>
        <time>2025-05-06T14:00:43Z</time>
      </trkpt>
      <trkpt lat="37.318454962223768" lon="-8.673748970031738">
        <ele>258.73000000000002</ele>
        <time>2025-05-06T14:00:44Z</time>
      </trkpt>
      <trkpt lat="37.318323031067848" lon="-8.673748970031738">
        <ele>260.64999999999998</ele>
        <time>2025-05-06T14:00:45Z</time>
      </trkpt>
      <trkpt lat="37.318066963925958" lon="-8.673834968358278">
        <ele>264.5</ele>
        <time>2025-05-06T14:00:47Z</time>
      </trkpt>
      <trkpt lat="37.317961016669869" lon="-8.673877967521548">
        <ele>266.42000000000002</ele>
        <time>2025-05-06T14:00:48Z</time>
      </trkpt>
      <trkpt lat="37.317872000858188" lon="-8.673847960308194">
        <ele>267.86000000000001</ele>
        <time>2025-05-06T14:00:49Z</time>
      </trkpt>
      <trkpt lat="37.317709978669882" lon="-8.673666995018721">
        <ele>271.23000000000002</ele>
        <time>2025-05-06T14:00:51Z</time>
      </trkpt>
      <trkpt lat="37.3176209628582" lon="-8.673590971156955">
        <ele>272.19</ele>
        <time>2025-05-06T14:00:52Z</time>
      </trkpt>
      <trkpt lat="37.317492971196771" lon="-8.673564987257123">
        <ele>273.63</ele>
        <time>2025-05-06T14:00:53Z</time>
      </trkpt>
      <trkpt lat="37.317337989807129" lon="-8.673533974215388">
        <ele>275.06999999999999</ele>
        <time>2025-05-06T14:00:54Z</time>
      </trkpt>
      <trkpt lat="37.317193988710642" lon="-8.67355702444911">
        <ele>276.51999999999998</ele>
        <time>2025-05-06T14:00:55Z</time>
      </trkpt>
      <trkpt lat="37.317067002877593" lon="-8.673576973378658">
        <ele>278.44</ele>
        <time>2025-05-06T14:00:56Z</time>
      </trkpt>
      <trkpt lat="37.316971030086279" lon="-8.673591976985335">
        <ele>279.88</ele>
        <time>2025-05-06T14:00:57Z</time>
      </trkpt>
      <trkpt lat="37.316912021487951" lon="-8.673617960885167">
        <ele>281.80000000000001</ele>
        <time>2025-05-06T14:00:58Z</time>
      </trkpt>
      <trkpt lat="37.316877990961075" lon="-8.673651991412044">
        <ele>283.25</ele>
        <time>2025-05-06T14:00:59Z</time>
      </trkpt>
      <trkpt lat="37.316890982910991" lon="-8.673712005838752">
        <ele>285.17000000000002</ele>
        <time>2025-05-06T14:01:00Z</time>
      </trkpt>
      <trkpt lat="37.316930964589119" lon="-8.673759028315544">
        <ele>286.61000000000001</ele>
        <time>2025-05-06T14:01:01Z</time>
      </trkpt>
      <trkpt lat="37.317011011764407" lon="-8.673796998336911">
        <ele>288.52999999999997</ele>
        <time>2025-05-06T14:01:02Z</time>
      </trkpt>
      <trkpt lat="37.317107990384102" lon="-8.673843014985323">
        <ele>290.45999999999998</ele>
        <time>2025-05-06T14:01:03Z</time>
      </trkpt>
      <trkpt lat="37.31721100397408" lon="-8.673891965299845">
        <ele>291.89999999999998</ele>
        <time>2025-05-06T14:01:04Z</time>
      </trkpt>
      <trkpt lat="37.317308988422155" lon="-8.673937981948257">
        <ele>292.86000000000001</ele>
        <time>2025-05-06T14:01:05Z</time>
      </trkpt>
      <trkpt lat="37.31736296787858" lon="-8.674048958346248">
        <ele>293.33999999999997</ele>
        <time>2025-05-06T14:01:06Z</time>
      </trkpt>
      <trkpt lat="37.317364979535341" lon="-8.674134034663439">
        <ele>293.33999999999997</ele>
        <time>2025-05-06T14:01:07Z</time>
      </trkpt>
      <trkpt lat="37.317337989807129" lon="-8.674200000241399">
        <ele>293.33999999999997</ele>
        <time>2025-05-06T14:01:08Z</time>
      </trkpt>
      <trkpt lat="37.317278981208801" lon="-8.674189019948244">
        <ele>293.81999999999999</ele>
        <time>2025-05-06T14:01:09Z</time>
      </trkpt>
      <trkpt lat="37.317193988710642" lon="-8.674174016341567">
        <ele>294.77999999999997</ele>
        <time>2025-05-06T14:01:10Z</time>
      </trkpt>
      <trkpt lat="37.317090975120664" lon="-8.674155995249748">
        <ele>295.74000000000001</ele>
        <time>2025-05-06T14:01:11Z</time>
      </trkpt>
      <trkpt lat="37.316973963752389" lon="-8.674135040491819">
        <ele>296.69999999999999</ele>
        <time>2025-05-06T14:01:12Z</time>
      </trkpt>
      <trkpt lat="37.316844966262579" lon="-8.674166975542903">
        <ele>298.14999999999998</ele>
        <time>2025-05-06T14:01:13Z</time>
      </trkpt>
      <trkpt lat="37.316707000136375" lon="-8.67420201189816">
        <ele>299.11000000000001</ele>
        <time>2025-05-06T14:01:14Z</time>
      </trkpt>
      <trkpt lat="37.316560987383127" lon="-8.674238976091147">
        <ele>300.06999999999999</ele>
        <time>2025-05-06T14:01:15Z</time>
      </trkpt>
      <trkpt lat="37.316120015457273" lon="-8.674280969426036">
        <ele>303.43000000000001</ele>
        <time>2025-05-06T14:01:18Z</time>
      </trkpt>
      <trkpt lat="37.316023036837578" lon="-8.674307037144899">
        <ele>304.38999999999999</ele>
        <time>2025-05-06T14:01:19Z</time>
      </trkpt>
      <trkpt lat="37.315961010754108" lon="-8.674333021044731">
        <ele>305.36000000000001</ele>
        <time>2025-05-06T14:01:20Z</time>
      </trkpt>
      <trkpt lat="37.315922034904361" lon="-8.674391023814678">
        <ele>306.31999999999999</ele>
        <time>2025-05-06T14:01:21Z</time>
      </trkpt>
      <trkpt lat="37.315922034904361" lon="-8.674436034634709">
        <ele>307.27999999999997</ele>
        <time>2025-05-06T14:01:22Z</time>
      </trkpt>
      <trkpt lat="37.315997974947095" lon="-8.674463024362922">
        <ele>308.24000000000001</ele>
        <time>2025-05-06T14:01:23Z</time>
      </trkpt>
      <trkpt lat="37.316066036000848" lon="-8.674489008262754">
        <ele>309.68000000000001</ele>
        <time>2025-05-06T14:01:24Z</time>
      </trkpt>
      <trkpt lat="37.316141976043582" lon="-8.674517003819346">
        <ele>310.16000000000003</ele>
        <time>2025-05-06T14:01:25Z</time>
      </trkpt>
      <trkpt lat="37.316224034875631" lon="-8.674547011032701">
        <ele>311.12</ele>
        <time>2025-05-06T14:01:26Z</time>
      </trkpt>
      <trkpt lat="37.31632998213172" lon="-8.674585986882448">
        <ele>312.56999999999999</ele>
        <time>2025-05-06T14:01:27Z</time>
      </trkpt>
      <trkpt lat="37.316388990730047" lon="-8.674692017957568">
        <ele>314.00999999999999</ele>
        <time>2025-05-06T14:01:28Z</time>
      </trkpt>
      <trkpt lat="37.316446993499994" lon="-8.674816992133856">
        <ele>314.97000000000003</ele>
        <time>2025-05-06T14:01:29Z</time>
      </trkpt>
      <trkpt lat="37.316484963521361" lon="-8.674961999058723">
        <ele>316.41000000000003</ele>
        <time>2025-05-06T14:01:30Z</time>
      </trkpt>
      <trkpt lat="37.316525029018521" lon="-8.675113962963224">
        <ele>317.85000000000002</ele>
        <time>2025-05-06T14:01:31Z</time>
      </trkpt>
      <trkpt lat="37.31656601652503" lon="-8.675272967666388">
        <ele>319.30000000000001</ele>
        <time>2025-05-06T14:01:32Z</time>
      </trkpt>
      <trkpt lat="37.316675987094641" lon="-8.67538302205503">
        <ele>320.74000000000001</ele>
        <time>2025-05-06T14:01:33Z</time>
      </trkpt>
      <trkpt lat="37.316796015948057" lon="-8.675483018159866">
        <ele>322.18000000000001</ele>
        <time>2025-05-06T14:01:34Z</time>
      </trkpt>
      <trkpt lat="37.316912021487951" lon="-8.675569016486406">
        <ele>323.13999999999999</ele>
        <time>2025-05-06T14:01:35Z</time>
      </trkpt>
      <trkpt lat="37.317007994279265" lon="-8.67564202286303">
        <ele>324.57999999999998</ele>
        <time>2025-05-06T14:01:36Z</time>
      </trkpt>
      <trkpt lat="37.317088963463902" lon="-8.675702037289739">
        <ele>326.01999999999998</ele>
        <time>2025-05-06T14:01:37Z</time>
      </trkpt>
      <trkpt lat="37.317160964012146" lon="-8.675756016746163">
        <ele>326.99000000000001</ele>
        <time>2025-05-06T14:01:38Z</time>
      </trkpt>
      <trkpt lat="37.317226007580757" lon="-8.675804967060685">
        <ele>327.94999999999999</ele>
        <time>2025-05-06T14:01:39Z</time>
      </trkpt>
      <trkpt lat="37.317240005359054" lon="-8.675903035327792">
        <ele>328.43000000000001</ele>
        <time>2025-05-06T14:01:40Z</time>
      </trkpt>
      <trkpt lat="37.317247968167067" lon="-8.675993978977203">
        <ele>328.43000000000001</ele>
        <time>2025-05-06T14:01:41Z</time>
      </trkpt>
      <trkpt lat="37.317226007580757" lon="-8.676076959818602">
        <ele>328.91000000000003</ele>
        <time>2025-05-06T14:01:42Z</time>
      </trkpt>
      <trkpt lat="37.317045964300632" lon="-8.676214003935456">
        <ele>329.38999999999999</ele>
        <time>2025-05-06T14:01:44Z</time>
      </trkpt>
      <trkpt lat="37.316619995981455" lon="-8.676251973956823">
        <ele>330.35000000000002</ele>
        <time>2025-05-06T14:01:47Z</time>
      </trkpt>
      <trkpt lat="37.316241972148418" lon="-8.6763930413872">
        <ele>331.31</ele>
        <time>2025-05-06T14:01:50Z</time>
      </trkpt>
      <trkpt lat="37.316148011013865" lon="-8.676436962559819">
        <ele>331.31</ele>
        <time>2025-05-06T14:01:51Z</time>
      </trkpt>
      <trkpt lat="37.316051032394171" lon="-8.676452971994877">
        <ele>331.79000000000002</ele>
        <time>2025-05-06T14:01:52Z</time>
      </trkpt>
      <trkpt lat="37.315957993268967" lon="-8.676405027508736">
        <ele>332.26999999999998</ele>
        <time>2025-05-06T14:01:53Z</time>
      </trkpt>
      <trkpt lat="37.315870989114046" lon="-8.676304025575519">
        <ele>332.26999999999998</ele>
        <time>2025-05-06T14:01:54Z</time>
      </trkpt>
      <trkpt lat="37.315805023536086" lon="-8.676165975630283">
        <ele>332.26999999999998</ele>
        <time>2025-05-06T14:01:55Z</time>
      </trkpt>
      <trkpt lat="37.315730005502701" lon="-8.67600898258388">
        <ele>332.75</ele>
        <time>2025-05-06T14:01:56Z</time>
      </trkpt>
      <trkpt lat="37.315639983862638" lon="-8.675871016457677">
        <ele>333.23000000000002</ele>
        <time>2025-05-06T14:01:57Z</time>
      </trkpt>
      <trkpt lat="37.315510986372828" lon="-8.675742018967867">
        <ele>333.70999999999998</ele>
        <time>2025-05-06T14:01:58Z</time>
      </trkpt>
      <trkpt lat="37.315102033317089" lon="-8.675433984026313">
        <ele>335.16000000000003</ele>
        <time>2025-05-06T14:02:01Z</time>
      </trkpt>
      <trkpt lat="37.314820988103747" lon="-8.675274979323149">
        <ele>335.63999999999999</ele>
        <time>2025-05-06T14:02:03Z</time>
      </trkpt>
      <trkpt lat="37.314684027805924" lon="-8.675201972946525">
        <ele>336.60000000000002</ele>
        <time>2025-05-06T14:02:04Z</time>
      </trkpt>
      <trkpt lat="37.314560981467366" lon="-8.675098037347198">
        <ele>337.56</ele>
        <time>2025-05-06T14:02:05Z</time>
      </trkpt>
      <trkpt lat="37.314472971484065" lon="-8.674985971301794">
        <ele>339</ele>
        <time>2025-05-06T14:02:06Z</time>
      </trkpt>
      <trkpt lat="37.314390996471047" lon="-8.674881029874086">
        <ele>340.92000000000002</ele>
        <time>2025-05-06T14:02:07Z</time>
      </trkpt>
      <trkpt lat="37.31422696262598" lon="-8.674671985208988">
        <ele>343.81</ele>
        <time>2025-05-06T14:02:09Z</time>
      </trkpt>
      <trkpt lat="37.314173988997936" lon="-8.674644995480776">
        <ele>344.76999999999998</ele>
        <time>2025-05-06T14:02:10Z</time>
      </trkpt>
      <trkpt lat="37.314063012599945" lon="-8.674607025459409">
        <ele>347.17000000000002</ele>
        <time>2025-05-06T14:02:12Z</time>
      </trkpt>
      <trkpt lat="37.313994029536843" lon="-8.674607025459409">
        <ele>349.57999999999998</ele>
        <time>2025-05-06T14:02:14Z</time>
      </trkpt>
      <trkpt lat="37.313926974311471" lon="-8.67465203627944">
        <ele>350.54000000000002</ele>
        <time>2025-05-06T14:02:15Z</time>
      </trkpt>
      <trkpt lat="37.313967039808631" lon="-8.675337005406618">
        <ele>356.79000000000002</ele>
        <time>2025-05-06T14:02:21Z</time>
      </trkpt>
      <trkpt lat="37.313951030373573" lon="-8.676126999780536">
        <ele>360.63</ele>
        <time>2025-05-06T14:02:25Z</time>
      </trkpt>
      <trkpt lat="37.313927980139852" lon="-8.67634903639555">
        <ele>361.58999999999997</ele>
        <time>2025-05-06T14:02:26Z</time>
      </trkpt>
      <trkpt lat="37.313905013725162" lon="-8.676581969484687">
        <ele>363.04000000000002</ele>
        <time>2025-05-06T14:02:27Z</time>
      </trkpt>
      <trkpt lat="37.313856985419989" lon="-8.676821021363139">
        <ele>364.48000000000002</ele>
        <time>2025-05-06T14:02:28Z</time>
      </trkpt>
      <trkpt lat="37.313781967386603" lon="-8.677064012736082">
        <ele>365.44</ele>
        <time>2025-05-06T14:02:29Z</time>
      </trkpt>
      <trkpt lat="37.313561020419002" lon="-8.677534991875291">
        <ele>366.39999999999998</ele>
        <time>2025-05-06T14:02:30Z</time>
      </trkpt>
      <trkpt lat="37.313426993787289" lon="-8.677753005176783">
        <ele>367.83999999999997</ele>
        <time>2025-05-06T14:02:31Z</time>
      </trkpt>
      <trkpt lat="37.313267989084125" lon="-8.677956014871597">
        <ele>369.27999999999997</ele>
        <time>2025-05-06T14:02:32Z</time>
      </trkpt>
      <trkpt lat="37.313100015744567" lon="-8.678151983767748">
        <ele>370.24000000000001</ele>
        <time>2025-05-06T14:02:33Z</time>
      </trkpt>
      <trkpt lat="37.312909997999668" lon="-8.678302019834518">
        <ele>372.64999999999998</ele>
        <time>2025-05-06T14:02:35Z</time>
      </trkpt>
      <trkpt lat="37.312712017446756" lon="-8.678424982354045">
        <ele>373.61000000000001</ele>
        <time>2025-05-06T14:02:36Z</time>
      </trkpt>
      <trkpt lat="37.3125059902668" lon="-8.678533025085926">
        <ele>374.56999999999999</ele>
        <time>2025-05-06T14:02:37Z</time>
      </trkpt>
      <trkpt lat="37.312282025814056" lon="-8.678619023412466">
        <ele>375.05000000000001</ele>
        <time>2025-05-06T14:02:38Z</time>
      </trkpt>
      <trkpt lat="37.312046997249126" lon="-8.678667973726988">
        <ele>375.52999999999997</ele>
        <time>2025-05-06T14:02:39Z</time>
      </trkpt>
      <trkpt lat="37.31046399101615" lon="-8.679024036973715">
        <ele>375.52999999999997</ele>
        <time>2025-05-06T14:02:46Z</time>
      </trkpt>
      <trkpt lat="37.310251006856561" lon="-8.679111041128635">
        <ele>375.52999999999997</ele>
        <time>2025-05-06T14:02:47Z</time>
      </trkpt>
      <trkpt lat="37.310061994940042" lon="-8.67925001308322">
        <ele>375.52999999999997</ele>
        <time>2025-05-06T14:02:48Z</time>
      </trkpt>
      <trkpt lat="37.30988597497344" lon="-8.679406000301242">
        <ele>376.00999999999999</ele>
        <time>2025-05-06T14:02:49Z</time>
      </trkpt>
      <trkpt lat="37.309737028554082" lon="-8.679593000560999">
        <ele>376.97000000000003</ele>
        <time>2025-05-06T14:02:50Z</time>
      </trkpt>
      <trkpt lat="37.309494037181139" lon="-8.680035984143615">
        <ele>378.42000000000002</ele>
        <time>2025-05-06T14:02:51Z</time>
      </trkpt>
      <trkpt lat="37.309494037181139" lon="-8.680034978315234">
        <ele>379.38</ele>
        <time>2025-05-06T14:02:52Z</time>
      </trkpt>
      <trkpt lat="37.309431005269289" lon="-8.680277969688177">
        <ele>380.81999999999999</ele>
        <time>2025-05-06T14:02:53Z</time>
      </trkpt>
      <trkpt lat="37.309385994449258" lon="-8.680524984374642">
        <ele>381.77999999999997</ele>
        <time>2025-05-06T14:02:54Z</time>
      </trkpt>
      <trkpt lat="37.309382976964116" lon="-8.680762024596334">
        <ele>382.74000000000001</ele>
        <time>2025-05-06T14:02:55Z</time>
      </trkpt>
      <trkpt lat="37.309396974742413" lon="-8.681280026212335">
        <ele>383.69999999999999</ele>
        <time>2025-05-06T14:02:56Z</time>
      </trkpt>
      <trkpt lat="37.309480961412191" lon="-8.683952009305358">
        <ele>385.63</ele>
        <time>2025-05-06T14:03:07Z</time>
      </trkpt>
      <trkpt lat="37.309184996411204" lon="-8.685840032994747">
        <ele>380.81999999999999</ele>
        <time>2025-05-06T14:03:13Z</time>
      </trkpt>
      <trkpt lat="37.308355020359159" lon="-8.688508998602629">
        <ele>369.75999999999999</ele>
        <time>2025-05-06T14:03:23Z</time>
      </trkpt>
      <trkpt lat="37.307595033198595" lon="-8.690827013924718">
        <ele>358.23000000000002</ele>
        <time>2025-05-06T14:03:32Z</time>
      </trkpt>
      <trkpt lat="37.307498976588249" lon="-8.691363958641887">
        <ele>355.33999999999997</ele>
        <time>2025-05-06T14:03:34Z</time>
      </trkpt>
      <trkpt lat="37.307452037930489" lon="-8.691624971106648">
        <ele>352.94</ele>
        <time>2025-05-06T14:03:36Z</time>
      </trkpt>
      <trkpt lat="37.307294961065054" lon="-8.692082958295941">
        <ele>351.5</ele>
        <time>2025-05-06T14:03:37Z</time>
      </trkpt>
      <trkpt lat="37.307294961065054" lon="-8.692082958295941">
        <ele>349.57999999999998</ele>
        <time>2025-05-06T14:03:38Z</time>
      </trkpt>
      <trkpt lat="37.30704702436924" lon="-8.692483026534319">
        <ele>348.13</ele>
        <time>2025-05-06T14:03:39Z</time>
      </trkpt>
      <trkpt lat="37.30704702436924" lon="-8.692483026534319">
        <ele>346.69</ele>
        <time>2025-05-06T14:03:40Z</time>
      </trkpt>
      <trkpt lat="37.306906040757895" lon="-8.69267899543047">
        <ele>345.25</ele>
        <time>2025-05-06T14:03:41Z</time>
      </trkpt>
      <trkpt lat="37.306734966114163" lon="-8.692849986255169">
        <ele>343.81</ele>
        <time>2025-05-06T14:03:42Z</time>
      </trkpt>
      <trkpt lat="37.305712038651109" lon="-8.693919014185667">
        <ele>335.63999999999999</ele>
        <time>2025-05-06T14:03:48Z</time>
      </trkpt>
      <trkpt lat="37.305550016462803" lon="-8.694116994738579">
        <ele>334.68000000000001</ele>
        <time>2025-05-06T14:03:49Z</time>
      </trkpt>
      <trkpt lat="37.305434010922909" lon="-8.694355040788651">
        <ele>333.70999999999998</ele>
        <time>2025-05-06T14:03:50Z</time>
      </trkpt>
      <trkpt lat="37.305237958207726" lon="-8.694841023534536">
        <ele>332.26999999999998</ele>
        <time>2025-05-06T14:03:51Z</time>
      </trkpt>
      <trkpt lat="37.305189007893205" lon="-8.695112010464072">
        <ele>331.31</ele>
        <time>2025-05-06T14:03:52Z</time>
      </trkpt>
      <trkpt lat="37.305118013173342" lon="-8.695664964616299">
        <ele>329.38999999999999</ele>
        <time>2025-05-06T14:03:54Z</time>
      </trkpt>
      <trkpt lat="37.304874015972018" lon="-8.698163023218513">
        <ele>321.22000000000003</ele>
        <time>2025-05-06T14:04:04Z</time>
      </trkpt>
      <trkpt lat="37.304801009595394" lon="-8.698418000712991">
        <ele>321.22000000000003</ele>
        <time>2025-05-06T14:04:05Z</time>
      </trkpt>
      <trkpt lat="37.304576961323619" lon="-8.698881017044187">
        <ele>321.22000000000003</ele>
        <time>2025-05-06T14:04:06Z</time>
      </trkpt>
      <trkpt lat="37.304455004632473" lon="-8.699100036174059">
        <ele>321.69999999999999</ele>
        <time>2025-05-06T14:04:07Z</time>
      </trkpt>
      <trkpt lat="37.304318966343999" lon="-8.699317965656519">
        <ele>322.18000000000001</ele>
        <time>2025-05-06T14:04:08Z</time>
      </trkpt>
      <trkpt lat="37.303627040237188" lon="-8.700421024113894">
        <ele>328.43000000000001</ele>
        <time>2025-05-06T14:04:13Z</time>
      </trkpt>
      <trkpt lat="37.302954979240894" lon="-8.702186001464725">
        <ele>338.51999999999998</ele>
        <time>2025-05-06T14:04:20Z</time>
      </trkpt>
      <trkpt lat="37.302821036428213" lon="-8.702410971745849">
        <ele>339.48000000000002</ele>
        <time>2025-05-06T14:04:21Z</time>
      </trkpt>
      <trkpt lat="37.302662031725049" lon="-8.702607024461031">
        <ele>340.92000000000002</ele>
        <time>2025-05-06T14:04:22Z</time>
      </trkpt>
      <trkpt lat="37.302500009536743" lon="-8.702794024720788">
        <ele>341.88999999999999</ele>
        <time>2025-05-06T14:04:23Z</time>
      </trkpt>
      <trkpt lat="37.302334969863296" lon="-8.702981024980545">
        <ele>342.85000000000002</ele>
        <time>2025-05-06T14:04:24Z</time>
      </trkpt>
      <trkpt lat="37.300373017787933" lon="-8.704895032569766">
        <ele>344.76999999999998</ele>
        <time>2025-05-06T14:04:35Z</time>
      </trkpt>
      <trkpt lat="37.299315975978971" lon="-8.70531102642417">
        <ele>342.37</ele>
        <time>2025-05-06T14:04:41Z</time>
      </trkpt>
      <trkpt lat="37.297060992568731" lon="-8.70537799783051">
        <ele>339</ele>
        <time>2025-05-06T14:04:51Z</time>
      </trkpt>
      <trkpt lat="37.296638041734695" lon="-8.70535695925355">
        <ele>339.95999999999998</ele>
        <time>2025-05-06T14:04:53Z</time>
      </trkpt>
      <trkpt lat="37.296420028433204" lon="-8.705369029194117">
        <ele>340.92000000000002</ele>
        <time>2025-05-06T14:04:54Z</time>
      </trkpt>
      <trkpt lat="37.296205032616854" lon="-8.70539995841682">
        <ele>341.88999999999999</ele>
        <time>2025-05-06T14:04:55Z</time>
      </trkpt>
      <trkpt lat="37.295990036800504" lon="-8.705480005592108">
        <ele>342.85000000000002</ele>
        <time>2025-05-06T14:04:56Z</time>
      </trkpt>
      <trkpt lat="37.295786021277308" lon="-8.705582013353705">
        <ele>343.81</ele>
        <time>2025-05-06T14:04:57Z</time>
      </trkpt>
      <trkpt lat="37.295591980218887" lon="-8.705724002793431">
        <ele>344.76999999999998</ele>
        <time>2025-05-06T14:04:58Z</time>
      </trkpt>
      <trkpt lat="37.295396011322737" lon="-8.705868003889918">
        <ele>345.73000000000002</ele>
        <time>2025-05-06T14:04:59Z</time>
      </trkpt>
      <trkpt lat="37.295200964435935" lon="-8.706012004986405">
        <ele>347.17000000000002</ele>
        <time>2025-05-06T14:05:00Z</time>
      </trkpt>
      <trkpt lat="37.295019999146461" lon="-8.706174027174711">
        <ele>348.13</ele>
        <time>2025-05-06T14:05:01Z</time>
      </trkpt>
      <trkpt lat="37.29484498500824" lon="-8.706352980807424">
        <ele>348.62</ele>
        <time>2025-05-06T14:05:02Z</time>
      </trkpt>
      <trkpt lat="37.294713975861669" lon="-8.706577029079199">
        <ele>349.10000000000002</ele>
        <time>2025-05-06T14:05:03Z</time>
      </trkpt>
      <trkpt lat="37.294581960886717" lon="-8.706805016845465">
        <ele>349.57999999999998</ele>
        <time>2025-05-06T14:05:04Z</time>
      </trkpt>
      <trkpt lat="37.2944809589535" lon="-8.707053959369659">
        <ele>349.57999999999998</ele>
        <time>2025-05-06T14:05:05Z</time>
      </trkpt>
      <trkpt lat="37.294399989768863" lon="-8.707301979884505">
        <ele>349.57999999999998</ele>
        <time>2025-05-06T14:05:06Z</time>
      </trkpt>
      <trkpt lat="37.294335030019283" lon="-8.707544971257448">
        <ele>349.57999999999998</ele>
        <time>2025-05-06T14:05:07Z</time>
      </trkpt>
      <trkpt lat="37.293895985931158" lon="-8.709286982193589">
        <ele>348.13</ele>
        <time>2025-05-06T14:05:16Z</time>
      </trkpt>
      <trkpt lat="37.293866984546185" lon="-8.709412040188909">
        <ele>348.62</ele>
        <time>2025-05-06T14:05:17Z</time>
      </trkpt>
      <trkpt lat="37.293846029788256" lon="-8.7095039896667">
        <ele>348.62</ele>
        <time>2025-05-06T14:05:18Z</time>
      </trkpt>
      <trkpt lat="37.293756008148193" lon="-8.709539026021957">
        <ele>348.62</ele>
        <time>2025-05-06T14:05:19Z</time>
      </trkpt>
      <trkpt lat="37.293667998164892" lon="-8.709558974951506">
        <ele>348.62</ele>
        <time>2025-05-06T14:05:20Z</time>
      </trkpt>
      <trkpt lat="37.293562972918153" lon="-8.709583031013608">
        <ele>348.13</ele>
        <time>2025-05-06T14:05:21Z</time>
      </trkpt>
      <trkpt lat="37.292968025431037" lon="-8.70971898548305">
        <ele>344.76999999999998</ele>
        <time>2025-05-06T14:05:25Z</time>
      </trkpt>
      <trkpt lat="37.292812038213015" lon="-8.709755027666688">
        <ele>343.81</ele>
        <time>2025-05-06T14:05:26Z</time>
      </trkpt>
      <trkpt lat="37.292638029903173" lon="-8.709719991311431">
        <ele>342.37</ele>
        <time>2025-05-06T14:05:27Z</time>
      </trkpt>
      <trkpt lat="37.292467039078474" lon="-8.709685960784555">
        <ele>341.41000000000003</ele>
        <time>2025-05-06T14:05:28Z</time>
      </trkpt>
      <trkpt lat="37.292297976091504" lon="-8.709623012691736">
        <ele>340.44</ele>
        <time>2025-05-06T14:05:29Z</time>
      </trkpt>
      <trkpt lat="37.291101040318608" lon="-8.70918296277523">
        <ele>336.12</ele>
        <time>2025-05-06T14:05:35Z</time>
      </trkpt>
      <trkpt lat="37.290002005174756" lon="-8.708904013037682">
        <ele>336.60000000000002</ele>
        <time>2025-05-06T14:05:40Z</time>
      </trkpt>
      <trkpt lat="37.290002005174756" lon="-8.708904013037682">
        <ele>337.07999999999998</ele>
        <time>2025-05-06T14:05:41Z</time>
      </trkpt>
      <trkpt lat="37.289694976061583" lon="-8.708984982222319">
        <ele>338.04000000000002</ele>
        <time>2025-05-06T14:05:43Z</time>
      </trkpt>
      <trkpt lat="37.289549969136715" lon="-8.709057988598943">
        <ele>338.51999999999998</ele>
        <time>2025-05-06T14:05:44Z</time>
      </trkpt>
      <trkpt lat="37.289410997182131" lon="-8.709127977490425">
        <ele>338.04000000000002</ele>
        <time>2025-05-06T14:05:45Z</time>
      </trkpt>
      <trkpt lat="37.289266996085644" lon="-8.709143986925483">
        <ele>337.56</ele>
        <time>2025-05-06T14:05:46Z</time>
      </trkpt>
      <trkpt lat="37.289116960018873" lon="-8.70913702994585">
        <ele>337.56</ele>
        <time>2025-05-06T14:05:47Z</time>
      </trkpt>
      <trkpt lat="37.288987040519714" lon="-8.70905002579093">
        <ele>337.07999999999998</ele>
        <time>2025-05-06T14:05:48Z</time>
      </trkpt>
      <trkpt lat="37.288842033594847" lon="-8.708953969180584">
        <ele>336.60000000000002</ele>
        <time>2025-05-06T14:05:49Z</time>
      </trkpt>
      <trkpt lat="37.288561994209886" lon="-8.708745008334518">
        <ele>335.63999999999999</ele>
        <time>2025-05-06T14:05:51Z</time>
      </trkpt>
      <trkpt lat="37.288453029468656" lon="-8.708635959774256">
        <ele>335.16000000000003</ele>
        <time>2025-05-06T14:05:52Z</time>
      </trkpt>
      <trkpt lat="37.28835697285831" lon="-8.708531018346548">
        <ele>334.68000000000001</ele>
        <time>2025-05-06T14:05:53Z</time>
      </trkpt>
      <trkpt lat="37.288282038643956" lon="-8.708411995321512">
        <ele>334.19999999999999</ele>
        <time>2025-05-06T14:05:54Z</time>
      </trkpt>
      <trkpt lat="37.288238033652306" lon="-8.708253996446729">
        <ele>334.19999999999999</ele>
        <time>2025-05-06T14:05:55Z</time>
      </trkpt>
      <trkpt lat="37.288202997297049" lon="-8.708081999793649">
        <ele>334.19999999999999</ele>
        <time>2025-05-06T14:05:56Z</time>
      </trkpt>
      <trkpt lat="37.287806030362844" lon="-8.706355998292565">
        <ele>330.82999999999998</ele>
        <time>2025-05-06T14:06:04Z</time>
      </trkpt>
      <trkpt lat="37.287489026784897" lon="-8.705112962052226">
        <ele>323.62</ele>
        <time>2025-05-06T14:06:10Z</time>
      </trkpt>
      <trkpt lat="37.287434041500092" lon="-8.704964015632868">
        <ele>322.18000000000001</ele>
        <time>2025-05-06T14:06:11Z</time>
      </trkpt>
      <trkpt lat="37.287362040951848" lon="-8.704820014536381">
        <ele>321.22000000000003</ele>
        <time>2025-05-06T14:06:12Z</time>
      </trkpt>
      <trkpt lat="37.287261039018631" lon="-8.704718006774783">
        <ele>319.77999999999997</ele>
        <time>2025-05-06T14:06:13Z</time>
      </trkpt>
      <trkpt lat="37.28715299628675" lon="-8.704610969871283">
        <ele>318.32999999999998</ele>
        <time>2025-05-06T14:06:14Z</time>
      </trkpt>
      <trkpt lat="37.287045959383249" lon="-8.704504016786814">
        <ele>316.88999999999999</ele>
        <time>2025-05-06T14:06:15Z</time>
      </trkpt>
      <trkpt lat="37.286977982148528" lon="-8.704347023740411">
        <ele>315.44999999999999</ele>
        <time>2025-05-06T14:06:16Z</time>
      </trkpt>
      <trkpt lat="37.286920985206962" lon="-8.704169997945428">
        <ele>314.00999999999999</ele>
        <time>2025-05-06T14:06:17Z</time>
      </trkpt>
      <trkpt lat="37.286864994093776" lon="-8.703990038484335">
        <ele>312.56999999999999</ele>
        <time>2025-05-06T14:06:18Z</time>
      </trkpt>
      <trkpt lat="37.28681000880897" lon="-8.703818963840604">
        <ele>311.12</ele>
        <time>2025-05-06T14:06:19Z</time>
      </trkpt>
      <trkpt lat="37.286752006039023" lon="-8.703634981065989">
        <ele>309.68000000000001</ele>
        <time>2025-05-06T14:06:20Z</time>
      </trkpt>
      <trkpt lat="37.286114981397986" lon="-8.702579028904438">
        <ele>301.02999999999997</ele>
        <time>2025-05-06T14:06:26Z</time>
      </trkpt>
      <trkpt lat="37.285815998911858" lon="-8.70219798758626">
        <ele>298.63</ele>
        <time>2025-05-06T14:06:28Z</time>
      </trkpt>
      <trkpt lat="37.285753972828388" lon="-8.702083993703127">
        <ele>297.67000000000002</ele>
        <time>2025-05-06T14:06:29Z</time>
      </trkpt>
      <trkpt lat="37.285757996141911" lon="-8.701943010091782">
        <ele>296.69999999999999</ele>
        <time>2025-05-06T14:06:30Z</time>
      </trkpt>
      <trkpt lat="37.285765958949924" lon="-8.701647967100143">
        <ele>293.33999999999997</ele>
        <time>2025-05-06T14:06:33Z</time>
      </trkpt>
      <trkpt lat="37.285770988091826" lon="-8.701502960175276">
        <ele>292.38</ele>
        <time>2025-05-06T14:06:34Z</time>
      </trkpt>
      <trkpt lat="37.285667974501848" lon="-8.701215041801333">
        <ele>291.42000000000002</ele>
        <time>2025-05-06T14:06:35Z</time>
      </trkpt>
      <trkpt lat="37.285279976204038" lon="-8.700619004666805">
        <ele>285.64999999999998</ele>
        <time>2025-05-06T14:06:40Z</time>
      </trkpt>
      <trkpt lat="37.285173023119569" lon="-8.700525965541601">
        <ele>284.69</ele>
        <time>2025-05-06T14:06:41Z</time>
      </trkpt>
      <trkpt lat="37.285054000094533" lon="-8.700479026883841">
        <ele>283.73000000000002</ele>
        <time>2025-05-06T14:06:42Z</time>
      </trkpt>
      <trkpt lat="37.284787958487868" lon="-8.700540969148278">
        <ele>281.80000000000001</ele>
        <time>2025-05-06T14:06:44Z</time>
      </trkpt>
      <trkpt lat="37.284154035151005" lon="-8.700769962742925">
        <ele>277.95999999999998</ele>
        <time>2025-05-06T14:06:48Z</time>
      </trkpt>
      <trkpt lat="37.284005004912615" lon="-8.700824026018381">
        <ele>277.48000000000002</ele>
        <time>2025-05-06T14:06:49Z</time>
      </trkpt>
      <trkpt lat="37.283871984109282" lon="-8.700818996876478">
        <ele>276.51999999999998</ele>
        <time>2025-05-06T14:06:50Z</time>
      </trkpt>
      <trkpt lat="37.283753966912627" lon="-8.700809022411704">
        <ele>276.51999999999998</ele>
        <time>2025-05-06T14:06:51Z</time>
      </trkpt>
      <trkpt lat="37.283679032698274" lon="-8.700739033520222">
        <ele>276.04000000000002</ele>
        <time>2025-05-06T14:06:52Z</time>
      </trkpt>
      <trkpt lat="37.283612983301282" lon="-8.700638031587005">
        <ele>276.04000000000002</ele>
        <time>2025-05-06T14:06:53Z</time>
      </trkpt>
      <trkpt lat="37.28356302715838" lon="-8.700495958328247">
        <ele>276.04000000000002</ele>
        <time>2025-05-06T14:06:54Z</time>
      </trkpt>
      <trkpt lat="37.283552968874574" lon="-8.70032899081707">
        <ele>275.56</ele>
        <time>2025-05-06T14:06:55Z</time>
      </trkpt>
      <trkpt lat="37.283540982753038" lon="-8.700152970850468">
        <ele>276.04000000000002</ele>
        <time>2025-05-06T14:06:56Z</time>
      </trkpt>
      <trkpt lat="37.283530002459884" lon="-8.699978040531278">
        <ele>275.56</ele>
        <time>2025-05-06T14:06:57Z</time>
      </trkpt>
      <trkpt lat="37.283516004681587" lon="-8.699820963665843">
        <ele>275.06999999999999</ele>
        <time>2025-05-06T14:06:58Z</time>
      </trkpt>
      <trkpt lat="37.28347803466022" lon="-8.699681991711259">
        <ele>274.11000000000001</ele>
        <time>2025-05-06T14:06:59Z</time>
      </trkpt>
      <trkpt lat="37.283407961949706" lon="-8.699566991999745">
        <ele>273.63</ele>
        <time>2025-05-06T14:07:00Z</time>
      </trkpt>
      <trkpt lat="37.283297991380095" lon="-8.699478982016444">
        <ele>272.67000000000002</ele>
        <time>2025-05-06T14:07:01Z</time>
      </trkpt>
      <trkpt lat="37.283173017203808" lon="-8.699378985911608">
        <ele>271.23000000000002</ele>
        <time>2025-05-06T14:07:02Z</time>
      </trkpt>
      <trkpt lat="37.281896034255624" lon="-8.698356980457902">
        <ele>259.20999999999998</ele>
        <time>2025-05-06T14:07:10Z</time>
      </trkpt>
      <trkpt lat="37.281596967950463" lon="-8.698156988248229">
        <ele>256.81</ele>
        <time>2025-05-06T14:07:12Z</time>
      </trkpt>
      <trkpt lat="37.281451961025596" lon="-8.698079958558083">
        <ele>255.84999999999999</ele>
        <time>2025-05-06T14:07:13Z</time>
      </trkpt>
      <trkpt lat="37.281307959929109" lon="-8.698019022122026">
        <ele>254.88999999999999</ele>
        <time>2025-05-06T14:07:14Z</time>
      </trkpt>
      <trkpt lat="37.281145015731454" lon="-8.698026984930039">
        <ele>253.44</ele>
        <time>2025-05-06T14:07:15Z</time>
      </trkpt>
      <trkpt lat="37.280980981886387" lon="-8.698036037385464">
        <ele>252</ele>
        <time>2025-05-06T14:07:16Z</time>
      </trkpt>
      <trkpt lat="37.280833963304758" lon="-8.698123963549733">
        <ele>250.08000000000001</ele>
        <time>2025-05-06T14:07:17Z</time>
      </trkpt>
      <trkpt lat="37.28070898912847" lon="-8.698241980746388">
        <ele>248.63999999999999</ele>
        <time>2025-05-06T14:07:18Z</time>
      </trkpt>
      <trkpt lat="37.280576974153519" lon="-8.698365027084947">
        <ele>247.19999999999999</ele>
        <time>2025-05-06T14:07:19Z</time>
      </trkpt>
      <trkpt lat="37.280442025512457" lon="-8.698493018746376">
        <ele>245.75</ele>
        <time>2025-05-06T14:07:20Z</time>
      </trkpt>
      <trkpt lat="37.279878007248044" lon="-8.698885040357709">
        <ele>240.94999999999999</ele>
        <time>2025-05-06T14:07:24Z</time>
      </trkpt>
      <trkpt lat="37.279721014201641" lon="-8.698920998722315">
        <ele>239.50999999999999</ele>
        <time>2025-05-06T14:07:25Z</time>
      </trkpt>
      <trkpt lat="37.279562009498477" lon="-8.698929967358708">
        <ele>238.53999999999999</ele>
        <time>2025-05-06T14:07:26Z</time>
      </trkpt>
      <trkpt lat="37.278324002400041" lon="-8.698517996817827">
        <ele>229.41</ele>
        <time>2025-05-06T14:07:33Z</time>
      </trkpt>
      <trkpt lat="37.278157034888864" lon="-8.698447002097964">
        <ele>228.44999999999999</ele>
        <time>2025-05-06T14:07:34Z</time>
      </trkpt>
      <trkpt lat="37.277981014922261" lon="-8.698438033461571">
        <ele>227.49000000000001</ele>
        <time>2025-05-06T14:07:35Z</time>
      </trkpt>
      <trkpt lat="37.277237037196755" lon="-8.698556972667575">
        <ele>221.72</ele>
        <time>2025-05-06T14:07:39Z</time>
      </trkpt>
      <trkpt lat="37.27705498225987" lon="-8.698603995144367">
        <ele>220.28</ele>
        <time>2025-05-06T14:07:40Z</time>
      </trkpt>
      <trkpt lat="37.276888014748693" lon="-8.698700973764062">
        <ele>218.84</ele>
        <time>2025-05-06T14:07:41Z</time>
      </trkpt>
      <trkpt lat="37.276117969304323" lon="-8.699284018948674">
        <ele>210.66999999999999</ele>
        <time>2025-05-06T14:07:46Z</time>
      </trkpt>
      <trkpt lat="37.275930969044566" lon="-8.699335986748338">
        <ele>208.74000000000001</ele>
        <time>2025-05-06T14:07:47Z</time>
      </trkpt>
      <trkpt lat="37.275784034281969" lon="-8.699376974254847">
        <ele>206.81999999999999</ele>
        <time>2025-05-06T14:07:48Z</time>
      </trkpt>
      <trkpt lat="37.275624023750424" lon="-8.699368005618453">
        <ele>204.90000000000001</ele>
        <time>2025-05-06T14:07:49Z</time>
      </trkpt>
      <trkpt lat="37.275456972420216" lon="-8.699332969263196">
        <ele>202.49000000000001</ele>
        <time>2025-05-06T14:07:50Z</time>
      </trkpt>
      <trkpt lat="37.275281958281994" lon="-8.699274966493249">
        <ele>200.09</ele>
        <time>2025-05-06T14:07:51Z</time>
      </trkpt>
      <trkpt lat="37.275109961628914" lon="-8.699153009802103">
        <ele>197.21000000000001</ele>
        <time>2025-05-06T14:07:52Z</time>
      </trkpt>
      <trkpt lat="37.273518992587924" lon="-8.698026984930039">
        <ele>177.5</ele>
        <time>2025-05-06T14:08:00Z</time>
      </trkpt>
      <trkpt lat="37.271783016622066" lon="-8.696791995316744">
        <ele>155.87</ele>
        <time>2025-05-06T14:08:09Z</time>
      </trkpt>
      <trkpt lat="37.271625017747283" lon="-8.696707002818584">
        <ele>153.47</ele>
        <time>2025-05-06T14:08:10Z</time>
      </trkpt>
      <trkpt lat="37.271465007215738" lon="-8.69665402919054">
        <ele>152.03</ele>
        <time>2025-05-06T14:08:11Z</time>
      </trkpt>
      <trkpt lat="37.271307008340955" lon="-8.696631984785199">
        <ele>150.58000000000001</ele>
        <time>2025-05-06T14:08:12Z</time>
      </trkpt>
      <trkpt lat="37.271136017516255" lon="-8.696658974513412">
        <ele>149.13999999999999</ele>
        <time>2025-05-06T14:08:13Z</time>
      </trkpt>
      <trkpt lat="37.270959997549653" lon="-8.696716977283359">
        <ele>148.18000000000001</ele>
        <time>2025-05-06T14:08:14Z</time>
      </trkpt>
      <trkpt lat="37.270569987595081" lon="-8.696843963116407">
        <ele>145.78</ele>
        <time>2025-05-06T14:08:16Z</time>
      </trkpt>
      <trkpt lat="37.26912503130734" lon="-8.697595987468958">
        <ele>137.13</ele>
        <time>2025-05-06T14:08:23Z</time>
      </trkpt>
      <trkpt lat="37.267612013965845" lon="-8.698517996817827">
        <ele>129.43000000000001</ele>
        <time>2025-05-06T14:08:31Z</time>
      </trkpt>
      <trkpt lat="37.267461977899075" lon="-8.698657974600792">
        <ele>128.94999999999999</ele>
        <time>2025-05-06T14:08:32Z</time>
      </trkpt>
      <trkpt lat="37.266860995441675" lon="-8.69927597232163">
        <ele>125.59</ele>
        <time>2025-05-06T14:08:36Z</time>
      </trkpt>
      <trkpt lat="37.26672001183033" lon="-8.699455009773374">
        <ele>124.63</ele>
        <time>2025-05-06T14:08:37Z</time>
      </trkpt>
      <trkpt lat="37.265859022736549" lon="-8.700568964704871">
        <ele>119.81999999999999</ele>
        <time>2025-05-06T14:08:44Z</time>
      </trkpt>
      <trkpt lat="37.265548976138234" lon="-8.700900971889496">
        <ele>119.34</ele>
        <time>2025-05-06T14:08:46Z</time>
      </trkpt>
      <trkpt lat="37.263850970193744" lon="-8.702095979824662">
        <ele>121.26000000000001</ele>
        <time>2025-05-06T14:08:55Z</time>
      </trkpt>
      <trkpt lat="37.262407019734383" lon="-8.703498020768166">
        <ele>118.38</ele>
        <time>2025-05-06T14:09:04Z</time>
      </trkpt>
      <trkpt lat="37.261834032833576" lon="-8.704120041802526">
        <ele>116.94</ele>
        <time>2025-05-06T14:09:09Z</time>
      </trkpt>
      <trkpt lat="37.261732025071979" lon="-8.704223977401853">
        <ele>116.94</ele>
        <time>2025-05-06T14:09:10Z</time>
      </trkpt>
      <trkpt lat="37.261599004268646" lon="-8.704287009313703">
        <ele>116.94</ele>
        <time>2025-05-06T14:09:11Z</time>
      </trkpt>
      <trkpt lat="37.260282039642334" lon="-8.704699985682964">
        <ele>118.86</ele>
        <time>2025-05-06T14:09:19Z</time>
      </trkpt>
      <trkpt lat="37.259338991716504" lon="-8.70488396845758">
        <ele>122.70999999999999</ele>
        <time>2025-05-06T14:09:24Z</time>
      </trkpt>
      <trkpt lat="37.259154003113508" lon="-8.704896038398147">
        <ele>123.67</ele>
        <time>2025-05-06T14:09:25Z</time>
      </trkpt>
      <trkpt lat="37.258970020338893" lon="-8.704902995377779">
        <ele>124.15000000000001</ele>
        <time>2025-05-06T14:09:26Z</time>
      </trkpt>
      <trkpt lat="37.258462999016047" lon="-8.704847004264593">
        <ele>127.03</ele>
        <time>2025-05-06T14:09:29Z</time>
      </trkpt>
      <trkpt lat="37.258322015404701" lon="-8.704830994829536">
        <ele>127.51000000000001</ele>
        <time>2025-05-06T14:09:30Z</time>
      </trkpt>
      <trkpt lat="37.258182037621737" lon="-8.704839963465929">
        <ele>128.47</ele>
        <time>2025-05-06T14:09:31Z</time>
      </trkpt>
      <trkpt lat="37.257060036063194" lon="-8.70542099699378">
        <ele>130.40000000000001</ele>
        <time>2025-05-06T14:09:37Z</time>
      </trkpt>
      <trkpt lat="37.256658961996436" lon="-8.705628030002117">
        <ele>129.43000000000001</ele>
        <time>2025-05-06T14:09:39Z</time>
      </trkpt>
      <trkpt lat="37.256471961736679" lon="-8.705725008621812">
        <ele>128.47</ele>
        <time>2025-05-06T14:09:40Z</time>
      </trkpt>
      <trkpt lat="37.256290996447206" lon="-8.705796003341675">
        <ele>127.51000000000001</ele>
        <time>2025-05-06T14:09:41Z</time>
      </trkpt>
      <trkpt lat="37.255018958821893" lon="-8.70593698695302">
        <ele>120.3</ele>
        <time>2025-05-06T14:09:47Z</time>
      </trkpt>
      <trkpt lat="37.254156963899732" lon="-8.705819975584745">
        <ele>115.5</ele>
        <time>2025-05-06T14:09:51Z</time>
      </trkpt>
      <trkpt lat="37.253931993618608" lon="-8.705787034705281">
        <ele>114.53</ele>
        <time>2025-05-06T14:09:52Z</time>
      </trkpt>
      <trkpt lat="37.252443032339215" lon="-8.705855011940002">
        <ele>110.20999999999999</ele>
        <time>2025-05-06T14:09:59Z</time>
      </trkpt>
      <trkpt lat="37.251375010237098" lon="-8.70608601719141">
        <ele>110.20999999999999</ele>
        <time>2025-05-06T14:10:05Z</time>
      </trkpt>
      <trkpt lat="37.249422026798129" lon="-8.706714995205402">
        <ele>109.73</ele>
        <time>2025-05-06T14:10:14Z</time>
      </trkpt>
      <trkpt lat="37.24772703833878" lon="-8.707427959889174">
        <ele>107.81</ele>
        <time>2025-05-06T14:10:22Z</time>
      </trkpt>
      <trkpt lat="37.247565016150475" lon="-8.707509012892842">
        <ele>108.77</ele>
        <time>2025-05-06T14:10:23Z</time>
      </trkpt>
      <trkpt lat="37.247419003397226" lon="-8.707598028704524">
        <ele>109.73</ele>
        <time>2025-05-06T14:10:24Z</time>
      </trkpt>
      <trkpt lat="37.2472960408777" lon="-8.707728032022715">
        <ele>110.69</ele>
        <time>2025-05-06T14:10:25Z</time>
      </trkpt>
      <trkpt lat="37.247228985652328" lon="-8.707900028675795">
        <ele>111.65000000000001</ele>
        <time>2025-05-06T14:10:26Z</time>
      </trkpt>
      <trkpt lat="37.247155979275703" lon="-8.708089040592313">
        <ele>113.09</ele>
        <time>2025-05-06T14:10:27Z</time>
      </trkpt>
      <trkpt lat="37.246796982362866" lon="-8.709047008305788">
        <ele>119.34</ele>
        <time>2025-05-06T14:10:32Z</time>
      </trkpt>
      <trkpt lat="37.246748032048345" lon="-8.709208024665713">
        <ele>120.3</ele>
        <time>2025-05-06T14:10:33Z</time>
      </trkpt>
      <trkpt lat="37.246701009571552" lon="-8.709360994398594">
        <ele>121.73999999999999</ele>
        <time>2025-05-06T14:10:34Z</time>
      </trkpt>
      <trkpt lat="37.246694974601269" lon="-8.709518993273377">
        <ele>122.22</ele>
        <time>2025-05-06T14:10:35Z</time>
      </trkpt>
      <trkpt lat="37.246727999299765" lon="-8.709680009633303">
        <ele>123.19</ele>
        <time>2025-05-06T14:10:36Z</time>
      </trkpt>
      <trkpt lat="37.246764041483402" lon="-8.709861980751157">
        <ele>123.67</ele>
        <time>2025-05-06T14:10:37Z</time>
      </trkpt>
      <trkpt lat="37.246840987354517" lon="-8.70999600738287">
        <ele>124.63</ele>
        <time>2025-05-06T14:10:38Z</time>
      </trkpt>
      <trkpt lat="37.247051959857345" lon="-8.710284009575844">
        <ele>126.06999999999999</ele>
        <time>2025-05-06T14:10:40Z</time>
      </trkpt>
      <trkpt lat="37.2478589694947" lon="-8.711146004498005">
        <ele>128.47</ele>
        <time>2025-05-06T14:10:46Z</time>
      </trkpt>
      <trkpt lat="37.24807103164494" lon="-8.711445992812514">
        <ele>128.94999999999999</ele>
        <time>2025-05-06T14:10:47Z</time>
      </trkpt>
      <trkpt lat="37.248130962252617" lon="-8.711637016385794">
        <ele>128.94999999999999</ele>
        <time>2025-05-06T14:10:49Z</time>
      </trkpt>
      <trkpt lat="37.248202040791512" lon="-8.711857963353396">
        <ele>129.43000000000001</ele>
        <time>2025-05-06T14:10:50Z</time>
      </trkpt>
      <trkpt lat="37.248379988595843" lon="-8.713001003488898">
        <ele>130.40000000000001</ele>
        <time>2025-05-06T14:10:55Z</time>
      </trkpt>
      <trkpt lat="37.248413013294339" lon="-8.713208958506584">
        <ele>130.40000000000001</ele>
        <time>2025-05-06T14:10:56Z</time>
      </trkpt>
      <trkpt lat="37.248416030779481" lon="-8.713420014828444">
        <ele>130.40000000000001</ele>
        <time>2025-05-06T14:10:57Z</time>
      </trkpt>
      <trkpt lat="37.248405972495675" lon="-8.713634004816413">
        <ele>130.88</ele>
        <time>2025-05-06T14:10:58Z</time>
      </trkpt>
      <trkpt lat="37.24835199303925" lon="-8.713831985369325">
        <ele>131.84</ele>
        <time>2025-05-06T14:10:59Z</time>
      </trkpt>
      <trkpt lat="37.24777196533978" lon="-8.71547500602901">
        <ele>136.63999999999999</ele>
        <time>2025-05-06T14:11:06Z</time>
      </trkpt>
      <trkpt lat="37.247263016179204" lon="-8.716864977031946">
        <ele>134.72</ele>
        <time>2025-05-06T14:11:13Z</time>
      </trkpt>
      <trkpt lat="37.247065035626292" lon="-8.717393958941102">
        <ele>130.40000000000001</ele>
        <time>2025-05-06T14:11:16Z</time>
      </trkpt>
      <trkpt lat="37.247051959857345" lon="-8.717612978070974">
        <ele>129.43000000000001</ele>
        <time>2025-05-06T14:11:17Z</time>
      </trkpt>
      <trkpt lat="37.247042991220951" lon="-8.717780029401183">
        <ele>127.98999999999999</ele>
        <time>2025-05-06T14:11:18Z</time>
      </trkpt>
      <trkpt lat="37.24708397872746" lon="-8.717912966385484">
        <ele>126.55</ele>
        <time>2025-05-06T14:11:19Z</time>
      </trkpt>
      <trkpt lat="37.247129995375872" lon="-8.718063002452254">
        <ele>124.63</ele>
        <time>2025-05-06T14:11:20Z</time>
      </trkpt>
      <trkpt lat="37.247172994539142" lon="-8.718202980235219">
        <ele>123.19</ele>
        <time>2025-05-06T14:11:21Z</time>
      </trkpt>
      <trkpt lat="37.247211970388889" lon="-8.718330971896648">
        <ele>121.73999999999999</ele>
        <time>2025-05-06T14:11:22Z</time>
      </trkpt>
      <trkpt lat="37.247184980660677" lon="-8.718455024063587">
        <ele>120.3</ele>
        <time>2025-05-06T14:11:23Z</time>
      </trkpt>
      <trkpt lat="37.247142987325788" lon="-8.718559965491295">
        <ele>118.86</ele>
        <time>2025-05-06T14:11:24Z</time>
      </trkpt>
      <trkpt lat="37.247085990384221" lon="-8.718659961596131">
        <ele>117.42</ele>
        <time>2025-05-06T14:11:25Z</time>
      </trkpt>
      <trkpt lat="37.246981970965862" lon="-8.718712013214827">
        <ele>115.98</ele>
        <time>2025-05-06T14:11:26Z</time>
      </trkpt>
      <trkpt lat="37.246864037588239" lon="-8.718754006549716">
        <ele>114.05</ele>
        <time>2025-05-06T14:11:27Z</time>
      </trkpt>
      <trkpt lat="37.246715007349849" lon="-8.718776972964406">
        <ele>112.61</ele>
        <time>2025-05-06T14:11:28Z</time>
      </trkpt>
      <trkpt lat="37.245507007464767" lon="-8.718986017629504">
        <ele>100.59999999999999</ele>
        <time>2025-05-06T14:11:35Z</time>
      </trkpt>
      <trkpt lat="37.244275035336614" lon="-8.719561016187072">
        <ele>95.790000000000006</ele>
        <time>2025-05-06T14:11:42Z</time>
      </trkpt>
      <trkpt lat="37.244086023420095" lon="-8.719613989815116">
        <ele>95.310000000000002</ele>
        <time>2025-05-06T14:11:43Z</time>
      </trkpt>
      <trkpt lat="37.243888964876533" lon="-8.719667969271541">
        <ele>95.790000000000006</ele>
        <time>2025-05-06T14:11:44Z</time>
      </trkpt>
      <trkpt lat="37.241940004751086" lon="-8.719776012003422">
        <ele>92.900000000000006</ele>
        <time>2025-05-06T14:11:54Z</time>
      </trkpt>
      <trkpt lat="37.241352014243603" lon="-8.719856981188059">
        <ele>92.420000000000002</ele>
        <time>2025-05-06T14:11:57Z</time>
      </trkpt>
      <trkpt lat="37.241168031468987" lon="-8.719911966472864">
        <ele>92.420000000000002</ele>
        <time>2025-05-06T14:11:58Z</time>
      </trkpt>
      <trkpt lat="37.239728020504117" lon="-8.720710007473826">
        <ele>96.75</ele>
        <time>2025-05-06T14:12:06Z</time>
      </trkpt>
      <trkpt lat="37.238183990120888" lon="-8.721599997952581">
        <ele>102.52</ele>
        <time>2025-05-06T14:12:15Z</time>
      </trkpt>
      <trkpt lat="37.237103981897235" lon="-8.722076006233692">
        <ele>101.08</ele>
        <time>2025-05-06T14:12:22Z</time>
      </trkpt>
      <trkpt lat="37.23696400411427" lon="-8.722133003175259">
        <ele>100.11</ele>
        <time>2025-05-06T14:12:23Z</time>
      </trkpt>
      <trkpt lat="37.236820003017783" lon="-8.722168039530516">
        <ele>100.11</ele>
        <time>2025-05-06T14:12:24Z</time>
      </trkpt>
      <trkpt lat="37.236680025234818" lon="-8.72211598791182">
        <ele>99.629999999999995</ele>
        <time>2025-05-06T14:12:25Z</time>
      </trkpt>
      <trkpt lat="37.236526971682906" lon="-8.722059996798635">
        <ele>99.150000000000006</ele>
        <time>2025-05-06T14:12:26Z</time>
      </trkpt>
      <trkpt lat="37.236205022782087" lon="-8.721924964338541">
        <ele>98.670000000000002</ele>
        <time>2025-05-06T14:12:28Z</time>
      </trkpt>
      <trkpt lat="37.236035037785769" lon="-8.721875008195639">
        <ele>98.670000000000002</ele>
        <time>2025-05-06T14:12:29Z</time>
      </trkpt>
      <trkpt lat="37.235852982848883" lon="-8.721863022074103">
        <ele>98.670000000000002</ele>
        <time>2025-05-06T14:12:30Z</time>
      </trkpt>
      <trkpt lat="37.234947988763452" lon="-8.721836032345891">
        <ele>98.189999999999998</ele>
        <time>2025-05-06T14:12:35Z</time>
      </trkpt>
      <trkpt lat="37.234785966575146" lon="-8.721875008195639">
        <ele>98.189999999999998</ele>
        <time>2025-05-06T14:12:36Z</time>
      </trkpt>
      <trkpt lat="37.234631991013885" lon="-8.721928987652063">
        <ele>97.709999999999994</ele>
        <time>2025-05-06T14:12:37Z</time>
      </trkpt>
      <trkpt lat="37.234491007402539" lon="-8.721978021785617">
        <ele>97.230000000000004</ele>
        <time>2025-05-06T14:12:38Z</time>
      </trkpt>
      <trkpt lat="37.234399979934096" lon="-8.722108025103807">
        <ele>97.230000000000004</ele>
        <time>2025-05-06T14:12:39Z</time>
      </trkpt>
      <trkpt lat="37.234329991042614" lon="-8.722234005108476">
        <ele>96.75</ele>
        <time>2025-05-06T14:12:40Z</time>
      </trkpt>
      <trkpt lat="37.23427802324295" lon="-8.722368031740189">
        <ele>96.75</ele>
        <time>2025-05-06T14:12:41Z</time>
      </trkpt>
      <trkpt lat="37.234284980222583" lon="-8.722518989816308">
        <ele>96.269999999999996</ele>
        <time>2025-05-06T14:12:42Z</time>
      </trkpt>
      <trkpt lat="37.234292021021247" lon="-8.722681012004614">
        <ele>95.310000000000002</ele>
        <time>2025-05-06T14:12:43Z</time>
      </trkpt>
      <trkpt lat="37.234324039891362" lon="-8.722858037799597">
        <ele>94.829999999999998</ele>
        <time>2025-05-06T14:12:44Z</time>
      </trkpt>
      <trkpt lat="37.23445001989603" lon="-8.723224997520447">
        <ele>93.870000000000005</ele>
        <time>2025-05-06T14:12:45Z</time>
      </trkpt>
      <trkpt lat="37.234876994043589" lon="-8.724388992413878">
        <ele>90.019999999999996</ele>
        <time>2025-05-06T14:12:53Z</time>
      </trkpt>
      <trkpt lat="37.234876994043589" lon="-8.724507009610534">
        <ele>90.019999999999996</ele>
        <time>2025-05-06T14:12:54Z</time>
      </trkpt>
      <trkpt lat="37.234876994043589" lon="-8.724604994058609">
        <ele>90.019999999999996</ele>
        <time>2025-05-06T14:12:55Z</time>
      </trkpt>
      <trkpt lat="37.23485997878015" lon="-8.724658973515034">
        <ele>89.540000000000006</ele>
        <time>2025-05-06T14:12:56Z</time>
      </trkpt>
      <trkpt lat="37.234785966575146" lon="-8.7247159704566">
        <ele>89.540000000000006</ele>
        <time>2025-05-06T14:12:57Z</time>
      </trkpt>
      <trkpt lat="37.234696028754115" lon="-8.724784031510353">
        <ele>89.060000000000002</ele>
        <time>2025-05-06T14:12:58Z</time>
      </trkpt>
      <trkpt lat="37.234491007402539" lon="-8.724940018728375">
        <ele>88.099999999999994</ele>
        <time>2025-05-06T14:13:00Z</time>
      </trkpt>
      <trkpt lat="37.234393022954464" lon="-8.724989974871278">
        <ele>87.620000000000005</ele>
        <time>2025-05-06T14:13:01Z</time>
      </trkpt>
      <trkpt lat="37.234319010749459" lon="-8.724989974871278">
        <ele>87.620000000000005</ele>
        <time>2025-05-06T14:13:02Z</time>
      </trkpt>
      <trkpt lat="37.234224965795875" lon="-8.724943036213517">
        <ele>87.140000000000001</ele>
        <time>2025-05-06T14:13:03Z</time>
      </trkpt>
      <trkpt lat="37.23414801992476" lon="-8.724862989038229">
        <ele>86.659999999999997</ele>
        <time>2025-05-06T14:13:04Z</time>
      </trkpt>
      <trkpt lat="37.233970994129777" lon="-8.724595019593835">
        <ele>87.140000000000001</ele>
        <time>2025-05-06T14:13:05Z</time>
      </trkpt>
      <trkpt lat="37.233235985040665" lon="-8.723487015813589">
        <ele>87.140000000000001</ele>
        <time>2025-05-06T14:13:11Z</time>
      </trkpt>
      <trkpt lat="37.232536012306809" lon="-8.722214978188276">
        <ele>88.099999999999994</ele>
        <time>2025-05-06T14:13:18Z</time>
      </trkpt>
      <trkpt lat="37.232154970988631" lon="-8.721483992412686">
        <ele>90.980000000000004</ele>
        <time>2025-05-06T14:13:24Z</time>
      </trkpt>
      <trkpt lat="37.232047012075782" lon="-8.721358012408018">
        <ele>93.870000000000005</ele>
        <time>2025-05-06T14:13:29Z</time>
      </trkpt>
      <trkpt lat="37.232033014297485" lon="-8.721343008801341">
        <ele>94.349999999999994</ele>
        <time>2025-05-06T14:13:30Z</time>
      </trkpt>
      <trkpt lat="37.232033014297485" lon="-8.721343008801341">
        <ele>94.829999999999998</ele>
        <time>2025-05-06T14:13:41Z</time>
      </trkpt>
      <trkpt lat="37.232065033167601" lon="-8.721262039616704">
        <ele>101.08</ele>
        <time>2025-05-06T14:21:20Z</time>
      </trkpt>
      <trkpt lat="37.232036031782627" lon="-8.721301015466452">
        <ele>103.48</ele>
        <time>2025-05-06T14:22:08Z</time>
      </trkpt>
      <trkpt lat="37.231845008209348" lon="-8.721185009926558">
        <ele>103.95999999999999</ele>
        <time>2025-05-06T14:22:25Z</time>
      </trkpt>
      <trkpt lat="37.231087032705545" lon="-8.720704978331924">
        <ele>104.44</ele>
        <time>2025-05-06T14:22:33Z</time>
      </trkpt>
      <trkpt lat="37.230642037466168" lon="-8.720432985574007">
        <ele>105.40000000000001</ele>
        <time>2025-05-06T14:22:36Z</time>
      </trkpt>
      <trkpt lat="37.230465011671185" lon="-8.720384035259485">
        <ele>105.40000000000001</ele>
        <time>2025-05-06T14:22:37Z</time>
      </trkpt>
      <trkpt lat="37.229282995685935" lon="-8.719977010041475">
        <ele>108.77</ele>
        <time>2025-05-06T14:22:44Z</time>
      </trkpt>
      <trkpt lat="37.229008991271257" lon="-8.719863016158342">
        <ele>110.69</ele>
        <time>2025-05-06T14:22:46Z</time>
      </trkpt>
      <trkpt lat="37.228865996003151" lon="-8.719867039471865">
        <ele>111.17</ele>
        <time>2025-05-06T14:22:47Z</time>
      </trkpt>
      <trkpt lat="37.22871202044189" lon="-8.719870978966355">
        <ele>112.13</ele>
        <time>2025-05-06T14:22:48Z</time>
      </trkpt>
      <trkpt lat="37.228549998253584" lon="-8.719875002279878">
        <ele>113.09</ele>
        <time>2025-05-06T14:22:49Z</time>
      </trkpt>
      <trkpt lat="37.228384958580136" lon="-8.7198790255934">
        <ele>114.05</ele>
        <time>2025-05-06T14:22:50Z</time>
      </trkpt>
      <trkpt lat="37.228214973583817" lon="-8.719883970916271">
        <ele>115.01000000000001</ele>
        <time>2025-05-06T14:22:51Z</time>
      </trkpt>
      <trkpt lat="37.227254994213581" lon="-8.719977010041475">
        <ele>121.73999999999999</ele>
        <time>2025-05-06T14:22:57Z</time>
      </trkpt>
      <trkpt lat="37.227130020037293" lon="-8.720027972012758">
        <ele>122.70999999999999</ele>
        <time>2025-05-06T14:22:58Z</time>
      </trkpt>
      <trkpt lat="37.227020971477032" lon="-8.720108019188047">
        <ele>124.15000000000001</ele>
        <time>2025-05-06T14:22:59Z</time>
      </trkpt>
      <trkpt lat="37.226930027827621" lon="-8.720217989757657">
        <ele>124.63</ele>
        <time>2025-05-06T14:23:00Z</time>
      </trkpt>
      <trkpt lat="37.226837994530797" lon="-8.720343969762325">
        <ele>125.11</ele>
        <time>2025-05-06T14:23:01Z</time>
      </trkpt>
      <trkpt lat="37.226775968447328" lon="-8.720487970858812">
        <ele>125.59</ele>
        <time>2025-05-06T14:23:02Z</time>
      </trkpt>
      <trkpt lat="37.226716037839651" lon="-8.720628032460809">
        <ele>126.06999999999999</ele>
        <time>2025-05-06T14:23:03Z</time>
      </trkpt>
      <trkpt lat="37.226086976006627" lon="-8.72209302149713">
        <ele>125.11</ele>
        <time>2025-05-06T14:23:12Z</time>
      </trkpt>
      <trkpt lat="37.225321959704161" lon="-8.7238750141114">
        <ele>110.69</ele>
        <time>2025-05-06T14:23:20Z</time>
      </trkpt>
      <trkpt lat="37.225207965821028" lon="-8.724266029894352">
        <ele>107.31999999999999</ele>
        <time>2025-05-06T14:23:22Z</time>
      </trkpt>
      <trkpt lat="37.22521198913455" lon="-8.724441966041923">
        <ele>105.88</ele>
        <time>2025-05-06T14:23:23Z</time>
      </trkpt>
      <trkpt lat="37.225227998569608" lon="-8.724622009322047">
        <ele>103.95999999999999</ele>
        <time>2025-05-06T14:23:24Z</time>
      </trkpt>
      <trkpt lat="37.225250964984298" lon="-8.724814038723707">
        <ele>102.52</ele>
        <time>2025-05-06T14:23:25Z</time>
      </trkpt>
      <trkpt lat="37.225292036309838" lon="-8.7249939981848">
        <ele>101.56</ele>
        <time>2025-05-06T14:23:26Z</time>
      </trkpt>
      <trkpt lat="37.225589007139206" lon="-8.72658203355968">
        <ele>95.790000000000006</ele>
        <time>2025-05-06T14:23:35Z</time>
      </trkpt>
      <trkpt lat="37.225615996867418" lon="-8.726757969707251">
        <ele>96.75</ele>
        <time>2025-05-06T14:23:36Z</time>
      </trkpt>
      <trkpt lat="37.22559898160398" lon="-8.726900964975357">
        <ele>97.709999999999994</ele>
        <time>2025-05-06T14:23:37Z</time>
      </trkpt>
      <trkpt lat="37.225547013804317" lon="-8.727014036849141">
        <ele>99.150000000000006</ele>
        <time>2025-05-06T14:23:38Z</time>
      </trkpt>
      <trkpt lat="37.225481970235705" lon="-8.727090982720256">
        <ele>100.59999999999999</ele>
        <time>2025-05-06T14:23:39Z</time>
      </trkpt>
      <trkpt lat="37.225393960252404" lon="-8.727134987711906">
        <ele>102.52</ele>
        <time>2025-05-06T14:23:40Z</time>
      </trkpt>
      <trkpt lat="37.225292036309838" lon="-8.727133981883526">
        <ele>103.95999999999999</ele>
        <time>2025-05-06T14:23:41Z</time>
      </trkpt>
      <trkpt lat="37.225186005234718" lon="-8.727089976891875">
        <ele>105.40000000000001</ele>
        <time>2025-05-06T14:23:42Z</time>
      </trkpt>
      <trkpt lat="37.225087014958262" lon="-8.727048989385366">
        <ele>106.84</ele>
        <time>2025-05-06T14:23:43Z</time>
      </trkpt>
      <trkpt lat="37.224187972024083" lon="-8.726654034107924">
        <ele>120.78</ele>
        <time>2025-05-06T14:23:54Z</time>
      </trkpt>
      <trkpt lat="37.22336302511394" lon="-8.726267041638494">
        <ele>127.98999999999999</ele>
        <time>2025-05-06T14:24:00Z</time>
      </trkpt>
      <trkpt lat="37.22310796380043" lon="-8.726121028885245">
        <ele>129.91999999999999</ele>
        <time>2025-05-06T14:24:02Z</time>
      </trkpt>
      <trkpt lat="37.223010985180736" lon="-8.726033018901944">
        <ele>130.88</ele>
        <time>2025-05-06T14:24:03Z</time>
      </trkpt>
      <trkpt lat="37.222917024046183" lon="-8.72593897394836">
        <ele>131.36000000000001</ele>
        <time>2025-05-06T14:24:04Z</time>
      </trkpt>
      <trkpt lat="37.222841000184417" lon="-8.725778041407466">
        <ele>132.31999999999999</ele>
        <time>2025-05-06T14:24:05Z</time>
      </trkpt>
      <trkpt lat="37.222759025171399" lon="-8.725603027269244">
        <ele>132.80000000000001</ele>
        <time>2025-05-06T14:24:06Z</time>
      </trkpt>
      <trkpt lat="37.222488038241863" lon="-8.725104974582791">
        <ele>135.19999999999999</ele>
        <time>2025-05-06T14:24:09Z</time>
      </trkpt>
      <trkpt lat="37.222378989681602" lon="-8.724962985143066">
        <ele>136.16</ele>
        <time>2025-05-06T14:24:10Z</time>
      </trkpt>
      <trkpt lat="37.222250998020172" lon="-8.724838010966778">
        <ele>137.13</ele>
        <time>2025-05-06T14:24:11Z</time>
      </trkpt>
      <trkpt lat="37.220954988151789" lon="-8.723723972216249">
        <ele>142.88999999999999</ele>
        <time>2025-05-06T14:24:21Z</time>
      </trkpt>
      <trkpt lat="37.220833031460643" lon="-8.72366001829505">
        <ele>142.88999999999999</ele>
        <time>2025-05-06T14:24:22Z</time>
      </trkpt>
      <trkpt lat="37.22069900482893" lon="-8.72366001829505">
        <ele>142.88999999999999</ele>
        <time>2025-05-06T14:24:23Z</time>
      </trkpt>
      <trkpt lat="37.220552992075682" lon="-8.72366001829505">
        <ele>142.41</ele>
        <time>2025-05-06T14:24:24Z</time>
      </trkpt>
      <trkpt lat="37.220402033999562" lon="-8.72366001829505">
        <ele>141.44999999999999</ele>
        <time>2025-05-06T14:24:25Z</time>
      </trkpt>
      <trkpt lat="37.220249986276031" lon="-8.723684996366501">
        <ele>140.00999999999999</ele>
        <time>2025-05-06T14:24:26Z</time>
      </trkpt>
      <trkpt lat="37.220092993229628" lon="-8.72372598387301">
        <ele>139.05000000000001</ele>
        <time>2025-05-06T14:24:27Z</time>
      </trkpt>
      <trkpt lat="37.218861021101475" lon="-8.723965035751462">
        <ele>128.94999999999999</ele>
        <time>2025-05-06T14:24:34Z</time>
      </trkpt>
      <trkpt lat="37.217301987111568" lon="-8.723890017718077">
        <ele>118.38</ele>
        <time>2025-05-06T14:24:43Z</time>
      </trkpt>
      <trkpt lat="37.215571040287614" lon="-8.723347038030624">
        <ele>108.29000000000001</ele>
        <time>2025-05-06T14:24:53Z</time>
      </trkpt>
      <trkpt lat="37.214702004566789" lon="-8.722826018929482">
        <ele>103.95999999999999</ele>
        <time>2025-05-06T14:24:59Z</time>
      </trkpt>
      <trkpt lat="37.214644001796842" lon="-8.722790982574225">
        <ele>103.48</ele>
        <time>2025-05-06T14:25:00Z</time>
      </trkpt>
      <trkpt lat="37.214534031227231" lon="-8.72278100810945">
        <ele>103.48</ele>
        <time>2025-05-06T14:25:01Z</time>
      </trkpt>
      <trkpt lat="37.214504024013877" lon="-8.722841022536159">
        <ele>103</ele>
        <time>2025-05-06T14:25:02Z</time>
      </trkpt>
      <trkpt lat="37.214393969625235" lon="-8.722985023632646">
        <ele>103.48</ele>
        <time>2025-05-06T14:25:04Z</time>
      </trkpt>
      <trkpt lat="37.21429699100554" lon="-8.723001033067703">
        <ele>103.48</ele>
        <time>2025-05-06T14:25:05Z</time>
      </trkpt>
      <trkpt lat="37.214214010164142" lon="-8.72297303751111">
        <ele>103.95999999999999</ele>
        <time>2025-05-06T14:25:06Z</time>
      </trkpt>
      <trkpt lat="37.214141003787518" lon="-8.722890978679061">
        <ele>103.95999999999999</ele>
        <time>2025-05-06T14:25:07Z</time>
      </trkpt>
      <trkpt lat="37.2140590287745" lon="-8.722797017544508">
        <ele>104.44</ele>
        <time>2025-05-06T14:25:08Z</time>
      </trkpt>
      <trkpt lat="37.213970012962818" lon="-8.72269500978291">
        <ele>105.40000000000001</ele>
        <time>2025-05-06T14:25:09Z</time>
      </trkpt>
      <trkpt lat="37.213885020464659" lon="-8.722620997577906">
        <ele>105.88</ele>
        <time>2025-05-06T14:25:10Z</time>
      </trkpt>
      <trkpt lat="37.213784018531442" lon="-8.722586967051029">
        <ele>106.84</ele>
        <time>2025-05-06T14:25:11Z</time>
      </trkpt>
      <trkpt lat="37.213693996891379" lon="-8.722604988142848">
        <ele>107.81</ele>
        <time>2025-05-06T14:25:12Z</time>
      </trkpt>
      <trkpt lat="37.213616967201233" lon="-8.722679000347853">
        <ele>109.25</ele>
        <time>2025-05-06T14:25:13Z</time>
      </trkpt>
      <trkpt lat="37.213555024936795" lon="-8.722772961482406">
        <ele>111.17</ele>
        <time>2025-05-06T14:25:14Z</time>
      </trkpt>
      <trkpt lat="37.21350003965199" lon="-8.72291000559926">
        <ele>113.09</ele>
        <time>2025-05-06T14:25:15Z</time>
      </trkpt>
      <trkpt lat="37.213495010510087" lon="-8.723066998645663">
        <ele>115.5</ele>
        <time>2025-05-06T14:25:16Z</time>
      </trkpt>
      <trkpt lat="37.213512025773525" lon="-8.723240001127124">
        <ele>117.90000000000001</ele>
        <time>2025-05-06T14:25:17Z</time>
      </trkpt>
      <trkpt lat="37.213537003844976" lon="-8.723413003608584">
        <ele>120.3</ele>
        <time>2025-05-06T14:25:18Z</time>
      </trkpt>
      <trkpt lat="37.213592994958162" lon="-8.723587011918426">
        <ele>122.70999999999999</ele>
        <time>2025-05-06T14:25:19Z</time>
      </trkpt>
      <trkpt lat="37.213647980242968" lon="-8.723754985257983">
        <ele>124.63</ele>
        <time>2025-05-06T14:25:20Z</time>
      </trkpt>
      <trkpt lat="37.213787036016583" lon="-8.724181959405541">
        <ele>130.40000000000001</ele>
        <time>2025-05-06T14:25:23Z</time>
      </trkpt>
      <trkpt lat="37.213791981339455" lon="-8.724316991865635">
        <ele>131.84</ele>
        <time>2025-05-06T14:25:24Z</time>
      </trkpt>
      <trkpt lat="37.213761974126101" lon="-8.724496029317379">
        <ele>133.28</ele>
        <time>2025-05-06T14:25:25Z</time>
      </trkpt>
      <trkpt lat="37.213701959699392" lon="-8.724597031250596">
        <ele>134.72</ele>
        <time>2025-05-06T14:25:26Z</time>
      </trkpt>
      <trkpt lat="37.213619984686375" lon="-8.724732985720038">
        <ele>135.68000000000001</ele>
        <time>2025-05-06T14:25:27Z</time>
      </trkpt>
      <trkpt lat="37.21354597248137" lon="-8.7248869612813">
        <ele>137.13</ele>
        <time>2025-05-06T14:25:28Z</time>
      </trkpt>
      <trkpt lat="37.213487969711423" lon="-8.725060969591141">
        <ele>138.56999999999999</ele>
        <time>2025-05-06T14:25:29Z</time>
      </trkpt>
      <trkpt lat="37.21343700774014" lon="-8.725241012871265">
        <ele>139.53</ele>
        <time>2025-05-06T14:25:30Z</time>
      </trkpt>
      <trkpt lat="37.213342962786555" lon="-8.726664008572698">
        <ele>149.62</ele>
        <time>2025-05-06T14:25:37Z</time>
      </trkpt>
      <trkpt lat="37.2133510094136" lon="-8.726854026317596">
        <ele>151.06</ele>
        <time>2025-05-06T14:25:38Z</time>
      </trkpt>
      <trkpt lat="37.213391996920109" lon="-8.727021999657154">
        <ele>152.50999999999999</ele>
        <time>2025-05-06T14:25:39Z</time>
      </trkpt>
      <trkpt lat="37.213461985811591" lon="-8.727170024067164">
        <ele>153.94999999999999</ele>
        <time>2025-05-06T14:25:40Z</time>
      </trkpt>
      <trkpt lat="37.213525017723441" lon="-8.727302961051464">
        <ele>155.38999999999999</ele>
        <time>2025-05-06T14:25:41Z</time>
      </trkpt>
      <trkpt lat="37.213570028543472" lon="-8.727438999339938">
        <ele>156.34999999999999</ele>
        <time>2025-05-06T14:25:42Z</time>
      </trkpt>
      <trkpt lat="37.213569022715092" lon="-8.727590963244438">
        <ele>157.78999999999999</ele>
        <time>2025-05-06T14:25:43Z</time>
      </trkpt>
      <trkpt lat="37.213528035208583" lon="-8.727725995704532">
        <ele>158.27000000000001</ele>
        <time>2025-05-06T14:25:44Z</time>
      </trkpt>
      <trkpt lat="37.213471038267016" lon="-8.727873014286161">
        <ele>159.24000000000001</ele>
        <time>2025-05-06T14:25:45Z</time>
      </trkpt>
      <trkpt lat="37.213400965556502" lon="-8.72802103869617">
        <ele>160.19999999999999</ele>
        <time>2025-05-06T14:25:46Z</time>
      </trkpt>
      <trkpt lat="37.213175995275378" lon="-8.728499980643392">
        <ele>164.52000000000001</ele>
        <time>2025-05-06T14:25:49Z</time>
      </trkpt>
      <trkpt lat="37.213062001392245" lon="-8.72860299423337">
        <ele>165.47999999999999</ele>
        <time>2025-05-06T14:25:50Z</time>
      </trkpt>
      <trkpt lat="37.212927974760532" lon="-8.728700978681445">
        <ele>166.44999999999999</ele>
        <time>2025-05-06T14:25:51Z</time>
      </trkpt>
      <trkpt lat="37.212518015876412" lon="-8.729002978652716">
        <ele>169.81</ele>
        <time>2025-05-06T14:25:54Z</time>
      </trkpt>
      <trkpt lat="37.212430005893111" lon="-8.729154020547867">
        <ele>170.28999999999999</ele>
        <time>2025-05-06T14:25:55Z</time>
      </trkpt>
      <trkpt lat="37.212366973981261" lon="-8.729262985289097">
        <ele>170.77000000000001</ele>
        <time>2025-05-06T14:25:56Z</time>
      </trkpt>
      <trkpt lat="37.212346019223332" lon="-8.729365998879075">
        <ele>170.77000000000001</ele>
        <time>2025-05-06T14:25:57Z</time>
      </trkpt>
      <trkpt lat="37.212324980646372" lon="-8.729474963620305">
        <ele>170.77000000000001</ele>
        <time>2025-05-06T14:25:58Z</time>
      </trkpt>
      <trkpt lat="37.212345013394952" lon="-8.729562973603606">
        <ele>170.77000000000001</ele>
        <time>2025-05-06T14:25:59Z</time>
      </trkpt>
      <trkpt lat="37.212489014491439" lon="-8.73036696575582">
        <ele>166.93000000000001</ele>
        <time>2025-05-06T14:26:05Z</time>
      </trkpt>
      <trkpt lat="37.212474010884762" lon="-8.730528987944126">
        <ele>165.96000000000001</ele>
        <time>2025-05-06T14:26:06Z</time>
      </trkpt>
      <trkpt lat="37.212436962872744" lon="-8.730714982375503">
        <ele>165</ele>
        <time>2025-05-06T14:26:07Z</time>
      </trkpt>
      <trkpt lat="37.212397987022996" lon="-8.730912040919066">
        <ele>163.56</ele>
        <time>2025-05-06T14:26:08Z</time>
      </trkpt>
      <trkpt lat="37.212358005344868" lon="-8.731110021471977">
        <ele>162.12</ele>
        <time>2025-05-06T14:26:09Z</time>
      </trkpt>
      <trkpt lat="37.212264966219664" lon="-8.731628023087978">
        <ele>157.78999999999999</ele>
        <time>2025-05-06T14:26:12Z</time>
      </trkpt>
      <trkpt lat="37.212291033938527" lon="-8.731766995042563">
        <ele>156.83000000000001</ele>
        <time>2025-05-06T14:26:13Z</time>
      </trkpt>
      <trkpt lat="37.212339984253049" lon="-8.731908984482288">
        <ele>155.87</ele>
        <time>2025-05-06T14:26:14Z</time>
      </trkpt>
      <trkpt lat="37.212879024446011" lon="-8.733026962727308">
        <ele>148.18000000000001</ele>
        <time>2025-05-06T14:26:21Z</time>
      </trkpt>
      <trkpt lat="37.212968040257692" lon="-8.733294010162354">
        <ele>145.30000000000001</ele>
        <time>2025-05-06T14:26:23Z</time>
      </trkpt>
      <trkpt lat="37.212968040257692" lon="-8.73345997184515">
        <ele>143.84999999999999</ele>
        <time>2025-05-06T14:26:24Z</time>
      </trkpt>
      <trkpt lat="37.212947001680732" lon="-8.733606990426779">
        <ele>141.93000000000001</ele>
        <time>2025-05-06T14:26:25Z</time>
      </trkpt>
      <trkpt lat="37.212906014174223" lon="-8.733759038150311">
        <ele>140.97</ele>
        <time>2025-05-06T14:26:26Z</time>
      </trkpt>
      <trkpt lat="37.212865026667714" lon="-8.73390999622643">
        <ele>139.53</ele>
        <time>2025-05-06T14:26:27Z</time>
      </trkpt>
      <trkpt lat="37.212810041382909" lon="-8.734043017029762">
        <ele>138.09</ele>
        <time>2025-05-06T14:26:28Z</time>
      </trkpt>
      <trkpt lat="37.212735023349524" lon="-8.734148964285851">
        <ele>136.63999999999999</ele>
        <time>2025-05-06T14:26:29Z</time>
      </trkpt>
      <trkpt lat="37.212641984224319" lon="-8.734215013682842">
        <ele>135.19999999999999</ele>
        <time>2025-05-06T14:26:30Z</time>
      </trkpt>
      <trkpt lat="37.212526984512806" lon="-8.734293971210718">
        <ele>133.75999999999999</ele>
        <time>2025-05-06T14:26:31Z</time>
      </trkpt>
      <trkpt lat="37.212395975366235" lon="-8.734384998679161">
        <ele>132.31999999999999</ele>
        <time>2025-05-06T14:26:32Z</time>
      </trkpt>
      <trkpt lat="37.212251974269748" lon="-8.734484994783998">
        <ele>130.88</ele>
        <time>2025-05-06T14:26:33Z</time>
      </trkpt>
      <trkpt lat="37.2121059615165" lon="-8.734608963131905">
        <ele>128.94999999999999</ele>
        <time>2025-05-06T14:26:34Z</time>
      </trkpt>
      <trkpt lat="37.211961960420012" lon="-8.734757993370295">
        <ele>127.03</ele>
        <time>2025-05-06T14:26:35Z</time>
      </trkpt>
      <trkpt lat="37.211538003757596" lon="-8.735195025801659">
        <ele>121.26000000000001</ele>
        <time>2025-05-06T14:26:38Z</time>
      </trkpt>
      <trkpt lat="37.211390985175967" lon="-8.735323017463088">
        <ele>118.86</ele>
        <time>2025-05-06T14:26:39Z</time>
      </trkpt>
      <trkpt lat="37.211232986301184" lon="-8.735453020781279">
        <ele>116.94</ele>
        <time>2025-05-06T14:26:40Z</time>
      </trkpt>
      <trkpt lat="37.211063001304865" lon="-8.735571959987283">
        <ele>114.53</ele>
        <time>2025-05-06T14:26:41Z</time>
      </trkpt>
      <trkpt lat="37.210881030187011" lon="-8.735674973577261">
        <ele>111.65000000000001</ele>
        <time>2025-05-06T14:26:42Z</time>
      </trkpt>
      <trkpt lat="37.209796998649836" lon="-8.736594971269369">
        <ele>103.95999999999999</ele>
        <time>2025-05-06T14:26:49Z</time>
      </trkpt>
      <trkpt lat="37.209543026983738" lon="-8.736898982897401">
        <ele>103.48</ele>
        <time>2025-05-06T14:26:51Z</time>
      </trkpt>
      <trkpt lat="37.209315039217472" lon="-8.737178016453981">
        <ele>102.04000000000001</ele>
        <time>2025-05-06T14:26:53Z</time>
      </trkpt>
      <trkpt lat="37.209208002313972" lon="-8.737308019772172">
        <ele>101.08</ele>
        <time>2025-05-06T14:26:54Z</time>
      </trkpt>
      <trkpt lat="37.208676002919674" lon="-8.737722001969814">
        <ele>96.75</ele>
        <time>2025-05-06T14:26:59Z</time>
      </trkpt>
      <trkpt lat="37.208578018471599" lon="-8.73775796033442">
        <ele>96.269999999999996</ele>
        <time>2025-05-06T14:27:00Z</time>
      </trkpt>
      <trkpt lat="37.208480034023523" lon="-8.737786039710045">
        <ele>95.310000000000002</ele>
        <time>2025-05-06T14:27:01Z</time>
      </trkpt>
      <trkpt lat="37.208225978538394" lon="-8.737886035814881">
        <ele>94.829999999999998</ele>
        <time>2025-05-06T14:27:04Z</time>
      </trkpt>
      <trkpt lat="37.208155989646912" lon="-8.737967004999518">
        <ele>94.349999999999994</ele>
        <time>2025-05-06T14:27:05Z</time>
      </trkpt>
      <trkpt lat="37.208086000755429" lon="-8.738047974184156">
        <ele>93.870000000000005</ele>
        <time>2025-05-06T14:27:06Z</time>
      </trkpt>
      <trkpt lat="37.208015006035566" lon="-8.738129027187824">
        <ele>93.390000000000001</ele>
        <time>2025-05-06T14:27:07Z</time>
      </trkpt>
      <trkpt lat="37.207944011315703" lon="-8.7382079847157">
        <ele>92.420000000000002</ele>
        <time>2025-05-06T14:27:08Z</time>
      </trkpt>
      <trkpt lat="37.207834962755442" lon="-8.7382079847157">
        <ele>91.459999999999994</ele>
        <time>2025-05-06T14:27:09Z</time>
      </trkpt>
      <trkpt lat="37.207706971094012" lon="-8.7382079847157">
        <ele>89.540000000000006</ele>
        <time>2025-05-06T14:27:10Z</time>
      </trkpt>
      <trkpt lat="37.207566993311048" lon="-8.7382079847157">
        <ele>88.579999999999998</ele>
        <time>2025-05-06T14:27:11Z</time>
      </trkpt>
      <trkpt lat="37.206333009526134" lon="-8.738189963623881">
        <ele>82.810000000000002</ele>
        <time>2025-05-06T14:27:19Z</time>
      </trkpt>
      <trkpt lat="37.205316033214331" lon="-8.73850797303021">
        <ele>82.329999999999998</ele>
        <time>2025-05-06T14:27:26Z</time>
      </trkpt>
      <trkpt lat="37.205249983817339" lon="-8.738588020205498">
        <ele>82.329999999999998</ele>
        <time>2025-05-06T14:27:27Z</time>
      </trkpt>
      <trkpt lat="37.205196004360914" lon="-8.738674018532038">
        <ele>82.810000000000002</ele>
        <time>2025-05-06T14:27:28Z</time>
      </trkpt>
      <trkpt lat="37.20518502406776" lon="-8.73876596800983">
        <ele>83.290000000000006</ele>
        <time>2025-05-06T14:27:29Z</time>
      </trkpt>
      <trkpt lat="37.205194998532534" lon="-8.738885996863246">
        <ele>84.25</ele>
        <time>2025-05-06T14:27:30Z</time>
      </trkpt>
      <trkpt lat="37.205221988260746" lon="-8.739017006009817">
        <ele>85.209999999999994</ele>
        <time>2025-05-06T14:27:31Z</time>
      </trkpt>
      <trkpt lat="37.205276973545551" lon="-8.739169975742698">
        <ele>87.140000000000001</ele>
        <time>2025-05-06T14:27:32Z</time>
      </trkpt>
      <trkpt lat="37.205335982143879" lon="-8.739331997931004">
        <ele>89.060000000000002</ele>
        <time>2025-05-06T14:27:33Z</time>
      </trkpt>
      <trkpt lat="37.205411000177264" lon="-8.739486979320645">
        <ele>91.459999999999994</ele>
        <time>2025-05-06T14:27:34Z</time>
      </trkpt>
      <trkpt lat="37.20550898462534" lon="-8.739627962931991">
        <ele>93.390000000000001</ele>
        <time>2025-05-06T14:27:35Z</time>
      </trkpt>
      <trkpt lat="37.205625995993614" lon="-8.739761989563704">
        <ele>96.269999999999996</ele>
        <time>2025-05-06T14:27:36Z</time>
      </trkpt>
      <trkpt lat="37.205755999311805" lon="-8.739873971790075">
        <ele>98.670000000000002</ele>
        <time>2025-05-06T14:27:37Z</time>
      </trkpt>
      <trkpt lat="37.20587401650846" lon="-8.739974973723292">
        <ele>101.56</ele>
        <time>2025-05-06T14:27:38Z</time>
      </trkpt>
      <trkpt lat="37.206583963707089" lon="-8.740532035008073">
        <ele>116.94</ele>
        <time>2025-05-06T14:27:46Z</time>
      </trkpt>
      <trkpt lat="37.207504967227578" lon="-8.740966971963644">
        <ele>126.06999999999999</ele>
        <time>2025-05-06T14:27:55Z</time>
      </trkpt>
      <trkpt lat="37.20770101994276" lon="-8.741137962788343">
        <ele>127.98999999999999</ele>
        <time>2025-05-06T14:27:57Z</time>
      </trkpt>
      <trkpt lat="37.207788024097681" lon="-8.741246005520225">
        <ele>128.94999999999999</ele>
        <time>2025-05-06T14:27:58Z</time>
      </trkpt>
      <trkpt lat="37.20787301659584" lon="-8.74136402271688">
        <ele>129.43000000000001</ele>
        <time>2025-05-06T14:27:59Z</time>
      </trkpt>
      <trkpt lat="37.207958009094" lon="-8.741481034085155">
        <ele>130.40000000000001</ele>
        <time>2025-05-06T14:28:00Z</time>
      </trkpt>
      <trkpt lat="37.20804400742054" lon="-8.741599973291159">
        <ele>131.84</ele>
        <time>2025-05-06T14:28:01Z</time>
      </trkpt>
      <trkpt lat="37.20813000574708" lon="-8.741718996316195">
        <ele>132.80000000000001</ele>
        <time>2025-05-06T14:28:02Z</time>
      </trkpt>
      <trkpt lat="37.208218015730381" lon="-8.741841036826372">
        <ele>133.28</ele>
        <time>2025-05-06T14:28:03Z</time>
      </trkpt>
      <trkpt lat="37.209197022020817" lon="-8.742971001192927">
        <ele>135.68000000000001</ele>
        <time>2025-05-06T14:28:14Z</time>
      </trkpt>
      <trkpt lat="37.209256030619144" lon="-8.743072003126144">
        <ele>135.68000000000001</ele>
        <time>2025-05-06T14:28:15Z</time>
      </trkpt>
      <trkpt lat="37.209301963448524" lon="-8.743194965645671">
        <ele>135.68000000000001</ele>
        <time>2025-05-06T14:28:16Z</time>
      </trkpt>
      <trkpt lat="37.209347980096936" lon="-8.743318011984229">
        <ele>135.68000000000001</ele>
        <time>2025-05-06T14:28:17Z</time>
      </trkpt>
      <trkpt lat="37.209448982030153" lon="-8.743699975311756">
        <ele>133.75999999999999</ele>
        <time>2025-05-06T14:28:20Z</time>
      </trkpt>
      <trkpt lat="37.209448982030153" lon="-8.743830984458327">
        <ele>133.28</ele>
        <time>2025-05-06T14:28:21Z</time>
      </trkpt>
      <trkpt lat="37.209448982030153" lon="-8.743937015533447">
        <ele>132.31999999999999</ele>
        <time>2025-05-06T14:28:22Z</time>
      </trkpt>
      <trkpt lat="37.209391985088587" lon="-8.744099037721753">
        <ele>131.84</ele>
        <time>2025-05-06T14:28:23Z</time>
      </trkpt>
      <trkpt lat="37.209340017288923" lon="-8.744247984141111">
        <ele>131.84</ele>
        <time>2025-05-06T14:28:24Z</time>
      </trkpt>
      <trkpt lat="37.209286959841847" lon="-8.744396008551121">
        <ele>131.36000000000001</ele>
        <time>2025-05-06T14:28:25Z</time>
      </trkpt>
      <trkpt lat="37.209191992878914" lon="-8.744796998798847">
        <ele>129.91999999999999</ele>
        <time>2025-05-06T14:28:28Z</time>
      </trkpt>
      <trkpt lat="37.209191992878914" lon="-8.744933037087321">
        <ele>129.91999999999999</ele>
        <time>2025-05-06T14:28:29Z</time>
      </trkpt>
      <trkpt lat="37.209191992878914" lon="-8.745073014870286">
        <ele>129.43000000000001</ele>
        <time>2025-05-06T14:28:30Z</time>
      </trkpt>
      <trkpt lat="37.209154022857547" lon="-8.745203018188477">
        <ele>129.43000000000001</ele>
        <time>2025-05-06T14:28:31Z</time>
      </trkpt>
      <trkpt lat="37.209085961803794" lon="-8.745332015678287">
        <ele>129.43000000000001</ele>
        <time>2025-05-06T14:28:32Z</time>
      </trkpt>
      <trkpt lat="37.208982026204467" lon="-8.745445003733039">
        <ele>129.91999999999999</ele>
        <time>2025-05-06T14:28:33Z</time>
      </trkpt>
      <trkpt lat="37.208877000957727" lon="-8.745557991787791">
        <ele>129.91999999999999</ele>
        <time>2025-05-06T14:28:34Z</time>
      </trkpt>
      <trkpt lat="37.208828972652555" lon="-8.745706016197801">
        <ele>130.40000000000001</ele>
        <time>2025-05-06T14:28:35Z</time>
      </trkpt>
      <trkpt lat="37.208808017894626" lon="-8.74583300203085">
        <ele>130.88</ele>
        <time>2025-05-06T14:28:36Z</time>
      </trkpt>
      <trkpt lat="37.208823021501303" lon="-8.745957976207137">
        <ele>130.88</ele>
        <time>2025-05-06T14:28:37Z</time>
      </trkpt>
      <trkpt lat="37.208845987915993" lon="-8.746107006445527">
        <ele>131.36000000000001</ele>
        <time>2025-05-06T14:28:38Z</time>
      </trkpt>
      <trkpt lat="37.208870965987444" lon="-8.746266011148691">
        <ele>131.36000000000001</ele>
        <time>2025-05-06T14:28:39Z</time>
      </trkpt>
      <trkpt lat="37.20898998901248" lon="-8.746726009994745">
        <ele>132.80000000000001</ele>
        <time>2025-05-06T14:28:42Z</time>
      </trkpt>
      <trkpt lat="37.209042040631175" lon="-8.746855007484555">
        <ele>133.28</ele>
        <time>2025-05-06T14:28:43Z</time>
      </trkpt>
      <trkpt lat="37.209124015644193" lon="-8.746959026902914">
        <ele>133.75999999999999</ele>
        <time>2025-05-06T14:28:44Z</time>
      </trkpt>
      <trkpt lat="37.209217976778746" lon="-8.747074026614428">
        <ele>133.75999999999999</ele>
        <time>2025-05-06T14:28:45Z</time>
      </trkpt>
      <trkpt lat="37.209338005632162" lon="-8.747171005234122">
        <ele>133.75999999999999</ele>
        <time>2025-05-06T14:28:46Z</time>
      </trkpt>
      <trkpt lat="37.210059016942978" lon="-8.747754972428083">
        <ele>131.84</ele>
        <time>2025-05-06T14:28:52Z</time>
      </trkpt>
      <trkpt lat="37.21014903858304" lon="-8.747858991846442">
        <ele>130.88</ele>
        <time>2025-05-06T14:28:53Z</time>
      </trkpt>
      <trkpt lat="37.210227996110916" lon="-8.747993018478155">
        <ele>129.91999999999999</ele>
        <time>2025-05-06T14:28:54Z</time>
      </trkpt>
      <trkpt lat="37.21070702187717" lon="-8.748815031722188">
        <ele>122.22</ele>
        <time>2025-05-06T14:29:00Z</time>
      </trkpt>
      <trkpt lat="37.210743986070156" lon="-8.748965989798307">
        <ele>120.78</ele>
        <time>2025-05-06T14:29:01Z</time>
      </trkpt>
      <trkpt lat="37.210776004940271" lon="-8.749118037521839">
        <ele>119.34</ele>
        <time>2025-05-06T14:29:02Z</time>
      </trkpt>
      <trkpt lat="37.210798971354961" lon="-8.749279975891113">
        <ele>117.42</ele>
        <time>2025-05-06T14:29:03Z</time>
      </trkpt>
      <trkpt lat="37.210788996890187" lon="-8.749449038878083">
        <ele>115.98</ele>
        <time>2025-05-06T14:29:04Z</time>
      </trkpt>
      <trkpt lat="37.210780028253794" lon="-8.749622963368893">
        <ele>115.01000000000001</ele>
        <time>2025-05-06T14:29:05Z</time>
      </trkpt>
      <trkpt lat="37.210714984685183" lon="-8.749782973900437">
        <ele>114.05</ele>
        <time>2025-05-06T14:29:06Z</time>
      </trkpt>
      <trkpt lat="37.210649019107223" lon="-8.749943990260363">
        <ele>112.61</ele>
        <time>2025-05-06T14:29:07Z</time>
      </trkpt>
      <trkpt lat="37.21058196388185" lon="-8.750107018277049">
        <ele>111.65000000000001</ele>
        <time>2025-05-06T14:29:08Z</time>
      </trkpt>
      <trkpt lat="37.21051499247551" lon="-8.750271974131465">
        <ele>110.69</ele>
        <time>2025-05-06T14:29:09Z</time>
      </trkpt>
      <trkpt lat="37.210313994437456" lon="-8.750735996291041">
        <ele>108.29000000000001</ele>
        <time>2025-05-06T14:29:12Z</time>
      </trkpt>
      <trkpt lat="37.210238976404071" lon="-8.750859964638948">
        <ele>107.81</ele>
        <time>2025-05-06T14:29:13Z</time>
      </trkpt>
      <trkpt lat="37.21014803275466" lon="-8.75092601403594">
        <ele>106.84</ele>
        <time>2025-05-06T14:29:14Z</time>
      </trkpt>
      <trkpt lat="37.210048036649823" lon="-8.750975970178843">
        <ele>106.36</ele>
        <time>2025-05-06T14:29:15Z</time>
      </trkpt>
      <trkpt lat="37.209920966997743" lon="-8.751040007919073">
        <ele>105.40000000000001</ele>
        <time>2025-05-06T14:29:16Z</time>
      </trkpt>
      <trkpt lat="37.209815019741654" lon="-8.751069009304047">
        <ele>104.44</ele>
        <time>2025-05-06T14:29:17Z</time>
      </trkpt>
      <trkpt lat="37.209316967055202" lon="-8.75120596960187">
        <ele>101.08</ele>
        <time>2025-05-06T14:29:21Z</time>
      </trkpt>
      <trkpt lat="37.209229040890932" lon="-8.751294985413551">
        <ele>100.11</ele>
        <time>2025-05-06T14:29:22Z</time>
      </trkpt>
      <trkpt lat="37.209171038120985" lon="-8.751396993175149">
        <ele>99.629999999999995</ele>
        <time>2025-05-06T14:29:23Z</time>
      </trkpt>
      <trkpt lat="37.209128038957715" lon="-8.751519033685327">
        <ele>99.629999999999995</ele>
        <time>2025-05-06T14:29:24Z</time>
      </trkpt>
      <trkpt lat="37.209084033966064" lon="-8.751639984548092">
        <ele>99.629999999999995</ele>
        <time>2025-05-06T14:29:25Z</time>
      </trkpt>
      <trkpt lat="37.209067018702626" lon="-8.751807035878301">
        <ele>100.11</ele>
        <time>2025-05-06T14:29:26Z</time>
      </trkpt>
      <trkpt lat="37.209048997610807" lon="-8.751974003389478">
        <ele>100.59999999999999</ele>
        <time>2025-05-06T14:29:27Z</time>
      </trkpt>
      <trkpt lat="37.209029970690608" lon="-8.752144994214177">
        <ele>101.08</ele>
        <time>2025-05-06T14:29:28Z</time>
      </trkpt>
      <trkpt lat="37.209031982347369" lon="-8.752302993088961">
        <ele>102.04000000000001</ele>
        <time>2025-05-06T14:29:29Z</time>
      </trkpt>
      <trkpt lat="37.209062995389104" lon="-8.752465015277267">
        <ele>103.48</ele>
        <time>2025-05-06T14:29:30Z</time>
      </trkpt>
      <trkpt lat="37.2090960200876" lon="-8.752637011930347">
        <ele>103.95999999999999</ele>
        <time>2025-05-06T14:29:31Z</time>
      </trkpt>
      <trkpt lat="37.209127033129334" lon="-8.752811020240188">
        <ele>105.40000000000001</ele>
        <time>2025-05-06T14:29:32Z</time>
      </trkpt>
      <trkpt lat="37.209127033129334" lon="-8.752985028550029">
        <ele>106.36</ele>
        <time>2025-05-06T14:29:33Z</time>
      </trkpt>
      <trkpt lat="37.209127033129334" lon="-8.753160964697599">
        <ele>107.31999999999999</ele>
        <time>2025-05-06T14:29:34Z</time>
      </trkpt>
      <trkpt lat="37.209126027300954" lon="-8.753346037119627">
        <ele>108.77</ele>
        <time>2025-05-06T14:29:35Z</time>
      </trkpt>
      <trkpt lat="37.2090960200876" lon="-8.753527002409101">
        <ele>109.73</ele>
        <time>2025-05-06T14:29:36Z</time>
      </trkpt>
      <trkpt lat="37.208888987079263" lon="-8.755239006131887">
        <ele>119.34</ele>
        <time>2025-05-06T14:29:45Z</time>
      </trkpt>
      <trkpt lat="37.208851017057896" lon="-8.755399016663432">
        <ele>120.3</ele>
        <time>2025-05-06T14:29:46Z</time>
      </trkpt>
      <trkpt lat="37.208799971267581" lon="-8.755557015538216">
        <ele>121.26000000000001</ele>
        <time>2025-05-06T14:29:47Z</time>
      </trkpt>
      <trkpt lat="37.208333015441895" lon="-8.75649000518024">
        <ele>124.15000000000001</ele>
        <time>2025-05-06T14:29:53Z</time>
      </trkpt>
      <trkpt lat="37.208237964659929" lon="-8.75659603625536">
        <ele>123.67</ele>
        <time>2025-05-06T14:29:54Z</time>
      </trkpt>
      <trkpt lat="37.207860024645925" lon="-8.757037008181214">
        <ele>121.26000000000001</ele>
        <time>2025-05-06T14:29:57Z</time>
      </trkpt>
      <trkpt lat="37.207735972478986" lon="-8.757203975692391">
        <ele>120.78</ele>
        <time>2025-05-06T14:29:58Z</time>
      </trkpt>
      <trkpt lat="37.206947989761829" lon="-8.758843978866935">
        <ele>112.13</ele>
        <time>2025-05-06T14:30:06Z</time>
      </trkpt>
      <trkpt lat="37.206624029204249" lon="-8.759501958265901">
        <ele>107.31999999999999</ele>
        <time>2025-05-06T14:30:10Z</time>
      </trkpt>
      <trkpt lat="37.206526966765523" lon="-8.759607989341021">
        <ele>106.36</ele>
        <time>2025-05-06T14:30:11Z</time>
      </trkpt>
      <trkpt lat="37.206399980932474" lon="-8.759700022637844">
        <ele>105.40000000000001</ele>
        <time>2025-05-06T14:30:12Z</time>
      </trkpt>
      <trkpt lat="37.206255979835987" lon="-8.759773029014468">
        <ele>103.95999999999999</ele>
        <time>2025-05-06T14:30:13Z</time>
      </trkpt>
      <trkpt lat="37.206103010103106" lon="-8.759837988764048">
        <ele>102.52</ele>
        <time>2025-05-06T14:30:14Z</time>
      </trkpt>
      <trkpt lat="37.205792963504791" lon="-8.759920969605446">
        <ele>101.08</ele>
        <time>2025-05-06T14:30:16Z</time>
      </trkpt>
      <trkpt lat="37.205607974901795" lon="-8.759945025667548">
        <ele>100.11</ele>
        <time>2025-05-06T14:30:17Z</time>
      </trkpt>
      <trkpt lat="37.204939015209675" lon="-8.75992801040411">
        <ele>97.230000000000004</ele>
        <time>2025-05-06T14:30:21Z</time>
      </trkpt>
      <trkpt lat="37.204772969707847" lon="-8.759923987090588">
        <ele>96.75</ele>
        <time>2025-05-06T14:30:22Z</time>
      </trkpt>
      <trkpt lat="37.204604996368289" lon="-8.759962962940335">
        <ele>96.269999999999996</ele>
        <time>2025-05-06T14:30:23Z</time>
      </trkpt>
      <trkpt lat="37.203120980411768" lon="-8.760368982329965">
        <ele>92.420000000000002</ele>
        <time>2025-05-06T14:30:31Z</time>
      </trkpt>
      <trkpt lat="37.202732982113957" lon="-8.760460009798408">
        <ele>90.5</ele>
        <time>2025-05-06T14:30:34Z</time>
      </trkpt>
      <trkpt lat="37.202642960473895" lon="-8.760460009798408">
        <ele>90.019999999999996</ele>
        <time>2025-05-06T14:30:35Z</time>
      </trkpt>
      <trkpt lat="37.202554028481245" lon="-8.760431008413434">
        <ele>88.579999999999998</ele>
        <time>2025-05-06T14:30:36Z</time>
      </trkpt>
      <trkpt lat="37.202454032376409" lon="-8.760331012308598">
        <ele>87.620000000000005</ele>
        <time>2025-05-06T14:30:37Z</time>
      </trkpt>
      <trkpt lat="37.202402986586094" lon="-8.760233027860522">
        <ele>86.659999999999997</ele>
        <time>2025-05-06T14:30:38Z</time>
      </trkpt>
      <trkpt lat="37.202327968552709" lon="-8.760091960430145">
        <ele>85.689999999999998</ele>
        <time>2025-05-06T14:30:39Z</time>
      </trkpt>
      <trkpt lat="37.202239036560059" lon="-8.759922981262207">
        <ele>84.730000000000004</ele>
        <time>2025-05-06T14:30:40Z</time>
      </trkpt>
      <trkpt lat="37.202149014919996" lon="-8.759803036227822">
        <ele>84.25</ele>
        <time>2025-05-06T14:30:41Z</time>
      </trkpt>
      <trkpt lat="37.20202999189496" lon="-8.759707985445857">
        <ele>83.769999999999996</ele>
        <time>2025-05-06T14:30:42Z</time>
      </trkpt>
      <trkpt lat="37.201895965263247" lon="-8.759635984897614">
        <ele>83.769999999999996</ele>
        <time>2025-05-06T14:30:43Z</time>
      </trkpt>
      <trkpt lat="37.201756993308663" lon="-8.759583011269569">
        <ele>83.769999999999996</ele>
        <time>2025-05-06T14:30:44Z</time>
      </trkpt>
      <trkpt lat="37.201617015525699" lon="-8.759547974914312">
        <ele>83.290000000000006</ele>
        <time>2025-05-06T14:30:45Z</time>
      </trkpt>
      <trkpt lat="37.201476031914353" lon="-8.759528025984764">
        <ele>83.290000000000006</ele>
        <time>2025-05-06T14:30:46Z</time>
      </trkpt>
      <trkpt lat="37.201337981969118" lon="-8.759515034034848">
        <ele>83.290000000000006</ele>
        <time>2025-05-06T14:30:47Z</time>
      </trkpt>
      <trkpt lat="37.201193980872631" lon="-8.759534982964397">
        <ele>83.290000000000006</ele>
        <time>2025-05-06T14:30:48Z</time>
      </trkpt>
      <trkpt lat="37.201047968119383" lon="-8.759555015712977">
        <ele>83.290000000000006</ele>
        <time>2025-05-06T14:30:49Z</time>
      </trkpt>
      <trkpt lat="37.200740016996861" lon="-8.759598014876247">
        <ele>82.810000000000002</ele>
        <time>2025-05-06T14:30:51Z</time>
      </trkpt>
      <trkpt lat="37.200572965666652" lon="-8.759585022926331">
        <ele>82.810000000000002</ele>
        <time>2025-05-06T14:30:52Z</time>
      </trkpt>
      <trkpt lat="37.19944903627038" lon="-8.759481003507972">
        <ele>82.329999999999998</ele>
        <time>2025-05-06T14:30:58Z</time>
      </trkpt>
      <trkpt lat="37.199260024353862" lon="-8.759490977972746">
        <ele>82.329999999999998</ele>
        <time>2025-05-06T14:30:59Z</time>
      </trkpt>
      <trkpt lat="37.197365965694189" lon="-8.759933039546013">
        <ele>78.969999999999999</ele>
        <time>2025-05-06T14:31:09Z</time>
      </trkpt>
      <trkpt lat="37.197207966819406" lon="-8.75999397598207">
        <ele>78.480000000000004</ele>
        <time>2025-05-06T14:31:10Z</time>
      </trkpt>
      <trkpt lat="37.197064971551299" lon="-8.760060025379062">
        <ele>78</ele>
        <time>2025-05-06T14:31:11Z</time>
      </trkpt>
      <trkpt lat="37.196641014888883" lon="-8.760350039228797">
        <ele>79.450000000000003</ele>
        <time>2025-05-06T14:31:16Z</time>
      </trkpt>
      <trkpt lat="37.196597009897232" lon="-8.760393960401416">
        <ele>79.930000000000007</ele>
        <time>2025-05-06T14:31:17Z</time>
      </trkpt>
      <trkpt lat="37.196567002683878" lon="-8.76042396761477">
        <ele>80.409999999999997</ele>
        <time>2025-05-06T14:31:18Z</time>
      </trkpt>
      <trkpt lat="37.196516040712595" lon="-8.76050996594131">
        <ele>80.890000000000001</ele>
        <time>2025-05-06T14:31:19Z</time>
      </trkpt>
      <trkpt lat="37.196522997692227" lon="-8.760543996468186">
        <ele>81.849999999999994</ele>
        <time>2025-05-06T14:31:20Z</time>
      </trkpt>
      <trkpt lat="37.196522997692227" lon="-8.760543996468186">
        <ele>82.329999999999998</ele>
        <time>2025-05-06T14:31:21Z</time>
      </trkpt>
      <trkpt lat="37.196642020717263" lon="-8.760598981752992">
        <ele>84.730000000000004</ele>
        <time>2025-05-06T14:31:26Z</time>
      </trkpt>
      <trkpt lat="37.196716032922268" lon="-8.760607028380036">
        <ele>84.730000000000004</ele>
        <time>2025-05-06T14:31:27Z</time>
      </trkpt>
      <trkpt lat="37.196812005713582" lon="-8.760609962046146">
        <ele>85.209999999999994</ele>
        <time>2025-05-06T14:31:28Z</time>
      </trkpt>
      <trkpt lat="37.197586996480823" lon="-8.760603005066514">
        <ele>86.659999999999997</ele>
        <time>2025-05-06T14:31:33Z</time>
      </trkpt>
      <trkpt lat="37.199166985228658" lon="-8.760503008961678">
        <ele>91.459999999999994</ele>
        <time>2025-05-06T14:31:40Z</time>
      </trkpt>
      <trkpt lat="37.199632013216615" lon="-8.760539973154664">
        <ele>93.390000000000001</ele>
        <time>2025-05-06T14:31:42Z</time>
      </trkpt>
      <trkpt lat="37.199847009032965" lon="-8.760607028380036">
        <ele>94.829999999999998</ele>
        <time>2025-05-06T14:31:43Z</time>
      </trkpt>
      <trkpt lat="37.20005102455616" lon="-8.760691015049815">
        <ele>95.790000000000006</ele>
        <time>2025-05-06T14:31:44Z</time>
      </trkpt>
      <trkpt lat="37.200247999280691" lon="-8.760772990062833">
        <ele>96.269999999999996</ele>
        <time>2025-05-06T14:31:45Z</time>
      </trkpt>
      <trkpt lat="37.200433993712068" lon="-8.760819006711245">
        <ele>97.230000000000004</ele>
        <time>2025-05-06T14:31:46Z</time>
      </trkpt>
      <trkpt lat="37.200617976486683" lon="-8.760801991447806">
        <ele>98.189999999999998</ele>
        <time>2025-05-06T14:31:47Z</time>
      </trkpt>
      <trkpt lat="37.200800031423569" lon="-8.760785982012749">
        <ele>98.670000000000002</ele>
        <time>2025-05-06T14:31:48Z</time>
      </trkpt>
      <trkpt lat="37.200991977006197" lon="-8.76076796092093">
        <ele>98.670000000000002</ele>
        <time>2025-05-06T14:31:49Z</time>
      </trkpt>
      <trkpt lat="37.201194986701012" lon="-8.760791011154652">
        <ele>99.150000000000006</ele>
        <time>2025-05-06T14:31:50Z</time>
      </trkpt>
      <trkpt lat="37.201399002224207" lon="-8.760845996439457">
        <ele>99.629999999999995</ele>
        <time>2025-05-06T14:31:51Z</time>
      </trkpt>
      <trkpt lat="37.201597988605499" lon="-8.760898970067501">
        <ele>100.11</ele>
        <time>2025-05-06T14:31:52Z</time>
      </trkpt>
      <trkpt lat="37.201773002743721" lon="-8.760999972000718">
        <ele>101.08</ele>
        <time>2025-05-06T14:31:53Z</time>
      </trkpt>
      <trkpt lat="37.201926978304982" lon="-8.761121006682515">
        <ele>102.52</ele>
        <time>2025-05-06T14:31:54Z</time>
      </trkpt>
      <trkpt lat="37.202046001330018" lon="-8.761274982243776">
        <ele>103.48</ele>
        <time>2025-05-06T14:31:55Z</time>
      </trkpt>
      <trkpt lat="37.202126970514655" lon="-8.761485032737255">
        <ele>104.44</ele>
        <time>2025-05-06T14:31:56Z</time>
      </trkpt>
      <trkpt lat="37.202211963012815" lon="-8.761705979704857">
        <ele>105.88</ele>
        <time>2025-05-06T14:31:57Z</time>
      </trkpt>
      <trkpt lat="37.202302990481257" lon="-8.761941008269787">
        <ele>106.84</ele>
        <time>2025-05-06T14:31:58Z</time>
      </trkpt>
      <trkpt lat="37.202751003205776" lon="-8.762883972376585">
        <ele>110.69</ele>
        <time>2025-05-06T14:32:02Z</time>
      </trkpt>
      <trkpt lat="37.204308025538921" lon="-8.765005012974143">
        <ele>127.98999999999999</ele>
        <time>2025-05-06T14:32:12Z</time>
      </trkpt>
      <trkpt lat="37.204618994146585" lon="-8.765383958816528">
        <ele>130.88</ele>
        <time>2025-05-06T14:32:14Z</time>
      </trkpt>
      <trkpt lat="37.204807000234723" lon="-8.765501976013184">
        <ele>132.31999999999999</ele>
        <time>2025-05-06T14:32:15Z</time>
      </trkpt>
      <trkpt lat="37.20499400049448" lon="-8.765585962682962">
        <ele>133.75999999999999</ele>
        <time>2025-05-06T14:32:16Z</time>
      </trkpt>
      <trkpt lat="37.205176977440715" lon="-8.765641031786799">
        <ele>135.19999999999999</ele>
        <time>2025-05-06T14:32:17Z</time>
      </trkpt>
      <trkpt lat="37.205366995185614" lon="-8.765662992373109">
        <ele>135.68000000000001</ele>
        <time>2025-05-06T14:32:18Z</time>
      </trkpt>
      <trkpt lat="37.205553995445371" lon="-8.765685958787799">
        <ele>136.63999999999999</ele>
        <time>2025-05-06T14:32:19Z</time>
      </trkpt>
      <trkpt lat="37.205905029550195" lon="-8.765727030113339">
        <ele>138.09</ele>
        <time>2025-05-06T14:32:21Z</time>
      </trkpt>
      <trkpt lat="37.206054981797934" lon="-8.765763994306326">
        <ele>139.05000000000001</ele>
        <time>2025-05-06T14:32:22Z</time>
      </trkpt>
      <trkpt lat="37.206200994551182" lon="-8.765827026218176">
        <ele>139.53</ele>
        <time>2025-05-06T14:32:23Z</time>
      </trkpt>
      <trkpt lat="37.206457983702421" lon="-8.765981001779437">
        <ele>140.97</ele>
        <time>2025-05-06T14:32:25Z</time>
      </trkpt>
      <trkpt lat="37.206560997292399" lon="-8.766090972349048">
        <ele>141.44999999999999</ele>
        <time>2025-05-06T14:32:26Z</time>
      </trkpt>
      <trkpt lat="37.206654036417603" lon="-8.766228016465902">
        <ele>141.93000000000001</ele>
        <time>2025-05-06T14:32:27Z</time>
      </trkpt>
      <trkpt lat="37.206746991723776" lon="-8.766367994248867">
        <ele>142.41</ele>
        <time>2025-05-06T14:32:28Z</time>
      </trkpt>
      <trkpt lat="37.206793008372188" lon="-8.766556000337005">
        <ele>142.88999999999999</ele>
        <time>2025-05-06T14:32:29Z</time>
      </trkpt>
      <trkpt lat="37.206839025020599" lon="-8.766744006425142">
        <ele>142.88999999999999</ele>
        <time>2025-05-06T14:32:30Z</time>
      </trkpt>
      <trkpt lat="37.207177989184856" lon="-8.768084021285176">
        <ele>144.81999999999999</ele>
        <time>2025-05-06T14:32:37Z</time>
      </trkpt>
      <trkpt lat="37.207262981683016" lon="-8.768254006281495">
        <ele>145.78</ele>
        <time>2025-05-06T14:32:38Z</time>
      </trkpt>
      <trkpt lat="37.207358032464981" lon="-8.768407981842756">
        <ele>147.22</ele>
        <time>2025-05-06T14:32:39Z</time>
      </trkpt>
      <trkpt lat="37.207477977499366" lon="-8.768519964069128">
        <ele>148.18000000000001</ele>
        <time>2025-05-06T14:32:40Z</time>
      </trkpt>
      <trkpt lat="37.207602029666305" lon="-8.768635969609022">
        <ele>149.62</ele>
        <time>2025-05-06T14:32:41Z</time>
      </trkpt>
      <trkpt lat="37.207742007449269" lon="-8.768724985420704">
        <ele>151.06</ele>
        <time>2025-05-06T14:32:42Z</time>
      </trkpt>
      <trkpt lat="37.207889026030898" lon="-8.768798997625709">
        <ele>152.50999999999999</ele>
        <time>2025-05-06T14:32:43Z</time>
      </trkpt>
      <trkpt lat="37.208033027127385" lon="-8.768870998173952">
        <ele>153.94999999999999</ele>
        <time>2025-05-06T14:32:44Z</time>
      </trkpt>
      <trkpt lat="37.208177028223872" lon="-8.768908968195319">
        <ele>154.91</ele>
        <time>2025-05-06T14:32:45Z</time>
      </trkpt>
      <trkpt lat="37.208333015441895" lon="-8.768935035914183">
        <ele>156.34999999999999</ele>
        <time>2025-05-06T14:32:46Z</time>
      </trkpt>
      <trkpt lat="37.208464024588466" lon="-8.768911985680461">
        <ele>157.78999999999999</ele>
        <time>2025-05-06T14:32:47Z</time>
      </trkpt>
      <trkpt lat="37.208600984886289" lon="-8.76888801343739">
        <ele>159.24000000000001</ele>
        <time>2025-05-06T14:32:48Z</time>
      </trkpt>
      <trkpt lat="37.208867026492953" lon="-8.768839985132217">
        <ele>161.63999999999999</ele>
        <time>2025-05-06T14:32:50Z</time>
      </trkpt>
      <trkpt lat="37.208994012326002" lon="-8.768849959596992">
        <ele>163.08000000000001</ele>
        <time>2025-05-06T14:32:51Z</time>
      </trkpt>
      <trkpt lat="37.20911898650229" lon="-8.768895976245403">
        <ele>164.52000000000001</ele>
        <time>2025-05-06T14:32:52Z</time>
      </trkpt>
      <trkpt lat="37.209245972335339" lon="-8.768942998722196">
        <ele>165.96000000000001</ele>
        <time>2025-05-06T14:32:53Z</time>
      </trkpt>
      <trkpt lat="37.209360972046852" lon="-8.768998989835382">
        <ele>166.93000000000001</ele>
        <time>2025-05-06T14:32:54Z</time>
      </trkpt>
      <trkpt lat="37.209460968151689" lon="-8.769108038395643">
        <ele>167.88999999999999</ele>
        <time>2025-05-06T14:32:55Z</time>
      </trkpt>
      <trkpt lat="37.209577979519963" lon="-8.769236030057073">
        <ele>168.84999999999999</ele>
        <time>2025-05-06T14:32:56Z</time>
      </trkpt>
      <trkpt lat="37.209642017260194" lon="-8.769371984526515">
        <ele>169.81</ele>
        <time>2025-05-06T14:32:57Z</time>
      </trkpt>
      <trkpt lat="37.209716029465199" lon="-8.769528977572918">
        <ele>170.77000000000001</ele>
        <time>2025-05-06T14:32:58Z</time>
      </trkpt>
      <trkpt lat="37.210248028859496" lon="-8.770635975524783">
        <ele>178.94</ele>
        <time>2025-05-06T14:33:05Z</time>
      </trkpt>
      <trkpt lat="37.210361016914248" lon="-8.770748041570187">
        <ele>179.90000000000001</ele>
        <time>2025-05-06T14:33:06Z</time>
      </trkpt>
      <trkpt lat="37.210476016625762" lon="-8.7708630412817">
        <ele>180.87</ele>
        <time>2025-05-06T14:33:07Z</time>
      </trkpt>
      <trkpt lat="37.21060199663043" lon="-8.770964965224266">
        <ele>181.83000000000001</ele>
        <time>2025-05-06T14:33:08Z</time>
      </trkpt>
      <trkpt lat="37.210736023262143" lon="-8.771068984642625">
        <ele>182.78999999999999</ele>
        <time>2025-05-06T14:33:09Z</time>
      </trkpt>
      <trkpt lat="37.21085999161005" lon="-8.771195970475674">
        <ele>183.75</ele>
        <time>2025-05-06T14:33:10Z</time>
      </trkpt>
      <trkpt lat="37.210982032120228" lon="-8.77133603207767">
        <ele>184.71000000000001</ele>
        <time>2025-05-06T14:33:11Z</time>
      </trkpt>
      <trkpt lat="37.211092002689838" lon="-8.771490007638931">
        <ele>185.66999999999999</ele>
        <time>2025-05-06T14:33:12Z</time>
      </trkpt>
      <trkpt lat="37.2115049790591" lon="-8.772366000339389">
        <ele>190.96000000000001</ele>
        <time>2025-05-06T14:33:17Z</time>
      </trkpt>
      <trkpt lat="37.21156700514257" lon="-8.77256297506392">
        <ele>191.91999999999999</ele>
        <time>2025-05-06T14:33:18Z</time>
      </trkpt>
      <trkpt lat="37.211587959900498" lon="-8.772771013900638">
        <ele>192.88</ele>
        <time>2025-05-06T14:33:19Z</time>
      </trkpt>
      <trkpt lat="37.211595000699162" lon="-8.772983998060226">
        <ele>194.31999999999999</ele>
        <time>2025-05-06T14:33:20Z</time>
      </trkpt>
      <trkpt lat="37.211595000699162" lon="-8.773204023018479">
        <ele>195.28</ele>
        <time>2025-05-06T14:33:21Z</time>
      </trkpt>
      <trkpt lat="37.211595000699162" lon="-8.773425975814462">
        <ele>196.72999999999999</ele>
        <time>2025-05-06T14:33:22Z</time>
      </trkpt>
      <trkpt lat="37.211595000699162" lon="-8.774111028760672">
        <ele>200.09</ele>
        <time>2025-05-06T14:33:25Z</time>
      </trkpt>
      <trkpt lat="37.211647974327207" lon="-8.774329964071512">
        <ele>201.05000000000001</ele>
        <time>2025-05-06T14:33:26Z</time>
      </trkpt>
      <trkpt lat="37.211702959612012" lon="-8.774541020393372">
        <ele>202.00999999999999</ele>
        <time>2025-05-06T14:33:27Z</time>
      </trkpt>
      <trkpt lat="37.212283993139863" lon="-8.77580601722002">
        <ele>209.69999999999999</ele>
        <time>2025-05-06T14:33:34Z</time>
      </trkpt>
      <trkpt lat="37.212406033650041" lon="-8.775941971689463">
        <ele>210.66999999999999</ele>
        <time>2025-05-06T14:33:35Z</time>
      </trkpt>
      <trkpt lat="37.212550034746528" lon="-8.776035010814667">
        <ele>211.63</ele>
        <time>2025-05-06T14:33:36Z</time>
      </trkpt>
      <trkpt lat="37.212710967287421" lon="-8.776101982221007">
        <ele>213.06999999999999</ele>
        <time>2025-05-06T14:33:37Z</time>
      </trkpt>
      <trkpt lat="37.212866032496095" lon="-8.776136012747884">
        <ele>214.03</ele>
        <time>2025-05-06T14:33:38Z</time>
      </trkpt>
      <trkpt lat="37.213024031370878" lon="-8.776169959455729">
        <ele>215.47</ele>
        <time>2025-05-06T14:33:39Z</time>
      </trkpt>
      <trkpt lat="37.213181024417281" lon="-8.776203989982605">
        <ele>216.43000000000001</ele>
        <time>2025-05-06T14:33:40Z</time>
      </trkpt>
      <trkpt lat="37.213327037170529" lon="-8.776290994137526">
        <ele>217.88</ele>
        <time>2025-05-06T14:33:41Z</time>
      </trkpt>
      <trkpt lat="37.213479001075029" lon="-8.776391996070743">
        <ele>219.31999999999999</ele>
        <time>2025-05-06T14:33:42Z</time>
      </trkpt>
      <trkpt lat="37.215037029236555" lon="-8.777468986809254">
        <ele>230.37</ele>
        <time>2025-05-06T14:33:52Z</time>
      </trkpt>
      <trkpt lat="37.216151989996433" lon="-8.77812503837049">
        <ele>235.18000000000001</ele>
        <time>2025-05-06T14:34:00Z</time>
      </trkpt>
      <trkpt lat="37.216409984976053" lon="-8.778230985626578">
        <ele>236.13999999999999</ele>
        <time>2025-05-06T14:34:05Z</time>
      </trkpt>
      <trkpt lat="37.216293979436159" lon="-8.778325030580163">
        <ele>236.62</ele>
        <time>2025-05-06T14:34:06Z</time>
      </trkpt>
      <trkpt lat="37.216293979436159" lon="-8.778402982279658">
        <ele>236.62</ele>
        <time>2025-05-06T14:34:07Z</time>
      </trkpt>
      <trkpt lat="37.216293979436159" lon="-8.778489986434579">
        <ele>236.13999999999999</ele>
        <time>2025-05-06T14:34:08Z</time>
      </trkpt>
      <trkpt lat="37.216293979436159" lon="-8.77860096283257">
        <ele>235.66</ele>
        <time>2025-05-06T14:34:09Z</time>
      </trkpt>
      <trkpt lat="37.216293979436159" lon="-8.778745969757438">
        <ele>235.18000000000001</ele>
        <time>2025-05-06T14:34:10Z</time>
      </trkpt>
      <trkpt lat="37.216293979436159" lon="-8.778918972238898">
        <ele>234.69999999999999</ele>
        <time>2025-05-06T14:34:11Z</time>
      </trkpt>
      <trkpt lat="37.216293979436159" lon="-8.779115024954081">
        <ele>233.74000000000001</ele>
        <time>2025-05-06T14:34:12Z</time>
      </trkpt>
      <trkpt lat="37.216274030506611" lon="-8.779555996879935">
        <ele>231.81</ele>
        <time>2025-05-06T14:34:14Z</time>
      </trkpt>
      <trkpt lat="37.216238994151354" lon="-8.779788007959724">
        <ele>230.84999999999999</ele>
        <time>2025-05-06T14:34:15Z</time>
      </trkpt>
      <trkpt lat="37.215944034978747" lon="-8.780971029773355">
        <ele>224.61000000000001</ele>
        <time>2025-05-06T14:34:20Z</time>
      </trkpt>
      <trkpt lat="37.215853007510304" lon="-8.78117898479104">
        <ele>223.63999999999999</ele>
        <time>2025-05-06T14:34:21Z</time>
      </trkpt>
      <trkpt lat="37.215661983937025" lon="-8.781631020829082">
        <ele>220.28</ele>
        <time>2025-05-06T14:34:23Z</time>
      </trkpt>
      <trkpt lat="37.215162003412843" lon="-8.783270018175244">
        <ele>207.78</ele>
        <time>2025-05-06T14:34:30Z</time>
      </trkpt>
      <trkpt lat="37.215121015906334" lon="-8.783491970971227">
        <ele>205.86000000000001</ele>
        <time>2025-05-06T14:34:31Z</time>
      </trkpt>
      <trkpt lat="37.215144988149405" lon="-8.783704033121467">
        <ele>204.41999999999999</ele>
        <time>2025-05-06T14:34:32Z</time>
      </trkpt>
      <trkpt lat="37.215182036161423" lon="-8.783920034766197">
        <ele>202.49000000000001</ele>
        <time>2025-05-06T14:34:33Z</time>
      </trkpt>
      <trkpt lat="37.215239033102989" lon="-8.78412296064198">
        <ele>201.05000000000001</ele>
        <time>2025-05-06T14:34:34Z</time>
      </trkpt>
      <trkpt lat="37.215320002287626" lon="-8.78433502279222">
        <ele>200.09</ele>
        <time>2025-05-06T14:34:35Z</time>
      </trkpt>
      <trkpt lat="37.215548995882273" lon="-8.785009011626244">
        <ele>196.72999999999999</ele>
        <time>2025-05-06T14:34:38Z</time>
      </trkpt>
      <trkpt lat="37.215611021965742" lon="-8.785241022706032">
        <ele>196.25</ele>
        <time>2025-05-06T14:34:39Z</time>
      </trkpt>
      <trkpt lat="37.215858958661556" lon="-8.786418009549379">
        <ele>192.88</ele>
        <time>2025-05-06T14:34:44Z</time>
      </trkpt>
      <trkpt lat="37.215939005836844" lon="-8.786647003144026">
        <ele>192.40000000000001</ele>
        <time>2025-05-06T14:34:45Z</time>
      </trkpt>
      <trkpt lat="37.216029027476907" lon="-8.78689200617373">
        <ele>191.44</ele>
        <time>2025-05-06T14:34:46Z</time>
      </trkpt>
      <trkpt lat="37.216517021879554" lon="-8.788222968578339">
        <ele>187.11000000000001</ele>
        <time>2025-05-06T14:34:51Z</time>
      </trkpt>
      <trkpt lat="37.216620035469532" lon="-8.788455985486507">
        <ele>186.15000000000001</ele>
        <time>2025-05-06T14:34:52Z</time>
      </trkpt>
      <trkpt lat="37.216749032959342" lon="-8.78867500461638">
        <ele>185.19</ele>
        <time>2025-05-06T14:34:53Z</time>
      </trkpt>
      <trkpt lat="37.216890016570687" lon="-8.788879020139575">
        <ele>184.22999999999999</ele>
        <time>2025-05-06T14:34:54Z</time>
      </trkpt>
      <trkpt lat="37.217039968818426" lon="-8.78908202983439">
        <ele>183.27000000000001</ele>
        <time>2025-05-06T14:34:55Z</time>
      </trkpt>
      <trkpt lat="37.217760980129242" lon="-8.790055001154542">
        <ele>180.87</ele>
        <time>2025-05-06T14:35:00Z</time>
      </trkpt>
      <trkpt lat="37.217890983447433" lon="-8.790230015292764">
        <ele>179.90000000000001</ele>
        <time>2025-05-06T14:35:01Z</time>
      </trkpt>
      <trkpt lat="37.218519039452076" lon="-8.791094021871686">
        <ele>177.97999999999999</ele>
        <time>2025-05-06T14:35:06Z</time>
      </trkpt>
      <trkpt lat="37.218608977273107" lon="-8.791312035173178">
        <ele>177.5</ele>
        <time>2025-05-06T14:35:07Z</time>
      </trkpt>
      <trkpt lat="37.218924975022674" lon="-8.792247036471963">
        <ele>176.53999999999999</ele>
        <time>2025-05-06T14:35:11Z</time>
      </trkpt>
      <trkpt lat="37.219322025775909" lon="-8.794234972447157">
        <ele>170.77000000000001</ele>
        <time>2025-05-06T14:35:19Z</time>
      </trkpt>
      <trkpt lat="37.219627965241671" lon="-8.795218002051115">
        <ele>167.88999999999999</ele>
        <time>2025-05-06T14:35:23Z</time>
      </trkpt>
      <trkpt lat="37.219673981890082" lon="-8.79548798315227">
        <ele>167.88999999999999</ele>
        <time>2025-05-06T14:35:24Z</time>
      </trkpt>
      <trkpt lat="37.220029961317778" lon="-8.797476002946496">
        <ele>170.28999999999999</ele>
        <time>2025-05-06T14:35:31Z</time>
      </trkpt>
      <trkpt lat="37.220361968502402" lon="-8.800357030704618">
        <ele>167.41</ele>
        <time>2025-05-06T14:35:41Z</time>
      </trkpt>
      <trkpt lat="37.220470011234283" lon="-8.800784004852176">
        <ele>165.96000000000001</ele>
        <time>2025-05-06T14:35:43Z</time>
      </trkpt>
      <trkpt lat="37.220565984025598" lon="-8.800952984020114">
        <ele>165</ele>
        <time>2025-05-06T14:35:44Z</time>
      </trkpt>
      <trkpt lat="37.221439965069294" lon="-8.802137011662126">
        <ele>154.43000000000001</ele>
        <time>2025-05-06T14:35:50Z</time>
      </trkpt>
      <trkpt lat="37.221895018592477" lon="-8.802733970806003">
        <ele>151.06</ele>
        <time>2025-05-06T14:35:53Z</time>
      </trkpt>
      <trkpt lat="37.222003983333707" lon="-8.802931029349566">
        <ele>150.09999999999999</ele>
        <time>2025-05-06T14:35:54Z</time>
      </trkpt>
      <trkpt lat="37.222072966396809" lon="-8.803137978538871">
        <ele>149.62</ele>
        <time>2025-05-06T14:35:55Z</time>
      </trkpt>
      <trkpt lat="37.222113031893969" lon="-8.803356997668743">
        <ele>149.13999999999999</ele>
        <time>2025-05-06T14:35:56Z</time>
      </trkpt>
      <trkpt lat="37.222119988873601" lon="-8.80356595851481">
        <ele>149.13999999999999</ele>
        <time>2025-05-06T14:35:57Z</time>
      </trkpt>
      <trkpt lat="37.222127029672265" lon="-8.80375798791647">
        <ele>149.62</ele>
        <time>2025-05-06T14:35:58Z</time>
      </trkpt>
      <trkpt lat="37.222130969166756" lon="-8.80386795848608">
        <ele>149.62</ele>
        <time>2025-05-06T14:35:59Z</time>
      </trkpt>
      <trkpt lat="37.222220990806818" lon="-8.80403601564467">
        <ele>150.09999999999999</ele>
        <time>2025-05-06T14:36:00Z</time>
      </trkpt>
      <trkpt lat="37.222312018275261" lon="-8.804203988984227">
        <ele>150.09999999999999</ele>
        <time>2025-05-06T14:36:01Z</time>
      </trkpt>
      <trkpt lat="37.222414026036859" lon="-8.804395012557507">
        <ele>149.62</ele>
        <time>2025-05-06T14:36:02Z</time>
      </trkpt>
      <trkpt lat="37.222490971907973" lon="-8.804630041122437">
        <ele>148.66</ele>
        <time>2025-05-06T14:36:03Z</time>
      </trkpt>
      <trkpt lat="37.222562972456217" lon="-8.804873032495379">
        <ele>148.18000000000001</ele>
        <time>2025-05-06T14:36:04Z</time>
      </trkpt>
      <trkpt lat="37.223072005435824" lon="-8.80674303509295">
        <ele>141.44999999999999</ele>
        <time>2025-05-06T14:36:11Z</time>
      </trkpt>
      <trkpt lat="37.223242996260524" lon="-8.807439990341663">
        <ele>140.00999999999999</ele>
        <time>2025-05-06T14:36:14Z</time>
      </trkpt>
      <trkpt lat="37.223343998193741" lon="-8.807629002258182">
        <ele>140.00999999999999</ele>
        <time>2025-05-06T14:36:15Z</time>
      </trkpt>
      <trkpt lat="37.223451035097241" lon="-8.807831006124616">
        <ele>138.56999999999999</ele>
        <time>2025-05-06T14:36:16Z</time>
      </trkpt>
      <trkpt lat="37.223989991471171" lon="-8.808726025745273">
        <ele>132.80000000000001</ele>
        <time>2025-05-06T14:36:20Z</time>
      </trkpt>
      <trkpt lat="37.224121000617743" lon="-8.808968011289835">
        <ele>131.36000000000001</ele>
        <time>2025-05-06T14:36:21Z</time>
      </trkpt>
      <trkpt lat="37.224960029125214" lon="-8.810769030824304">
        <ele>134.72</ele>
        <time>2025-05-06T14:36:27Z</time>
      </trkpt>
      <trkpt lat="37.225747006013989" lon="-8.81256896071136">
        <ele>144.81999999999999</ele>
        <time>2025-05-06T14:36:34Z</time>
      </trkpt>
      <trkpt lat="37.226118994876742" lon="-8.813900006935">
        <ele>142.41</ele>
        <time>2025-05-06T14:36:40Z</time>
      </trkpt>
      <trkpt lat="37.226122012361884" lon="-8.814107039943337">
        <ele>141.44999999999999</ele>
        <time>2025-05-06T14:36:41Z</time>
      </trkpt>
      <trkpt lat="37.226122012361884" lon="-8.814343996345997">
        <ele>140.00999999999999</ele>
        <time>2025-05-06T14:36:42Z</time>
      </trkpt>
      <trkpt lat="37.226133998483419" lon="-8.814998036250472">
        <ele>135.19999999999999</ele>
        <time>2025-05-06T14:36:45Z</time>
      </trkpt>
      <trkpt lat="37.226185966283083" lon="-8.815155029296875">
        <ele>133.75999999999999</ele>
        <time>2025-05-06T14:36:46Z</time>
      </trkpt>
      <trkpt lat="37.226269030943513" lon="-8.815281009301543">
        <ele>132.31999999999999</ele>
        <time>2025-05-06T14:36:47Z</time>
      </trkpt>
      <trkpt lat="37.226383024826646" lon="-8.815395003184676">
        <ele>131.36000000000001</ele>
        <time>2025-05-06T14:36:48Z</time>
      </trkpt>
      <trkpt lat="37.226526020094752" lon="-8.815496005117893">
        <ele>130.88</ele>
        <time>2025-05-06T14:36:49Z</time>
      </trkpt>
      <trkpt lat="37.226687958464026" lon="-8.815603964030743">
        <ele>129.91999999999999</ele>
        <time>2025-05-06T14:36:50Z</time>
      </trkpt>
      <trkpt lat="37.227010997012258" lon="-8.81583496928215">
        <ele>127.51000000000001</ele>
        <time>2025-05-06T14:36:52Z</time>
      </trkpt>
      <trkpt lat="37.227148041129112" lon="-8.815952986478806">
        <ele>127.03</ele>
        <time>2025-05-06T14:36:53Z</time>
      </trkpt>
      <trkpt lat="37.227260023355484" lon="-8.816108973696828">
        <ele>126.06999999999999</ele>
        <time>2025-05-06T14:36:54Z</time>
      </trkpt>
      <trkpt lat="37.227363958954811" lon="-8.816278036683798">
        <ele>126.06999999999999</ele>
        <time>2025-05-06T14:36:55Z</time>
      </trkpt>
      <trkpt lat="37.227440988644958" lon="-8.816482974216342">
        <ele>125.59</ele>
        <time>2025-05-06T14:36:56Z</time>
      </trkpt>
      <trkpt lat="37.227501003071666" lon="-8.816704005002976">
        <ele>126.06999999999999</ele>
        <time>2025-05-06T14:36:57Z</time>
      </trkpt>
      <trkpt lat="37.227548025548458" lon="-8.8169289752841">
        <ele>127.03</ele>
        <time>2025-05-06T14:36:58Z</time>
      </trkpt>
      <trkpt lat="37.227580966427922" lon="-8.817139025777578">
        <ele>127.98999999999999</ele>
        <time>2025-05-06T14:36:59Z</time>
      </trkpt>
      <trkpt lat="37.227580966427922" lon="-8.817333988845348">
        <ele>128.47</ele>
        <time>2025-05-06T14:37:00Z</time>
      </trkpt>
      <trkpt lat="37.227570991963148" lon="-8.817520989105105">
        <ele>128.94999999999999</ele>
        <time>2025-05-06T14:37:01Z</time>
      </trkpt>
      <trkpt lat="37.227541990578175" lon="-8.817715030163527">
        <ele>129.43000000000001</ele>
        <time>2025-05-06T14:37:02Z</time>
      </trkpt>
      <trkpt lat="37.227512989193201" lon="-8.817913010716438">
        <ele>129.91999999999999</ele>
        <time>2025-05-06T14:37:03Z</time>
      </trkpt>
      <trkpt lat="37.227263040840626" lon="-8.819413958117366">
        <ele>127.03</ele>
        <time>2025-05-06T14:37:11Z</time>
      </trkpt>
      <trkpt lat="37.227163966745138" lon="-8.820426994934678">
        <ele>123.67</ele>
        <time>2025-05-06T14:37:18Z</time>
      </trkpt>
      <trkpt lat="37.227208977565169" lon="-8.820564039051533">
        <ele>123.19</ele>
        <time>2025-05-06T14:37:19Z</time>
      </trkpt>
      <trkpt lat="37.22725298255682" lon="-8.820694964379072">
        <ele>122.22</ele>
        <time>2025-05-06T14:37:20Z</time>
      </trkpt>
      <trkpt lat="37.227431014180183" lon="-8.82127096876502">
        <ele>118.86</ele>
        <time>2025-05-06T14:37:24Z</time>
      </trkpt>
      <trkpt lat="37.227436965331435" lon="-8.821413964033127">
        <ele>117.90000000000001</ele>
        <time>2025-05-06T14:37:25Z</time>
      </trkpt>
      <trkpt lat="37.22744501195848" lon="-8.821594007313252">
        <ele>117.42</ele>
        <time>2025-05-06T14:37:26Z</time>
      </trkpt>
      <trkpt lat="37.227513995021582" lon="-8.823196040466428">
        <ele>108.29000000000001</ele>
        <time>2025-05-06T14:37:35Z</time>
      </trkpt>
      <trkpt lat="37.227550037205219" lon="-8.823337024077773">
        <ele>107.31999999999999</ele>
        <time>2025-05-06T14:37:36Z</time>
      </trkpt>
      <trkpt lat="37.227598987519741" lon="-8.823473984375596">
        <ele>106.84</ele>
        <time>2025-05-06T14:37:37Z</time>
      </trkpt>
      <trkpt lat="37.227674005553126" lon="-8.82360901683569">
        <ele>105.88</ele>
        <time>2025-05-06T14:37:38Z</time>
      </trkpt>
      <trkpt lat="37.227770984172821" lon="-8.823732985183597">
        <ele>105.40000000000001</ele>
        <time>2025-05-06T14:37:39Z</time>
      </trkpt>
      <trkpt lat="37.22794096916914" lon="-8.824030961841345">
        <ele>105.40000000000001</ele>
        <time>2025-05-06T14:37:41Z</time>
      </trkpt>
      <trkpt lat="37.228501969948411" lon="-8.825679011642933">
        <ele>104.44</ele>
        <time>2025-05-06T14:37:49Z</time>
      </trkpt>
      <trkpt lat="37.229166990146041" lon="-8.828191990032792">
        <ele>102.04000000000001</ele>
        <time>2025-05-06T14:38:00Z</time>
      </trkpt>
      <trkpt lat="37.229519030079246" lon="-8.82964700460434">
        <ele>103.95999999999999</ele>
        <time>2025-05-06T14:38:07Z</time>
      </trkpt>
      <trkpt lat="37.229592958465219" lon="-8.829921009019017">
        <ele>104.92</ele>
        <time>2025-05-06T14:38:09Z</time>
      </trkpt>
      <trkpt lat="37.229622965678573" lon="-8.830026034265757">
        <ele>105.40000000000001</ele>
        <time>2025-05-06T14:38:10Z</time>
      </trkpt>
      <trkpt lat="37.229644004255533" lon="-8.830101974308491">
        <ele>105.40000000000001</ele>
        <time>2025-05-06T14:38:11Z</time>
      </trkpt>
      <trkpt lat="37.22965800203383" lon="-8.830147990956903">
        <ele>105.40000000000001</ele>
        <time>2025-05-06T14:38:12Z</time>
      </trkpt>
      <trkpt lat="37.229665964841843" lon="-8.830176992341876">
        <ele>105.88</ele>
        <time>2025-05-06T14:38:13Z</time>
      </trkpt>
      <trkpt lat="37.229674011468887" lon="-8.83020599372685">
        <ele>105.88</ele>
        <time>2025-05-06T14:38:14Z</time>
      </trkpt>
      <trkpt lat="37.229683985933661" lon="-8.830240024253726">
        <ele>106.36</ele>
        <time>2025-05-06T14:38:15Z</time>
      </trkpt>
      <trkpt lat="37.229664959013462" lon="-8.830252010375261">
        <ele>106.36</ele>
        <time>2025-05-06T14:38:16Z</time>
      </trkpt>
      <trkpt lat="37.229612991213799" lon="-8.830286040902138">
        <ele>106.84</ele>
        <time>2025-05-06T14:38:17Z</time>
      </trkpt>
      <trkpt lat="37.229550965130329" lon="-8.830326022580266">
        <ele>106.84</ele>
        <time>2025-05-06T14:38:18Z</time>
      </trkpt>
      <trkpt lat="37.228957023471594" lon="-8.830705974251032">
        <ele>108.29000000000001</ele>
        <time>2025-05-06T14:38:24Z</time>
      </trkpt>
      <trkpt lat="37.227562023326755" lon="-8.831580961123109">
        <ele>111.17</ele>
        <time>2025-05-06T14:38:33Z</time>
      </trkpt>
      <trkpt lat="37.225950015708804" lon="-8.832578994333744">
        <ele>115.5</ele>
        <time>2025-05-06T14:38:43Z</time>
      </trkpt>
      <trkpt lat="37.225461015477777" lon="-8.832856016233563">
        <ele>117.42</ele>
        <time>2025-05-06T14:38:46Z</time>
      </trkpt>
      <trkpt lat="37.22403097897768" lon="-8.833331018686295">
        <ele>118.38</ele>
        <time>2025-05-06T14:38:54Z</time>
      </trkpt>
      <trkpt lat="37.222627010196447" lon="-8.833727985620499">
        <ele>117.90000000000001</ele>
        <time>2025-05-06T14:39:02Z</time>
      </trkpt>
      <trkpt lat="37.221260005608201" lon="-8.834114978089929">
        <ele>117.90000000000001</ele>
        <time>2025-05-06T14:39:10Z</time>
      </trkpt>
      <trkpt lat="37.219134019687772" lon="-8.834715960547328">
        <ele>121.26000000000001</ele>
        <time>2025-05-06T14:39:21Z</time>
      </trkpt>
      <trkpt lat="37.217829963192344" lon="-8.835046039894223">
        <ele>127.98999999999999</ele>
        <time>2025-05-06T14:39:28Z</time>
      </trkpt>
      <trkpt lat="37.217665007337928" lon="-8.835046039894223">
        <ele>128.94999999999999</ele>
        <time>2025-05-06T14:39:29Z</time>
      </trkpt>
      <trkpt lat="37.217503990978003" lon="-8.835025001317263">
        <ele>130.40000000000001</ele>
        <time>2025-05-06T14:39:30Z</time>
      </trkpt>
      <trkpt lat="37.2173469979316" lon="-8.834963981062174">
        <ele>131.84</ele>
        <time>2025-05-06T14:39:31Z</time>
      </trkpt>
      <trkpt lat="37.217185981571674" lon="-8.834901032969356">
        <ele>132.80000000000001</ele>
        <time>2025-05-06T14:39:32Z</time>
      </trkpt>
      <trkpt lat="37.217027982696891" lon="-8.834840012714267">
        <ele>134.24000000000001</ele>
        <time>2025-05-06T14:39:33Z</time>
      </trkpt>
      <trkpt lat="37.216894961893559" lon="-8.834788966923952">
        <ele>135.68000000000001</ele>
        <time>2025-05-06T14:39:34Z</time>
      </trkpt>
      <trkpt lat="37.216709973290563" lon="-8.834772035479546">
        <ele>136.63999999999999</ele>
        <time>2025-05-06T14:39:35Z</time>
      </trkpt>
      <trkpt lat="37.216540994122624" lon="-8.834757031872869">
        <ele>138.09</ele>
        <time>2025-05-06T14:39:36Z</time>
      </trkpt>
      <trkpt lat="37.216360028833151" lon="-8.834747979417443">
        <ele>138.56999999999999</ele>
        <time>2025-05-06T14:39:37Z</time>
      </trkpt>
      <trkpt lat="37.214706027880311" lon="-8.834797013550997">
        <ele>141.44999999999999</ele>
        <time>2025-05-06T14:39:45Z</time>
      </trkpt>
      <trkpt lat="37.21453302539885" lon="-8.834806988015771">
        <ele>140.97</ele>
        <time>2025-05-06T14:39:46Z</time>
      </trkpt>
      <trkpt lat="37.214377038180828" lon="-8.834863984957337">
        <ele>140.49000000000001</ele>
        <time>2025-05-06T14:39:47Z</time>
      </trkpt>
      <trkpt lat="37.214251980185509" lon="-8.834964986890554">
        <ele>140.00999999999999</ele>
        <time>2025-05-06T14:39:48Z</time>
      </trkpt>
      <trkpt lat="37.214127006009221" lon="-8.835089039057493">
        <ele>139.53</ele>
        <time>2025-05-06T14:39:49Z</time>
      </trkpt>
      <trkpt lat="37.213994991034269" lon="-8.835220970213413">
        <ele>139.05000000000001</ele>
        <time>2025-05-06T14:39:50Z</time>
      </trkpt>
      <trkpt lat="37.213855013251305" lon="-8.83536103181541">
        <ele>138.09</ele>
        <time>2025-05-06T14:39:51Z</time>
      </trkpt>
      <trkpt lat="37.213706988841295" lon="-8.835509978234768">
        <ele>137.13</ele>
        <time>2025-05-06T14:39:52Z</time>
      </trkpt>
      <trkpt lat="37.213542032986879" lon="-8.835651967674494">
        <ele>135.68000000000001</ele>
        <time>2025-05-06T14:39:53Z</time>
      </trkpt>
      <trkpt lat="37.213364001363516" lon="-8.835784988477826">
        <ele>134.24000000000001</ele>
        <time>2025-05-06T14:39:54Z</time>
      </trkpt>
      <trkpt lat="37.213192004710436" lon="-8.835913985967636">
        <ele>132.31999999999999</ele>
        <time>2025-05-06T14:39:55Z</time>
      </trkpt>
      <trkpt lat="37.212746003642678" lon="-8.836339032277465">
        <ele>127.51000000000001</ele>
        <time>2025-05-06T14:39:58Z</time>
      </trkpt>
      <trkpt lat="37.212625974789262" lon="-8.836524020880461">
        <ele>125.59</ele>
        <time>2025-05-06T14:39:59Z</time>
      </trkpt>
      <trkpt lat="37.212368985638022" lon="-8.836919981986284">
        <ele>122.22</ele>
        <time>2025-05-06T14:40:01Z</time>
      </trkpt>
      <trkpt lat="37.212209980934858" lon="-8.837105976417661">
        <ele>120.3</ele>
        <time>2025-05-06T14:40:02Z</time>
      </trkpt>
      <trkpt lat="37.211291994899511" lon="-8.838141979649663">
        <ele>110.20999999999999</ele>
        <time>2025-05-06T14:40:08Z</time>
      </trkpt>
      <trkpt lat="37.21122301183641" lon="-8.838302996009588">
        <ele>108.77</ele>
        <time>2025-05-06T14:40:09Z</time>
      </trkpt>
      <trkpt lat="37.211187975481153" lon="-8.838475998491049">
        <ele>107.31999999999999</ele>
        <time>2025-05-06T14:40:10Z</time>
      </trkpt>
      <trkpt lat="37.211123015731573" lon="-8.838800964877009">
        <ele>105.40000000000001</ele>
        <time>2025-05-06T14:40:12Z</time>
      </trkpt>
      <trkpt lat="37.211058977991343" lon="-8.838929962366819">
        <ele>104.44</ele>
        <time>2025-05-06T14:40:13Z</time>
      </trkpt>
      <trkpt lat="37.210958981886506" lon="-8.838970027863979">
        <ele>103.48</ele>
        <time>2025-05-06T14:40:14Z</time>
      </trkpt>
      <trkpt lat="37.210876001045108" lon="-8.838960975408554">
        <ele>102.52</ele>
        <time>2025-05-06T14:40:15Z</time>
      </trkpt>
      <trkpt lat="37.210783967748284" lon="-8.838924011215568">
        <ele>101.56</ele>
        <time>2025-05-06T14:40:16Z</time>
      </trkpt>
      <trkpt lat="37.210675003007054" lon="-8.838843964040279">
        <ele>101.08</ele>
        <time>2025-05-06T14:40:17Z</time>
      </trkpt>
      <trkpt lat="37.210551034659147" lon="-8.838753020390868">
        <ele>100.11</ele>
        <time>2025-05-06T14:40:18Z</time>
      </trkpt>
      <trkpt lat="37.210405021905899" lon="-8.838687976822257">
        <ele>99.629999999999995</ele>
        <time>2025-05-06T14:40:19Z</time>
      </trkpt>
      <trkpt lat="37.210254985839128" lon="-8.838644977658987">
        <ele>99.150000000000006</ele>
        <time>2025-05-06T14:40:20Z</time>
      </trkpt>
      <trkpt lat="37.210096986964345" lon="-8.838660987094045">
        <ele>98.670000000000002</ele>
        <time>2025-05-06T14:40:21Z</time>
      </trkpt>
      <trkpt lat="37.2099369764328" lon="-8.838709015399218">
        <ele>98.189999999999998</ele>
        <time>2025-05-06T14:40:22Z</time>
      </trkpt>
      <trkpt lat="37.209769003093243" lon="-8.83875897154212">
        <ele>97.709999999999994</ele>
        <time>2025-05-06T14:40:23Z</time>
      </trkpt>
      <trkpt lat="37.209603963419795" lon="-8.838856033980846">
        <ele>97.230000000000004</ele>
        <time>2025-05-06T14:40:24Z</time>
      </trkpt>
      <trkpt lat="37.20931202173233" lon="-8.839026018977165">
        <ele>95.790000000000006</ele>
        <time>2025-05-06T14:40:26Z</time>
      </trkpt>
      <trkpt lat="37.209253013134003" lon="-8.83910003118217">
        <ele>94.829999999999998</ele>
        <time>2025-05-06T14:40:27Z</time>
      </trkpt>
      <trkpt lat="37.209243038669229" lon="-8.839218970388174">
        <ele>94.349999999999994</ele>
        <time>2025-05-06T14:40:28Z</time>
      </trkpt>
      <trkpt lat="37.209230968728662" lon="-8.83935802616179">
        <ele>93.870000000000005</ele>
        <time>2025-05-06T14:40:29Z</time>
      </trkpt>
      <trkpt lat="37.209218982607126" lon="-8.839502027258277">
        <ele>93.390000000000001</ele>
        <time>2025-05-06T14:40:30Z</time>
      </trkpt>
      <trkpt lat="37.209180006757379" lon="-8.839623983949423">
        <ele>92.420000000000002</ele>
        <time>2025-05-06T14:40:31Z</time>
      </trkpt>
      <trkpt lat="37.209116974845529" lon="-8.839719034731388">
        <ele>91.939999999999998</ele>
        <time>2025-05-06T14:40:32Z</time>
      </trkpt>
      <trkpt lat="37.209025025367737" lon="-8.839778965339065">
        <ele>90.980000000000004</ele>
        <time>2025-05-06T14:40:33Z</time>
      </trkpt>
      <trkpt lat="37.208915976807475" lon="-8.83976798504591">
        <ele>90.5</ele>
        <time>2025-05-06T14:40:34Z</time>
      </trkpt>
      <trkpt lat="37.208810029551387" lon="-8.839708976447582">
        <ele>90.019999999999996</ele>
        <time>2025-05-06T14:40:35Z</time>
      </trkpt>
      <trkpt lat="37.208701986819506" lon="-8.839605962857604">
        <ele>89.540000000000006</ele>
        <time>2025-05-06T14:40:36Z</time>
      </trkpt>
      <trkpt lat="37.208586987107992" lon="-8.839494986459613">
        <ele>89.060000000000002</ele>
        <time>2025-05-06T14:40:37Z</time>
      </trkpt>
      <trkpt lat="37.208237964659929" lon="-8.839220982044935">
        <ele>87.620000000000005</ele>
        <time>2025-05-06T14:40:40Z</time>
      </trkpt>
      <trkpt lat="37.208119025453925" lon="-8.83916599676013">
        <ele>87.140000000000001</ele>
        <time>2025-05-06T14:40:41Z</time>
      </trkpt>
      <trkpt lat="37.207993967458606" lon="-8.839201033115387">
        <ele>86.659999999999997</ele>
        <time>2025-05-06T14:40:42Z</time>
      </trkpt>
      <trkpt lat="37.207845021039248" lon="-8.839243026450276">
        <ele>86.180000000000007</ele>
        <time>2025-05-06T14:40:43Z</time>
      </trkpt>
      <trkpt lat="37.207684004679322" lon="-8.839288037270308">
        <ele>85.209999999999994</ele>
        <time>2025-05-06T14:40:44Z</time>
      </trkpt>
      <trkpt lat="37.207531034946442" lon="-8.839331958442926">
        <ele>84.730000000000004</ele>
        <time>2025-05-06T14:40:45Z</time>
      </trkpt>
      <trkpt lat="37.207387033849955" lon="-8.839334975928068">
        <ele>84.25</ele>
        <time>2025-05-06T14:40:46Z</time>
      </trkpt>
      <trkpt lat="37.207254013046622" lon="-8.839264987036586">
        <ele>83.290000000000006</ele>
        <time>2025-05-06T14:40:47Z</time>
      </trkpt>
      <trkpt lat="37.207123003900051" lon="-8.839194998145104">
        <ele>82.810000000000002</ele>
        <time>2025-05-06T14:40:48Z</time>
      </trkpt>
      <trkpt lat="37.206994006410241" lon="-8.839127020910382">
        <ele>81.849999999999994</ele>
        <time>2025-05-06T14:40:49Z</time>
      </trkpt>
      <trkpt lat="37.206414984539151" lon="-8.838819991797209">
        <ele>78</ele>
        <time>2025-05-06T14:40:54Z</time>
      </trkpt>
      <trkpt lat="37.206329992040992" lon="-8.838817980140448">
        <ele>77.040000000000006</ele>
        <time>2025-05-06T14:40:55Z</time>
      </trkpt>
      <trkpt lat="37.206235025078058" lon="-8.838849999010563">
        <ele>76.560000000000002</ele>
        <time>2025-05-06T14:40:56Z</time>
      </trkpt>
      <trkpt lat="37.206134023144841" lon="-8.838884029537439">
        <ele>76.079999999999998</ele>
        <time>2025-05-06T14:40:57Z</time>
      </trkpt>
      <trkpt lat="37.206030003726482" lon="-8.838923005387187">
        <ele>75.120000000000005</ele>
        <time>2025-05-06T14:40:58Z</time>
      </trkpt>
      <trkpt lat="37.205344028770924" lon="-8.839256018400192">
        <ele>71.269999999999996</ele>
        <time>2025-05-06T14:41:04Z</time>
      </trkpt>
      <trkpt lat="37.205254007130861" lon="-8.839343022555113">
        <ele>70.790000000000006</ele>
        <time>2025-05-06T14:41:05Z</time>
      </trkpt>
      <trkpt lat="37.205181000754237" lon="-8.839436983689666">
        <ele>69.829999999999998</ele>
        <time>2025-05-06T14:41:06Z</time>
      </trkpt>
      <trkpt lat="37.205118974670768" lon="-8.839560030028224">
        <ele>69.349999999999994</ele>
        <time>2025-05-06T14:41:07Z</time>
      </trkpt>
      <trkpt lat="37.205063989385962" lon="-8.839694978669286">
        <ele>68.390000000000001</ele>
        <time>2025-05-06T14:41:08Z</time>
      </trkpt>
      <trkpt lat="37.205007998272777" lon="-8.83983101695776">
        <ele>67.909999999999997</ele>
        <time>2025-05-06T14:41:09Z</time>
      </trkpt>
      <trkpt lat="37.204711027443409" lon="-8.841010015457869">
        <ele>61.18</ele>
        <time>2025-05-06T14:41:17Z</time>
      </trkpt>
      <trkpt lat="37.20465000718832" lon="-8.841143036261201">
        <ele>61.18</ele>
        <time>2025-05-06T14:41:18Z</time>
      </trkpt>
      <trkpt lat="37.204569038003683" lon="-8.841272033751011">
        <ele>60.700000000000003</ele>
        <time>2025-05-06T14:41:19Z</time>
      </trkpt>
      <trkpt lat="37.204473987221718" lon="-8.841391978785396">
        <ele>61.18</ele>
        <time>2025-05-06T14:41:20Z</time>
      </trkpt>
      <trkpt lat="37.204369967803359" lon="-8.841515025123954">
        <ele>60.700000000000003</ele>
        <time>2025-05-06T14:41:21Z</time>
      </trkpt>
      <trkpt lat="37.204224038869143" lon="-8.841610997915268">
        <ele>60.219999999999999</ele>
        <time>2025-05-06T14:41:22Z</time>
      </trkpt>
      <trkpt lat="37.204046007245779" lon="-8.841728009283543">
        <ele>59.259999999999998</ele>
        <time>2025-05-06T14:41:23Z</time>
      </trkpt>
      <trkpt lat="37.202947977930307" lon="-8.842449020594358">
        <ele>49.649999999999999</ele>
        <time>2025-05-06T14:41:29Z</time>
      </trkpt>
      <trkpt lat="37.202810011804104" lon="-8.842572988942266">
        <ele>47.719999999999999</ele>
        <time>2025-05-06T14:41:30Z</time>
      </trkpt>
      <trkpt lat="37.202696017920971" lon="-8.842711038887501">
        <ele>45.799999999999997</ele>
        <time>2025-05-06T14:41:31Z</time>
      </trkpt>
      <trkpt lat="37.202611025422812" lon="-8.842870965600014">
        <ele>43.880000000000003</ele>
        <time>2025-05-06T14:41:32Z</time>
      </trkpt>
      <trkpt lat="37.202540030702949" lon="-8.843048997223377">
        <ele>42.439999999999998</ele>
        <time>2025-05-06T14:41:33Z</time>
      </trkpt>
      <trkpt lat="37.202485967427492" lon="-8.843258963897824">
        <ele>40.509999999999998</ele>
        <time>2025-05-06T14:41:34Z</time>
      </trkpt>
      <trkpt lat="37.202430982142687" lon="-8.843472031876445">
        <ele>39.549999999999997</ele>
        <time>2025-05-06T14:41:35Z</time>
      </trkpt>
      <trkpt lat="37.201982969418168" lon="-8.845271961763501">
        <ele>32.340000000000003</ele>
        <time>2025-05-06T14:41:43Z</time>
      </trkpt>
      <trkpt lat="37.201691027730703" lon="-8.846194976940751">
        <ele>31.379999999999999</ele>
        <time>2025-05-06T14:41:47Z</time>
      </trkpt>
      <trkpt lat="37.20088804140687" lon="-8.847607998177409">
        <ele>31.859999999999999</ele>
        <time>2025-05-06T14:41:53Z</time>
      </trkpt>
      <trkpt lat="37.200411027297378" lon="-8.848408972844482">
        <ele>32.340000000000003</ele>
        <time>2025-05-06T14:41:57Z</time>
      </trkpt>
      <trkpt lat="37.200286975130439" lon="-8.848607959225774">
        <ele>32.340000000000003</ele>
        <time>2025-05-06T14:41:58Z</time>
      </trkpt>
      <trkpt lat="37.200141968205571" lon="-8.848760006949306">
        <ele>32.82</ele>
        <time>2025-05-06T14:41:59Z</time>
      </trkpt>
      <trkpt lat="37.199565963819623" lon="-8.84937004186213">
        <ele>34.740000000000002</ele>
        <time>2025-05-06T14:42:03Z</time>
      </trkpt>
      <trkpt lat="37.199461022391915" lon="-8.849539021030068">
        <ele>34.740000000000002</ele>
        <time>2025-05-06T14:42:04Z</time>
      </trkpt>
      <trkpt lat="37.199392961338162" lon="-8.849701965227723">
        <ele>35.229999999999997</ele>
        <time>2025-05-06T14:42:05Z</time>
      </trkpt>
      <trkpt lat="37.199350968003273" lon="-8.849899023771286">
        <ele>35.710000000000001</ele>
        <time>2025-05-06T14:42:06Z</time>
      </trkpt>
      <trkpt lat="37.199332024902105" lon="-8.850103039294481">
        <ele>36.189999999999998</ele>
        <time>2025-05-06T14:42:07Z</time>
      </trkpt>
      <trkpt lat="37.199315009638667" lon="-8.850339995697141">
        <ele>36.189999999999998</ele>
        <time>2025-05-06T14:42:08Z</time>
      </trkpt>
      <trkpt lat="37.199219036847353" lon="-8.851344985887408">
        <ele>35.229999999999997</ele>
        <time>2025-05-06T14:42:12Z</time>
      </trkpt>
      <trkpt lat="37.199149969965219" lon="-8.851568028330803">
        <ele>34.740000000000002</ele>
        <time>2025-05-06T14:42:13Z</time>
      </trkpt>
      <trkpt lat="37.199045028537512" lon="-8.851779000833631">
        <ele>34.740000000000002</ele>
        <time>2025-05-06T14:42:14Z</time>
      </trkpt>
      <trkpt lat="37.198652001097798" lon="-8.852642001584172">
        <ele>32.82</ele>
        <time>2025-05-06T14:42:18Z</time>
      </trkpt>
      <trkpt lat="37.198632974177599" lon="-8.852862026542425">
        <ele>32.82</ele>
        <time>2025-05-06T14:42:19Z</time>
      </trkpt>
      <trkpt lat="37.198613025248051" lon="-8.853096971288323">
        <ele>32.340000000000003</ele>
        <time>2025-05-06T14:42:20Z</time>
      </trkpt>
      <trkpt lat="37.198546975851059" lon="-8.855018019676209">
        <ele>31.379999999999999</ele>
        <time>2025-05-06T14:42:27Z</time>
      </trkpt>
      <trkpt lat="37.198473969474435" lon="-8.857458997517824">
        <ele>30.899999999999999</ele>
        <time>2025-05-06T14:42:36Z</time>
      </trkpt>
      <trkpt lat="37.198413033038378" lon="-8.859778018668294">
        <ele>28.98</ele>
        <time>2025-05-06T14:42:45Z</time>
      </trkpt>
      <trkpt lat="37.198401968926191" lon="-8.860250003635883">
        <ele>28.5</ele>
        <time>2025-05-06T14:42:47Z</time>
      </trkpt>
      <trkpt lat="37.198416972532868" lon="-8.860468016937375">
        <ele>28.02</ele>
        <time>2025-05-06T14:42:48Z</time>
      </trkpt>
      <trkpt lat="37.19846298918128" lon="-8.860667003318667">
        <ele>28.02</ele>
        <time>2025-05-06T14:42:49Z</time>
      </trkpt>
      <trkpt lat="37.198558039963245" lon="-8.860858026891947">
        <ele>27.530000000000001</ele>
        <time>2025-05-06T14:42:50Z</time>
      </trkpt>
      <trkpt lat="37.198652001097798" lon="-8.861044021323323">
        <ele>27.530000000000001</ele>
        <time>2025-05-06T14:42:51Z</time>
      </trkpt>
      <trkpt lat="37.198730958625674" lon="-8.861223980784416">
        <ele>27.050000000000001</ele>
        <time>2025-05-06T14:42:52Z</time>
      </trkpt>
      <trkpt lat="37.198776975274086" lon="-8.861407041549683">
        <ele>27.530000000000001</ele>
        <time>2025-05-06T14:42:53Z</time>
      </trkpt>
      <trkpt lat="37.198777981102467" lon="-8.861588006839156">
        <ele>27.530000000000001</ele>
        <time>2025-05-06T14:42:54Z</time>
      </trkpt>
      <trkpt lat="37.198768006637692" lon="-8.861796967685223">
        <ele>27.530000000000001</ele>
        <time>2025-05-06T14:42:55Z</time>
      </trkpt>
      <trkpt lat="37.198739005252719" lon="-8.862011963501573">
        <ele>27.050000000000001</ele>
        <time>2025-05-06T14:42:56Z</time>
      </trkpt>
      <trkpt lat="37.198693994432688" lon="-8.862235005944967">
        <ele>26.57</ele>
        <time>2025-05-06T14:42:57Z</time>
      </trkpt>
      <trkpt lat="37.198441028594971" lon="-8.863604022189975">
        <ele>26.57</ele>
        <time>2025-05-06T14:43:03Z</time>
      </trkpt>
      <trkpt lat="37.198441028594971" lon="-8.863848019391298">
        <ele>27.050000000000001</ele>
        <time>2025-05-06T14:43:04Z</time>
      </trkpt>
      <trkpt lat="37.198540018871427" lon="-8.865064987912774">
        <ele>27.050000000000001</ele>
        <time>2025-05-06T14:43:09Z</time>
      </trkpt>
      <trkpt lat="37.198589975014329" lon="-8.865252994000912">
        <ele>27.050000000000001</ele>
        <time>2025-05-06T14:43:10Z</time>
      </trkpt>
      <trkpt lat="37.198659963905811" lon="-8.86542197316885">
        <ele>27.050000000000001</ele>
        <time>2025-05-06T14:43:11Z</time>
      </trkpt>
      <trkpt lat="37.198768006637692" lon="-8.865572009235621">
        <ele>27.530000000000001</ele>
        <time>2025-05-06T14:43:12Z</time>
      </trkpt>
      <trkpt lat="37.198899015784264" lon="-8.865692038089037">
        <ele>28.02</ele>
        <time>2025-05-06T14:43:13Z</time>
      </trkpt>
      <trkpt lat="37.199049973860383" lon="-8.865803014487028">
        <ele>28.98</ele>
        <time>2025-05-06T14:43:14Z</time>
      </trkpt>
      <trkpt lat="37.19921400770545" lon="-8.865923965349793">
        <ele>29.940000000000001</ele>
        <time>2025-05-06T14:43:15Z</time>
      </trkpt>
      <trkpt lat="37.199378041550517" lon="-8.865945003926754">
        <ele>30.420000000000002</ele>
        <time>2025-05-06T14:43:16Z</time>
      </trkpt>
      <trkpt lat="37.199552971869707" lon="-8.865967970341444">
        <ele>30.899999999999999</ele>
        <time>2025-05-06T14:43:17Z</time>
      </trkpt>
      <trkpt lat="37.199737038463354" lon="-8.865991020575166">
        <ele>31.379999999999999</ele>
        <time>2025-05-06T14:43:18Z</time>
      </trkpt>
      <trkpt lat="37.199918003752828" lon="-8.866025973111391">
        <ele>32.340000000000003</ele>
        <time>2025-05-06T14:43:19Z</time>
      </trkpt>
      <trkpt lat="37.200096035376191" lon="-8.866099985316396">
        <ele>32.82</ele>
        <time>2025-05-06T14:43:20Z</time>
      </trkpt>
      <trkpt lat="37.200253028422594" lon="-8.866224959492683">
        <ele>33.780000000000001</ele>
        <time>2025-05-06T14:43:21Z</time>
      </trkpt>
      <trkpt lat="37.200379008427262" lon="-8.866341970860958">
        <ele>34.740000000000002</ele>
        <time>2025-05-06T14:43:22Z</time>
      </trkpt>
      <trkpt lat="37.200459977611899" lon="-8.866470968350768">
        <ele>34.740000000000002</ele>
        <time>2025-05-06T14:43:23Z</time>
      </trkpt>
      <trkpt lat="37.200512029230595" lon="-8.866635002195835">
        <ele>35.229999999999997</ele>
        <time>2025-05-06T14:43:24Z</time>
      </trkpt>
      <trkpt lat="37.200530972331762" lon="-8.866800963878632">
        <ele>35.710000000000001</ele>
        <time>2025-05-06T14:43:25Z</time>
      </trkpt>
      <trkpt lat="37.200494008138776" lon="-8.866975978016853">
        <ele>35.710000000000001</ele>
        <time>2025-05-06T14:43:26Z</time>
      </trkpt>
      <trkpt lat="37.200457965955138" lon="-8.867146968841553">
        <ele>36.189999999999998</ele>
        <time>2025-05-06T14:43:27Z</time>
      </trkpt>
      <trkpt lat="37.20035201869905" lon="-8.867292981594801">
        <ele>36.670000000000002</ele>
        <time>2025-05-06T14:43:28Z</time>
      </trkpt>
      <trkpt lat="37.200232995674014" lon="-8.867457015439868">
        <ele>37.630000000000003</ele>
        <time>2025-05-06T14:43:29Z</time>
      </trkpt>
      <trkpt lat="37.200114978477359" lon="-8.867619037628174">
        <ele>38.590000000000003</ele>
        <time>2025-05-06T14:43:30Z</time>
      </trkpt>
      <trkpt lat="37.200028980150819" lon="-8.867835039272904">
        <ele>39.07</ele>
        <time>2025-05-06T14:43:31Z</time>
      </trkpt>
      <trkpt lat="37.199942981824279" lon="-8.868048023432493">
        <ele>39.549999999999997</ele>
        <time>2025-05-06T14:43:32Z</time>
      </trkpt>
      <trkpt lat="37.199924038723111" lon="-8.868269976228476">
        <ele>40.030000000000001</ele>
        <time>2025-05-06T14:43:33Z</time>
      </trkpt>
      <trkpt lat="37.199903000146151" lon="-8.868509028106928">
        <ele>40.509999999999998</ele>
        <time>2025-05-06T14:43:34Z</time>
      </trkpt>
      <trkpt lat="37.199933007359505" lon="-8.868746990337968">
        <ele>41.469999999999999</ele>
        <time>2025-05-06T14:43:35Z</time>
      </trkpt>
      <trkpt lat="37.199971983209252" lon="-8.868991993367672">
        <ele>41.950000000000003</ele>
        <time>2025-05-06T14:43:36Z</time>
      </trkpt>
      <trkpt lat="37.200009031221271" lon="-8.869226016104221">
        <ele>42.439999999999998</ele>
        <time>2025-05-06T14:43:37Z</time>
      </trkpt>
      <trkpt lat="37.200024034827948" lon="-8.869455009698868">
        <ele>43.399999999999999</ele>
        <time>2025-05-06T14:43:38Z</time>
      </trkpt>
      <trkpt lat="37.200010959059" lon="-8.869676040485501">
        <ele>44.359999999999999</ele>
        <time>2025-05-06T14:43:39Z</time>
      </trkpt>
      <trkpt lat="37.199953962117434" lon="-8.86988902464509">
        <ele>44.840000000000003</ele>
        <time>2025-05-06T14:43:40Z</time>
      </trkpt>
      <trkpt lat="37.19988196156919" lon="-8.870112989097834">
        <ele>45.32</ele>
        <time>2025-05-06T14:43:41Z</time>
      </trkpt>
      <trkpt lat="37.199806021526456" lon="-8.870352040976286">
        <ele>45.32</ele>
        <time>2025-05-06T14:43:42Z</time>
      </trkpt>
      <trkpt lat="37.199455993250012" lon="-8.871549982577562">
        <ele>43.399999999999999</ele>
        <time>2025-05-06T14:43:47Z</time>
      </trkpt>
      <trkpt lat="37.199432021006942" lon="-8.871789034456015">
        <ele>42.920000000000002</ele>
        <time>2025-05-06T14:43:48Z</time>
      </trkpt>
      <trkpt lat="37.199454987421632" lon="-8.872033031657338">
        <ele>41.950000000000003</ele>
        <time>2025-05-06T14:43:49Z</time>
      </trkpt>
      <trkpt lat="37.199556995183229" lon="-8.873127959668636">
        <ele>37.630000000000003</ele>
        <time>2025-05-06T14:43:53Z</time>
      </trkpt>
      <trkpt lat="37.199533022940159" lon="-8.873414034023881">
        <ele>36.670000000000002</ele>
        <time>2025-05-06T14:43:54Z</time>
      </trkpt>
      <trkpt lat="37.199495974928141" lon="-8.873717961832881">
        <ele>35.710000000000001</ele>
        <time>2025-05-06T14:43:55Z</time>
      </trkpt>
      <trkpt lat="37.199350968003273" lon="-8.87489402666688">
        <ele>31.379999999999999</ele>
        <time>2025-05-06T14:43:59Z</time>
      </trkpt>
      <trkpt lat="37.199352979660034" lon="-8.875159984454513">
        <ele>30.420000000000002</ele>
        <time>2025-05-06T14:44:00Z</time>
      </trkpt>
      <trkpt lat="37.199377035722136" lon="-8.875416973605752">
        <ele>29.460000000000001</ele>
        <time>2025-05-06T14:44:01Z</time>
      </trkpt>
      <trkpt lat="37.199438977986574" lon="-8.875664994120598">
        <ele>28.98</ele>
        <time>2025-05-06T14:44:02Z</time>
      </trkpt>
      <trkpt lat="37.199504021555185" lon="-8.875907985493541">
        <ele>28.02</ele>
        <time>2025-05-06T14:44:03Z</time>
      </trkpt>
      <trkpt lat="37.199661014601588" lon="-8.876387011259794">
        <ele>26.09</ele>
        <time>2025-05-06T14:44:05Z</time>
      </trkpt>
      <trkpt lat="37.199775008484721" lon="-8.876616004854441">
        <ele>25.129999999999999</ele>
        <time>2025-05-06T14:44:06Z</time>
      </trkpt>
      <trkpt lat="37.199890008196235" lon="-8.876846004277468">
        <ele>24.649999999999999</ele>
        <time>2025-05-06T14:44:07Z</time>
      </trkpt>
      <trkpt lat="37.201357008889318" lon="-8.879101993516088">
        <ele>20.809999999999999</ele>
        <time>2025-05-06T14:44:18Z</time>
      </trkpt>
      <trkpt lat="37.202427964657545" lon="-8.880751971155405">
        <ele>18.879999999999999</ele>
        <time>2025-05-06T14:44:28Z</time>
      </trkpt>
      <trkpt lat="37.202808000147343" lon="-8.881396036595106">
        <ele>18.879999999999999</ele>
        <time>2025-05-06T14:44:34Z</time>
      </trkpt>
      <trkpt lat="37.202842030674219" lon="-8.881530985236168">
        <ele>18.879999999999999</ele>
        <time>2025-05-06T14:44:35Z</time>
      </trkpt>
      <trkpt lat="37.202876983210444" lon="-8.881670963019133">
        <ele>18.879999999999999</ele>
        <time>2025-05-06T14:44:36Z</time>
      </trkpt>
      <trkpt lat="37.202864997088909" lon="-8.881798032671213">
        <ele>18.879999999999999</ele>
        <time>2025-05-06T14:44:37Z</time>
      </trkpt>
      <trkpt lat="37.202840019017458" lon="-8.881943039596081">
        <ele>19.359999999999999</ele>
        <time>2025-05-06T14:44:38Z</time>
      </trkpt>
      <trkpt lat="37.202814035117626" lon="-8.882091986015439">
        <ele>19.359999999999999</ele>
        <time>2025-05-06T14:44:39Z</time>
      </trkpt>
      <trkpt lat="37.202775981277227" lon="-8.882231041789055">
        <ele>19.359999999999999</ele>
        <time>2025-05-06T14:44:40Z</time>
      </trkpt>
      <trkpt lat="37.202699035406113" lon="-8.882378982380033">
        <ele>19.84</ele>
        <time>2025-05-06T14:44:41Z</time>
      </trkpt>
      <trkpt lat="37.202614964917302" lon="-8.882542010396719">
        <ele>19.359999999999999</ele>
        <time>2025-05-06T14:44:42Z</time>
      </trkpt>
      <trkpt lat="37.202046001330018" lon="-8.883643979206681">
        <ele>18.399999999999999</ele>
        <time>2025-05-06T14:44:47Z</time>
      </trkpt>
      <trkpt lat="37.201644005253911" lon="-8.884575963020325">
        <ele>17.920000000000002</ele>
        <time>2025-05-06T14:44:51Z</time>
      </trkpt>
      <trkpt lat="37.201601006090641" lon="-8.884809985756874">
        <ele>17.440000000000001</ele>
        <time>2025-05-06T14:44:52Z</time>
      </trkpt>
      <trkpt lat="37.201574016362429" lon="-8.885064041242003">
        <ele>17.440000000000001</ele>
        <time>2025-05-06T14:44:53Z</time>
      </trkpt>
      <trkpt lat="37.201574016362429" lon="-8.885288005694747">
        <ele>17.440000000000001</ele>
        <time>2025-05-06T14:44:54Z</time>
      </trkpt>
      <trkpt lat="37.201574016362429" lon="-8.885521022602916">
        <ele>17.440000000000001</ele>
        <time>2025-05-06T14:44:55Z</time>
      </trkpt>
      <trkpt lat="37.201574016362429" lon="-8.885957971215248">
        <ele>17.440000000000001</ele>
        <time>2025-05-06T14:44:57Z</time>
      </trkpt>
      <trkpt lat="37.201545014977455" lon="-8.886171961203218">
        <ele>16.960000000000001</ele>
        <time>2025-05-06T14:44:58Z</time>
      </trkpt>
      <trkpt lat="37.201482988893986" lon="-8.886373965069652">
        <ele>17.440000000000001</ele>
        <time>2025-05-06T14:44:59Z</time>
      </trkpt>
      <trkpt lat="37.201400008052588" lon="-8.886561971157789">
        <ele>17.440000000000001</ele>
        <time>2025-05-06T14:45:00Z</time>
      </trkpt>
      <trkpt lat="37.201290959492326" lon="-8.886716030538082">
        <ele>17.440000000000001</ele>
        <time>2025-05-06T14:45:01Z</time>
      </trkpt>
      <trkpt lat="37.2011489700526" lon="-8.886848967522383">
        <ele>16.960000000000001</ele>
        <time>2025-05-06T14:45:02Z</time>
      </trkpt>
      <trkpt lat="37.2009970061481" lon="-8.886974025517702">
        <ele>16.960000000000001</ele>
        <time>2025-05-06T14:45:03Z</time>
      </trkpt>
      <trkpt lat="37.200816962867975" lon="-8.887068992480636">
        <ele>16.960000000000001</ele>
        <time>2025-05-06T14:45:04Z</time>
      </trkpt>
      <trkpt lat="37.199014015495777" lon="-8.888012040406466">
        <ele>16.48</ele>
        <time>2025-05-06T14:45:13Z</time>
      </trkpt>
      <trkpt lat="37.196546969935298" lon="-8.88916295953095">
        <ele>16.48</ele>
        <time>2025-05-06T14:45:25Z</time>
      </trkpt>
      <trkpt lat="37.194557022303343" lon="-8.889528997242451">
        <ele>13.119999999999999</ele>
        <time>2025-05-06T14:45:34Z</time>
      </trkpt>
      <trkpt lat="37.192507982254028" lon="-8.88991397805512">
        <ele>10.710000000000001</ele>
        <time>2025-05-06T14:45:43Z</time>
      </trkpt>
      <trkpt lat="37.189983017742634" lon="-8.890373976901174">
        <ele>15.039999999999999</ele>
        <time>2025-05-06T14:45:55Z</time>
      </trkpt>
      <trkpt lat="37.189032007008791" lon="-8.89060003682971">
        <ele>17.920000000000002</ele>
        <time>2025-05-06T14:46:00Z</time>
      </trkpt>
      <trkpt lat="37.188870990648866" lon="-8.890707995742559">
        <ele>17.920000000000002</ele>
        <time>2025-05-06T14:46:01Z</time>
      </trkpt>
      <trkpt lat="37.188705028966069" lon="-8.89081796631217">
        <ele>17.920000000000002</ele>
        <time>2025-05-06T14:46:02Z</time>
      </trkpt>
      <trkpt lat="37.188545018434525" lon="-8.890964984893799">
        <ele>17.920000000000002</ele>
        <time>2025-05-06T14:46:03Z</time>
      </trkpt>
      <trkpt lat="37.188395988196135" lon="-8.891150979325175">
        <ele>17.440000000000001</ele>
        <time>2025-05-06T14:46:04Z</time>
      </trkpt>
      <trkpt lat="37.188243018463254" lon="-8.891342002898455">
        <ele>17.440000000000001</ele>
        <time>2025-05-06T14:46:05Z</time>
      </trkpt>
      <trkpt lat="37.188087031245232" lon="-8.891535960137844">
        <ele>16.960000000000001</ele>
        <time>2025-05-06T14:46:06Z</time>
      </trkpt>
      <trkpt lat="37.187040969729424" lon="-8.89283599331975">
        <ele>17.440000000000001</ele>
        <time>2025-05-06T14:46:14Z</time>
      </trkpt>
      <trkpt lat="37.186300009489059" lon="-8.89378298074007">
        <ele>17.440000000000001</ele>
        <time>2025-05-06T14:46:23Z</time>
      </trkpt>
      <trkpt lat="37.185280015692115" lon="-8.89506901614368">
        <ele>23.210000000000001</ele>
        <time>2025-05-06T14:46:35Z</time>
      </trkpt>
      <trkpt lat="37.184836026281118" lon="-8.895576037466526">
        <ele>27.050000000000001</ele>
        <time>2025-05-06T14:46:40Z</time>
      </trkpt>
      <trkpt lat="37.184741981327534" lon="-8.895668992772698">
        <ele>28.02</ele>
        <time>2025-05-06T14:46:41Z</time>
      </trkpt>
      <trkpt lat="37.184641985222697" lon="-8.895712997764349">
        <ele>28.98</ele>
        <time>2025-05-06T14:46:42Z</time>
      </trkpt>
      <trkpt lat="37.184473006054759" lon="-8.89575800858438">
        <ele>30.420000000000002</ele>
        <time>2025-05-06T14:46:44Z</time>
      </trkpt>
      <trkpt lat="37.184326993301511" lon="-8.895771000534296">
        <ele>31.379999999999999</ele>
        <time>2025-05-06T14:46:46Z</time>
      </trkpt>
      <trkpt lat="37.18426002189517" lon="-8.895748034119606">
        <ele>31.859999999999999</ele>
        <time>2025-05-06T14:46:47Z</time>
      </trkpt>
      <trkpt lat="37.184188021346927" lon="-8.895720038563013">
        <ele>32.82</ele>
        <time>2025-05-06T14:46:48Z</time>
      </trkpt>
      <trkpt lat="37.184119960293174" lon="-8.89569397084415">
        <ele>33.299999999999997</ele>
        <time>2025-05-06T14:46:49Z</time>
      </trkpt>
      <trkpt lat="37.184050977230072" lon="-8.895666981115937">
        <ele>33.780000000000001</ele>
        <time>2025-05-06T14:46:50Z</time>
      </trkpt>
      <trkpt lat="37.183979982510209" lon="-8.895639991387725">
        <ele>33.780000000000001</ele>
        <time>2025-05-06T14:46:51Z</time>
      </trkpt>
      <trkpt lat="37.183912005275488" lon="-8.895614007487893">
        <ele>33.780000000000001</ele>
        <time>2025-05-06T14:46:52Z</time>
      </trkpt>
      <trkpt lat="37.183152018114924" lon="-8.895236989483237">
        <ele>33.299999999999997</ele>
        <time>2025-05-06T14:47:04Z</time>
      </trkpt>
      <trkpt lat="37.18247601762414" lon="-8.89483499340713">
        <ele>30.899999999999999</ele>
        <time>2025-05-06T14:47:14Z</time>
      </trkpt>
      <trkpt lat="37.182163037359715" lon="-8.89455595985055">
        <ele>31.379999999999999</ele>
        <time>2025-05-06T14:47:18Z</time>
      </trkpt>
      <trkpt lat="37.182078966870904" lon="-8.894472979009152">
        <ele>31.379999999999999</ele>
        <time>2025-05-06T14:47:19Z</time>
      </trkpt>
      <trkpt lat="37.181996991857886" lon="-8.894368959590793">
        <ele>30.899999999999999</ele>
        <time>2025-05-06T14:47:20Z</time>
      </trkpt>
      <trkpt lat="37.181445965543389" lon="-8.893321976065636">
        <ele>30.899999999999999</ele>
        <time>2025-05-06T14:47:26Z</time>
      </trkpt>
      <trkpt lat="37.180417003110051" lon="-8.891150979325175">
        <ele>34.740000000000002</ele>
        <time>2025-05-06T14:47:37Z</time>
      </trkpt>
      <trkpt lat="37.179992962628603" lon="-8.890329971909523">
        <ele>39.07</ele>
        <time>2025-05-06T14:47:41Z</time>
      </trkpt>
      <trkpt lat="37.179892966523767" lon="-8.890144983306527">
        <ele>40.030000000000001</ele>
        <time>2025-05-06T14:47:42Z</time>
      </trkpt>
      <trkpt lat="37.179068019613624" lon="-8.889100011438131">
        <ele>46.280000000000001</ele>
        <time>2025-05-06T14:47:48Z</time>
      </trkpt>
      <trkpt lat="37.178032016381621" lon="-8.888016985729337">
        <ele>54.450000000000003</ele>
        <time>2025-05-06T14:47:54Z</time>
      </trkpt>
      <trkpt lat="37.176077021285892" lon="-8.886531963944435">
        <ele>58.780000000000001</ele>
        <time>2025-05-06T14:48:03Z</time>
      </trkpt>
      <trkpt lat="37.174083972349763" lon="-8.885038979351521">
        <ele>56.369999999999997</ele>
        <time>2025-05-06T14:48:12Z</time>
      </trkpt>
      <trkpt lat="37.172945039346814" lon="-8.884148988872767">
        <ele>55.409999999999997</ele>
        <time>2025-05-06T14:48:18Z</time>
      </trkpt>
      <trkpt lat="37.172789974138141" lon="-8.883973974734545">
        <ele>55.409999999999997</ele>
        <time>2025-05-06T14:48:19Z</time>
      </trkpt>
      <trkpt lat="37.172644967213273" lon="-8.883782029151917">
        <ele>55.890000000000001</ele>
        <time>2025-05-06T14:48:20Z</time>
      </trkpt>
      <trkpt lat="37.172517981380224" lon="-8.883563010022044">
        <ele>55.890000000000001</ele>
        <time>2025-05-06T14:48:21Z</time>
      </trkpt>
      <trkpt lat="37.172387978062034" lon="-8.883338961750269">
        <ele>56.369999999999997</ele>
        <time>2025-05-06T14:48:22Z</time>
      </trkpt>
      <trkpt lat="37.172277001664042" lon="-8.883093958720565">
        <ele>56.859999999999999</ele>
        <time>2025-05-06T14:48:23Z</time>
      </trkpt>
      <trkpt lat="37.171452976763248" lon="-8.881269972771406">
        <ele>64.069999999999993</ele>
        <time>2025-05-06T14:48:31Z</time>
      </trkpt>
      <trkpt lat="37.171163968741894" lon="-8.880745014175773">
        <ele>65.989999999999995</ele>
        <time>2025-05-06T14:48:34Z</time>
      </trkpt>
      <trkpt lat="37.171057015657425" lon="-8.880609981715679">
        <ele>66.950000000000003</ele>
        <time>2025-05-06T14:48:35Z</time>
      </trkpt>
      <trkpt lat="37.170929023995996" lon="-8.880519038066268">
        <ele>67.430000000000007</ele>
        <time>2025-05-06T14:48:36Z</time>
      </trkpt>
      <trkpt lat="37.170803966000676" lon="-8.880429016426206">
        <ele>67.909999999999997</ele>
        <time>2025-05-06T14:48:37Z</time>
      </trkpt>
      <trkpt lat="37.170663988217711" lon="-8.880370007827878">
        <ele>68.870000000000005</ele>
        <time>2025-05-06T14:48:38Z</time>
      </trkpt>
      <trkpt lat="37.170517975464463" lon="-8.880307981744409">
        <ele>69.829999999999998</ele>
        <time>2025-05-06T14:48:39Z</time>
      </trkpt>
      <trkpt lat="37.169143008068204" lon="-8.879498038440943">
        <ele>76.560000000000002</ele>
        <time>2025-05-06T14:48:48Z</time>
      </trkpt>
      <trkpt lat="37.167990999296308" lon="-8.87811996974051">
        <ele>81.849999999999994</ele>
        <time>2025-05-06T14:48:56Z</time>
      </trkpt>
      <trkpt lat="37.166897999122739" lon="-8.876728992909193">
        <ele>85.689999999999998</ele>
        <time>2025-05-06T14:49:02Z</time>
      </trkpt>
      <trkpt lat="37.166422996670008" lon="-8.876179978251457">
        <ele>87.620000000000005</ele>
        <time>2025-05-06T14:49:05Z</time>
      </trkpt>
      <trkpt lat="37.166249994188547" lon="-8.876033965498209">
        <ele>88.099999999999994</ele>
        <time>2025-05-06T14:49:06Z</time>
      </trkpt>
      <trkpt lat="37.166056958958507" lon="-8.875914020463824">
        <ele>88.579999999999998</ele>
        <time>2025-05-06T14:49:07Z</time>
      </trkpt>
      <trkpt lat="37.165857972577214" lon="-8.87581997551024">
        <ele>89.540000000000006</ele>
        <time>2025-05-06T14:49:08Z</time>
      </trkpt>
      <trkpt lat="37.165645994246006" lon="-8.875760966911912">
        <ele>90.019999999999996</ele>
        <time>2025-05-06T14:49:09Z</time>
      </trkpt>
      <trkpt lat="37.16543703339994" lon="-8.875716039910913">
        <ele>90.980000000000004</ele>
        <time>2025-05-06T14:49:10Z</time>
      </trkpt>
      <trkpt lat="37.165237041190267" lon="-8.875673962756991">
        <ele>91.459999999999994</ele>
        <time>2025-05-06T14:49:11Z</time>
      </trkpt>
      <trkpt lat="37.164861029013991" lon="-8.875593999400735">
        <ele>93.390000000000001</ele>
        <time>2025-05-06T14:49:13Z</time>
      </trkpt>
      <trkpt lat="37.164692971855402" lon="-8.875525016337633">
        <ele>93.870000000000005</ele>
        <time>2025-05-06T14:49:14Z</time>
      </trkpt>
      <trkpt lat="37.164532961323857" lon="-8.875438012182713">
        <ele>94.829999999999998</ele>
        <time>2025-05-06T14:49:15Z</time>
      </trkpt>
      <trkpt lat="37.164403963834047" lon="-8.875285964459181">
        <ele>95.790000000000006</ele>
        <time>2025-05-06T14:49:16Z</time>
      </trkpt>
      <trkpt lat="37.164273960515857" lon="-8.875117991119623">
        <ele>96.269999999999996</ele>
        <time>2025-05-06T14:49:17Z</time>
      </trkpt>
      <trkpt lat="37.164158960804343" lon="-8.874923028051853">
        <ele>96.75</ele>
        <time>2025-05-06T14:49:18Z</time>
      </trkpt>
      <trkpt lat="37.16404102742672" lon="-8.87472303584218">
        <ele>97.230000000000004</ele>
        <time>2025-05-06T14:49:19Z</time>
      </trkpt>
      <trkpt lat="37.163553033024073" lon="-8.873953996226192">
        <ele>98.189999999999998</ele>
        <time>2025-05-06T14:49:23Z</time>
      </trkpt>
      <trkpt lat="37.163413977250457" lon="-8.87382198125124">
        <ele>99.150000000000006</ele>
        <time>2025-05-06T14:49:24Z</time>
      </trkpt>
      <trkpt lat="37.163243992254138" lon="-8.873723996803165">
        <ele>99.629999999999995</ele>
        <time>2025-05-06T14:49:25Z</time>
      </trkpt>
      <trkpt lat="37.163056991994381" lon="-8.873645961284638">
        <ele>100.11</ele>
        <time>2025-05-06T14:49:26Z</time>
      </trkpt>
      <trkpt lat="37.16286001726985" lon="-8.873575972393155">
        <ele>100.59999999999999</ele>
        <time>2025-05-06T14:49:27Z</time>
      </trkpt>
      <trkpt lat="37.161687975749373" lon="-8.873052019625902">
        <ele>104.44</ele>
        <time>2025-05-06T14:49:34Z</time>
      </trkpt>
      <trkpt lat="37.161565013229847" lon="-8.872944982722402">
        <ele>104.92</ele>
        <time>2025-05-06T14:49:35Z</time>
      </trkpt>
      <trkpt lat="37.161460993811488" lon="-8.872805004939437">
        <ele>104.92</ele>
        <time>2025-05-06T14:49:36Z</time>
      </trkpt>
      <trkpt lat="37.161353034898639" lon="-8.872658992186189">
        <ele>105.40000000000001</ele>
        <time>2025-05-06T14:49:37Z</time>
      </trkpt>
      <trkpt lat="37.161242980509996" lon="-8.872492024675012">
        <ele>105.40000000000001</ele>
        <time>2025-05-06T14:49:38Z</time>
      </trkpt>
      <trkpt lat="37.161137033253908" lon="-8.87229697778821">
        <ele>105.40000000000001</ele>
        <time>2025-05-06T14:49:39Z</time>
      </trkpt>
      <trkpt lat="37.160296998918056" lon="-8.8707709684968">
        <ele>109.25</ele>
        <time>2025-05-06T14:49:47Z</time>
      </trkpt>
      <trkpt lat="37.159756030887365" lon="-8.870137967169285">
        <ele>113.09</ele>
        <time>2025-05-06T14:49:51Z</time>
      </trkpt>
      <trkpt lat="37.159587973728776" lon="-8.870023973286152">
        <ele>114.05</ele>
        <time>2025-05-06T14:49:52Z</time>
      </trkpt>
      <trkpt lat="37.159062009304762" lon="-8.869668999686837">
        <ele>116.94</ele>
        <time>2025-05-06T14:49:55Z</time>
      </trkpt>
      <trkpt lat="37.158534033223987" lon="-8.869337998330593">
        <ele>120.3</ele>
        <time>2025-05-06T14:49:58Z</time>
      </trkpt>
      <trkpt lat="37.158356001600623" lon="-8.869248982518911">
        <ele>121.26000000000001</ele>
        <time>2025-05-06T14:49:59Z</time>
      </trkpt>
      <trkpt lat="37.158172018826008" lon="-8.869187040254474">
        <ele>121.73999999999999</ele>
        <time>2025-05-06T14:50:00Z</time>
      </trkpt>
      <trkpt lat="37.157982001081109" lon="-8.869168013334274">
        <ele>122.70999999999999</ele>
        <time>2025-05-06T14:50:01Z</time>
      </trkpt>
      <trkpt lat="37.157800029963255" lon="-8.869178993627429">
        <ele>123.67</ele>
        <time>2025-05-06T14:50:02Z</time>
      </trkpt>
      <trkpt lat="37.157612023875117" lon="-8.869213024154306">
        <ele>124.63</ele>
        <time>2025-05-06T14:50:03Z</time>
      </trkpt>
      <trkpt lat="37.15742502361536" lon="-8.869274966418743">
        <ele>125.11</ele>
        <time>2025-05-06T14:50:04Z</time>
      </trkpt>
      <trkpt lat="37.157243974506855" lon="-8.869334980845451">
        <ele>126.06999999999999</ele>
        <time>2025-05-06T14:50:05Z</time>
      </trkpt>
      <trkpt lat="37.156885983422399" lon="-8.869455009698868">
        <ele>127.03</ele>
        <time>2025-05-06T14:50:07Z</time>
      </trkpt>
      <trkpt lat="37.156698983162642" lon="-8.869473030790687">
        <ele>127.51000000000001</ele>
        <time>2025-05-06T14:50:08Z</time>
      </trkpt>
      <trkpt lat="37.156503014266491" lon="-8.869484011083841">
        <ele>127.98999999999999</ele>
        <time>2025-05-06T14:50:09Z</time>
      </trkpt>
      <trkpt lat="37.156304027885199" lon="-8.86945802718401">
        <ele>128.47</ele>
        <time>2025-05-06T14:50:10Z</time>
      </trkpt>
      <trkpt lat="37.156100012362003" lon="-8.869423996657133">
        <ele>128.94999999999999</ele>
        <time>2025-05-06T14:50:11Z</time>
      </trkpt>
      <trkpt lat="37.155893985182047" lon="-8.869374040514231">
        <ele>128.94999999999999</ele>
        <time>2025-05-06T14:50:12Z</time>
      </trkpt>
      <trkpt lat="37.154845995828509" lon="-8.869103975594044">
        <ele>130.40000000000001</ele>
        <time>2025-05-06T14:50:17Z</time>
      </trkpt>
      <trkpt lat="37.153669008985162" lon="-8.868890991434455">
        <ele>133.75999999999999</ele>
        <time>2025-05-06T14:50:23Z</time>
      </trkpt>
      <trkpt lat="37.153520984575152" lon="-8.86896500363946">
        <ele>133.75999999999999</ele>
        <time>2025-05-06T14:50:24Z</time>
      </trkpt>
      <trkpt lat="37.153375977650285" lon="-8.869041027501226">
        <ele>134.24000000000001</ele>
        <time>2025-05-06T14:50:25Z</time>
      </trkpt>
      <trkpt lat="37.153274975717068" lon="-8.869188968092203">
        <ele>134.72</ele>
        <time>2025-05-06T14:50:26Z</time>
      </trkpt>
      <trkpt lat="37.153143966570497" lon="-8.869378985837102">
        <ele>135.19999999999999</ele>
        <time>2025-05-06T14:50:27Z</time>
      </trkpt>
      <trkpt lat="37.153091998770833" lon="-8.869553999975324">
        <ele>135.68000000000001</ele>
        <time>2025-05-06T14:50:28Z</time>
      </trkpt>
      <trkpt lat="37.153024021536112" lon="-8.869780981913209">
        <ele>136.16</ele>
        <time>2025-05-06T14:50:29Z</time>
      </trkpt>
      <trkpt lat="37.152955960482359" lon="-8.870007041841745">
        <ele>136.16</ele>
        <time>2025-05-06T14:50:30Z</time>
      </trkpt>
      <trkpt lat="37.152873985469341" lon="-8.870203010737896">
        <ele>135.68000000000001</ele>
        <time>2025-05-06T14:50:31Z</time>
      </trkpt>
      <trkpt lat="37.152782035991549" lon="-8.870376013219357">
        <ele>135.68000000000001</ele>
        <time>2025-05-06T14:50:32Z</time>
      </trkpt>
      <trkpt lat="37.152653960511088" lon="-8.870547004044056">
        <ele>135.68000000000001</ele>
        <time>2025-05-06T14:50:33Z</time>
      </trkpt>
      <trkpt lat="37.152500990778208" lon="-8.870752025395632">
        <ele>135.19999999999999</ele>
        <time>2025-05-06T14:50:34Z</time>
      </trkpt>
      <trkpt lat="37.151742009446025" lon="-8.87147999368608">
        <ele>136.63999999999999</ele>
        <time>2025-05-06T14:50:39Z</time>
      </trkpt>
      <trkpt lat="37.151595996692777" lon="-8.871582001447678">
        <ele>136.63999999999999</ele>
        <time>2025-05-06T14:50:40Z</time>
      </trkpt>
      <trkpt lat="37.151435986161232" lon="-8.871640004217625">
        <ele>136.16</ele>
        <time>2025-05-06T14:50:41Z</time>
      </trkpt>
      <trkpt lat="37.1512580383569" lon="-8.871673028916121">
        <ele>136.63999999999999</ele>
        <time>2025-05-06T14:50:42Z</time>
      </trkpt>
      <trkpt lat="37.151067014783621" lon="-8.871664982289076">
        <ele>136.63999999999999</ele>
        <time>2025-05-06T14:50:43Z</time>
      </trkpt>
      <trkpt lat="37.150866016745567" lon="-8.871657019481063">
        <ele>137.13</ele>
        <time>2025-05-06T14:50:44Z</time>
      </trkpt>
      <trkpt lat="37.148914039134979" lon="-8.871510000899434">
        <ele>138.56999999999999</ele>
        <time>2025-05-06T14:50:53Z</time>
      </trkpt>
      <trkpt lat="37.148295035585761" lon="-8.871512012556195">
        <ele>138.56999999999999</ele>
        <time>2025-05-06T14:50:56Z</time>
      </trkpt>
      <trkpt lat="37.148109963163733" lon="-8.871539002284408">
        <ele>138.56999999999999</ele>
        <time>2025-05-06T14:50:57Z</time>
      </trkpt>
      <trkpt lat="37.147926986217499" lon="-8.87160899117589">
        <ele>138.56999999999999</ele>
        <time>2025-05-06T14:50:58Z</time>
      </trkpt>
      <trkpt lat="37.147745015099645" lon="-8.871695995330811">
        <ele>138.56999999999999</ele>
        <time>2025-05-06T14:50:59Z</time>
      </trkpt>
      <trkpt lat="37.147570000961423" lon="-8.871793979778886">
        <ele>138.56999999999999</ele>
        <time>2025-05-06T14:51:00Z</time>
      </trkpt>
      <trkpt lat="37.147407978773117" lon="-8.871938986703754">
        <ele>138.09</ele>
        <time>2025-05-06T14:51:01Z</time>
      </trkpt>
      <trkpt lat="37.147235982120037" lon="-8.872091034427285">
        <ele>138.09</ele>
        <time>2025-05-06T14:51:02Z</time>
      </trkpt>
      <trkpt lat="37.145641995593905" lon="-8.873556023463607">
        <ele>138.09</ele>
        <time>2025-05-06T14:51:11Z</time>
      </trkpt>
      <trkpt lat="37.144312039017677" lon="-8.874238980934024">
        <ele>135.68000000000001</ele>
        <time>2025-05-06T14:51:17Z</time>
      </trkpt>
      <trkpt lat="37.142380010336637" lon="-8.87496099807322">
        <ele>133.28</ele>
        <time>2025-05-06T14:51:26Z</time>
      </trkpt>
      <trkpt lat="37.140981992706656" lon="-8.875778988003731">
        <ele>132.31999999999999</ele>
        <time>2025-05-06T14:51:33Z</time>
      </trkpt>
      <trkpt lat="37.139310976490378" lon="-8.876825971528888">
        <ele>131.36000000000001</ele>
        <time>2025-05-06T14:51:41Z</time>
      </trkpt>
      <trkpt lat="37.137595033273101" lon="-8.877903968095779">
        <ele>132.80000000000001</ele>
        <time>2025-05-06T14:51:49Z</time>
      </trkpt>
      <trkpt lat="37.135082976892591" lon="-8.879458978772163">
        <ele>135.19999999999999</ele>
        <time>2025-05-06T14:52:01Z</time>
      </trkpt>
      <trkpt lat="37.133185984566808" lon="-8.880637977272272">
        <ele>139.05000000000001</ele>
        <time>2025-05-06T14:52:10Z</time>
      </trkpt>
      <trkpt lat="37.131323022767901" lon="-8.881802977994084">
        <ele>141.44999999999999</ele>
        <time>2025-05-06T14:52:19Z</time>
      </trkpt>
      <trkpt lat="37.130591031163931" lon="-8.882260965183377">
        <ele>140.97</ele>
        <time>2025-05-06T14:52:23Z</time>
      </trkpt>
      <trkpt lat="37.128987992182374" lon="-8.883264027535915">
        <ele>144.81999999999999</ele>
        <time>2025-05-06T14:52:32Z</time>
      </trkpt>
      <trkpt lat="37.127615958452225" lon="-8.884124010801315">
        <ele>150.09999999999999</ele>
        <time>2025-05-06T14:52:40Z</time>
      </trkpt>
      <trkpt lat="37.126039993017912" lon="-8.88518700376153">
        <ele>144.81999999999999</ele>
        <time>2025-05-06T14:52:49Z</time>
      </trkpt>
      <trkpt lat="37.124944981187582" lon="-8.886344041675329">
        <ele>138.09</ele>
        <time>2025-05-06T14:52:56Z</time>
      </trkpt>
      <trkpt lat="37.123745027929544" lon="-8.88774398714304">
        <ele>136.63999999999999</ele>
        <time>2025-05-06T14:53:04Z</time>
      </trkpt>
      <trkpt lat="37.123343031853437" lon="-8.888224018737674">
        <ele>135.19999999999999</ele>
        <time>2025-05-06T14:53:07Z</time>
      </trkpt>
      <trkpt lat="37.122905999422073" lon="-8.888736991211772">
        <ele>135.19999999999999</ele>
        <time>2025-05-06T14:53:10Z</time>
      </trkpt>
      <trkpt lat="37.121590040624142" lon="-8.890182031318545">
        <ele>132.80000000000001</ele>
        <time>2025-05-06T14:53:18Z</time>
      </trkpt>
      <trkpt lat="37.119695981964469" lon="-8.892021020874381">
        <ele>132.31999999999999</ele>
        <time>2025-05-06T14:53:29Z</time>
      </trkpt>
      <trkpt lat="37.118325959891081" lon="-8.893310995772481">
        <ele>132.80000000000001</ele>
        <time>2025-05-06T14:53:37Z</time>
      </trkpt>
      <trkpt lat="37.116272980347276" lon="-8.895254004746676">
        <ele>133.75999999999999</ele>
        <time>2025-05-06T14:53:49Z</time>
      </trkpt>
      <trkpt lat="37.114868005737662" lon="-8.896596031263471">
        <ele>133.28</ele>
        <time>2025-05-06T14:53:57Z</time>
      </trkpt>
      <trkpt lat="37.112855007871985" lon="-8.898522024974227">
        <ele>131.36000000000001</ele>
        <time>2025-05-06T14:54:08Z</time>
      </trkpt>
      <trkpt lat="37.111371997743845" lon="-8.899932028725743">
        <ele>133.75999999999999</ele>
        <time>2025-05-06T14:54:16Z</time>
      </trkpt>
      <trkpt lat="37.109678015112877" lon="-8.901564991101623">
        <ele>128.94999999999999</ele>
        <time>2025-05-06T14:54:25Z</time>
      </trkpt>
      <trkpt lat="37.108103977516294" lon="-8.903073985129595">
        <ele>126.06999999999999</ele>
        <time>2025-05-06T14:54:35Z</time>
      </trkpt>
      <trkpt lat="37.106598000973463" lon="-8.904520031064749">
        <ele>130.88</ele>
        <time>2025-05-06T14:54:45Z</time>
      </trkpt>
      <trkpt lat="37.10538798943162" lon="-8.905698023736477">
        <ele>130.88</ele>
        <time>2025-05-06T14:54:51Z</time>
      </trkpt>
      <trkpt lat="37.102942988276482" lon="-8.908022996038199">
        <ele>127.03</ele>
        <time>2025-05-06T14:55:04Z</time>
      </trkpt>
      <trkpt lat="37.101418990641832" lon="-8.909307019785047">
        <ele>125.11</ele>
        <time>2025-05-06T14:55:12Z</time>
      </trkpt>
      <trkpt lat="37.099434994161129" lon="-8.910185024142265">
        <ele>127.51000000000001</ele>
        <time>2025-05-06T14:55:21Z</time>
      </trkpt>
      <trkpt lat="37.097958019003272" lon="-8.910787012428045">
        <ele>126.06999999999999</ele>
        <time>2025-05-06T14:55:28Z</time>
      </trkpt>
      <trkpt lat="37.09640996530652" lon="-8.911343989893794">
        <ele>127.51000000000001</ele>
        <time>2025-05-06T14:55:35Z</time>
      </trkpt>
      <trkpt lat="37.093690037727356" lon="-8.912196010351181">
        <ele>127.51000000000001</ele>
        <time>2025-05-06T14:55:47Z</time>
      </trkpt>
      <trkpt lat="37.092078030109406" lon="-8.912293994799256">
        <ele>128.94999999999999</ele>
        <time>2025-05-06T14:55:54Z</time>
      </trkpt>
      <trkpt lat="37.090237028896809" lon="-8.911896022036672">
        <ele>127.98999999999999</ele>
        <time>2025-05-06T14:56:02Z</time>
      </trkpt>
      <trkpt lat="37.088035019114614" lon="-8.911413978785276">
        <ele>115.98</ele>
        <time>2025-05-06T14:56:11Z</time>
      </trkpt>
      <trkpt lat="37.086488977074623" lon="-8.911066967993975">
        <ele>103.95999999999999</ele>
        <time>2025-05-06T14:56:19Z</time>
      </trkpt>
      <trkpt lat="37.086082035675645" lon="-8.910887008532882">
        <ele>99.629999999999995</ele>
        <time>2025-05-06T14:56:22Z</time>
      </trkpt>
      <trkpt lat="37.085968041792512" lon="-8.9107979927212">
        <ele>98.189999999999998</ele>
        <time>2025-05-06T14:56:23Z</time>
      </trkpt>
      <trkpt lat="37.085866034030914" lon="-8.91069196164608">
        <ele>96.75</ele>
        <time>2025-05-06T14:56:24Z</time>
      </trkpt>
      <trkpt lat="37.085667969658971" lon="-8.910485012456775">
        <ele>93.870000000000005</ele>
        <time>2025-05-06T14:56:26Z</time>
      </trkpt>
      <trkpt lat="37.08557803183794" lon="-8.910391973331571">
        <ele>92.420000000000002</ele>
        <time>2025-05-06T14:56:27Z</time>
      </trkpt>
      <trkpt lat="37.085248036310077" lon="-8.909836001694202">
        <ele>88.579999999999998</ele>
        <time>2025-05-06T14:56:33Z</time>
      </trkpt>
      <trkpt lat="37.084835981950164" lon="-8.90877895988524">
        <ele>86.180000000000007</ele>
        <time>2025-05-06T14:56:39Z</time>
      </trkpt>
      <trkpt lat="37.084750989452004" lon="-8.908608974888921">
        <ele>85.689999999999998</ele>
        <time>2025-05-06T14:56:40Z</time>
      </trkpt>
      <trkpt lat="37.084673037752509" lon="-8.908452987670898">
        <ele>85.209999999999994</ele>
        <time>2025-05-06T14:56:41Z</time>
      </trkpt>
      <trkpt lat="37.084560971707106" lon="-8.90832600183785">
        <ele>85.209999999999994</ele>
        <time>2025-05-06T14:56:42Z</time>
      </trkpt>
      <trkpt lat="37.084453012794256" lon="-8.908202033489943">
        <ele>84.730000000000004</ele>
        <time>2025-05-06T14:56:43Z</time>
      </trkpt>
      <trkpt lat="37.084346981719136" lon="-8.908088961616159">
        <ele>84.25</ele>
        <time>2025-05-06T14:56:44Z</time>
      </trkpt>
      <trkpt lat="37.08422502502799" lon="-8.907989971339703">
        <ele>83.769999999999996</ele>
        <time>2025-05-06T14:56:45Z</time>
      </trkpt>
      <trkpt lat="37.084102984517813" lon="-8.907890981063247">
        <ele>82.810000000000002</ele>
        <time>2025-05-06T14:56:46Z</time>
      </trkpt>
      <trkpt lat="37.083983039483428" lon="-8.907812023535371">
        <ele>82.329999999999998</ele>
        <time>2025-05-06T14:56:47Z</time>
      </trkpt>
      <trkpt lat="37.083847001194954" lon="-8.907756032422185">
        <ele>81.849999999999994</ele>
        <time>2025-05-06T14:56:48Z</time>
      </trkpt>
      <trkpt lat="37.08371196873486" lon="-8.907700041308999">
        <ele>81.849999999999994</ele>
        <time>2025-05-06T14:56:49Z</time>
      </trkpt>
      <trkpt lat="37.083580959588289" lon="-8.907663999125361">
        <ele>81.849999999999994</ele>
        <time>2025-05-06T14:56:50Z</time>
      </trkpt>
      <trkpt lat="37.082904037088156" lon="-8.907525027170777">
        <ele>83.290000000000006</ele>
        <time>2025-05-06T14:56:56Z</time>
      </trkpt>
      <trkpt lat="37.08280798047781" lon="-8.90750901773572">
        <ele>82.810000000000002</ele>
        <time>2025-05-06T14:56:57Z</time>
      </trkpt>
      <trkpt lat="37.082713013514876" lon="-8.907527038827539">
        <ele>82.810000000000002</ele>
        <time>2025-05-06T14:56:58Z</time>
      </trkpt>
      <trkpt lat="37.082623997703195" lon="-8.907572971656919">
        <ele>82.810000000000002</ele>
        <time>2025-05-06T14:56:59Z</time>
      </trkpt>
      <trkpt lat="37.082531964406371" lon="-8.907642038539052">
        <ele>82.329999999999998</ele>
        <time>2025-05-06T14:57:00Z</time>
      </trkpt>
      <trkpt lat="37.082470022141933" lon="-8.907742034643889">
        <ele>82.810000000000002</ele>
        <time>2025-05-06T14:57:01Z</time>
      </trkpt>
      <trkpt lat="37.082419982179999" lon="-8.907850999385119">
        <ele>82.810000000000002</ele>
        <time>2025-05-06T14:57:02Z</time>
      </trkpt>
      <trkpt lat="37.082387963309884" lon="-8.907946972176433">
        <ele>82.810000000000002</ele>
        <time>2025-05-06T14:57:03Z</time>
      </trkpt>
      <trkpt lat="37.082362985238433" lon="-8.908022996038199">
        <ele>82.810000000000002</ele>
        <time>2025-05-06T14:57:04Z</time>
      </trkpt>
      <trkpt lat="37.082343958318233" lon="-8.908078987151384">
        <ele>83.290000000000006</ele>
        <time>2025-05-06T14:57:05Z</time>
      </trkpt>
      <trkpt lat="37.082331972196698" lon="-8.908116035163403">
        <ele>83.290000000000006</ele>
        <time>2025-05-06T14:57:06Z</time>
      </trkpt>
      <trkpt lat="37.082321997731924" lon="-8.908145958557725">
        <ele>83.290000000000006</ele>
        <time>2025-05-06T14:57:07Z</time>
      </trkpt>
      <trkpt lat="37.08231202326715" lon="-8.908174959942699">
        <ele>83.290000000000006</ele>
        <time>2025-05-06T14:57:08Z</time>
      </trkpt>
      <trkpt lat="37.082302970811725" lon="-8.908203961327672">
        <ele>83.290000000000006</ele>
        <time>2025-05-06T14:57:09Z</time>
      </trkpt>
      <trkpt lat="37.082290984690189" lon="-8.908237991854549">
        <ele>83.769999999999996</ele>
        <time>2025-05-06T14:57:10Z</time>
      </trkpt>
      <trkpt lat="37.082273969426751" lon="-8.908289959654212">
        <ele>83.769999999999996</ele>
        <time>2025-05-06T14:57:11Z</time>
      </trkpt>
      <trkpt lat="37.082251003012061" lon="-8.908358020707965">
        <ele>83.769999999999996</ele>
        <time>2025-05-06T14:57:12Z</time>
      </trkpt>
      <trkpt lat="37.082227030768991" lon="-8.908431027084589">
        <ele>84.25</ele>
        <time>2025-05-06T14:57:13Z</time>
      </trkpt>
      <trkpt lat="37.082145977765322" lon="-8.908674018457532">
        <ele>84.25</ele>
        <time>2025-05-06T14:57:16Z</time>
      </trkpt>
      <trkpt lat="37.082117982208729" lon="-8.908761022612453">
        <ele>84.730000000000004</ele>
        <time>2025-05-06T14:57:17Z</time>
      </trkpt>
      <trkpt lat="37.082095015794039" lon="-8.908850960433483">
        <ele>84.730000000000004</ele>
        <time>2025-05-06T14:57:18Z</time>
      </trkpt>
      <trkpt lat="37.082070037722588" lon="-8.908940982073546">
        <ele>85.209999999999994</ele>
        <time>2025-05-06T14:57:19Z</time>
      </trkpt>
      <trkpt lat="37.082030978053808" lon="-8.909029997885227">
        <ele>84.730000000000004</ele>
        <time>2025-05-06T14:57:20Z</time>
      </trkpt>
      <trkpt lat="37.081903992220759" lon="-8.909454038366675">
        <ele>81.849999999999994</ele>
        <time>2025-05-06T14:57:24Z</time>
      </trkpt>
      <trkpt lat="37.081865016371012" lon="-8.90955101698637">
        <ele>81.370000000000005</ele>
        <time>2025-05-06T14:57:25Z</time>
      </trkpt>
      <trkpt lat="37.08145204000175" lon="-8.91081802546978">
        <ele>78.969999999999999</ele>
        <time>2025-05-06T14:57:37Z</time>
      </trkpt>
      <trkpt lat="37.081261016428471" lon="-8.911199988797307">
        <ele>78</ele>
        <time>2025-05-06T14:57:41Z</time>
      </trkpt>
      <trkpt lat="37.081213993951678" lon="-8.911275006830692">
        <ele>77.519999999999996</ele>
        <time>2025-05-06T14:57:42Z</time>
      </trkpt>
      <trkpt lat="37.08119697868824" lon="-8.911479022353888">
        <ele>77.040000000000006</ele>
        <time>2025-05-06T14:57:43Z</time>
      </trkpt>
      <trkpt lat="37.08119697868824" lon="-8.911607014015317">
        <ele>75.599999999999994</ele>
        <time>2025-05-06T14:57:45Z</time>
      </trkpt>
      <trkpt lat="37.081165965646505" lon="-8.911644984036684">
        <ele>75.120000000000005</ele>
        <time>2025-05-06T14:57:46Z</time>
      </trkpt>
      <trkpt lat="37.081121038645506" lon="-8.91169804148376">
        <ele>74.640000000000001</ele>
        <time>2025-05-06T14:57:47Z</time>
      </trkpt>
      <trkpt lat="37.08104501478374" lon="-8.911725031211972">
        <ele>74.640000000000001</ele>
        <time>2025-05-06T14:57:48Z</time>
      </trkpt>
      <trkpt lat="37.080978965386748" lon="-8.911709021776915">
        <ele>74.159999999999997</ele>
        <time>2025-05-06T14:57:49Z</time>
      </trkpt>
      <trkpt lat="37.080899002030492" lon="-8.911654958501458">
        <ele>74.640000000000001</ele>
        <time>2025-05-06T14:57:50Z</time>
      </trkpt>
      <trkpt lat="37.080875029787421" lon="-8.911607014015317">
        <ele>74.640000000000001</ele>
        <time>2025-05-06T14:57:51Z</time>
      </trkpt>
      <trkpt lat="37.080888021737337" lon="-8.91146301291883">
        <ele>75.599999999999994</ele>
        <time>2025-05-06T14:57:52Z</time>
      </trkpt>
      <trkpt lat="37.080861032009125" lon="-8.911328986287117">
        <ele>75.599999999999994</ele>
        <time>2025-05-06T14:57:53Z</time>
      </trkpt>
      <trkpt lat="37.080793976783752" lon="-8.911249022930861">
        <ele>76.079999999999998</ele>
        <time>2025-05-06T14:57:54Z</time>
      </trkpt>
      <trkpt lat="37.080715019255877" lon="-8.911167969927192">
        <ele>76.079999999999998</ele>
        <time>2025-05-06T14:57:55Z</time>
      </trkpt>
      <trkpt lat="37.080638995394111" lon="-8.911093035712838">
        <ele>76.560000000000002</ele>
        <time>2025-05-06T14:57:56Z</time>
      </trkpt>
      <trkpt lat="37.080538999289274" lon="-8.911079959943891">
        <ele>77.040000000000006</ele>
        <time>2025-05-06T14:57:57Z</time>
      </trkpt>
      <trkpt lat="37.080447971820831" lon="-8.911068979650736">
        <ele>77.519999999999996</ele>
        <time>2025-05-06T14:57:58Z</time>
      </trkpt>
      <trkpt lat="37.080296007916331" lon="-8.911049030721188">
        <ele>78</ele>
        <time>2025-05-06T14:57:59Z</time>
      </trkpt>
      <trkpt lat="37.080236999318004" lon="-8.911087000742555">
        <ele>78</ele>
        <time>2025-05-06T14:58:00Z</time>
      </trkpt>
      <trkpt lat="37.080134991556406" lon="-8.911151960492134">
        <ele>78.480000000000004</ele>
        <time>2025-05-06T14:58:01Z</time>
      </trkpt>
      <trkpt lat="37.07999300211668" lon="-8.911246005445719">
        <ele>78.480000000000004</ele>
        <time>2025-05-06T14:58:02Z</time>
      </trkpt>
      <trkpt lat="37.079901974648237" lon="-8.911382965743542">
        <ele>78.480000000000004</ele>
        <time>2025-05-06T14:58:03Z</time>
      </trkpt>
      <trkpt lat="37.078848034143448" lon="-8.912854995578528">
        <ele>78</ele>
        <time>2025-05-06T14:58:12Z</time>
      </trkpt>
      <trkpt lat="37.077663000673056" lon="-8.914029970765114">
        <ele>78.969999999999999</ele>
        <time>2025-05-06T14:58:19Z</time>
      </trkpt>
      <trkpt lat="37.075809007510543" lon="-8.915304020047188">
        <ele>83.769999999999996</ele>
        <time>2025-05-06T14:58:28Z</time>
      </trkpt>
      <trkpt lat="37.07285899668932" lon="-8.917259015142918">
        <ele>94.349999999999994</ele>
        <time>2025-05-06T14:58:42Z</time>
      </trkpt>
      <trkpt lat="37.070553973317146" lon="-8.918887032195926">
        <ele>96.269999999999996</ele>
        <time>2025-05-06T14:58:54Z</time>
      </trkpt>
      <trkpt lat="37.068292032927275" lon="-8.921019975095987">
        <ele>90.5</ele>
        <time>2025-05-06T14:59:06Z</time>
      </trkpt>
      <trkpt lat="37.066232012584805" lon="-8.922495022416115">
        <ele>82.329999999999998</ele>
        <time>2025-05-06T14:59:16Z</time>
      </trkpt>
      <trkpt lat="37.064474998041987" lon="-8.92284999601543">
        <ele>77.040000000000006</ele>
        <time>2025-05-06T14:59:23Z</time>
      </trkpt>
      <trkpt lat="37.061200020834804" lon="-8.922943035140634">
        <ele>70.310000000000002</ele>
        <time>2025-05-06T14:59:36Z</time>
      </trkpt>
      <trkpt lat="37.057380974292755" lon="-8.92304303124547">
        <ele>68.390000000000001</ele>
        <time>2025-05-06T14:59:52Z</time>
      </trkpt>
      <trkpt lat="37.05483203753829" lon="-8.923363974317908">
        <ele>69.349999999999994</ele>
        <time>2025-05-06T15:00:02Z</time>
      </trkpt>
      <trkpt lat="37.053219024091959" lon="-8.92433300614357">
        <ele>67.909999999999997</ele>
        <time>2025-05-06T15:00:09Z</time>
      </trkpt>
      <trkpt lat="37.050748961046338" lon="-8.926635012030602">
        <ele>61.659999999999997</ele>
        <time>2025-05-06T15:00:21Z</time>
      </trkpt>
      <trkpt lat="37.047986034303904" lon="-8.92893098294735">
        <ele>57.82</ele>
        <time>2025-05-06T15:00:34Z</time>
      </trkpt>
      <trkpt lat="37.045626025646925" lon="-8.929946031421423">
        <ele>55.890000000000001</ele>
        <time>2025-05-06T15:00:44Z</time>
      </trkpt>
      <trkpt lat="37.042080983519554" lon="-8.931395011022687">
        <ele>52.530000000000001</ele>
        <time>2025-05-06T15:00:59Z</time>
      </trkpt>
      <trkpt lat="37.038941038772464" lon="-8.932678028941155">
        <ele>50.609999999999999</ele>
        <time>2025-05-06T15:01:12Z</time>
      </trkpt>
      <trkpt lat="37.035857001319528" lon="-8.933939002454281">
        <ele>48.200000000000003</ele>
        <time>2025-05-06T15:01:25Z</time>
      </trkpt>
      <trkpt lat="37.032373985275626" lon="-8.935361998155713">
        <ele>47.240000000000002</ele>
        <time>2025-05-06T15:01:40Z</time>
      </trkpt>
      <trkpt lat="37.030010959133506" lon="-8.936263974756002">
        <ele>43.880000000000003</ele>
        <time>2025-05-06T15:01:51Z</time>
      </trkpt>
      <trkpt lat="37.027416005730629" lon="-8.937097974121571">
        <ele>39.07</ele>
        <time>2025-05-06T15:02:03Z</time>
      </trkpt>
      <trkpt lat="37.02550602145493" lon="-8.937645982950926">
        <ele>35.710000000000001</ele>
        <time>2025-05-06T15:02:13Z</time>
      </trkpt>
      <trkpt lat="37.024228032678366" lon="-8.937785960733891">
        <ele>34.259999999999998</ele>
        <time>2025-05-06T15:02:21Z</time>
      </trkpt>
      <trkpt lat="37.022438999265432" lon="-8.937830971553922">
        <ele>28.98</ele>
        <time>2025-05-06T15:02:33Z</time>
      </trkpt>
      <trkpt lat="37.021256983280182" lon="-8.938390966504812">
        <ele>27.050000000000001</ele>
        <time>2025-05-06T15:02:42Z</time>
      </trkpt>
      <trkpt lat="37.020118972286582" lon="-8.938939981162548">
        <ele>27.530000000000001</ele>
        <time>2025-05-06T15:02:52Z</time>
      </trkpt>
      <trkpt lat="37.019049022346735" lon="-8.939462006092072">
        <ele>21.77</ele>
        <time>2025-05-06T15:03:03Z</time>
      </trkpt>
      <trkpt lat="37.017829958349466" lon="-8.940040022134781">
        <ele>17.920000000000002</ele>
        <time>2025-05-06T15:03:14Z</time>
      </trkpt>
      <trkpt lat="37.016430012881756" lon="-8.940714010968804">
        <ele>18.399999999999999</ele>
        <time>2025-05-06T15:03:27Z</time>
      </trkpt>
      <trkpt lat="37.01545100659132" lon="-8.941187001764774">
        <ele>20.32</ele>
        <time>2025-05-06T15:03:39Z</time>
      </trkpt>
      <trkpt lat="37.014866033568978" lon="-8.941462012007833">
        <ele>20.32</ele>
        <time>2025-05-06T15:03:49Z</time>
      </trkpt>
      <trkpt lat="37.014693031087518" lon="-8.941537030041218">
        <ele>20.32</ele>
        <time>2025-05-06T15:03:56Z</time>
      </trkpt>
      <trkpt lat="37.013848973438144" lon="-8.941952018067241">
        <ele>22.25</ele>
        <time>2025-05-06T15:04:05Z</time>
      </trkpt>
      <trkpt lat="37.012653965502977" lon="-8.942520981654525">
        <ele>25.609999999999999</ele>
        <time>2025-05-06T15:04:16Z</time>
      </trkpt>
      <trkpt lat="37.01104799285531" lon="-8.943291027098894">
        <ele>30.899999999999999</ele>
        <time>2025-05-06T15:04:29Z</time>
      </trkpt>
      <trkpt lat="37.009700015187263" lon="-8.943943977355957">
        <ele>35.229999999999997</ele>
        <time>2025-05-06T15:04:41Z</time>
      </trkpt>
      <trkpt lat="37.009466998279095" lon="-8.944153022021055">
        <ele>37.149999999999999</ele>
        <time>2025-05-06T15:04:47Z</time>
      </trkpt>
      <trkpt lat="37.00941301882267" lon="-8.944360977038741">
        <ele>39.07</ele>
        <time>2025-05-06T15:04:53Z</time>
      </trkpt>
      <trkpt lat="37.00939298607409" lon="-8.944411017000675">
        <ele>39.07</ele>
        <time>2025-05-06T15:04:54Z</time>
      </trkpt>
      <trkpt lat="37.009369013831019" lon="-8.944471031427383">
        <ele>39.549999999999997</ele>
        <time>2025-05-06T15:04:55Z</time>
      </trkpt>
      <trkpt lat="37.009224006906152" lon="-8.944789040833712">
        <ele>40.030000000000001</ele>
        <time>2025-05-06T15:05:00Z</time>
      </trkpt>
      <trkpt lat="37.009158963337541" lon="-8.944918960332871">
        <ele>40.509999999999998</ele>
        <time>2025-05-06T15:05:02Z</time>
      </trkpt>
      <trkpt lat="37.009092997759581" lon="-8.945050975307822">
        <ele>40.509999999999998</ele>
        <time>2025-05-06T15:05:04Z</time>
      </trkpt>
      <trkpt lat="37.009056033566594" lon="-8.945123981684446">
        <ele>40.509999999999998</ele>
        <time>2025-05-06T15:05:05Z</time>
      </trkpt>
      <trkpt lat="37.009023008868098" lon="-8.945198999717832">
        <ele>40.509999999999998</ele>
        <time>2025-05-06T15:05:06Z</time>
      </trkpt>
      <trkpt lat="37.008744981139898" lon="-8.945993017405272">
        <ele>40.030000000000001</ele>
        <time>2025-05-06T15:05:16Z</time>
      </trkpt>
      <trkpt lat="37.008734000846744" lon="-8.946025036275387">
        <ele>40.030000000000001</ele>
        <time>2025-05-06T15:05:17Z</time>
      </trkpt>
      <trkpt lat="37.008669963106513" lon="-8.946106005460024">
        <ele>40.030000000000001</ele>
        <time>2025-05-06T15:05:18Z</time>
      </trkpt>
      <trkpt lat="37.008624030277133" lon="-8.946164008229971">
        <ele>40.030000000000001</ele>
        <time>2025-05-06T15:05:19Z</time>
      </trkpt>
      <trkpt lat="37.008579019457102" lon="-8.946221005171537">
        <ele>39.549999999999997</ele>
        <time>2025-05-06T15:05:20Z</time>
      </trkpt>
      <trkpt lat="37.008492015302181" lon="-8.946330975741148">
        <ele>39.549999999999997</ele>
        <time>2025-05-06T15:05:22Z</time>
      </trkpt>
      <trkpt lat="37.008351031690836" lon="-8.946584025397897">
        <ele>37.630000000000003</ele>
        <time>2025-05-06T15:05:29Z</time>
      </trkpt>
      <trkpt lat="37.008379027247429" lon="-8.94663599319756">
        <ele>37.630000000000003</ele>
        <time>2025-05-06T15:05:30Z</time>
      </trkpt>
      <trkpt lat="37.008741963654757" lon="-8.947293972596526">
        <ele>38.109999999999999</ele>
        <time>2025-05-06T15:05:37Z</time>
      </trkpt>
      <trkpt lat="37.009584009647369" lon="-8.94858998246491">
        <ele>36.189999999999998</ele>
        <time>2025-05-06T15:05:48Z</time>
      </trkpt>
      <trkpt lat="37.010884964838624" lon="-8.949683988466859">
        <ele>31.859999999999999</ele>
        <time>2025-05-06T15:05:58Z</time>
      </trkpt>
      <trkpt lat="37.012891005724669" lon="-8.951400015503168">
        <ele>26.09</ele>
        <time>2025-05-06T15:06:11Z</time>
      </trkpt>
      <trkpt lat="37.015726016834378" lon="-8.953822972252965">
        <ele>28.5</ele>
        <time>2025-05-06T15:06:27Z</time>
      </trkpt>
      <trkpt lat="37.017077011987567" lon="-8.95497196353972">
        <ele>29.460000000000001</ele>
        <time>2025-05-06T15:06:36Z</time>
      </trkpt>
      <trkpt lat="37.01792299747467" lon="-8.955685012042522">
        <ele>30.899999999999999</ele>
        <time>2025-05-06T15:06:45Z</time>
      </trkpt>
      <trkpt lat="37.0187399815768" lon="-8.956331005319953">
        <ele>31.379999999999999</ele>
        <time>2025-05-06T15:06:51Z</time>
      </trkpt>
      <trkpt lat="37.019956028088927" lon="-8.957294002175331">
        <ele>36.189999999999998</ele>
        <time>2025-05-06T15:07:00Z</time>
      </trkpt>
      <trkpt lat="37.021002005785704" lon="-8.958120960742235">
        <ele>38.590000000000003</ele>
        <time>2025-05-06T15:07:06Z</time>
      </trkpt>
      <trkpt lat="37.023713970556855" lon="-8.960254993289709">
        <ele>42.920000000000002</ele>
        <time>2025-05-06T15:07:20Z</time>
      </trkpt>
      <trkpt lat="37.025747001171112" lon="-8.96184403449297">
        <ele>47.719999999999999</ele>
        <time>2025-05-06T15:07:32Z</time>
      </trkpt>
      <trkpt lat="37.027208972722292" lon="-8.962977016344667">
        <ele>53.009999999999998</ele>
        <time>2025-05-06T15:07:45Z</time>
      </trkpt>
      <trkpt lat="37.02733201906085" lon="-8.963122023269534">
        <ele>53.009999999999998</ele>
        <time>2025-05-06T15:07:46Z</time>
      </trkpt>
      <trkpt lat="37.02741801738739" lon="-8.963263006880879">
        <ele>53.009999999999998</ele>
        <time>2025-05-06T15:07:47Z</time>
      </trkpt>
      <trkpt lat="37.027507033199072" lon="-8.963410025462508">
        <ele>53.009999999999998</ele>
        <time>2025-05-06T15:07:48Z</time>
      </trkpt>
      <trkpt lat="37.027548020705581" lon="-8.963573975488544">
        <ele>52.530000000000001</ele>
        <time>2025-05-06T15:07:49Z</time>
      </trkpt>
      <trkpt lat="37.027576016262174" lon="-8.963776985183358">
        <ele>52.530000000000001</ele>
        <time>2025-05-06T15:07:50Z</time>
      </trkpt>
      <trkpt lat="37.027596971020103" lon="-8.963988041505218">
        <ele>52.530000000000001</ele>
        <time>2025-05-06T15:07:51Z</time>
      </trkpt>
      <trkpt lat="37.027636030688882" lon="-8.966283006593585">
        <ele>52.530000000000001</ele>
        <time>2025-05-06T15:08:00Z</time>
      </trkpt>
      <trkpt lat="37.027631001546979" lon="-8.969697039574385">
        <ele>54.450000000000003</ele>
        <time>2025-05-06T15:08:13Z</time>
      </trkpt>
      <trkpt lat="37.027512984350324" lon="-8.971553966403008">
        <ele>54.93</ele>
        <time>2025-05-06T15:08:21Z</time>
      </trkpt>
      <trkpt lat="37.027321038767695" lon="-8.97420197725296">
        <ele>57.82</ele>
        <time>2025-05-06T15:08:33Z</time>
      </trkpt>
      <trkpt lat="37.027350040152669" lon="-8.976512029767036">
        <ele>60.700000000000003</ele>
        <time>2025-05-06T15:08:43Z</time>
      </trkpt>
      <trkpt lat="37.02780400402844" lon="-8.979073958471417">
        <ele>66.469999999999999</ele>
        <time>2025-05-06T15:08:55Z</time>
      </trkpt>
      <trkpt lat="37.028260985389352" lon="-8.982021035626531">
        <ele>65.989999999999995</ele>
        <time>2025-05-06T15:09:10Z</time>
      </trkpt>
      <trkpt lat="37.028174987062812" lon="-8.983963038772345">
        <ele>64.549999999999997</ele>
        <time>2025-05-06T15:09:19Z</time>
      </trkpt>
      <trkpt lat="37.028083959594369" lon="-8.984189014881849">
        <ele>64.069999999999993</ele>
        <time>2025-05-06T15:09:20Z</time>
      </trkpt>
      <trkpt lat="37.028002990409732" lon="-8.984391018748283">
        <ele>63.100000000000001</ele>
        <time>2025-05-06T15:09:21Z</time>
      </trkpt>
      <trkpt lat="37.026898004114628" lon="-8.987095020711422">
        <ele>63.579999999999998</ele>
        <time>2025-05-06T15:09:35Z</time>
      </trkpt>
      <trkpt lat="37.026526015251875" lon="-8.98799498565495">
        <ele>64.069999999999993</ele>
        <time>2025-05-06T15:09:42Z</time>
      </trkpt>
      <trkpt lat="37.025964008644223" lon="-8.989356961101294">
        <ele>65.030000000000001</ele>
        <time>2025-05-06T15:09:56Z</time>
      </trkpt>
      <trkpt lat="37.025448018684983" lon="-8.990608965978026">
        <ele>66.469999999999999</ele>
        <time>2025-05-06T15:10:09Z</time>
      </trkpt>
      <trkpt lat="37.024909984320402" lon="-8.99190497584641">
        <ele>65.030000000000001</ele>
        <time>2025-05-06T15:10:21Z</time>
      </trkpt>
      <trkpt lat="37.024431964382529" lon="-8.993038041517139">
        <ele>64.549999999999997</ele>
        <time>2025-05-06T15:10:34Z</time>
      </trkpt>
      <trkpt lat="37.024156032130122" lon="-8.993693003430963">
        <ele>65.510000000000005</ele>
        <time>2025-05-06T15:10:45Z</time>
      </trkpt>
      <trkpt lat="37.024014964699745" lon="-8.994026016443968">
        <ele>66.469999999999999</ele>
        <time>2025-05-06T15:10:57Z</time>
      </trkpt>
      <trkpt lat="37.023828970268369" lon="-8.994466988369823">
        <ele>66.950000000000003</ele>
        <time>2025-05-06T15:11:12Z</time>
      </trkpt>
      <trkpt lat="37.023753030225635" lon="-8.994647031649947">
        <ele>66.950000000000003</ele>
        <time>2025-05-06T15:11:19Z</time>
      </trkpt>
      <trkpt lat="37.023783037438989" lon="-8.994530020281673">
        <ele>66.469999999999999</ele>
        <time>2025-05-06T15:11:26Z</time>
      </trkpt>
      <trkpt lat="37.023820001631975" lon="-8.994488026946783">
        <ele>65.989999999999995</ele>
        <time>2025-05-06T15:11:40Z</time>
      </trkpt>
      <trkpt lat="37.023820001631975" lon="-8.994488026946783">
        <ele>65.989999999999995</ele>
        <time>2025-05-06T15:11:49Z</time>
      </trkpt>
      <trkpt lat="37.023823019117117" lon="-8.994470005854964">
        <ele>65.510000000000005</ele>
        <time>2025-05-06T16:11:35Z</time>
      </trkpt>
      <trkpt lat="37.023822013288736" lon="-8.994466988369823">
        <ele>65.989999999999995</ele>
        <time>2025-05-06T16:12:24Z</time>
      </trkpt>
      <trkpt lat="37.023817989975214" lon="-8.9944629650563">
        <ele>65.989999999999995</ele>
        <time>2025-05-06T16:13:20Z</time>
      </trkpt>
      <trkpt lat="37.023817989975214" lon="-8.994461037218571">
        <ele>65.989999999999995</ele>
        <time>2025-05-06T16:14:17Z</time>
      </trkpt>
      <trkpt lat="37.023820001631975" lon="-8.994466988369823">
        <ele>66.469999999999999</ele>
        <time>2025-05-06T16:15:18Z</time>
      </trkpt>
      <trkpt lat="37.023816984146833" lon="-8.994463970884681">
        <ele>66.469999999999999</ele>
        <time>2025-05-06T16:16:11Z</time>
      </trkpt>
      <trkpt lat="37.023816984146833" lon="-8.994463970884681">
        <ele>66.469999999999999</ele>
        <time>2025-05-06T16:16:14Z</time>
      </trkpt>
      <trkpt lat="37.02385202050209" lon="-8.994413008913398">
        <ele>67.430000000000007</ele>
        <time>2025-05-06T16:16:20Z</time>
      </trkpt>
      <trkpt lat="37.023868029937148" lon="-8.994375038892031">
        <ele>67.909999999999997</ele>
        <time>2025-05-06T16:16:21Z</time>
      </trkpt>
      <trkpt lat="37.023889990523458" lon="-8.994322987273336">
        <ele>67.909999999999997</ele>
        <time>2025-05-06T16:16:22Z</time>
      </trkpt>
      <trkpt lat="37.024212023243308" lon="-8.99355897679925">
        <ele>68.390000000000001</ele>
        <time>2025-05-06T16:16:32Z</time>
      </trkpt>
      <trkpt lat="37.024829015135765" lon="-8.99209801107645">
        <ele>66.950000000000003</ele>
        <time>2025-05-06T16:16:43Z</time>
      </trkpt>
      <trkpt lat="37.025748006999493" lon="-8.989882003515959">
        <ele>67.909999999999997</ele>
        <time>2025-05-06T16:16:55Z</time>
      </trkpt>
      <trkpt lat="37.027284996584058" lon="-8.986166976392269">
        <ele>67.430000000000007</ele>
        <time>2025-05-06T16:17:12Z</time>
      </trkpt>
      <trkpt lat="37.028144979849458" lon="-8.984037972986698">
        <ele>65.510000000000005</ele>
        <time>2025-05-06T16:17:22Z</time>
      </trkpt>
      <trkpt lat="37.028193008154631" lon="-8.983832029625773">
        <ele>65.989999999999995</ele>
        <time>2025-05-06T16:17:23Z</time>
      </trkpt>
      <trkpt lat="37.028222009539604" lon="-8.983621979132295">
        <ele>66.469999999999999</ele>
        <time>2025-05-06T16:17:24Z</time>
      </trkpt>
      <trkpt lat="37.02821396291256" lon="-8.98139800876379">
        <ele>68.390000000000001</ele>
        <time>2025-05-06T16:17:34Z</time>
      </trkpt>
      <trkpt lat="37.027828982099891" lon="-8.979216031730175">
        <ele>71.269999999999996</ele>
        <time>2025-05-06T16:17:45Z</time>
      </trkpt>
      <trkpt lat="37.027716999873519" lon="-8.978580012917519">
        <ele>72.239999999999995</ele>
        <time>2025-05-06T16:17:53Z</time>
      </trkpt>
      <trkpt lat="37.02760904096067" lon="-8.977971989661455">
        <ele>71.760000000000005</ele>
        <time>2025-05-06T16:18:00Z</time>
      </trkpt>
      <trkpt lat="37.027602000162005" lon="-8.977929996326566">
        <ele>71.269999999999996</ele>
        <time>2025-05-06T16:18:07Z</time>
      </trkpt>
      <trkpt lat="37.027594037353992" lon="-8.977883979678154">
        <ele>70.790000000000006</ele>
        <time>2025-05-06T16:18:45Z</time>
      </trkpt>
      <trkpt lat="37.027475014328957" lon="-8.977216025814414">
        <ele>69.349999999999994</ele>
        <time>2025-05-06T16:18:50Z</time>
      </trkpt>
      <trkpt lat="37.027259012684226" lon="-8.975734021514654">
        <ele>66.469999999999999</ele>
        <time>2025-05-06T16:18:56Z</time>
      </trkpt>
      <trkpt lat="37.027231017127633" lon="-8.975444007664919">
        <ele>65.510000000000005</ele>
        <time>2025-05-06T16:18:57Z</time>
      </trkpt>
      <trkpt lat="37.027249960228801" lon="-8.975179977715015">
        <ele>65.030000000000001</ele>
        <time>2025-05-06T16:18:58Z</time>
      </trkpt>
      <trkpt lat="37.02746101655066" lon="-8.972272966057062">
        <ele>60.219999999999999</ele>
        <time>2025-05-06T16:19:08Z</time>
      </trkpt>
      <trkpt lat="37.027580039575696" lon="-8.970508994534612">
        <ele>58.780000000000001</ele>
        <time>2025-05-06T16:19:15Z</time>
      </trkpt>
      <trkpt lat="37.027674000710249" lon="-8.968445034697652">
        <ele>58.780000000000001</ele>
        <time>2025-05-06T16:19:24Z</time>
      </trkpt>
      <trkpt lat="37.027667965739965" lon="-8.968126019462943">
        <ele>58.299999999999997</ele>
        <time>2025-05-06T16:19:29Z</time>
      </trkpt>
      <trkpt lat="37.027667965739965" lon="-8.968126019462943">
        <ele>58.299999999999997</ele>
        <time>2025-05-06T16:19:43Z</time>
      </trkpt>
      <trkpt lat="37.027662014588714" lon="-8.96773299202323">
        <ele>56.369999999999997</ele>
        <time>2025-05-06T16:19:51Z</time>
      </trkpt>
      <trkpt lat="37.027644999325275" lon="-8.966753985732794">
        <ele>55.890000000000001</ele>
        <time>2025-05-06T16:19:57Z</time>
      </trkpt>
      <trkpt lat="37.027605017647147" lon="-8.96446798928082">
        <ele>55.409999999999997</ele>
        <time>2025-05-06T16:20:07Z</time>
      </trkpt>
      <trkpt lat="37.027551038190722" lon="-8.963598031550646">
        <ele>54.93</ele>
        <time>2025-05-06T16:20:11Z</time>
      </trkpt>
      <trkpt lat="37.027502004057169" lon="-8.963400973007083">
        <ele>54.450000000000003</ele>
        <time>2025-05-06T16:20:12Z</time>
      </trkpt>
      <trkpt lat="37.027404019609094" lon="-8.963240040466189">
        <ele>53.969999999999999</ele>
        <time>2025-05-06T16:20:13Z</time>
      </trkpt>
      <trkpt lat="37.027308968827128" lon="-8.963084975257516">
        <ele>53.490000000000002</ele>
        <time>2025-05-06T16:20:14Z</time>
      </trkpt>
      <trkpt lat="37.027190029621124" lon="-8.962962012737989">
        <ele>53.009999999999998</ele>
        <time>2025-05-06T16:20:15Z</time>
      </trkpt>
      <trkpt lat="37.027062959969044" lon="-8.962860004976392">
        <ele>53.009999999999998</ele>
        <time>2025-05-06T16:20:16Z</time>
      </trkpt>
      <trkpt lat="37.025802992284298" lon="-8.96188703365624">
        <ele>50.130000000000003</ele>
        <time>2025-05-06T16:20:26Z</time>
      </trkpt>
      <trkpt lat="37.024343032389879" lon="-8.960747011005878">
        <ele>46.280000000000001</ele>
        <time>2025-05-06T16:20:35Z</time>
      </trkpt>
      <trkpt lat="37.022051000967622" lon="-8.958952026441693">
        <ele>41.469999999999999</ele>
        <time>2025-05-06T16:20:48Z</time>
      </trkpt>
      <trkpt lat="37.019400978460908" lon="-8.956855041906238">
        <ele>35.229999999999997</ele>
        <time>2025-05-06T16:21:03Z</time>
      </trkpt>
      <trkpt lat="37.01738596893847" lon="-8.955234987661243">
        <ele>29.460000000000001</ele>
        <time>2025-05-06T16:21:15Z</time>
      </trkpt>
      <trkpt lat="37.014982039108872" lon="-8.953191982582212">
        <ele>28.02</ele>
        <time>2025-05-06T16:21:29Z</time>
      </trkpt>
      <trkpt lat="37.012459002435207" lon="-8.951030038297176">
        <ele>25.129999999999999</ele>
        <time>2025-05-06T16:21:45Z</time>
      </trkpt>
      <trkpt lat="37.010396970435977" lon="-8.949274029582739">
        <ele>30.420000000000002</ele>
        <time>2025-05-06T16:21:58Z</time>
      </trkpt>
      <trkpt lat="37.009383011609316" lon="-8.948327964171767">
        <ele>34.259999999999998</ele>
        <time>2025-05-06T16:22:07Z</time>
      </trkpt>
      <trkpt lat="37.008766019716859" lon="-8.947338983416557">
        <ele>36.189999999999998</ele>
        <time>2025-05-06T16:22:16Z</time>
      </trkpt>
      <trkpt lat="37.007962027564645" lon="-8.945749020203948">
        <ele>40.990000000000002</ele>
        <time>2025-05-06T16:22:31Z</time>
      </trkpt>
      <trkpt lat="37.007811991497874" lon="-8.945215009152889">
        <ele>42.439999999999998</ele>
        <time>2025-05-06T16:22:36Z</time>
      </trkpt>
      <trkpt lat="37.007639994844794" lon="-8.945103026926518">
        <ele>42.439999999999998</ele>
        <time>2025-05-06T16:22:37Z</time>
      </trkpt>
      <trkpt lat="37.007594984024763" lon="-8.945058016106486">
        <ele>42.439999999999998</ele>
        <time>2025-05-06T16:22:39Z</time>
      </trkpt>
      <trkpt lat="37.0075430162251" lon="-8.944951985031366">
        <ele>41.950000000000003</ele>
        <time>2025-05-06T16:22:40Z</time>
      </trkpt>
      <trkpt lat="37.007533041760325" lon="-8.944888031110168">
        <ele>41.950000000000003</ele>
        <time>2025-05-06T16:22:41Z</time>
      </trkpt>
      <trkpt lat="37.007596995681524" lon="-8.944759033620358">
        <ele>41.469999999999999</ele>
        <time>2025-05-06T16:22:42Z</time>
      </trkpt>
      <trkpt lat="37.007620967924595" lon="-8.944592988118529">
        <ele>40.990000000000002</ele>
        <time>2025-05-06T16:22:43Z</time>
      </trkpt>
      <trkpt lat="37.007575035095215" lon="-8.944481005892158">
        <ele>40.509999999999998</ele>
        <time>2025-05-06T16:22:44Z</time>
      </trkpt>
      <trkpt lat="37.007562965154648" lon="-8.944382015615702">
        <ele>40.509999999999998</ele>
        <time>2025-05-06T16:22:45Z</time>
      </trkpt>
      <trkpt lat="37.007411001250148" lon="-8.943117018789053">
        <ele>40.509999999999998</ele>
        <time>2025-05-06T16:22:57Z</time>
      </trkpt>
      <trkpt lat="37.007370013743639" lon="-8.942756010219455">
        <ele>40.030000000000001</ele>
        <time>2025-05-06T16:23:05Z</time>
      </trkpt>
      <trkpt lat="37.007360961288214" lon="-8.942677974700928">
        <ele>39.07</ele>
        <time>2025-05-06T16:23:16Z</time>
      </trkpt>
      <trkpt lat="37.007360961288214" lon="-8.942677974700928">
        <ele>36.189999999999998</ele>
        <time>2025-05-06T16:23:29Z</time>
      </trkpt>
      <trkpt lat="37.007360961288214" lon="-8.942677974700928">
        <ele>33.780000000000001</ele>
        <time>2025-05-06T16:23:57Z</time>
      </trkpt>
      <trkpt lat="37.007360961288214" lon="-8.942677974700928">
        <ele>33.780000000000001</ele>
        <time>2025-05-06T16:23:58Z</time>
      </trkpt>
      <trkpt lat="37.007377976551652" lon="-8.942832034081221">
        <ele>29.940000000000001</ele>
        <time>2025-05-06T16:24:04Z</time>
      </trkpt>
      <trkpt lat="37.007377976551652" lon="-8.942832034081221">
        <ele>28.98</ele>
        <time>2025-05-06T16:24:16Z</time>
      </trkpt>
      <trkpt lat="37.007389962673187" lon="-8.942861035466194">
        <ele>35.229999999999997</ele>
        <time>2025-05-06T16:48:38Z</time>
      </trkpt>
      <trkpt lat="37.00733195990324" lon="-8.942857012152672">
        <ele>26.09</ele>
        <time>2025-05-06T16:49:15Z</time>
      </trkpt>
      <trkpt lat="37.007332965731621" lon="-8.942861035466194">
        <ele>26.57</ele>
        <time>2025-05-06T16:49:22Z</time>
      </trkpt>
      <trkpt lat="37.007388034835458" lon="-8.942918032407761">
        <ele>27.530000000000001</ele>
        <time>2025-05-06T16:49:25Z</time>
      </trkpt>
      <trkpt lat="37.007392980158329" lon="-8.94296295940876">
        <ele>27.530000000000001</ele>
        <time>2025-05-06T16:49:26Z</time>
      </trkpt>
      <trkpt lat="37.007398009300232" lon="-8.943007970228791">
        <ele>27.530000000000001</ele>
        <time>2025-05-06T16:49:27Z</time>
      </trkpt>
      <trkpt lat="37.007403038442135" lon="-8.94304602406919">
        <ele>28.5</ele>
        <time>2025-05-06T16:49:35Z</time>
      </trkpt>
      <trkpt lat="37.007435979321599" lon="-8.943337965756655">
        <ele>29.940000000000001</ele>
        <time>2025-05-06T16:49:46Z</time>
      </trkpt>
      <trkpt lat="37.007557014003396" lon="-8.94433599896729">
        <ele>29.460000000000001</ele>
        <time>2025-05-06T16:49:56Z</time>
      </trkpt>
      <trkpt lat="37.007567994296551" lon="-8.94442199729383">
        <ele>29.940000000000001</ele>
        <time>2025-05-06T16:49:57Z</time>
      </trkpt>
      <trkpt lat="37.007590960711241" lon="-8.944518975913525">
        <ele>30.420000000000002</ele>
        <time>2025-05-06T16:49:58Z</time>
      </trkpt>
      <trkpt lat="37.007622979581356" lon="-8.944600028917193">
        <ele>30.420000000000002</ele>
        <time>2025-05-06T16:49:59Z</time>
      </trkpt>
      <trkpt lat="37.007790030911565" lon="-8.944694995880127">
        <ele>30.420000000000002</ele>
        <time>2025-05-06T16:50:00Z</time>
      </trkpt>
      <trkpt lat="37.007790030911565" lon="-8.944694995880127">
        <ele>30.899999999999999</ele>
        <time>2025-05-06T16:50:01Z</time>
      </trkpt>
      <trkpt lat="37.007790030911565" lon="-8.944694995880127">
        <ele>30.899999999999999</ele>
        <time>2025-05-06T16:50:02Z</time>
      </trkpt>
      <trkpt lat="37.007980970665812" lon="-8.944772025570273">
        <ele>31.379999999999999</ele>
        <time>2025-05-06T16:50:03Z</time>
      </trkpt>
      <trkpt lat="37.008062023669481" lon="-8.944731960073113">
        <ele>31.859999999999999</ele>
        <time>2025-05-06T16:50:04Z</time>
      </trkpt>
      <trkpt lat="37.00814601033926" lon="-8.944692984223366">
        <ele>32.340000000000003</ele>
        <time>2025-05-06T16:50:05Z</time>
      </trkpt>
      <trkpt lat="37.008233014494181" lon="-8.944653002545238">
        <ele>32.82</ele>
        <time>2025-05-06T16:50:06Z</time>
      </trkpt>
      <trkpt lat="37.009153012186289" lon="-8.94420700147748">
        <ele>36.189999999999998</ele>
        <time>2025-05-06T16:50:16Z</time>
      </trkpt>
      <trkpt lat="37.010521022602916" lon="-8.943551033735275">
        <ele>32.82</ele>
        <time>2025-05-06T16:50:29Z</time>
      </trkpt>
      <trkpt lat="37.01164897531271" lon="-8.942991038784385">
        <ele>30.899999999999999</ele>
        <time>2025-05-06T16:50:40Z</time>
      </trkpt>
      <trkpt lat="37.012983961030841" lon="-8.942356025800109">
        <ele>27.050000000000001</ele>
        <time>2025-05-06T16:50:52Z</time>
      </trkpt>
      <trkpt lat="37.014777017757297" lon="-8.94150098785758">
        <ele>22.25</ele>
        <time>2025-05-06T16:51:08Z</time>
      </trkpt>
      <trkpt lat="37.016346026211977" lon="-8.940754998475313">
        <ele>20.809999999999999</ele>
        <time>2025-05-06T16:51:22Z</time>
      </trkpt>
      <trkpt lat="37.017928026616573" lon="-8.939991993829608">
        <ele>19.84</ele>
        <time>2025-05-06T16:51:36Z</time>
      </trkpt>
      <trkpt lat="37.018938967958093" lon="-8.939511962234974">
        <ele>21.77</ele>
        <time>2025-05-06T16:51:45Z</time>
      </trkpt>
      <trkpt lat="37.0206050388515" lon="-8.938701013103128">
        <ele>26.57</ele>
        <time>2025-05-06T16:51:59Z</time>
      </trkpt>
      <trkpt lat="37.0221540145576" lon="-8.937958963215351">
        <ele>24.170000000000002</ele>
        <time>2025-05-06T16:52:10Z</time>
      </trkpt>
      <trkpt lat="37.022451991215348" lon="-8.937827032059431">
        <ele>24.649999999999999</ele>
        <time>2025-05-06T16:52:12Z</time>
      </trkpt>
      <trkpt lat="37.022773018106818" lon="-8.937766011804342">
        <ele>25.129999999999999</ele>
        <time>2025-05-06T16:52:14Z</time>
      </trkpt>
      <trkpt lat="37.02294803224504" lon="-8.937769029289484">
        <ele>25.609999999999999</ele>
        <time>2025-05-06T16:52:15Z</time>
      </trkpt>
      <trkpt lat="37.025022972375154" lon="-8.937742039561272">
        <ele>29.940000000000001</ele>
        <time>2025-05-06T16:52:26Z</time>
      </trkpt>
      <trkpt lat="37.026935974135995" lon="-8.937249016016722">
        <ele>34.259999999999998</ele>
        <time>2025-05-06T16:52:35Z</time>
      </trkpt>
      <trkpt lat="37.029045028612018" lon="-8.936575027182698">
        <ele>37.630000000000003</ele>
        <time>2025-05-06T16:52:44Z</time>
      </trkpt>
      <trkpt lat="37.031877022236586" lon="-8.935565007850528">
        <ele>40.990000000000002</ele>
        <time>2025-05-06T16:52:57Z</time>
      </trkpt>
      <trkpt lat="37.035528011620045" lon="-8.934073029085994">
        <ele>44.840000000000003</ele>
        <time>2025-05-06T16:53:14Z</time>
      </trkpt>
      <trkpt lat="37.039345968514681" lon="-8.932512989267707">
        <ele>47.719999999999999</ele>
        <time>2025-05-06T16:53:31Z</time>
      </trkpt>
      <trkpt lat="37.043146993964911" lon="-8.930958984419704">
        <ele>53.009999999999998</ele>
        <time>2025-05-06T16:53:48Z</time>
      </trkpt>
      <trkpt lat="37.046559015288949" lon="-8.929564990103245">
        <ele>57.340000000000003</ele>
        <time>2025-05-06T16:54:04Z</time>
      </trkpt>
      <trkpt lat="37.048845011740923" lon="-8.928362019360066">
        <ele>60.219999999999999</ele>
        <time>2025-05-06T16:54:15Z</time>
      </trkpt>
      <trkpt lat="37.050862032920122" lon="-8.92652696929872">
        <ele>62.619999999999997</ele>
        <time>2025-05-06T16:54:26Z</time>
      </trkpt>
      <trkpt lat="37.053490011021495" lon="-8.924104012548924">
        <ele>66.950000000000003</ele>
        <time>2025-05-06T16:54:40Z</time>
      </trkpt>
      <trkpt lat="37.055005040019751" lon="-8.923297002911568">
        <ele>69.829999999999998</ele>
        <time>2025-05-06T16:54:47Z</time>
      </trkpt>
      <trkpt lat="37.056603971868753" lon="-8.923062980175018">
        <ele>68.870000000000005</ele>
        <time>2025-05-06T16:54:54Z</time>
      </trkpt>
      <trkpt lat="37.060072990134358" lon="-8.922972036525607">
        <ele>65.989999999999995</ele>
        <time>2025-05-06T16:55:09Z</time>
      </trkpt>
      <trkpt lat="37.063683997839689" lon="-8.922877991572022">
        <ele>67.430000000000007</ele>
        <time>2025-05-06T16:55:25Z</time>
      </trkpt>
      <trkpt lat="37.066111983731389" lon="-8.922551013529301">
        <ele>74.159999999999997</ele>
        <time>2025-05-06T16:55:36Z</time>
      </trkpt>
      <trkpt lat="37.067521987482905" lon="-8.921704022213817">
        <ele>80.409999999999997</ele>
        <time>2025-05-06T16:55:43Z</time>
      </trkpt>
      <trkpt lat="37.069490980356932" lon="-8.919876012951136">
        <ele>90.019999999999996</ele>
        <time>2025-05-06T16:55:54Z</time>
      </trkpt>
      <trkpt lat="37.071615038439631" lon="-8.918091002851725">
        <ele>95.790000000000006</ele>
        <time>2025-05-06T16:56:05Z</time>
      </trkpt>
      <trkpt lat="37.0747060328722" lon="-8.91603802330792">
        <ele>90.019999999999996</ele>
        <time>2025-05-06T16:56:20Z</time>
      </trkpt>
      <trkpt lat="37.076290966942906" lon="-8.914983998984098">
        <ele>84.25</ele>
        <time>2025-05-06T16:56:29Z</time>
      </trkpt>
      <trkpt lat="37.077456973493099" lon="-8.914185035973787">
        <ele>78.969999999999999</ele>
        <time>2025-05-06T16:56:37Z</time>
      </trkpt>
      <trkpt lat="37.077597035095096" lon="-8.914080010727048">
        <ele>78</ele>
        <time>2025-05-06T16:56:38Z</time>
      </trkpt>
      <trkpt lat="37.07773600704968" lon="-8.913974985480309">
        <ele>77.040000000000006</ele>
        <time>2025-05-06T16:56:39Z</time>
      </trkpt>
      <trkpt lat="37.078993963077664" lon="-8.912652991712093">
        <ele>74.640000000000001</ele>
        <time>2025-05-06T16:56:49Z</time>
      </trkpt>
      <trkpt lat="37.080494994297624" lon="-8.910558018833399">
        <ele>76.560000000000002</ele>
        <time>2025-05-06T16:57:02Z</time>
      </trkpt>
      <trkpt lat="37.081866022199392" lon="-8.908299012109637">
        <ele>77.519999999999996</ele>
        <time>2025-05-06T16:57:14Z</time>
      </trkpt>
      <trkpt lat="37.082367008551955" lon="-8.906360026448965">
        <ele>73.680000000000007</ele>
        <time>2025-05-06T16:57:22Z</time>
      </trkpt>
      <trkpt lat="37.082424005493522" lon="-8.904262958094478">
        <ele>70.310000000000002</ele>
        <time>2025-05-06T16:57:30Z</time>
      </trkpt>
      <trkpt lat="37.082430040463805" lon="-8.900629989802837">
        <ele>74.640000000000001</ele>
        <time>2025-05-06T16:57:44Z</time>
      </trkpt>
      <trkpt lat="37.082257959991693" lon="-8.897724989801645">
        <ele>77.040000000000006</ele>
        <time>2025-05-06T16:57:55Z</time>
      </trkpt>
      <trkpt lat="37.082412019371986" lon="-8.895775023847818">
        <ele>71.269999999999996</ele>
        <time>2025-05-06T16:58:03Z</time>
      </trkpt>
      <trkpt lat="37.082629026845098" lon="-8.894046004861593">
        <ele>61.659999999999997</ele>
        <time>2025-05-06T16:58:10Z</time>
      </trkpt>
      <trkpt lat="37.082630032673478" lon="-8.893018970265985">
        <ele>56.859999999999999</ele>
        <time>2025-05-06T16:58:16Z</time>
      </trkpt>
      <trkpt lat="37.082573035731912" lon="-8.892330983653665">
        <ele>54.450000000000003</ele>
        <time>2025-05-06T16:58:23Z</time>
      </trkpt>
      <trkpt lat="37.082500029355288" lon="-8.89178398065269">
        <ele>53.490000000000002</ele>
        <time>2025-05-06T16:58:32Z</time>
      </trkpt>
      <trkpt lat="37.082447977736592" lon="-8.891405034810305">
        <ele>53.009999999999998</ele>
        <time>2025-05-06T16:58:38Z</time>
      </trkpt>
      <trkpt lat="37.082366002723575" lon="-8.890704978257418">
        <ele>53.969999999999999</ele>
        <time>2025-05-06T16:58:51Z</time>
      </trkpt>
      <trkpt lat="37.082361979410052" lon="-8.890658039599657">
        <ele>53.969999999999999</ele>
        <time>2025-05-06T16:58:52Z</time>
      </trkpt>
      <trkpt lat="37.082337001338601" lon="-8.890485037118197">
        <ele>53.490000000000002</ele>
        <time>2025-05-06T16:59:02Z</time>
      </trkpt>
      <trkpt lat="37.082307999953628" lon="-8.890250008553267">
        <ele>54.450000000000003</ele>
        <time>2025-05-06T16:59:21Z</time>
      </trkpt>
      <trkpt lat="37.082275981083512" lon="-8.889365969225764">
        <ele>58.780000000000001</ele>
        <time>2025-05-06T16:59:31Z</time>
      </trkpt>
      <trkpt lat="37.082157041877508" lon="-8.887881031259894">
        <ele>65.030000000000001</ele>
        <time>2025-05-06T16:59:41Z</time>
      </trkpt>
      <trkpt lat="37.081780023872852" lon="-8.885321030393243">
        <ele>80.409999999999997</ele>
        <time>2025-05-06T16:59:55Z</time>
      </trkpt>
      <trkpt lat="37.081742975860834" lon="-8.883667029440403">
        <ele>87.620000000000005</ele>
        <time>2025-05-06T17:00:03Z</time>
      </trkpt>
      <trkpt lat="37.082189982756972" lon="-8.881844971328974">
        <ele>91.459999999999994</ele>
        <time>2025-05-06T17:00:11Z</time>
      </trkpt>
      <trkpt lat="37.082902025431395" lon="-8.879245994612575">
        <ele>87.620000000000005</ele>
        <time>2025-05-06T17:00:22Z</time>
      </trkpt>
      <trkpt lat="37.083522034808993" lon="-8.876769980415702">
        <ele>81.849999999999994</ele>
        <time>2025-05-06T17:00:32Z</time>
      </trkpt>
      <trkpt lat="37.084085969254375" lon="-8.874300001189113">
        <ele>75.120000000000005</ele>
        <time>2025-05-06T17:00:42Z</time>
      </trkpt>
      <trkpt lat="37.084168028086424" lon="-8.873851988464594">
        <ele>75.120000000000005</ele>
        <time>2025-05-06T17:00:45Z</time>
      </trkpt>
      <trkpt lat="37.084187977015972" lon="-8.873739000409842">
        <ele>75.120000000000005</ele>
        <time>2025-05-06T17:00:46Z</time>
      </trkpt>
      <trkpt lat="37.084051016718149" lon="-8.873562980443239">
        <ele>75.120000000000005</ele>
        <time>2025-05-06T17:00:47Z</time>
      </trkpt>
      <trkpt lat="37.084051016718149" lon="-8.873500032350421">
        <ele>75.120000000000005</ele>
        <time>2025-05-06T17:00:48Z</time>
      </trkpt>
      <trkpt lat="37.084057973697782" lon="-8.873400036245585">
        <ele>75.120000000000005</ele>
        <time>2025-05-06T17:00:49Z</time>
      </trkpt>
      <trkpt lat="37.084071971476078" lon="-8.873304985463619">
        <ele>75.599999999999994</ele>
        <time>2025-05-06T17:00:50Z</time>
      </trkpt>
      <trkpt lat="37.084071971476078" lon="-8.873304985463619">
        <ele>75.599999999999994</ele>
        <time>2025-05-06T17:00:51Z</time>
      </trkpt>
      <trkpt lat="37.084200968965888" lon="-8.873105999082327">
        <ele>76.079999999999998</ele>
        <time>2025-05-06T17:00:52Z</time>
      </trkpt>
      <trkpt lat="37.084199963137507" lon="-8.872994016855955">
        <ele>75.599999999999994</ele>
        <time>2025-05-06T17:00:53Z</time>
      </trkpt>
      <trkpt lat="37.084197029471397" lon="-8.872867031022906">
        <ele>75.599999999999994</ele>
        <time>2025-05-06T17:00:54Z</time>
      </trkpt>
      <trkpt lat="37.084194011986256" lon="-8.87272696942091">
        <ele>76.079999999999998</ele>
        <time>2025-05-06T17:00:55Z</time>
      </trkpt>
      <trkpt lat="37.084168028086424" lon="-8.871444035321474">
        <ele>73.680000000000007</ele>
        <time>2025-05-06T17:01:02Z</time>
      </trkpt>
      <trkpt lat="37.084064008668065" lon="-8.869255017489195">
        <ele>65.989999999999995</ele>
        <time>2025-05-06T17:01:11Z</time>
      </trkpt>
      <trkpt lat="37.083604009822011" lon="-8.867551982402802">
        <ele>58.299999999999997</ele>
        <time>2025-05-06T17:01:18Z</time>
      </trkpt>
      <trkpt lat="37.08263598382473" lon="-8.865856993943453">
        <ele>54.93</ele>
        <time>2025-05-06T17:01:26Z</time>
      </trkpt>
      <trkpt lat="37.081427983939648" lon="-8.863688008859754">
        <ele>62.140000000000001</ele>
        <time>2025-05-06T17:01:37Z</time>
      </trkpt>
      <trkpt lat="37.080718036741018" lon="-8.861455991864204">
        <ele>64.549999999999997</ele>
        <time>2025-05-06T17:01:47Z</time>
      </trkpt>
      <trkpt lat="37.079850006848574" lon="-8.859916990622878">
        <ele>60.700000000000003</ele>
        <time>2025-05-06T17:01:54Z</time>
      </trkpt>
      <trkpt lat="37.078469004482031" lon="-8.858471028506756">
        <ele>56.369999999999997</ele>
        <time>2025-05-06T17:02:02Z</time>
      </trkpt>
      <trkpt lat="37.076390963047743" lon="-8.856412013992667">
        <ele>53.969999999999999</ele>
        <time>2025-05-06T17:02:15Z</time>
      </trkpt>
      <trkpt lat="37.075489992275834" lon="-8.854952976107597">
        <ele>50.609999999999999</ele>
        <time>2025-05-06T17:02:22Z</time>
      </trkpt>
      <trkpt lat="37.07438500598073" lon="-8.852646024897695">
        <ele>51.090000000000003</ele>
        <time>2025-05-06T17:02:33Z</time>
      </trkpt>
      <trkpt lat="37.073941016569734" lon="-8.850856991484761">
        <ele>48.200000000000003</ele>
        <time>2025-05-06T17:02:42Z</time>
      </trkpt>
      <trkpt lat="37.073974963277578" lon="-8.849119003862143">
        <ele>40.030000000000001</ele>
        <time>2025-05-06T17:02:51Z</time>
      </trkpt>
      <trkpt lat="37.074112007394433" lon="-8.848095992580056">
        <ele>34.259999999999998</ele>
        <time>2025-05-06T17:02:58Z</time>
      </trkpt>
      <trkpt lat="37.074126005172729" lon="-8.847986022010446">
        <ele>33.780000000000001</ele>
        <time>2025-05-06T17:02:59Z</time>
      </trkpt>
      <trkpt lat="37.074050987139344" lon="-8.847791980952025">
        <ele>33.299999999999997</ele>
        <time>2025-05-06T17:03:00Z</time>
      </trkpt>
      <trkpt lat="37.074050987139344" lon="-8.847791980952025">
        <ele>33.299999999999997</ele>
        <time>2025-05-06T17:03:01Z</time>
      </trkpt>
      <trkpt lat="37.07404101267457" lon="-8.84771796874702">
        <ele>32.82</ele>
        <time>2025-05-06T17:03:02Z</time>
      </trkpt>
      <trkpt lat="37.074031038209796" lon="-8.847646974027157">
        <ele>32.340000000000003</ele>
        <time>2025-05-06T17:03:03Z</time>
      </trkpt>
      <trkpt lat="37.074060961604118" lon="-8.847580002620816">
        <ele>32.340000000000003</ele>
        <time>2025-05-06T17:03:04Z</time>
      </trkpt>
      <trkpt lat="37.074092980474234" lon="-8.847515964880586">
        <ele>32.340000000000003</ele>
        <time>2025-05-06T17:03:05Z</time>
      </trkpt>
      <trkpt lat="37.074142014607787" lon="-8.847494004294276">
        <ele>31.859999999999999</ele>
        <time>2025-05-06T17:03:06Z</time>
      </trkpt>
      <trkpt lat="37.074198005720973" lon="-8.847471959888935">
        <ele>31.859999999999999</ele>
        <time>2025-05-06T17:03:07Z</time>
      </trkpt>
      <trkpt lat="37.074246034026146" lon="-8.847508002072573">
        <ele>31.379999999999999</ele>
        <time>2025-05-06T17:03:08Z</time>
      </trkpt>
      <trkpt lat="37.074305964633822" lon="-8.847559969872236">
        <ele>31.379999999999999</ele>
        <time>2025-05-06T17:03:09Z</time>
      </trkpt>
      <trkpt lat="37.074351981282234" lon="-8.847599029541016">
        <ele>31.379999999999999</ele>
        <time>2025-05-06T17:03:10Z</time>
      </trkpt>
      <trkpt lat="37.074373019859195" lon="-8.847767002880573">
        <ele>31.379999999999999</ele>
        <time>2025-05-06T17:03:11Z</time>
      </trkpt>
      <trkpt lat="37.07449397072196" lon="-8.847884014248848">
        <ele>31.379999999999999</ele>
        <time>2025-05-06T17:03:13Z</time>
      </trkpt>
      <trkpt lat="37.074519032612443" lon="-8.847978981211782">
        <ele>31.859999999999999</ele>
        <time>2025-05-06T17:03:14Z</time>
      </trkpt>
      <trkpt lat="37.074509980157018" lon="-8.848064979538322">
        <ele>31.859999999999999</ele>
        <time>2025-05-06T17:03:15Z</time>
      </trkpt>
      <trkpt lat="37.07449103705585" lon="-8.84814796037972">
        <ele>31.859999999999999</ele>
        <time>2025-05-06T17:03:16Z</time>
      </trkpt>
      <trkpt lat="37.074436973780394" lon="-8.848213003948331">
        <ele>31.859999999999999</ele>
        <time>2025-05-06T17:03:17Z</time>
      </trkpt>
      <trkpt lat="37.074375031515956" lon="-8.848288021981716">
        <ele>31.859999999999999</ele>
        <time>2025-05-06T17:03:18Z</time>
      </trkpt>
      <trkpt lat="37.074309987947345" lon="-8.848365973681212">
        <ele>31.379999999999999</ele>
        <time>2025-05-06T17:03:19Z</time>
      </trkpt>
      <trkpt lat="37.07425600849092" lon="-8.848455995321274">
        <ele>31.379999999999999</ele>
        <time>2025-05-06T17:03:20Z</time>
      </trkpt>
      <trkpt lat="37.074212003499269" lon="-8.848544005304575">
        <ele>30.899999999999999</ele>
        <time>2025-05-06T17:03:21Z</time>
      </trkpt>
      <trkpt lat="37.07419297657907" lon="-8.848627991974354">
        <ele>30.899999999999999</ele>
        <time>2025-05-06T17:03:22Z</time>
      </trkpt>
      <trkpt lat="37.074181996285915" lon="-8.848706027492881">
        <ele>30.899999999999999</ele>
        <time>2025-05-06T17:03:23Z</time>
      </trkpt>
      <trkpt lat="37.074142014607787" lon="-8.848994029685855">
        <ele>31.379999999999999</ele>
        <time>2025-05-06T17:03:31Z</time>
      </trkpt>
      <trkpt lat="37.074142014607787" lon="-8.848994029685855">
        <ele>31.379999999999999</ele>
        <time>2025-05-06T17:03:59Z</time>
      </trkpt>
      <trkpt lat="37.074142014607787" lon="-8.848994029685855">
        <ele>31.859999999999999</ele>
        <time>2025-05-06T17:04:32Z</time>
      </trkpt>
      <trkpt lat="37.074142014607787" lon="-8.848994029685855">
        <ele>33.299999999999997</ele>
        <time>2025-05-06T17:04:49Z</time>
      </trkpt>
      <trkpt lat="37.074142014607787" lon="-8.848994029685855">
        <ele>32.82</ele>
        <time>2025-05-06T17:06:06Z</time>
      </trkpt>
      <trkpt lat="37.074092980474234" lon="-8.849082039669156">
        <ele>38.590000000000003</ele>
        <time>2025-05-06T17:09:05Z</time>
      </trkpt>
      <trkpt lat="37.074066996574402" lon="-8.849076004698873">
        <ele>35.229999999999997</ele>
        <time>2025-05-06T17:09:16Z</time>
      </trkpt>
      <trkpt lat="37.074115024879575" lon="-8.849059995263815">
        <ele>34.740000000000002</ele>
        <time>2025-05-06T17:09:35Z</time>
      </trkpt>
      <trkpt lat="37.0741499774158" lon="-8.849073993042111">
        <ele>35.229999999999997</ele>
        <time>2025-05-06T17:09:56Z</time>
      </trkpt>
      <trkpt lat="37.074204962700605" lon="-8.849086984992027">
        <ele>37.149999999999999</ele>
        <time>2025-05-06T17:10:15Z</time>
      </trkpt>
      <trkpt lat="37.074230024591088" lon="-8.849082961678505">
        <ele>38.109999999999999</ele>
        <time>2025-05-06T17:10:32Z</time>
      </trkpt>
    </trkseg>
  </trk>

</gpx>